<?xml version="1.0" encoding="utf-8"?>
<gpx xmlns:xsi="http://www.w3.org/2001/XMLSchema-instance" xmlns:xsd="http://www.w3.org/2001/XMLSchema" version="1.1" creator="Shapelink.com" xmlns="http://www.topografix.com/GPX/1/1" xmlns:gpxtpx="http://www.garmin.com/xmlschemas/TrackPointExtension/v1">
  <metadata>
    <name>Löpning 39.77 km, 2017-10-15</name>
    <desc></desc>
    <author><name>Bengt-Åke Forslund</name></author> 
    <time>2017-10-15T13:49:01Z</time>
  </metadata>
  <trk>
    <name>Löpning 39.77 km, 2017-10-15</name>
    <trkseg>
      <trkpt lat="59.848356297887" lon="17.606758211453">
        <ele>17.2</ele>
        <time>2017-10-15T13:49:01Z</time>
      </trkpt>
      <trkpt lat="59.848323021744" lon="17.606711356632">
        <ele>17.4</ele>
        <time>2017-10-15T13:49:02Z</time>
      </trkpt>
      <trkpt lat="59.848295864388" lon="17.60667883486">
        <ele>17.4</ele>
        <time>2017-10-15T13:49:03Z</time>
      </trkpt>
      <trkpt lat="59.848264096987" lon="17.606643547061">
        <ele>17.6</ele>
        <time>2017-10-15T13:49:04Z</time>
      </trkpt>
      <trkpt lat="59.848274322905" lon="17.606632315315">
        <ele>17.6</ele>
        <time>2017-10-15T13:49:05Z</time>
      </trkpt>
      <trkpt lat="59.848243980427" lon="17.606547322849">
        <ele>18</ele>
        <time>2017-10-15T13:49:06Z</time>
      </trkpt>
      <trkpt lat="59.84822696517" lon="17.606499965114">
        <ele>18</ele>
        <time>2017-10-15T13:49:07Z</time>
      </trkpt>
      <trkpt lat="59.848208189714" lon="17.606446153316">
        <ele>17.8</ele>
        <time>2017-10-15T13:49:08Z</time>
      </trkpt>
      <trkpt lat="59.84819008481" lon="17.606393431165">
        <ele>17.8</ele>
        <time>2017-10-15T13:49:09Z</time>
      </trkpt>
      <trkpt lat="59.848174326838" lon="17.606341128109">
        <ele>17.8</ele>
        <time>2017-10-15T13:49:10Z</time>
      </trkpt>
      <trkpt lat="59.848156138115" lon="17.606285639931">
        <ele>17.8</ele>
        <time>2017-10-15T13:49:11Z</time>
      </trkpt>
      <trkpt lat="59.848131914424" lon="17.606229229744">
        <ele>17.6</ele>
        <time>2017-10-15T13:49:12Z</time>
      </trkpt>
      <trkpt lat="59.848105930534" lon="17.606179105982">
        <ele>17.8</ele>
        <time>2017-10-15T13:49:13Z</time>
      </trkpt>
      <trkpt lat="59.8480735764" lon="17.606138034672">
        <ele>17.6</ele>
        <time>2017-10-15T13:49:14Z</time>
      </trkpt>
      <trkpt lat="59.84803921061" lon="17.606102663054">
        <ele>17.6</ele>
        <time>2017-10-15T13:49:15Z</time>
      </trkpt>
      <trkpt lat="59.84801574129" lon="17.606078439363">
        <ele>17.4</ele>
        <time>2017-10-15T13:49:16Z</time>
      </trkpt>
      <trkpt lat="59.847961929492" lon="17.606020268977">
        <ele>17.2</ele>
        <time>2017-10-15T13:49:17Z</time>
      </trkpt>
      <trkpt lat="59.847924546218" lon="17.605958242917">
        <ele>17</ele>
        <time>2017-10-15T13:49:18Z</time>
      </trkpt>
      <trkpt lat="59.847893617007" lon="17.60589093626">
        <ele>16.8</ele>
        <time>2017-10-15T13:49:19Z</time>
      </trkpt>
      <trkpt lat="59.84785899976" lon="17.605827150001">
        <ele>16.8</ele>
        <time>2017-10-15T13:49:20Z</time>
      </trkpt>
      <trkpt lat="59.847827064721" lon="17.605762609371">
        <ele>16.6</ele>
        <time>2017-10-15T13:49:21Z</time>
      </trkpt>
      <trkpt lat="59.847790771094" lon="17.605694380705">
        <ele>16.6</ele>
        <time>2017-10-15T13:49:22Z</time>
      </trkpt>
      <trkpt lat="59.847771408905" lon="17.605621961089">
        <ele>16.4</ele>
        <time>2017-10-15T13:49:23Z</time>
      </trkpt>
      <trkpt lat="59.847735366735" lon="17.605530933655">
        <ele>16.2</ele>
        <time>2017-10-15T13:49:24Z</time>
      </trkpt>
      <trkpt lat="59.847699576022" lon="17.605455496555">
        <ele>16</ele>
        <time>2017-10-15T13:49:25Z</time>
      </trkpt>
      <trkpt lat="59.847669065906" lon="17.605380143274">
        <ele>16</ele>
        <time>2017-10-15T13:49:26Z</time>
      </trkpt>
      <trkpt lat="59.84763604122" lon="17.60529414498">
        <ele>16</ele>
        <time>2017-10-15T13:49:27Z</time>
      </trkpt>
      <trkpt lat="59.847606453113" lon="17.605218456423">
        <ele>16</ele>
        <time>2017-10-15T13:49:28Z</time>
      </trkpt>
      <trkpt lat="59.847570243305" lon="17.605132458129">
        <ele>16</ele>
        <time>2017-10-15T13:49:29Z</time>
      </trkpt>
      <trkpt lat="59.84753629661" lon="17.60504771712">
        <ele>15.8</ele>
        <time>2017-10-15T13:49:30Z</time>
      </trkpt>
      <trkpt lat="59.847505618856" lon="17.604967167061">
        <ele>15.6</ele>
        <time>2017-10-15T13:49:31Z</time>
      </trkpt>
      <trkpt lat="59.847471504523" lon="17.604873457419">
        <ele>15.6</ele>
        <time>2017-10-15T13:49:32Z</time>
      </trkpt>
      <trkpt lat="59.847439234208" lon="17.604783603451">
        <ele>15.2</ele>
        <time>2017-10-15T13:49:33Z</time>
      </trkpt>
      <trkpt lat="59.847409562282" lon="17.604701041736">
        <ele>15.2</ele>
        <time>2017-10-15T13:49:34Z</time>
      </trkpt>
      <trkpt lat="59.847375447949" lon="17.604599536927">
        <ele>15</ele>
        <time>2017-10-15T13:49:35Z</time>
      </trkpt>
      <trkpt lat="59.847347536222" lon="17.604510521149">
        <ele>15</ele>
        <time>2017-10-15T13:49:36Z</time>
      </trkpt>
      <trkpt lat="59.847318534848" lon="17.60441823643">
        <ele>15</ele>
        <time>2017-10-15T13:49:37Z</time>
      </trkpt>
      <trkpt lat="59.847286767447" lon="17.60431681544">
        <ele>15.2</ele>
        <time>2017-10-15T13:49:38Z</time>
      </trkpt>
      <trkpt lat="59.847257849892" lon="17.604223860169">
        <ele>15.2</ele>
        <time>2017-10-15T13:49:39Z</time>
      </trkpt>
      <trkpt lat="59.847223987016" lon="17.60413828097">
        <ele>15.2</ele>
        <time>2017-10-15T13:49:40Z</time>
      </trkpt>
      <trkpt lat="59.847189202131" lon="17.604047672631">
        <ele>15</ele>
        <time>2017-10-15T13:49:41Z</time>
      </trkpt>
      <trkpt lat="59.847158943472" lon="17.603944239985">
        <ele>15</ele>
        <time>2017-10-15T13:49:42Z</time>
      </trkpt>
      <trkpt lat="59.847132121392" lon="17.603845082108">
        <ele>14.8</ele>
        <time>2017-10-15T13:49:43Z</time>
      </trkpt>
      <trkpt lat="59.847106388959" lon="17.603750869552">
        <ele>14.6</ele>
        <time>2017-10-15T13:49:44Z</time>
      </trkpt>
      <trkpt lat="59.847081410897" lon="17.603658752471">
        <ele>14.4</ele>
        <time>2017-10-15T13:49:45Z</time>
      </trkpt>
      <trkpt lat="59.847058025396" lon="17.603572251263">
        <ele>14.2</ele>
        <time>2017-10-15T13:49:46Z</time>
      </trkpt>
      <trkpt lat="59.847027850556" lon="17.603460436717">
        <ele>14</ele>
        <time>2017-10-15T13:49:47Z</time>
      </trkpt>
      <trkpt lat="59.847002118123" lon="17.603360105374">
        <ele>14</ele>
        <time>2017-10-15T13:49:48Z</time>
      </trkpt>
      <trkpt lat="59.846975296043" lon="17.603255750719">
        <ele>13.8</ele>
        <time>2017-10-15T13:49:49Z</time>
      </trkpt>
      <trkpt lat="59.846949144515" lon="17.603149887322">
        <ele>14</ele>
        <time>2017-10-15T13:49:50Z</time>
      </trkpt>
      <trkpt lat="59.846924753186" lon="17.603049304522">
        <ele>13.8</ele>
        <time>2017-10-15T13:49:51Z</time>
      </trkpt>
      <trkpt lat="59.846900361857" lon="17.602946961523">
        <ele>13.8</ele>
        <time>2017-10-15T13:49:52Z</time>
      </trkpt>
      <trkpt lat="59.846870354655" lon="17.602827770905">
        <ele>13.8</ele>
        <time>2017-10-15T13:49:53Z</time>
      </trkpt>
      <trkpt lat="59.846843867851" lon="17.602718135653">
        <ele>13.8</ele>
        <time>2017-10-15T13:49:54Z</time>
      </trkpt>
      <trkpt lat="59.846819057427" lon="17.602605147641">
        <ele>13.4</ele>
        <time>2017-10-15T13:49:55Z</time>
      </trkpt>
      <trkpt lat="59.846797599763" lon="17.602498362235">
        <ele>13.2</ele>
        <time>2017-10-15T13:49:56Z</time>
      </trkpt>
      <trkpt lat="59.846772454063" lon="17.602379171617">
        <ele>13.2</ele>
        <time>2017-10-15T13:49:57Z</time>
      </trkpt>
      <trkpt lat="59.846753678607" lon="17.602284288509">
        <ele>12.8</ele>
        <time>2017-10-15T13:49:58Z</time>
      </trkpt>
      <trkpt lat="59.84672911964" lon="17.602152944136">
        <ele>12.6</ele>
        <time>2017-10-15T13:49:59Z</time>
      </trkpt>
      <trkpt lat="59.846708919261" lon="17.602041381047">
        <ele>12.4</ele>
        <time>2017-10-15T13:50:00Z</time>
      </trkpt>
      <trkpt lat="59.846689808529" lon="17.60193467946">
        <ele>12.4</ele>
        <time>2017-10-15T13:50:01Z</time>
      </trkpt>
      <trkpt lat="59.846669189055" lon="17.601815740299">
        <ele>12.2</ele>
        <time>2017-10-15T13:50:02Z</time>
      </trkpt>
      <trkpt lat="59.846649659228" lon="17.601704428667">
        <ele>12.2</ele>
        <time>2017-10-15T13:50:03Z</time>
      </trkpt>
      <trkpt lat="59.846629794125" lon="17.601594877234">
        <ele>12</ele>
        <time>2017-10-15T13:50:04Z</time>
      </trkpt>
      <trkpt lat="59.846628033926" lon="17.601468729639">
        <ele>12.2</ele>
        <time>2017-10-15T13:50:05Z</time>
      </trkpt>
      <trkpt lat="59.846618646198" lon="17.601359345844">
        <ele>12.2</ele>
        <time>2017-10-15T13:50:06Z</time>
      </trkpt>
      <trkpt lat="59.846607498271" lon="17.601242585977">
        <ele>12</ele>
        <time>2017-10-15T13:50:07Z</time>
      </trkpt>
      <trkpt lat="59.846596098887" lon="17.601122054255">
        <ele>12</ele>
        <time>2017-10-15T13:50:08Z</time>
      </trkpt>
      <trkpt lat="59.846585202417" lon="17.601009652976">
        <ele>11.8</ele>
        <time>2017-10-15T13:50:09Z</time>
      </trkpt>
      <trkpt lat="59.846575479413" lon="17.60090370576">
        <ele>11.8</ele>
        <time>2017-10-15T13:50:10Z</time>
      </trkpt>
      <trkpt lat="59.846565588771" lon="17.600792729404">
        <ele>11.8</ele>
        <time>2017-10-15T13:50:11Z</time>
      </trkpt>
      <trkpt lat="59.846554189387" lon="17.600674628433">
        <ele>11.8</ele>
        <time>2017-10-15T13:50:12Z</time>
      </trkpt>
      <trkpt lat="59.846542538546" lon="17.600563316801">
        <ele>11.8</ele>
        <time>2017-10-15T13:50:13Z</time>
      </trkpt>
      <trkpt lat="59.846532564085" lon="17.600452005169">
        <ele>11.8</ele>
        <time>2017-10-15T13:50:14Z</time>
      </trkpt>
      <trkpt lat="59.846522589624" lon="17.600339436252">
        <ele>11.8</ele>
        <time>2017-10-15T13:50:15Z</time>
      </trkpt>
      <trkpt lat="59.846514626819" lon="17.600243128221">
        <ele>11.8</ele>
        <time>2017-10-15T13:50:16Z</time>
      </trkpt>
      <trkpt lat="59.846502137788" lon="17.600118573187">
        <ele>11.8</ele>
        <time>2017-10-15T13:50:17Z</time>
      </trkpt>
      <trkpt lat="59.846491492775" lon="17.600010949591">
        <ele>11.8</ele>
        <time>2017-10-15T13:50:18Z</time>
      </trkpt>
      <trkpt lat="59.846480596305" lon="17.59990458328">
        <ele>11.8</ele>
        <time>2017-10-15T13:50:19Z</time>
      </trkpt>
      <trkpt lat="59.846468694007" lon="17.599797043503">
        <ele>11.6</ele>
        <time>2017-10-15T13:50:20Z</time>
      </trkpt>
      <trkpt lat="59.84645838427" lon="17.599699981101">
        <ele>11.6</ele>
        <time>2017-10-15T13:50:21Z</time>
      </trkpt>
      <trkpt lat="59.846445559963" lon="17.599599398301">
        <ele>11.6</ele>
        <time>2017-10-15T13:50:22Z</time>
      </trkpt>
      <trkpt lat="59.846420833358" lon="17.599503174089">
        <ele>11.4</ele>
        <time>2017-10-15T13:50:23Z</time>
      </trkpt>
      <trkpt lat="59.846382863351" lon="17.599442824409">
        <ele>11.4</ele>
        <time>2017-10-15T13:50:24Z</time>
      </trkpt>
      <trkpt lat="59.84633349396" lon="17.599413655397">
        <ele>11.6</ele>
        <time>2017-10-15T13:50:25Z</time>
      </trkpt>
      <trkpt lat="59.846284795121" lon="17.59941256575">
        <ele>11.6</ele>
        <time>2017-10-15T13:50:26Z</time>
      </trkpt>
      <trkpt lat="59.846227379106" lon="17.599423713677">
        <ele>11.6</ele>
        <time>2017-10-15T13:50:27Z</time>
      </trkpt>
      <trkpt lat="59.846171220376" lon="17.599437459993">
        <ele>11.6</ele>
        <time>2017-10-15T13:50:28Z</time>
      </trkpt>
      <trkpt lat="59.846130316704" lon="17.599440812753">
        <ele>11.4</ele>
        <time>2017-10-15T13:50:29Z</time>
      </trkpt>
      <trkpt lat="59.84606275859" lon="17.599461767503">
        <ele>11.2</ele>
        <time>2017-10-15T13:50:30Z</time>
      </trkpt>
      <trkpt lat="59.846009617344" lon="17.599490768877">
        <ele>11.2</ele>
        <time>2017-10-15T13:50:31Z</time>
      </trkpt>
      <trkpt lat="59.845953290976" lon="17.599539467716">
        <ele>11</ele>
        <time>2017-10-15T13:50:32Z</time>
      </trkpt>
      <trkpt lat="59.845903251033" lon="17.599603086337">
        <ele>10.8</ele>
        <time>2017-10-15T13:50:33Z</time>
      </trkpt>
      <trkpt lat="59.845859832791" lon="17.599671482641">
        <ele>10.6</ele>
        <time>2017-10-15T13:50:34Z</time>
      </trkpt>
      <trkpt lat="59.845810798676" lon="17.599753206166">
        <ele>10.4</ele>
        <time>2017-10-15T13:50:35Z</time>
      </trkpt>
      <trkpt lat="59.84576771571" lon="17.599824368497">
        <ele>10.4</ele>
        <time>2017-10-15T13:50:36Z</time>
      </trkpt>
      <trkpt lat="59.845720022699" lon="17.59990458328">
        <ele>10.2</ele>
        <time>2017-10-15T13:50:37Z</time>
      </trkpt>
      <trkpt lat="59.845669731299" lon="17.599980607113">
        <ele>10</ele>
        <time>2017-10-15T13:50:38Z</time>
      </trkpt>
      <trkpt lat="59.845618098795" lon="17.600040789155">
        <ele>10</ele>
        <time>2017-10-15T13:50:39Z</time>
      </trkpt>
      <trkpt lat="59.845571076336" lon="17.600094936229">
        <ele>9.8</ele>
        <time>2017-10-15T13:50:40Z</time>
      </trkpt>
      <trkpt lat="59.84552212604" lon="17.600150424407">
        <ele>9.6</ele>
        <time>2017-10-15T13:50:41Z</time>
      </trkpt>
      <trkpt lat="59.845471331726" lon="17.600204068567">
        <ele>9.2</ele>
        <time>2017-10-15T13:50:42Z</time>
      </trkpt>
      <trkpt lat="59.845424979819" lon="17.600249330827">
        <ele>9.2</ele>
        <time>2017-10-15T13:50:43Z</time>
      </trkpt>
      <trkpt lat="59.84538466288" lon="17.600290737413">
        <ele>9</ele>
        <time>2017-10-15T13:50:44Z</time>
      </trkpt>
      <trkpt lat="59.845335880222" lon="17.60034044208">
        <ele>9</ele>
        <time>2017-10-15T13:50:45Z</time>
      </trkpt>
      <trkpt lat="59.845306627391" lon="17.600371203653">
        <ele>9</ele>
        <time>2017-10-15T13:50:46Z</time>
      </trkpt>
      <trkpt lat="59.845249127557" lon="17.600434067903">
        <ele>9.2</ele>
        <time>2017-10-15T13:50:47Z</time>
      </trkpt>
      <trkpt lat="59.845207720971" lon="17.600483185837">
        <ele>9.2</ele>
        <time>2017-10-15T13:50:48Z</time>
      </trkpt>
      <trkpt lat="59.845165308557" lon="17.600531968495">
        <ele>9.2</ele>
        <time>2017-10-15T13:50:49Z</time>
      </trkpt>
      <trkpt lat="59.845122812324" lon="17.600578571859">
        <ele>9.2</ele>
        <time>2017-10-15T13:50:50Z</time>
      </trkpt>
      <trkpt lat="59.845081573376" lon="17.600618469703">
        <ele>9.4</ele>
        <time>2017-10-15T13:50:51Z</time>
      </trkpt>
      <trkpt lat="59.84503765222" lon="17.600657445538">
        <ele>9.4</ele>
        <time>2017-10-15T13:50:52Z</time>
      </trkpt>
      <trkpt lat="59.844988534286" lon="17.600702037246">
        <ele>9.4</ele>
        <time>2017-10-15T13:50:53Z</time>
      </trkpt>
      <trkpt lat="59.844942433836" lon="17.600741683633">
        <ele>9.4</ele>
        <time>2017-10-15T13:50:54Z</time>
      </trkpt>
      <trkpt lat="59.844893567359" lon="17.600770685007">
        <ele>9.4</ele>
        <time>2017-10-15T13:50:55Z</time>
      </trkpt>
      <trkpt lat="59.844845119977" lon="17.600786610617">
        <ele>9.4</ele>
        <time>2017-10-15T13:50:56Z</time>
      </trkpt>
      <trkpt lat="59.844789296523" lon="17.600791723576">
        <ele>9.4</ele>
        <time>2017-10-15T13:50:57Z</time>
      </trkpt>
      <trkpt lat="59.844743196073" lon="17.600786107703">
        <ele>9.4</ele>
        <time>2017-10-15T13:50:58Z</time>
      </trkpt>
      <trkpt lat="59.844694497234" lon="17.600780743287">
        <ele>9.4</ele>
        <time>2017-10-15T13:50:59Z</time>
      </trkpt>
      <trkpt lat="59.844643786739" lon="17.600779988916">
        <ele>9.2</ele>
        <time>2017-10-15T13:51:00Z</time>
      </trkpt>
      <trkpt lat="59.844600200859" lon="17.600777474346">
        <ele>9.4</ele>
        <time>2017-10-15T13:51:01Z</time>
      </trkpt>
      <trkpt lat="59.844550747649" lon="17.600774121586">
        <ele>9.4</ele>
        <time>2017-10-15T13:51:02Z</time>
      </trkpt>
      <trkpt lat="59.844504731018" lon="17.600769343903">
        <ele>9.4</ele>
        <time>2017-10-15T13:51:03Z</time>
      </trkpt>
      <trkpt lat="59.844462486242" lon="17.600765488229">
        <ele>9.4</ele>
        <time>2017-10-15T13:51:04Z</time>
      </trkpt>
      <trkpt lat="59.844413033032" lon="17.600761716374">
        <ele>9.6</ele>
        <time>2017-10-15T13:51:05Z</time>
      </trkpt>
      <trkpt lat="59.844368944238" lon="17.600758028338">
        <ele>9.6</ele>
        <time>2017-10-15T13:51:06Z</time>
      </trkpt>
      <trkpt lat="59.844323849616" lon="17.600760542908">
        <ele>9.6</ele>
        <time>2017-10-15T13:51:07Z</time>
      </trkpt>
      <trkpt lat="59.844278000623" lon="17.600770014455">
        <ele>9.6</ele>
        <time>2017-10-15T13:51:08Z</time>
      </trkpt>
      <trkpt lat="59.844233660372" lon="17.600776803794">
        <ele>9.8</ele>
        <time>2017-10-15T13:51:09Z</time>
      </trkpt>
      <trkpt lat="59.8441927567" lon="17.600783174038">
        <ele>9.6</ele>
        <time>2017-10-15T13:51:10Z</time>
      </trkpt>
      <trkpt lat="59.844152104485" lon="17.60079809382">
        <ele>9.6</ele>
        <time>2017-10-15T13:51:11Z</time>
      </trkpt>
      <trkpt lat="59.844107931872" lon="17.600821982235">
        <ele>9.6</ele>
        <time>2017-10-15T13:51:12Z</time>
      </trkpt>
      <trkpt lat="59.844066525286" lon="17.600844110451">
        <ele>9.6</ele>
        <time>2017-10-15T13:51:13Z</time>
      </trkpt>
      <trkpt lat="59.844026962718" lon="17.600861041889">
        <ele>9.8</ele>
        <time>2017-10-15T13:51:14Z</time>
      </trkpt>
      <trkpt lat="59.843983544476" lon="17.600881409906">
        <ele>9.8</ele>
        <time>2017-10-15T13:51:15Z</time>
      </trkpt>
      <trkpt lat="59.843950687428" lon="17.600906555606">
        <ele>9.8</ele>
        <time>2017-10-15T13:51:16Z</time>
      </trkpt>
      <trkpt lat="59.843908945566" lon="17.60093974793">
        <ele>10</ele>
        <time>2017-10-15T13:51:17Z</time>
      </trkpt>
      <trkpt lat="59.843872149025" lon="17.600969168399">
        <ele>10</ele>
        <time>2017-10-15T13:51:18Z</time>
      </trkpt>
      <trkpt lat="59.843836274493" lon="17.600995403746">
        <ele>10.2</ele>
        <time>2017-10-15T13:51:19Z</time>
      </trkpt>
      <trkpt lat="59.843800148504" lon="17.601009736795">
        <ele>10.2</ele>
        <time>2017-10-15T13:51:20Z</time>
      </trkpt>
      <trkpt lat="59.843765782714" lon="17.601009569157">
        <ele>10.2</ele>
        <time>2017-10-15T13:51:21Z</time>
      </trkpt>
      <trkpt lat="59.843730746372" lon="17.600991045158">
        <ele>10.2</ele>
        <time>2017-10-15T13:51:22Z</time>
      </trkpt>
      <trkpt lat="59.843701996455" lon="17.600939328835">
        <ele>10.4</ele>
        <time>2017-10-15T13:51:23Z</time>
      </trkpt>
      <trkpt lat="59.8436814608" lon="17.600875291119">
        <ele>10.6</ele>
        <time>2017-10-15T13:51:24Z</time>
      </trkpt>
      <trkpt lat="59.843660170774" lon="17.600806978634">
        <ele>10.8</ele>
        <time>2017-10-15T13:51:25Z</time>
      </trkpt>
      <trkpt lat="59.84364206587" lon="17.600736570674">
        <ele>10.8</ele>
        <time>2017-10-15T13:51:26Z</time>
      </trkpt>
      <trkpt lat="59.843620356749" lon="17.600656607348">
        <ele>11</ele>
        <time>2017-10-15T13:51:27Z</time>
      </trkpt>
      <trkpt lat="59.843603257673" lon="17.600578990954">
        <ele>11</ele>
        <time>2017-10-15T13:51:28Z</time>
      </trkpt>
      <trkpt lat="59.843586912968" lon="17.600489975176">
        <ele>11</ele>
        <time>2017-10-15T13:51:29Z</time>
      </trkpt>
      <trkpt lat="59.843572831376" lon="17.600393499507">
        <ele>11</ele>
        <time>2017-10-15T13:51:30Z</time>
      </trkpt>
      <trkpt lat="59.843561767268" lon="17.600304819005">
        <ele>11</ele>
        <time>2017-10-15T13:51:31Z</time>
      </trkpt>
      <trkpt lat="59.843547434219" lon="17.600206666956">
        <ele>10.8</ele>
        <time>2017-10-15T13:51:32Z</time>
      </trkpt>
      <trkpt lat="59.843534526093" lon="17.600108514907">
        <ele>10.8</ele>
        <time>2017-10-15T13:51:33Z</time>
      </trkpt>
      <trkpt lat="59.843526479469" lon="17.600015643455">
        <ele>10.8</ele>
        <time>2017-10-15T13:51:34Z</time>
      </trkpt>
      <trkpt lat="59.843519019578" lon="17.59990709785">
        <ele>10.8</ele>
        <time>2017-10-15T13:51:35Z</time>
      </trkpt>
      <trkpt lat="59.843512397877" lon="17.599810286905">
        <ele>10.8</ele>
        <time>2017-10-15T13:51:36Z</time>
      </trkpt>
      <trkpt lat="59.843506782004" lon="17.599701406024">
        <ele>10.8</ele>
        <time>2017-10-15T13:51:37Z</time>
      </trkpt>
      <trkpt lat="59.843503261606" lon="17.599590513487">
        <ele>10.8</ele>
        <time>2017-10-15T13:51:38Z</time>
      </trkpt>
      <trkpt lat="59.843499405932" lon="17.599481800244">
        <ele>10.8</ele>
        <time>2017-10-15T13:51:39Z</time>
      </trkpt>
      <trkpt lat="59.84349538262" lon="17.599379960159">
        <ele>10.8</ele>
        <time>2017-10-15T13:51:40Z</time>
      </trkpt>
      <trkpt lat="59.843491107851" lon="17.599272085106">
        <ele>10.6</ele>
        <time>2017-10-15T13:51:41Z</time>
      </trkpt>
      <trkpt lat="59.843487503634" lon="17.599159264732">
        <ele>10.6</ele>
        <time>2017-10-15T13:51:42Z</time>
      </trkpt>
      <trkpt lat="59.843484318512" lon="17.599053317516">
        <ele>10.4</ele>
        <time>2017-10-15T13:51:43Z</time>
      </trkpt>
      <trkpt lat="59.84348113339" lon="17.598955333105">
        <ele>10.2</ele>
        <time>2017-10-15T13:51:44Z</time>
      </trkpt>
      <trkpt lat="59.843475349879" lon="17.598844440568">
        <ele>10</ele>
        <time>2017-10-15T13:51:45Z</time>
      </trkpt>
      <trkpt lat="59.843470823653" lon="17.598750563288">
        <ele>10</ele>
        <time>2017-10-15T13:51:46Z</time>
      </trkpt>
      <trkpt lat="59.843466548884" lon="17.598631707946">
        <ele>10</ele>
        <time>2017-10-15T13:51:47Z</time>
      </trkpt>
      <trkpt lat="59.843463196124" lon="17.598520647771">
        <ele>9.8</ele>
        <time>2017-10-15T13:51:48Z</time>
      </trkpt>
      <trkpt lat="59.843457496432" lon="17.598412269804">
        <ele>9.6</ele>
        <time>2017-10-15T13:51:49Z</time>
      </trkpt>
      <trkpt lat="59.843449617446" lon="17.598302383095">
        <ele>9.8</ele>
        <time>2017-10-15T13:51:50Z</time>
      </trkpt>
      <trkpt lat="59.84344257665" lon="17.59819802844">
        <ele>9.6</ele>
        <time>2017-10-15T13:51:51Z</time>
      </trkpt>
      <trkpt lat="59.843435452035" lon="17.598088896102">
        <ele>9.6</ele>
        <time>2017-10-15T13:51:52Z</time>
      </trkpt>
      <trkpt lat="59.843424387927" lon="17.597969370208">
        <ele>9.6</ele>
        <time>2017-10-15T13:51:53Z</time>
      </trkpt>
      <trkpt lat="59.843409971059" lon="17.597861159879">
        <ele>9.6</ele>
        <time>2017-10-15T13:51:54Z</time>
      </trkpt>
      <trkpt lat="59.843394716001" lon="17.597753368645">
        <ele>9.8</ele>
        <time>2017-10-15T13:51:55Z</time>
      </trkpt>
      <trkpt lat="59.843379544762" lon="17.597653707854">
        <ele>9.8</ele>
        <time>2017-10-15T13:51:56Z</time>
      </trkpt>
      <trkpt lat="59.843361607496" lon="17.597541641851">
        <ele>9.6</ele>
        <time>2017-10-15T13:51:57Z</time>
      </trkpt>
      <trkpt lat="59.843345681886" lon="17.597444663268">
        <ele>9.6</ele>
        <time>2017-10-15T13:51:58Z</time>
      </trkpt>
      <trkpt lat="59.843324643317" lon="17.597340979165">
        <ele>9.6</ele>
        <time>2017-10-15T13:51:59Z</time>
      </trkpt>
      <trkpt lat="59.843301090178" lon="17.597232517379">
        <ele>9.6</ele>
        <time>2017-10-15T13:52:00Z</time>
      </trkpt>
      <trkpt lat="59.843279297238" lon="17.59714023266">
        <ele>9.4</ele>
        <time>2017-10-15T13:52:01Z</time>
      </trkpt>
      <trkpt lat="59.843252642796" lon="17.597036967652">
        <ele>9.2</ele>
        <time>2017-10-15T13:52:02Z</time>
      </trkpt>
      <trkpt lat="59.84322464725" lon="17.596943928562">
        <ele>9</ele>
        <time>2017-10-15T13:52:03Z</time>
      </trkpt>
      <trkpt lat="59.843195562057" lon="17.59685943901">
        <ele>9</ele>
        <time>2017-10-15T13:52:04Z</time>
      </trkpt>
      <trkpt lat="59.843161363905" lon="17.596765645549">
        <ele>8.8</ele>
        <time>2017-10-15T13:52:05Z</time>
      </trkpt>
      <trkpt lat="59.843131524341" lon="17.596688951164">
        <ele>9</ele>
        <time>2017-10-15T13:52:06Z</time>
      </trkpt>
      <trkpt lat="59.843099254026" lon="17.596608401105">
        <ele>9</ele>
        <time>2017-10-15T13:52:07Z</time>
      </trkpt>
      <trkpt lat="59.843066480797" lon="17.596534556566">
        <ele>9</ele>
        <time>2017-10-15T13:52:08Z</time>
      </trkpt>
      <trkpt lat="59.843034713396" lon="17.596464567701">
        <ele>9.2</ele>
        <time>2017-10-15T13:52:09Z</time>
      </trkpt>
      <trkpt lat="59.843006214936" lon="17.596399356519">
        <ele>9</ele>
        <time>2017-10-15T13:52:10Z</time>
      </trkpt>
      <trkpt lat="59.842974950449" lon="17.596329200016">
        <ele>9</ele>
        <time>2017-10-15T13:52:11Z</time>
      </trkpt>
      <trkpt lat="59.84294217722" lon="17.596256109848">
        <ele>9</ele>
        <time>2017-10-15T13:52:12Z</time>
      </trkpt>
      <trkpt lat="59.842911331828" lon="17.596189809019">
        <ele>9</ele>
        <time>2017-10-15T13:52:13Z</time>
      </trkpt>
      <trkpt lat="59.842882833368" lon="17.596124681656">
        <ele>8.8</ele>
        <time>2017-10-15T13:52:14Z</time>
      </trkpt>
      <trkpt lat="59.842850982148" lon="17.59605226204">
        <ele>8.8</ele>
        <time>2017-10-15T13:52:15Z</time>
      </trkpt>
      <trkpt lat="59.842825920267" lon="17.595990487437">
        <ele>8.8</ele>
        <time>2017-10-15T13:52:16Z</time>
      </trkpt>
      <trkpt lat="59.842794823418" lon="17.595904405324">
        <ele>8.8</ele>
        <time>2017-10-15T13:52:17Z</time>
      </trkpt>
      <trkpt lat="59.842768420433" lon="17.595826537473">
        <ele>8.8</ele>
        <time>2017-10-15T13:52:18Z</time>
      </trkpt>
      <trkpt lat="59.842739586697" lon="17.595747579975">
        <ele>8.8</ele>
        <time>2017-10-15T13:52:19Z</time>
      </trkpt>
      <trkpt lat="59.842711339694" lon="17.595671388504">
        <ele>8.8</ele>
        <time>2017-10-15T13:52:20Z</time>
      </trkpt>
      <trkpt lat="59.842683930881" lon="17.595612882842">
        <ele>8.8</ele>
        <time>2017-10-15T13:52:21Z</time>
      </trkpt>
      <trkpt lat="59.842651660566" lon="17.595547587841">
        <ele>9</ele>
        <time>2017-10-15T13:52:22Z</time>
      </trkpt>
      <trkpt lat="59.842623245925" lon="17.595469133257">
        <ele>9</ele>
        <time>2017-10-15T13:52:23Z</time>
      </trkpt>
      <trkpt lat="59.842603297003" lon="17.595386822999">
        <ele>9</ele>
        <time>2017-10-15T13:52:24Z</time>
      </trkpt>
      <trkpt lat="59.842587539031" lon="17.595302333447">
        <ele>9</ele>
        <time>2017-10-15T13:52:25Z</time>
      </trkpt>
      <trkpt lat="59.84257337362" lon="17.595223459768">
        <ele>9.2</ele>
        <time>2017-10-15T13:52:26Z</time>
      </trkpt>
      <trkpt lat="59.842556358363" lon="17.595132851429">
        <ele>9.4</ele>
        <time>2017-10-15T13:52:27Z</time>
      </trkpt>
      <trkpt lat="59.84254068421" lon="17.595054396845">
        <ele>9.4</ele>
        <time>2017-10-15T13:52:28Z</time>
      </trkpt>
      <trkpt lat="59.842523501315" lon="17.594970074931">
        <ele>9.6</ele>
        <time>2017-10-15T13:52:29Z</time>
      </trkpt>
      <trkpt lat="59.842504390583" lon="17.594881729705">
        <ele>9.8</ele>
        <time>2017-10-15T13:52:30Z</time>
      </trkpt>
      <trkpt lat="59.842488297335" lon="17.594802856026">
        <ele>9.8</ele>
        <time>2017-10-15T13:52:31Z</time>
      </trkpt>
      <trkpt lat="59.842472204087" lon="17.594715684266">
        <ele>10</ele>
        <time>2017-10-15T13:52:32Z</time>
      </trkpt>
      <trkpt lat="59.842458709228" lon="17.594649886351">
        <ele>10</ele>
        <time>2017-10-15T13:52:33Z</time>
      </trkpt>
      <trkpt lat="59.842445633464" lon="17.594587608834">
        <ele>10</ele>
        <time>2017-10-15T13:52:34Z</time>
      </trkpt>
      <trkpt lat="59.842454183002" lon="17.594631865266">
        <ele>10.2</ele>
        <time>2017-10-15T13:52:35Z</time>
      </trkpt>
      <trkpt lat="59.842451584613" lon="17.594633457827">
        <ele>10.4</ele>
        <time>2017-10-15T13:52:36Z</time>
      </trkpt>
      <trkpt lat="59.842450662604" lon="17.594635134207">
        <ele>10.6</ele>
        <time>2017-10-15T13:52:37Z</time>
      </trkpt>
      <trkpt lat="59.842382936852" lon="17.594318717482">
        <ele>10.8</ele>
        <time>2017-10-15T13:52:53Z</time>
      </trkpt>
      <trkpt lat="59.842368603803" lon="17.594252416653">
        <ele>10.6</ele>
        <time>2017-10-15T13:52:54Z</time>
      </trkpt>
      <trkpt lat="59.842355108944" lon="17.594178739752">
        <ele>10.6</ele>
        <time>2017-10-15T13:52:55Z</time>
      </trkpt>
      <trkpt lat="59.842342703732" lon="17.59410430848">
        <ele>10.4</ele>
        <time>2017-10-15T13:52:56Z</time>
      </trkpt>
      <trkpt lat="59.842329627968" lon="17.594018645462">
        <ele>10.4</ele>
        <time>2017-10-15T13:52:57Z</time>
      </trkpt>
      <trkpt lat="59.842316468385" lon="17.593928456218">
        <ele>10.4</ele>
        <time>2017-10-15T13:52:58Z</time>
      </trkpt>
      <trkpt lat="59.842306158648" lon="17.593833154015">
        <ele>10.4</ele>
        <time>2017-10-15T13:52:59Z</time>
      </trkpt>
      <trkpt lat="59.842301213327" lon="17.593722596754">
        <ele>10.4</ele>
        <time>2017-10-15T13:53:00Z</time>
      </trkpt>
      <trkpt lat="59.842300375137" lon="17.593627294551">
        <ele>10.4</ele>
        <time>2017-10-15T13:53:01Z</time>
      </trkpt>
      <trkpt lat="59.84230263825" lon="17.593518916584">
        <ele>10.2</ele>
        <time>2017-10-15T13:53:02Z</time>
      </trkpt>
      <trkpt lat="59.84231185834" lon="17.593419004336">
        <ele>10.2</ele>
        <time>2017-10-15T13:53:03Z</time>
      </trkpt>
      <trkpt lat="59.842325604656" lon="17.593332000214">
        <ele>10</ele>
        <time>2017-10-15T13:53:04Z</time>
      </trkpt>
      <trkpt lat="59.842341865542" lon="17.593230830681">
        <ele>10</ele>
        <time>2017-10-15T13:53:05Z</time>
      </trkpt>
      <trkpt lat="59.842364999586" lon="17.593139048876">
        <ele>10</ele>
        <time>2017-10-15T13:53:06Z</time>
      </trkpt>
      <trkpt lat="59.842392408399" lon="17.593038046981">
        <ele>10</ele>
        <time>2017-10-15T13:53:07Z</time>
      </trkpt>
      <trkpt lat="59.842420906859" lon="17.592935117249">
        <ele>10</ele>
        <time>2017-10-15T13:53:08Z</time>
      </trkpt>
      <trkpt lat="59.842446387835" lon="17.592837468114">
        <ele>10.2</ele>
        <time>2017-10-15T13:53:09Z</time>
      </trkpt>
      <trkpt lat="59.842473880467" lon="17.592746189223">
        <ele>10.2</ele>
        <time>2017-10-15T13:53:10Z</time>
      </trkpt>
      <trkpt lat="59.84250715661" lon="17.592644935871">
        <ele>10.2</ele>
        <time>2017-10-15T13:53:11Z</time>
      </trkpt>
      <trkpt lat="59.842539929839" lon="17.592549633668">
        <ele>10.2</ele>
        <time>2017-10-15T13:53:12Z</time>
      </trkpt>
      <trkpt lat="59.842566584281" lon="17.592478638975">
        <ele>10.4</ele>
        <time>2017-10-15T13:53:13Z</time>
      </trkpt>
      <trkpt lat="59.842590388877" lon="17.59241703201">
        <ele>10.2</ele>
        <time>2017-10-15T13:53:14Z</time>
      </trkpt>
      <trkpt lat="59.842613690559" lon="17.592350563543">
        <ele>10</ele>
        <time>2017-10-15T13:53:15Z</time>
      </trkpt>
      <trkpt lat="59.842631292549" lon="17.592299433953">
        <ele>9.6</ele>
        <time>2017-10-15T13:53:16Z</time>
      </trkpt>
      <trkpt lat="59.842652331118" lon="17.592235228599">
        <ele>9.2</ele>
        <time>2017-10-15T13:53:17Z</time>
      </trkpt>
      <trkpt lat="59.842666077434" lon="17.592186697398">
        <ele>8.8</ele>
        <time>2017-10-15T13:53:18Z</time>
      </trkpt>
      <trkpt lat="59.842677392999" lon="17.592146967192">
        <ele>8.2</ele>
        <time>2017-10-15T13:53:19Z</time>
      </trkpt>
      <trkpt lat="59.842686110175" lon="17.592107991357">
        <ele>8</ele>
        <time>2017-10-15T13:53:20Z</time>
      </trkpt>
      <trkpt lat="59.842683679424" lon="17.592063902563">
        <ele>8</ele>
        <time>2017-10-15T13:53:21Z</time>
      </trkpt>
      <trkpt lat="59.842667586176" lon="17.592016796285">
        <ele>7.8</ele>
        <time>2017-10-15T13:53:22Z</time>
      </trkpt>
      <trkpt lat="59.842638249526" lon="17.591975138242">
        <ele>7.8</ele>
        <time>2017-10-15T13:53:23Z</time>
      </trkpt>
      <trkpt lat="59.842603883736" lon="17.591952171836">
        <ele>7.6</ele>
        <time>2017-10-15T13:53:24Z</time>
      </trkpt>
      <trkpt lat="59.842568428299" lon="17.591935743312">
        <ele>7.6</ele>
        <time>2017-10-15T13:53:25Z</time>
      </trkpt>
      <trkpt lat="59.842537834364" lon="17.591924846842">
        <ele>7.6</ele>
        <time>2017-10-15T13:53:26Z</time>
      </trkpt>
      <trkpt lat="59.842503552393" lon="17.591915040019">
        <ele>7.6</ele>
        <time>2017-10-15T13:53:27Z</time>
      </trkpt>
      <trkpt lat="59.842476646494" lon="17.591908837413">
        <ele>7.6</ele>
        <time>2017-10-15T13:53:28Z</time>
      </trkpt>
      <trkpt lat="59.842449153862" lon="17.591900204056">
        <ele>7.6</ele>
        <time>2017-10-15T13:53:29Z</time>
      </trkpt>
      <trkpt lat="59.842422331782" lon="17.59188394317">
        <ele>7.8</ele>
        <time>2017-10-15T13:53:30Z</time>
      </trkpt>
      <trkpt lat="59.842397102263" lon="17.59187053213">
        <ele>8</ele>
        <time>2017-10-15T13:53:31Z</time>
      </trkpt>
      <trkpt lat="59.842366089233" lon="17.591852343407">
        <ele>8.2</ele>
        <time>2017-10-15T13:53:32Z</time>
      </trkpt>
      <trkpt lat="59.842335914393" lon="17.591830969562">
        <ele>8.6</ele>
        <time>2017-10-15T13:53:33Z</time>
      </trkpt>
      <trkpt lat="59.842305655734" lon="17.591814624857">
        <ele>9</ele>
        <time>2017-10-15T13:53:34Z</time>
      </trkpt>
      <trkpt lat="59.842270619392" lon="17.591792077546">
        <ele>9.6</ele>
        <time>2017-10-15T13:53:35Z</time>
      </trkpt>
      <trkpt lat="59.842241198923" lon="17.591764836371">
        <ele>10</ele>
        <time>2017-10-15T13:53:36Z</time>
      </trkpt>
      <trkpt lat="59.842208258056" lon="17.591731979323">
        <ele>10.4</ele>
        <time>2017-10-15T13:53:37Z</time>
      </trkpt>
      <trkpt lat="59.842175484827" lon="17.591700882474">
        <ele>10.6</ele>
        <time>2017-10-15T13:53:38Z</time>
      </trkpt>
      <trkpt lat="59.842142124865" lon="17.591670791453">
        <ele>10.8</ele>
        <time>2017-10-15T13:53:39Z</time>
      </trkpt>
      <trkpt lat="59.842110860378" lon="17.5916383535">
        <ele>11</ele>
        <time>2017-10-15T13:53:40Z</time>
      </trkpt>
      <trkpt lat="59.842075907855" lon="17.591608011022">
        <ele>11</ele>
        <time>2017-10-15T13:53:41Z</time>
      </trkpt>
      <trkpt lat="59.842033914536" lon="17.591582027132">
        <ele>11</ele>
        <time>2017-10-15T13:53:42Z</time>
      </trkpt>
      <trkpt lat="59.841995357796" lon="17.591557719622">
        <ele>11</ele>
        <time>2017-10-15T13:53:43Z</time>
      </trkpt>
      <trkpt lat="59.841959147988" lon="17.591536513415">
        <ele>11</ele>
        <time>2017-10-15T13:53:44Z</time>
      </trkpt>
      <trkpt lat="59.841918076678" lon="17.59151011043">
        <ele>11</ele>
        <time>2017-10-15T13:53:45Z</time>
      </trkpt>
      <trkpt lat="59.841879939033" lon="17.591485216187">
        <ele>11</ele>
        <time>2017-10-15T13:53:46Z</time>
      </trkpt>
      <trkpt lat="59.841842807216" lon="17.591469374396">
        <ele>11</ele>
        <time>2017-10-15T13:53:47Z</time>
      </trkpt>
      <trkpt lat="59.841802490277" lon="17.591452442958">
        <ele>11</ele>
        <time>2017-10-15T13:53:48Z</time>
      </trkpt>
      <trkpt lat="59.84176452027" lon="17.591435176244">
        <ele>11</ele>
        <time>2017-10-15T13:53:49Z</time>
      </trkpt>
      <trkpt lat="59.841725712073" lon="17.591423525403">
        <ele>11</ele>
        <time>2017-10-15T13:53:50Z</time>
      </trkpt>
      <trkpt lat="59.841688496437" lon="17.591414053856">
        <ele>11</ele>
        <time>2017-10-15T13:53:51Z</time>
      </trkpt>
      <trkpt lat="59.841648598593" lon="17.59140617487">
        <ele>11</ele>
        <time>2017-10-15T13:53:52Z</time>
      </trkpt>
      <trkpt lat="59.841608281654" lon="17.591408857078">
        <ele>11</ele>
        <time>2017-10-15T13:53:53Z</time>
      </trkpt>
      <trkpt lat="59.841568467629" lon="17.591413550942">
        <ele>11</ele>
        <time>2017-10-15T13:53:54Z</time>
      </trkpt>
      <trkpt lat="59.841530078527" lon="17.591418412444">
        <ele>11</ele>
        <time>2017-10-15T13:53:55Z</time>
      </trkpt>
      <trkpt lat="59.84149629947" lon="17.591424112136">
        <ele>10.8</ele>
        <time>2017-10-15T13:53:56Z</time>
      </trkpt>
      <trkpt lat="59.841457826549" lon="17.591430314742">
        <ele>10.6</ele>
        <time>2017-10-15T13:53:57Z</time>
      </trkpt>
      <trkpt lat="59.84142086237" lon="17.591439953927">
        <ele>10.6</ele>
        <time>2017-10-15T13:53:58Z</time>
      </trkpt>
      <trkpt lat="59.841380545431" lon="17.591458897021">
        <ele>10.4</ele>
        <time>2017-10-15T13:53:59Z</time>
      </trkpt>
      <trkpt lat="59.841334947895" lon="17.59148831749">
        <ele>10</ele>
        <time>2017-10-15T13:54:00Z</time>
      </trkpt>
      <trkpt lat="59.84129597206" lon="17.591527125687">
        <ele>9.8</ele>
        <time>2017-10-15T13:54:01Z</time>
      </trkpt>
      <trkpt lat="59.841253475827" lon="17.591569035187">
        <ele>9.6</ele>
        <time>2017-10-15T13:54:02Z</time>
      </trkpt>
      <trkpt lat="59.841215589639" lon="17.591604742081">
        <ele>9.6</ele>
        <time>2017-10-15T13:54:03Z</time>
      </trkpt>
      <trkpt lat="59.841184073695" lon="17.591636258025">
        <ele>9.4</ele>
        <time>2017-10-15T13:54:04Z</time>
      </trkpt>
      <trkpt lat="59.841146271326" lon="17.591681017371">
        <ele>9.2</ele>
        <time>2017-10-15T13:54:05Z</time>
      </trkpt>
      <trkpt lat="59.841117605228" lon="17.591713371505">
        <ele>9.2</ele>
        <time>2017-10-15T13:54:06Z</time>
      </trkpt>
      <trkpt lat="59.841092375709" lon="17.591744216897">
        <ele>9.2</ele>
        <time>2017-10-15T13:54:07Z</time>
      </trkpt>
      <trkpt lat="59.841064547801" lon="17.591776235755">
        <ele>9.2</ele>
        <time>2017-10-15T13:54:08Z</time>
      </trkpt>
      <trkpt lat="59.8410411623" lon="17.59180431512">
        <ele>9.2</ele>
        <time>2017-10-15T13:54:09Z</time>
      </trkpt>
      <trkpt lat="59.841019788455" lon="17.591828119716">
        <ele>9.4</ele>
        <time>2017-10-15T13:54:10Z</time>
      </trkpt>
      <trkpt lat="59.841001096818" lon="17.591849745018">
        <ele>9.4</ele>
        <time>2017-10-15T13:54:11Z</time>
      </trkpt>
      <trkpt lat="59.840980980258" lon="17.591867766103">
        <ele>9.4</ele>
        <time>2017-10-15T13:54:12Z</time>
      </trkpt>
      <trkpt lat="59.840967988313" lon="17.591881931514">
        <ele>9.2</ele>
        <time>2017-10-15T13:54:13Z</time>
      </trkpt>
      <trkpt lat="59.840955080187" lon="17.591892660346">
        <ele>9.2</ele>
        <time>2017-10-15T13:54:14Z</time>
      </trkpt>
      <trkpt lat="59.84094477045" lon="17.591904562644">
        <ele>9.2</ele>
        <time>2017-10-15T13:54:15Z</time>
      </trkpt>
      <trkpt lat="59.840932532876" lon="17.591918476598">
        <ele>9.2</ele>
        <time>2017-10-15T13:54:16Z</time>
      </trkpt>
      <trkpt lat="59.840919960026" lon="17.591934150751">
        <ele>9.2</ele>
        <time>2017-10-15T13:54:17Z</time>
      </trkpt>
      <trkpt lat="59.840913170687" lon="17.591944460488">
        <ele>9.2</ele>
        <time>2017-10-15T13:54:18Z</time>
      </trkpt>
      <trkpt lat="59.840902441855" lon="17.591964241772">
        <ele>9.2</ele>
        <time>2017-10-15T13:54:19Z</time>
      </trkpt>
      <trkpt lat="59.84088525896" lon="17.591985950893">
        <ele>9.2</ele>
        <time>2017-10-15T13:54:20Z</time>
      </trkpt>
      <trkpt lat="59.840862963106" lon="17.592011096593">
        <ele>9.2</ele>
        <time>2017-10-15T13:54:21Z</time>
      </trkpt>
      <trkpt lat="59.840832033895" lon="17.592046887306">
        <ele>9.2</ele>
        <time>2017-10-15T13:54:22Z</time>
      </trkpt>
      <trkpt lat="59.840789872938" lon="17.592092568661">
        <ele>9.2</ele>
        <time>2017-10-15T13:54:23Z</time>
      </trkpt>
      <trkpt lat="59.840746454696" lon="17.592140848405">
        <ele>9.2</ele>
        <time>2017-10-15T13:54:24Z</time>
      </trkpt>
      <trkpt lat="59.840701443893" lon="17.592186362122">
        <ele>9.2</ele>
        <time>2017-10-15T13:54:25Z</time>
      </trkpt>
      <trkpt lat="59.84065978585" lon="17.59222843926">
        <ele>9.2</ele>
        <time>2017-10-15T13:54:26Z</time>
      </trkpt>
      <trkpt lat="59.84061452359" lon="17.592266409267">
        <ele>9.2</ele>
        <time>2017-10-15T13:54:27Z</time>
      </trkpt>
      <trkpt lat="59.840573787556" lon="17.59229800903">
        <ele>9</ele>
        <time>2017-10-15T13:54:28Z</time>
      </trkpt>
      <trkpt lat="59.840522825604" lon="17.592329105879">
        <ele>9</ele>
        <time>2017-10-15T13:54:29Z</time>
      </trkpt>
      <trkpt lat="59.840470774005" lon="17.592349054801">
        <ele>9</ele>
        <time>2017-10-15T13:54:30Z</time>
      </trkpt>
      <trkpt lat="59.840425260288" lon="17.592362717298">
        <ele>9</ele>
        <time>2017-10-15T13:54:31Z</time>
      </trkpt>
      <trkpt lat="59.84038066858" lon="17.592366153877">
        <ele>9</ele>
        <time>2017-10-15T13:54:32Z</time>
      </trkpt>
      <trkpt lat="59.840343452944" lon="17.592370596284">
        <ele>9.4</ele>
        <time>2017-10-15T13:54:33Z</time>
      </trkpt>
      <trkpt lat="59.840312691371" lon="17.592382247125">
        <ele>9.8</ele>
        <time>2017-10-15T13:54:34Z</time>
      </trkpt>
      <trkpt lat="59.840279163771" lon="17.592396161079">
        <ele>10.2</ele>
        <time>2017-10-15T13:54:35Z</time>
      </trkpt>
      <trkpt lat="59.840242953963" lon="17.592409991214">
        <ele>10.8</ele>
        <time>2017-10-15T13:54:36Z</time>
      </trkpt>
      <trkpt lat="59.840203307576" lon="17.592414349802">
        <ele>11.2</ele>
        <time>2017-10-15T13:54:37Z</time>
      </trkpt>
      <trkpt lat="59.840168187415" lon="17.592418876028">
        <ele>11.6</ele>
        <time>2017-10-15T13:54:38Z</time>
      </trkpt>
      <trkpt lat="59.840138683127" lon="17.592428850489">
        <ele>12</ele>
        <time>2017-10-15T13:54:39Z</time>
      </trkpt>
      <trkpt lat="59.840109430296" lon="17.592448128859">
        <ele>12</ele>
        <time>2017-10-15T13:54:40Z</time>
      </trkpt>
      <trkpt lat="59.840072298479" lon="17.592473106921">
        <ele>12.2</ele>
        <time>2017-10-15T13:54:41Z</time>
      </trkpt>
      <trkpt lat="59.840031394807" lon="17.592505544874">
        <ele>12.4</ele>
        <time>2017-10-15T13:54:42Z</time>
      </trkpt>
      <trkpt lat="59.83999761575" lon="17.59254695146">
        <ele>12.4</ele>
        <time>2017-10-15T13:54:43Z</time>
      </trkpt>
      <trkpt lat="59.839964004331" lon="17.592579137956">
        <ele>12.6</ele>
        <time>2017-10-15T13:54:44Z</time>
      </trkpt>
      <trkpt lat="59.839921172822" lon="17.592614677212">
        <ele>12.8</ele>
        <time>2017-10-15T13:54:45Z</time>
      </trkpt>
      <trkpt lat="59.839889070145" lon="17.592642253663">
        <ele>13</ele>
        <time>2017-10-15T13:54:46Z</time>
      </trkpt>
      <trkpt lat="59.839847244464" lon="17.592673601969">
        <ele>13</ele>
        <time>2017-10-15T13:54:47Z</time>
      </trkpt>
      <trkpt lat="59.839813130131" lon="17.592701346058">
        <ele>13.4</ele>
        <time>2017-10-15T13:54:48Z</time>
      </trkpt>
      <trkpt lat="59.839781027454" lon="17.592730347432">
        <ele>13.4</ele>
        <time>2017-10-15T13:54:49Z</time>
      </trkpt>
      <trkpt lat="59.839749595329" lon="17.592754152028">
        <ele>13.6</ele>
        <time>2017-10-15T13:54:50Z</time>
      </trkpt>
      <trkpt lat="59.839715564815" lon="17.592775609692">
        <ele>14</ele>
        <time>2017-10-15T13:54:51Z</time>
      </trkpt>
      <trkpt lat="59.839677343351" lon="17.592799917202">
        <ele>14.2</ele>
        <time>2017-10-15T13:54:52Z</time>
      </trkpt>
      <trkpt lat="59.839634847118" lon="17.59282103959">
        <ele>14.6</ele>
        <time>2017-10-15T13:54:53Z</time>
      </trkpt>
      <trkpt lat="59.839596206559" lon="17.592826236368">
        <ele>14.8</ele>
        <time>2017-10-15T13:54:54Z</time>
      </trkpt>
      <trkpt lat="59.839552788317" lon="17.592834031535">
        <ele>14.8</ele>
        <time>2017-10-15T13:54:55Z</time>
      </trkpt>
      <trkpt lat="59.83950308365" lon="17.592843335444">
        <ele>14.8</ele>
        <time>2017-10-15T13:54:56Z</time>
      </trkpt>
      <trkpt lat="59.839445919092" lon="17.59284953805">
        <ele>14.6</ele>
        <time>2017-10-15T13:54:57Z</time>
      </trkpt>
      <trkpt lat="59.839396717339" lon="17.592860853615">
        <ele>14.4</ele>
        <time>2017-10-15T13:54:58Z</time>
      </trkpt>
      <trkpt lat="59.83934885669" lon="17.592877449777">
        <ele>14.2</ele>
        <time>2017-10-15T13:54:59Z</time>
      </trkpt>
      <trkpt lat="59.83930527081" lon="17.592911312653">
        <ele>13.6</ele>
        <time>2017-10-15T13:55:00Z</time>
      </trkpt>
      <trkpt lat="59.839279538377" lon="17.592941236036">
        <ele>13.4</ele>
        <time>2017-10-15T13:55:01Z</time>
      </trkpt>
      <trkpt lat="59.839249698813" lon="17.592979206043">
        <ele>13</ele>
        <time>2017-10-15T13:55:02Z</time>
      </trkpt>
      <trkpt lat="59.839216841765" lon="17.593001585716">
        <ele>12.8</ele>
        <time>2017-10-15T13:55:03Z</time>
      </trkpt>
      <trkpt lat="59.839181553966" lon="17.593014996756">
        <ele>12.6</ele>
        <time>2017-10-15T13:55:04Z</time>
      </trkpt>
      <trkpt lat="59.839149199832" lon="17.593024468303">
        <ele>12.6</ele>
        <time>2017-10-15T13:55:05Z</time>
      </trkpt>
      <trkpt lat="59.839114834042" lon="17.593036538239">
        <ele>12.6</ele>
        <time>2017-10-15T13:55:06Z</time>
      </trkpt>
      <trkpt lat="59.839080132976" lon="17.593044501044">
        <ele>12.6</ele>
        <time>2017-10-15T13:55:07Z</time>
      </trkpt>
      <trkpt lat="59.839056747475" lon="17.593049949279">
        <ele>12.6</ele>
        <time>2017-10-15T13:55:08Z</time>
      </trkpt>
      <trkpt lat="59.839036463277" lon="17.593057828265">
        <ele>12.6</ele>
        <time>2017-10-15T13:55:09Z</time>
      </trkpt>
      <trkpt lat="59.839010982301" lon="17.593074759703">
        <ele>12.2</ele>
        <time>2017-10-15T13:55:10Z</time>
      </trkpt>
      <trkpt lat="59.838984495497" lon="17.593094038073">
        <ele>12</ele>
        <time>2017-10-15T13:55:11Z</time>
      </trkpt>
      <trkpt lat="59.838958176331" lon="17.593114573728">
        <ele>11.6</ele>
        <time>2017-10-15T13:55:12Z</time>
      </trkpt>
      <trkpt lat="59.838934958468" lon="17.593130415519">
        <ele>11.4</ele>
        <time>2017-10-15T13:55:13Z</time>
      </trkpt>
      <trkpt lat="59.838916434469" lon="17.593144832387">
        <ele>11.2</ele>
        <time>2017-10-15T13:55:14Z</time>
      </trkpt>
      <trkpt lat="59.838897994289" lon="17.593160003626">
        <ele>11.2</ele>
        <time>2017-10-15T13:55:15Z</time>
      </trkpt>
      <trkpt lat="59.838882403955" lon="17.593170732458">
        <ele>11.2</ele>
        <time>2017-10-15T13:55:16Z</time>
      </trkpt>
      <trkpt lat="59.838860946291" lon="17.593182048023">
        <ele>11.4</ele>
        <time>2017-10-15T13:55:17Z</time>
      </trkpt>
      <trkpt lat="59.838843260482" lon="17.593188921181">
        <ele>11.6</ele>
        <time>2017-10-15T13:55:18Z</time>
      </trkpt>
      <trkpt lat="59.838825239397" lon="17.593198476547">
        <ele>11.8</ele>
        <time>2017-10-15T13:55:19Z</time>
      </trkpt>
      <trkpt lat="59.838808978511" lon="17.593210211207">
        <ele>12</ele>
        <time>2017-10-15T13:55:20Z</time>
      </trkpt>
      <trkpt lat="59.838797495308" lon="17.593216497632">
        <ele>12.2</ele>
        <time>2017-10-15T13:55:21Z</time>
      </trkpt>
      <trkpt lat="59.83878391663" lon="17.593226472093">
        <ele>12.2</ele>
        <time>2017-10-15T13:55:22Z</time>
      </trkpt>
      <trkpt lat="59.838770421771" lon="17.593240218409">
        <ele>12.4</ele>
        <time>2017-10-15T13:55:23Z</time>
      </trkpt>
      <trkpt lat="59.838756759274" lon="17.593253210354">
        <ele>12.6</ele>
        <time>2017-10-15T13:55:24Z</time>
      </trkpt>
      <trkpt lat="59.838741420397" lon="17.593261508435">
        <ele>12.8</ele>
        <time>2017-10-15T13:55:25Z</time>
      </trkpt>
      <trkpt lat="59.838726165339" lon="17.593267040489">
        <ele>12.8</ele>
        <time>2017-10-15T13:55:26Z</time>
      </trkpt>
      <trkpt lat="59.838711497014" lon="17.593277182588">
        <ele>13</ele>
        <time>2017-10-15T13:55:27Z</time>
      </trkpt>
      <trkpt lat="59.838695990499" lon="17.593284307203">
        <ele>13.2</ele>
        <time>2017-10-15T13:55:28Z</time>
      </trkpt>
      <trkpt lat="59.838665396564" lon="17.59328372047">
        <ele>13.2</ele>
        <time>2017-10-15T13:55:29Z</time>
      </trkpt>
      <trkpt lat="59.838632371878" lon="17.593275506208">
        <ele>13.4</ele>
        <time>2017-10-15T13:55:30Z</time>
      </trkpt>
      <trkpt lat="59.83860370578" lon="17.593279613339">
        <ele>13.4</ele>
        <time>2017-10-15T13:55:31Z</time>
      </trkpt>
      <trkpt lat="59.838576632243" lon="17.593297550605">
        <ele>13.4</ele>
        <time>2017-10-15T13:55:32Z</time>
      </trkpt>
      <trkpt lat="59.838558359701" lon="17.593323785952">
        <ele>13.2</ele>
        <time>2017-10-15T13:55:33Z</time>
      </trkpt>
      <trkpt lat="59.838544445747" lon="17.593351949136">
        <ele>13.2</ele>
        <time>2017-10-15T13:55:34Z</time>
      </trkpt>
      <trkpt lat="59.838531369983" lon="17.593374999361">
        <ele>13.2</ele>
        <time>2017-10-15T13:55:35Z</time>
      </trkpt>
      <trkpt lat="59.838519719142" lon="17.593395535016">
        <ele>13.2</ele>
        <time>2017-10-15T13:55:36Z</time>
      </trkpt>
      <trkpt lat="59.838498596754" lon="17.593419674888">
        <ele>13.2</ele>
        <time>2017-10-15T13:55:37Z</time>
      </trkpt>
      <trkpt lat="59.838472361407" lon="17.593445910235">
        <ele>13.4</ele>
        <time>2017-10-15T13:55:38Z</time>
      </trkpt>
      <trkpt lat="59.838440342549" lon="17.593477509998">
        <ele>13.4</ele>
        <time>2017-10-15T13:55:39Z</time>
      </trkpt>
      <trkpt lat="59.838401366714" lon="17.593506092277">
        <ele>13.2</ele>
        <time>2017-10-15T13:55:40Z</time>
      </trkpt>
      <trkpt lat="59.838357110282" lon="17.593531489434">
        <ele>13.4</ele>
        <time>2017-10-15T13:55:41Z</time>
      </trkpt>
      <trkpt lat="59.838299526629" lon="17.593566693414">
        <ele>13.2</ele>
        <time>2017-10-15T13:55:42Z</time>
      </trkpt>
      <trkpt lat="59.838244289908" lon="17.593610279294">
        <ele>13.2</ele>
        <time>2017-10-15T13:55:43Z</time>
      </trkpt>
      <trkpt lat="59.838201793675" lon="17.593655960649">
        <ele>13</ele>
        <time>2017-10-15T13:55:44Z</time>
      </trkpt>
      <trkpt lat="59.838162398745" lon="17.593716058872">
        <ele>12.8</ele>
        <time>2017-10-15T13:55:45Z</time>
      </trkpt>
      <trkpt lat="59.838138007416" lon="17.593776324733">
        <ele>12.6</ele>
        <time>2017-10-15T13:55:46Z</time>
      </trkpt>
      <trkpt lat="59.838114454277" lon="17.593841619734">
        <ele>12.4</ele>
        <time>2017-10-15T13:55:47Z</time>
      </trkpt>
      <trkpt lat="59.838100959418" lon="17.593867855081">
        <ele>12.2</ele>
        <time>2017-10-15T13:55:48Z</time>
      </trkpt>
      <trkpt lat="59.838078244469" lon="17.593899454844">
        <ele>12.2</ele>
        <time>2017-10-15T13:55:49Z</time>
      </trkpt>
      <trkpt lat="59.838048321086" lon="17.593932814806">
        <ele>12.2</ele>
        <time>2017-10-15T13:55:50Z</time>
      </trkpt>
      <trkpt lat="59.838019403531" lon="17.593966510044">
        <ele>12.6</ele>
        <time>2017-10-15T13:55:51Z</time>
      </trkpt>
      <trkpt lat="59.837987468492" lon="17.593996852522">
        <ele>13.2</ele>
        <time>2017-10-15T13:55:52Z</time>
      </trkpt>
      <trkpt lat="59.837952096874" lon="17.594009676829">
        <ele>14</ele>
        <time>2017-10-15T13:55:53Z</time>
      </trkpt>
      <trkpt lat="59.837908762451" lon="17.594017304358">
        <ele>14.4</ele>
        <time>2017-10-15T13:55:54Z</time>
      </trkpt>
      <trkpt lat="59.837857213766" lon="17.594029290475">
        <ele>14.6</ele>
        <time>2017-10-15T13:55:55Z</time>
      </trkpt>
      <trkpt lat="59.837806167995" lon="17.594046724827">
        <ele>14.2</ele>
        <time>2017-10-15T13:55:56Z</time>
      </trkpt>
      <trkpt lat="59.83775294293" lon="17.594073463088">
        <ele>13.8</ele>
        <time>2017-10-15T13:55:57Z</time>
      </trkpt>
      <trkpt lat="59.837710614335" lon="17.59409592658">
        <ele>13.4</ele>
        <time>2017-10-15T13:55:58Z</time>
      </trkpt>
      <trkpt lat="59.837662586048" lon="17.594122161927">
        <ele>13.2</ele>
        <time>2017-10-15T13:55:59Z</time>
      </trkpt>
      <trkpt lat="59.837616737055" lon="17.594147139989">
        <ele>12.8</ele>
        <time>2017-10-15T13:56:00Z</time>
      </trkpt>
      <trkpt lat="59.837575833383" lon="17.594170776947">
        <ele>12.4</ele>
        <time>2017-10-15T13:56:01Z</time>
      </trkpt>
      <trkpt lat="59.837542641059" lon="17.594203550176">
        <ele>12.2</ele>
        <time>2017-10-15T13:56:02Z</time>
      </trkpt>
      <trkpt lat="59.83751070602" lon="17.594244202391">
        <ele>12</ele>
        <time>2017-10-15T13:56:03Z</time>
      </trkpt>
      <trkpt lat="59.837482961931" lon="17.594286363348">
        <ele>12</ele>
        <time>2017-10-15T13:56:04Z</time>
      </trkpt>
      <trkpt lat="59.837452787091" lon="17.594337744395">
        <ele>12</ele>
        <time>2017-10-15T13:56:05Z</time>
      </trkpt>
      <trkpt lat="59.837422193156" lon="17.594388873985">
        <ele>12</ele>
        <time>2017-10-15T13:56:06Z</time>
      </trkpt>
      <trkpt lat="59.837391934497" lon="17.594445200353">
        <ele>12.2</ele>
        <time>2017-10-15T13:56:07Z</time>
      </trkpt>
      <trkpt lat="59.837366369702" lon="17.594491049346">
        <ele>12.2</ele>
        <time>2017-10-15T13:56:08Z</time>
      </trkpt>
      <trkpt lat="59.837343403296" lon="17.594533629398">
        <ele>12.4</ele>
        <time>2017-10-15T13:56:09Z</time>
      </trkpt>
      <trkpt lat="59.837320353071" lon="17.594578807839">
        <ele>12.8</ele>
        <time>2017-10-15T13:56:10Z</time>
      </trkpt>
      <trkpt lat="59.837295207371" lon="17.594627087583">
        <ele>13.2</ele>
        <time>2017-10-15T13:56:11Z</time>
      </trkpt>
      <trkpt lat="59.837268133834" lon="17.59468517415">
        <ele>13.6</ele>
        <time>2017-10-15T13:56:12Z</time>
      </trkpt>
      <trkpt lat="59.837251370034" lon="17.59474468564">
        <ele>13.8</ele>
        <time>2017-10-15T13:56:13Z</time>
      </trkpt>
      <trkpt lat="59.837241563211" lon="17.59480168256">
        <ele>14.2</ele>
        <time>2017-10-15T13:56:14Z</time>
      </trkpt>
      <trkpt lat="59.837231840207" lon="17.594862283697">
        <ele>14.4</ele>
        <time>2017-10-15T13:56:15Z</time>
      </trkpt>
      <trkpt lat="59.837221614289" lon="17.594908384147">
        <ele>14.6</ele>
        <time>2017-10-15T13:56:16Z</time>
      </trkpt>
      <trkpt lat="59.837205018127" lon="17.594971918949">
        <ele>14.8</ele>
        <time>2017-10-15T13:56:17Z</time>
      </trkpt>
      <trkpt lat="59.837187667594" lon="17.595040231434">
        <ele>15</ele>
        <time>2017-10-15T13:56:18Z</time>
      </trkpt>
      <trkpt lat="59.837173083088" lon="17.595111645222">
        <ele>15.2</ele>
        <time>2017-10-15T13:56:19Z</time>
      </trkpt>
      <trkpt lat="59.837156570745" lon="17.595188842521">
        <ele>15.4</ele>
        <time>2017-10-15T13:56:20Z</time>
      </trkpt>
      <trkpt lat="59.837133436701" lon="17.59525430516">
        <ele>15.6</ele>
        <time>2017-10-15T13:56:21Z</time>
      </trkpt>
      <trkpt lat="59.837103094223" lon="17.59532219855">
        <ele>15.6</ele>
        <time>2017-10-15T13:56:22Z</time>
      </trkpt>
      <trkpt lat="59.837066046225" lon="17.595386571542">
        <ele>15.8</ele>
        <time>2017-10-15T13:56:23Z</time>
      </trkpt>
      <trkpt lat="59.83702790858" lon="17.595448932878">
        <ele>15.6</ele>
        <time>2017-10-15T13:56:24Z</time>
      </trkpt>
      <trkpt lat="59.83698767546" lon="17.595511545671">
        <ele>15.6</ele>
        <time>2017-10-15T13:56:25Z</time>
      </trkpt>
      <trkpt lat="59.836949202539" lon="17.595574074645">
        <ele>15.6</ele>
        <time>2017-10-15T13:56:26Z</time>
      </trkpt>
      <trkpt lat="59.836905449021" lon="17.595652529229">
        <ele>15.4</ele>
        <time>2017-10-15T13:56:27Z</time>
      </trkpt>
      <trkpt lat="59.8368669761" lon="17.595725032664">
        <ele>15.4</ele>
        <time>2017-10-15T13:56:28Z</time>
      </trkpt>
      <trkpt lat="59.836825150419" lon="17.595804241619">
        <ele>15.2</ele>
        <time>2017-10-15T13:56:29Z</time>
      </trkpt>
      <trkpt lat="59.836784330566" lon="17.595885881325">
        <ele>15</ele>
        <time>2017-10-15T13:56:30Z</time>
      </trkpt>
      <trkpt lat="59.836749797138" lon="17.595953690896">
        <ele>14.6</ele>
        <time>2017-10-15T13:56:31Z</time>
      </trkpt>
      <trkpt lat="59.836711994769" lon="17.596028373625">
        <ele>14.6</ele>
        <time>2017-10-15T13:56:32Z</time>
      </trkpt>
      <trkpt lat="59.836674695314" lon="17.596099284499">
        <ele>14.4</ele>
        <time>2017-10-15T13:56:33Z</time>
      </trkpt>
      <trkpt lat="59.836637731135" lon="17.596162148749">
        <ele>14.2</ele>
        <time>2017-10-15T13:56:34Z</time>
      </trkpt>
      <trkpt lat="59.836594648169" lon="17.596231215605">
        <ele>14.2</ele>
        <time>2017-10-15T13:56:35Z</time>
      </trkpt>
      <trkpt lat="59.836559528008" lon="17.596293996036">
        <ele>14</ele>
        <time>2017-10-15T13:56:36Z</time>
      </trkpt>
      <trkpt lat="59.836521893277" lon="17.596373707905">
        <ele>14.2</ele>
        <time>2017-10-15T13:56:37Z</time>
      </trkpt>
      <trkpt lat="59.836485934926" lon="17.596446798073">
        <ele>14.2</ele>
        <time>2017-10-15T13:56:38Z</time>
      </trkpt>
      <trkpt lat="59.836448384014" lon="17.596515529653">
        <ele>14.2</ele>
        <time>2017-10-15T13:56:39Z</time>
      </trkpt>
      <trkpt lat="59.836412593301" lon="17.596577890989">
        <ele>14.2</ele>
        <time>2017-10-15T13:56:40Z</time>
      </trkpt>
      <trkpt lat="59.836376299674" lon="17.596646119655">
        <ele>14</ele>
        <time>2017-10-15T13:56:41Z</time>
      </trkpt>
      <trkpt lat="59.836337742934" lon="17.596723987506">
        <ele>14</ele>
        <time>2017-10-15T13:56:42Z</time>
      </trkpt>
      <trkpt lat="59.836302203678" lon="17.59678232553">
        <ele>14</ele>
        <time>2017-10-15T13:56:43Z</time>
      </trkpt>
      <trkpt lat="59.836271274467" lon="17.596843094305">
        <ele>14</ele>
        <time>2017-10-15T13:56:44Z</time>
      </trkpt>
      <trkpt lat="59.83624000998" lon="17.596919453414">
        <ele>14</ele>
        <time>2017-10-15T13:56:45Z</time>
      </trkpt>
      <trkpt lat="59.836219474325" lon="17.596975360687">
        <ele>14</ele>
        <time>2017-10-15T13:56:46Z</time>
      </trkpt>
      <trkpt lat="59.836201704697" lon="17.597023891888">
        <ele>14</ele>
        <time>2017-10-15T13:56:47Z</time>
      </trkpt>
      <trkpt lat="59.836178067739" lon="17.597072423089">
        <ele>14</ele>
        <time>2017-10-15T13:56:48Z</time>
      </trkpt>
      <trkpt lat="59.836163315595" lon="17.597111482743">
        <ele>14.2</ele>
        <time>2017-10-15T13:56:49Z</time>
      </trkpt>
      <trkpt lat="59.836151748573" lon="17.59715951103">
        <ele>14</ele>
        <time>2017-10-15T13:56:50Z</time>
      </trkpt>
      <trkpt lat="59.836136242058" lon="17.597208209869">
        <ele>14.2</ele>
        <time>2017-10-15T13:56:51Z</time>
      </trkpt>
      <trkpt lat="59.83611763424" lon="17.59726428478">
        <ele>14.2</ele>
        <time>2017-10-15T13:56:52Z</time>
      </trkpt>
      <trkpt lat="59.836099948431" lon="17.597326478478">
        <ele>14.4</ele>
        <time>2017-10-15T13:56:53Z</time>
      </trkpt>
      <trkpt lat="59.836085866839" lon="17.59738749871">
        <ele>14.4</ele>
        <time>2017-10-15T13:56:54Z</time>
      </trkpt>
      <trkpt lat="59.836069438315" lon="17.597450865874">
        <ele>14.4</ele>
        <time>2017-10-15T13:56:55Z</time>
      </trkpt>
      <trkpt lat="59.836050243764" lon="17.597505348224">
        <ele>14.4</ele>
        <time>2017-10-15T13:56:56Z</time>
      </trkpt>
      <trkpt lat="59.836029456652" lon="17.597568883026">
        <ele>14.6</ele>
        <time>2017-10-15T13:56:57Z</time>
      </trkpt>
      <trkpt lat="59.836012441395" lon="17.597627304869">
        <ele>14.6</ele>
        <time>2017-10-15T13:56:58Z</time>
      </trkpt>
      <trkpt lat="59.835994839405" lon="17.597687654549">
        <ele>14.6</ele>
        <time>2017-10-15T13:56:59Z</time>
      </trkpt>
      <trkpt lat="59.835976147768" lon="17.597752195179">
        <ele>14.6</ele>
        <time>2017-10-15T13:57:00Z</time>
      </trkpt>
      <trkpt lat="59.835959383968" lon="17.597806509891">
        <ele>14.6</ele>
        <time>2017-10-15T13:57:01Z</time>
      </trkpt>
      <trkpt lat="59.835930801689" lon="17.59785939968">
        <ele>14.6</ele>
        <time>2017-10-15T13:57:02Z</time>
      </trkpt>
      <trkpt lat="59.835906494179" lon="17.597897872601">
        <ele>14.8</ele>
        <time>2017-10-15T13:57:03Z</time>
      </trkpt>
      <trkpt lat="59.835889311284" lon="17.597924610862">
        <ele>14.8</ele>
        <time>2017-10-15T13:57:04Z</time>
      </trkpt>
      <trkpt lat="59.835876403158" lon="17.597953779874">
        <ele>15.2</ele>
        <time>2017-10-15T13:57:05Z</time>
      </trkpt>
      <trkpt lat="59.835866596335" lon="17.597974818443">
        <ele>15.6</ele>
        <time>2017-10-15T13:57:06Z</time>
      </trkpt>
      <trkpt lat="59.835855783684" lon="17.597997198116">
        <ele>16</ele>
        <time>2017-10-15T13:57:07Z</time>
      </trkpt>
      <trkpt lat="59.835849581078" lon="17.598019913065">
        <ele>16.6</ele>
        <time>2017-10-15T13:57:08Z</time>
      </trkpt>
      <trkpt lat="59.8358360024" lon="17.598053440665">
        <ele>17.2</ele>
        <time>2017-10-15T13:57:09Z</time>
      </trkpt>
      <trkpt lat="59.835821166437" lon="17.598084286057">
        <ele>17.8</ele>
        <time>2017-10-15T13:57:10Z</time>
      </trkpt>
      <trkpt lat="59.835804905551" lon="17.598113622707">
        <ele>18</ele>
        <time>2017-10-15T13:57:11Z</time>
      </trkpt>
      <trkpt lat="59.835786381552" lon="17.598151341257">
        <ele>18.4</ele>
        <time>2017-10-15T13:57:12Z</time>
      </trkpt>
      <trkpt lat="59.835768360467" lon="17.598191825834">
        <ele>18.8</ele>
        <time>2017-10-15T13:57:13Z</time>
      </trkpt>
      <trkpt lat="59.83575050702" lon="17.59823407061">
        <ele>19</ele>
        <time>2017-10-15T13:57:14Z</time>
      </trkpt>
      <trkpt lat="59.835726283329" lon="17.598286457485">
        <ele>19.2</ele>
        <time>2017-10-15T13:57:15Z</time>
      </trkpt>
      <trkpt lat="59.835706837321" lon="17.598330378641">
        <ele>19.4</ele>
        <time>2017-10-15T13:57:16Z</time>
      </trkpt>
      <trkpt lat="59.835681691621" lon="17.598396595651">
        <ele>19.4</ele>
        <time>2017-10-15T13:57:17Z</time>
      </trkpt>
      <trkpt lat="59.835662077975" lon="17.598453508752">
        <ele>19.4</ele>
        <time>2017-10-15T13:57:18Z</time>
      </trkpt>
      <trkpt lat="59.835638273379" lon="17.59850983512">
        <ele>19.4</ele>
        <time>2017-10-15T13:57:19Z</time>
      </trkpt>
      <trkpt lat="59.835610110195" lon="17.598563814556">
        <ele>19.4</ele>
        <time>2017-10-15T13:57:20Z</time>
      </trkpt>
      <trkpt lat="59.835583623391" lon="17.598611507567">
        <ele>19.4</ele>
        <time>2017-10-15T13:57:21Z</time>
      </trkpt>
      <trkpt lat="59.835554454379" lon="17.598665403184">
        <ele>19.4</ele>
        <time>2017-10-15T13:57:22Z</time>
      </trkpt>
      <trkpt lat="59.835524950091" lon="17.598727261606">
        <ele>19.4</ele>
        <time>2017-10-15T13:57:23Z</time>
      </trkpt>
      <trkpt lat="59.835498714744" lon="17.598783755612">
        <ele>19.4</ele>
        <time>2017-10-15T13:57:24Z</time>
      </trkpt>
      <trkpt lat="59.835470886836" lon="17.59883756741">
        <ele>19.4</ele>
        <time>2017-10-15T13:57:25Z</time>
      </trkpt>
      <trkpt lat="59.835443310385" lon="17.59889037338">
        <ele>19.6</ele>
        <time>2017-10-15T13:57:26Z</time>
      </trkpt>
      <trkpt lat="59.835410285699" lon="17.598952902354">
        <ele>19.6</ele>
        <time>2017-10-15T13:57:27Z</time>
      </trkpt>
      <trkpt lat="59.835378518298" lon="17.599007468523">
        <ele>19.8</ele>
        <time>2017-10-15T13:57:28Z</time>
      </trkpt>
      <trkpt lat="59.835346918535" lon="17.599068404936">
        <ele>19.8</ele>
        <time>2017-10-15T13:57:29Z</time>
      </trkpt>
      <trkpt lat="59.835313893849" lon="17.599132275014">
        <ele>19.8</ele>
        <time>2017-10-15T13:57:30Z</time>
      </trkpt>
      <trkpt lat="59.835284892475" lon="17.599192792332">
        <ele>19.8</ele>
        <time>2017-10-15T13:57:31Z</time>
      </trkpt>
      <trkpt lat="59.835256142558" lon="17.599258422609">
        <ele>19.6</ele>
        <time>2017-10-15T13:57:32Z</time>
      </trkpt>
      <trkpt lat="59.835229069021" lon="17.599312988778">
        <ele>19.8</ele>
        <time>2017-10-15T13:57:33Z</time>
      </trkpt>
      <trkpt lat="59.835203001312" lon="17.599360262694">
        <ele>19.8</ele>
        <time>2017-10-15T13:57:34Z</time>
      </trkpt>
      <trkpt lat="59.835171820644" lon="17.599411895198">
        <ele>20</ele>
        <time>2017-10-15T13:57:35Z</time>
      </trkpt>
      <trkpt lat="59.83514784841" lon="17.599450368119">
        <ele>20</ele>
        <time>2017-10-15T13:57:36Z</time>
      </trkpt>
      <trkpt lat="59.835121529244" lon="17.599489176316">
        <ele>20.2</ele>
        <time>2017-10-15T13:57:37Z</time>
      </trkpt>
      <trkpt lat="59.835100155399" lon="17.599518261509">
        <ele>20.2</ele>
        <time>2017-10-15T13:57:38Z</time>
      </trkpt>
      <trkpt lat="59.835076099346" lon="17.599541311734">
        <ele>20.4</ele>
        <time>2017-10-15T13:57:39Z</time>
      </trkpt>
      <trkpt lat="59.8350481038" lon="17.599567798538">
        <ele>20.6</ele>
        <time>2017-10-15T13:57:40Z</time>
      </trkpt>
      <trkpt lat="59.835017342227" lon="17.599602331966">
        <ele>20.8</ele>
        <time>2017-10-15T13:57:41Z</time>
      </trkpt>
      <trkpt lat="59.834988676129" lon="17.599642732724">
        <ele>20.8</ele>
        <time>2017-10-15T13:57:42Z</time>
      </trkpt>
      <trkpt lat="59.834964452438" lon="17.59968246293">
        <ele>21</ele>
        <time>2017-10-15T13:57:43Z</time>
      </trkpt>
      <trkpt lat="59.834946347534" lon="17.599720935851">
        <ele>21.2</ele>
        <time>2017-10-15T13:57:44Z</time>
      </trkpt>
      <trkpt lat="59.834925057508" lon="17.599758654401">
        <ele>21.4</ele>
        <time>2017-10-15T13:57:45Z</time>
      </trkpt>
      <trkpt lat="59.834912903753" lon="17.599790002707">
        <ele>21.6</ele>
        <time>2017-10-15T13:57:46Z</time>
      </trkpt>
      <trkpt lat="59.834897900152" lon="17.599827888895">
        <ele>21.8</ele>
        <time>2017-10-15T13:57:47Z</time>
      </trkpt>
      <trkpt lat="59.83488549494" lon="17.599866613273">
        <ele>22</ele>
        <time>2017-10-15T13:57:48Z</time>
      </trkpt>
      <trkpt lat="59.834874849927" lon="17.599903577452">
        <ele>22.2</ele>
        <time>2017-10-15T13:57:49Z</time>
      </trkpt>
      <trkpt lat="59.834862444715" lon="17.599949761721">
        <ele>22.6</ele>
        <time>2017-10-15T13:57:50Z</time>
      </trkpt>
      <trkpt lat="59.834855068643" lon="17.599996951818">
        <ele>22.8</ele>
        <time>2017-10-15T13:57:51Z</time>
      </trkpt>
      <trkpt lat="59.834847022019" lon="17.600049003417">
        <ele>23</ele>
        <time>2017-10-15T13:57:52Z</time>
      </trkpt>
      <trkpt lat="59.834847608752" lon="17.600097450799">
        <ele>23</ele>
        <time>2017-10-15T13:57:53Z</time>
      </trkpt>
      <trkpt lat="59.834853811358" lon="17.600147071647">
        <ele>23.2</ele>
        <time>2017-10-15T13:57:54Z</time>
      </trkpt>
      <trkpt lat="59.834858840498" lon="17.600196608676">
        <ele>23.2</ele>
        <time>2017-10-15T13:57:55Z</time>
      </trkpt>
      <trkpt lat="59.834862779991" lon="17.600241703298">
        <ele>23.2</ele>
        <time>2017-10-15T13:57:56Z</time>
      </trkpt>
      <trkpt lat="59.8348720839" lon="17.60028763611">
        <ele>23.2</ele>
        <time>2017-10-15T13:57:57Z</time>
      </trkpt>
      <trkpt lat="59.834877448316" lon="17.600328036868">
        <ele>23.4</ele>
        <time>2017-10-15T13:57:58Z</time>
      </trkpt>
      <trkpt lat="59.834883567103" lon="17.600370700739">
        <ele>23.6</ele>
        <time>2017-10-15T13:57:59Z</time>
      </trkpt>
      <trkpt lat="59.834887255139" lon="17.600416633551">
        <ele>23.8</ele>
        <time>2017-10-15T13:58:00Z</time>
      </trkpt>
      <trkpt lat="59.834896726686" lon="17.600454603558">
        <ele>24.2</ele>
        <time>2017-10-15T13:58:01Z</time>
      </trkpt>
      <trkpt lat="59.834913071391" lon="17.600503553854">
        <ele>24.4</ele>
        <time>2017-10-15T13:58:02Z</time>
      </trkpt>
      <trkpt lat="59.834927236802" lon="17.600556276005">
        <ele>24.8</ele>
        <time>2017-10-15T13:58:03Z</time>
      </trkpt>
      <trkpt lat="59.834940983118" lon="17.600588630139">
        <ele>25.2</ele>
        <time>2017-10-15T13:58:04Z</time>
      </trkpt>
      <trkpt lat="59.834952298683" lon="17.600644788869">
        <ele>25.4</ele>
        <time>2017-10-15T13:58:05Z</time>
      </trkpt>
      <trkpt lat="59.834959674755" lon="17.600700444685">
        <ele>25.6</ele>
        <time>2017-10-15T13:58:06Z</time>
      </trkpt>
      <trkpt lat="59.834975684184" lon="17.600746545135">
        <ele>25.8</ele>
        <time>2017-10-15T13:58:07Z</time>
      </trkpt>
      <trkpt lat="59.8349894305" lon="17.600776468518">
        <ele>25.6</ele>
        <time>2017-10-15T13:58:08Z</time>
      </trkpt>
      <trkpt lat="59.835013905648" lon="17.60080396115">
        <ele>25.8</ele>
        <time>2017-10-15T13:58:09Z</time>
      </trkpt>
      <trkpt lat="59.835028909249" lon="17.600826257004">
        <ele>25.8</ele>
        <time>2017-10-15T13:58:10Z</time>
      </trkpt>
      <trkpt lat="59.835041817375" lon="17.600853498179">
        <ele>26</ele>
        <time>2017-10-15T13:58:11Z</time>
      </trkpt>
      <trkpt lat="59.835058497356" lon="17.600879901164">
        <ele>26</ele>
        <time>2017-10-15T13:58:12Z</time>
      </trkpt>
      <trkpt lat="59.83507241131" lon="17.600905717416">
        <ele>26.2</ele>
        <time>2017-10-15T13:58:13Z</time>
      </trkpt>
      <trkpt lat="59.835090432395" lon="17.600933796781">
        <ele>26.4</ele>
        <time>2017-10-15T13:58:14Z</time>
      </trkpt>
      <trkpt lat="59.835107950566" lon="17.600961205594">
        <ele>26.8</ele>
        <time>2017-10-15T13:58:15Z</time>
      </trkpt>
      <trkpt lat="59.835122451253" lon="17.600983166172">
        <ele>27</ele>
        <time>2017-10-15T13:58:16Z</time>
      </trkpt>
      <trkpt lat="59.835138879777" lon="17.601011496994">
        <ele>27.4</ele>
        <time>2017-10-15T13:58:17Z</time>
      </trkpt>
      <trkpt lat="59.835156062672" lon="17.60104368349">
        <ele>27.6</ele>
        <time>2017-10-15T13:58:18Z</time>
      </trkpt>
      <trkpt lat="59.8351738323" lon="17.601073103959">
        <ele>27.8</ele>
        <time>2017-10-15T13:58:19Z</time>
      </trkpt>
      <trkpt lat="59.835190428462" lon="17.60110906231">
        <ele>28</ele>
        <time>2017-10-15T13:58:20Z</time>
      </trkpt>
      <trkpt lat="59.835198642724" lon="17.601147786688">
        <ele>28.2</ele>
        <time>2017-10-15T13:58:21Z</time>
      </trkpt>
      <trkpt lat="59.835204510054" lon="17.601185756695">
        <ele>28.6</ele>
        <time>2017-10-15T13:58:22Z</time>
      </trkpt>
      <trkpt lat="59.835213730144" lon="17.601237640656">
        <ele>28.8</ele>
        <time>2017-10-15T13:58:23Z</time>
      </trkpt>
      <trkpt lat="59.83521657999" lon="17.601293799386">
        <ele>29</ele>
        <time>2017-10-15T13:58:24Z</time>
      </trkpt>
      <trkpt lat="59.835217250542" lon="17.601356663636">
        <ele>29.4</ele>
        <time>2017-10-15T13:58:25Z</time>
      </trkpt>
      <trkpt lat="59.835221944406" lon="17.601404608104">
        <ele>29.4</ele>
        <time>2017-10-15T13:58:26Z</time>
      </trkpt>
      <trkpt lat="59.8352325056" lon="17.601444003034">
        <ele>29.6</ele>
        <time>2017-10-15T13:58:27Z</time>
      </trkpt>
      <trkpt lat="59.835232170324" lon="17.601515919736">
        <ele>29.6</ele>
        <time>2017-10-15T13:58:28Z</time>
      </trkpt>
      <trkpt lat="59.835231164496" lon="17.601594709596">
        <ele>29.4</ele>
        <time>2017-10-15T13:58:29Z</time>
      </trkpt>
      <trkpt lat="59.83522747646" lon="17.601667464488">
        <ele>29.2</ele>
        <time>2017-10-15T13:58:30Z</time>
      </trkpt>
      <trkpt lat="59.835225967718" lon="17.601716079508">
        <ele>29</ele>
        <time>2017-10-15T13:58:31Z</time>
      </trkpt>
      <trkpt lat="59.835226470632" lon="17.601775507179">
        <ele>28.8</ele>
        <time>2017-10-15T13:58:32Z</time>
      </trkpt>
      <trkpt lat="59.83522580008" lon="17.601828061692">
        <ele>28.6</ele>
        <time>2017-10-15T13:58:33Z</time>
      </trkpt>
      <trkpt lat="59.835229069021" lon="17.60187097702">
        <ele>28.4</ele>
        <time>2017-10-15T13:58:34Z</time>
      </trkpt>
      <trkpt lat="59.835246251916" lon="17.601937613125">
        <ele>28.4</ele>
        <time>2017-10-15T13:58:35Z</time>
      </trkpt>
      <trkpt lat="59.835259830594" lon="17.601998046624">
        <ele>28.2</ele>
        <time>2017-10-15T13:58:36Z</time>
      </trkpt>
      <trkpt lat="59.835277851679" lon="17.602068538403">
        <ele>28.2</ele>
        <time>2017-10-15T13:58:37Z</time>
      </trkpt>
      <trkpt lat="59.83529704623" lon="17.602127630798">
        <ele>28.2</ele>
        <time>2017-10-15T13:58:38Z</time>
      </trkpt>
      <trkpt lat="59.835306936872" lon="17.602193177256">
        <ele>28.4</ele>
        <time>2017-10-15T13:58:39Z</time>
      </trkpt>
      <trkpt lat="59.835318671532" lon="17.602254784221">
        <ele>28.6</ele>
        <time>2017-10-15T13:58:40Z</time>
      </trkpt>
      <trkpt lat="59.835327137251" lon="17.602320163041">
        <ele>28.6</ele>
        <time>2017-10-15T13:58:41Z</time>
      </trkpt>
      <trkpt lat="59.835344906879" lon="17.602387469698">
        <ele>28.8</ele>
        <time>2017-10-15T13:58:42Z</time>
      </trkpt>
      <trkpt lat="59.835366783638" lon="17.602442790238">
        <ele>29</ele>
        <time>2017-10-15T13:58:43Z</time>
      </trkpt>
      <trkpt lat="59.8353917617" lon="17.602492662543">
        <ele>29</ele>
        <time>2017-10-15T13:58:44Z</time>
      </trkpt>
      <trkpt lat="59.835423193825" lon="17.602543373038">
        <ele>29</ele>
        <time>2017-10-15T13:58:45Z</time>
      </trkpt>
      <trkpt lat="59.835446998421" lon="17.602579582846">
        <ele>29.2</ele>
        <time>2017-10-15T13:58:46Z</time>
      </trkpt>
      <trkpt lat="59.835477592356" lon="17.602619313052">
        <ele>29</ele>
        <time>2017-10-15T13:58:47Z</time>
      </trkpt>
      <trkpt lat="59.835512712517" lon="17.602641022173">
        <ele>28.8</ele>
        <time>2017-10-15T13:58:48Z</time>
      </trkpt>
      <trkpt lat="59.835552777999" lon="17.602658121249">
        <ele>28.8</ele>
        <time>2017-10-15T13:58:49Z</time>
      </trkpt>
      <trkpt lat="59.835594687499" lon="17.602669855909">
        <ele>28.6</ele>
        <time>2017-10-15T13:58:50Z</time>
      </trkpt>
      <trkpt lat="59.83562561671" lon="17.602684524234">
        <ele>28.6</ele>
        <time>2017-10-15T13:58:51Z</time>
      </trkpt>
      <trkpt lat="59.835661742699" lon="17.602709753753">
        <ele>28.6</ele>
        <time>2017-10-15T13:58:52Z</time>
      </trkpt>
      <trkpt lat="59.835698706878" lon="17.602746969389">
        <ele>28.8</ele>
        <time>2017-10-15T13:58:53Z</time>
      </trkpt>
      <trkpt lat="59.83572117037" lon="17.602815449512">
        <ele>28.8</ele>
        <time>2017-10-15T13:58:54Z</time>
      </trkpt>
      <trkpt lat="59.835736593066" lon="17.60288937787">
        <ele>28.8</ele>
        <time>2017-10-15T13:58:55Z</time>
      </trkpt>
      <trkpt lat="59.835755787617" lon="17.602952325939">
        <ele>28.8</ele>
        <time>2017-10-15T13:58:56Z</time>
      </trkpt>
      <trkpt lat="59.83577313815" lon="17.603019464958">
        <ele>28.8</ele>
        <time>2017-10-15T13:58:57Z</time>
      </trkpt>
      <trkpt lat="59.835778837842" lon="17.603085262873">
        <ele>28.8</ele>
        <time>2017-10-15T13:58:58Z</time>
      </trkpt>
      <trkpt lat="59.835773054331" lon="17.603148965313">
        <ele>28.6</ele>
        <time>2017-10-15T13:58:59Z</time>
      </trkpt>
      <trkpt lat="59.835752602495" lon="17.603191796822">
        <ele>28.4</ele>
        <time>2017-10-15T13:59:00Z</time>
      </trkpt>
      <trkpt lat="59.835725109863" lon="17.603221133472">
        <ele>28.2</ele>
        <time>2017-10-15T13:59:01Z</time>
      </trkpt>
      <trkpt lat="59.835683535639" lon="17.603260779859">
        <ele>28</ele>
        <time>2017-10-15T13:59:02Z</time>
      </trkpt>
      <trkpt lat="59.835643386338" lon="17.603292463441">
        <ele>27.8</ele>
        <time>2017-10-15T13:59:03Z</time>
      </trkpt>
      <trkpt lat="59.835602901761" lon="17.603328421792">
        <ele>27.6</ele>
        <time>2017-10-15T13:59:04Z</time>
      </trkpt>
      <trkpt lat="59.835555963121" lon="17.603374522242">
        <ele>27.6</ele>
        <time>2017-10-15T13:59:05Z</time>
      </trkpt>
      <trkpt lat="59.835516400553" lon="17.603397740105">
        <ele>27.4</ele>
        <time>2017-10-15T13:59:06Z</time>
      </trkpt>
      <trkpt lat="59.835467031162" lon="17.603432022076">
        <ele>27.4</ele>
        <time>2017-10-15T13:59:07Z</time>
      </trkpt>
      <trkpt lat="59.835427049499" lon="17.603466304047">
        <ele>27.2</ele>
        <time>2017-10-15T13:59:08Z</time>
      </trkpt>
      <trkpt lat="59.835385810551" lon="17.603498825819">
        <ele>27</ele>
        <time>2017-10-15T13:59:09Z</time>
      </trkpt>
      <trkpt lat="59.835345577431" lon="17.603527408098">
        <ele>27</ele>
        <time>2017-10-15T13:59:10Z</time>
      </trkpt>
      <trkpt lat="59.835305595768" lon="17.603563366449">
        <ele>26.8</ele>
        <time>2017-10-15T13:59:11Z</time>
      </trkpt>
      <trkpt lat="59.835268044856" lon="17.603597816058">
        <ele>26.8</ele>
        <time>2017-10-15T13:59:12Z</time>
      </trkpt>
      <trkpt lat="59.835228733745" lon="17.603634025866">
        <ele>26.8</ele>
        <time>2017-10-15T13:59:13Z</time>
      </trkpt>
      <trkpt lat="59.835190344643" lon="17.603664619801">
        <ele>26.8</ele>
        <time>2017-10-15T13:59:14Z</time>
      </trkpt>
      <trkpt lat="59.835144663288" lon="17.603706948396">
        <ele>27</ele>
        <time>2017-10-15T13:59:15Z</time>
      </trkpt>
      <trkpt lat="59.835112979706" lon="17.603738212883">
        <ele>27.2</ele>
        <time>2017-10-15T13:59:16Z</time>
      </trkpt>
      <trkpt lat="59.835056904795" lon="17.603793868699">
        <ele>27.2</ele>
        <time>2017-10-15T13:59:17Z</time>
      </trkpt>
      <trkpt lat="59.835012145449" lon="17.603832593077">
        <ele>27.2</ele>
        <time>2017-10-15T13:59:18Z</time>
      </trkpt>
      <trkpt lat="59.834965290628" lon="17.603867294143">
        <ele>27.2</ele>
        <time>2017-10-15T13:59:19Z</time>
      </trkpt>
      <trkpt lat="59.834917849074" lon="17.603908700729">
        <ele>27.2</ele>
        <time>2017-10-15T13:59:20Z</time>
      </trkpt>
      <trkpt lat="59.834876945402" lon="17.60394549727">
        <ele>27.2</ele>
        <time>2017-10-15T13:59:21Z</time>
      </trkpt>
      <trkpt lat="59.834831096409" lon="17.60399243591">
        <ele>27.2</ele>
        <time>2017-10-15T13:59:22Z</time>
      </trkpt>
      <trkpt lat="59.834783571036" lon="17.604051528305">
        <ele>27.4</ele>
        <time>2017-10-15T13:59:23Z</time>
      </trkpt>
      <trkpt lat="59.834744427563" lon="17.60411481165">
        <ele>27.6</ele>
        <time>2017-10-15T13:59:24Z</time>
      </trkpt>
      <trkpt lat="59.83470696047" lon="17.604181196298">
        <ele>27.8</ele>
        <time>2017-10-15T13:59:25Z</time>
      </trkpt>
      <trkpt lat="59.834678294372" lon="17.604248670593">
        <ele>27.8</ele>
        <time>2017-10-15T13:59:26Z</time>
      </trkpt>
      <trkpt lat="59.834646443152" lon="17.604327460453">
        <ele>28</ele>
        <time>2017-10-15T13:59:27Z</time>
      </trkpt>
      <trkpt lat="59.834618279968" lon="17.604394012739">
        <ele>28</ele>
        <time>2017-10-15T13:59:28Z</time>
      </trkpt>
      <trkpt lat="59.834587686033" lon="17.604464001604">
        <ele>28.2</ele>
        <time>2017-10-15T13:59:29Z</time>
      </trkpt>
      <trkpt lat="59.834560193401" lon="17.604533487555">
        <ele>28.4</ele>
        <time>2017-10-15T13:59:30Z</time>
      </trkpt>
      <trkpt lat="59.834533874235" lon="17.604601464764">
        <ele>28.6</ele>
        <time>2017-10-15T13:59:31Z</time>
      </trkpt>
      <trkpt lat="59.834501101006" lon="17.604684026479">
        <ele>29</ele>
        <time>2017-10-15T13:59:32Z</time>
      </trkpt>
      <trkpt lat="59.834469668881" lon="17.604763989805">
        <ele>29.2</ele>
        <time>2017-10-15T13:59:33Z</time>
      </trkpt>
      <trkpt lat="59.834442008611" lon="17.604834481584">
        <ele>29.2</ele>
        <time>2017-10-15T13:59:34Z</time>
      </trkpt>
      <trkpt lat="59.83441443216" lon="17.604902626431">
        <ele>29.2</ele>
        <time>2017-10-15T13:59:35Z</time>
      </trkpt>
      <trkpt lat="59.834393225953" lon="17.604951492908">
        <ele>29.2</ele>
        <time>2017-10-15T13:59:36Z</time>
      </trkpt>
      <trkpt lat="59.834369505176" lon="17.605011004398">
        <ele>29.2</ele>
        <time>2017-10-15T13:59:37Z</time>
      </trkpt>
      <trkpt lat="59.834346035856" lon="17.60507118644">
        <ele>29.2</ele>
        <time>2017-10-15T13:59:38Z</time>
      </trkpt>
      <trkpt lat="59.834322734174" lon="17.605144276608">
        <ele>29.2</ele>
        <time>2017-10-15T13:59:39Z</time>
      </trkpt>
      <trkpt lat="59.834306054193" lon="17.605219965165">
        <ele>29</ele>
        <time>2017-10-15T13:59:40Z</time>
      </trkpt>
      <trkpt lat="59.834293648981" lon="17.605303197432">
        <ele>29</ele>
        <time>2017-10-15T13:59:41Z</time>
      </trkpt>
      <trkpt lat="59.83429624737" lon="17.605392297029">
        <ele>28.8</ele>
        <time>2017-10-15T13:59:42Z</time>
      </trkpt>
      <trkpt lat="59.834305132184" lon="17.60547770859">
        <ele>28.8</ele>
        <time>2017-10-15T13:59:43Z</time>
      </trkpt>
      <trkpt lat="59.834320135785" lon="17.605558342468">
        <ele>28.6</ele>
        <time>2017-10-15T13:59:44Z</time>
      </trkpt>
      <trkpt lat="59.834339665612" lon="17.6056445084">
        <ele>28.6</ele>
        <time>2017-10-15T13:59:45Z</time>
      </trkpt>
      <trkpt lat="59.834358608706" lon="17.605714664903">
        <ele>28.6</ele>
        <time>2017-10-15T13:59:46Z</time>
      </trkpt>
      <trkpt lat="59.834385598424" lon="17.60580879364">
        <ele>28.6</ele>
        <time>2017-10-15T13:59:47Z</time>
      </trkpt>
      <trkpt lat="59.834409989753" lon="17.605892864097">
        <ele>28.8</ele>
        <time>2017-10-15T13:59:48Z</time>
      </trkpt>
      <trkpt lat="59.834431279779" lon="17.60597475526">
        <ele>29</ele>
        <time>2017-10-15T13:59:49Z</time>
      </trkpt>
      <trkpt lat="59.834454749099" lon="17.606060753554">
        <ele>29</ele>
        <time>2017-10-15T13:59:50Z</time>
      </trkpt>
      <trkpt lat="59.834474362745" lon="17.606133340808">
        <ele>29</ele>
        <time>2017-10-15T13:59:51Z</time>
      </trkpt>
      <trkpt lat="59.834502023015" lon="17.606223027138">
        <ele>29.2</ele>
        <time>2017-10-15T13:59:52Z</time>
      </trkpt>
      <trkpt lat="59.834532030217" lon="17.606316233866">
        <ele>29.2</ele>
        <time>2017-10-15T13:59:53Z</time>
      </trkpt>
      <trkpt lat="59.834559019935" lon="17.606403237988">
        <ele>29.2</ele>
        <time>2017-10-15T13:59:54Z</time>
      </trkpt>
      <trkpt lat="59.834586428748" lon="17.606493259594">
        <ele>29.2</ele>
        <time>2017-10-15T13:59:55Z</time>
      </trkpt>
      <trkpt lat="59.834613837561" lon="17.606579425526">
        <ele>29.4</ele>
        <time>2017-10-15T13:59:56Z</time>
      </trkpt>
      <trkpt lat="59.83464493441" lon="17.606672883711">
        <ele>29.4</ele>
        <time>2017-10-15T13:59:57Z</time>
      </trkpt>
      <trkpt lat="59.834671085938" lon="17.606756032159">
        <ele>29.4</ele>
        <time>2017-10-15T13:59:58Z</time>
      </trkpt>
      <trkpt lat="59.834701344597" lon="17.606842868643">
        <ele>29.4</ele>
        <time>2017-10-15T13:59:59Z</time>
      </trkpt>
      <trkpt lat="59.834733614912" lon="17.606924592168">
        <ele>29.4</ele>
        <time>2017-10-15T14:00:00Z</time>
      </trkpt>
      <trkpt lat="59.834760520811" lon="17.606999945449">
        <ele>29.4</ele>
        <time>2017-10-15T14:00:01Z</time>
      </trkpt>
      <trkpt lat="59.834791198565" lon="17.607082674802">
        <ele>29.4</ele>
        <time>2017-10-15T14:00:02Z</time>
      </trkpt>
      <trkpt lat="59.834815589894" lon="17.607160961748">
        <ele>29.4</ele>
        <time>2017-10-15T14:00:03Z</time>
      </trkpt>
      <trkpt lat="59.834823720337" lon="17.607240086884">
        <ele>29.6</ele>
        <time>2017-10-15T14:00:04Z</time>
      </trkpt>
      <trkpt lat="59.834808716736" lon="17.607320972219">
        <ele>29.6</ele>
        <time>2017-10-15T14:00:05Z</time>
      </trkpt>
      <trkpt lat="59.834784409226" lon="17.607372604723">
        <ele>29.8</ele>
        <time>2017-10-15T14:00:06Z</time>
      </trkpt>
      <trkpt lat="59.834750043436" lon="17.60743152948">
        <ele>29.8</ele>
        <time>2017-10-15T14:00:07Z</time>
      </trkpt>
      <trkpt lat="59.834717354026" lon="17.607484000174">
        <ele>29.8</ele>
        <time>2017-10-15T14:00:08Z</time>
      </trkpt>
      <trkpt lat="59.834684832254" lon="17.607534794488">
        <ele>30</ele>
        <time>2017-10-15T14:00:09Z</time>
      </trkpt>
      <trkpt lat="59.834655160328" lon="17.607583325689">
        <ele>29.8</ele>
        <time>2017-10-15T14:00:10Z</time>
      </trkpt>
      <trkpt lat="59.834620962176" lon="17.607637975677">
        <ele>29.8</ele>
        <time>2017-10-15T14:00:11Z</time>
      </trkpt>
      <trkpt lat="59.834584417092" lon="17.607694134407">
        <ele>29.6</ele>
        <time>2017-10-15T14:00:12Z</time>
      </trkpt>
      <trkpt lat="59.834547285275" lon="17.607752137155">
        <ele>29.6</ele>
        <time>2017-10-15T14:00:13Z</time>
      </trkpt>
      <trkpt lat="59.834512919485" lon="17.607808463523">
        <ele>29.6</ele>
        <time>2017-10-15T14:00:14Z</time>
      </trkpt>
      <trkpt lat="59.834476793496" lon="17.607866047176">
        <ele>29.6</ele>
        <time>2017-10-15T14:00:15Z</time>
      </trkpt>
      <trkpt lat="59.834448127398" lon="17.607911309436">
        <ele>29.6</ele>
        <time>2017-10-15T14:00:16Z</time>
      </trkpt>
      <trkpt lat="59.834406134079" lon="17.607978616093">
        <ele>29.8</ele>
        <time>2017-10-15T14:00:17Z</time>
      </trkpt>
      <trkpt lat="59.834368918443" lon="17.608039301049">
        <ele>29.8</ele>
        <time>2017-10-15T14:00:18Z</time>
      </trkpt>
      <trkpt lat="59.834333211549" lon="17.608100488919">
        <ele>29.8</ele>
        <time>2017-10-15T14:00:19Z</time>
      </trkpt>
      <trkpt lat="59.83429876194" lon="17.608161844427">
        <ele>29.8</ele>
        <time>2017-10-15T14:00:20Z</time>
      </trkpt>
      <trkpt lat="59.834270431118" lon="17.608207861058">
        <ele>29.8</ele>
        <time>2017-10-15T14:00:21Z</time>
      </trkpt>
      <trkpt lat="59.834232042016" lon="17.608266701996">
        <ele>29.6</ele>
        <time>2017-10-15T14:00:22Z</time>
      </trkpt>
      <trkpt lat="59.834189545783" lon="17.608332332273">
        <ele>29.4</ele>
        <time>2017-10-15T14:00:23Z</time>
      </trkpt>
      <trkpt lat="59.834148558292" lon="17.608393436324">
        <ele>29.6</ele>
        <time>2017-10-15T14:00:24Z</time>
      </trkpt>
      <trkpt lat="59.834106229697" lon="17.608456971126">
        <ele>29.6</ele>
        <time>2017-10-15T14:00:25Z</time>
      </trkpt>
      <trkpt lat="59.834066499491" lon="17.608514722417">
        <ele>29.6</ele>
        <time>2017-10-15T14:00:26Z</time>
      </trkpt>
      <trkpt lat="59.834018471204" lon="17.608583370178">
        <ele>29.8</ele>
        <time>2017-10-15T14:00:27Z</time>
      </trkpt>
      <trkpt lat="59.833977986627" lon="17.608643971315">
        <ele>30</ele>
        <time>2017-10-15T14:00:28Z</time>
      </trkpt>
      <trkpt lat="59.833930377435" lon="17.608710439782">
        <ele>29.8</ele>
        <time>2017-10-15T14:00:29Z</time>
      </trkpt>
      <trkpt lat="59.833884863718" lon="17.60878436814">
        <ele>29.8</ele>
        <time>2017-10-15T14:00:30Z</time>
      </trkpt>
      <trkpt lat="59.833845887883" lon="17.608850082236">
        <ele>29.8</ele>
        <time>2017-10-15T14:00:31Z</time>
      </trkpt>
      <trkpt lat="59.83380003889" lon="17.608920071101">
        <ele>29.6</ele>
        <time>2017-10-15T14:00:32Z</time>
      </trkpt>
      <trkpt lat="59.833757542657" lon="17.60899307745">
        <ele>29.4</ele>
        <time>2017-10-15T14:00:33Z</time>
      </trkpt>
      <trkpt lat="59.833716638985" lon="17.609064826514">
        <ele>29.4</ele>
        <time>2017-10-15T14:00:34Z</time>
      </trkpt>
      <trkpt lat="59.833715214062" lon="17.609070693844">
        <ele>29.4</ele>
        <time>2017-10-15T14:00:35Z</time>
      </trkpt>
      <trkpt lat="59.833665006481" lon="17.60915987726">
        <ele>29.2</ele>
        <time>2017-10-15T14:00:36Z</time>
      </trkpt>
      <trkpt lat="59.833593341236" lon="17.609294993488">
        <ele>29</ele>
        <time>2017-10-15T14:00:37Z</time>
      </trkpt>
      <trkpt lat="59.833557634342" lon="17.60937613028">
        <ele>28.8</ele>
        <time>2017-10-15T14:00:38Z</time>
      </trkpt>
      <trkpt lat="59.833523855285" lon="17.609457183253">
        <ele>28.6</ele>
        <time>2017-10-15T14:00:39Z</time>
      </trkpt>
      <trkpt lat="59.833490327685" lon="17.609534883466">
        <ele>28.8</ele>
        <time>2017-10-15T14:00:40Z</time>
      </trkpt>
      <trkpt lat="59.833456045714" lon="17.60961501443">
        <ele>28.8</ele>
        <time>2017-10-15T14:00:41Z</time>
      </trkpt>
      <trkpt lat="59.833418494802" lon="17.609707382968">
        <ele>29</ele>
        <time>2017-10-15T14:00:42Z</time>
      </trkpt>
      <trkpt lat="59.833381949718" lon="17.609793297443">
        <ele>29</ele>
        <time>2017-10-15T14:00:43Z</time>
      </trkpt>
      <trkpt lat="59.833345991367" lon="17.609876864986">
        <ele>29</ele>
        <time>2017-10-15T14:00:44Z</time>
      </trkpt>
      <trkpt lat="59.833307266989" lon="17.609962360366">
        <ele>28.8</ele>
        <time>2017-10-15T14:00:45Z</time>
      </trkpt>
      <trkpt lat="59.833277259787" lon="17.610031678679">
        <ele>28.8</ele>
        <time>2017-10-15T14:00:46Z</time>
      </trkpt>
      <trkpt lat="59.833240547065" lon="17.610124801588">
        <ele>28.8</ele>
        <time>2017-10-15T14:00:47Z</time>
      </trkpt>
      <trkpt lat="59.833207354741" lon="17.610205016371">
        <ele>28.8</ele>
        <time>2017-10-15T14:00:48Z</time>
      </trkpt>
      <trkpt lat="59.833172905132" lon="17.610285147335">
        <ele>29</ele>
        <time>2017-10-15T14:00:49Z</time>
      </trkpt>
      <trkpt lat="59.833142478835" lon="17.610359830064">
        <ele>29.2</ele>
        <time>2017-10-15T14:00:50Z</time>
      </trkpt>
      <trkpt lat="59.833119344791" lon="17.610431160033">
        <ele>29.4</ele>
        <time>2017-10-15T14:00:51Z</time>
      </trkpt>
      <trkpt lat="59.833094115272" lon="17.610513889386">
        <ele>29.4</ele>
        <time>2017-10-15T14:00:52Z</time>
      </trkpt>
      <trkpt lat="59.833076513282" lon="17.610592511608">
        <ele>29.6</ele>
        <time>2017-10-15T14:00:53Z</time>
      </trkpt>
      <trkpt lat="59.833051702858" lon="17.610692591494">
        <ele>29.4</ele>
        <time>2017-10-15T14:00:54Z</time>
      </trkpt>
      <trkpt lat="59.833034687601" lon="17.610769285879">
        <ele>29.6</ele>
        <time>2017-10-15T14:00:55Z</time>
      </trkpt>
      <trkpt lat="59.833025970425" lon="17.610840951124">
        <ele>29.8</ele>
        <time>2017-10-15T14:00:56Z</time>
      </trkpt>
      <trkpt lat="59.833026221882" lon="17.610925273038">
        <ele>29.8</ele>
        <time>2017-10-15T14:00:57Z</time>
      </trkpt>
      <trkpt lat="59.833035190515" lon="17.611003559984">
        <ele>30</ele>
        <time>2017-10-15T14:00:58Z</time>
      </trkpt>
      <trkpt lat="59.833049104469" lon="17.611083188034">
        <ele>30</ele>
        <time>2017-10-15T14:00:59Z</time>
      </trkpt>
      <trkpt lat="59.833072070875" lon="17.611172706726">
        <ele>30.4</ele>
        <time>2017-10-15T14:01:00Z</time>
      </trkpt>
      <trkpt lat="59.833092941806" lon="17.611256525726">
        <ele>30.4</ele>
        <time>2017-10-15T14:01:01Z</time>
      </trkpt>
      <trkpt lat="59.833116578764" lon="17.61135844963">
        <ele>30.6</ele>
        <time>2017-10-15T14:01:02Z</time>
      </trkpt>
      <trkpt lat="59.833138539342" lon="17.611452075453">
        <ele>30.6</ele>
        <time>2017-10-15T14:01:03Z</time>
      </trkpt>
      <trkpt lat="59.833159913187" lon="17.611537738471">
        <ele>30.6</ele>
        <time>2017-10-15T14:01:04Z</time>
      </trkpt>
      <trkpt lat="59.833184975068" lon="17.611637147805">
        <ele>30.6</ele>
        <time>2017-10-15T14:01:05Z</time>
      </trkpt>
      <trkpt lat="59.833202996153" lon="17.611715267113">
        <ele>30.6</ele>
        <time>2017-10-15T14:01:06Z</time>
      </trkpt>
      <trkpt lat="59.833225292007" lon="17.611821884881">
        <ele>30.4</ele>
        <time>2017-10-15T14:01:07Z</time>
      </trkpt>
      <trkpt lat="59.833247420223" lon="17.611916851808">
        <ele>30.6</ele>
        <time>2017-10-15T14:01:08Z</time>
      </trkpt>
      <trkpt lat="59.83327030281" lon="17.612011064364">
        <ele>30.4</ele>
        <time>2017-10-15T14:01:09Z</time>
      </trkpt>
      <trkpt lat="59.833292766302" lon="17.612096559744">
        <ele>30.4</ele>
        <time>2017-10-15T14:01:10Z</time>
      </trkpt>
      <trkpt lat="59.833315397432" lon="17.612187922454">
        <ele>30.4</ele>
        <time>2017-10-15T14:01:11Z</time>
      </trkpt>
      <trkpt lat="59.83333903439" lon="17.612285906865">
        <ele>30.4</ele>
        <time>2017-10-15T14:01:12Z</time>
      </trkpt>
      <trkpt lat="59.833360408235" lon="17.612377437213">
        <ele>30.4</ele>
        <time>2017-10-15T14:01:13Z</time>
      </trkpt>
      <trkpt lat="59.833380860071" lon="17.612464692792">
        <ele>30.6</ele>
        <time>2017-10-15T14:01:14Z</time>
      </trkpt>
      <trkpt lat="59.833404580848" lon="17.612557312787">
        <ele>30.6</ele>
        <time>2017-10-15T14:01:15Z</time>
      </trkpt>
      <trkpt lat="59.833424110675" lon="17.612627301652">
        <ele>30.8</ele>
        <time>2017-10-15T14:01:16Z</time>
      </trkpt>
      <trkpt lat="59.83344883728" lon="17.612725286063">
        <ele>31.2</ele>
        <time>2017-10-15T14:01:17Z</time>
      </trkpt>
      <trkpt lat="59.833466020175" lon="17.612816816411">
        <ele>31.4</ele>
        <time>2017-10-15T14:01:18Z</time>
      </trkpt>
      <trkpt lat="59.833479347396" lon="17.612910526053">
        <ele>31.6</ele>
        <time>2017-10-15T14:01:19Z</time>
      </trkpt>
      <trkpt lat="59.833491082056" lon="17.613007923731">
        <ele>31.8</ele>
        <time>2017-10-15T14:01:20Z</time>
      </trkpt>
      <trkpt lat="59.833504409277" lon="17.613090317808">
        <ele>32</ele>
        <time>2017-10-15T14:01:21Z</time>
      </trkpt>
      <trkpt lat="59.833520753982" lon="17.613186877296">
        <ele>32</ele>
        <time>2017-10-15T14:01:22Z</time>
      </trkpt>
      <trkpt lat="59.833540870542" lon="17.613269439011">
        <ele>32</ele>
        <time>2017-10-15T14:01:23Z</time>
      </trkpt>
      <trkpt lat="59.833563082577" lon="17.613385695964">
        <ele>32.2</ele>
        <time>2017-10-15T14:01:24Z</time>
      </trkpt>
      <trkpt lat="59.833577583264" lon="17.613477561588">
        <ele>32.2</ele>
        <time>2017-10-15T14:01:25Z</time>
      </trkpt>
      <trkpt lat="59.833585713707" lon="17.61356205114">
        <ele>32.2</ele>
        <time>2017-10-15T14:01:26Z</time>
      </trkpt>
      <trkpt lat="59.833598705652" lon="17.613655257868">
        <ele>32.2</ele>
        <time>2017-10-15T14:01:27Z</time>
      </trkpt>
      <trkpt lat="59.833614463624" lon="17.61372885095">
        <ele>32.2</ele>
        <time>2017-10-15T14:01:28Z</time>
      </trkpt>
      <trkpt lat="59.833632903804" lon="17.613802863127">
        <ele>32.2</ele>
        <time>2017-10-15T14:01:29Z</time>
      </trkpt>
      <trkpt lat="59.833652349812" lon="17.613873271087">
        <ele>32.4</ele>
        <time>2017-10-15T14:01:30Z</time>
      </trkpt>
      <trkpt lat="59.833662827187" lon="17.613939655735">
        <ele>32.4</ele>
        <time>2017-10-15T14:01:31Z</time>
      </trkpt>
      <trkpt lat="59.833666515223" lon="17.614012326808">
        <ele>32.4</ele>
        <time>2017-10-15T14:01:32Z</time>
      </trkpt>
      <trkpt lat="59.833658468599" lon="17.614072676488">
        <ele>32.4</ele>
        <time>2017-10-15T14:01:33Z</time>
      </trkpt>
      <trkpt lat="59.833638184401" lon="17.614120788594">
        <ele>32.4</ele>
        <time>2017-10-15T14:01:34Z</time>
      </trkpt>
      <trkpt lat="59.833608680113" lon="17.614163703922">
        <ele>32.6</ele>
        <time>2017-10-15T14:01:35Z</time>
      </trkpt>
      <trkpt lat="59.833583869689" lon="17.614197063884">
        <ele>32.6</ele>
        <time>2017-10-15T14:01:36Z</time>
      </trkpt>
      <trkpt lat="59.833545145311" lon="17.614247187646">
        <ele>32.8</ele>
        <time>2017-10-15T14:01:37Z</time>
      </trkpt>
      <trkpt lat="59.833514551376" lon="17.614275434649">
        <ele>32.8</ele>
        <time>2017-10-15T14:01:38Z</time>
      </trkpt>
      <trkpt lat="59.833477671016" lon="17.614307369688">
        <ele>33</ele>
        <time>2017-10-15T14:01:39Z</time>
      </trkpt>
      <trkpt lat="59.833442634674" lon="17.614340059098">
        <ele>33.2</ele>
        <time>2017-10-15T14:01:40Z</time>
      </trkpt>
      <trkpt lat="59.833403658839" lon="17.614373335241">
        <ele>33.2</ele>
        <time>2017-10-15T14:01:41Z</time>
      </trkpt>
      <trkpt lat="59.833358061303" lon="17.614411221429">
        <ele>33.2</ele>
        <time>2017-10-15T14:01:42Z</time>
      </trkpt>
      <trkpt lat="59.833318331097" lon="17.614447934151">
        <ele>33.4</ele>
        <time>2017-10-15T14:01:43Z</time>
      </trkpt>
      <trkpt lat="59.83327868471" lon="17.614483389588">
        <ele>33.4</ele>
        <time>2017-10-15T14:01:44Z</time>
      </trkpt>
      <trkpt lat="59.833234093002" lon="17.614521611052">
        <ele>33.4</ele>
        <time>2017-10-15T14:01:45Z</time>
      </trkpt>
      <trkpt lat="59.833198134651" lon="17.614554384281">
        <ele>33.6</ele>
        <time>2017-10-15T14:01:46Z</time>
      </trkpt>
      <trkpt lat="59.833149184355" lon="17.614599562722">
        <ele>33.6</ele>
        <time>2017-10-15T14:01:47Z</time>
      </trkpt>
      <trkpt lat="59.833105095561" lon="17.61463661072">
        <ele>33.6</ele>
        <time>2017-10-15T14:01:48Z</time>
      </trkpt>
      <trkpt lat="59.833058659835" lon="17.614676424745">
        <ele>33.6</ele>
        <time>2017-10-15T14:01:49Z</time>
      </trkpt>
      <trkpt lat="59.833014571041" lon="17.614716322589">
        <ele>33.8</ele>
        <time>2017-10-15T14:01:50Z</time>
      </trkpt>
      <trkpt lat="59.832977187767" lon="17.614749011999">
        <ele>33.8</ele>
        <time>2017-10-15T14:01:51Z</time>
      </trkpt>
      <trkpt lat="59.832933601887" lon="17.614787401101">
        <ele>33.8</ele>
        <time>2017-10-15T14:01:52Z</time>
      </trkpt>
      <trkpt lat="59.83289227912" lon="17.614823946185">
        <ele>33.8</ele>
        <time>2017-10-15T14:01:53Z</time>
      </trkpt>
      <trkpt lat="59.832835617476" lon="17.614877757983">
        <ele>33.8</ele>
        <time>2017-10-15T14:01:54Z</time>
      </trkpt>
      <trkpt lat="59.832788008284" lon="17.614921008587">
        <ele>34</ele>
        <time>2017-10-15T14:01:55Z</time>
      </trkpt>
      <trkpt lat="59.832741153463" lon="17.614959900603">
        <ele>34.2</ele>
        <time>2017-10-15T14:01:56Z</time>
      </trkpt>
      <trkpt lat="59.832689520959" lon="17.615000301361">
        <ele>34.2</ele>
        <time>2017-10-15T14:01:57Z</time>
      </trkpt>
      <trkpt lat="59.832646437993" lon="17.615037936092">
        <ele>34.6</ele>
        <time>2017-10-15T14:01:58Z</time>
      </trkpt>
      <trkpt lat="59.83259723624" lon="17.615083868904">
        <ele>34.8</ele>
        <time>2017-10-15T14:01:59Z</time>
      </trkpt>
      <trkpt lat="59.832548369763" lon="17.61512779006">
        <ele>34.8</ele>
        <time>2017-10-15T14:02:00Z</time>
      </trkpt>
      <trkpt lat="59.832496988716" lon="17.615171962673">
        <ele>34.8</ele>
        <time>2017-10-15T14:02:01Z</time>
      </trkpt>
      <trkpt lat="59.832444434203" lon="17.615214626544">
        <ele>35</ele>
        <time>2017-10-15T14:02:02Z</time>
      </trkpt>
      <trkpt lat="59.832396489735" lon="17.61525687132">
        <ele>35</ele>
        <time>2017-10-15T14:02:03Z</time>
      </trkpt>
      <trkpt lat="59.832352903855" lon="17.615295763336">
        <ele>34.8</ele>
        <time>2017-10-15T14:02:04Z</time>
      </trkpt>
      <trkpt lat="59.832300349342" lon="17.615337505198">
        <ele>34.8</ele>
        <time>2017-10-15T14:02:05Z</time>
      </trkpt>
      <trkpt lat="59.832256595824" lon="17.615364243459">
        <ele>34.8</ele>
        <time>2017-10-15T14:02:06Z</time>
      </trkpt>
      <trkpt lat="59.832197838705" lon="17.615397519602">
        <ele>34.8</ele>
        <time>2017-10-15T14:02:07Z</time>
      </trkpt>
      <trkpt lat="59.832141596156" lon="17.615426520976">
        <ele>34.8</ele>
        <time>2017-10-15T14:02:08Z</time>
      </trkpt>
      <trkpt lat="59.832083090494" lon="17.615455857626">
        <ele>34.6</ele>
        <time>2017-10-15T14:02:09Z</time>
      </trkpt>
      <trkpt lat="59.83202894342" lon="17.615483685534">
        <ele>34.6</ele>
        <time>2017-10-15T14:02:10Z</time>
      </trkpt>
      <trkpt lat="59.831970186301" lon="17.61551251927">
        <ele>34.6</ele>
        <time>2017-10-15T14:02:11Z</time>
      </trkpt>
      <trkpt lat="59.831908411698" lon="17.61554101773">
        <ele>34.4</ele>
        <time>2017-10-15T14:02:12Z</time>
      </trkpt>
      <trkpt lat="59.831850241312" lon="17.61556700162">
        <ele>34.4</ele>
        <time>2017-10-15T14:02:13Z</time>
      </trkpt>
      <trkpt lat="59.831793914944" lon="17.61559130913">
        <ele>34</ele>
        <time>2017-10-15T14:02:14Z</time>
      </trkpt>
      <trkpt lat="59.831731553608" lon="17.615627770395">
        <ele>33.8</ele>
        <time>2017-10-15T14:02:15Z</time>
      </trkpt>
      <trkpt lat="59.83167941819" lon="17.615657023226">
        <ele>33.8</ele>
        <time>2017-10-15T14:02:16Z</time>
      </trkpt>
      <trkpt lat="59.831611692438" lon="17.615693316853">
        <ele>33.8</ele>
        <time>2017-10-15T14:02:17Z</time>
      </trkpt>
      <trkpt lat="59.831551426577" lon="17.615722569684">
        <ele>33.6</ele>
        <time>2017-10-15T14:02:18Z</time>
      </trkpt>
      <trkpt lat="59.831493172372" lon="17.615752157791">
        <ele>33.8</ele>
        <time>2017-10-15T14:02:19Z</time>
      </trkpt>
      <trkpt lat="59.831429469932" lon="17.615784009011">
        <ele>34</ele>
        <time>2017-10-15T14:02:20Z</time>
      </trkpt>
      <trkpt lat="59.8313768316" lon="17.61581426767">
        <ele>33.8</ele>
        <time>2017-10-15T14:02:21Z</time>
      </trkpt>
      <trkpt lat="59.831314554083" lon="17.615851483306">
        <ele>33.8</ele>
        <time>2017-10-15T14:02:22Z</time>
      </trkpt>
      <trkpt lat="59.83125613224" lon="17.615879143576">
        <ele>33.8</ele>
        <time>2017-10-15T14:02:23Z</time>
      </trkpt>
      <trkpt lat="59.831186478651" lon="17.615916359212">
        <ele>33.8</ele>
        <time>2017-10-15T14:02:24Z</time>
      </trkpt>
      <trkpt lat="59.831130571378" lon="17.615944270939">
        <ele>33.8</ele>
        <time>2017-10-15T14:02:25Z</time>
      </trkpt>
      <trkpt lat="59.831079190331" lon="17.61597184739">
        <ele>33.8</ele>
        <time>2017-10-15T14:02:26Z</time>
      </trkpt>
      <trkpt lat="59.831019343565" lon="17.616006129361">
        <ele>33.8</ele>
        <time>2017-10-15T14:02:27Z</time>
      </trkpt>
      <trkpt lat="59.83096863307" lon="17.616037477667">
        <ele>33.8</ele>
        <time>2017-10-15T14:02:28Z</time>
      </trkpt>
      <trkpt lat="59.830913480168" lon="17.616068825973">
        <ele>33.8</ele>
        <time>2017-10-15T14:02:29Z</time>
      </trkpt>
      <trkpt lat="59.830857321438" lon="17.616116351346">
        <ele>33.8</ele>
        <time>2017-10-15T14:02:30Z</time>
      </trkpt>
      <trkpt lat="59.830807365314" lon="17.616175862836">
        <ele>34</ele>
        <time>2017-10-15T14:02:31Z</time>
      </trkpt>
      <trkpt lat="59.830750536032" lon="17.616230931919">
        <ele>34.2</ele>
        <time>2017-10-15T14:02:32Z</time>
      </trkpt>
      <trkpt lat="59.83070125046" lon="17.616280971862">
        <ele>34.2</ele>
        <time>2017-10-15T14:02:33Z</time>
      </trkpt>
      <trkpt lat="59.830650623784" lon="17.616335957126">
        <ele>34.4</ele>
        <time>2017-10-15T14:02:34Z</time>
      </trkpt>
      <trkpt lat="59.830598907461" lon="17.616393289322">
        <ele>34.6</ele>
        <time>2017-10-15T14:02:35Z</time>
      </trkpt>
      <trkpt lat="59.830553812839" lon="17.616447352577">
        <ele>34.6</ele>
        <time>2017-10-15T14:02:36Z</time>
      </trkpt>
      <trkpt lat="59.830485751811" lon="17.616523711686">
        <ele>34.6</ele>
        <time>2017-10-15T14:02:37Z</time>
      </trkpt>
      <trkpt lat="59.830436801515" lon="17.616576852932">
        <ele>34.4</ele>
        <time>2017-10-15T14:02:38Z</time>
      </trkpt>
      <trkpt lat="59.83038273826" lon="17.616636699698">
        <ele>34.4</ele>
        <time>2017-10-15T14:02:39Z</time>
      </trkpt>
      <trkpt lat="59.83033160867" lon="17.616691517324">
        <ele>34.4</ele>
        <time>2017-10-15T14:02:40Z</time>
      </trkpt>
      <trkpt lat="59.830277210139" lon="17.616749603891">
        <ele>34.4</ele>
        <time>2017-10-15T14:02:41Z</time>
      </trkpt>
      <trkpt lat="59.830218620658" lon="17.616814731254">
        <ele>34.4</ele>
        <time>2017-10-15T14:02:42Z</time>
      </trkpt>
      <trkpt lat="59.830140417531" lon="17.616900478091">
        <ele>34.4</ele>
        <time>2017-10-15T14:02:44Z</time>
      </trkpt>
      <trkpt lat="59.830092053968" lon="17.616954541346">
        <ele>34.2</ele>
        <time>2017-10-15T14:02:45Z</time>
      </trkpt>
      <trkpt lat="59.830020556361" lon="17.617033498844">
        <ele>34.4</ele>
        <time>2017-10-15T14:02:46Z</time>
      </trkpt>
      <trkpt lat="59.8299686724" lon="17.617089741393">
        <ele>34.4</ele>
        <time>2017-10-15T14:02:47Z</time>
      </trkpt>
      <trkpt lat="59.829902623028" lon="17.617159981715">
        <ele>34.4</ele>
        <time>2017-10-15T14:02:48Z</time>
      </trkpt>
      <trkpt lat="59.829847721583" lon="17.617224187069">
        <ele>34.4</ele>
        <time>2017-10-15T14:02:49Z</time>
      </trkpt>
      <trkpt lat="59.8297926525" lon="17.617283866197">
        <ele>34.4</ele>
        <time>2017-10-15T14:02:50Z</time>
      </trkpt>
      <trkpt lat="59.82973817015" lon="17.617343712963">
        <ele>34.4</ele>
        <time>2017-10-15T14:02:51Z</time>
      </trkpt>
      <trkpt lat="59.829693913718" lon="17.617393669087">
        <ele>34.2</ele>
        <time>2017-10-15T14:02:52Z</time>
      </trkpt>
      <trkpt lat="59.829635156599" lon="17.61745544369">
        <ele>34.2</ele>
        <time>2017-10-15T14:02:53Z</time>
      </trkpt>
      <trkpt lat="59.829576650937" lon="17.617525935469">
        <ele>34</ele>
        <time>2017-10-15T14:02:54Z</time>
      </trkpt>
      <trkpt lat="59.829524934614" lon="17.617584441131">
        <ele>34.2</ele>
        <time>2017-10-15T14:02:55Z</time>
      </trkpt>
      <trkpt lat="59.829471038997" lon="17.61764403644">
        <ele>34.2</ele>
        <time>2017-10-15T14:02:56Z</time>
      </trkpt>
      <trkpt lat="59.829419825588" lon="17.617698854066">
        <ele>34.4</ele>
        <time>2017-10-15T14:02:57Z</time>
      </trkpt>
      <trkpt lat="59.82936601379" lon="17.617756605357">
        <ele>34.4</ele>
        <time>2017-10-15T14:02:58Z</time>
      </trkpt>
      <trkpt lat="59.82931907515" lon="17.617814524286">
        <ele>34.6</ele>
        <time>2017-10-15T14:02:59Z</time>
      </trkpt>
      <trkpt lat="59.829264006067" lon="17.617875712156">
        <ele>34.6</ele>
        <time>2017-10-15T14:03:00Z</time>
      </trkpt>
      <trkpt lat="59.829209942812" lon="17.617936480931">
        <ele>34.4</ele>
        <time>2017-10-15T14:03:01Z</time>
      </trkpt>
      <trkpt lat="59.829161663068" lon="17.617997920258">
        <ele>34.6</ele>
        <time>2017-10-15T14:03:02Z</time>
      </trkpt>
      <trkpt lat="59.829109611469" lon="17.618059108128">
        <ele>34.4</ele>
        <time>2017-10-15T14:03:03Z</time>
      </trkpt>
      <trkpt lat="59.82905672168" lon="17.618122307654">
        <ele>34.4</ele>
        <time>2017-10-15T14:03:04Z</time>
      </trkpt>
      <trkpt lat="59.829009028669" lon="17.61815281777">
        <ele>34.4</ele>
        <time>2017-10-15T14:03:05Z</time>
      </trkpt>
      <trkpt lat="59.828910792801" lon="17.618252059466">
        <ele>34.2</ele>
        <time>2017-10-15T14:03:07Z</time>
      </trkpt>
      <trkpt lat="59.828846922723" lon="17.618299081925">
        <ele>34.4</ele>
        <time>2017-10-15T14:03:08Z</time>
      </trkpt>
      <trkpt lat="59.828799313531" lon="17.618335962285">
        <ele>34.4</ele>
        <time>2017-10-15T14:03:09Z</time>
      </trkpt>
      <trkpt lat="59.828744998819" lon="17.618381811278">
        <ele>34.6</ele>
        <time>2017-10-15T14:03:10Z</time>
      </trkpt>
      <trkpt lat="59.828696802894" lon="17.618429001375">
        <ele>34.6</ele>
        <time>2017-10-15T14:03:11Z</time>
      </trkpt>
      <trkpt lat="59.828635195929" lon="17.618486836485">
        <ele>34.6</ele>
        <time>2017-10-15T14:03:12Z</time>
      </trkpt>
      <trkpt lat="59.828576941724" lon="17.618533775125">
        <ele>34.6</ele>
        <time>2017-10-15T14:03:13Z</time>
      </trkpt>
      <trkpt lat="59.828519609528" lon="17.618579205023">
        <ele>34.6</ele>
        <time>2017-10-15T14:03:14Z</time>
      </trkpt>
      <trkpt lat="59.828460265676" lon="17.618613570813">
        <ele>34.6</ele>
        <time>2017-10-15T14:03:15Z</time>
      </trkpt>
      <trkpt lat="59.82839455158" lon="17.618648607155">
        <ele>34.6</ele>
        <time>2017-10-15T14:03:16Z</time>
      </trkpt>
      <trkpt lat="59.828347948216" lon="17.618669981">
        <ele>34.4</ele>
        <time>2017-10-15T14:03:17Z</time>
      </trkpt>
      <trkpt lat="59.828270667098" lon="17.618702921867">
        <ele>34.4</ele>
        <time>2017-10-15T14:03:18Z</time>
      </trkpt>
      <trkpt lat="59.828210652694" lon="17.618737539114">
        <ele>34.4</ele>
        <time>2017-10-15T14:03:19Z</time>
      </trkpt>
      <trkpt lat="59.82814644734" lon="17.618772659275">
        <ele>34.2</ele>
        <time>2017-10-15T14:03:20Z</time>
      </trkpt>
      <trkpt lat="59.828084924194" lon="17.618790177446">
        <ele>34</ele>
        <time>2017-10-15T14:03:21Z</time>
      </trkpt>
      <trkpt lat="59.828033626966" lon="17.618805683961">
        <ele>33.8</ele>
        <time>2017-10-15T14:03:22Z</time>
      </trkpt>
      <trkpt lat="59.827957351676" lon="17.618833176593">
        <ele>34</ele>
        <time>2017-10-15T14:03:23Z</time>
      </trkpt>
      <trkpt lat="59.827896415263" lon="17.618849856574">
        <ele>34</ele>
        <time>2017-10-15T14:03:24Z</time>
      </trkpt>
      <trkpt lat="59.827836065583" lon="17.61886779384">
        <ele>33.8</ele>
        <time>2017-10-15T14:03:25Z</time>
      </trkpt>
      <trkpt lat="59.827767501641" lon="17.618888413314">
        <ele>33.8</ele>
        <time>2017-10-15T14:03:26Z</time>
      </trkpt>
      <trkpt lat="59.827708828341" lon="17.618904338924">
        <ele>33.8</ele>
        <time>2017-10-15T14:03:27Z</time>
      </trkpt>
      <trkpt lat="59.827640096761" lon="17.6189130561">
        <ele>33.6</ele>
        <time>2017-10-15T14:03:28Z</time>
      </trkpt>
      <trkpt lat="59.827589637723" lon="17.6189130561">
        <ele>33.4</ele>
        <time>2017-10-15T14:03:29Z</time>
      </trkpt>
      <trkpt lat="59.827517134288" lon="17.618913726652">
        <ele>33.6</ele>
        <time>2017-10-15T14:03:30Z</time>
      </trkpt>
      <trkpt lat="59.827453683305" lon="17.618912720824">
        <ele>33.6</ele>
        <time>2017-10-15T14:03:31Z</time>
      </trkpt>
      <trkpt lat="59.827395345281" lon="17.618911798815">
        <ele>33.4</ele>
        <time>2017-10-15T14:03:32Z</time>
      </trkpt>
      <trkpt lat="59.827332732488" lon="17.618908194598">
        <ele>33.4</ele>
        <time>2017-10-15T14:03:33Z</time>
      </trkpt>
      <trkpt lat="59.827263246537" lon="17.618896711395">
        <ele>33.4</ele>
        <time>2017-10-15T14:03:34Z</time>
      </trkpt>
      <trkpt lat="59.827195017871" lon="17.618882797441">
        <ele>33.2</ele>
        <time>2017-10-15T14:03:35Z</time>
      </trkpt>
      <trkpt lat="59.827137769494" lon="17.618873996446">
        <ele>33</ele>
        <time>2017-10-15T14:03:36Z</time>
      </trkpt>
      <trkpt lat="59.82707859328" lon="17.618860920682">
        <ele>32.8</ele>
        <time>2017-10-15T14:03:37Z</time>
      </trkpt>
      <trkpt lat="59.827000390153" lon="17.618838792466">
        <ele>32.8</ele>
        <time>2017-10-15T14:03:38Z</time>
      </trkpt>
      <trkpt lat="59.82694196831" lon="17.618824040322">
        <ele>32.6</ele>
        <time>2017-10-15T14:03:39Z</time>
      </trkpt>
      <trkpt lat="59.826877930594" lon="17.6188040914">
        <ele>32.4</ele>
        <time>2017-10-15T14:03:40Z</time>
      </trkpt>
      <trkpt lat="59.826819173475" lon="17.618785315944">
        <ele>32.2</ele>
        <time>2017-10-15T14:03:41Z</time>
      </trkpt>
      <trkpt lat="59.826753543198" lon="17.618757823312">
        <ele>32.2</ele>
        <time>2017-10-15T14:03:42Z</time>
      </trkpt>
      <trkpt lat="59.826686990912" lon="17.618732929069">
        <ele>32.2</ele>
        <time>2017-10-15T14:03:43Z</time>
      </trkpt>
      <trkpt lat="59.826632005648" lon="17.61870769955">
        <ele>32.4</ele>
        <time>2017-10-15T14:03:44Z</time>
      </trkpt>
      <trkpt lat="59.826572158882" lon="17.61867752471">
        <ele>32.4</ele>
        <time>2017-10-15T14:03:45Z</time>
      </trkpt>
      <trkpt lat="59.82650527132" lon="17.61864651168">
        <ele>32.2</ele>
        <time>2017-10-15T14:03:46Z</time>
      </trkpt>
      <trkpt lat="59.826452130074" lon="17.618613067899">
        <ele>32.2</ele>
        <time>2017-10-15T14:03:47Z</time>
      </trkpt>
      <trkpt lat="59.826400916665" lon="17.618568727648">
        <ele>32.2</ele>
        <time>2017-10-15T14:03:48Z</time>
      </trkpt>
      <trkpt lat="59.826337717139" lon="17.61851994499">
        <ele>32.2</ele>
        <time>2017-10-15T14:03:49Z</time>
      </trkpt>
      <trkpt lat="59.826266303351" lon="17.618478538404">
        <ele>32</ele>
        <time>2017-10-15T14:03:50Z</time>
      </trkpt>
      <trkpt lat="59.826202852368" lon="17.618432689411">
        <ele>32</ele>
        <time>2017-10-15T14:03:51Z</time>
      </trkpt>
      <trkpt lat="59.826155578452" lon="17.618399161811">
        <ele>32</ele>
        <time>2017-10-15T14:03:52Z</time>
      </trkpt>
      <trkpt lat="59.826071591814" lon="17.618349876239">
        <ele>32</ele>
        <time>2017-10-15T14:03:53Z</time>
      </trkpt>
      <trkpt lat="59.826010403944" lon="17.618306793273">
        <ele>31.8</ele>
        <time>2017-10-15T14:03:54Z</time>
      </trkpt>
      <trkpt lat="59.825939576889" lon="17.618257507701">
        <ele>31.8</ele>
        <time>2017-10-15T14:03:55Z</time>
      </trkpt>
      <trkpt lat="59.825871767318" lon="17.618194140537">
        <ele>31.6</ele>
        <time>2017-10-15T14:03:56Z</time>
      </trkpt>
      <trkpt lat="59.825814518941" lon="17.618148207725">
        <ele>31.4</ele>
        <time>2017-10-15T14:03:57Z</time>
      </trkpt>
      <trkpt lat="59.825735477624" lon="17.618081739258">
        <ele>31</ele>
        <time>2017-10-15T14:03:58Z</time>
      </trkpt>
      <trkpt lat="59.825665740216" lon="17.618015186972">
        <ele>30.8</ele>
        <time>2017-10-15T14:03:59Z</time>
      </trkpt>
      <trkpt lat="59.825599858482" lon="17.617958692966">
        <ele>30.4</ele>
        <time>2017-10-15T14:04:00Z</time>
      </trkpt>
      <trkpt lat="59.8255262654" lon="17.617877137079">
        <ele>30.2</ele>
        <time>2017-10-15T14:04:01Z</time>
      </trkpt>
      <trkpt lat="59.825472872697" lon="17.617804885101">
        <ele>30</ele>
        <time>2017-10-15T14:04:02Z</time>
      </trkpt>
      <trkpt lat="59.825409840809" lon="17.617732716942">
        <ele>29.6</ele>
        <time>2017-10-15T14:04:03Z</time>
      </trkpt>
      <trkpt lat="59.825345383998" lon="17.617676139117">
        <ele>29.6</ele>
        <time>2017-10-15T14:04:04Z</time>
      </trkpt>
      <trkpt lat="59.825283944671" lon="17.6176390073">
        <ele>29.4</ele>
        <time>2017-10-15T14:04:05Z</time>
      </trkpt>
      <trkpt lat="59.825234072366" lon="17.617604138596">
        <ele>29.4</ele>
        <time>2017-10-15T14:04:06Z</time>
      </trkpt>
      <trkpt lat="59.82516919646" lon="17.61754429183">
        <ele>29.4</ele>
        <time>2017-10-15T14:04:07Z</time>
      </trkpt>
      <trkpt lat="59.825091412428" lon="17.61746801654">
        <ele>29.4</ele>
        <time>2017-10-15T14:04:08Z</time>
      </trkpt>
      <trkpt lat="59.825027793807" lon="17.617417054588">
        <ele>29.4</ele>
        <time>2017-10-15T14:04:09Z</time>
      </trkpt>
      <trkpt lat="59.824968533774" lon="17.617366176455">
        <ele>29.2</ele>
        <time>2017-10-15T14:04:10Z</time>
      </trkpt>
      <trkpt lat="59.824910447207" lon="17.617313705761">
        <ele>29.2</ele>
        <time>2017-10-15T14:04:11Z</time>
      </trkpt>
      <trkpt lat="59.824860323445" lon="17.617272131537">
        <ele>29</ele>
        <time>2017-10-15T14:04:12Z</time>
      </trkpt>
      <trkpt lat="59.824799722308" lon="17.617217481549">
        <ele>29</ele>
        <time>2017-10-15T14:04:13Z</time>
      </trkpt>
      <trkpt lat="59.824748257442" lon="17.617170542909">
        <ele>29.2</ele>
        <time>2017-10-15T14:04:14Z</time>
      </trkpt>
      <trkpt lat="59.82469729549" lon="17.617127124667">
        <ele>29.2</ele>
        <time>2017-10-15T14:04:15Z</time>
      </trkpt>
      <trkpt lat="59.82464448952" lon="17.617076162715">
        <ele>29.2</ele>
        <time>2017-10-15T14:04:16Z</time>
      </trkpt>
      <trkpt lat="59.824596880328" lon="17.617030062265">
        <ele>29.2</ele>
        <time>2017-10-15T14:04:17Z</time>
      </trkpt>
      <trkpt lat="59.824543152349" lon="17.616983626539">
        <ele>29.2</ele>
        <time>2017-10-15T14:04:18Z</time>
      </trkpt>
      <trkpt lat="59.824489759646" lon="17.616931239664">
        <ele>29.4</ele>
        <time>2017-10-15T14:04:19Z</time>
      </trkpt>
      <trkpt lat="59.824438462418" lon="17.616894359304">
        <ele>29.2</ele>
        <time>2017-10-15T14:04:20Z</time>
      </trkpt>
      <trkpt lat="59.824388506294" lon="17.616855551107">
        <ele>29.4</ele>
        <time>2017-10-15T14:04:21Z</time>
      </trkpt>
      <trkpt lat="59.824345674785" lon="17.616820766222">
        <ele>29.4</ele>
        <time>2017-10-15T14:04:22Z</time>
      </trkpt>
      <trkpt lat="59.824291862987" lon="17.616775755419">
        <ele>29.6</ele>
        <time>2017-10-15T14:04:23Z</time>
      </trkpt>
      <trkpt lat="59.82424634927" lon="17.616740635258">
        <ele>30</ele>
        <time>2017-10-15T14:04:24Z</time>
      </trkpt>
      <trkpt lat="59.824196644603" lon="17.616697971387">
        <ele>30.2</ele>
        <time>2017-10-15T14:04:25Z</time>
      </trkpt>
      <trkpt lat="59.82415079561" lon="17.61665664862">
        <ele>30.4</ele>
        <time>2017-10-15T14:04:26Z</time>
      </trkpt>
      <trkpt lat="59.824106874454" lon="17.616614571482">
        <ele>30.4</ele>
        <time>2017-10-15T14:04:27Z</time>
      </trkpt>
      <trkpt lat="59.82405859471" lon="17.616564531539">
        <ele>30.4</ele>
        <time>2017-10-15T14:04:28Z</time>
      </trkpt>
      <trkpt lat="59.824009309138" lon="17.616529579016">
        <ele>30.4</ele>
        <time>2017-10-15T14:04:29Z</time>
      </trkpt>
      <trkpt lat="59.823992545338" lon="17.616518095813">
        <ele>30.4</ele>
        <time>2017-10-15T14:04:30Z</time>
      </trkpt>
      <trkpt lat="59.823922137378" lon="17.616454393373">
        <ele>30.4</ele>
        <time>2017-10-15T14:04:31Z</time>
      </trkpt>
      <trkpt lat="59.823865391915" lon="17.616406448905">
        <ele>30.4</ele>
        <time>2017-10-15T14:04:32Z</time>
      </trkpt>
      <trkpt lat="59.823813424135" lon="17.616358001523">
        <ele>30.4</ele>
        <time>2017-10-15T14:04:33Z</time>
      </trkpt>
      <trkpt lat="59.82376271364" lon="17.616311901073">
        <ele>30.6</ele>
        <time>2017-10-15T14:04:34Z</time>
      </trkpt>
      <trkpt lat="59.82371242224" lon="17.61626940484">
        <ele>30.4</ele>
        <time>2017-10-15T14:04:35Z</time>
      </trkpt>
      <trkpt lat="59.823665148324" lon="17.616227243883">
        <ele>30.4</ele>
        <time>2017-10-15T14:04:36Z</time>
      </trkpt>
      <trkpt lat="59.823615946571" lon="17.616190195885">
        <ele>30.4</ele>
        <time>2017-10-15T14:04:37Z</time>
      </trkpt>
      <trkpt lat="59.823554507244" lon="17.6161470291">
        <ele>30.4</ele>
        <time>2017-10-15T14:04:38Z</time>
      </trkpt>
      <trkpt lat="59.823499941075" lon="17.61610344322">
        <ele>30.2</ele>
        <time>2017-10-15T14:04:39Z</time>
      </trkpt>
      <trkpt lat="59.823444955811" lon="17.6160632101">
        <ele>30.2</ele>
        <time>2017-10-15T14:04:40Z</time>
      </trkpt>
      <trkpt lat="59.823389467633" lon="17.616027000292">
        <ele>30.2</ele>
        <time>2017-10-15T14:04:41Z</time>
      </trkpt>
      <trkpt lat="59.823341271708" lon="17.615991712493">
        <ele>30.2</ele>
        <time>2017-10-15T14:04:42Z</time>
      </trkpt>
      <trkpt lat="59.823277653087" lon="17.615950305907">
        <ele>30.4</ele>
        <time>2017-10-15T14:04:43Z</time>
      </trkpt>
      <trkpt lat="59.823223589832" lon="17.615921136895">
        <ele>30.4</ele>
        <time>2017-10-15T14:04:44Z</time>
      </trkpt>
      <trkpt lat="59.823166173817" lon="17.615888447485">
        <ele>30.4</ele>
        <time>2017-10-15T14:04:45Z</time>
      </trkpt>
      <trkpt lat="59.823104063938" lon="17.615841425026">
        <ele>30.4</ele>
        <time>2017-10-15T14:04:46Z</time>
      </trkpt>
      <trkpt lat="59.823051174149" lon="17.615788451418">
        <ele>30.2</ele>
        <time>2017-10-15T14:04:47Z</time>
      </trkpt>
      <trkpt lat="59.822992668487" lon="17.615744194986">
        <ele>30.2</ele>
        <time>2017-10-15T14:04:48Z</time>
      </trkpt>
      <trkpt lat="59.822923853088" lon="17.615719971295">
        <ele>30.2</ele>
        <time>2017-10-15T14:04:49Z</time>
      </trkpt>
      <trkpt lat="59.822861491752" lon="17.615703207495">
        <ele>30</ele>
        <time>2017-10-15T14:04:50Z</time>
      </trkpt>
      <trkpt lat="59.822807009402" lon="17.615674960492">
        <ele>29.8</ele>
        <time>2017-10-15T14:04:51Z</time>
      </trkpt>
      <trkpt lat="59.822759148753" lon="17.615637325761">
        <ele>29.8</ele>
        <time>2017-10-15T14:04:52Z</time>
      </trkpt>
      <trkpt lat="59.822683041101" lon="17.61558460361">
        <ele>29.6</ele>
        <time>2017-10-15T14:04:53Z</time>
      </trkpt>
      <trkpt lat="59.822620679765" lon="17.615556608064">
        <ele>29.4</ele>
        <time>2017-10-15T14:04:54Z</time>
      </trkpt>
      <trkpt lat="59.822549098339" lon="17.615543113205">
        <ele>29.2</ele>
        <time>2017-10-15T14:04:55Z</time>
      </trkpt>
      <trkpt lat="59.822487491374" lon="17.615562978308">
        <ele>28.8</ele>
        <time>2017-10-15T14:04:56Z</time>
      </trkpt>
      <trkpt lat="59.822430494454" lon="17.615591812044">
        <ele>28.4</ele>
        <time>2017-10-15T14:04:57Z</time>
      </trkpt>
      <trkpt lat="59.82236125996" lon="17.615619388495">
        <ele>28</ele>
        <time>2017-10-15T14:04:58Z</time>
      </trkpt>
      <trkpt lat="59.822296467873" lon="17.615644785652">
        <ele>27.8</ele>
        <time>2017-10-15T14:04:59Z</time>
      </trkpt>
      <trkpt lat="59.822243242808" lon="17.615643612186">
        <ele>27.8</ele>
        <time>2017-10-15T14:05:00Z</time>
      </trkpt>
      <trkpt lat="59.822194795426" lon="17.615612850613">
        <ele>27.6</ele>
        <time>2017-10-15T14:05:01Z</time>
      </trkpt>
      <trkpt lat="59.82215506522" lon="17.61558711818">
        <ele>27.6</ele>
        <time>2017-10-15T14:05:02Z</time>
      </trkpt>
      <trkpt lat="59.822105025277" lon="17.615569935285">
        <ele>27.6</ele>
        <time>2017-10-15T14:05:03Z</time>
      </trkpt>
      <trkpt lat="59.822051884031" lon="17.615582843411">
        <ele>27.6</ele>
        <time>2017-10-15T14:05:04Z</time>
      </trkpt>
      <trkpt lat="59.822000754441" lon="17.615608827301">
        <ele>27.6</ele>
        <time>2017-10-15T14:05:05Z</time>
      </trkpt>
      <trkpt lat="59.821953648163" lon="17.615647132584">
        <ele>27.4</ele>
        <time>2017-10-15T14:05:06Z</time>
      </trkpt>
      <trkpt lat="59.821903356763" lon="17.615682252745">
        <ele>27.2</ele>
        <time>2017-10-15T14:05:07Z</time>
      </trkpt>
      <trkpt lat="59.821840157237" lon="17.615715528888">
        <ele>27.2</ele>
        <time>2017-10-15T14:05:08Z</time>
      </trkpt>
      <trkpt lat="59.821781148661" lon="17.615735813086">
        <ele>27</ele>
        <time>2017-10-15T14:05:09Z</time>
      </trkpt>
      <trkpt lat="59.821720798981" lon="17.615756684017">
        <ele>27</ele>
        <time>2017-10-15T14:05:10Z</time>
      </trkpt>
      <trkpt lat="59.821659946387" lon="17.615780488613">
        <ele>26.8</ele>
        <time>2017-10-15T14:05:11Z</time>
      </trkpt>
      <trkpt lat="59.821610409358" lon="17.615804879942">
        <ele>26.8</ele>
        <time>2017-10-15T14:05:12Z</time>
      </trkpt>
      <trkpt lat="59.821543940891" lon="17.615842514673">
        <ele>26.8</ele>
        <time>2017-10-15T14:05:13Z</time>
      </trkpt>
      <trkpt lat="59.821489458541" lon="17.61588383744">
        <ele>26.8</ele>
        <time>2017-10-15T14:05:14Z</time>
      </trkpt>
      <trkpt lat="59.821438831865" lon="17.615923483827">
        <ele>26.8</ele>
        <time>2017-10-15T14:05:15Z</time>
      </trkpt>
      <trkpt lat="59.82138728318" lon="17.615946953147">
        <ele>26.8</ele>
        <time>2017-10-15T14:05:16Z</time>
      </trkpt>
      <trkpt lat="59.821343781119" lon="17.615930105528">
        <ele>26.6</ele>
        <time>2017-10-15T14:05:17Z</time>
      </trkpt>
      <trkpt lat="59.821304470008" lon="17.615899511593">
        <ele>26.4</ele>
        <time>2017-10-15T14:05:18Z</time>
      </trkpt>
      <trkpt lat="59.821260045938" lon="17.61591401228">
        <ele>26.4</ele>
        <time>2017-10-15T14:05:19Z</time>
      </trkpt>
      <trkpt lat="59.821223249397" lon="17.615967740259">
        <ele>26.2</ele>
        <time>2017-10-15T14:05:20Z</time>
      </trkpt>
      <trkpt lat="59.821191481996" lon="17.616036639477">
        <ele>26.2</ele>
        <time>2017-10-15T14:05:21Z</time>
      </trkpt>
      <trkpt lat="59.821159714595" lon="17.616091624741">
        <ele>26.2</ele>
        <time>2017-10-15T14:05:22Z</time>
      </trkpt>
      <trkpt lat="59.821106824806" lon="17.616153231706">
        <ele>26.4</ele>
        <time>2017-10-15T14:05:23Z</time>
      </trkpt>
      <trkpt lat="59.821059131795" lon="17.61618474765">
        <ele>26.4</ele>
        <time>2017-10-15T14:05:24Z</time>
      </trkpt>
      <trkpt lat="59.821005319997" lon="17.616228501168">
        <ele>26.4</ele>
        <time>2017-10-15T14:05:25Z</time>
      </trkpt>
      <trkpt lat="59.820949245086" lon="17.616262866958">
        <ele>26.6</ele>
        <time>2017-10-15T14:05:26Z</time>
      </trkpt>
      <trkpt lat="59.820900378609" lon="17.616294466721">
        <ele>26.6</ele>
        <time>2017-10-15T14:05:27Z</time>
      </trkpt>
      <trkpt lat="59.820844387517" lon="17.61633813642">
        <ele>26.6</ele>
        <time>2017-10-15T14:05:28Z</time>
      </trkpt>
      <trkpt lat="59.820789066977" lon="17.616374681504">
        <ele>26.6</ele>
        <time>2017-10-15T14:05:29Z</time>
      </trkpt>
      <trkpt lat="59.820739781405" lon="17.61640435343">
        <ele>26.4</ele>
        <time>2017-10-15T14:05:30Z</time>
      </trkpt>
      <trkpt lat="59.820681946295" lon="17.61643620465">
        <ele>26.4</ele>
        <time>2017-10-15T14:05:31Z</time>
      </trkpt>
      <trkpt lat="59.820632828361" lon="17.616469229336">
        <ele>26.4</ele>
        <time>2017-10-15T14:05:32Z</time>
      </trkpt>
      <trkpt lat="59.820576082898" lon="17.616511222655">
        <ele>26.4</ele>
        <time>2017-10-15T14:05:33Z</time>
      </trkpt>
      <trkpt lat="59.820526210593" lon="17.616551707232">
        <ele>26.2</ele>
        <time>2017-10-15T14:05:34Z</time>
      </trkpt>
      <trkpt lat="59.820468878397" lon="17.616588168497">
        <ele>26.2</ele>
        <time>2017-10-15T14:05:35Z</time>
      </trkpt>
      <trkpt lat="59.820415904789" lon="17.616615158215">
        <ele>26.2</ele>
        <time>2017-10-15T14:05:36Z</time>
      </trkpt>
      <trkpt lat="59.820359997516" lon="17.616632005834">
        <ele>26.4</ele>
        <time>2017-10-15T14:05:37Z</time>
      </trkpt>
      <trkpt lat="59.820295205429" lon="17.61664072301">
        <ele>26.4</ele>
        <time>2017-10-15T14:05:38Z</time>
      </trkpt>
      <trkpt lat="59.82023980107" lon="17.616653714955">
        <ele>26.4</ele>
        <time>2017-10-15T14:05:39Z</time>
      </trkpt>
      <trkpt lat="59.820182217417" lon="17.616666539262">
        <ele>26.4</ele>
        <time>2017-10-15T14:05:40Z</time>
      </trkpt>
      <trkpt lat="59.820121364823" lon="17.616667712728">
        <ele>26.4</ele>
        <time>2017-10-15T14:05:41Z</time>
      </trkpt>
      <trkpt lat="59.820067301568" lon="17.616673663877">
        <ele>26.2</ele>
        <time>2017-10-15T14:05:42Z</time>
      </trkpt>
      <trkpt lat="59.819977699057" lon="17.61671113097">
        <ele>25.8</ele>
        <time>2017-10-15T14:05:43Z</time>
      </trkpt>
      <trkpt lat="59.819911984961" lon="17.616741976362">
        <ele>25.4</ele>
        <time>2017-10-15T14:05:44Z</time>
      </trkpt>
      <trkpt lat="59.81984501358" lon="17.616773659944">
        <ele>25</ele>
        <time>2017-10-15T14:05:45Z</time>
      </trkpt>
      <trkpt lat="59.819605794154" lon="17.617013549922">
        <ele>24.2</ele>
        <time>2017-10-15T14:05:49Z</time>
      </trkpt>
      <trkpt lat="59.81956086717" lon="17.617080018389">
        <ele>24.2</ele>
        <time>2017-10-15T14:05:50Z</time>
      </trkpt>
      <trkpt lat="59.819528093941" lon="17.617150510168">
        <ele>24.2</ele>
        <time>2017-10-15T14:05:51Z</time>
      </trkpt>
      <trkpt lat="59.819506301001" lon="17.617235586453">
        <ele>24.2</ele>
        <time>2017-10-15T14:05:52Z</time>
      </trkpt>
      <trkpt lat="59.81948710645" lon="17.61735318451">
        <ele>24.4</ele>
        <time>2017-10-15T14:05:53Z</time>
      </trkpt>
      <trkpt lat="59.819475874704" lon="17.617449492541">
        <ele>24.6</ele>
        <time>2017-10-15T14:05:54Z</time>
      </trkpt>
      <trkpt lat="59.819460619646" lon="17.617560301259">
        <ele>24.8</ele>
        <time>2017-10-15T14:05:55Z</time>
      </trkpt>
      <trkpt lat="59.819436228317" lon="17.61766834395">
        <ele>25.2</ele>
        <time>2017-10-15T14:05:56Z</time>
      </trkpt>
      <trkpt lat="59.819423823105" lon="17.617769681121">
        <ele>25.4</ele>
        <time>2017-10-15T14:05:57Z</time>
      </trkpt>
      <trkpt lat="59.819408903323" lon="17.617880741296">
        <ele>25.8</ele>
        <time>2017-10-15T14:05:58Z</time>
      </trkpt>
      <trkpt lat="59.819392558618" lon="17.617989454539">
        <ele>25.8</ele>
        <time>2017-10-15T14:05:59Z</time>
      </trkpt>
      <trkpt lat="59.819379315216" lon="17.618088863873">
        <ele>25.8</ele>
        <time>2017-10-15T14:06:00Z</time>
      </trkpt>
      <trkpt lat="59.819354337154" lon="17.618199840229">
        <ele>25.8</ele>
        <time>2017-10-15T14:06:01Z</time>
      </trkpt>
      <trkpt lat="59.819320474278" lon="17.61830285378">
        <ele>25.8</ele>
        <time>2017-10-15T14:06:02Z</time>
      </trkpt>
      <trkpt lat="59.819282168995" lon="17.618388684436">
        <ele>26</ele>
        <time>2017-10-15T14:06:03Z</time>
      </trkpt>
      <trkpt lat="59.819242774065" lon="17.618439059655">
        <ele>26</ele>
        <time>2017-10-15T14:06:04Z</time>
      </trkpt>
      <trkpt lat="59.819206396619" lon="17.618469234495">
        <ele>26</ele>
        <time>2017-10-15T14:06:05Z</time>
      </trkpt>
      <trkpt lat="59.819178736349" lon="17.618522627198">
        <ele>26.2</ele>
        <time>2017-10-15T14:06:06Z</time>
      </trkpt>
      <trkpt lat="59.819159960893" lon="17.618569062924">
        <ele>26.2</ele>
        <time>2017-10-15T14:06:07Z</time>
      </trkpt>
      <trkpt lat="59.819131881528" lon="17.618656989055">
        <ele>26.4</ele>
        <time>2017-10-15T14:06:08Z</time>
      </trkpt>
      <trkpt lat="59.819103718344" lon="17.618735108363">
        <ele>26.8</ele>
        <time>2017-10-15T14:06:09Z</time>
      </trkpt>
      <trkpt lat="59.819075303703" lon="17.618837032267">
        <ele>26.8</ele>
        <time>2017-10-15T14:06:10Z</time>
      </trkpt>
      <trkpt lat="59.819046134691" lon="17.618934429945">
        <ele>27</ele>
        <time>2017-10-15T14:06:11Z</time>
      </trkpt>
      <trkpt lat="59.819021156629" lon="17.619013387443">
        <ele>27</ele>
        <time>2017-10-15T14:06:12Z</time>
      </trkpt>
      <trkpt lat="59.81898419245" lon="17.619123274152">
        <ele>27</ele>
        <time>2017-10-15T14:06:13Z</time>
      </trkpt>
      <trkpt lat="59.818946641538" lon="17.619212876663">
        <ele>27</ele>
        <time>2017-10-15T14:06:14Z</time>
      </trkpt>
      <trkpt lat="59.818912024291" lon="17.619297282396">
        <ele>26.8</ele>
        <time>2017-10-15T14:06:15Z</time>
      </trkpt>
      <trkpt lat="59.818878999605" lon="17.619391746409">
        <ele>26.6</ele>
        <time>2017-10-15T14:06:16Z</time>
      </trkpt>
      <trkpt lat="59.818853267172" lon="17.619486797155">
        <ele>26.4</ele>
        <time>2017-10-15T14:06:17Z</time>
      </trkpt>
      <trkpt lat="59.818821751228" lon="17.619583691919">
        <ele>26.4</ele>
        <time>2017-10-15T14:06:18Z</time>
      </trkpt>
      <trkpt lat="59.818784870868" lon="17.619677904475">
        <ele>26.4</ele>
        <time>2017-10-15T14:06:19Z</time>
      </trkpt>
      <trkpt lat="59.818747906689" lon="17.619768093719">
        <ele>26.6</ele>
        <time>2017-10-15T14:06:20Z</time>
      </trkpt>
      <trkpt lat="59.818708008845" lon="17.619845207199">
        <ele>26.6</ele>
        <time>2017-10-15T14:06:21Z</time>
      </trkpt>
      <trkpt lat="59.818674229788" lon="17.619902790852">
        <ele>26.8</ele>
        <time>2017-10-15T14:06:22Z</time>
      </trkpt>
      <trkpt lat="59.818631063003" lon="17.619967163844">
        <ele>26.8</ele>
        <time>2017-10-15T14:06:23Z</time>
      </trkpt>
      <trkpt lat="59.818588482951" lon="17.620024412221">
        <ele>27</ele>
        <time>2017-10-15T14:06:24Z</time>
      </trkpt>
      <trkpt lat="59.818542550139" lon="17.620085180996">
        <ele>27</ele>
        <time>2017-10-15T14:06:25Z</time>
      </trkpt>
      <trkpt lat="59.818496198232" lon="17.620144441029">
        <ele>27.2</ele>
        <time>2017-10-15T14:06:26Z</time>
      </trkpt>
      <trkpt lat="59.818451606524" lon="17.62019716318">
        <ele>27.2</ele>
        <time>2017-10-15T14:06:27Z</time>
      </trkpt>
      <trkpt lat="59.818394525785" lon="17.620270253348">
        <ele>27.2</ele>
        <time>2017-10-15T14:06:28Z</time>
      </trkpt>
      <trkpt lat="59.818340211073" lon="17.620330267752">
        <ele>27.2</ele>
        <time>2017-10-15T14:06:29Z</time>
      </trkpt>
      <trkpt lat="59.818305342369" lon="17.620376787297">
        <ele>27.2</ele>
        <time>2017-10-15T14:06:30Z</time>
      </trkpt>
      <trkpt lat="59.818246333793" lon="17.620430012362">
        <ele>27</ele>
        <time>2017-10-15T14:06:31Z</time>
      </trkpt>
      <trkpt lat="59.818193444004" lon="17.620481058133">
        <ele>26.8</ele>
        <time>2017-10-15T14:06:32Z</time>
      </trkpt>
      <trkpt lat="59.818132423772" lon="17.620521961805">
        <ele>26.6</ele>
        <time>2017-10-15T14:06:33Z</time>
      </trkpt>
      <trkpt lat="59.818075845947" lon="17.620557752518">
        <ele>26.2</ele>
        <time>2017-10-15T14:06:34Z</time>
      </trkpt>
      <trkpt lat="59.818017172647" lon="17.620597901819">
        <ele>25.8</ele>
        <time>2017-10-15T14:06:35Z</time>
      </trkpt>
      <trkpt lat="59.817970904559" lon="17.620634195446">
        <ele>25.6</ele>
        <time>2017-10-15T14:06:36Z</time>
      </trkpt>
      <trkpt lat="59.817927486317" lon="17.620678032783">
        <ele>25.6</ele>
        <time>2017-10-15T14:06:37Z</time>
      </trkpt>
      <trkpt lat="59.817888342844" lon="17.620737460454">
        <ele>25.6</ele>
        <time>2017-10-15T14:06:38Z</time>
      </trkpt>
      <trkpt lat="59.817867555732" lon="17.620793283908">
        <ele>25.6</ele>
        <time>2017-10-15T14:06:39Z</time>
      </trkpt>
      <trkpt lat="59.817846098068" lon="17.620847263344">
        <ele>25.6</ele>
        <time>2017-10-15T14:06:40Z</time>
      </trkpt>
      <trkpt lat="59.817829418087" lon="17.620900823685">
        <ele>25.8</ele>
        <time>2017-10-15T14:06:41Z</time>
      </trkpt>
      <trkpt lat="59.817814582124" lon="17.62095404875">
        <ele>26</ele>
        <time>2017-10-15T14:06:42Z</time>
      </trkpt>
      <trkpt lat="59.817804272387" lon="17.621038035388">
        <ele>26</ele>
        <time>2017-10-15T14:06:43Z</time>
      </trkpt>
      <trkpt lat="59.817819862721" lon="17.621109030081">
        <ele>26.2</ele>
        <time>2017-10-15T14:06:44Z</time>
      </trkpt>
      <trkpt lat="59.817841068928" lon="17.62118538919">
        <ele>26.2</ele>
        <time>2017-10-15T14:06:45Z</time>
      </trkpt>
      <trkpt lat="59.817836458883" lon="17.621282954506">
        <ele>26.4</ele>
        <time>2017-10-15T14:06:46Z</time>
      </trkpt>
      <trkpt lat="59.817803853292" lon="17.621353613923">
        <ele>26.4</ele>
        <time>2017-10-15T14:06:47Z</time>
      </trkpt>
      <trkpt lat="59.81777133152" lon="17.621429889213">
        <ele>26.4</ele>
        <time>2017-10-15T14:06:48Z</time>
      </trkpt>
      <trkpt lat="59.81773696573" lon="17.621513540575">
        <ele>26.4</ele>
        <time>2017-10-15T14:06:49Z</time>
      </trkpt>
      <trkpt lat="59.817698995723" lon="17.62159274953">
        <ele>26.2</ele>
        <time>2017-10-15T14:06:50Z</time>
      </trkpt>
      <trkpt lat="59.817669575254" lon="17.621676400892">
        <ele>26.2</ele>
        <time>2017-10-15T14:06:51Z</time>
      </trkpt>
      <trkpt lat="59.817651805626" lon="17.621758878788">
        <ele>26</ele>
        <time>2017-10-15T14:06:52Z</time>
      </trkpt>
      <trkpt lat="59.817623139528" lon="17.621864406909">
        <ele>25.8</ele>
        <time>2017-10-15T14:06:53Z</time>
      </trkpt>
      <trkpt lat="59.817598496742" lon="17.621926684426">
        <ele>25.4</ele>
        <time>2017-10-15T14:06:54Z</time>
      </trkpt>
      <trkpt lat="59.817557341613" lon="17.622025758484">
        <ele>25.2</ele>
        <time>2017-10-15T14:06:55Z</time>
      </trkpt>
      <trkpt lat="59.817527250592" lon="17.622115360995">
        <ele>25</ele>
        <time>2017-10-15T14:06:56Z</time>
      </trkpt>
      <trkpt lat="59.817492717164" lon="17.622196581606">
        <ele>25</ele>
        <time>2017-10-15T14:06:57Z</time>
      </trkpt>
      <trkpt lat="59.817452651682" lon="17.622283669547">
        <ele>25</ele>
        <time>2017-10-15T14:06:58Z</time>
      </trkpt>
      <trkpt lat="59.817414681675" lon="17.622366734176">
        <ele>25.2</ele>
        <time>2017-10-15T14:06:59Z</time>
      </trkpt>
      <trkpt lat="59.81737822041" lon="17.622448122425">
        <ele>25.2</ele>
        <time>2017-10-15T14:07:00Z</time>
      </trkpt>
      <trkpt lat="59.817339160756" lon="17.622543592266">
        <ele>25.2</ele>
        <time>2017-10-15T14:07:01Z</time>
      </trkpt>
      <trkpt lat="59.817307896269" lon="17.622628920008">
        <ele>25.2</ele>
        <time>2017-10-15T14:07:02Z</time>
      </trkpt>
      <trkpt lat="59.817274033393" lon="17.62272179146">
        <ele>25</ele>
        <time>2017-10-15T14:07:03Z</time>
      </trkpt>
      <trkpt lat="59.81723824268" lon="17.622810891057">
        <ele>25</ele>
        <time>2017-10-15T14:07:04Z</time>
      </trkpt>
      <trkpt lat="59.817198261017" lon="17.622890519107">
        <ele>25</ele>
        <time>2017-10-15T14:07:05Z</time>
      </trkpt>
      <trkpt lat="59.817163727589" lon="17.622968554596">
        <ele>25</ele>
        <time>2017-10-15T14:07:06Z</time>
      </trkpt>
      <trkpt lat="59.817128607428" lon="17.623049691388">
        <ele>25</ele>
        <time>2017-10-15T14:07:07Z</time>
      </trkpt>
      <trkpt lat="59.817083512806" lon="17.623139880632">
        <ele>25</ele>
        <time>2017-10-15T14:07:08Z</time>
      </trkpt>
      <trkpt lat="59.817040681297" lon="17.623213976628">
        <ele>25.2</ele>
        <time>2017-10-15T14:07:09Z</time>
      </trkpt>
      <trkpt lat="59.816997095417" lon="17.623285558054">
        <ele>25.2</ele>
        <time>2017-10-15T14:07:10Z</time>
      </trkpt>
      <trkpt lat="59.816952168433" lon="17.623357558575">
        <ele>25.4</ele>
        <time>2017-10-15T14:07:11Z</time>
      </trkpt>
      <trkpt lat="59.816925262534" lon="17.623407849975">
        <ele>25.6</ele>
        <time>2017-10-15T14:07:12Z</time>
      </trkpt>
      <trkpt lat="59.816870780184" lon="17.623513629553">
        <ele>25.6</ele>
        <time>2017-10-15T14:07:13Z</time>
      </trkpt>
      <trkpt lat="59.816831385254" lon="17.623589821024">
        <ele>25.8</ele>
        <time>2017-10-15T14:07:14Z</time>
      </trkpt>
      <trkpt lat="59.816791738867" lon="17.623666850685">
        <ele>25.8</ele>
        <time>2017-10-15T14:07:15Z</time>
      </trkpt>
      <trkpt lat="59.816749494091" lon="17.623751843151">
        <ele>25.8</ele>
        <time>2017-10-15T14:07:16Z</time>
      </trkpt>
      <trkpt lat="59.816714709206" lon="17.623824933319">
        <ele>25.8</ele>
        <time>2017-10-15T14:07:17Z</time>
      </trkpt>
      <trkpt lat="59.816673051163" lon="17.623902298256">
        <ele>25.8</ele>
        <time>2017-10-15T14:07:18Z</time>
      </trkpt>
      <trkpt lat="59.816630638749" lon="17.623979411736">
        <ele>25.8</ele>
        <time>2017-10-15T14:07:19Z</time>
      </trkpt>
      <trkpt lat="59.816589399801" lon="17.624051915171">
        <ele>25.8</ele>
        <time>2017-10-15T14:07:20Z</time>
      </trkpt>
      <trkpt lat="59.816549082862" lon="17.62412156876">
        <ele>25.8</ele>
        <time>2017-10-15T14:07:21Z</time>
      </trkpt>
      <trkpt lat="59.816516058176" lon="17.624187031399">
        <ele>25.8</ele>
        <time>2017-10-15T14:07:22Z</time>
      </trkpt>
      <trkpt lat="59.816475154504" lon="17.624271772408">
        <ele>25.6</ele>
        <time>2017-10-15T14:07:23Z</time>
      </trkpt>
      <trkpt lat="59.816454702668" lon="17.624313765727">
        <ele>25.6</ele>
        <time>2017-10-15T14:07:24Z</time>
      </trkpt>
      <trkpt lat="59.816419247231" lon="17.624411498681">
        <ele>25.8</ele>
        <time>2017-10-15T14:07:25Z</time>
      </trkpt>
      <trkpt lat="59.816418660498" lon="17.624491378188">
        <ele>25.8</ele>
        <time>2017-10-15T14:07:26Z</time>
      </trkpt>
      <trkpt lat="59.816435089022" lon="17.62456078032">
        <ele>25.8</ele>
        <time>2017-10-15T14:07:27Z</time>
      </trkpt>
      <trkpt lat="59.816460150903" lon="17.624633199936">
        <ele>25.8</ele>
        <time>2017-10-15T14:07:28Z</time>
      </trkpt>
      <trkpt lat="59.816495103426" lon="17.624682736965">
        <ele>25.8</ele>
        <time>2017-10-15T14:07:29Z</time>
      </trkpt>
      <trkpt lat="59.816526200275" lon="17.624729675605">
        <ele>26</ele>
        <time>2017-10-15T14:07:30Z</time>
      </trkpt>
      <trkpt lat="59.816558386771" lon="17.624790109104">
        <ele>26</ele>
        <time>2017-10-15T14:07:31Z</time>
      </trkpt>
      <trkpt lat="59.816582694281" lon="17.624847189843">
        <ele>26.2</ele>
        <time>2017-10-15T14:07:32Z</time>
      </trkpt>
      <trkpt lat="59.81659618914" lon="17.624929332463">
        <ele>26.4</ele>
        <time>2017-10-15T14:07:33Z</time>
      </trkpt>
      <trkpt lat="59.816583700109" lon="17.625016336585">
        <ele>26.6</ele>
        <time>2017-10-15T14:07:34Z</time>
      </trkpt>
      <trkpt lat="59.816562074807" lon="17.625098814481">
        <ele>26.6</ele>
        <time>2017-10-15T14:07:35Z</time>
      </trkpt>
      <trkpt lat="59.816538521668" lon="17.625172742839">
        <ele>26.8</ele>
        <time>2017-10-15T14:07:36Z</time>
      </trkpt>
      <trkpt lat="59.81650231186" lon="17.625230410311">
        <ele>26.6</ele>
        <time>2017-10-15T14:07:37Z</time>
      </trkpt>
      <trkpt lat="59.816458809799" lon="17.625300231538">
        <ele>26.6</ele>
        <time>2017-10-15T14:07:38Z</time>
      </trkpt>
      <trkpt lat="59.816420923611" lon="17.62537885376">
        <ele>26.8</ele>
        <time>2017-10-15T14:07:39Z</time>
      </trkpt>
      <trkpt lat="59.816386474002" lon="17.625459739095">
        <ele>26.8</ele>
        <time>2017-10-15T14:07:40Z</time>
      </trkpt>
      <trkpt lat="59.816356215343" lon="17.625552191452">
        <ele>26.6</ele>
        <time>2017-10-15T14:07:41Z</time>
      </trkpt>
      <trkpt lat="59.816323190657" lon="17.625623940516">
        <ele>26.6</ele>
        <time>2017-10-15T14:07:42Z</time>
      </trkpt>
      <trkpt lat="59.816276587293" lon="17.625715219407">
        <ele>26.4</ele>
        <time>2017-10-15T14:07:43Z</time>
      </trkpt>
      <trkpt lat="59.816240880399" lon="17.625797613484">
        <ele>26.4</ele>
        <time>2017-10-15T14:07:44Z</time>
      </trkpt>
      <trkpt lat="59.816207771894" lon="17.625876654801">
        <ele>26.4</ele>
        <time>2017-10-15T14:07:45Z</time>
      </trkpt>
      <trkpt lat="59.816172148819" lon="17.625962150181">
        <ele>26.4</ele>
        <time>2017-10-15T14:07:46Z</time>
      </trkpt>
      <trkpt lat="59.816141973979" lon="17.626027026087">
        <ele>26.2</ele>
        <time>2017-10-15T14:07:47Z</time>
      </trkpt>
      <trkpt lat="59.816126718921" lon="17.626099613341">
        <ele>26.2</ele>
        <time>2017-10-15T14:07:48Z</time>
      </trkpt>
      <trkpt lat="59.816106853818" lon="17.62617261969">
        <ele>26</ele>
        <time>2017-10-15T14:07:49Z</time>
      </trkpt>
      <trkpt lat="59.816067961802" lon="17.626204890005">
        <ele>26</ele>
        <time>2017-10-15T14:07:50Z</time>
      </trkpt>
      <trkpt lat="59.816038960428" lon="17.626229365153">
        <ele>26</ele>
        <time>2017-10-15T14:07:51Z</time>
      </trkpt>
      <trkpt lat="59.816018089497" lon="17.62626817335">
        <ele>25.8</ele>
        <time>2017-10-15T14:07:52Z</time>
      </trkpt>
      <trkpt lat="59.815983639888" lon="17.626323158614">
        <ele>25.8</ele>
        <time>2017-10-15T14:07:53Z</time>
      </trkpt>
      <trkpt lat="59.815951453392" lon="17.626380658448">
        <ele>25.8</ele>
        <time>2017-10-15T14:07:54Z</time>
      </trkpt>
      <trkpt lat="59.815918680163" lon="17.626448719476">
        <ele>25.8</ele>
        <time>2017-10-15T14:07:55Z</time>
      </trkpt>
      <trkpt lat="59.815892277178" lon="17.626501357808">
        <ele>26</ele>
        <time>2017-10-15T14:07:56Z</time>
      </trkpt>
      <trkpt lat="59.815866880021" lon="17.62655567252">
        <ele>26.2</ele>
        <time>2017-10-15T14:07:57Z</time>
      </trkpt>
      <trkpt lat="59.815839638846" lon="17.626619039684">
        <ele>26.2</ele>
        <time>2017-10-15T14:07:58Z</time>
      </trkpt>
      <trkpt lat="59.81581583425" lon="17.626671091283">
        <ele>26.4</ele>
        <time>2017-10-15T14:07:59Z</time>
      </trkpt>
      <trkpt lat="59.815796891156" lon="17.626708642195">
        <ele>26.4</ele>
        <time>2017-10-15T14:08:00Z</time>
      </trkpt>
      <trkpt lat="59.815784318306" lon="17.626745690193">
        <ele>26.4</ele>
        <time>2017-10-15T14:08:01Z</time>
      </trkpt>
      <trkpt lat="59.815780127356" lon="17.626794640489">
        <ele>26.4</ele>
        <time>2017-10-15T14:08:02Z</time>
      </trkpt>
      <trkpt lat="59.815764369384" lon="17.626854571074">
        <ele>26.4</ele>
        <time>2017-10-15T14:08:03Z</time>
      </trkpt>
      <trkpt lat="59.815736792933" lon="17.626888853045">
        <ele>26.4</ele>
        <time>2017-10-15T14:08:04Z</time>
      </trkpt>
      <trkpt lat="59.815709551758" lon="17.626923386473">
        <ele>26.4</ele>
        <time>2017-10-15T14:08:05Z</time>
      </trkpt>
      <trkpt lat="59.815677365262" lon="17.626974516063">
        <ele>26.6</ele>
        <time>2017-10-15T14:08:06Z</time>
      </trkpt>
      <trkpt lat="59.81564987263" lon="17.627034949562">
        <ele>26.6</ele>
        <time>2017-10-15T14:08:07Z</time>
      </trkpt>
      <trkpt lat="59.815617937591" lon="17.627111141033">
        <ele>26.6</ele>
        <time>2017-10-15T14:08:08Z</time>
      </trkpt>
      <trkpt lat="59.815587511294" lon="17.627182471002">
        <ele>26.6</ele>
        <time>2017-10-15T14:08:09Z</time>
      </trkpt>
      <trkpt lat="59.815557587911" lon="17.627248771831">
        <ele>26.8</ele>
        <time>2017-10-15T14:08:10Z</time>
      </trkpt>
      <trkpt lat="59.815528502718" lon="17.627325298578">
        <ele>26.8</ele>
        <time>2017-10-15T14:08:11Z</time>
      </trkpt>
      <trkpt lat="59.815500088077" lon="17.627386234991">
        <ele>26.6</ele>
        <time>2017-10-15T14:08:12Z</time>
      </trkpt>
      <trkpt lat="59.815459519681" lon="17.627472987656">
        <ele>26.6</ele>
        <time>2017-10-15T14:08:13Z</time>
      </trkpt>
      <trkpt lat="59.81542272314" lon="17.627543730892">
        <ele>26.6</ele>
        <time>2017-10-15T14:08:14Z</time>
      </trkpt>
      <trkpt lat="59.815386932427" lon="17.627618832716">
        <ele>26.6</ele>
        <time>2017-10-15T14:08:15Z</time>
      </trkpt>
      <trkpt lat="59.81534896242" lon="17.627702064983">
        <ele>26.6</ele>
        <time>2017-10-15T14:08:16Z</time>
      </trkpt>
      <trkpt lat="59.815316608286" lon="17.627776328617">
        <ele>26.6</ele>
        <time>2017-10-15T14:08:17Z</time>
      </trkpt>
      <trkpt lat="59.815280817573" lon="17.627854196468">
        <ele>26.6</ele>
        <time>2017-10-15T14:08:18Z</time>
      </trkpt>
      <trkpt lat="59.815244104851" lon="17.627936255269">
        <ele>26.6</ele>
        <time>2017-10-15T14:08:19Z</time>
      </trkpt>
      <trkpt lat="59.815207895043" lon="17.628020409545">
        <ele>26.6</ele>
        <time>2017-10-15T14:08:20Z</time>
      </trkpt>
      <trkpt lat="59.815174451262" lon="17.628097690663">
        <ele>26.6</ele>
        <time>2017-10-15T14:08:21Z</time>
      </trkpt>
      <trkpt lat="59.815144108784" lon="17.628160471094">
        <ele>26.6</ele>
        <time>2017-10-15T14:08:22Z</time>
      </trkpt>
      <trkpt lat="59.815106557872" lon="17.628239512411">
        <ele>26.6</ele>
        <time>2017-10-15T14:08:23Z</time>
      </trkpt>
      <trkpt lat="59.815078143231" lon="17.628303885403">
        <ele>26.6</ele>
        <time>2017-10-15T14:08:24Z</time>
      </trkpt>
      <trkpt lat="59.815044783269" lon="17.628383513453">
        <ele>26.6</ele>
        <time>2017-10-15T14:08:25Z</time>
      </trkpt>
      <trkpt lat="59.815008992556" lon="17.628453418499">
        <ele>26.8</ele>
        <time>2017-10-15T14:08:26Z</time>
      </trkpt>
      <trkpt lat="59.814983930675" lon="17.628508152306">
        <ele>26.8</ele>
        <time>2017-10-15T14:08:27Z</time>
      </trkpt>
      <trkpt lat="59.814951827998" lon="17.628589708193">
        <ele>27</ele>
        <time>2017-10-15T14:08:28Z</time>
      </trkpt>
      <trkpt lat="59.814925173556" lon="17.628670006795">
        <ele>27</ele>
        <time>2017-10-15T14:08:29Z</time>
      </trkpt>
      <trkpt lat="59.814899860218" lon="17.628739744203">
        <ele>27</ele>
        <time>2017-10-15T14:08:30Z</time>
      </trkpt>
      <trkpt lat="59.814868428093" lon="17.62883219656">
        <ele>27.2</ele>
        <time>2017-10-15T14:08:31Z</time>
      </trkpt>
      <trkpt lat="59.814837415063" lon="17.628900341407">
        <ele>27</ele>
        <time>2017-10-15T14:08:32Z</time>
      </trkpt>
      <trkpt lat="59.814796427572" lon="17.62898474714">
        <ele>27</ele>
        <time>2017-10-15T14:08:33Z</time>
      </trkpt>
      <trkpt lat="59.814759798669" lon="17.629063620819">
        <ele>26.8</ele>
        <time>2017-10-15T14:08:34Z</time>
      </trkpt>
      <trkpt lat="59.814719733187" lon="17.629148278009">
        <ele>26.8</ele>
        <time>2017-10-15T14:08:35Z</time>
      </trkpt>
      <trkpt lat="59.814681679361" lon="17.629229330982">
        <ele>26.8</ele>
        <time>2017-10-15T14:08:36Z</time>
      </trkpt>
      <trkpt lat="59.814640775689" lon="17.629310300136">
        <ele>26.6</ele>
        <time>2017-10-15T14:08:37Z</time>
      </trkpt>
      <trkpt lat="59.814594842877" lon="17.6294071949">
        <ele>26.6</ele>
        <time>2017-10-15T14:08:38Z</time>
      </trkpt>
      <trkpt lat="59.814549245341" lon="17.629501826551">
        <ele>26.4</ele>
        <time>2017-10-15T14:08:39Z</time>
      </trkpt>
      <trkpt lat="59.814508844583" lon="17.629595955288">
        <ele>26.2</ele>
        <time>2017-10-15T14:08:40Z</time>
      </trkpt>
      <trkpt lat="59.814463247047" lon="17.629703159789">
        <ele>26</ele>
        <time>2017-10-15T14:08:41Z</time>
      </trkpt>
      <trkpt lat="59.81442779161" lon="17.629796282698">
        <ele>25.8</ele>
        <time>2017-10-15T14:08:42Z</time>
      </trkpt>
      <trkpt lat="59.814371213785" lon="17.629919412809">
        <ele>25.4</ele>
        <time>2017-10-15T14:08:43Z</time>
      </trkpt>
      <trkpt lat="59.814323604593" lon="17.630013122451">
        <ele>25</ele>
        <time>2017-10-15T14:08:44Z</time>
      </trkpt>
      <trkpt lat="59.814278761428" lon="17.630105071894">
        <ele>24.6</ele>
        <time>2017-10-15T14:08:45Z</time>
      </trkpt>
      <trkpt lat="59.814233750625" lon="17.630202218115">
        <ele>24.2</ele>
        <time>2017-10-15T14:08:46Z</time>
      </trkpt>
      <trkpt lat="59.814194271876" lon="17.630296598309">
        <ele>23.8</ele>
        <time>2017-10-15T14:08:47Z</time>
      </trkpt>
      <trkpt lat="59.814146578865" lon="17.630395588548">
        <ele>23.6</ele>
        <time>2017-10-15T14:08:48Z</time>
      </trkpt>
      <trkpt lat="59.814097712388" lon="17.630491477484">
        <ele>23.4</ele>
        <time>2017-10-15T14:08:49Z</time>
      </trkpt>
      <trkpt lat="59.814052785404" lon="17.630585438583">
        <ele>23.2</ele>
        <time>2017-10-15T14:08:50Z</time>
      </trkpt>
      <trkpt lat="59.814009031886" lon="17.630677220388">
        <ele>23.4</ele>
        <time>2017-10-15T14:08:51Z</time>
      </trkpt>
      <trkpt lat="59.813977935037" lon="17.630744610864">
        <ele>23.4</ele>
        <time>2017-10-15T14:08:52Z</time>
      </trkpt>
      <trkpt lat="59.813935354985" lon="17.630828178407">
        <ele>23.8</ele>
        <time>2017-10-15T14:08:53Z</time>
      </trkpt>
      <trkpt lat="59.813900989195" lon="17.630898083453">
        <ele>24</ele>
        <time>2017-10-15T14:08:54Z</time>
      </trkpt>
      <trkpt lat="59.81387039526" lon="17.63095617002">
        <ele>24.2</ele>
        <time>2017-10-15T14:08:55Z</time>
      </trkpt>
      <trkpt lat="59.813838879316" lon="17.631014927139">
        <ele>24.2</ele>
        <time>2017-10-15T14:08:56Z</time>
      </trkpt>
      <trkpt lat="59.813816499643" lon="17.631061027589">
        <ele>24.4</ele>
        <time>2017-10-15T14:08:57Z</time>
      </trkpt>
      <trkpt lat="59.813782469129" lon="17.631130429721">
        <ele>24.6</ele>
        <time>2017-10-15T14:08:58Z</time>
      </trkpt>
      <trkpt lat="59.813750198814" lon="17.631196898188">
        <ele>25</ele>
        <time>2017-10-15T14:08:59Z</time>
      </trkpt>
      <trkpt lat="59.813713989006" lon="17.631253476013">
        <ele>25.4</ele>
        <time>2017-10-15T14:09:00Z</time>
      </trkpt>
      <trkpt lat="59.813677863017" lon="17.631324722163">
        <ele>25.4</ele>
        <time>2017-10-15T14:09:01Z</time>
      </trkpt>
      <trkpt lat="59.813645173607" lon="17.631394291933">
        <ele>25.8</ele>
        <time>2017-10-15T14:09:02Z</time>
      </trkpt>
      <trkpt lat="59.813606952143" lon="17.631478194752">
        <ele>26</ele>
        <time>2017-10-15T14:09:03Z</time>
      </trkpt>
      <trkpt lat="59.813568563041" lon="17.631555392051">
        <ele>26.2</ele>
        <time>2017-10-15T14:09:04Z</time>
      </trkpt>
      <trkpt lat="59.813533778156" lon="17.631635606834">
        <ele>26.2</ele>
        <time>2017-10-15T14:09:05Z</time>
      </trkpt>
      <trkpt lat="59.813519948021" lon="17.631663183285">
        <ele>26</ele>
        <time>2017-10-15T14:09:06Z</time>
      </trkpt>
      <trkpt lat="59.813470327173" lon="17.631763849904">
        <ele>25.8</ele>
        <time>2017-10-15T14:09:07Z</time>
      </trkpt>
      <trkpt lat="59.813422047429" lon="17.631858397736">
        <ele>25.8</ele>
        <time>2017-10-15T14:09:08Z</time>
      </trkpt>
      <trkpt lat="59.813387849277" lon="17.63192930861">
        <ele>25.6</ele>
        <time>2017-10-15T14:09:09Z</time>
      </trkpt>
      <trkpt lat="59.813355243686" lon="17.631995860896">
        <ele>25.6</ele>
        <time>2017-10-15T14:09:10Z</time>
      </trkpt>
      <trkpt lat="59.813320794077" lon="17.632068783426">
        <ele>25.8</ele>
        <time>2017-10-15T14:09:11Z</time>
      </trkpt>
      <trkpt lat="59.813296402748" lon="17.632139945757">
        <ele>25.8</ele>
        <time>2017-10-15T14:09:12Z</time>
      </trkpt>
      <trkpt lat="59.813267485193" lon="17.632245138602">
        <ele>26</ele>
        <time>2017-10-15T14:09:13Z</time>
      </trkpt>
      <trkpt lat="59.813241249846" lon="17.632338848244">
        <ele>26</ele>
        <time>2017-10-15T14:09:14Z</time>
      </trkpt>
      <trkpt lat="59.813221803838" lon="17.632438257578">
        <ele>26.2</ele>
        <time>2017-10-15T14:09:15Z</time>
      </trkpt>
      <trkpt lat="59.813205459133" lon="17.632560298042">
        <ele>26.2</ele>
        <time>2017-10-15T14:09:16Z</time>
      </trkpt>
      <trkpt lat="59.813181738356" lon="17.632676554995">
        <ele>26</ele>
        <time>2017-10-15T14:09:17Z</time>
      </trkpt>
      <trkpt lat="59.813161621796" lon="17.632803792237">
        <ele>26</ele>
        <time>2017-10-15T14:09:18Z</time>
      </trkpt>
      <trkpt lat="59.813152988439" lon="17.632932370583">
        <ele>25.8</ele>
        <time>2017-10-15T14:09:19Z</time>
      </trkpt>
      <trkpt lat="59.813144355082" lon="17.633058182902">
        <ele>25.8</ele>
        <time>2017-10-15T14:09:20Z</time>
      </trkpt>
      <trkpt lat="59.813142259607" lon="17.633173266389">
        <ele>25.4</ele>
        <time>2017-10-15T14:09:21Z</time>
      </trkpt>
      <trkpt lat="59.813146953471" lon="17.633259432321">
        <ele>25</ele>
        <time>2017-10-15T14:09:22Z</time>
      </trkpt>
      <trkpt lat="59.813155838285" lon="17.633370073401">
        <ele>24.6</ele>
        <time>2017-10-15T14:09:23Z</time>
      </trkpt>
      <trkpt lat="59.81317385937" lon="17.633446348691">
        <ele>23.8</ele>
        <time>2017-10-15T14:09:24Z</time>
      </trkpt>
      <trkpt lat="59.813205040038" lon="17.633524635637">
        <ele>23.4</ele>
        <time>2017-10-15T14:09:25Z</time>
      </trkpt>
      <trkpt lat="59.813240160199" lon="17.633590433552">
        <ele>22.8</ele>
        <time>2017-10-15T14:09:26Z</time>
      </trkpt>
      <trkpt lat="59.813273520161" lon="17.633646173187">
        <ele>22.4</ele>
        <time>2017-10-15T14:09:27Z</time>
      </trkpt>
      <trkpt lat="59.813312412177" lon="17.633708031609">
        <ele>22.2</ele>
        <time>2017-10-15T14:09:28Z</time>
      </trkpt>
      <trkpt lat="59.813353148211" lon="17.633763687425">
        <ele>21.8</ele>
        <time>2017-10-15T14:09:29Z</time>
      </trkpt>
      <trkpt lat="59.813387514001" lon="17.63382697077">
        <ele>21.8</ele>
        <time>2017-10-15T14:09:30Z</time>
      </trkpt>
      <trkpt lat="59.813433446813" lon="17.633895199436">
        <ele>21.4</ele>
        <time>2017-10-15T14:09:31Z</time>
      </trkpt>
      <trkpt lat="59.81347225501" lon="17.633967032319">
        <ele>21.2</ele>
        <time>2017-10-15T14:09:32Z</time>
      </trkpt>
      <trkpt lat="59.813518187822" lon="17.63405160569">
        <ele>21.2</ele>
        <time>2017-10-15T14:09:33Z</time>
      </trkpt>
      <trkpt lat="59.813566635204" lon="17.634126791333">
        <ele>21</ele>
        <time>2017-10-15T14:09:34Z</time>
      </trkpt>
      <trkpt lat="59.813614244396" lon="17.63420583265">
        <ele>21</ele>
        <time>2017-10-15T14:09:35Z</time>
      </trkpt>
      <trkpt lat="59.813655734801" lon="17.634286969442">
        <ele>20.8</ele>
        <time>2017-10-15T14:09:36Z</time>
      </trkpt>
      <trkpt lat="59.813698063396" lon="17.634362322723">
        <ele>20.6</ele>
        <time>2017-10-15T14:09:37Z</time>
      </trkpt>
      <trkpt lat="59.813754054488" lon="17.634446812275">
        <ele>20.4</ele>
        <time>2017-10-15T14:09:38Z</time>
      </trkpt>
      <trkpt lat="59.813800993128" lon="17.634525685954">
        <ele>20.2</ele>
        <time>2017-10-15T14:09:39Z</time>
      </trkpt>
      <trkpt lat="59.813847261216" lon="17.634602715615">
        <ele>20.2</ele>
        <time>2017-10-15T14:09:40Z</time>
      </trkpt>
      <trkpt lat="59.81388799725" lon="17.634669184082">
        <ele>20</ele>
        <time>2017-10-15T14:09:41Z</time>
      </trkpt>
      <trkpt lat="59.813917166262" lon="17.634716038903">
        <ele>20</ele>
        <time>2017-10-15T14:09:42Z</time>
      </trkpt>
      <trkpt lat="59.813950190948" lon="17.634780328076">
        <ele>19.8</ele>
        <time>2017-10-15T14:09:43Z</time>
      </trkpt>
      <trkpt lat="59.813958824305" lon="17.634854759348">
        <ele>19.8</ele>
        <time>2017-10-15T14:09:44Z</time>
      </trkpt>
      <trkpt lat="59.81395505245" lon="17.634926256955">
        <ele>19.8</ele>
        <time>2017-10-15T14:09:45Z</time>
      </trkpt>
      <trkpt lat="59.813937953374" lon="17.635000939684">
        <ele>19.6</ele>
        <time>2017-10-15T14:09:46Z</time>
      </trkpt>
      <trkpt lat="59.813909371095" lon="17.635060618812">
        <ele>19.6</ele>
        <time>2017-10-15T14:09:47Z</time>
      </trkpt>
      <trkpt lat="59.813885147404" lon="17.635108395642">
        <ele>19.6</ele>
        <time>2017-10-15T14:09:48Z</time>
      </trkpt>
      <trkpt lat="59.813841310067" lon="17.635198501067">
        <ele>19.8</ele>
        <time>2017-10-15T14:09:49Z</time>
      </trkpt>
      <trkpt lat="59.813807111915" lon="17.635271842692">
        <ele>19.8</ele>
        <time>2017-10-15T14:09:50Z</time>
      </trkpt>
      <trkpt lat="59.813777523808" lon="17.635351554561">
        <ele>19.8</ele>
        <time>2017-10-15T14:09:51Z</time>
      </trkpt>
      <trkpt lat="59.813753132479" lon="17.635420286141">
        <ele>19.8</ele>
        <time>2017-10-15T14:09:52Z</time>
      </trkpt>
      <trkpt lat="59.813717090309" lon="17.635506619711">
        <ele>19.8</ele>
        <time>2017-10-15T14:09:53Z</time>
      </trkpt>
      <trkpt lat="59.813690100591" lon="17.635578704051">
        <ele>19.8</ele>
        <time>2017-10-15T14:09:54Z</time>
      </trkpt>
      <trkpt lat="59.813657243543" lon="17.635657242454">
        <ele>19.6</ele>
        <time>2017-10-15T14:09:55Z</time>
      </trkpt>
      <trkpt lat="59.813622877753" lon="17.635726812224">
        <ele>19.6</ele>
        <time>2017-10-15T14:09:56Z</time>
      </trkpt>
      <trkpt lat="59.813587673773" lon="17.635787329542">
        <ele>19.6</ele>
        <time>2017-10-15T14:09:57Z</time>
      </trkpt>
      <trkpt lat="59.813539896943" lon="17.6358361122">
        <ele>19.4</ele>
        <time>2017-10-15T14:09:58Z</time>
      </trkpt>
      <trkpt lat="59.813491449561" lon="17.635848014498">
        <ele>19.4</ele>
        <time>2017-10-15T14:09:59Z</time>
      </trkpt>
      <trkpt lat="59.813447696043" lon="17.635832340345">
        <ele>19.4</ele>
        <time>2017-10-15T14:10:00Z</time>
      </trkpt>
      <trkpt lat="59.813401427955" lon="17.635805518265">
        <ele>19.4</ele>
        <time>2017-10-15T14:10:01Z</time>
      </trkpt>
      <trkpt lat="59.813362703577" lon="17.635791939587">
        <ele>19.6</ele>
        <time>2017-10-15T14:10:02Z</time>
      </trkpt>
      <trkpt lat="59.813317273679" lon="17.635780959298">
        <ele>19.6</ele>
        <time>2017-10-15T14:10:03Z</time>
      </trkpt>
      <trkpt lat="59.813277543473" lon="17.635746761146">
        <ele>19.8</ele>
        <time>2017-10-15T14:10:04Z</time>
      </trkpt>
      <trkpt lat="59.813245021701" lon="17.635700576877">
        <ele>20.2</ele>
        <time>2017-10-15T14:10:05Z</time>
      </trkpt>
      <trkpt lat="59.813210236816" lon="17.635685740914">
        <ele>20.4</ele>
        <time>2017-10-15T14:10:06Z</time>
      </trkpt>
      <trkpt lat="59.813186516039" lon="17.635727231319">
        <ele>20.4</ele>
        <time>2017-10-15T14:10:07Z</time>
      </trkpt>
      <trkpt lat="59.813167572945" lon="17.635775343425">
        <ele>20.6</ele>
        <time>2017-10-15T14:10:08Z</time>
      </trkpt>
      <trkpt lat="59.813142762521" lon="17.635814067803">
        <ele>20.6</ele>
        <time>2017-10-15T14:10:09Z</time>
      </trkpt>
      <trkpt lat="59.813117952097" lon="17.635849690878">
        <ele>20.8</ele>
        <time>2017-10-15T14:10:10Z</time>
      </trkpt>
      <trkpt lat="59.813090291827" lon="17.635878440795">
        <ele>20.8</ele>
        <time>2017-10-15T14:10:11Z</time>
      </trkpt>
      <trkpt lat="59.81306908562" lon="17.635893192939">
        <ele>21</ele>
        <time>2017-10-15T14:10:12Z</time>
      </trkpt>
      <trkpt lat="59.813041592988" lon="17.635906352522">
        <ele>21</ele>
        <time>2017-10-15T14:10:13Z</time>
      </trkpt>
      <trkpt lat="59.813018542763" lon="17.635910375834">
        <ele>21.2</ele>
        <time>2017-10-15T14:10:14Z</time>
      </trkpt>
      <trkpt lat="59.812999934945" lon="17.635898641174">
        <ele>21.2</ele>
        <time>2017-10-15T14:10:15Z</time>
      </trkpt>
      <trkpt lat="59.812990044303" lon="17.635916913716">
        <ele>21.4</ele>
        <time>2017-10-15T14:10:16Z</time>
      </trkpt>
      <trkpt lat="59.812990714855" lon="17.635964187632">
        <ele>21.6</ele>
        <time>2017-10-15T14:10:17Z</time>
      </trkpt>
      <trkpt lat="59.813001527506" lon="17.636028979719">
        <ele>21.6</ele>
        <time>2017-10-15T14:10:18Z</time>
      </trkpt>
      <trkpt lat="59.81302633793" lon="17.636094609996">
        <ele>21.8</ele>
        <time>2017-10-15T14:10:19Z</time>
      </trkpt>
      <trkpt lat="59.813053243829" lon="17.636158312436">
        <ele>21.8</ele>
        <time>2017-10-15T14:10:20Z</time>
      </trkpt>
      <trkpt lat="59.813072270742" lon="17.636230815871">
        <ele>22</ele>
        <time>2017-10-15T14:10:21Z</time>
      </trkpt>
      <trkpt lat="59.813080317366" lon="17.636303654582">
        <ele>22</ele>
        <time>2017-10-15T14:10:22Z</time>
      </trkpt>
      <trkpt lat="59.813094985691" lon="17.636409098884">
        <ele>22</ele>
        <time>2017-10-15T14:10:23Z</time>
      </trkpt>
      <trkpt lat="59.813111246577" lon="17.636497611748">
        <ele>21.8</ele>
        <time>2017-10-15T14:10:24Z</time>
      </trkpt>
      <trkpt lat="59.813130692585" lon="17.636600960575">
        <ele>21.6</ele>
        <time>2017-10-15T14:10:25Z</time>
      </trkpt>
      <trkpt lat="59.813144438901" lon="17.63670447704">
        <ele>21.4</ele>
        <time>2017-10-15T14:10:26Z</time>
      </trkpt>
      <trkpt lat="59.813151647335" lon="17.63680673622">
        <ele>21.4</ele>
        <time>2017-10-15T14:10:27Z</time>
      </trkpt>
      <trkpt lat="59.813159777778" lon="17.636922825535">
        <ele>21.4</ele>
        <time>2017-10-15T14:10:28Z</time>
      </trkpt>
      <trkpt lat="59.813171009524" lon="17.637034053348">
        <ele>21.2</ele>
        <time>2017-10-15T14:10:29Z</time>
      </trkpt>
      <trkpt lat="59.813173440275" lon="17.637071017527">
        <ele>21.2</ele>
        <time>2017-10-15T14:10:30Z</time>
      </trkpt>
      <trkpt lat="59.813183330917" lon="17.637236643871">
        <ele>21.2</ele>
        <time>2017-10-15T14:10:31Z</time>
      </trkpt>
      <trkpt lat="59.813181319261" lon="17.637381147827">
        <ele>21</ele>
        <time>2017-10-15T14:10:32Z</time>
      </trkpt>
      <trkpt lat="59.813176625397" lon="17.637513246571">
        <ele>21</ele>
        <time>2017-10-15T14:10:33Z</time>
      </trkpt>
      <trkpt lat="59.813178217958" lon="17.637637633967">
        <ele>21</ele>
        <time>2017-10-15T14:10:34Z</time>
      </trkpt>
      <trkpt lat="59.813176290121" lon="17.637760009707">
        <ele>20.8</ele>
        <time>2017-10-15T14:10:35Z</time>
      </trkpt>
      <trkpt lat="59.813170590429" lon="17.637884145646">
        <ele>20.8</ele>
        <time>2017-10-15T14:10:36Z</time>
      </trkpt>
      <trkpt lat="59.813161789434" lon="17.638004174454">
        <ele>20.6</ele>
        <time>2017-10-15T14:10:37Z</time>
      </trkpt>
      <trkpt lat="59.813148797489" lon="17.638150941523">
        <ele>20.6</ele>
        <time>2017-10-15T14:10:38Z</time>
      </trkpt>
      <trkpt lat="59.813135637906" lon="17.638270299779">
        <ele>20.6</ele>
        <time>2017-10-15T14:10:39Z</time>
      </trkpt>
      <trkpt lat="59.813118706468" lon="17.638400554505">
        <ele>20.4</ele>
        <time>2017-10-15T14:10:40Z</time>
      </trkpt>
      <trkpt lat="59.813099092822" lon="17.638528713756">
        <ele>20.2</ele>
        <time>2017-10-15T14:10:41Z</time>
      </trkpt>
      <trkpt lat="59.813077216063" lon="17.63863650499">
        <ele>20</ele>
        <time>2017-10-15T14:10:42Z</time>
      </trkpt>
      <trkpt lat="59.813044107558" lon="17.638783104421">
        <ele>20</ele>
        <time>2017-10-15T14:10:43Z</time>
      </trkpt>
      <trkpt lat="59.81301544146" lon="17.638914616432">
        <ele>19.8</ele>
        <time>2017-10-15T14:10:44Z</time>
      </trkpt>
      <trkpt lat="59.812985182801" lon="17.639048391556">
        <ele>19.6</ele>
        <time>2017-10-15T14:10:45Z</time>
      </trkpt>
      <trkpt lat="59.812952325753" lon="17.639182334318">
        <ele>19.4</ele>
        <time>2017-10-15T14:10:46Z</time>
      </trkpt>
      <trkpt lat="59.81292156418" lon="17.63931208613">
        <ele>19.2</ele>
        <time>2017-10-15T14:10:47Z</time>
      </trkpt>
      <trkpt lat="59.812887785123" lon="17.639449465471">
        <ele>19</ele>
        <time>2017-10-15T14:10:48Z</time>
      </trkpt>
      <trkpt lat="59.812851323858" lon="17.639601764594">
        <ele>18.8</ele>
        <time>2017-10-15T14:10:49Z</time>
      </trkpt>
      <trkpt lat="59.812816538973" lon="17.639746855283">
        <ele>18.6</ele>
        <time>2017-10-15T14:10:50Z</time>
      </trkpt>
      <trkpt lat="59.812783514287" lon="17.639894209085">
        <ele>18.2</ele>
        <time>2017-10-15T14:10:51Z</time>
      </trkpt>
      <trkpt lat="59.812754680551" lon="17.640025721096">
        <ele>18</ele>
        <time>2017-10-15T14:10:52Z</time>
      </trkpt>
      <trkpt lat="59.812719308933" lon="17.640202076272">
        <ele>17.6</ele>
        <time>2017-10-15T14:10:53Z</time>
      </trkpt>
      <trkpt lat="59.812690978111" lon="17.64035479449">
        <ele>17.4</ele>
        <time>2017-10-15T14:10:54Z</time>
      </trkpt>
      <trkpt lat="59.81266088709" lon="17.640524527965">
        <ele>17.2</ele>
        <time>2017-10-15T14:10:55Z</time>
      </trkpt>
      <trkpt lat="59.812635070838" lon="17.640685963359">
        <ele>16.8</ele>
        <time>2017-10-15T14:10:56Z</time>
      </trkpt>
      <trkpt lat="59.812611685337" lon="17.640844213631">
        <ele>16.6</ele>
        <time>2017-10-15T14:10:57Z</time>
      </trkpt>
      <trkpt lat="59.812585366171" lon="17.641015372029">
        <ele>16.2</ele>
        <time>2017-10-15T14:10:58Z</time>
      </trkpt>
      <trkpt lat="59.812565584887" lon="17.641182004201">
        <ele>15.8</ele>
        <time>2017-10-15T14:10:59Z</time>
      </trkpt>
      <trkpt lat="59.812549156363" lon="17.641341176482">
        <ele>15.4</ele>
        <time>2017-10-15T14:11:00Z</time>
      </trkpt>
      <trkpt lat="59.812532560201" lon="17.64151820221">
        <ele>15</ele>
        <time>2017-10-15T14:11:01Z</time>
      </trkpt>
      <trkpt lat="59.812521496093" lon="17.641675698111">
        <ele>14.4</ele>
        <time>2017-10-15T14:11:02Z</time>
      </trkpt>
      <trkpt lat="59.812509426157" lon="17.641856914789">
        <ele>14</ele>
        <time>2017-10-15T14:11:03Z</time>
      </trkpt>
      <trkpt lat="59.812501798628" lon="17.642025223341">
        <ele>13.6</ele>
        <time>2017-10-15T14:11:04Z</time>
      </trkpt>
      <trkpt lat="59.812493584366" lon="17.6421812105">
        <ele>13.2</ele>
        <time>2017-10-15T14:11:05Z</time>
      </trkpt>
      <trkpt lat="59.812488387588" lon="17.642342729713">
        <ele>13.2</ele>
        <time>2017-10-15T14:11:06Z</time>
      </trkpt>
      <trkpt lat="59.812486459751" lon="17.642504332745">
        <ele>12.8</ele>
        <time>2017-10-15T14:11:07Z</time>
      </trkpt>
      <trkpt lat="59.812488806683" lon="17.642700301567">
        <ele>12.6</ele>
        <time>2017-10-15T14:11:08Z</time>
      </trkpt>
      <trkpt lat="59.812494757832" lon="17.642874058354">
        <ele>12.4</ele>
        <time>2017-10-15T14:11:09Z</time>
      </trkpt>
      <trkpt lat="59.812501379533" lon="17.643043037458">
        <ele>12.4</ele>
        <time>2017-10-15T14:11:10Z</time>
      </trkpt>
      <trkpt lat="59.812513449469" lon="17.643213944399">
        <ele>12.2</ele>
        <time>2017-10-15T14:11:11Z</time>
      </trkpt>
      <trkpt lat="59.812525184129" lon="17.643357945441">
        <ele>11.8</ele>
        <time>2017-10-15T14:11:12Z</time>
      </trkpt>
      <trkpt lat="59.81254102592" lon="17.643550561503">
        <ele>11.6</ele>
        <time>2017-10-15T14:11:13Z</time>
      </trkpt>
      <trkpt lat="59.812558208815" lon="17.643714679105">
        <ele>11.4</ele>
        <time>2017-10-15T14:11:14Z</time>
      </trkpt>
      <trkpt lat="59.812576648995" lon="17.643873097015">
        <ele>11.2</ele>
        <time>2017-10-15T14:11:15Z</time>
      </trkpt>
      <trkpt lat="59.812593999528" lon="17.644026401966">
        <ele>11</ele>
        <time>2017-10-15T14:11:16Z</time>
      </trkpt>
      <trkpt lat="59.81260724293" lon="17.644170319189">
        <ele>10.8</ele>
        <time>2017-10-15T14:11:17Z</time>
      </trkpt>
      <trkpt lat="59.81262065397" lon="17.644320187561">
        <ele>10.6</ele>
        <time>2017-10-15T14:11:18Z</time>
      </trkpt>
      <trkpt lat="59.812633562096" lon="17.644479024566">
        <ele>10.4</ele>
        <time>2017-10-15T14:11:19Z</time>
      </trkpt>
      <trkpt lat="59.812647559869" lon="17.644624618169">
        <ele>10.4</ele>
        <time>2017-10-15T14:11:20Z</time>
      </trkpt>
      <trkpt lat="59.812660551814" lon="17.644766942831">
        <ele>10.2</ele>
        <time>2017-10-15T14:11:21Z</time>
      </trkpt>
      <trkpt lat="59.81267010718" lon="17.644886133449">
        <ele>10.2</ele>
        <time>2017-10-15T14:11:22Z</time>
      </trkpt>
      <trkpt lat="59.812684272591" lon="17.64503860021">
        <ele>10</ele>
        <time>2017-10-15T14:11:23Z</time>
      </trkpt>
      <trkpt lat="59.812701706943" lon="17.645144295969">
        <ele>10</ele>
        <time>2017-10-15T14:11:24Z</time>
      </trkpt>
      <trkpt lat="59.812726601186" lon="17.645258457447">
        <ele>9.6</ele>
        <time>2017-10-15T14:11:25Z</time>
      </trkpt>
      <trkpt lat="59.81274219152" lon="17.645366583957">
        <ele>9.8</ele>
        <time>2017-10-15T14:11:26Z</time>
      </trkpt>
      <trkpt lat="59.812741856244" lon="17.645476722123">
        <ele>9.6</ele>
        <time>2017-10-15T14:11:27Z</time>
      </trkpt>
      <trkpt lat="59.812736827104" lon="17.645592392343">
        <ele>9.6</ele>
        <time>2017-10-15T14:11:28Z</time>
      </trkpt>
      <trkpt lat="59.812744035538" lon="17.645704039251">
        <ele>9.6</ele>
        <time>2017-10-15T14:11:29Z</time>
      </trkpt>
      <trkpt lat="59.812758536225" lon="17.645811243752">
        <ele>9.6</ele>
        <time>2017-10-15T14:11:30Z</time>
      </trkpt>
      <trkpt lat="59.812772785455" lon="17.645940408831">
        <ele>9.6</ele>
        <time>2017-10-15T14:11:31Z</time>
      </trkpt>
      <trkpt lat="59.812784268658" lon="17.646055743775">
        <ele>9.8</ele>
        <time>2017-10-15T14:11:32Z</time>
      </trkpt>
      <trkpt lat="59.812796757689" lon="17.646192117288">
        <ele>9.8</ele>
        <time>2017-10-15T14:11:33Z</time>
      </trkpt>
      <trkpt lat="59.812808240892" lon="17.646322372014">
        <ele>9.6</ele>
        <time>2017-10-15T14:11:34Z</time>
      </trkpt>
      <trkpt lat="59.812821651932" lon="17.646451956188">
        <ele>9.6</ele>
        <time>2017-10-15T14:11:35Z</time>
      </trkpt>
      <trkpt lat="59.812836152619" lon="17.646573577557">
        <ele>9.6</ele>
        <time>2017-10-15T14:11:36Z</time>
      </trkpt>
      <trkpt lat="59.812849815116" lon="17.646698384048">
        <ele>9.6</ele>
        <time>2017-10-15T14:11:37Z</time>
      </trkpt>
      <trkpt lat="59.812861465957" lon="17.646850347895">
        <ele>9.6</ele>
        <time>2017-10-15T14:11:38Z</time>
      </trkpt>
      <trkpt lat="59.812871524237" lon="17.646980183526">
        <ele>9.6</ele>
        <time>2017-10-15T14:11:39Z</time>
      </trkpt>
      <trkpt lat="59.812884348544" lon="17.647112952822">
        <ele>9.4</ele>
        <time>2017-10-15T14:11:40Z</time>
      </trkpt>
      <trkpt lat="59.812895999385" lon="17.64724052534">
        <ele>9.6</ele>
        <time>2017-10-15T14:11:41Z</time>
      </trkpt>
      <trkpt lat="59.812905135656" lon="17.647349154764">
        <ele>9.6</ele>
        <time>2017-10-15T14:11:42Z</time>
      </trkpt>
      <trkpt lat="59.812920474533" lon="17.647503046448">
        <ele>9.8</ele>
        <time>2017-10-15T14:11:43Z</time>
      </trkpt>
      <trkpt lat="59.812934807582" lon="17.647631540975">
        <ele>9.8</ele>
        <time>2017-10-15T14:11:44Z</time>
      </trkpt>
      <trkpt lat="59.812948050984" lon="17.647762047158">
        <ele>9.8</ele>
        <time>2017-10-15T14:11:45Z</time>
      </trkpt>
      <trkpt lat="59.812958025445" lon="17.64789682811">
        <ele>10</ele>
        <time>2017-10-15T14:11:46Z</time>
      </trkpt>
      <trkpt lat="59.81296766463" lon="17.648015180538">
        <ele>9.8</ele>
        <time>2017-10-15T14:11:47Z</time>
      </trkpt>
      <trkpt lat="59.812981243308" lon="17.648144177979">
        <ele>9.8</ele>
        <time>2017-10-15T14:11:48Z</time>
      </trkpt>
      <trkpt lat="59.812996246909" lon="17.648281724958">
        <ele>9.8</ele>
        <time>2017-10-15T14:11:49Z</time>
      </trkpt>
      <trkpt lat="59.813008903578" lon="17.64841147677">
        <ele>10</ele>
        <time>2017-10-15T14:11:50Z</time>
      </trkpt>
      <trkpt lat="59.813021476428" lon="17.648538378736">
        <ele>10</ele>
        <time>2017-10-15T14:11:51Z</time>
      </trkpt>
      <trkpt lat="59.813036312391" lon="17.648646337608">
        <ele>10</ele>
        <time>2017-10-15T14:11:52Z</time>
      </trkpt>
      <trkpt lat="59.813053243829" lon="17.648788913727">
        <ele>10.2</ele>
        <time>2017-10-15T14:11:53Z</time>
      </trkpt>
      <trkpt lat="59.813065481403" lon="17.648898716617">
        <ele>10.4</ele>
        <time>2017-10-15T14:11:54Z</time>
      </trkpt>
      <trkpt lat="59.813079898271" lon="17.649025283307">
        <ele>10.6</ele>
        <time>2017-10-15T14:11:55Z</time>
      </trkpt>
      <trkpt lat="59.813094650415" lon="17.649137433129">
        <ele>10.6</ele>
        <time>2017-10-15T14:11:56Z</time>
      </trkpt>
      <trkpt lat="59.813109570197" lon="17.649228209106">
        <ele>10.8</ele>
        <time>2017-10-15T14:11:57Z</time>
      </trkpt>
      <trkpt lat="59.813117113907" lon="17.649310519364">
        <ele>10.8</ele>
        <time>2017-10-15T14:11:58Z</time>
      </trkpt>
      <trkpt lat="59.813098086994" lon="17.649364163524">
        <ele>10.6</ele>
        <time>2017-10-15T14:11:59Z</time>
      </trkpt>
      <trkpt lat="59.813074450036" lon="17.649390566509">
        <ele>10.6</ele>
        <time>2017-10-15T14:12:00Z</time>
      </trkpt>
      <trkpt lat="59.813049388155" lon="17.649407917042">
        <ele>10.6</ele>
        <time>2017-10-15T14:12:01Z</time>
      </trkpt>
      <trkpt lat="59.81302549974" lon="17.649421160444">
        <ele>10.6</ele>
        <time>2017-10-15T14:12:02Z</time>
      </trkpt>
      <trkpt lat="59.812994654348" lon="17.649451502922">
        <ele>10.6</ele>
        <time>2017-10-15T14:12:03Z</time>
      </trkpt>
      <trkpt lat="59.812976465625" lon="17.649509924765">
        <ele>10.8</ele>
        <time>2017-10-15T14:12:04Z</time>
      </trkpt>
      <trkpt lat="59.812966742621" lon="17.649586535331">
        <ele>10.8</ele>
        <time>2017-10-15T14:12:05Z</time>
      </trkpt>
      <trkpt lat="59.812948134803" lon="17.649659457861">
        <ele>10.8</ele>
        <time>2017-10-15T14:12:06Z</time>
      </trkpt>
      <trkpt lat="59.812917289411" lon="17.649718885532">
        <ele>11</ele>
        <time>2017-10-15T14:12:07Z</time>
      </trkpt>
      <trkpt lat="59.812875882825" lon="17.649768003466">
        <ele>11</ele>
        <time>2017-10-15T14:12:08Z</time>
      </trkpt>
      <trkpt lat="59.812843863967" lon="17.649798345944">
        <ele>11</ele>
        <time>2017-10-15T14:12:09Z</time>
      </trkpt>
      <trkpt lat="59.812813940584" lon="17.64980287217">
        <ele>11</ele>
        <time>2017-10-15T14:12:10Z</time>
      </trkpt>
      <trkpt lat="59.812801451553" lon="17.649802704532">
        <ele>10.8</ele>
        <time>2017-10-15T14:12:11Z</time>
      </trkpt>
      <trkpt lat="59.812803966123" lon="17.649810667337">
        <ele>10.8</ele>
        <time>2017-10-15T14:12:12Z</time>
      </trkpt>
      <trkpt lat="59.812808324711" lon="17.649817289038">
        <ele>10.8</ele>
        <time>2017-10-15T14:12:13Z</time>
      </trkpt>
      <trkpt lat="59.81281008491" lon="17.649851822466">
        <ele>10.6</ele>
        <time>2017-10-15T14:12:14Z</time>
      </trkpt>
      <trkpt lat="59.812808157073" lon="17.649884763333">
        <ele>10.6</ele>
        <time>2017-10-15T14:12:15Z</time>
      </trkpt>
      <trkpt lat="59.812810839281" lon="17.64993195343">
        <ele>10.4</ele>
        <time>2017-10-15T14:12:16Z</time>
      </trkpt>
      <trkpt lat="59.812821316656" lon="17.649974533482">
        <ele>10.4</ele>
        <time>2017-10-15T14:12:17Z</time>
      </trkpt>
      <trkpt lat="59.812836487895" lon="17.650021304484">
        <ele>10.4</ele>
        <time>2017-10-15T14:12:18Z</time>
      </trkpt>
      <trkpt lat="59.812847384365" lon="17.65007947487">
        <ele>10.4</ele>
        <time>2017-10-15T14:12:19Z</time>
      </trkpt>
      <trkpt lat="59.812831458755" lon="17.650142842034">
        <ele>10.6</ele>
        <time>2017-10-15T14:12:20Z</time>
      </trkpt>
      <trkpt lat="59.81279499749" lon="17.650163712965">
        <ele>10.4</ele>
        <time>2017-10-15T14:12:21Z</time>
      </trkpt>
      <trkpt lat="59.812761386071" lon="17.65015742654">
        <ele>10.4</ele>
        <time>2017-10-15T14:12:22Z</time>
      </trkpt>
      <trkpt lat="59.812713106327" lon="17.650161952766">
        <ele>10.4</ele>
        <time>2017-10-15T14:12:23Z</time>
      </trkpt>
      <trkpt lat="59.812672035017" lon="17.650164299698">
        <ele>10.4</ele>
        <time>2017-10-15T14:12:24Z</time>
      </trkpt>
      <trkpt lat="59.812624677282" lon="17.650170921399">
        <ele>10.4</ele>
        <time>2017-10-15T14:12:25Z</time>
      </trkpt>
      <trkpt lat="59.812577403366" lon="17.65019514509">
        <ele>10.4</ele>
        <time>2017-10-15T14:12:26Z</time>
      </trkpt>
      <trkpt lat="59.812534990952" lon="17.650233031278">
        <ele>10.6</ele>
        <time>2017-10-15T14:12:27Z</time>
      </trkpt>
      <trkpt lat="59.812482604077" lon="17.650275276054">
        <ele>10.6</ele>
        <time>2017-10-15T14:12:28Z</time>
      </trkpt>
      <trkpt lat="59.812429881926" lon="17.650291201664">
        <ele>10.6</ele>
        <time>2017-10-15T14:12:29Z</time>
      </trkpt>
      <trkpt lat="59.812380680173" lon="17.650299415926">
        <ele>10.8</ele>
        <time>2017-10-15T14:12:30Z</time>
      </trkpt>
      <trkpt lat="59.812319911398" lon="17.65030662436">
        <ele>10.8</ele>
        <time>2017-10-15T14:12:31Z</time>
      </trkpt>
      <trkpt lat="59.812269955274" lon="17.650309390387">
        <ele>10.8</ele>
        <time>2017-10-15T14:12:32Z</time>
      </trkpt>
      <trkpt lat="59.812210695241" lon="17.65031416807">
        <ele>10.6</ele>
        <time>2017-10-15T14:12:33Z</time>
      </trkpt>
      <trkpt lat="59.81215378214" lon="17.650311485862">
        <ele>10.4</ele>
        <time>2017-10-15T14:12:34Z</time>
      </trkpt>
      <trkpt lat="59.812097288134" lon="17.650302181953">
        <ele>10.2</ele>
        <time>2017-10-15T14:12:35Z</time>
      </trkpt>
      <trkpt lat="59.812043057241" lon="17.650304277428">
        <ele>9.8</ele>
        <time>2017-10-15T14:12:36Z</time>
      </trkpt>
      <trkpt lat="59.811988574891" lon="17.65032590273">
        <ele>9.8</ele>
        <time>2017-10-15T14:12:37Z</time>
      </trkpt>
      <trkpt lat="59.811921016777" lon="17.650346941299">
        <ele>9.6</ele>
        <time>2017-10-15T14:12:38Z</time>
      </trkpt>
      <trkpt lat="59.811861337649" lon="17.65036026852">
        <ele>9.4</ele>
        <time>2017-10-15T14:12:39Z</time>
      </trkpt>
      <trkpt lat="59.811801155607" lon="17.65038122327">
        <ele>9.4</ele>
        <time>2017-10-15T14:12:40Z</time>
      </trkpt>
      <trkpt lat="59.811740973565" lon="17.650400082545">
        <ele>9.2</ele>
        <time>2017-10-15T14:12:41Z</time>
      </trkpt>
      <trkpt lat="59.811689508699" lon="17.650417181621">
        <ele>9</ele>
        <time>2017-10-15T14:12:42Z</time>
      </trkpt>
      <trkpt lat="59.811619603653" lon="17.650442494959">
        <ele>8.8</ele>
        <time>2017-10-15T14:12:43Z</time>
      </trkpt>
      <trkpt lat="59.811559673068" lon="17.650461270415">
        <ele>8.8</ele>
        <time>2017-10-15T14:12:44Z</time>
      </trkpt>
      <trkpt lat="59.811499574845" lon="17.650484153002">
        <ele>8.6</ele>
        <time>2017-10-15T14:12:45Z</time>
      </trkpt>
      <trkpt lat="59.811439225165" lon="17.650509717797">
        <ele>8.4</ele>
        <time>2017-10-15T14:12:46Z</time>
      </trkpt>
      <trkpt lat="59.811383904625" lon="17.650532684203">
        <ele>8.2</ele>
        <time>2017-10-15T14:12:47Z</time>
      </trkpt>
      <trkpt lat="59.811323722583" lon="17.650552046392">
        <ele>8.2</ele>
        <time>2017-10-15T14:12:48Z</time>
      </trkpt>
      <trkpt lat="59.811259684867" lon="17.650571995314">
        <ele>8.2</ele>
        <time>2017-10-15T14:12:49Z</time>
      </trkpt>
      <trkpt lat="59.811199251368" lon="17.650588591476">
        <ele>8.2</ele>
        <time>2017-10-15T14:12:50Z</time>
      </trkpt>
      <trkpt lat="59.811137476765" lon="17.650606780199">
        <ele>8</ele>
        <time>2017-10-15T14:12:51Z</time>
      </trkpt>
      <trkpt lat="59.811085592804" lon="17.650627064397">
        <ele>8</ele>
        <time>2017-10-15T14:12:52Z</time>
      </trkpt>
      <trkpt lat="59.811016693586" lon="17.650658831798">
        <ele>8.2</ele>
        <time>2017-10-15T14:12:53Z</time>
      </trkpt>
      <trkpt lat="59.81095936139" lon="17.650683474584">
        <ele>8.2</ele>
        <time>2017-10-15T14:12:54Z</time>
      </trkpt>
      <trkpt lat="59.810891719457" lon="17.650702669135">
        <ele>8.4</ele>
        <time>2017-10-15T14:12:55Z</time>
      </trkpt>
      <trkpt lat="59.810828184655" lon="17.650717169822">
        <ele>8.2</ele>
        <time>2017-10-15T14:12:56Z</time>
      </trkpt>
      <trkpt lat="59.810769678993" lon="17.650739800952">
        <ele>8.4</ele>
        <time>2017-10-15T14:12:57Z</time>
      </trkpt>
      <trkpt lat="59.810703629621" lon="17.65077098162">
        <ele>8.2</ele>
        <time>2017-10-15T14:12:58Z</time>
      </trkpt>
      <trkpt lat="59.810639424267" lon="17.650793026017">
        <ele>8</ele>
        <time>2017-10-15T14:12:59Z</time>
      </trkpt>
      <trkpt lat="59.810581253881" lon="17.650814483681">
        <ele>8</ele>
        <time>2017-10-15T14:13:00Z</time>
      </trkpt>
      <trkpt lat="59.810512857577" lon="17.650837533906">
        <ele>7.8</ele>
        <time>2017-10-15T14:13:01Z</time>
      </trkpt>
      <trkpt lat="59.810452843173" lon="17.65085731519">
        <ele>7.8</ele>
        <time>2017-10-15T14:13:02Z</time>
      </trkpt>
      <trkpt lat="59.810383189584" lon="17.650885143098">
        <ele>7.8</ele>
        <time>2017-10-15T14:13:03Z</time>
      </trkpt>
      <trkpt lat="59.810319487144" lon="17.650910624074">
        <ele>7.8</ele>
        <time>2017-10-15T14:13:04Z</time>
      </trkpt>
      <trkpt lat="59.810255533247" lon="17.650932836109">
        <ele>7.8</ele>
        <time>2017-10-15T14:13:05Z</time>
      </trkpt>
      <trkpt lat="59.810239020904" lon="17.650939038715">
        <ele>7.6</ele>
        <time>2017-10-15T14:13:06Z</time>
      </trkpt>
      <trkpt lat="59.810151765325" lon="17.650969884107">
        <ele>7.6</ele>
        <time>2017-10-15T14:13:07Z</time>
      </trkpt>
      <trkpt lat="59.810063084823" lon="17.651001316232">
        <ele>7.6</ele>
        <time>2017-10-15T14:13:08Z</time>
      </trkpt>
      <trkpt lat="59.809999214745" lon="17.651022187163">
        <ele>7.4</ele>
        <time>2017-10-15T14:13:09Z</time>
      </trkpt>
      <trkpt lat="59.809936350495" lon="17.651047500501">
        <ele>7.2</ele>
        <time>2017-10-15T14:13:10Z</time>
      </trkpt>
      <trkpt lat="59.809873737702" lon="17.651072227106">
        <ele>7</ele>
        <time>2017-10-15T14:13:11Z</time>
      </trkpt>
      <trkpt lat="59.809821602284" lon="17.651087398345">
        <ele>6.8</ele>
        <time>2017-10-15T14:13:12Z</time>
      </trkpt>
      <trkpt lat="59.809749517944" lon="17.65111212495">
        <ele>6.4</ele>
        <time>2017-10-15T14:13:13Z</time>
      </trkpt>
      <trkpt lat="59.809687575703" lon="17.651135845727">
        <ele>6.4</ele>
        <time>2017-10-15T14:13:14Z</time>
      </trkpt>
      <trkpt lat="59.809623873263" lon="17.65116241635">
        <ele>6.4</ele>
        <time>2017-10-15T14:13:15Z</time>
      </trkpt>
      <trkpt lat="59.809561679565" lon="17.651182700548">
        <ele>6.2</ele>
        <time>2017-10-15T14:13:16Z</time>
      </trkpt>
      <trkpt lat="59.809501581342" lon="17.651196195407">
        <ele>6.2</ele>
        <time>2017-10-15T14:13:17Z</time>
      </trkpt>
      <trkpt lat="59.809437878902" lon="17.651218407442">
        <ele>6.2</ele>
        <time>2017-10-15T14:13:18Z</time>
      </trkpt>
      <trkpt lat="59.809368812046" lon="17.651248247006">
        <ele>6.2</ele>
        <time>2017-10-15T14:13:19Z</time>
      </trkpt>
      <trkpt lat="59.809303014131" lon="17.651277164561">
        <ele>6.4</ele>
        <time>2017-10-15T14:13:20Z</time>
      </trkpt>
      <trkpt lat="59.809236629483" lon="17.651303567546">
        <ele>6.4</ele>
        <time>2017-10-15T14:13:21Z</time>
      </trkpt>
      <trkpt lat="59.809176615079" lon="17.651323013554">
        <ele>6.4</ele>
        <time>2017-10-15T14:13:22Z</time>
      </trkpt>
      <trkpt lat="59.809101345617" lon="17.651347907797">
        <ele>6.4</ele>
        <time>2017-10-15T14:13:23Z</time>
      </trkpt>
      <trkpt lat="59.80903990629" lon="17.651371377117">
        <ele>6.4</ele>
        <time>2017-10-15T14:13:24Z</time>
      </trkpt>
      <trkpt lat="59.808967319036" lon="17.651401468138">
        <ele>6.2</ele>
        <time>2017-10-15T14:13:25Z</time>
      </trkpt>
      <trkpt lat="59.808899844741" lon="17.651429128408">
        <ele>6.2</ele>
        <time>2017-10-15T14:13:26Z</time>
      </trkpt>
      <trkpt lat="59.808836645215" lon="17.651452681547">
        <ele>6</ele>
        <time>2017-10-15T14:13:27Z</time>
      </trkpt>
      <trkpt lat="59.808763974142" lon="17.651476989057">
        <ele>6</ele>
        <time>2017-10-15T14:13:28Z</time>
      </trkpt>
      <trkpt lat="59.808699936426" lon="17.651502302395">
        <ele>6</ele>
        <time>2017-10-15T14:13:29Z</time>
      </trkpt>
      <trkpt lat="59.808634054692" lon="17.651526106991">
        <ele>5.8</ele>
        <time>2017-10-15T14:13:30Z</time>
      </trkpt>
      <trkpt lat="59.808562892361" lon="17.651553096709">
        <ele>5.8</ele>
        <time>2017-10-15T14:13:31Z</time>
      </trkpt>
      <trkpt lat="59.808499189921" lon="17.651575895477">
        <ele>5.8</ele>
        <time>2017-10-15T14:13:32Z</time>
      </trkpt>
      <trkpt lat="59.808428111409" lon="17.651598358969">
        <ele>5.6</ele>
        <time>2017-10-15T14:13:33Z</time>
      </trkpt>
      <trkpt lat="59.808362145856" lon="17.651616799149">
        <ele>5.6</ele>
        <time>2017-10-15T14:13:34Z</time>
      </trkpt>
      <trkpt lat="59.808296683217" lon="17.651641274297">
        <ele>5.4</ele>
        <time>2017-10-15T14:13:35Z</time>
      </trkpt>
      <trkpt lat="59.808236836451" lon="17.651666587635">
        <ele>5.4</ele>
        <time>2017-10-15T14:13:36Z</time>
      </trkpt>
      <trkpt lat="59.808174558934" lon="17.651692320068">
        <ele>5.2</ele>
        <time>2017-10-15T14:13:37Z</time>
      </trkpt>
      <trkpt lat="59.80810364806" lon="17.651719142148">
        <ele>5.2</ele>
        <time>2017-10-15T14:13:38Z</time>
      </trkpt>
      <trkpt lat="59.80803994562" lon="17.651742611468">
        <ele>5.2</ele>
        <time>2017-10-15T14:13:39Z</time>
      </trkpt>
      <trkpt lat="59.807978171017" lon="17.65176088401">
        <ele>5</ele>
        <time>2017-10-15T14:13:40Z</time>
      </trkpt>
      <trkpt lat="59.80791756988" lon="17.651787538452">
        <ele>5</ele>
        <time>2017-10-15T14:13:41Z</time>
      </trkpt>
      <trkpt lat="59.80786727848" lon="17.651807990288">
        <ele>5</ele>
        <time>2017-10-15T14:13:42Z</time>
      </trkpt>
      <trkpt lat="59.807799720366" lon="17.651832297798">
        <ele>5</ele>
        <time>2017-10-15T14:13:43Z</time>
      </trkpt>
      <trkpt lat="59.807746243844" lon="17.651851827625">
        <ele>5</ele>
        <time>2017-10-15T14:13:44Z</time>
      </trkpt>
      <trkpt lat="59.807686313259" lon="17.651875967497">
        <ele>5</ele>
        <time>2017-10-15T14:13:45Z</time>
      </trkpt>
      <trkpt lat="59.8076309089" lon="17.651897760437">
        <ele>5</ele>
        <time>2017-10-15T14:13:46Z</time>
      </trkpt>
      <trkpt lat="59.807577683835" lon="17.651916200617">
        <ele>5.2</ele>
        <time>2017-10-15T14:13:47Z</time>
      </trkpt>
      <trkpt lat="59.807520770734" lon="17.651934305521">
        <ele>5.2</ele>
        <time>2017-10-15T14:13:48Z</time>
      </trkpt>
      <trkpt lat="59.807459415226" lon="17.651951572235">
        <ele>5.4</ele>
        <time>2017-10-15T14:13:49Z</time>
      </trkpt>
      <trkpt lat="59.807403172677" lon="17.651977723763">
        <ele>5.6</ele>
        <time>2017-10-15T14:13:50Z</time>
      </trkpt>
      <trkpt lat="59.807346846309" lon="17.652002198911">
        <ele>5.6</ele>
        <time>2017-10-15T14:13:51Z</time>
      </trkpt>
      <trkpt lat="59.807296219633" lon="17.652021896376">
        <ele>5.8</ele>
        <time>2017-10-15T14:13:52Z</time>
      </trkpt>
      <trkpt lat="59.807233858297" lon="17.652038157262">
        <ele>6</ele>
        <time>2017-10-15T14:13:53Z</time>
      </trkpt>
      <trkpt lat="59.807200749792" lon="17.652050981569">
        <ele>6</ele>
        <time>2017-10-15T14:13:54Z</time>
      </trkpt>
      <trkpt lat="59.807124139226" lon="17.652081575504">
        <ele>6</ele>
        <time>2017-10-15T14:13:55Z</time>
      </trkpt>
      <trkpt lat="59.807070495066" lon="17.652105212462">
        <ele>5.8</ele>
        <time>2017-10-15T14:13:56Z</time>
      </trkpt>
      <trkpt lat="59.807020622761" lon="17.652120886615">
        <ele>5.8</ele>
        <time>2017-10-15T14:13:57Z</time>
      </trkpt>
      <trkpt lat="59.806961865642" lon="17.65213220218">
        <ele>5.8</ele>
        <time>2017-10-15T14:13:58Z</time>
      </trkpt>
      <trkpt lat="59.806911658061" lon="17.652149049799">
        <ele>5.8</ele>
        <time>2017-10-15T14:13:59Z</time>
      </trkpt>
      <trkpt lat="59.806856253702" lon="17.652167657617">
        <ele>6</ele>
        <time>2017-10-15T14:14:00Z</time>
      </trkpt>
      <trkpt lat="59.80679607166" lon="17.652192300403">
        <ele>6</ele>
        <time>2017-10-15T14:14:01Z</time>
      </trkpt>
      <trkpt lat="59.806746702269" lon="17.652208309832">
        <ele>6.2</ele>
        <time>2017-10-15T14:14:02Z</time>
      </trkpt>
      <trkpt lat="59.806681826363" lon="17.652244016726">
        <ele>6.4</ele>
        <time>2017-10-15T14:14:03Z</time>
      </trkpt>
      <trkpt lat="59.8066250809" lon="17.652263714191">
        <ele>6.6</ele>
        <time>2017-10-15T14:14:04Z</time>
      </trkpt>
      <trkpt lat="59.806567664885" lon="17.652284920398">
        <ele>6.8</ele>
        <time>2017-10-15T14:14:05Z</time>
      </trkpt>
      <trkpt lat="59.806525755385" lon="17.652297660886">
        <ele>6.8</ele>
        <time>2017-10-15T14:14:06Z</time>
      </trkpt>
      <trkpt lat="59.806460125108" lon="17.652319202369">
        <ele>6.8</ele>
        <time>2017-10-15T14:14:07Z</time>
      </trkpt>
      <trkpt lat="59.806394411012" lon="17.652345270078">
        <ele>7</ele>
        <time>2017-10-15T14:14:08Z</time>
      </trkpt>
      <trkpt lat="59.806336827359" lon="17.652367146837">
        <ele>7</ele>
        <time>2017-10-15T14:14:09Z</time>
      </trkpt>
      <trkpt lat="59.806278321697" lon="17.652393298365">
        <ele>6.8</ele>
        <time>2017-10-15T14:14:10Z</time>
      </trkpt>
      <trkpt lat="59.806219732216" lon="17.652416264771">
        <ele>6.8</ele>
        <time>2017-10-15T14:14:11Z</time>
      </trkpt>
      <trkpt lat="59.80616826735" lon="17.652432525657">
        <ele>7</ele>
        <time>2017-10-15T14:14:12Z</time>
      </trkpt>
      <trkpt lat="59.806099871046" lon="17.652460185927">
        <ele>6.8</ele>
        <time>2017-10-15T14:14:13Z</time>
      </trkpt>
      <trkpt lat="59.806044885782" lon="17.652486421274">
        <ele>6.8</ele>
        <time>2017-10-15T14:14:14Z</time>
      </trkpt>
      <trkpt lat="59.805982943541" lon="17.652510393508">
        <ele>6.8</ele>
        <time>2017-10-15T14:14:15Z</time>
      </trkpt>
      <trkpt lat="59.80592435406" lon="17.652528079317">
        <ele>6.8</ele>
        <time>2017-10-15T14:14:16Z</time>
      </trkpt>
      <trkpt lat="59.80586987171" lon="17.652541741814">
        <ele>6.6</ele>
        <time>2017-10-15T14:14:17Z</time>
      </trkpt>
      <trkpt lat="59.805812371876" lon="17.652556829234">
        <ele>6.6</ele>
        <time>2017-10-15T14:14:18Z</time>
      </trkpt>
      <trkpt lat="59.805751184006" lon="17.652576191423">
        <ele>6.6</ele>
        <time>2017-10-15T14:14:19Z</time>
      </trkpt>
      <trkpt lat="59.805699635321" lon="17.652605360435">
        <ele>6.6</ele>
        <time>2017-10-15T14:14:20Z</time>
      </trkpt>
      <trkpt lat="59.805653534871" lon="17.652643162804">
        <ele>6.6</ele>
        <time>2017-10-15T14:14:21Z</time>
      </trkpt>
      <trkpt lat="59.80560919462" lon="17.65266612921">
        <ele>6.6</ele>
        <time>2017-10-15T14:14:22Z</time>
      </trkpt>
      <trkpt lat="59.80555722684" lon="17.65268205482">
        <ele>6.6</ele>
        <time>2017-10-15T14:14:23Z</time>
      </trkpt>
      <trkpt lat="59.805515149702" lon="17.65268708396">
        <ele>6.6</ele>
        <time>2017-10-15T14:14:24Z</time>
      </trkpt>
      <trkpt lat="59.805464103931" lon="17.652706194692">
        <ele>6.6</ele>
        <time>2017-10-15T14:14:25Z</time>
      </trkpt>
      <trkpt lat="59.805418674033" lon="17.652719438094">
        <ele>6.6</ele>
        <time>2017-10-15T14:14:26Z</time>
      </trkpt>
      <trkpt lat="59.805374333782" lon="17.652736369532">
        <ele>6.6</ele>
        <time>2017-10-15T14:14:27Z</time>
      </trkpt>
      <trkpt lat="59.80532504821" lon="17.652761515232">
        <ele>6.8</ele>
        <time>2017-10-15T14:14:28Z</time>
      </trkpt>
      <trkpt lat="59.805281797606" lon="17.652784733095">
        <ele>7</ele>
        <time>2017-10-15T14:14:29Z</time>
      </trkpt>
      <trkpt lat="59.805241313029" lon="17.652818344514">
        <ele>7</ele>
        <time>2017-10-15T14:14:30Z</time>
      </trkpt>
      <trkpt lat="59.805201247547" lon="17.652872072493">
        <ele>7.2</ele>
        <time>2017-10-15T14:14:31Z</time>
      </trkpt>
      <trkpt lat="59.805171407983" lon="17.652933344182">
        <ele>7.2</ele>
        <time>2017-10-15T14:14:32Z</time>
      </trkpt>
      <trkpt lat="59.805143831532" lon="17.653015738259">
        <ele>7.2</ele>
        <time>2017-10-15T14:14:33Z</time>
      </trkpt>
      <trkpt lat="59.805129414664" lon="17.65310617896">
        <ele>7.2</ele>
        <time>2017-10-15T14:14:34Z</time>
      </trkpt>
      <trkpt lat="59.805130839587" lon="17.653198966593">
        <ele>7.2</ele>
        <time>2017-10-15T14:14:35Z</time>
      </trkpt>
      <trkpt lat="59.805141149324" lon="17.653280941575">
        <ele>7.2</ele>
        <time>2017-10-15T14:14:36Z</time>
      </trkpt>
      <trkpt lat="59.805145172636" lon="17.653360318168">
        <ele>7.2</ele>
        <time>2017-10-15T14:14:37Z</time>
      </trkpt>
      <trkpt lat="59.805139556763" lon="17.653436258182">
        <ele>7</ele>
        <time>2017-10-15T14:14:38Z</time>
      </trkpt>
      <trkpt lat="59.80512136804" lon="17.653488309781">
        <ele>7</ele>
        <time>2017-10-15T14:14:39Z</time>
      </trkpt>
      <trkpt lat="59.80510041329" lon="17.653544300873">
        <ele>6.8</ele>
        <time>2017-10-15T14:14:40Z</time>
      </trkpt>
      <trkpt lat="59.805085996422" lon="17.653608590046">
        <ele>6.8</ele>
        <time>2017-10-15T14:14:41Z</time>
      </trkpt>
      <trkpt lat="59.805081218739" lon="17.653670783744">
        <ele>6.6</ele>
        <time>2017-10-15T14:14:42Z</time>
      </trkpt>
      <trkpt lat="59.805080548187" lon="17.653753010183">
        <ele>6.4</ele>
        <time>2017-10-15T14:14:43Z</time>
      </trkpt>
      <trkpt lat="59.805082308386" lon="17.65382199322">
        <ele>6.4</ele>
        <time>2017-10-15T14:14:44Z</time>
      </trkpt>
      <trkpt lat="59.805084571499" lon="17.65389994489">
        <ele>6.2</ele>
        <time>2017-10-15T14:14:45Z</time>
      </trkpt>
      <trkpt lat="59.805088427173" lon="17.653974376162">
        <ele>6</ele>
        <time>2017-10-15T14:14:46Z</time>
      </trkpt>
      <trkpt lat="59.805092366666" lon="17.654042688647">
        <ele>5.8</ele>
        <time>2017-10-15T14:14:47Z</time>
      </trkpt>
      <trkpt lat="59.805095048874" lon="17.654125669457">
        <ele>5.8</ele>
        <time>2017-10-15T14:14:48Z</time>
      </trkpt>
      <trkpt lat="59.805093791589" lon="17.654221306936">
        <ele>5.6</ele>
        <time>2017-10-15T14:14:49Z</time>
      </trkpt>
      <trkpt lat="59.805095132693" lon="17.654318117881">
        <ele>5.6</ele>
        <time>2017-10-15T14:14:50Z</time>
      </trkpt>
      <trkpt lat="59.805100748566" lon="17.654417359577">
        <ele>5.4</ele>
        <time>2017-10-15T14:14:51Z</time>
      </trkpt>
      <trkpt lat="59.805105861525" lon="17.654513080875">
        <ele>5.4</ele>
        <time>2017-10-15T14:14:52Z</time>
      </trkpt>
      <trkpt lat="59.805106112982" lon="17.654634534606">
        <ele>5.4</ele>
        <time>2017-10-15T14:14:53Z</time>
      </trkpt>
      <trkpt lat="59.805112483226" lon="17.654735033587">
        <ele>5.4</ele>
        <time>2017-10-15T14:14:54Z</time>
      </trkpt>
      <trkpt lat="59.805116255081" lon="17.654853218377">
        <ele>5.2</ele>
        <time>2017-10-15T14:14:55Z</time>
      </trkpt>
      <trkpt lat="59.805116590357" lon="17.654957153937">
        <ele>5</ele>
        <time>2017-10-15T14:14:56Z</time>
      </trkpt>
      <trkpt lat="59.805120194574" lon="17.655055557443">
        <ele>5</ele>
        <time>2017-10-15T14:14:57Z</time>
      </trkpt>
      <trkpt lat="59.8051247208" lon="17.65516980274">
        <ele>4.8</ele>
        <time>2017-10-15T14:14:58Z</time>
      </trkpt>
      <trkpt lat="59.805123295877" lon="17.655275330861">
        <ele>4.8</ele>
        <time>2017-10-15T14:14:59Z</time>
      </trkpt>
      <trkpt lat="59.805117847642" lon="17.655386558674">
        <ele>4.6</ele>
        <time>2017-10-15T14:15:00Z</time>
      </trkpt>
      <trkpt lat="59.805112734683" lon="17.655512119536">
        <ele>4.6</ele>
        <time>2017-10-15T14:15:01Z</time>
      </trkpt>
      <trkpt lat="59.805117512366" lon="17.655537432874">
        <ele>4.6</ele>
        <time>2017-10-15T14:15:02Z</time>
      </trkpt>
      <trkpt lat="59.805125726628" lon="17.655713704231">
        <ele>4.6</ele>
        <time>2017-10-15T14:15:03Z</time>
      </trkpt>
      <trkpt lat="59.80513058813" lon="17.655877318919">
        <ele>4.6</ele>
        <time>2017-10-15T14:15:04Z</time>
      </trkpt>
      <trkpt lat="59.805132683605" lon="17.656000365211">
        <ele>4.6</ele>
        <time>2017-10-15T14:15:05Z</time>
      </trkpt>
      <trkpt lat="59.805135868727" lon="17.65611444287">
        <ele>4.6</ele>
        <time>2017-10-15T14:15:06Z</time>
      </trkpt>
      <trkpt lat="59.805134024709" lon="17.656234052583">
        <ele>4.6</ele>
        <time>2017-10-15T14:15:07Z</time>
      </trkpt>
      <trkpt lat="59.805133018881" lon="17.656372018657">
        <ele>4.4</ele>
        <time>2017-10-15T14:15:08Z</time>
      </trkpt>
      <trkpt lat="59.805136120184" lon="17.656500345546">
        <ele>4.2</ele>
        <time>2017-10-15T14:15:09Z</time>
      </trkpt>
      <trkpt lat="59.805141903695" lon="17.656626325503">
        <ele>4.2</ele>
        <time>2017-10-15T14:15:10Z</time>
      </trkpt>
      <trkpt lat="59.805143831532" lon="17.65675146727">
        <ele>4</ele>
        <time>2017-10-15T14:15:11Z</time>
      </trkpt>
      <trkpt lat="59.805146597559" lon="17.656851714794">
        <ele>3.8</ele>
        <time>2017-10-15T14:15:12Z</time>
      </trkpt>
      <trkpt lat="59.805148273939" lon="17.656978281484">
        <ele>3.6</ele>
        <time>2017-10-15T14:15:13Z</time>
      </trkpt>
      <trkpt lat="59.805148441577" lon="17.657078780465">
        <ele>3.6</ele>
        <time>2017-10-15T14:15:14Z</time>
      </trkpt>
      <trkpt lat="59.805137628926" lon="17.657184560043">
        <ele>3.4</ele>
        <time>2017-10-15T14:15:15Z</time>
      </trkpt>
      <trkpt lat="59.805105693887" lon="17.657256392926">
        <ele>3.2</ele>
        <time>2017-10-15T14:15:16Z</time>
      </trkpt>
      <trkpt lat="59.805065460767" lon="17.657298050969">
        <ele>3.2</ele>
        <time>2017-10-15T14:15:17Z</time>
      </trkpt>
      <trkpt lat="59.805019276498" lon="17.657328644904">
        <ele>3.2</ele>
        <time>2017-10-15T14:15:18Z</time>
      </trkpt>
      <trkpt lat="59.804967560175" lon="17.657330740379">
        <ele>3</ele>
        <time>2017-10-15T14:15:19Z</time>
      </trkpt>
      <trkpt lat="59.804919448069" lon="17.657312132561">
        <ele>3</ele>
        <time>2017-10-15T14:15:20Z</time>
      </trkpt>
      <trkpt lat="59.804869575764" lon="17.657305091765">
        <ele>2.8</ele>
        <time>2017-10-15T14:15:21Z</time>
      </trkpt>
      <trkpt lat="59.804824816418" lon="17.65730467267">
        <ele>2.8</ele>
        <time>2017-10-15T14:15:22Z</time>
      </trkpt>
      <trkpt lat="59.804769831154" lon="17.657298218607">
        <ele>2.6</ele>
        <time>2017-10-15T14:15:23Z</time>
      </trkpt>
      <trkpt lat="59.804727837835" lon="17.657281706264">
        <ele>2.6</ele>
        <time>2017-10-15T14:15:24Z</time>
      </trkpt>
      <trkpt lat="59.804673439304" lon="17.657277934409">
        <ele>2.6</ele>
        <time>2017-10-15T14:15:25Z</time>
      </trkpt>
      <trkpt lat="59.804623818456" lon="17.657282795911">
        <ele>2.6</ele>
        <time>2017-10-15T14:15:26Z</time>
      </trkpt>
      <trkpt lat="59.804578137101" lon="17.657278353504">
        <ele>2.6</ele>
        <time>2017-10-15T14:15:27Z</time>
      </trkpt>
      <trkpt lat="59.804525582588" lon="17.657273240545">
        <ele>2.6</ele>
        <time>2017-10-15T14:15:28Z</time>
      </trkpt>
      <trkpt lat="59.804479733595" lon="17.657271564165">
        <ele>2.8</ele>
        <time>2017-10-15T14:15:29Z</time>
      </trkpt>
      <trkpt lat="59.804432878774" lon="17.657269301052">
        <ele>2.6</ele>
        <time>2017-10-15T14:15:30Z</time>
      </trkpt>
      <trkpt lat="59.804379234614" lon="17.657264858645">
        <ele>2.6</ele>
        <time>2017-10-15T14:15:31Z</time>
      </trkpt>
      <trkpt lat="59.804336906019" lon="17.657260583876">
        <ele>2.6</ele>
        <time>2017-10-15T14:15:32Z</time>
      </trkpt>
      <trkpt lat="59.804286446981" lon="17.657255638555">
        <ele>2.6</ele>
        <time>2017-10-15T14:15:33Z</time>
      </trkpt>
      <trkpt lat="59.804236490857" lon="17.657250860872">
        <ele>2.6</ele>
        <time>2017-10-15T14:15:34Z</time>
      </trkpt>
      <trkpt lat="59.80419013895" lon="17.657237366013">
        <ele>2.6</ele>
        <time>2017-10-15T14:15:35Z</time>
      </trkpt>
      <trkpt lat="59.804144541414" lon="17.657235270538">
        <ele>2.8</ele>
        <time>2017-10-15T14:15:36Z</time>
      </trkpt>
      <trkpt lat="59.804095758756" lon="17.657229319389">
        <ele>2.8</ele>
        <time>2017-10-15T14:15:37Z</time>
      </trkpt>
      <trkpt lat="59.80403926475" lon="17.657215321616">
        <ele>3</ele>
        <time>2017-10-15T14:15:38Z</time>
      </trkpt>
      <trkpt lat="59.803987632246" lon="17.657203000223">
        <ele>3</ele>
        <time>2017-10-15T14:15:39Z</time>
      </trkpt>
      <trkpt lat="59.803935832104" lon="17.65719738435">
        <ele>3.2</ele>
        <time>2017-10-15T14:15:40Z</time>
      </trkpt>
      <trkpt lat="59.803885205428" lon="17.657200653291">
        <ele>3.2</ele>
        <time>2017-10-15T14:15:41Z</time>
      </trkpt>
      <trkpt lat="59.803840781358" lon="17.657203167861">
        <ele>3.2</ele>
        <time>2017-10-15T14:15:42Z</time>
      </trkpt>
      <trkpt lat="59.803781521325" lon="17.65720408987">
        <ele>3.4</ele>
        <time>2017-10-15T14:15:43Z</time>
      </trkpt>
      <trkpt lat="59.803733995952" lon="17.657199144549">
        <ele>3.2</ele>
        <time>2017-10-15T14:15:44Z</time>
      </trkpt>
      <trkpt lat="59.803680854706" lon="17.657194283047">
        <ele>3.2</ele>
        <time>2017-10-15T14:15:45Z</time>
      </trkpt>
      <trkpt lat="59.803629557478" lon="17.657193696314">
        <ele>3.2</ele>
        <time>2017-10-15T14:15:46Z</time>
      </trkpt>
      <trkpt lat="59.803581026277" lon="17.657200150377">
        <ele>3.4</ele>
        <time>2017-10-15T14:15:47Z</time>
      </trkpt>
      <trkpt lat="59.803530399601" lon="17.657202748766">
        <ele>3.4</ele>
        <time>2017-10-15T14:15:48Z</time>
      </trkpt>
      <trkpt lat="59.803475246699" lon="17.657204425146">
        <ele>3.4</ele>
        <time>2017-10-15T14:15:49Z</time>
      </trkpt>
      <trkpt lat="59.803424620023" lon="17.657195205056">
        <ele>3.6</ele>
        <time>2017-10-15T14:15:50Z</time>
      </trkpt>
      <trkpt lat="59.803378016659" lon="17.657180536731">
        <ele>3.6</ele>
        <time>2017-10-15T14:15:51Z</time>
      </trkpt>
      <trkpt lat="59.803334598417" lon="17.657179698541">
        <ele>3.6</ele>
        <time>2017-10-15T14:15:52Z</time>
      </trkpt>
      <trkpt lat="59.803279613153" lon="17.657174837039">
        <ele>3.6</ele>
        <time>2017-10-15T14:15:53Z</time>
      </trkpt>
      <trkpt lat="59.80323711692" lon="17.657159749619">
        <ele>3.6</ele>
        <time>2017-10-15T14:15:54Z</time>
      </trkpt>
      <trkpt lat="59.803190848832" lon="17.657141812353">
        <ele>3.6</ele>
        <time>2017-10-15T14:15:55Z</time>
      </trkpt>
      <trkpt lat="59.803147262952" lon="17.657135777385">
        <ele>3.8</ele>
        <time>2017-10-15T14:15:56Z</time>
      </trkpt>
      <trkpt lat="59.803105604909" lon="17.657139130145">
        <ele>3.8</ele>
        <time>2017-10-15T14:15:57Z</time>
      </trkpt>
      <trkpt lat="59.803057660441" lon="17.657133430453">
        <ele>3.6</ele>
        <time>2017-10-15T14:15:58Z</time>
      </trkpt>
      <trkpt lat="59.80301332019" lon="17.657127563123">
        <ele>3.8</ele>
        <time>2017-10-15T14:15:59Z</time>
      </trkpt>
      <trkpt lat="59.802965878636" lon="17.657117840119">
        <ele>3.8</ele>
        <time>2017-10-15T14:16:00Z</time>
      </trkpt>
      <trkpt lat="59.802917682711" lon="17.657103423251">
        <ele>3.8</ele>
        <time>2017-10-15T14:16:01Z</time>
      </trkpt>
      <trkpt lat="59.802876192306" lon="17.657089760754">
        <ele>3.8</ele>
        <time>2017-10-15T14:16:02Z</time>
      </trkpt>
      <trkpt lat="59.802825733268" lon="17.657094035523">
        <ele>3.8</ele>
        <time>2017-10-15T14:16:03Z</time>
      </trkpt>
      <trkpt lat="59.802775022773" lon="17.657096633912">
        <ele>3.8</ele>
        <time>2017-10-15T14:16:04Z</time>
      </trkpt>
      <trkpt lat="59.802725234287" lon="17.657094370799">
        <ele>4</ele>
        <time>2017-10-15T14:16:05Z</time>
      </trkpt>
      <trkpt lat="59.802677289819" lon="17.657093784066">
        <ele>4</ele>
        <time>2017-10-15T14:16:06Z</time>
      </trkpt>
      <trkpt lat="59.802625154401" lon="17.657098561749">
        <ele>4</ele>
        <time>2017-10-15T14:16:07Z</time>
      </trkpt>
      <trkpt lat="59.802567738386" lon="17.657102249785">
        <ele>4.2</ele>
        <time>2017-10-15T14:16:08Z</time>
      </trkpt>
      <trkpt lat="59.802515016235" lon="17.657102836518">
        <ele>4.2</ele>
        <time>2017-10-15T14:16:09Z</time>
      </trkpt>
      <trkpt lat="59.802460198609" lon="17.657096550093">
        <ele>4</ele>
        <time>2017-10-15T14:16:10Z</time>
      </trkpt>
      <trkpt lat="59.802410158666" lon="17.657084396338">
        <ele>4</ele>
        <time>2017-10-15T14:16:11Z</time>
      </trkpt>
      <trkpt lat="59.802367997709" lon="17.65708171413">
        <ele>3.8</ele>
        <time>2017-10-15T14:16:12Z</time>
      </trkpt>
      <trkpt lat="59.80231259335" lon="17.65707333223">
        <ele>3.8</ele>
        <time>2017-10-15T14:16:13Z</time>
      </trkpt>
      <trkpt lat="59.802262888683" lon="17.657065620882">
        <ele>3.8</ele>
        <time>2017-10-15T14:16:14Z</time>
      </trkpt>
      <trkpt lat="59.802207400505" lon="17.657059334457">
        <ele>3.8</ele>
        <time>2017-10-15T14:16:15Z</time>
      </trkpt>
      <trkpt lat="59.802155348906" lon="17.657056316973">
        <ele>3.8</ele>
        <time>2017-10-15T14:16:16Z</time>
      </trkpt>
      <trkpt lat="59.802108661723" lon="17.657052796575">
        <ele>3.8</ele>
        <time>2017-10-15T14:16:17Z</time>
      </trkpt>
      <trkpt lat="59.80206029816" lon="17.657043408847">
        <ele>3.8</ele>
        <time>2017-10-15T14:16:18Z</time>
      </trkpt>
      <trkpt lat="59.802015622633" lon="17.657039720811">
        <ele>4</ele>
        <time>2017-10-15T14:16:19Z</time>
      </trkpt>
      <trkpt lat="59.801972372029" lon="17.657039972268">
        <ele>4</ele>
        <time>2017-10-15T14:16:20Z</time>
      </trkpt>
      <trkpt lat="59.801931803633" lon="17.657029243436">
        <ele>4</ele>
        <time>2017-10-15T14:16:21Z</time>
      </trkpt>
      <trkpt lat="59.801898695128" lon="17.657012479636">
        <ele>4.2</ele>
        <time>2017-10-15T14:16:22Z</time>
      </trkpt>
      <trkpt lat="59.801866089537" lon="17.656998565682">
        <ele>4</ele>
        <time>2017-10-15T14:16:23Z</time>
      </trkpt>
      <trkpt lat="59.801837758715" lon="17.656990435239">
        <ele>4</ele>
        <time>2017-10-15T14:16:24Z</time>
      </trkpt>
      <trkpt lat="59.801804147296" lon="17.65698448409">
        <ele>4</ele>
        <time>2017-10-15T14:16:25Z</time>
      </trkpt>
      <trkpt lat="59.801771876981" lon="17.656984567909">
        <ele>4.2</ele>
        <time>2017-10-15T14:16:26Z</time>
      </trkpt>
      <trkpt lat="59.801741450684" lon="17.656982723891">
        <ele>4.2</ele>
        <time>2017-10-15T14:16:27Z</time>
      </trkpt>
      <trkpt lat="59.801706246704" lon="17.656987753031">
        <ele>4.2</ele>
        <time>2017-10-15T14:16:28Z</time>
      </trkpt>
      <trkpt lat="59.80167221619" lon="17.656983394443">
        <ele>4.2</ele>
        <time>2017-10-15T14:16:29Z</time>
      </trkpt>
      <trkpt lat="59.80163449764" lon="17.656978449122">
        <ele>4.2</ele>
        <time>2017-10-15T14:16:30Z</time>
      </trkpt>
      <trkpt lat="59.801592755778" lon="17.65697274943">
        <ele>4.2</ele>
        <time>2017-10-15T14:16:31Z</time>
      </trkpt>
      <trkpt lat="59.801555121047" lon="17.656964032254">
        <ele>4.2</ele>
        <time>2017-10-15T14:16:32Z</time>
      </trkpt>
      <trkpt lat="59.801511954262" lon="17.656966127729">
        <ele>4.2</ele>
        <time>2017-10-15T14:16:33Z</time>
      </trkpt>
      <trkpt lat="59.801472140237" lon="17.656969312851">
        <ele>4.2</ele>
        <time>2017-10-15T14:16:34Z</time>
      </trkpt>
      <trkpt lat="59.80143584661" lon="17.656966463005">
        <ele>4.2</ele>
        <time>2017-10-15T14:16:35Z</time>
      </trkpt>
      <trkpt lat="59.801399552983" lon="17.656961098589">
        <ele>4.2</ele>
        <time>2017-10-15T14:16:36Z</time>
      </trkpt>
      <trkpt lat="59.801355464189" lon="17.656955901811">
        <ele>4.2</ele>
        <time>2017-10-15T14:16:37Z</time>
      </trkpt>
      <trkpt lat="59.801309699015" lon="17.656950621214">
        <ele>4.2</ele>
        <time>2017-10-15T14:16:38Z</time>
      </trkpt>
      <trkpt lat="59.801266867506" lon="17.656946597902">
        <ele>4.2</ele>
        <time>2017-10-15T14:16:39Z</time>
      </trkpt>
      <trkpt lat="59.801228562223" lon="17.656950705033">
        <ele>4.2</ele>
        <time>2017-10-15T14:16:40Z</time>
      </trkpt>
      <trkpt lat="59.801193022967" lon="17.656983394443">
        <ele>4</ele>
        <time>2017-10-15T14:16:41Z</time>
      </trkpt>
      <trkpt lat="59.801175588615" lon="17.657034859309">
        <ele>4.2</ele>
        <time>2017-10-15T14:16:42Z</time>
      </trkpt>
      <trkpt lat="59.801178019366" lon="17.657113732988">
        <ele>4</ele>
        <time>2017-10-15T14:16:43Z</time>
      </trkpt>
      <trkpt lat="59.801196794822" lon="17.657169807899">
        <ele>4</ele>
        <time>2017-10-15T14:16:44Z</time>
      </trkpt>
      <trkpt lat="59.801237111761" lon="17.657198641635">
        <ele>4</ele>
        <time>2017-10-15T14:16:45Z</time>
      </trkpt>
      <trkpt lat="59.801280027089" lon="17.657192941943">
        <ele>3.8</ele>
        <time>2017-10-15T14:16:46Z</time>
      </trkpt>
      <trkpt lat="59.801319757295" lon="17.657177938342">
        <ele>3.8</ele>
        <time>2017-10-15T14:16:47Z</time>
      </trkpt>
      <trkpt lat="59.801365354831" lon="17.657168131519">
        <ele>3.8</ele>
        <time>2017-10-15T14:16:48Z</time>
      </trkpt>
      <trkpt lat="59.801413969851" lon="17.65716469494">
        <ele>3.6</ele>
        <time>2017-10-15T14:16:49Z</time>
      </trkpt>
      <trkpt lat="59.801460657034" lon="17.657167377148">
        <ele>3.6</ele>
        <time>2017-10-15T14:16:50Z</time>
      </trkpt>
      <trkpt lat="59.80150374" lon="17.65716720951">
        <ele>3.6</ele>
        <time>2017-10-15T14:16:51Z</time>
      </trkpt>
      <trkpt lat="59.801545146586" lon="17.657172993021">
        <ele>3.6</ele>
        <time>2017-10-15T14:16:52Z</time>
      </trkpt>
      <trkpt lat="59.801593761606" lon="17.657178022161">
        <ele>3.6</ele>
        <time>2017-10-15T14:16:53Z</time>
      </trkpt>
      <trkpt lat="59.801636341658" lon="17.657177854523">
        <ele>3.6</ele>
        <time>2017-10-15T14:16:54Z</time>
      </trkpt>
      <trkpt lat="59.801674227846" lon="17.657181961654">
        <ele>3.6</ele>
        <time>2017-10-15T14:16:55Z</time>
      </trkpt>
      <trkpt lat="59.801728123463" lon="17.65718984064">
        <ele>3.8</ele>
        <time>2017-10-15T14:16:56Z</time>
      </trkpt>
      <trkpt lat="59.80176609347" lon="17.657198054902">
        <ele>3.8</ele>
        <time>2017-10-15T14:16:57Z</time>
      </trkpt>
      <trkpt lat="59.80180800297" lon="17.657197551988">
        <ele>3.8</ele>
        <time>2017-10-15T14:16:58Z</time>
      </trkpt>
      <trkpt lat="59.801845805339" lon="17.657195959427">
        <ele>3.8</ele>
        <time>2017-10-15T14:16:59Z</time>
      </trkpt>
      <trkpt lat="59.801885284088" lon="17.657200150377">
        <ele>4</ele>
        <time>2017-10-15T14:17:00Z</time>
      </trkpt>
      <trkpt lat="59.801925265751" lon="17.657201240024">
        <ele>4</ele>
        <time>2017-10-15T14:17:01Z</time>
      </trkpt>
      <trkpt lat="59.801961810835" lon="17.657196294703">
        <ele>4</ele>
        <time>2017-10-15T14:17:02Z</time>
      </trkpt>
      <trkpt lat="59.80200413943" lon="17.657189421545">
        <ele>4</ele>
        <time>2017-10-15T14:17:03Z</time>
      </trkpt>
      <trkpt lat="59.802043282903" lon="17.657184392405">
        <ele>4</ele>
        <time>2017-10-15T14:17:04Z</time>
      </trkpt>
      <trkpt lat="59.802097681434" lon="17.657056736068">
        <ele>4</ele>
        <time>2017-10-15T14:17:06Z</time>
      </trkpt>
      <trkpt lat="59.802116121614" lon="17.656981718063">
        <ele>4.2</ele>
        <time>2017-10-15T14:17:07Z</time>
      </trkpt>
      <trkpt lat="59.80212986793" lon="17.656897982882">
        <ele>4.2</ele>
        <time>2017-10-15T14:17:08Z</time>
      </trkpt>
      <trkpt lat="59.802142189323" lon="17.656817432823">
        <ele>4.2</ele>
        <time>2017-10-15T14:17:09Z</time>
      </trkpt>
      <trkpt lat="59.802141937866" lon="17.656724309914">
        <ele>4.2</ele>
        <time>2017-10-15T14:17:10Z</time>
      </trkpt>
      <trkpt lat="59.802143111332" lon="17.656642334932">
        <ele>4.2</ele>
        <time>2017-10-15T14:17:11Z</time>
      </trkpt>
      <trkpt lat="59.802148978662" lon="17.656570334411">
        <ele>4.2</ele>
        <time>2017-10-15T14:17:12Z</time>
      </trkpt>
      <trkpt lat="59.802156019458" lon="17.656476289493">
        <ele>4.2</ele>
        <time>2017-10-15T14:17:13Z</time>
      </trkpt>
      <trkpt lat="59.802159539856" lon="17.656398924556">
        <ele>4.2</ele>
        <time>2017-10-15T14:17:14Z</time>
      </trkpt>
      <trkpt lat="59.802162892616" lon="17.65631141752">
        <ele>4.4</ele>
        <time>2017-10-15T14:17:15Z</time>
      </trkpt>
      <trkpt lat="59.802166999747" lon="17.656225503045">
        <ele>4.4</ele>
        <time>2017-10-15T14:17:16Z</time>
      </trkpt>
      <trkpt lat="59.802170687783" lon="17.656145204443">
        <ele>4.6</ele>
        <time>2017-10-15T14:17:17Z</time>
      </trkpt>
      <trkpt lat="59.802174543457" lon="17.656059541425">
        <ele>4.6</ele>
        <time>2017-10-15T14:17:18Z</time>
      </trkpt>
      <trkpt lat="59.802178985864" lon="17.655973291674">
        <ele>4.8</ele>
        <time>2017-10-15T14:17:19Z</time>
      </trkpt>
      <trkpt lat="59.802178231493" lon="17.655891065235">
        <ele>5</ele>
        <time>2017-10-15T14:17:20Z</time>
      </trkpt>
      <trkpt lat="59.802179991692" lon="17.655810850452">
        <ele>5.2</ele>
        <time>2017-10-15T14:17:21Z</time>
      </trkpt>
      <trkpt lat="59.802181332796" lon="17.655737173551">
        <ele>5.2</ele>
        <time>2017-10-15T14:17:22Z</time>
      </trkpt>
      <trkpt lat="59.80218937942" lon="17.65564757104">
        <ele>5.2</ele>
        <time>2017-10-15T14:17:23Z</time>
      </trkpt>
      <trkpt lat="59.802196671673" lon="17.655577498356">
        <ele>5.4</ele>
        <time>2017-10-15T14:17:24Z</time>
      </trkpt>
      <trkpt lat="59.802198180415" lon="17.655497115935">
        <ele>5.4</ele>
        <time>2017-10-15T14:17:25Z</time>
      </trkpt>
      <trkpt lat="59.802200946442" lon="17.655420840645">
        <ele>5.2</ele>
        <time>2017-10-15T14:17:26Z</time>
      </trkpt>
      <trkpt lat="59.802205724125" lon="17.655353198712">
        <ele>5.4</ele>
        <time>2017-10-15T14:17:27Z</time>
      </trkpt>
      <trkpt lat="59.802208909247" lon="17.655270720816">
        <ele>5.4</ele>
        <time>2017-10-15T14:17:28Z</time>
      </trkpt>
      <trkpt lat="59.802212597283" lon="17.655202324512">
        <ele>5.4</ele>
        <time>2017-10-15T14:17:29Z</time>
      </trkpt>
      <trkpt lat="59.802214357482" lon="17.655135017855">
        <ele>5.6</ele>
        <time>2017-10-15T14:17:30Z</time>
      </trkpt>
      <trkpt lat="59.802215614767" lon="17.65506754356">
        <ele>5.6</ele>
        <time>2017-10-15T14:17:31Z</time>
      </trkpt>
      <trkpt lat="59.802213770749" lon="17.655019096178">
        <ele>5.8</ele>
        <time>2017-10-15T14:17:32Z</time>
      </trkpt>
      <trkpt lat="59.80219859951" lon="17.654976599945">
        <ele>5.8</ele>
        <time>2017-10-15T14:17:33Z</time>
      </trkpt>
      <trkpt lat="59.80217177743" lon="17.654955477557">
        <ele>6</ele>
        <time>2017-10-15T14:17:34Z</time>
      </trkpt>
      <trkpt lat="59.80213741164" lon="17.654936115368">
        <ele>6.2</ele>
        <time>2017-10-15T14:17:35Z</time>
      </trkpt>
      <trkpt lat="59.802102878212" lon="17.654940893051">
        <ele>6.2</ele>
        <time>2017-10-15T14:17:36Z</time>
      </trkpt>
      <trkpt lat="59.802062058359" lon="17.654959668507">
        <ele>6.4</ele>
        <time>2017-10-15T14:17:37Z</time>
      </trkpt>
      <trkpt lat="59.802013778615" lon="17.654969391511">
        <ele>6.4</ele>
        <time>2017-10-15T14:17:38Z</time>
      </trkpt>
      <trkpt lat="59.801966839975" lon="17.654979282153">
        <ele>6.4</ele>
        <time>2017-10-15T14:17:39Z</time>
      </trkpt>
      <trkpt lat="59.801920404249" lon="17.65499629741">
        <ele>6.6</ele>
        <time>2017-10-15T14:17:40Z</time>
      </trkpt>
      <trkpt lat="59.801873800885" lon="17.655024125318">
        <ele>6.6</ele>
        <time>2017-10-15T14:17:41Z</time>
      </trkpt>
      <trkpt lat="59.801834657412" lon="17.655041392032">
        <ele>6.6</ele>
        <time>2017-10-15T14:17:42Z</time>
      </trkpt>
      <trkpt lat="59.801774643008" lon="17.655059496936">
        <ele>6.4</ele>
        <time>2017-10-15T14:17:43Z</time>
      </trkpt>
      <trkpt lat="59.801726530902" lon="17.655074919632">
        <ele>6.4</ele>
        <time>2017-10-15T14:17:44Z</time>
      </trkpt>
      <trkpt lat="59.801668528154" lon="17.655091767251">
        <ele>6.4</ele>
        <time>2017-10-15T14:17:45Z</time>
      </trkpt>
      <trkpt lat="59.801614464899" lon="17.655099981513">
        <ele>6.2</ele>
        <time>2017-10-15T14:17:46Z</time>
      </trkpt>
      <trkpt lat="59.801565933698" lon="17.655107692861">
        <ele>6.2</ele>
        <time>2017-10-15T14:17:47Z</time>
      </trkpt>
      <trkpt lat="59.801509858787" lon="17.655137197149">
        <ele>6.2</ele>
        <time>2017-10-15T14:17:48Z</time>
      </trkpt>
      <trkpt lat="59.801453197143" lon="17.655167371989">
        <ele>6.2</ele>
        <time>2017-10-15T14:17:49Z</time>
      </trkpt>
      <trkpt lat="59.801403324838" lon="17.655187069454">
        <ele>6</ele>
        <time>2017-10-15T14:17:50Z</time>
      </trkpt>
      <trkpt lat="59.801349345402" lon="17.655205928729">
        <ele>5.8</ele>
        <time>2017-10-15T14:17:51Z</time>
      </trkpt>
      <trkpt lat="59.801298215812" lon="17.655217747208">
        <ele>5.8</ele>
        <time>2017-10-15T14:17:52Z</time>
      </trkpt>
      <trkpt lat="59.801241554168" lon="17.655233337542">
        <ele>5.8</ele>
        <time>2017-10-15T14:17:53Z</time>
      </trkpt>
      <trkpt lat="59.801196040451" lon="17.655260913993">
        <ele>6</ele>
        <time>2017-10-15T14:17:54Z</time>
      </trkpt>
      <trkpt lat="59.80115589115" lon="17.655327214822">
        <ele>5.8</ele>
        <time>2017-10-15T14:17:55Z</time>
      </trkpt>
      <trkpt lat="59.801134182029" lon="17.655421762654">
        <ele>6</ele>
        <time>2017-10-15T14:17:56Z</time>
      </trkpt>
      <trkpt lat="59.801126135405" lon="17.655514466468">
        <ele>6</ele>
        <time>2017-10-15T14:17:57Z</time>
      </trkpt>
      <trkpt lat="59.801121357722" lon="17.655621922426">
        <ele>6</ele>
        <time>2017-10-15T14:17:58Z</time>
      </trkpt>
      <trkpt lat="59.801116580039" lon="17.655718565733">
        <ele>6</ele>
        <time>2017-10-15T14:17:59Z</time>
      </trkpt>
      <trkpt lat="59.80111146708" lon="17.655817891248">
        <ele>5.8</ele>
        <time>2017-10-15T14:18:00Z</time>
      </trkpt>
      <trkpt lat="59.801107108492" lon="17.655921826808">
        <ele>5.8</ele>
        <time>2017-10-15T14:18:01Z</time>
      </trkpt>
      <trkpt lat="59.801102079352" lon="17.656014279165">
        <ele>5.6</ele>
        <time>2017-10-15T14:18:02Z</time>
      </trkpt>
      <trkpt lat="59.801095122375" lon="17.656115532517">
        <ele>5.4</ele>
        <time>2017-10-15T14:18:03Z</time>
      </trkpt>
      <trkpt lat="59.801093948909" lon="17.656209828892">
        <ele>5.2</ele>
        <time>2017-10-15T14:18:04Z</time>
      </trkpt>
      <trkpt lat="59.801092775443" lon="17.656306220742">
        <ele>5.2</ele>
        <time>2017-10-15T14:18:05Z</time>
      </trkpt>
      <trkpt lat="59.801091099063" lon="17.656398505461">
        <ele>5.2</ele>
        <time>2017-10-15T14:18:06Z</time>
      </trkpt>
      <trkpt lat="59.801084812638" lon="17.656498082433">
        <ele>5</ele>
        <time>2017-10-15T14:18:07Z</time>
      </trkpt>
      <trkpt lat="59.801080537869" lon="17.656605957486">
        <ele>5</ele>
        <time>2017-10-15T14:18:08Z</time>
      </trkpt>
      <trkpt lat="59.801078526213" lon="17.656711653245">
        <ele>4.8</ele>
        <time>2017-10-15T14:18:09Z</time>
      </trkpt>
      <trkpt lat="59.801072323607" lon="17.656812403683">
        <ele>4.8</ele>
        <time>2017-10-15T14:18:10Z</time>
      </trkpt>
      <trkpt lat="59.801043992785" lon="17.65689815052">
        <ele>4.6</ele>
        <time>2017-10-15T14:18:11Z</time>
      </trkpt>
      <trkpt lat="59.801010716642" lon="17.656936120527">
        <ele>4.6</ele>
        <time>2017-10-15T14:18:12Z</time>
      </trkpt>
      <trkpt lat="59.800993701385" lon="17.657003594822">
        <ele>4.4</ele>
        <time>2017-10-15T14:18:13Z</time>
      </trkpt>
      <trkpt lat="59.801007196244" lon="17.657066291434">
        <ele>4.4</ele>
        <time>2017-10-15T14:18:14Z</time>
      </trkpt>
      <trkpt lat="59.801036532894" lon="17.657125383829">
        <ele>4.2</ele>
        <time>2017-10-15T14:18:15Z</time>
      </trkpt>
      <trkpt lat="59.801051620314" lon="17.657206185345">
        <ele>4.2</ele>
        <time>2017-10-15T14:18:16Z</time>
      </trkpt>
      <trkpt lat="59.80105698473" lon="17.657297883331">
        <ele>4</ele>
        <time>2017-10-15T14:18:17Z</time>
      </trkpt>
      <trkpt lat="59.8010511174" lon="17.657405423108">
        <ele>4</ele>
        <time>2017-10-15T14:18:18Z</time>
      </trkpt>
      <trkpt lat="59.801042064948" lon="17.657524110812">
        <ele>4</ele>
        <time>2017-10-15T14:18:19Z</time>
      </trkpt>
      <trkpt lat="59.801041813491" lon="17.657621173214">
        <ele>3.8</ele>
        <time>2017-10-15T14:18:20Z</time>
      </trkpt>
      <trkpt lat="59.801042819319" lon="17.657758217279">
        <ele>3.8</ele>
        <time>2017-10-15T14:18:21Z</time>
      </trkpt>
      <trkpt lat="59.801038293093" lon="17.65786877454">
        <ele>3.6</ele>
        <time>2017-10-15T14:18:22Z</time>
      </trkpt>
      <trkpt lat="59.801028989184" lon="17.65799701761">
        <ele>3.2</ele>
        <time>2017-10-15T14:18:23Z</time>
      </trkpt>
      <trkpt lat="59.80102345713" lon="17.658103719197">
        <ele>3</ele>
        <time>2017-10-15T14:18:24Z</time>
      </trkpt>
      <trkpt lat="59.801014907592" lon="17.658233554828">
        <ele>2.6</ele>
        <time>2017-10-15T14:18:25Z</time>
      </trkpt>
      <trkpt lat="59.801013650307" lon="17.658346039926">
        <ele>2.6</ele>
        <time>2017-10-15T14:18:26Z</time>
      </trkpt>
      <trkpt lat="59.801012057746" lon="17.658429858926">
        <ele>2.4</ele>
        <time>2017-10-15T14:18:27Z</time>
      </trkpt>
      <trkpt lat="59.801010716642" lon="17.658516024858">
        <ele>2.2</ele>
        <time>2017-10-15T14:18:28Z</time>
      </trkpt>
      <trkpt lat="59.801020607284" lon="17.658571093941">
        <ele>2</ele>
        <time>2017-10-15T14:18:29Z</time>
      </trkpt>
      <trkpt lat="59.801030665564" lon="17.658616523839">
        <ele>2</ele>
        <time>2017-10-15T14:18:30Z</time>
      </trkpt>
      <trkpt lat="59.801053967246" lon="17.658683830496">
        <ele>2</ele>
        <time>2017-10-15T14:18:31Z</time>
      </trkpt>
      <trkpt lat="59.801083722991" lon="17.658731523507">
        <ele>2</ele>
        <time>2017-10-15T14:18:32Z</time>
      </trkpt>
      <trkpt lat="59.801124291387" lon="17.658798159612">
        <ele>2</ele>
        <time>2017-10-15T14:18:33Z</time>
      </trkpt>
      <trkpt lat="59.801164021593" lon="17.658841661673">
        <ele>2</ele>
        <time>2017-10-15T14:18:34Z</time>
      </trkpt>
      <trkpt lat="59.801210708776" lon="17.658881224241">
        <ele>2</ele>
        <time>2017-10-15T14:18:35Z</time>
      </trkpt>
      <trkpt lat="59.801255971036" lon="17.658920116257">
        <ele>2</ele>
        <time>2017-10-15T14:18:36Z</time>
      </trkpt>
      <trkpt lat="59.801307268264" lon="17.658960684653">
        <ele>2</ele>
        <time>2017-10-15T14:18:37Z</time>
      </trkpt>
      <trkpt lat="59.801364349003" lon="17.659003516162">
        <ele>1.8</ele>
        <time>2017-10-15T14:18:38Z</time>
      </trkpt>
      <trkpt lat="59.801418915172" lon="17.659037043762">
        <ele>1.8</ele>
        <time>2017-10-15T14:18:39Z</time>
      </trkpt>
      <trkpt lat="59.801474068074" lon="17.659073085932">
        <ele>1.8</ele>
        <time>2017-10-15T14:18:40Z</time>
      </trkpt>
      <trkpt lat="59.801529891528" lon="17.659113235233">
        <ele>1.6</ele>
        <time>2017-10-15T14:18:41Z</time>
      </trkpt>
      <trkpt lat="59.801576243435" lon="17.659148020118">
        <ele>1.6</ele>
        <time>2017-10-15T14:18:42Z</time>
      </trkpt>
      <trkpt lat="59.801642963359" lon="17.659195713129">
        <ele>1.6</ele>
        <time>2017-10-15T14:18:43Z</time>
      </trkpt>
      <trkpt lat="59.801698116261" lon="17.65922580415">
        <ele>1.4</ele>
        <time>2017-10-15T14:18:44Z</time>
      </trkpt>
      <trkpt lat="59.801759471769" lon="17.659265953451">
        <ele>1.4</ele>
        <time>2017-10-15T14:18:45Z</time>
      </trkpt>
      <trkpt lat="59.801815211404" lon="17.65930710858">
        <ele>1.4</ele>
        <time>2017-10-15T14:18:46Z</time>
      </trkpt>
      <trkpt lat="59.801867263003" lon="17.659329907348">
        <ele>1.2</ele>
        <time>2017-10-15T14:18:47Z</time>
      </trkpt>
      <trkpt lat="59.801921074801" lon="17.65935907636">
        <ele>1.2</ele>
        <time>2017-10-15T14:18:48Z</time>
      </trkpt>
      <trkpt lat="59.801977233531" lon="17.6593892512">
        <ele>1.2</ele>
        <time>2017-10-15T14:18:49Z</time>
      </trkpt>
      <trkpt lat="59.802031464424" lon="17.659423449352">
        <ele>1.2</ele>
        <time>2017-10-15T14:18:50Z</time>
      </trkpt>
      <trkpt lat="59.802084773308" lon="17.659462257549">
        <ele>1.4</ele>
        <time>2017-10-15T14:18:51Z</time>
      </trkpt>
      <trkpt lat="59.802132717776" lon="17.659503412678">
        <ele>1.4</ele>
        <time>2017-10-15T14:18:52Z</time>
      </trkpt>
      <trkpt lat="59.802190720524" lon="17.659547752929">
        <ele>1.4</ele>
        <time>2017-10-15T14:18:53Z</time>
      </trkpt>
      <trkpt lat="59.802241431019" lon="17.65957784395">
        <ele>1.6</ele>
        <time>2017-10-15T14:18:54Z</time>
      </trkpt>
      <trkpt lat="59.802300607233" lon="17.659614975767">
        <ele>1.6</ele>
        <time>2017-10-15T14:18:55Z</time>
      </trkpt>
      <trkpt lat="59.802350563357" lon="17.659654454516">
        <ele>1.8</ele>
        <time>2017-10-15T14:18:56Z</time>
      </trkpt>
      <trkpt lat="59.802388198088" lon="17.659725784485">
        <ele>1.8</ele>
        <time>2017-10-15T14:18:57Z</time>
      </trkpt>
      <trkpt lat="59.802404291336" lon="17.659836257927">
        <ele>2</ele>
        <time>2017-10-15T14:18:58Z</time>
      </trkpt>
      <trkpt lat="59.802399262196" lon="17.659940864039">
        <ele>2</ele>
        <time>2017-10-15T14:18:59Z</time>
      </trkpt>
      <trkpt lat="59.802385264423" lon="17.660043961409">
        <ele>2</ele>
        <time>2017-10-15T14:19:00Z</time>
      </trkpt>
      <trkpt lat="59.802368668261" lon="17.660167510615">
        <ele>2</ele>
        <time>2017-10-15T14:19:01Z</time>
      </trkpt>
      <trkpt lat="59.802352910289" lon="17.660275301849">
        <ele>2</ele>
        <time>2017-10-15T14:19:02Z</time>
      </trkpt>
      <trkpt lat="59.802335056842" lon="17.660394576286">
        <ele>1.8</ele>
        <time>2017-10-15T14:19:03Z</time>
      </trkpt>
      <trkpt lat="59.80231846068" lon="17.660506307013">
        <ele>1.6</ele>
        <time>2017-10-15T14:19:04Z</time>
      </trkpt>
      <trkpt lat="59.802303708536" lon="17.660611164582">
        <ele>1.2</ele>
        <time>2017-10-15T14:19:05Z</time>
      </trkpt>
      <trkpt lat="59.802279484845" lon="17.660700347998">
        <ele>1</ele>
        <time>2017-10-15T14:19:06Z</time>
      </trkpt>
      <trkpt lat="59.802256350801" lon="17.660778048211">
        <ele>0.8</ele>
        <time>2017-10-15T14:19:07Z</time>
      </trkpt>
      <trkpt lat="59.802234054947" lon="17.66088625854">
        <ele>0.6</ele>
        <time>2017-10-15T14:19:08Z</time>
      </trkpt>
      <trkpt lat="59.802219135165" lon="17.660989942643">
        <ele>0.6</ele>
        <time>2017-10-15T14:19:09Z</time>
      </trkpt>
      <trkpt lat="59.802202371365" lon="17.661092118004">
        <ele>0.4</ele>
        <time>2017-10-15T14:19:10Z</time>
      </trkpt>
      <trkpt lat="59.802185439927" lon="17.661195047736">
        <ele>0.4</ele>
        <time>2017-10-15T14:19:11Z</time>
      </trkpt>
      <trkpt lat="59.802171609792" lon="17.66127936965">
        <ele>0.2</ele>
        <time>2017-10-15T14:19:12Z</time>
      </trkpt>
      <trkpt lat="59.802152582879" lon="17.661386322694">
        <ele>0</ele>
        <time>2017-10-15T14:19:13Z</time>
      </trkpt>
      <trkpt lat="59.802138333649" lon="17.661469806418">
        <ele>0</ele>
        <time>2017-10-15T14:19:14Z</time>
      </trkpt>
      <trkpt lat="59.802124168238" lon="17.661560917671">
        <ele>0</ele>
        <time>2017-10-15T14:19:15Z</time>
      </trkpt>
      <trkpt lat="59.802110170465" lon="17.661637695875">
        <ele>0</ele>
        <time>2017-10-15T14:19:16Z</time>
      </trkpt>
      <trkpt lat="59.802094915407" lon="17.661695530985">
        <ele>0</ele>
        <time>2017-10-15T14:19:17Z</time>
      </trkpt>
      <trkpt lat="59.802080163263" lon="17.661750180973">
        <ele>0</ele>
        <time>2017-10-15T14:19:18Z</time>
      </trkpt>
      <trkpt lat="59.802068931517" lon="17.661798544536">
        <ele>0</ele>
        <time>2017-10-15T14:19:19Z</time>
      </trkpt>
      <trkpt lat="59.802047222396" lon="17.661846572823">
        <ele>0</ele>
        <time>2017-10-15T14:19:20Z</time>
      </trkpt>
      <trkpt lat="59.802014616805" lon="17.66187196998">
        <ele>0</ele>
        <time>2017-10-15T14:19:21Z</time>
      </trkpt>
      <trkpt lat="59.801975473332" lon="17.661876915301">
        <ele>0</ele>
        <time>2017-10-15T14:19:22Z</time>
      </trkpt>
      <trkpt lat="59.801927947959" lon="17.661860486777">
        <ele>0</ele>
        <time>2017-10-15T14:19:23Z</time>
      </trkpt>
      <trkpt lat="59.801899533318" lon="17.6618200022">
        <ele>0</ele>
        <time>2017-10-15T14:19:24Z</time>
      </trkpt>
      <trkpt lat="59.801855109248" lon="17.661772644465">
        <ele>0</ele>
        <time>2017-10-15T14:19:25Z</time>
      </trkpt>
      <trkpt lat="59.801812864472" lon="17.661748169317">
        <ele>0</ele>
        <time>2017-10-15T14:19:26Z</time>
      </trkpt>
      <trkpt lat="59.801771793162" lon="17.661722604522">
        <ele>0</ele>
        <time>2017-10-15T14:19:27Z</time>
      </trkpt>
      <trkpt lat="59.801728458739" lon="17.661684550696">
        <ele>0</ele>
        <time>2017-10-15T14:19:28Z</time>
      </trkpt>
      <trkpt lat="59.801692500388" lon="17.661654962589">
        <ele>0</ele>
        <time>2017-10-15T14:19:29Z</time>
      </trkpt>
      <trkpt lat="59.801645645567" lon="17.661621686446">
        <ele>0</ele>
        <time>2017-10-15T14:19:30Z</time>
      </trkpt>
      <trkpt lat="59.801594515977" lon="17.661585895733">
        <ele>0</ele>
        <time>2017-10-15T14:19:31Z</time>
      </trkpt>
      <trkpt lat="59.801551768287" lon="17.661553290142">
        <ele>0</ele>
        <time>2017-10-15T14:19:32Z</time>
      </trkpt>
      <trkpt lat="59.801496531566" lon="17.661527976804">
        <ele>0</ele>
        <time>2017-10-15T14:19:33Z</time>
      </trkpt>
      <trkpt lat="59.801445401976" lon="17.661502914923">
        <ele>0</ele>
        <time>2017-10-15T14:19:34Z</time>
      </trkpt>
      <trkpt lat="59.8013947753" lon="17.661479613241">
        <ele>0</ele>
        <time>2017-10-15T14:19:35Z</time>
      </trkpt>
      <trkpt lat="59.801342472244" lon="17.661462011251">
        <ele>0</ele>
        <time>2017-10-15T14:19:36Z</time>
      </trkpt>
      <trkpt lat="59.801288157532" lon="17.66143946394">
        <ele>0</ele>
        <time>2017-10-15T14:19:37Z</time>
      </trkpt>
      <trkpt lat="59.80123132825" lon="17.661408199453">
        <ele>0</ele>
        <time>2017-10-15T14:19:38Z</time>
      </trkpt>
      <trkpt lat="59.801181539764" lon="17.661363356288">
        <ele>0</ele>
        <time>2017-10-15T14:19:39Z</time>
      </trkpt>
      <trkpt lat="59.801132086554" lon="17.661308538662">
        <ele>0</ele>
        <time>2017-10-15T14:19:40Z</time>
      </trkpt>
      <trkpt lat="59.801088081579" lon="17.661234610304">
        <ele>0</ele>
        <time>2017-10-15T14:19:41Z</time>
      </trkpt>
      <trkpt lat="59.801056230359" lon="17.66116537581">
        <ele>0</ele>
        <time>2017-10-15T14:19:42Z</time>
      </trkpt>
      <trkpt lat="59.801015829601" lon="17.661075773299">
        <ele>0</ele>
        <time>2017-10-15T14:19:43Z</time>
      </trkpt>
      <trkpt lat="59.800983894562" lon="17.661010562117">
        <ele>0</ele>
        <time>2017-10-15T14:19:44Z</time>
      </trkpt>
      <trkpt lat="59.800945086365" lon="17.660950044799">
        <ele>0</ele>
        <time>2017-10-15T14:19:45Z</time>
      </trkpt>
      <trkpt lat="59.800907367815" lon="17.660909141127">
        <ele>0</ele>
        <time>2017-10-15T14:19:46Z</time>
      </trkpt>
      <trkpt lat="59.800862021736" lon="17.660871338758">
        <ele>0</ele>
        <time>2017-10-15T14:19:47Z</time>
      </trkpt>
      <trkpt lat="59.800811562698" lon="17.660815934399">
        <ele>0</ele>
        <time>2017-10-15T14:19:48Z</time>
      </trkpt>
      <trkpt lat="59.800762863859" lon="17.660759524212">
        <ele>0</ele>
        <time>2017-10-15T14:19:49Z</time>
      </trkpt>
      <trkpt lat="59.800711147536" lon="17.6607135914">
        <ele>0</ele>
        <time>2017-10-15T14:19:50Z</time>
      </trkpt>
      <trkpt lat="59.800656916643" lon="17.660665311656">
        <ele>0</ele>
        <time>2017-10-15T14:19:51Z</time>
      </trkpt>
      <trkpt lat="59.800609139813" lon="17.660621641957">
        <ele>0</ele>
        <time>2017-10-15T14:19:52Z</time>
      </trkpt>
      <trkpt lat="59.800551723798" lon="17.660571853471">
        <ele>0</ele>
        <time>2017-10-15T14:19:53Z</time>
      </trkpt>
      <trkpt lat="59.800500342751" lon="17.660534889292">
        <ele>0</ele>
        <time>2017-10-15T14:19:54Z</time>
      </trkpt>
      <trkpt lat="59.800459187622" lon="17.660500942597">
        <ele>0</ele>
        <time>2017-10-15T14:19:55Z</time>
      </trkpt>
      <trkpt lat="59.800390036947" lon="17.660445035324">
        <ele>0</ele>
        <time>2017-10-15T14:19:56Z</time>
      </trkpt>
      <trkpt lat="59.80032943581" lon="17.66039005006">
        <ele>0</ele>
        <time>2017-10-15T14:19:57Z</time>
      </trkpt>
      <trkpt lat="59.80027746803" lon="17.660341015945">
        <ele>0</ele>
        <time>2017-10-15T14:19:58Z</time>
      </trkpt>
      <trkpt lat="59.800228266277" lon="17.660298771169">
        <ele>0</ele>
        <time>2017-10-15T14:19:59Z</time>
      </trkpt>
      <trkpt lat="59.800166575493" lon="17.660250491425">
        <ele>0</ele>
        <time>2017-10-15T14:20:00Z</time>
      </trkpt>
      <trkpt lat="59.800113266609" lon="17.660216963825">
        <ele>0</ele>
        <time>2017-10-15T14:20:01Z</time>
      </trkpt>
      <trkpt lat="59.800055263861" lon="17.660188716822">
        <ele>0</ele>
        <time>2017-10-15T14:20:02Z</time>
      </trkpt>
      <trkpt lat="59.800000194778" lon="17.660172036841">
        <ele>0</ele>
        <time>2017-10-15T14:20:03Z</time>
      </trkpt>
      <trkpt lat="59.799944287505" lon="17.660169522271">
        <ele>0</ele>
        <time>2017-10-15T14:20:04Z</time>
      </trkpt>
      <trkpt lat="59.799894666657" lon="17.660185364062">
        <ele>0</ele>
        <time>2017-10-15T14:20:05Z</time>
      </trkpt>
      <trkpt lat="59.799842531239" lon="17.660222914974">
        <ele>0</ele>
        <time>2017-10-15T14:20:06Z</time>
      </trkpt>
      <trkpt lat="59.799787545975" lon="17.660281420636">
        <ele>0</ele>
        <time>2017-10-15T14:20:07Z</time>
      </trkpt>
      <trkpt lat="59.799737925127" lon="17.660341770316">
        <ele>0</ele>
        <time>2017-10-15T14:20:08Z</time>
      </trkpt>
      <trkpt lat="59.799689645383" lon="17.660402790548">
        <ele>0</ele>
        <time>2017-10-15T14:20:09Z</time>
      </trkpt>
      <trkpt lat="59.799658129439" lon="17.660456099432">
        <ele>0</ele>
        <time>2017-10-15T14:20:10Z</time>
      </trkpt>
      <trkpt lat="59.799614543559" lon="17.660519718053">
        <ele>0</ele>
        <time>2017-10-15T14:20:11Z</time>
      </trkpt>
      <trkpt lat="59.799573975163" lon="17.660586857072">
        <ele>0</ele>
        <time>2017-10-15T14:20:12Z</time>
      </trkpt>
      <trkpt lat="59.799532987672" lon="17.660651062426">
        <ele>0</ele>
        <time>2017-10-15T14:20:13Z</time>
      </trkpt>
      <trkpt lat="59.799500633538" lon="17.66070772407">
        <ele>0</ele>
        <time>2017-10-15T14:20:14Z</time>
      </trkpt>
      <trkpt lat="59.799454113993" lon="17.660796404572">
        <ele>0</ele>
        <time>2017-10-15T14:20:15Z</time>
      </trkpt>
      <trkpt lat="59.799428716836" lon="17.660859939374">
        <ele>0</ele>
        <time>2017-10-15T14:20:16Z</time>
      </trkpt>
      <trkpt lat="59.799417149814" lon="17.660933783913">
        <ele>0</ele>
        <time>2017-10-15T14:20:17Z</time>
      </trkpt>
      <trkpt lat="59.799424358248" lon="17.66102120713">
        <ele>0</ele>
        <time>2017-10-15T14:20:18Z</time>
      </trkpt>
      <trkpt lat="59.799434751804" lon="17.661094381117">
        <ele>0</ele>
        <time>2017-10-15T14:20:19Z</time>
      </trkpt>
      <trkpt lat="59.799466603024" lon="17.661158167376">
        <ele>0</ele>
        <time>2017-10-15T14:20:20Z</time>
      </trkpt>
      <trkpt lat="59.79950800961" lon="17.661227318051">
        <ele>0</ele>
        <time>2017-10-15T14:20:21Z</time>
      </trkpt>
      <trkpt lat="59.799540866658" lon="17.661282890048">
        <ele>0</ele>
        <time>2017-10-15T14:20:22Z</time>
      </trkpt>
      <trkpt lat="59.799583195253" lon="17.661360841718">
        <ele>0</ele>
        <time>2017-10-15T14:20:23Z</time>
      </trkpt>
      <trkpt lat="59.799619907975" lon="17.661430830583">
        <ele>0</ele>
        <time>2017-10-15T14:20:24Z</time>
      </trkpt>
      <trkpt lat="59.799662068932" lon="17.661504172208">
        <ele>0</ele>
        <time>2017-10-15T14:20:25Z</time>
      </trkpt>
      <trkpt lat="59.79969911693" lon="17.661584722267">
        <ele>0</ele>
        <time>2017-10-15T14:20:26Z</time>
      </trkpt>
      <trkpt lat="59.799723172983" lon="17.661647921793">
        <ele>0</ele>
        <time>2017-10-15T14:20:27Z</time>
      </trkpt>
      <trkpt lat="59.799768267605" lon="17.661739116865">
        <ele>0</ele>
        <time>2017-10-15T14:20:28Z</time>
      </trkpt>
      <trkpt lat="59.799799867368" lon="17.661816900897">
        <ele>0</ele>
        <time>2017-10-15T14:20:29Z</time>
      </trkpt>
      <trkpt lat="59.799839178479" lon="17.661915052946">
        <ele>0</ele>
        <time>2017-10-15T14:20:30Z</time>
      </trkpt>
      <trkpt lat="59.799873963364" lon="17.661999710136">
        <ele>0</ele>
        <time>2017-10-15T14:20:31Z</time>
      </trkpt>
      <trkpt lat="59.799904976394" lon="17.662086295163">
        <ele>0</ele>
        <time>2017-10-15T14:20:32Z</time>
      </trkpt>
      <trkpt lat="59.799949484283" lon="17.662175897674">
        <ele>0</ele>
        <time>2017-10-15T14:20:33Z</time>
      </trkpt>
      <trkpt lat="59.799978737114" lon="17.662266338375">
        <ele>0</ele>
        <time>2017-10-15T14:20:34Z</time>
      </trkpt>
      <trkpt lat="59.800006145927" lon="17.662354348325">
        <ele>0</ele>
        <time>2017-10-15T14:20:35Z</time>
      </trkpt>
      <trkpt lat="59.800044032115" lon="17.662461049912">
        <ele>0</ele>
        <time>2017-10-15T14:20:36Z</time>
      </trkpt>
      <trkpt lat="59.800075128964" lon="17.662554424278">
        <ele>0</ele>
        <time>2017-10-15T14:20:37Z</time>
      </trkpt>
      <trkpt lat="59.800106393451" lon="17.662655426173">
        <ele>0</ele>
        <time>2017-10-15T14:20:38Z</time>
      </trkpt>
      <trkpt lat="59.800137155024" lon="17.662758104448">
        <ele>0</ele>
        <time>2017-10-15T14:20:39Z</time>
      </trkpt>
      <trkpt lat="59.800170514986" lon="17.662862962017">
        <ele>0</ele>
        <time>2017-10-15T14:20:40Z</time>
      </trkpt>
      <trkpt lat="59.800197756161" lon="17.662962958084">
        <ele>0</ele>
        <time>2017-10-15T14:20:41Z</time>
      </trkpt>
      <trkpt lat="59.800223572413" lon="17.663073682983">
        <ele>0</ele>
        <time>2017-10-15T14:20:42Z</time>
      </trkpt>
      <trkpt lat="59.800251148864" lon="17.663188515013">
        <ele>0</ele>
        <time>2017-10-15T14:20:43Z</time>
      </trkpt>
      <trkpt lat="59.800270846329" lon="17.663294210772">
        <ele>0</ele>
        <time>2017-10-15T14:20:44Z</time>
      </trkpt>
      <trkpt lat="59.800295237658" lon="17.663417759978">
        <ele>0</ele>
        <time>2017-10-15T14:20:45Z</time>
      </trkpt>
      <trkpt lat="59.800315354218" lon="17.663504093548">
        <ele>0</ele>
        <time>2017-10-15T14:20:46Z</time>
      </trkpt>
      <trkpt lat="59.800333291484" lon="17.663595791534">
        <ele>0</ele>
        <time>2017-10-15T14:20:47Z</time>
      </trkpt>
      <trkpt lat="59.800366148532" lon="17.663695284687">
        <ele>0</ele>
        <time>2017-10-15T14:20:48Z</time>
      </trkpt>
      <trkpt lat="59.80039900558" lon="17.663783713732">
        <ele>0</ele>
        <time>2017-10-15T14:20:49Z</time>
      </trkpt>
      <trkpt lat="59.80042918042" lon="17.66387105313">
        <ele>0</ele>
        <time>2017-10-15T14:20:50Z</time>
      </trkpt>
      <trkpt lat="59.800447788238" lon="17.66394481385">
        <ele>0</ele>
        <time>2017-10-15T14:20:51Z</time>
      </trkpt>
      <trkpt lat="59.800477292526" lon="17.664015976181">
        <ele>0</ele>
        <time>2017-10-15T14:20:52Z</time>
      </trkpt>
      <trkpt lat="59.80050210295" lon="17.664097532068">
        <ele>0</ele>
        <time>2017-10-15T14:20:53Z</time>
      </trkpt>
      <trkpt lat="59.800528505935" lon="17.664180931973">
        <ele>0</ele>
        <time>2017-10-15T14:20:54Z</time>
      </trkpt>
      <trkpt lat="59.800540324414" lon="17.66426416424">
        <ele>0</ele>
        <time>2017-10-15T14:20:55Z</time>
      </trkpt>
      <trkpt lat="59.800560273336" lon="17.664353431475">
        <ele>0</ele>
        <time>2017-10-15T14:20:56Z</time>
      </trkpt>
      <trkpt lat="59.800575779851" lon="17.664441776701">
        <ele>0</ele>
        <time>2017-10-15T14:20:57Z</time>
      </trkpt>
      <trkpt lat="59.800597405153" lon="17.664550322306">
        <ele>0</ele>
        <time>2017-10-15T14:20:58Z</time>
      </trkpt>
      <trkpt lat="59.800614168953" lon="17.664644953957">
        <ele>0</ele>
        <time>2017-10-15T14:20:59Z</time>
      </trkpt>
      <trkpt lat="59.800644930526" lon="17.664761713824">
        <ele>0</ele>
        <time>2017-10-15T14:21:00Z</time>
      </trkpt>
      <trkpt lat="59.800684157818" lon="17.664844443177">
        <ele>0</ele>
        <time>2017-10-15T14:21:01Z</time>
      </trkpt>
      <trkpt lat="59.800719445617" lon="17.664908564712">
        <ele>0</ele>
        <time>2017-10-15T14:21:02Z</time>
      </trkpt>
      <trkpt lat="59.800764121144" lon="17.664995568834">
        <ele>0</ele>
        <time>2017-10-15T14:21:03Z</time>
      </trkpt>
      <trkpt lat="59.80080133678" lon="17.665070754477">
        <ele>0</ele>
        <time>2017-10-15T14:21:04Z</time>
      </trkpt>
      <trkpt lat="59.800847185773" lon="17.665140743342">
        <ele>0</ele>
        <time>2017-10-15T14:21:05Z</time>
      </trkpt>
      <trkpt lat="59.800900159381" lon="17.665210648388">
        <ele>0</ele>
        <time>2017-10-15T14:21:06Z</time>
      </trkpt>
      <trkpt lat="59.800946427469" lon="17.665264460186">
        <ele>0</ele>
        <time>2017-10-15T14:21:07Z</time>
      </trkpt>
      <trkpt lat="59.80099914962" lon="17.665321540925">
        <ele>0</ele>
        <time>2017-10-15T14:21:08Z</time>
      </trkpt>
      <trkpt lat="59.801051871771" lon="17.6653739278">
        <ele>0</ele>
        <time>2017-10-15T14:21:09Z</time>
      </trkpt>
      <trkpt lat="59.801104593922" lon="17.665410137608">
        <ele>0</ele>
        <time>2017-10-15T14:21:10Z</time>
      </trkpt>
      <trkpt lat="59.801160249738" lon="17.665444251941">
        <ele>0</ele>
        <time>2017-10-15T14:21:11Z</time>
      </trkpt>
      <trkpt lat="59.80121791721" lon="17.66548121612">
        <ele>0</ele>
        <time>2017-10-15T14:21:12Z</time>
      </trkpt>
      <trkpt lat="59.801277596338" lon="17.665528070941">
        <ele>0</ele>
        <time>2017-10-15T14:21:13Z</time>
      </trkpt>
      <trkpt lat="59.80133107286" lon="17.665567298233">
        <ele>0</ele>
        <time>2017-10-15T14:21:14Z</time>
      </trkpt>
      <trkpt lat="59.801392428368" lon="17.66560945919">
        <ele>0</ele>
        <time>2017-10-15T14:21:15Z</time>
      </trkpt>
      <trkpt lat="59.801448670917" lon="17.665655140545">
        <ele>0</ele>
        <time>2017-10-15T14:21:16Z</time>
      </trkpt>
      <trkpt lat="59.801501728344" lon="17.665696714769">
        <ele>0</ele>
        <time>2017-10-15T14:21:17Z</time>
      </trkpt>
      <trkpt lat="59.801566855707" lon="17.66574692235">
        <ele>0</ele>
        <time>2017-10-15T14:21:18Z</time>
      </trkpt>
      <trkpt lat="59.801622595342" lon="17.665792268429">
        <ele>0</ele>
        <time>2017-10-15T14:21:19Z</time>
      </trkpt>
      <trkpt lat="59.801678754072" lon="17.665833675015">
        <ele>0</ele>
        <time>2017-10-15T14:21:20Z</time>
      </trkpt>
      <trkpt lat="59.801722591409" lon="17.66587600361">
        <ele>0</ele>
        <time>2017-10-15T14:21:21Z</time>
      </trkpt>
      <trkpt lat="59.801768775678" lon="17.665922271698">
        <ele>0</ele>
        <time>2017-10-15T14:21:22Z</time>
      </trkpt>
      <trkpt lat="59.801824431494" lon="17.665979771532">
        <ele>0</ele>
        <time>2017-10-15T14:21:23Z</time>
      </trkpt>
      <trkpt lat="59.801880338767" lon="17.66605369989">
        <ele>0</ele>
        <time>2017-10-15T14:21:24Z</time>
      </trkpt>
      <trkpt lat="59.801935072574" lon="17.666125281316">
        <ele>0</ele>
        <time>2017-10-15T14:21:25Z</time>
      </trkpt>
      <trkpt lat="59.801983771413" lon="17.666202646253">
        <ele>0</ele>
        <time>2017-10-15T14:21:26Z</time>
      </trkpt>
      <trkpt lat="59.802021154687" lon="17.666287051986">
        <ele>0</ele>
        <time>2017-10-15T14:21:27Z</time>
      </trkpt>
      <trkpt lat="59.802060130522" lon="17.666388305338">
        <ele>0</ele>
        <time>2017-10-15T14:21:28Z</time>
      </trkpt>
      <trkpt lat="59.80208292929" lon="17.666482517894">
        <ele>0</ele>
        <time>2017-10-15T14:21:29Z</time>
      </trkpt>
      <trkpt lat="59.802103464945" lon="17.666607659661">
        <ele>0</ele>
        <time>2017-10-15T14:21:30Z</time>
      </trkpt>
      <trkpt lat="59.802118384727" lon="17.666716959637">
        <ele>0</ele>
        <time>2017-10-15T14:21:31Z</time>
      </trkpt>
      <trkpt lat="59.802127185722" lon="17.666814860229">
        <ele>0</ele>
        <time>2017-10-15T14:21:32Z</time>
      </trkpt>
      <trkpt lat="59.802133975061" lon="17.666941762195">
        <ele>0</ele>
        <time>2017-10-15T14:21:33Z</time>
      </trkpt>
      <trkpt lat="59.802134729432" lon="17.667059108795">
        <ele>0</ele>
        <time>2017-10-15T14:21:34Z</time>
      </trkpt>
      <trkpt lat="59.802122910953" lon="17.667165894201">
        <ele>0</ele>
        <time>2017-10-15T14:21:35Z</time>
      </trkpt>
      <trkpt lat="59.802101034194" lon="17.667282318792">
        <ele>0</ele>
        <time>2017-10-15T14:21:36Z</time>
      </trkpt>
      <trkpt lat="59.802075637037" lon="17.667378626823">
        <ele>0</ele>
        <time>2017-10-15T14:21:37Z</time>
      </trkpt>
      <trkpt lat="59.802044875464" lon="17.667482981478">
        <ele>0</ele>
        <time>2017-10-15T14:21:38Z</time>
      </trkpt>
      <trkpt lat="59.802005480534" lon="17.667570404695">
        <ele>0</ele>
        <time>2017-10-15T14:21:39Z</time>
      </trkpt>
      <trkpt lat="59.801968013441" lon="17.667654894247">
        <ele>0</ele>
        <time>2017-10-15T14:21:40Z</time>
      </trkpt>
      <trkpt lat="59.801933312375" lon="17.667743155654">
        <ele>0</ele>
        <time>2017-10-15T14:21:41Z</time>
      </trkpt>
      <trkpt lat="59.801891402875" lon="17.667827896663">
        <ele>0</ele>
        <time>2017-10-15T14:21:42Z</time>
      </trkpt>
      <trkpt lat="59.801845386244" lon="17.667899729546">
        <ele>0</ele>
        <time>2017-10-15T14:21:43Z</time>
      </trkpt>
      <trkpt lat="59.801799872527" lon="17.667965527461">
        <ele>0</ele>
        <time>2017-10-15T14:21:44Z</time>
      </trkpt>
      <trkpt lat="59.801746228367" lon="17.66803769562">
        <ele>0</ele>
        <time>2017-10-15T14:21:45Z</time>
      </trkpt>
      <trkpt lat="59.801691410741" lon="17.668098464395">
        <ele>0</ele>
        <time>2017-10-15T14:21:46Z</time>
      </trkpt>
      <trkpt lat="59.801643633911" lon="17.668135260936">
        <ele>0</ele>
        <time>2017-10-15T14:21:47Z</time>
      </trkpt>
      <trkpt lat="59.801579847652" lon="17.668160322817">
        <ele>0</ele>
        <time>2017-10-15T14:21:48Z</time>
      </trkpt>
      <trkpt lat="59.801523688922" lon="17.668159987541">
        <ele>0</ele>
        <time>2017-10-15T14:21:49Z</time>
      </trkpt>
      <trkpt lat="59.801471972599" lon="17.668172560391">
        <ele>0</ele>
        <time>2017-10-15T14:21:50Z</time>
      </trkpt>
      <trkpt lat="59.801420256276" lon="17.668189324191">
        <ele>0</ele>
        <time>2017-10-15T14:21:51Z</time>
      </trkpt>
      <trkpt lat="59.801368288496" lon="17.668192676951">
        <ele>0</ele>
        <time>2017-10-15T14:21:52Z</time>
      </trkpt>
      <trkpt lat="59.801311459214" lon="17.668190330019">
        <ele>0</ele>
        <time>2017-10-15T14:21:53Z</time>
      </trkpt>
      <trkpt lat="59.801249684611" lon="17.668192006399">
        <ele>0</ele>
        <time>2017-10-15T14:21:54Z</time>
      </trkpt>
      <trkpt lat="59.801191765682" lon="17.668182786309">
        <ele>0</ele>
        <time>2017-10-15T14:21:55Z</time>
      </trkpt>
      <trkpt lat="59.801135690771" lon="17.668182953947">
        <ele>0</ele>
        <time>2017-10-15T14:21:56Z</time>
      </trkpt>
      <trkpt lat="59.80108632138" lon="17.668176080789">
        <ele>0</ele>
        <time>2017-10-15T14:21:57Z</time>
      </trkpt>
      <trkpt lat="59.801035610885" lon="17.668167447432">
        <ele>0</ele>
        <time>2017-10-15T14:21:58Z</time>
      </trkpt>
      <trkpt lat="59.800999065801" lon="17.668168369441">
        <ele>0</ele>
        <time>2017-10-15T14:21:59Z</time>
      </trkpt>
      <trkpt lat="59.800936453008" lon="17.668159484627">
        <ele>0</ele>
        <time>2017-10-15T14:22:00Z</time>
      </trkpt>
      <trkpt lat="59.800877947346" lon="17.668161831559">
        <ele>0</ele>
        <time>2017-10-15T14:22:01Z</time>
      </trkpt>
      <trkpt lat="59.800810724508" lon="17.668160574274">
        <ele>0</ele>
        <time>2017-10-15T14:22:02Z</time>
      </trkpt>
      <trkpt lat="59.800734365399" lon="17.668146492682">
        <ele>0</ele>
        <time>2017-10-15T14:22:03Z</time>
      </trkpt>
      <trkpt lat="59.800659012118" lon="17.668136434402">
        <ele>0</ele>
        <time>2017-10-15T14:22:04Z</time>
      </trkpt>
      <trkpt lat="59.800594220031" lon="17.668129477425">
        <ele>0</ele>
        <time>2017-10-15T14:22:05Z</time>
      </trkpt>
      <trkpt lat="59.800515849266" lon="17.668126292303">
        <ele>0</ele>
        <time>2017-10-15T14:22:06Z</time>
      </trkpt>
      <trkpt lat="59.800447536781" lon="17.668127214312">
        <ele>0</ele>
        <time>2017-10-15T14:22:07Z</time>
      </trkpt>
      <trkpt lat="59.800370423301" lon="17.668129812701">
        <ele>0</ele>
        <time>2017-10-15T14:22:08Z</time>
      </trkpt>
      <trkpt lat="59.800302529911" lon="17.668128723054">
        <ele>0</ele>
        <time>2017-10-15T14:22:09Z</time>
      </trkpt>
      <trkpt lat="59.800236899634" lon="17.668123861552">
        <ele>0</ele>
        <time>2017-10-15T14:22:10Z</time>
      </trkpt>
      <trkpt lat="59.800171269357" lon="17.668116569299">
        <ele>0</ele>
        <time>2017-10-15T14:22:11Z</time>
      </trkpt>
      <trkpt lat="59.800107734555" lon="17.668103577354">
        <ele>0</ele>
        <time>2017-10-15T14:22:12Z</time>
      </trkpt>
      <trkpt lat="59.800035147301" lon="17.668084131346">
        <ele>0</ele>
        <time>2017-10-15T14:22:13Z</time>
      </trkpt>
      <trkpt lat="59.799978820933" lon="17.668058231275">
        <ele>0</ele>
        <time>2017-10-15T14:22:14Z</time>
      </trkpt>
      <trkpt lat="59.799913609751" lon="17.668037360344">
        <ele>0</ele>
        <time>2017-10-15T14:22:15Z</time>
      </trkpt>
      <trkpt lat="59.799850661682" lon="17.668019674535">
        <ele>0</ele>
        <time>2017-10-15T14:22:16Z</time>
      </trkpt>
      <trkpt lat="59.799796095513" lon="17.667988996781">
        <ele>0</ele>
        <time>2017-10-15T14:22:17Z</time>
      </trkpt>
      <trkpt lat="59.799726609562" lon="17.667943315426">
        <ele>0</ele>
        <time>2017-10-15T14:22:18Z</time>
      </trkpt>
      <trkpt lat="59.799668187719" lon="17.667891347646">
        <ele>0</ele>
        <time>2017-10-15T14:22:19Z</time>
      </trkpt>
      <trkpt lat="59.799611274618" lon="17.667838122581">
        <ele>0</ele>
        <time>2017-10-15T14:22:20Z</time>
      </trkpt>
      <trkpt lat="59.799553523327" lon="17.667777940539">
        <ele>0</ele>
        <time>2017-10-15T14:22:21Z</time>
      </trkpt>
      <trkpt lat="59.799497867511" lon="17.667722871456">
        <ele>0</ele>
        <time>2017-10-15T14:22:22Z</time>
      </trkpt>
      <trkpt lat="59.799437769288" lon="17.667663695242">
        <ele>0</ele>
        <time>2017-10-15T14:22:23Z</time>
      </trkpt>
      <trkpt lat="59.799378006341" lon="17.667590856531">
        <ele>0</ele>
        <time>2017-10-15T14:22:24Z</time>
      </trkpt>
      <trkpt lat="59.799320841783" lon="17.667527573186">
        <ele>0</ele>
        <time>2017-10-15T14:22:25Z</time>
      </trkpt>
      <trkpt lat="59.799265521243" lon="17.667472504103">
        <ele>0</ele>
        <time>2017-10-15T14:22:26Z</time>
      </trkpt>
      <trkpt lat="59.799211122712" lon="17.667419195219">
        <ele>0</ele>
        <time>2017-10-15T14:22:27Z</time>
      </trkpt>
      <trkpt lat="59.799154712525" lon="17.667357252978">
        <ele>0</ele>
        <time>2017-10-15T14:22:28Z</time>
      </trkpt>
      <trkpt lat="59.799114982319" lon="17.667316433125">
        <ele>0</ele>
        <time>2017-10-15T14:22:29Z</time>
      </trkpt>
      <trkpt lat="59.799054045906" lon="17.667244935518">
        <ele>0</ele>
        <time>2017-10-15T14:22:30Z</time>
      </trkpt>
      <trkpt lat="59.798996546072" lon="17.667174611377">
        <ele>0</ele>
        <time>2017-10-15T14:22:31Z</time>
      </trkpt>
      <trkpt lat="59.798947428138" lon="17.667104119598">
        <ele>0</ele>
        <time>2017-10-15T14:22:32Z</time>
      </trkpt>
      <trkpt lat="59.798890766494" lon="17.667017702209">
        <ele>0</ele>
        <time>2017-10-15T14:22:33Z</time>
      </trkpt>
      <trkpt lat="59.798841229465" lon="17.666934972856">
        <ele>0</ele>
        <time>2017-10-15T14:22:34Z</time>
      </trkpt>
      <trkpt lat="59.798799571422" lon="17.666860541584">
        <ele>0</ele>
        <time>2017-10-15T14:22:35Z</time>
      </trkpt>
      <trkpt lat="59.798742909778" lon="17.666782254638">
        <ele>0</ele>
        <time>2017-10-15T14:22:36Z</time>
      </trkpt>
      <trkpt lat="59.798691780188" lon="17.666729700125">
        <ele>0</ele>
        <time>2017-10-15T14:22:37Z</time>
      </trkpt>
      <trkpt lat="59.798631598146" lon="17.666683851132">
        <ele>0</ele>
        <time>2017-10-15T14:22:38Z</time>
      </trkpt>
      <trkpt lat="59.798567895706" lon="17.666655352672">
        <ele>0</ele>
        <time>2017-10-15T14:22:39Z</time>
      </trkpt>
      <trkpt lat="59.798504863818" lon="17.66663875651">
        <ele>0</ele>
        <time>2017-10-15T14:22:40Z</time>
      </trkpt>
      <trkpt lat="59.798443089215" lon="17.666634146465">
        <ele>0</ele>
        <time>2017-10-15T14:22:41Z</time>
      </trkpt>
      <trkpt lat="59.798380057327" lon="17.666634817017">
        <ele>0</ele>
        <time>2017-10-15T14:22:42Z</time>
      </trkpt>
      <trkpt lat="59.798309817005" lon="17.666619142864">
        <ele>0</ele>
        <time>2017-10-15T14:22:43Z</time>
      </trkpt>
      <trkpt lat="59.798248629135" lon="17.666606234738">
        <ele>0</ele>
        <time>2017-10-15T14:22:44Z</time>
      </trkpt>
      <trkpt lat="59.798183166496" lon="17.66659181787">
        <ele>0</ele>
        <time>2017-10-15T14:22:45Z</time>
      </trkpt>
      <trkpt lat="59.798114351097" lon="17.66659181787">
        <ele>0</ele>
        <time>2017-10-15T14:22:46Z</time>
      </trkpt>
      <trkpt lat="59.798060036385" lon="17.666574634975">
        <ele>0</ele>
        <time>2017-10-15T14:22:47Z</time>
      </trkpt>
      <trkpt lat="59.79798753295" lon="17.666567594179">
        <ele>0</ele>
        <time>2017-10-15T14:22:48Z</time>
      </trkpt>
      <trkpt lat="59.79792634508" lon="17.666556362433">
        <ele>0</ele>
        <time>2017-10-15T14:22:49Z</time>
      </trkpt>
      <trkpt lat="59.797865911581" lon="17.666538089891">
        <ele>0</ele>
        <time>2017-10-15T14:22:50Z</time>
      </trkpt>
      <trkpt lat="59.797807405919" lon="17.666504478472">
        <ele>0</ele>
        <time>2017-10-15T14:22:51Z</time>
      </trkpt>
      <trkpt lat="59.797752336836" lon="17.666481763523">
        <ele>0</ele>
        <time>2017-10-15T14:22:52Z</time>
      </trkpt>
      <trkpt lat="59.797688634396" lon="17.666464748266">
        <ele>0</ele>
        <time>2017-10-15T14:22:53Z</time>
      </trkpt>
      <trkpt lat="59.797620154273" lon="17.666446140448">
        <ele>0</ele>
        <time>2017-10-15T14:22:54Z</time>
      </trkpt>
      <trkpt lat="59.797573718547" lon="17.66643088539">
        <ele>0</ele>
        <time>2017-10-15T14:22:55Z</time>
      </trkpt>
      <trkpt lat="59.797492749393" lon="17.666399956179">
        <ele>0</ele>
        <time>2017-10-15T14:22:56Z</time>
      </trkpt>
      <trkpt lat="59.797435417197" lon="17.666370032796">
        <ele>0</ele>
        <time>2017-10-15T14:22:57Z</time>
      </trkpt>
      <trkpt lat="59.797369451644" lon="17.666329632038">
        <ele>0</ele>
        <time>2017-10-15T14:22:58Z</time>
      </trkpt>
      <trkpt lat="59.797316645674" lon="17.666286800529">
        <ele>0</ele>
        <time>2017-10-15T14:22:59Z</time>
      </trkpt>
      <trkpt lat="59.797253697605" lon="17.666214883827">
        <ele>0</ele>
        <time>2017-10-15T14:23:00Z</time>
      </trkpt>
      <trkpt lat="59.797199801988" lon="17.666153193043">
        <ele>0</ele>
        <time>2017-10-15T14:23:01Z</time>
      </trkpt>
      <trkpt lat="59.797146325466" lon="17.666087562766">
        <ele>0</ele>
        <time>2017-10-15T14:23:02Z</time>
      </trkpt>
      <trkpt lat="59.797088909451" lon="17.666020675204">
        <ele>0</ele>
        <time>2017-10-15T14:23:03Z</time>
      </trkpt>
      <trkpt lat="59.797030403789" lon="17.665950770158">
        <ele>0</ele>
        <time>2017-10-15T14:23:04Z</time>
      </trkpt>
      <trkpt lat="59.796990003031" lon="17.665852282833">
        <ele>0</ele>
        <time>2017-10-15T14:23:05Z</time>
      </trkpt>
      <trkpt lat="59.796957984173" lon="17.66573937864">
        <ele>0</ele>
        <time>2017-10-15T14:23:06Z</time>
      </trkpt>
      <trkpt lat="59.796932000283" lon="17.665648770301">
        <ele>0</ele>
        <time>2017-10-15T14:23:07Z</time>
      </trkpt>
      <trkpt lat="59.796899227054" lon="17.665569896622">
        <ele>0</ele>
        <time>2017-10-15T14:23:08Z</time>
      </trkpt>
      <trkpt lat="59.796870896232" lon="17.665501835594">
        <ele>0</ele>
        <time>2017-10-15T14:23:09Z</time>
      </trkpt>
      <trkpt lat="59.796838458279" lon="17.665445425407">
        <ele>0</ele>
        <time>2017-10-15T14:23:10Z</time>
      </trkpt>
      <trkpt lat="59.796796884055" lon="17.665385746279">
        <ele>0</ele>
        <time>2017-10-15T14:23:11Z</time>
      </trkpt>
      <trkpt lat="59.796759081686" lon="17.66530435803">
        <ele>0</ele>
        <time>2017-10-15T14:23:12Z</time>
      </trkpt>
      <trkpt lat="59.796711472494" lon="17.665219784659">
        <ele>0</ele>
        <time>2017-10-15T14:23:13Z</time>
      </trkpt>
      <trkpt lat="59.796663276569" lon="17.665137139125">
        <ele>0</ele>
        <time>2017-10-15T14:23:14Z</time>
      </trkpt>
      <trkpt lat="59.796618014309" lon="17.665039238533">
        <ele>0</ele>
        <time>2017-10-15T14:23:15Z</time>
      </trkpt>
      <trkpt lat="59.796562945226" lon="17.66495902375">
        <ele>0</ele>
        <time>2017-10-15T14:23:16Z</time>
      </trkpt>
      <trkpt lat="59.796528076522" lon="17.664887190867">
        <ele>0</ele>
        <time>2017-10-15T14:23:17Z</time>
      </trkpt>
      <trkpt lat="59.796481724615" lon="17.664797755994">
        <ele>0</ele>
        <time>2017-10-15T14:23:18Z</time>
      </trkpt>
      <trkpt lat="59.796432941957" lon="17.664727599491">
        <ele>0</ele>
        <time>2017-10-15T14:23:19Z</time>
      </trkpt>
      <trkpt lat="59.796382315281" lon="17.664655431332">
        <ele>0</ele>
        <time>2017-10-15T14:23:20Z</time>
      </trkpt>
      <trkpt lat="59.796335125184" lon="17.664572031427">
        <ele>0</ele>
        <time>2017-10-15T14:23:21Z</time>
      </trkpt>
      <trkpt lat="59.7962901982" lon="17.664492403377">
        <ele>0</ele>
        <time>2017-10-15T14:23:22Z</time>
      </trkpt>
      <trkpt lat="59.796241834637" lon="17.664405985988">
        <ele>0</ele>
        <time>2017-10-15T14:23:23Z</time>
      </trkpt>
      <trkpt lat="59.796192381427" lon="17.664313533631">
        <ele>0</ele>
        <time>2017-10-15T14:23:24Z</time>
      </trkpt>
      <trkpt lat="59.79614938228" lon="17.66422393112">
        <ele>0</ele>
        <time>2017-10-15T14:23:25Z</time>
      </trkpt>
      <trkpt lat="59.796107221323" lon="17.664136172627">
        <ele>0</ele>
        <time>2017-10-15T14:23:26Z</time>
      </trkpt>
      <trkpt lat="59.796068413126" lon="17.664060903165">
        <ele>0</ele>
        <time>2017-10-15T14:23:27Z</time>
      </trkpt>
      <trkpt lat="59.796025162522" lon="17.663971133016">
        <ele>0</ele>
        <time>2017-10-15T14:23:28Z</time>
      </trkpt>
      <trkpt lat="59.795986521963" lon="17.663901898522">
        <ele>0</ele>
        <time>2017-10-15T14:23:29Z</time>
      </trkpt>
      <trkpt lat="59.795937152572" lon="17.663814307667">
        <ele>0</ele>
        <time>2017-10-15T14:23:30Z</time>
      </trkpt>
      <trkpt lat="59.795892728502" lon="17.663731494495">
        <ele>0</ele>
        <time>2017-10-15T14:23:31Z</time>
      </trkpt>
      <trkpt lat="59.795850735183" lon="17.663657147042">
        <ele>0</ele>
        <time>2017-10-15T14:23:32Z</time>
      </trkpt>
      <trkpt lat="59.795799521774" lon="17.663580704114">
        <ele>0</ele>
        <time>2017-10-15T14:23:33Z</time>
      </trkpt>
      <trkpt lat="59.795748895098" lon="17.663512643086">
        <ele>0</ele>
        <time>2017-10-15T14:23:34Z</time>
      </trkpt>
      <trkpt lat="59.79569843606" lon="17.663453466872">
        <ele>0</ele>
        <time>2017-10-15T14:23:35Z</time>
      </trkpt>
      <trkpt lat="59.795639176027" lon="17.66339328483">
        <ele>0</ele>
        <time>2017-10-15T14:23:36Z</time>
      </trkpt>
      <trkpt lat="59.795585364229" lon="17.663343663982">
        <ele>0</ele>
        <time>2017-10-15T14:23:37Z</time>
      </trkpt>
      <trkpt lat="59.79552409254" lon="17.663286667062">
        <ele>0</ele>
        <time>2017-10-15T14:23:38Z</time>
      </trkpt>
      <trkpt lat="59.795463826679" lon="17.663245931028">
        <ele>0</ele>
        <time>2017-10-15T14:23:39Z</time>
      </trkpt>
      <trkpt lat="59.795404482827" lon="17.663201087863">
        <ele>0</ele>
        <time>2017-10-15T14:23:40Z</time>
      </trkpt>
      <trkpt lat="59.795348659373" lon="17.663159513639">
        <ele>0</ele>
        <time>2017-10-15T14:23:41Z</time>
      </trkpt>
      <trkpt lat="59.795291159539" lon="17.663121459813">
        <ele>0</ele>
        <time>2017-10-15T14:23:42Z</time>
      </trkpt>
      <trkpt lat="59.795230558402" lon="17.663088099851">
        <ele>0</ele>
        <time>2017-10-15T14:23:43Z</time>
      </trkpt>
      <trkpt lat="59.795172304197" lon="17.663071587508">
        <ele>0</ele>
        <time>2017-10-15T14:23:44Z</time>
      </trkpt>
      <trkpt lat="59.795106757739" lon="17.663058595563">
        <ele>0</ele>
        <time>2017-10-15T14:23:45Z</time>
      </trkpt>
      <trkpt lat="59.795046072783" lon="17.66307141987">
        <ele>0</ele>
        <time>2017-10-15T14:23:46Z</time>
      </trkpt>
      <trkpt lat="59.794993266813" lon="17.663092793715">
        <ele>0</ele>
        <time>2017-10-15T14:23:47Z</time>
      </trkpt>
      <trkpt lat="59.794928810002" lon="17.663128752066">
        <ele>0</ele>
        <time>2017-10-15T14:23:48Z</time>
      </trkpt>
      <trkpt lat="59.794872567453" lon="17.663169823376">
        <ele>0</ele>
        <time>2017-10-15T14:23:49Z</time>
      </trkpt>
      <trkpt lat="59.794819090931" lon="17.663214415084">
        <ele>0</ele>
        <time>2017-10-15T14:23:50Z</time>
      </trkpt>
      <trkpt lat="59.794768212798" lon="17.663276692601">
        <ele>0</ele>
        <time>2017-10-15T14:23:51Z</time>
      </trkpt>
      <trkpt lat="59.794720771244" lon="17.663332180779">
        <ele>0</ele>
        <time>2017-10-15T14:23:52Z</time>
      </trkpt>
      <trkpt lat="59.794668803464" lon="17.663388423328">
        <ele>0</ele>
        <time>2017-10-15T14:23:53Z</time>
      </trkpt>
      <trkpt lat="59.794619014978" lon="17.663438127995">
        <ele>0</ele>
        <time>2017-10-15T14:23:54Z</time>
      </trkpt>
      <trkpt lat="59.794563275343" lon="17.663487832662">
        <ele>0</ele>
        <time>2017-10-15T14:23:55Z</time>
      </trkpt>
      <trkpt lat="59.794507954803" lon="17.663520941167">
        <ele>0</ele>
        <time>2017-10-15T14:23:56Z</time>
      </trkpt>
      <trkpt lat="59.794460597068" lon="17.66356762835">
        <ele>0</ele>
        <time>2017-10-15T14:23:57Z</time>
      </trkpt>
      <trkpt lat="59.794406869089" lon="17.66362797803">
        <ele>0</ele>
        <time>2017-10-15T14:23:58Z</time>
      </trkpt>
      <trkpt lat="59.794360433363" lon="17.663665193666">
        <ele>0</ele>
        <time>2017-10-15T14:23:59Z</time>
      </trkpt>
      <trkpt lat="59.794304442271" lon="17.663717831998">
        <ele>0</ele>
        <time>2017-10-15T14:24:00Z</time>
      </trkpt>
      <trkpt lat="59.794254653785" lon="17.663755299091">
        <ele>0</ele>
        <time>2017-10-15T14:24:01Z</time>
      </trkpt>
      <trkpt lat="59.79420897243" lon="17.663775415651">
        <ele>0</ele>
        <time>2017-10-15T14:24:02Z</time>
      </trkpt>
      <trkpt lat="59.794155998822" lon="17.663801734817">
        <ele>0</ele>
        <time>2017-10-15T14:24:03Z</time>
      </trkpt>
      <trkpt lat="59.794106042698" lon="17.663821935196">
        <ele>0</ele>
        <time>2017-10-15T14:24:04Z</time>
      </trkpt>
      <trkpt lat="59.794061618628" lon="17.663850266018">
        <ele>0</ele>
        <time>2017-10-15T14:24:05Z</time>
      </trkpt>
      <trkpt lat="59.794011411047" lon="17.663871472225">
        <ele>0</ele>
        <time>2017-10-15T14:24:06Z</time>
      </trkpt>
      <trkpt lat="59.793967489891" lon="17.663891840242">
        <ele>0</ele>
        <time>2017-10-15T14:24:07Z</time>
      </trkpt>
      <trkpt lat="59.793922646726" lon="17.66392805005">
        <ele>0</ele>
        <time>2017-10-15T14:24:08Z</time>
      </trkpt>
      <trkpt lat="59.793872355326" lon="17.663963673125">
        <ele>0</ele>
        <time>2017-10-15T14:24:09Z</time>
      </trkpt>
      <trkpt lat="59.793821141917" lon="17.663984292599">
        <ele>0</ele>
        <time>2017-10-15T14:24:10Z</time>
      </trkpt>
      <trkpt lat="59.793771772526" lon="17.664007426643">
        <ele>0</ele>
        <time>2017-10-15T14:24:11Z</time>
      </trkpt>
      <trkpt lat="59.793718882737" lon="17.664032069429">
        <ele>0</ele>
        <time>2017-10-15T14:24:12Z</time>
      </trkpt>
      <trkpt lat="59.793658784514" lon="17.664056628396">
        <ele>0</ele>
        <time>2017-10-15T14:24:13Z</time>
      </trkpt>
      <trkpt lat="59.793606984372" lon="17.664076242042">
        <ele>0</ele>
        <time>2017-10-15T14:24:14Z</time>
      </trkpt>
      <trkpt lat="59.793548394891" lon="17.664100801009">
        <ele>0</ele>
        <time>2017-10-15T14:24:15Z</time>
      </trkpt>
      <trkpt lat="59.793492068523" lon="17.664124773243">
        <ele>0</ele>
        <time>2017-10-15T14:24:16Z</time>
      </trkpt>
      <trkpt lat="59.793444291693" lon="17.664147991106">
        <ele>0</ele>
        <time>2017-10-15T14:24:17Z</time>
      </trkpt>
      <trkpt lat="59.793381511262" lon="17.664169700227">
        <ele>0</ele>
        <time>2017-10-15T14:24:18Z</time>
      </trkpt>
      <trkpt lat="59.793324430523" lon="17.664185877294">
        <ele>0</ele>
        <time>2017-10-15T14:24:19Z</time>
      </trkpt>
      <trkpt lat="59.793266595413" lon="17.664194175375">
        <ele>0</ele>
        <time>2017-10-15T14:24:20Z</time>
      </trkpt>
      <trkpt lat="59.793209347036" lon="17.664194929746">
        <ele>0</ele>
        <time>2017-10-15T14:24:21Z</time>
      </trkpt>
      <trkpt lat="59.793158049808" lon="17.664188475683">
        <ele>0</ele>
        <time>2017-10-15T14:24:22Z</time>
      </trkpt>
      <trkpt lat="59.793101807259" lon="17.664179926145">
        <ele>0</ele>
        <time>2017-10-15T14:24:23Z</time>
      </trkpt>
      <trkpt lat="59.79304053557" lon="17.664161653603">
        <ele>0</ele>
        <time>2017-10-15T14:24:24Z</time>
      </trkpt>
      <trkpt lat="59.792982784279" lon="17.664145727993">
        <ele>0</ele>
        <time>2017-10-15T14:24:25Z</time>
      </trkpt>
      <trkpt lat="59.792925871178" lon="17.664127120175">
        <ele>0</ele>
        <time>2017-10-15T14:24:26Z</time>
      </trkpt>
      <trkpt lat="59.792873232846" lon="17.664098118801">
        <ele>0</ele>
        <time>2017-10-15T14:24:27Z</time>
      </trkpt>
      <trkpt lat="59.792814894822" lon="17.66406048407">
        <ele>0</ele>
        <time>2017-10-15T14:24:28Z</time>
      </trkpt>
      <trkpt lat="59.79276728563" lon="17.664023352253">
        <ele>0</ele>
        <time>2017-10-15T14:24:29Z</time>
      </trkpt>
      <trkpt lat="59.792707271226" lon="17.663973731405">
        <ele>0</ele>
        <time>2017-10-15T14:24:30Z</time>
      </trkpt>
      <trkpt lat="59.792656476912" lon="17.663921009254">
        <ele>0</ele>
        <time>2017-10-15T14:24:31Z</time>
      </trkpt>
      <trkpt lat="59.792608197168" lon="17.66387859684">
        <ele>0</ele>
        <time>2017-10-15T14:24:32Z</time>
      </trkpt>
      <trkpt lat="59.792551786981" lon="17.663834591865">
        <ele>0</ele>
        <time>2017-10-15T14:24:33Z</time>
      </trkpt>
      <trkpt lat="59.792498729554" lon="17.663793604374">
        <ele>0</ele>
        <time>2017-10-15T14:24:34Z</time>
      </trkpt>
      <trkpt lat="59.792447851421" lon="17.663763010439">
        <ele>0</ele>
        <time>2017-10-15T14:24:35Z</time>
      </trkpt>
      <trkpt lat="59.792391944148" lon="17.663732584142">
        <ele>0</ele>
        <time>2017-10-15T14:24:36Z</time>
      </trkpt>
      <trkpt lat="59.792345089327" lon="17.66371347341">
        <ele>0</ele>
        <time>2017-10-15T14:24:37Z</time>
      </trkpt>
      <trkpt lat="59.792291612805" lon="17.663688243891">
        <ele>0</ele>
        <time>2017-10-15T14:24:38Z</time>
      </trkpt>
      <trkpt lat="59.792244171251" lon="17.663658236689">
        <ele>0</ele>
        <time>2017-10-15T14:24:39Z</time>
      </trkpt>
      <trkpt lat="59.792195472412" lon="17.663628564763">
        <ele>0</ele>
        <time>2017-10-15T14:24:40Z</time>
      </trkpt>
      <trkpt lat="59.792149958695" lon="17.663601323588">
        <ele>0</ele>
        <time>2017-10-15T14:24:41Z</time>
      </trkpt>
      <trkpt lat="59.792097488001" lon="17.663575088241">
        <ele>0</ele>
        <time>2017-10-15T14:24:42Z</time>
      </trkpt>
      <trkpt lat="59.792042083642" lon="17.663540554813">
        <ele>0</ele>
        <time>2017-10-15T14:24:43Z</time>
      </trkpt>
      <trkpt lat="59.791990786414" lon="17.663510966706">
        <ele>0</ele>
        <time>2017-10-15T14:24:44Z</time>
      </trkpt>
      <trkpt lat="59.791935046779" lon="17.663474756898">
        <ele>0</ele>
        <time>2017-10-15T14:24:45Z</time>
      </trkpt>
      <trkpt lat="59.791887940501" lon="17.663444582058">
        <ele>0</ele>
        <time>2017-10-15T14:24:46Z</time>
      </trkpt>
      <trkpt lat="59.791844941354" lon="17.663414407218">
        <ele>0</ele>
        <time>2017-10-15T14:24:47Z</time>
      </trkpt>
      <trkpt lat="59.791788195891" lon="17.663380628161">
        <ele>0</ele>
        <time>2017-10-15T14:24:48Z</time>
      </trkpt>
      <trkpt lat="59.791746537848" lon="17.663371659528">
        <ele>0</ele>
        <time>2017-10-15T14:24:49Z</time>
      </trkpt>
      <trkpt lat="59.791696330267" lon="17.663351123873">
        <ele>0</ele>
        <time>2017-10-15T14:24:50Z</time>
      </trkpt>
      <trkpt lat="59.791649307808" lon="17.663321368128">
        <ele>0</ele>
        <time>2017-10-15T14:24:51Z</time>
      </trkpt>
      <trkpt lat="59.791600776607" lon="17.663296557704">
        <ele>0</ele>
        <time>2017-10-15T14:24:52Z</time>
      </trkpt>
      <trkpt lat="59.791546629533" lon="17.663262862466">
        <ele>0</ele>
        <time>2017-10-15T14:24:53Z</time>
      </trkpt>
      <trkpt lat="59.791496002857" lon="17.663224389545">
        <ele>0</ele>
        <time>2017-10-15T14:24:54Z</time>
      </trkpt>
      <trkpt lat="59.791448393665" lon="17.66318289914">
        <ele>0</ele>
        <time>2017-10-15T14:24:55Z</time>
      </trkpt>
      <trkpt lat="59.791404221052" lon="17.663144929133">
        <ele>0</ele>
        <time>2017-10-15T14:24:56Z</time>
      </trkpt>
      <trkpt lat="59.791364826122" lon="17.663114083741">
        <ele>0</ele>
        <time>2017-10-15T14:24:57Z</time>
      </trkpt>
      <trkpt lat="59.791323335717" lon="17.663080053227">
        <ele>0</ele>
        <time>2017-10-15T14:24:58Z</time>
      </trkpt>
      <trkpt lat="59.791291149221" lon="17.663057003002">
        <ele>0.2</ele>
        <time>2017-10-15T14:24:59Z</time>
      </trkpt>
      <trkpt lat="59.79125435268" lon="17.663027917809">
        <ele>0.4</ele>
        <time>2017-10-15T14:25:00Z</time>
      </trkpt>
      <trkpt lat="59.791226273315" lon="17.663005957231">
        <ele>0.8</ele>
        <time>2017-10-15T14:25:01Z</time>
      </trkpt>
      <trkpt lat="59.791201881986" lon="17.662980727712">
        <ele>1.2</ele>
        <time>2017-10-15T14:25:02Z</time>
      </trkpt>
      <trkpt lat="59.791171539508" lon="17.662953067442">
        <ele>1.6</ele>
        <time>2017-10-15T14:25:03Z</time>
      </trkpt>
      <trkpt lat="59.791142621953" lon="17.662916522358">
        <ele>2</ele>
        <time>2017-10-15T14:25:04Z</time>
      </trkpt>
      <trkpt lat="59.791111189828" lon="17.66289037083">
        <ele>2.4</ele>
        <time>2017-10-15T14:25:05Z</time>
      </trkpt>
      <trkpt lat="59.791071124346" lon="17.662873187935">
        <ele>2.8</ele>
        <time>2017-10-15T14:25:06Z</time>
      </trkpt>
      <trkpt lat="59.791036674737" lon="17.66286522513">
        <ele>3</ele>
        <time>2017-10-15T14:25:07Z</time>
      </trkpt>
      <trkpt lat="59.791000045834" lon="17.662865057492">
        <ele>3</ele>
        <time>2017-10-15T14:25:08Z</time>
      </trkpt>
      <trkpt lat="59.79096350075" lon="17.662875702505">
        <ele>3.2</ele>
        <time>2017-10-15T14:25:09Z</time>
      </trkpt>
      <trkpt lat="59.79092997315" lon="17.662896657255">
        <ele>3</ele>
        <time>2017-10-15T14:25:10Z</time>
      </trkpt>
      <trkpt lat="59.790894936808" lon="17.662916103263">
        <ele>3.2</ele>
        <time>2017-10-15T14:25:11Z</time>
      </trkpt>
      <trkpt lat="59.790860654837" lon="17.662932447968">
        <ele>3.2</ele>
        <time>2017-10-15T14:25:12Z</time>
      </trkpt>
      <trkpt lat="59.790821679002" lon="17.662947200112">
        <ele>3.2</ele>
        <time>2017-10-15T14:25:13Z</time>
      </trkpt>
      <trkpt lat="59.790788235221" lon="17.662961197885">
        <ele>3.2</ele>
        <time>2017-10-15T14:25:14Z</time>
      </trkpt>
      <trkpt lat="59.790749091748" lon="17.662982990825">
        <ele>3.4</ele>
        <time>2017-10-15T14:25:15Z</time>
      </trkpt>
      <trkpt lat="59.790710535008" lon="17.662999167892">
        <ele>3.4</ele>
        <time>2017-10-15T14:25:16Z</time>
      </trkpt>
      <trkpt lat="59.790677426503" lon="17.663006711602">
        <ele>3.4</ele>
        <time>2017-10-15T14:25:17Z</time>
      </trkpt>
      <trkpt lat="59.790640713781" lon="17.663009729086">
        <ele>3.4</ele>
        <time>2017-10-15T14:25:18Z</time>
      </trkpt>
      <trkpt lat="59.79061397552" lon="17.663018949176">
        <ele>3.6</ele>
        <time>2017-10-15T14:25:19Z</time>
      </trkpt>
      <trkpt lat="59.790588243087" lon="17.663027582533">
        <ele>3.6</ele>
        <time>2017-10-15T14:25:20Z</time>
      </trkpt>
      <trkpt lat="59.790557397695" lon="17.663032695492">
        <ele>4</ele>
        <time>2017-10-15T14:25:21Z</time>
      </trkpt>
      <trkpt lat="59.790532000538" lon="17.663036048252">
        <ele>4.2</ele>
        <time>2017-10-15T14:25:22Z</time>
      </trkpt>
      <trkpt lat="59.790499311128" lon="17.663034371872">
        <ele>4.4</ele>
        <time>2017-10-15T14:25:23Z</time>
      </trkpt>
      <trkpt lat="59.790458994189" lon="17.66303956865">
        <ele>4.6</ele>
        <time>2017-10-15T14:25:24Z</time>
      </trkpt>
      <trkpt lat="59.790425801865" lon="17.663035126243">
        <ele>4.8</ele>
        <time>2017-10-15T14:25:25Z</time>
      </trkpt>
      <trkpt lat="59.790388921505" lon="17.663033533682">
        <ele>4.8</ele>
        <time>2017-10-15T14:25:26Z</time>
      </trkpt>
      <trkpt lat="59.790356986466" lon="17.663026241429">
        <ele>5</ele>
        <time>2017-10-15T14:25:27Z</time>
      </trkpt>
      <trkpt lat="59.790334522974" lon="17.663012159837">
        <ele>5.2</ele>
        <time>2017-10-15T14:25:28Z</time>
      </trkpt>
      <trkpt lat="59.790300241003" lon="17.663003777937">
        <ele>5.4</ele>
        <time>2017-10-15T14:25:29Z</time>
      </trkpt>
      <trkpt lat="59.790258750598" lon="17.662985589214">
        <ele>5.6</ele>
        <time>2017-10-15T14:25:30Z</time>
      </trkpt>
      <trkpt lat="59.790226396464" lon="17.662954240908">
        <ele>5.8</ele>
        <time>2017-10-15T14:25:31Z</time>
      </trkpt>
      <trkpt lat="59.790197059814" lon="17.662935549271">
        <ele>5.8</ele>
        <time>2017-10-15T14:25:32Z</time>
      </trkpt>
      <trkpt lat="59.790162694024" lon="17.662917947281">
        <ele>6</ele>
        <time>2017-10-15T14:25:33Z</time>
      </trkpt>
      <trkpt lat="59.79013201627" lon="17.662895483789">
        <ele>6</ele>
        <time>2017-10-15T14:25:34Z</time>
      </trkpt>
      <trkpt lat="59.790104356" lon="17.662885676966">
        <ele>6</ele>
        <time>2017-10-15T14:25:35Z</time>
      </trkpt>
      <trkpt lat="59.790068900563" lon="17.662868745528">
        <ele>6.2</ele>
        <time>2017-10-15T14:25:36Z</time>
      </trkpt>
      <trkpt lat="59.790037133162" lon="17.662855669764">
        <ele>6.4</ele>
        <time>2017-10-15T14:25:37Z</time>
      </trkpt>
      <trkpt lat="59.789996061852" lon="17.662842510181">
        <ele>6.4</ele>
        <time>2017-10-15T14:25:38Z</time>
      </trkpt>
      <trkpt lat="59.789954403809" lon="17.662827087485">
        <ele>6.6</ele>
        <time>2017-10-15T14:25:39Z</time>
      </trkpt>
      <trkpt lat="59.789915511793" lon="17.662814598454">
        <ele>6.8</ele>
        <time>2017-10-15T14:25:40Z</time>
      </trkpt>
      <trkpt lat="59.789884331125" lon="17.662795320084">
        <ele>7</ele>
        <time>2017-10-15T14:25:41Z</time>
      </trkpt>
      <trkpt lat="59.789853234276" lon="17.66277218604">
        <ele>7</ele>
        <time>2017-10-15T14:25:42Z</time>
      </trkpt>
      <trkpt lat="59.789818449391" lon="17.662749974005">
        <ele>7.2</ele>
        <time>2017-10-15T14:25:43Z</time>
      </trkpt>
      <trkpt lat="59.789785340886" lon="17.662732455834">
        <ele>7.2</ele>
        <time>2017-10-15T14:25:44Z</time>
      </trkpt>
      <trkpt lat="59.789748376707" lon="17.662705214659">
        <ele>7.4</ele>
        <time>2017-10-15T14:25:45Z</time>
      </trkpt>
      <trkpt lat="59.789710239062" lon="17.662679901321">
        <ele>7.6</ele>
        <time>2017-10-15T14:25:46Z</time>
      </trkpt>
      <trkpt lat="59.789672604331" lon="17.662667831385">
        <ele>7.4</ele>
        <time>2017-10-15T14:25:47Z</time>
      </trkpt>
      <trkpt lat="59.78962491132" lon="17.662644362065">
        <ele>7.6</ele>
        <time>2017-10-15T14:25:48Z</time>
      </trkpt>
      <trkpt lat="59.789586857494" lon="17.662608152257">
        <ele>7.6</ele>
        <time>2017-10-15T14:25:49Z</time>
      </trkpt>
      <trkpt lat="59.789549558039" lon="17.662573283553">
        <ele>7.6</ele>
        <time>2017-10-15T14:25:50Z</time>
      </trkpt>
      <trkpt lat="59.789515527525" lon="17.662535481184">
        <ele>7.6</ele>
        <time>2017-10-15T14:25:51Z</time>
      </trkpt>
      <trkpt lat="59.789487029065" lon="17.662505809258">
        <ele>7.8</ele>
        <time>2017-10-15T14:25:52Z</time>
      </trkpt>
      <trkpt lat="59.789470432903" lon="17.662478903359">
        <ele>7.8</ele>
        <time>2017-10-15T14:25:53Z</time>
      </trkpt>
      <trkpt lat="59.789441850624" lon="17.662441603904">
        <ele>8.2</ele>
        <time>2017-10-15T14:25:54Z</time>
      </trkpt>
      <trkpt lat="59.789428188127" lon="17.662415033281">
        <ele>8.2</ele>
        <time>2017-10-15T14:25:55Z</time>
      </trkpt>
      <trkpt lat="59.789409831766" lon="17.662368346098">
        <ele>8.6</ele>
        <time>2017-10-15T14:25:56Z</time>
      </trkpt>
      <trkpt lat="59.789391140129" lon="17.662339847638">
        <ele>8.8</ele>
        <time>2017-10-15T14:25:57Z</time>
      </trkpt>
      <trkpt lat="59.789370269198" lon="17.662306487676">
        <ele>9.4</ele>
        <time>2017-10-15T14:25:58Z</time>
      </trkpt>
      <trkpt lat="59.789350907009" lon="17.662290478247">
        <ele>9.6</ele>
        <time>2017-10-15T14:25:59Z</time>
      </trkpt>
      <trkpt lat="59.789324587843" lon="17.662270445506">
        <ele>10</ele>
        <time>2017-10-15T14:26:00Z</time>
      </trkpt>
      <trkpt lat="59.789305058016" lon="17.662269188221">
        <ele>10.4</ele>
        <time>2017-10-15T14:26:01Z</time>
      </trkpt>
      <trkpt lat="59.789277984479" lon="17.662263488529">
        <ele>10.6</ele>
        <time>2017-10-15T14:26:02Z</time>
      </trkpt>
      <trkpt lat="59.789251497675" lon="17.66227178661">
        <ele>10.8</ele>
        <time>2017-10-15T14:26:03Z</time>
      </trkpt>
      <trkpt lat="59.789222328663" lon="17.662277067207">
        <ele>11</ele>
        <time>2017-10-15T14:26:04Z</time>
      </trkpt>
      <trkpt lat="59.789183604285" lon="17.662293076636">
        <ele>11.2</ele>
        <time>2017-10-15T14:26:05Z</time>
      </trkpt>
      <trkpt lat="59.789146388649" lon="17.662309253703">
        <ele>11.4</ele>
        <time>2017-10-15T14:26:06Z</time>
      </trkpt>
      <trkpt lat="59.789109927384" lon="17.66232040163">
        <ele>11.6</ele>
        <time>2017-10-15T14:26:07Z</time>
      </trkpt>
      <trkpt lat="59.789064832762" lon="17.662339260905">
        <ele>11.6</ele>
        <time>2017-10-15T14:26:08Z</time>
      </trkpt>
      <trkpt lat="59.789015631009" lon="17.662350073556">
        <ele>11.6</ele>
        <time>2017-10-15T14:26:09Z</time>
      </trkpt>
      <trkpt lat="59.788969782016" lon="17.662360383293">
        <ele>11.4</ele>
        <time>2017-10-15T14:26:10Z</time>
      </trkpt>
      <trkpt lat="59.788927704878" lon="17.662372117953">
        <ele>11.4</ele>
        <time>2017-10-15T14:26:11Z</time>
      </trkpt>
      <trkpt lat="59.788880514781" lon="17.662377901464">
        <ele>11.2</ele>
        <time>2017-10-15T14:26:12Z</time>
      </trkpt>
      <trkpt lat="59.78883282177" lon="17.662390641952">
        <ele>11</ele>
        <time>2017-10-15T14:26:13Z</time>
      </trkpt>
      <trkpt lat="59.788793091564" lon="17.662377482369">
        <ele>10.8</ele>
        <time>2017-10-15T14:26:14Z</time>
      </trkpt>
      <trkpt lat="59.788742045793" lon="17.662354683601">
        <ele>10.8</ele>
        <time>2017-10-15T14:26:15Z</time>
      </trkpt>
      <trkpt lat="59.788696951171" lon="17.662307409685">
        <ele>10.6</ele>
        <time>2017-10-15T14:26:16Z</time>
      </trkpt>
      <trkpt lat="59.788661579553" lon="17.662258124113">
        <ele>10.4</ele>
        <time>2017-10-15T14:26:17Z</time>
      </trkpt>
      <trkpt lat="59.788623190451" lon="17.662160894073">
        <ele>10</ele>
        <time>2017-10-15T14:26:18Z</time>
      </trkpt>
      <trkpt lat="59.788581029494" lon="17.662047906061">
        <ele>9.4</ele>
        <time>2017-10-15T14:26:19Z</time>
      </trkpt>
      <trkpt lat="59.78854783717" lon="17.661926619968">
        <ele>8.8</ele>
        <time>2017-10-15T14:26:20Z</time>
      </trkpt>
      <trkpt lat="59.788512465552" lon="17.661816062707">
        <ele>8</ele>
        <time>2017-10-15T14:26:21Z</time>
      </trkpt>
      <trkpt lat="59.788475417554" lon="17.66171522845">
        <ele>7.6</ele>
        <time>2017-10-15T14:26:22Z</time>
      </trkpt>
      <trkpt lat="59.788434010968" lon="17.661618166048">
        <ele>7.2</ele>
        <time>2017-10-15T14:26:23Z</time>
      </trkpt>
      <trkpt lat="59.788375253849" lon="17.661529317908">
        <ele>6.8</ele>
        <time>2017-10-15T14:26:24Z</time>
      </trkpt>
      <trkpt lat="59.788319262757" lon="17.661471985712">
        <ele>6.4</ele>
        <time>2017-10-15T14:26:25Z</time>
      </trkpt>
      <trkpt lat="59.788257404335" lon="17.661423035416">
        <ele>6.2</ele>
        <time>2017-10-15T14:26:26Z</time>
      </trkpt>
      <trkpt lat="59.788200658872" lon="17.661383975762">
        <ele>6</ele>
        <time>2017-10-15T14:26:27Z</time>
      </trkpt>
      <trkpt lat="59.788147098531" lon="17.661317758752">
        <ele>5.6</ele>
        <time>2017-10-15T14:26:28Z</time>
      </trkpt>
      <trkpt lat="59.788107033049" lon="17.661261348565">
        <ele>5.2</ele>
        <time>2017-10-15T14:26:29Z</time>
      </trkpt>
      <trkpt lat="59.788048862663" lon="17.661207620586">
        <ele>4.8</ele>
        <time>2017-10-15T14:26:30Z</time>
      </trkpt>
      <trkpt lat="59.788005192964" lon="17.66113855373">
        <ele>4.4</ele>
        <time>2017-10-15T14:26:31Z</time>
      </trkpt>
      <trkpt lat="59.787971916821" lon="17.66106898396">
        <ele>4.2</ele>
        <time>2017-10-15T14:26:32Z</time>
      </trkpt>
      <trkpt lat="59.787941909619" lon="17.660995642335">
        <ele>4</ele>
        <time>2017-10-15T14:26:33Z</time>
      </trkpt>
      <trkpt lat="59.787918272661" lon="17.660942081994">
        <ele>3.8</ele>
        <time>2017-10-15T14:26:34Z</time>
      </trkpt>
      <trkpt lat="59.787896312083" lon="17.660924731461">
        <ele>3.8</ele>
        <time>2017-10-15T14:26:35Z</time>
      </trkpt>
      <trkpt lat="59.787872088392" lon="17.660927078393">
        <ele>3.8</ele>
        <time>2017-10-15T14:26:36Z</time>
      </trkpt>
      <trkpt lat="59.787851133642" lon="17.660952810826">
        <ele>3.8</ele>
        <time>2017-10-15T14:26:37Z</time>
      </trkpt>
      <trkpt lat="59.787829005426" lon="17.660992121937">
        <ele>3.8</ele>
        <time>2017-10-15T14:26:38Z</time>
      </trkpt>
      <trkpt lat="59.787804278821" lon="17.66102791265">
        <ele>3.8</ele>
        <time>2017-10-15T14:26:39Z</time>
      </trkpt>
      <trkpt lat="59.7877825697" lon="17.661083065552">
        <ele>3.8</ele>
        <time>2017-10-15T14:26:40Z</time>
      </trkpt>
      <trkpt lat="59.787760944398" lon="17.661151713313">
        <ele>3.8</ele>
        <time>2017-10-15T14:26:41Z</time>
      </trkpt>
      <trkpt lat="59.787737391259" lon="17.661233855933">
        <ele>3.8</ele>
        <time>2017-10-15T14:26:42Z</time>
      </trkpt>
      <trkpt lat="59.78770880898" lon="17.661336115113">
        <ele>3.6</ele>
        <time>2017-10-15T14:26:43Z</time>
      </trkpt>
      <trkpt lat="59.787680142882" lon="17.661429489479">
        <ele>3.6</ele>
        <time>2017-10-15T14:26:44Z</time>
      </trkpt>
      <trkpt lat="59.787647369653" lon="17.66154591407">
        <ele>3.4</ele>
        <time>2017-10-15T14:26:45Z</time>
      </trkpt>
      <trkpt lat="59.787614009691" lon="17.661658147711">
        <ele>3.2</ele>
        <time>2017-10-15T14:26:46Z</time>
      </trkpt>
      <trkpt lat="59.787586014145" lon="17.661755796846">
        <ele>2.8</ele>
        <time>2017-10-15T14:26:47Z</time>
      </trkpt>
      <trkpt lat="59.787546451577" lon="17.661889739608">
        <ele>2.4</ele>
        <time>2017-10-15T14:26:48Z</time>
      </trkpt>
      <trkpt lat="59.787513259253" lon="17.662010941882">
        <ele>2.2</ele>
        <time>2017-10-15T14:26:49Z</time>
      </trkpt>
      <trkpt lat="59.787476295074" lon="17.662130886871">
        <ele>1.8</ele>
        <time>2017-10-15T14:26:50Z</time>
      </trkpt>
      <trkpt lat="59.787441007275" lon="17.662252424421">
        <ele>1.6</ele>
        <time>2017-10-15T14:26:51Z</time>
      </trkpt>
      <trkpt lat="59.787408569322" lon="17.662366753537">
        <ele>1.4</ele>
        <time>2017-10-15T14:26:52Z</time>
      </trkpt>
      <trkpt lat="59.7873718566" lon="17.662486866164">
        <ele>1.4</ele>
        <time>2017-10-15T14:26:53Z</time>
      </trkpt>
      <trkpt lat="59.787336149706" lon="17.662621060383">
        <ele>1.6</ele>
        <time>2017-10-15T14:26:54Z</time>
      </trkpt>
      <trkpt lat="59.787302119192" lon="17.662738406983">
        <ele>1.2</ele>
        <time>2017-10-15T14:26:55Z</time>
      </trkpt>
      <trkpt lat="59.787265155013" lon="17.662854244841">
        <ele>0.8</ele>
        <time>2017-10-15T14:26:56Z</time>
      </trkpt>
      <trkpt lat="59.787231962689" lon="17.662962790446">
        <ele>0.6</ele>
        <time>2017-10-15T14:26:57Z</time>
      </trkpt>
      <trkpt lat="59.787194579415" lon="17.663087261661">
        <ele>0.4</ele>
        <time>2017-10-15T14:26:58Z</time>
      </trkpt>
      <trkpt lat="59.787167505878" lon="17.663187844461">
        <ele>0.2</ele>
        <time>2017-10-15T14:26:59Z</time>
      </trkpt>
      <trkpt lat="59.787125847835" lon="17.663323798879">
        <ele>0.2</ele>
        <time>2017-10-15T14:27:00Z</time>
      </trkpt>
      <trkpt lat="59.78709022476" lon="17.663436451615">
        <ele>0.4</ele>
        <time>2017-10-15T14:27:01Z</time>
      </trkpt>
      <trkpt lat="59.787061055748" lon="17.663544578125">
        <ele>0.6</ele>
        <time>2017-10-15T14:27:02Z</time>
      </trkpt>
      <trkpt lat="59.787027947243" lon="17.663661170354">
        <ele>0.8</ele>
        <time>2017-10-15T14:27:03Z</time>
      </trkpt>
      <trkpt lat="59.78699886205" lon="17.663764770638">
        <ele>1</ele>
        <time>2017-10-15T14:27:04Z</time>
      </trkpt>
      <trkpt lat="59.786970447409" lon="17.663857222995">
        <ele>1.2</ele>
        <time>2017-10-15T14:27:05Z</time>
      </trkpt>
      <trkpt lat="59.786941697492" lon="17.66395822489">
        <ele>1.2</ele>
        <time>2017-10-15T14:27:06Z</time>
      </trkpt>
      <trkpt lat="59.78691755762" lon="17.664039780777">
        <ele>1.4</ele>
        <time>2017-10-15T14:27:07Z</time>
      </trkpt>
      <trkpt lat="59.786889729712" lon="17.664127958365">
        <ele>1.6</ele>
        <time>2017-10-15T14:27:08Z</time>
      </trkpt>
      <trkpt lat="59.786865338383" lon="17.664207502596">
        <ele>1.8</ele>
        <time>2017-10-15T14:27:09Z</time>
      </trkpt>
      <trkpt lat="59.786841869063" lon="17.664277240004">
        <ele>2.2</ele>
        <time>2017-10-15T14:27:10Z</time>
      </trkpt>
      <trkpt lat="59.78682451853" lon="17.664343373195">
        <ele>2.8</ele>
        <time>2017-10-15T14:27:11Z</time>
      </trkpt>
      <trkpt lat="59.78680775473" lon="17.664410260757">
        <ele>3.2</ele>
        <time>2017-10-15T14:27:12Z</time>
      </trkpt>
      <trkpt lat="59.786786297066" lon="17.664478573242">
        <ele>3.6</ele>
        <time>2017-10-15T14:27:13Z</time>
      </trkpt>
      <trkpt lat="59.786767186334" lon="17.664527858814">
        <ele>4.2</ele>
        <time>2017-10-15T14:27:14Z</time>
      </trkpt>
      <trkpt lat="59.786747237412" lon="17.664590303969">
        <ele>4.6</ele>
        <time>2017-10-15T14:27:15Z</time>
      </trkpt>
      <trkpt lat="59.786727959042" lon="17.664644199586">
        <ele>4.8</ele>
        <time>2017-10-15T14:27:16Z</time>
      </trkpt>
      <trkpt lat="59.786711865794" lon="17.664687031095">
        <ele>5</ele>
        <time>2017-10-15T14:27:17Z</time>
      </trkpt>
      <trkpt lat="59.786688983207" lon="17.664745955852">
        <ele>5.2</ele>
        <time>2017-10-15T14:27:18Z</time>
      </trkpt>
      <trkpt lat="59.786668782828" lon="17.664795157605">
        <ele>5.2</ele>
        <time>2017-10-15T14:27:19Z</time>
      </trkpt>
      <trkpt lat="59.786645229689" lon="17.66484083896">
        <ele>5.4</ele>
        <time>2017-10-15T14:27:20Z</time>
      </trkpt>
      <trkpt lat="59.786621089817" lon="17.66488861579">
        <ele>5.6</ele>
        <time>2017-10-15T14:27:21Z</time>
      </trkpt>
      <trkpt lat="59.786595860298" lon="17.664929351824">
        <ele>5.6</ele>
        <time>2017-10-15T14:27:22Z</time>
      </trkpt>
      <trkpt lat="59.786568702942" lon="17.664973021523">
        <ele>5.6</ele>
        <time>2017-10-15T14:27:23Z</time>
      </trkpt>
      <trkpt lat="59.786537522274" lon="17.665011075349">
        <ele>5.6</ele>
        <time>2017-10-15T14:27:24Z</time>
      </trkpt>
      <trkpt lat="59.786508604719" lon="17.665049380632">
        <ele>5.6</ele>
        <time>2017-10-15T14:27:25Z</time>
      </trkpt>
      <trkpt lat="59.786481112087" lon="17.665085171345">
        <ele>5.8</ele>
        <time>2017-10-15T14:27:26Z</time>
      </trkpt>
      <trkpt lat="59.786458900052" lon="17.665124650094">
        <ele>6</ele>
        <time>2017-10-15T14:27:27Z</time>
      </trkpt>
      <trkpt lat="59.786449679962" lon="17.665185754145">
        <ele>6.2</ele>
        <time>2017-10-15T14:27:28Z</time>
      </trkpt>
      <trkpt lat="59.7864582295" lon="17.665196985891">
        <ele>6.6</ele>
        <time>2017-10-15T14:27:29Z</time>
      </trkpt>
      <trkpt lat="59.786486057408" lon="17.665253563716">
        <ele>6.8</ele>
        <time>2017-10-15T14:27:30Z</time>
      </trkpt>
      <trkpt lat="59.786531235849" lon="17.665277368312">
        <ele>7.4</ele>
        <time>2017-10-15T14:27:31Z</time>
      </trkpt>
      <trkpt lat="59.78656970877" lon="17.665298323062">
        <ele>7.6</ele>
        <time>2017-10-15T14:27:32Z</time>
      </trkpt>
      <trkpt lat="59.786616731229" lon="17.665315841233">
        <ele>7.8</ele>
        <time>2017-10-15T14:27:33Z</time>
      </trkpt>
      <trkpt lat="59.786668782828" lon="17.665321373287">
        <ele>8</ele>
        <time>2017-10-15T14:27:34Z</time>
      </trkpt>
      <trkpt lat="59.78671723021" lon="17.665328246445">
        <ele>8</ele>
        <time>2017-10-15T14:27:35Z</time>
      </trkpt>
      <trkpt lat="59.786775735872" lon="17.66532615097">
        <ele>7.8</ele>
        <time>2017-10-15T14:27:36Z</time>
      </trkpt>
      <trkpt lat="59.786827955109" lon="17.665317852889">
        <ele>7.8</ele>
        <time>2017-10-15T14:27:37Z</time>
      </trkpt>
      <trkpt lat="59.786892160463" lon="17.665307124057">
        <ele>7.6</ele>
        <time>2017-10-15T14:27:38Z</time>
      </trkpt>
      <trkpt lat="59.786952426324" lon="17.665302011098">
        <ele>7.4</ele>
        <time>2017-10-15T14:27:39Z</time>
      </trkpt>
      <trkpt lat="59.787013362737" lon="17.665298574519">
        <ele>7.2</ele>
        <time>2017-10-15T14:27:40Z</time>
      </trkpt>
      <trkpt lat="59.787076143168" lon="17.66528507966">
        <ele>7.2</ele>
        <time>2017-10-15T14:27:41Z</time>
      </trkpt>
      <trkpt lat="59.787143952739" lon="17.6652649631">
        <ele>7</ele>
        <time>2017-10-15T14:27:42Z</time>
      </trkpt>
      <trkpt lat="59.78721846783" lon="17.665241829056">
        <ele>6.8</ele>
        <time>2017-10-15T14:27:43Z</time>
      </trkpt>
      <trkpt lat="59.787285439211" lon="17.665222885962">
        <ele>6.6</ele>
        <time>2017-10-15T14:27:44Z</time>
      </trkpt>
      <trkpt lat="59.787362301234" lon="17.665200506289">
        <ele>6.6</ele>
        <time>2017-10-15T14:27:45Z</time>
      </trkpt>
      <trkpt lat="59.787436313411" lon="17.665173181295">
        <ele>6.2</ele>
        <time>2017-10-15T14:27:46Z</time>
      </trkpt>
      <trkpt lat="59.787502781878" lon="17.665144599016">
        <ele>5.8</ele>
        <time>2017-10-15T14:27:47Z</time>
      </trkpt>
      <trkpt lat="59.787592971122" lon="17.665113334529">
        <ele>5.4</ele>
        <time>2017-10-15T14:27:48Z</time>
      </trkpt>
      <trkpt lat="59.787675197561" lon="17.665086512449">
        <ele>5</ele>
        <time>2017-10-15T14:27:49Z</time>
      </trkpt>
      <trkpt lat="59.787760357665" lon="17.665063294586">
        <ele>4.4</ele>
        <time>2017-10-15T14:27:50Z</time>
      </trkpt>
      <trkpt lat="59.787841829733" lon="17.665053236306">
        <ele>3.6</ele>
        <time>2017-10-15T14:27:51Z</time>
      </trkpt>
      <trkpt lat="59.787923888534" lon="17.665055499419">
        <ele>3</ele>
        <time>2017-10-15T14:27:52Z</time>
      </trkpt>
      <trkpt lat="59.788015418882" lon="17.665063629862">
        <ele>2.6</ele>
        <time>2017-10-15T14:27:53Z</time>
      </trkpt>
      <trkpt lat="59.788110553447" lon="17.665067066441">
        <ele>2</ele>
        <time>2017-10-15T14:27:54Z</time>
      </trkpt>
      <trkpt lat="59.788201161786" lon="17.665066563527">
        <ele>1.8</ele>
        <time>2017-10-15T14:27:55Z</time>
      </trkpt>
      <trkpt lat="59.788295290523" lon="17.665065222423">
        <ele>1.6</ele>
        <time>2017-10-15T14:27:56Z</time>
      </trkpt>
      <trkpt lat="59.788380869722" lon="17.665064719509">
        <ele>1.4</ele>
        <time>2017-10-15T14:27:57Z</time>
      </trkpt>
      <trkpt lat="59.788476926296" lon="17.665060528559">
        <ele>1.2</ele>
        <time>2017-10-15T14:27:58Z</time>
      </trkpt>
      <trkpt lat="59.788559152735" lon="17.665061199111">
        <ele>1.2</ele>
        <time>2017-10-15T14:27:59Z</time>
      </trkpt>
      <trkpt lat="59.788661076639" lon="17.665073771961">
        <ele>1</ele>
        <time>2017-10-15T14:28:00Z</time>
      </trkpt>
      <trkpt lat="59.788748667494" lon="17.66510905976">
        <ele>0.8</ele>
        <time>2017-10-15T14:28:01Z</time>
      </trkpt>
      <trkpt lat="59.788826702983" lon="17.66515767478">
        <ele>0.6</ele>
        <time>2017-10-15T14:28:02Z</time>
      </trkpt>
      <trkpt lat="59.788911946906" lon="17.665224981437">
        <ele>0.4</ele>
        <time>2017-10-15T14:28:03Z</time>
      </trkpt>
      <trkpt lat="59.788988389834" lon="17.665298909795">
        <ele>0.2</ele>
        <time>2017-10-15T14:28:04Z</time>
      </trkpt>
      <trkpt lat="59.789052343731" lon="17.665369066298">
        <ele>0</ele>
        <time>2017-10-15T14:28:05Z</time>
      </trkpt>
      <trkpt lat="59.789125601537" lon="17.665446095959">
        <ele>0</ele>
        <time>2017-10-15T14:28:06Z</time>
      </trkpt>
      <trkpt lat="59.789179078059" lon="17.665495297712">
        <ele>0</ele>
        <time>2017-10-15T14:28:07Z</time>
      </trkpt>
      <trkpt lat="59.789242948137" lon="17.665565286577">
        <ele>0</ele>
        <time>2017-10-15T14:28:08Z</time>
      </trkpt>
      <trkpt lat="59.789306650577" lon="17.665620607117">
        <ele>0.2</ele>
        <time>2017-10-15T14:28:09Z</time>
      </trkpt>
      <trkpt lat="59.789373957234" lon="17.66567148525">
        <ele>0.6</ele>
        <time>2017-10-15T14:28:10Z</time>
      </trkpt>
      <trkpt lat="59.789443107909" lon="17.665714987311">
        <ele>1</ele>
        <time>2017-10-15T14:28:11Z</time>
      </trkpt>
      <trkpt lat="59.789507983815" lon="17.665752538223">
        <ele>1.2</ele>
        <time>2017-10-15T14:28:12Z</time>
      </trkpt>
      <trkpt lat="59.789577721223" lon="17.665796124103">
        <ele>1.4</ele>
        <time>2017-10-15T14:28:13Z</time>
      </trkpt>
      <trkpt lat="59.78964418969" lon="17.665838368879">
        <ele>1.6</ele>
        <time>2017-10-15T14:28:14Z</time>
      </trkpt>
      <trkpt lat="59.789718956238" lon="17.665884720786">
        <ele>1.6</ele>
        <time>2017-10-15T14:28:15Z</time>
      </trkpt>
      <trkpt lat="59.789791794949" lon="17.665930988874">
        <ele>1.4</ele>
        <time>2017-10-15T14:28:16Z</time>
      </trkpt>
      <trkpt lat="59.789851054982" lon="17.665977256962">
        <ele>1.4</ele>
        <time>2017-10-15T14:28:17Z</time>
      </trkpt>
      <trkpt lat="59.789928587557" lon="17.666040959402">
        <ele>1.4</ele>
        <time>2017-10-15T14:28:18Z</time>
      </trkpt>
      <trkpt lat="59.790000671897" lon="17.666100470892">
        <ele>1.2</ele>
        <time>2017-10-15T14:28:19Z</time>
      </trkpt>
      <trkpt lat="59.790068565287" lon="17.666165514436">
        <ele>1</ele>
        <time>2017-10-15T14:28:20Z</time>
      </trkpt>
      <trkpt lat="59.79013704541" lon="17.666232485817">
        <ele>1</ele>
        <time>2017-10-15T14:28:21Z</time>
      </trkpt>
      <trkpt lat="59.790199658203" lon="17.666310688944">
        <ele>0.8</ele>
        <time>2017-10-15T14:28:22Z</time>
      </trkpt>
      <trkpt lat="59.790226647921" lon="17.666354526281">
        <ele>0.8</ele>
        <time>2017-10-15T14:28:23Z</time>
      </trkpt>
      <trkpt lat="59.790324883789" lon="17.666499114056">
        <ele>0.8</ele>
        <time>2017-10-15T14:28:24Z</time>
      </trkpt>
      <trkpt lat="59.790392609541" lon="17.666611180059">
        <ele>0.6</ele>
        <time>2017-10-15T14:28:25Z</time>
      </trkpt>
      <trkpt lat="59.790450109375" lon="17.666721318225">
        <ele>0.4</ele>
        <time>2017-10-15T14:28:26Z</time>
      </trkpt>
      <trkpt lat="59.790505094639" lon="17.666828858002">
        <ele>0</ele>
        <time>2017-10-15T14:28:27Z</time>
      </trkpt>
      <trkpt lat="59.790565528138" lon="17.666946120783">
        <ele>0</ele>
        <time>2017-10-15T14:28:28Z</time>
      </trkpt>
      <trkpt lat="59.790613807882" lon="17.667048212325">
        <ele>0</ele>
        <time>2017-10-15T14:28:29Z</time>
      </trkpt>
      <trkpt lat="59.790670385707" lon="17.667169079323">
        <ele>0</ele>
        <time>2017-10-15T14:28:30Z</time>
      </trkpt>
      <trkpt lat="59.790724365143" lon="17.667275948548">
        <ele>0</ele>
        <time>2017-10-15T14:28:31Z</time>
      </trkpt>
      <trkpt lat="59.790774321267" lon="17.667365551059">
        <ele>0</ele>
        <time>2017-10-15T14:28:32Z</time>
      </trkpt>
      <trkpt lat="59.790833916576" lon="17.66747107918">
        <ele>0</ele>
        <time>2017-10-15T14:28:33Z</time>
      </trkpt>
      <trkpt lat="59.790888315107" lon="17.667565627012">
        <ele>0</ele>
        <time>2017-10-15T14:28:34Z</time>
      </trkpt>
      <trkpt lat="59.790939528516" lon="17.667641567026">
        <ele>0</ele>
        <time>2017-10-15T14:28:35Z</time>
      </trkpt>
      <trkpt lat="59.790999040006" lon="17.667732426822">
        <ele>0</ele>
        <time>2017-10-15T14:28:36Z</time>
      </trkpt>
      <trkpt lat="59.791053019442" lon="17.667811216682">
        <ele>0</ele>
        <time>2017-10-15T14:28:37Z</time>
      </trkpt>
      <trkpt lat="59.791114039674" lon="17.667903417582">
        <ele>0</ele>
        <time>2017-10-15T14:28:38Z</time>
      </trkpt>
      <trkpt lat="59.791169360214" lon="17.667982123623">
        <ele>0</ele>
        <time>2017-10-15T14:28:39Z</time>
      </trkpt>
      <trkpt lat="59.791227865876" lon="17.668056219619">
        <ele>0</ele>
        <time>2017-10-15T14:28:40Z</time>
      </trkpt>
      <trkpt lat="59.791282599683" lon="17.668118329498">
        <ele>0</ele>
        <time>2017-10-15T14:28:41Z</time>
      </trkpt>
      <trkpt lat="59.791339931879" lon="17.668188318363">
        <ele>0</ele>
        <time>2017-10-15T14:28:42Z</time>
      </trkpt>
      <trkpt lat="59.791402377034" lon="17.668257888133">
        <ele>0</ele>
        <time>2017-10-15T14:28:43Z</time>
      </trkpt>
      <trkpt lat="59.791459541592" lon="17.668314801234">
        <ele>0</ele>
        <time>2017-10-15T14:28:44Z</time>
      </trkpt>
      <trkpt lat="59.791523914584" lon="17.66837213343">
        <ele>0</ele>
        <time>2017-10-15T14:28:45Z</time>
      </trkpt>
      <trkpt lat="59.791584850997" lon="17.668419574984">
        <ele>0</ele>
        <time>2017-10-15T14:28:46Z</time>
      </trkpt>
      <trkpt lat="59.79163656732" lon="17.668461149208">
        <ele>0</ele>
        <time>2017-10-15T14:28:47Z</time>
      </trkpt>
      <trkpt lat="59.791698006647" lon="17.668523342906">
        <ele>0</ele>
        <time>2017-10-15T14:28:48Z</time>
      </trkpt>
      <trkpt lat="59.791761289992" lon="17.668553098651">
        <ele>0</ele>
        <time>2017-10-15T14:28:49Z</time>
      </trkpt>
      <trkpt lat="59.791818789826" lon="17.66858838645">
        <ele>0</ele>
        <time>2017-10-15T14:28:50Z</time>
      </trkpt>
      <trkpt lat="59.791877714583" lon="17.668628116656">
        <ele>0</ele>
        <time>2017-10-15T14:28:51Z</time>
      </trkpt>
      <trkpt lat="59.791933621856" lon="17.668664577921">
        <ele>0</ele>
        <time>2017-10-15T14:28:52Z</time>
      </trkpt>
      <trkpt lat="59.791991373147" lon="17.668703302299">
        <ele>0.2</ele>
        <time>2017-10-15T14:28:53Z</time>
      </trkpt>
      <trkpt lat="59.792051639008" lon="17.668747139636">
        <ele>0.2</ele>
        <time>2017-10-15T14:28:54Z</time>
      </trkpt>
      <trkpt lat="59.79211349743" lon="17.668792234258">
        <ele>0.4</ele>
        <time>2017-10-15T14:28:55Z</time>
      </trkpt>
      <trkpt lat="59.792176613137" lon="17.668823414926">
        <ele>0.6</ele>
        <time>2017-10-15T14:28:56Z</time>
      </trkpt>
      <trkpt lat="59.792237381912" lon="17.668857026345">
        <ele>0.6</ele>
        <time>2017-10-15T14:28:57Z</time>
      </trkpt>
      <trkpt lat="59.792305694397" lon="17.668895415447">
        <ele>0.8</ele>
        <time>2017-10-15T14:28:58Z</time>
      </trkpt>
      <trkpt lat="59.792362607498" lon="17.668926093201">
        <ele>0.8</ele>
        <time>2017-10-15T14:28:59Z</time>
      </trkpt>
      <trkpt lat="59.79243536239" lon="17.668955262213">
        <ele>0.8</ele>
        <time>2017-10-15T14:29:00Z</time>
      </trkpt>
      <trkpt lat="59.792496047346" lon="17.668984766501">
        <ele>1</ele>
        <time>2017-10-15T14:29:01Z</time>
      </trkpt>
      <trkpt lat="59.792558660139" lon="17.669008571097">
        <ele>1</ele>
        <time>2017-10-15T14:29:02Z</time>
      </trkpt>
      <trkpt lat="59.792630995936" lon="17.669038410661">
        <ele>1</ele>
        <time>2017-10-15T14:29:03Z</time>
      </trkpt>
      <trkpt lat="59.792700649525" lon="17.669071351528">
        <ele>1.2</ele>
        <time>2017-10-15T14:29:04Z</time>
      </trkpt>
      <trkpt lat="59.792744905957" lon="17.669089707889">
        <ele>1.2</ele>
        <time>2017-10-15T14:29:05Z</time>
      </trkpt>
      <trkpt lat="59.79284272273" lon="17.669122648756">
        <ele>1.2</ele>
        <time>2017-10-15T14:29:06Z</time>
      </trkpt>
      <trkpt lat="59.792908353007" lon="17.66913823909">
        <ele>1.2</ele>
        <time>2017-10-15T14:29:07Z</time>
      </trkpt>
      <trkpt lat="59.792985047392" lon="17.669162043686">
        <ele>1.2</ele>
        <time>2017-10-15T14:29:08Z</time>
      </trkpt>
      <trkpt lat="59.793054281886" lon="17.669181741151">
        <ele>1</ele>
        <time>2017-10-15T14:29:09Z</time>
      </trkpt>
      <trkpt lat="59.793118738697" lon="17.669209988154">
        <ele>1</ele>
        <time>2017-10-15T14:29:10Z</time>
      </trkpt>
      <trkpt lat="59.793180764757" lon="17.669227673963">
        <ele>1</ele>
        <time>2017-10-15T14:29:11Z</time>
      </trkpt>
      <trkpt lat="59.79324170117" lon="17.669245192134">
        <ele>0.8</ele>
        <time>2017-10-15T14:29:12Z</time>
      </trkpt>
      <trkpt lat="59.793303140497" lon="17.66926229121">
        <ele>1</ele>
        <time>2017-10-15T14:29:13Z</time>
      </trkpt>
      <trkpt lat="59.793355275915" lon="17.669277797725">
        <ele>1</ele>
        <time>2017-10-15T14:29:14Z</time>
      </trkpt>
      <trkpt lat="59.793414452129" lon="17.669306966737">
        <ele>1.4</ele>
        <time>2017-10-15T14:29:15Z</time>
      </trkpt>
      <trkpt lat="59.793470946135" lon="17.669340494337">
        <ele>1.8</ele>
        <time>2017-10-15T14:29:16Z</time>
      </trkpt>
      <trkpt lat="59.793520734621" lon="17.66936455039">
        <ele>2.2</ele>
        <time>2017-10-15T14:29:17Z</time>
      </trkpt>
      <trkpt lat="59.793587286907" lon="17.669408220089">
        <ele>2.4</ele>
        <time>2017-10-15T14:29:18Z</time>
      </trkpt>
      <trkpt lat="59.793646630759" lon="17.669454907272">
        <ele>2.8</ele>
        <time>2017-10-15T14:29:19Z</time>
      </trkpt>
      <trkpt lat="59.793705471697" lon="17.669512742382">
        <ele>3</ele>
        <time>2017-10-15T14:29:20Z</time>
      </trkpt>
      <trkpt lat="59.793765486101" lon="17.669574768442">
        <ele>3.2</ele>
        <time>2017-10-15T14:29:21Z</time>
      </trkpt>
      <trkpt lat="59.793819046442" lon="17.66963444757">
        <ele>3.2</ele>
        <time>2017-10-15T14:29:22Z</time>
      </trkpt>
      <trkpt lat="59.793876043362" lon="17.669704268797">
        <ele>3</ele>
        <time>2017-10-15T14:29:23Z</time>
      </trkpt>
      <trkpt lat="59.793935219576" lon="17.66978532177">
        <ele>2.8</ele>
        <time>2017-10-15T14:29:24Z</time>
      </trkpt>
      <trkpt lat="59.793992551772" lon="17.669852544608">
        <ele>2.6</ele>
        <time>2017-10-15T14:29:25Z</time>
      </trkpt>
      <trkpt lat="59.794051727986" lon="17.669919013075">
        <ele>2.6</ele>
        <time>2017-10-15T14:29:26Z</time>
      </trkpt>
      <trkpt lat="59.794101851748" lon="17.66998984013">
        <ele>2.4</ele>
        <time>2017-10-15T14:29:27Z</time>
      </trkpt>
      <trkpt lat="59.794163207256" lon="17.670063181755">
        <ele>2.4</ele>
        <time>2017-10-15T14:29:28Z</time>
      </trkpt>
      <trkpt lat="59.794215761769" lon="17.670112551146">
        <ele>2.6</ele>
        <time>2017-10-15T14:29:29Z</time>
      </trkpt>
      <trkpt lat="59.794282565512" lon="17.670179690165">
        <ele>2.6</ele>
        <time>2017-10-15T14:29:30Z</time>
      </trkpt>
      <trkpt lat="59.794340484441" lon="17.670236519447">
        <ele>2.6</ele>
        <time>2017-10-15T14:29:31Z</time>
      </trkpt>
      <trkpt lat="59.794394631515" lon="17.670282033164">
        <ele>2.6</ele>
        <time>2017-10-15T14:29:32Z</time>
      </trkpt>
      <trkpt lat="59.794456909032" lon="17.670329055623">
        <ele>2.8</ele>
        <time>2017-10-15T14:29:33Z</time>
      </trkpt>
      <trkpt lat="59.794519521825" lon="17.670374988435">
        <ele>2.8</ele>
        <time>2017-10-15T14:29:34Z</time>
      </trkpt>
      <trkpt lat="59.79457861422" lon="17.670412455528">
        <ele>3</ele>
        <time>2017-10-15T14:29:35Z</time>
      </trkpt>
      <trkpt lat="59.794647597257" lon="17.670446821318">
        <ele>2.8</ele>
        <time>2017-10-15T14:29:36Z</time>
      </trkpt>
      <trkpt lat="59.794709958593" lon="17.670467943706">
        <ele>2.8</ele>
        <time>2017-10-15T14:29:37Z</time>
      </trkpt>
      <trkpt lat="59.794781707657" lon="17.670482779669">
        <ele>2.8</ele>
        <time>2017-10-15T14:29:38Z</time>
      </trkpt>
      <trkpt lat="59.794852869988" lon="17.670482276755">
        <ele>2.8</ele>
        <time>2017-10-15T14:29:39Z</time>
      </trkpt>
      <trkpt lat="59.794915985695" lon="17.670480432737">
        <ele>2.6</ele>
        <time>2017-10-15T14:29:40Z</time>
      </trkpt>
      <trkpt lat="59.794979352859" lon="17.67046928481">
        <ele>2.4</ele>
        <time>2017-10-15T14:29:41Z</time>
      </trkpt>
      <trkpt lat="59.795044396403" lon="17.670459477987">
        <ele>2.4</ele>
        <time>2017-10-15T14:29:42Z</time>
      </trkpt>
      <trkpt lat="59.795112373612" lon="17.670449419707">
        <ele>2.4</ele>
        <time>2017-10-15T14:29:43Z</time>
      </trkpt>
      <trkpt lat="59.795171298369" lon="17.670443971472">
        <ele>2.2</ele>
        <time>2017-10-15T14:29:44Z</time>
      </trkpt>
      <trkpt lat="59.795236509551" lon="17.670448078603">
        <ele>2.4</ele>
        <time>2017-10-15T14:29:45Z</time>
      </trkpt>
      <trkpt lat="59.795297362145" lon="17.670458136883">
        <ele>2.6</ele>
        <time>2017-10-15T14:29:46Z</time>
      </trkpt>
      <trkpt lat="59.795350419572" lon="17.670469536267">
        <ele>2.8</ele>
        <time>2017-10-15T14:29:47Z</time>
      </trkpt>
      <trkpt lat="59.795422336274" lon="17.670493759958">
        <ele>2.8</ele>
        <time>2017-10-15T14:29:48Z</time>
      </trkpt>
      <trkpt lat="59.795484865248" lon="17.670517229278">
        <ele>3</ele>
        <time>2017-10-15T14:29:49Z</time>
      </trkpt>
      <trkpt lat="59.795547058946" lon="17.67054723648">
        <ele>3</ele>
        <time>2017-10-15T14:29:50Z</time>
      </trkpt>
      <trkpt lat="59.795606486617" lon="17.67060004245">
        <ele>3.2</ele>
        <time>2017-10-15T14:29:51Z</time>
      </trkpt>
      <trkpt lat="59.795664321727" lon="17.670645807624">
        <ele>3</ele>
        <time>2017-10-15T14:29:52Z</time>
      </trkpt>
      <trkpt lat="59.795726263968" lon="17.670688722952">
        <ele>3</ele>
        <time>2017-10-15T14:29:53Z</time>
      </trkpt>
      <trkpt lat="59.795797593937" lon="17.670731470642">
        <ele>3</ele>
        <time>2017-10-15T14:29:54Z</time>
      </trkpt>
      <trkpt lat="59.795865822603" lon="17.670771368486">
        <ele>3</ele>
        <time>2017-10-15T14:29:55Z</time>
      </trkpt>
      <trkpt lat="59.795933213079" lon="17.670814870547">
        <ele>3</ele>
        <time>2017-10-15T14:29:56Z</time>
      </trkpt>
      <trkpt lat="59.795996915519" lon="17.67085988135">
        <ele>3</ele>
        <time>2017-10-15T14:29:57Z</time>
      </trkpt>
      <trkpt lat="59.796068496945" lon="17.670916794451">
        <ele>3</ele>
        <time>2017-10-15T14:29:58Z</time>
      </trkpt>
      <trkpt lat="59.796126834969" lon="17.670965660928">
        <ele>2.8</ele>
        <time>2017-10-15T14:29:59Z</time>
      </trkpt>
      <trkpt lat="59.796200847146" lon="17.671028860454">
        <ele>2.8</ele>
        <time>2017-10-15T14:30:00Z</time>
      </trkpt>
      <trkpt lat="59.796266896518" lon="17.671081414967">
        <ele>2.6</ele>
        <time>2017-10-15T14:30:01Z</time>
      </trkpt>
      <trkpt lat="59.796328503483" lon="17.671128605064">
        <ele>2.6</ele>
        <time>2017-10-15T14:30:02Z</time>
      </trkpt>
      <trkpt lat="59.796398240891" lon="17.671185601984">
        <ele>2.4</ele>
        <time>2017-10-15T14:30:03Z</time>
      </trkpt>
      <trkpt lat="59.796466804833" lon="17.67123455228">
        <ele>2.4</ele>
        <time>2017-10-15T14:30:04Z</time>
      </trkpt>
      <trkpt lat="59.79653075873" lon="17.671281155644">
        <ele>2.4</ele>
        <time>2017-10-15T14:30:05Z</time>
      </trkpt>
      <trkpt lat="59.796607117839" lon="17.671334548347">
        <ele>2.2</ele>
        <time>2017-10-15T14:30:06Z</time>
      </trkpt>
      <trkpt lat="59.796672161383" lon="17.671393976018">
        <ele>2</ele>
        <time>2017-10-15T14:30:07Z</time>
      </trkpt>
      <trkpt lat="59.796753633451" lon="17.671452146404">
        <ele>1.8</ele>
        <time>2017-10-15T14:30:08Z</time>
      </trkpt>
      <trkpt lat="59.796831166026" lon="17.671491206058">
        <ele>1.4</ele>
        <time>2017-10-15T14:30:09Z</time>
      </trkpt>
      <trkpt lat="59.796906100212" lon="17.671534121386">
        <ele>1</ele>
        <time>2017-10-15T14:30:10Z</time>
      </trkpt>
      <trkpt lat="59.796981788769" lon="17.671577204352">
        <ele>1</ele>
        <time>2017-10-15T14:30:11Z</time>
      </trkpt>
      <trkpt lat="59.797062003552" lon="17.671618527119">
        <ele>0.8</ele>
        <time>2017-10-15T14:30:12Z</time>
      </trkpt>
      <trkpt lat="59.797146744561" lon="17.671660855714">
        <ele>0.6</ele>
        <time>2017-10-15T14:30:13Z</time>
      </trkpt>
      <trkpt lat="59.797221008195" lon="17.671700837377">
        <ele>0.4</ele>
        <time>2017-10-15T14:30:14Z</time>
      </trkpt>
      <trkpt lat="59.797304911014" lon="17.671738053013">
        <ele>0.4</ele>
        <time>2017-10-15T14:30:15Z</time>
      </trkpt>
      <trkpt lat="59.797384203788" lon="17.671772251165">
        <ele>0.2</ele>
        <time>2017-10-15T14:30:16Z</time>
      </trkpt>
      <trkpt lat="59.79745192954" lon="17.671795469028">
        <ele>0</ele>
        <time>2017-10-15T14:30:17Z</time>
      </trkpt>
      <trkpt lat="59.79754580682" lon="17.67182631442">
        <ele>0</ele>
        <time>2017-10-15T14:30:18Z</time>
      </trkpt>
      <trkpt lat="59.79761956754" lon="17.671842323849">
        <ele>0</ele>
        <time>2017-10-15T14:30:19Z</time>
      </trkpt>
      <trkpt lat="59.797693831174" lon="17.671851041025">
        <ele>0</ele>
        <time>2017-10-15T14:30:20Z</time>
      </trkpt>
      <trkpt lat="59.797767843351" lon="17.671863697694">
        <ele>0</ele>
        <time>2017-10-15T14:30:21Z</time>
      </trkpt>
      <trkpt lat="59.797840682062" lon="17.671870989947">
        <ele>0</ele>
        <time>2017-10-15T14:30:22Z</time>
      </trkpt>
      <trkpt lat="59.797917460266" lon="17.671867637187">
        <ele>0</ele>
        <time>2017-10-15T14:30:23Z</time>
      </trkpt>
      <trkpt lat="59.797996250126" lon="17.671861937495">
        <ele>0</ele>
        <time>2017-10-15T14:30:24Z</time>
      </trkpt>
      <trkpt lat="59.798070765217" lon="17.671854980518">
        <ele>0</ele>
        <time>2017-10-15T14:30:25Z</time>
      </trkpt>
      <trkpt lat="59.798145364127" lon="17.671843413496">
        <ele>0</ele>
        <time>2017-10-15T14:30:26Z</time>
      </trkpt>
      <trkpt lat="59.798213928069" lon="17.671832852302">
        <ele>0</ele>
        <time>2017-10-15T14:30:27Z</time>
      </trkpt>
      <trkpt lat="59.798295567775" lon="17.671836540338">
        <ele>0.2</ele>
        <time>2017-10-15T14:30:28Z</time>
      </trkpt>
      <trkpt lat="59.798359605491" lon="17.671836875614">
        <ele>0.4</ele>
        <time>2017-10-15T14:30:29Z</time>
      </trkpt>
      <trkpt lat="59.798440490826" lon="17.671825560049">
        <ele>0.6</ele>
        <time>2017-10-15T14:30:30Z</time>
      </trkpt>
      <trkpt lat="59.798507797483" lon="17.671818938348">
        <ele>0.6</ele>
        <time>2017-10-15T14:30:31Z</time>
      </trkpt>
      <trkpt lat="59.798572338113" lon="17.671814076846">
        <ele>0.8</ele>
        <time>2017-10-15T14:30:32Z</time>
      </trkpt>
      <trkpt lat="59.798643165168" lon="17.671814412122">
        <ele>0.8</ele>
        <time>2017-10-15T14:30:33Z</time>
      </trkpt>
      <trkpt lat="59.798708292531" lon="17.67181290338">
        <ele>0.8</ele>
        <time>2017-10-15T14:30:34Z</time>
      </trkpt>
      <trkpt lat="59.798745591986" lon="17.671809131525">
        <ele>1</ele>
        <time>2017-10-15T14:30:35Z</time>
      </trkpt>
      <trkpt lat="59.798829997719" lon="17.671804353842">
        <ele>1</ele>
        <time>2017-10-15T14:30:36Z</time>
      </trkpt>
      <trkpt lat="59.798886324087" lon="17.671804186204">
        <ele>1</ele>
        <time>2017-10-15T14:30:37Z</time>
      </trkpt>
      <trkpt lat="59.798948266328" lon="17.671804605299">
        <ele>1.2</ele>
        <time>2017-10-15T14:30:38Z</time>
      </trkpt>
      <trkpt lat="59.799005598524" lon="17.671801839272">
        <ele>1.2</ele>
        <time>2017-10-15T14:30:39Z</time>
      </trkpt>
      <trkpt lat="59.799061086702" lon="17.671793457372">
        <ele>1.6</ele>
        <time>2017-10-15T14:30:40Z</time>
      </trkpt>
      <trkpt lat="59.799110791369" lon="17.671782141807">
        <ele>1.8</ele>
        <time>2017-10-15T14:30:41Z</time>
      </trkpt>
      <trkpt lat="59.799161501864" lon="17.671767389663">
        <ele>2.2</ele>
        <time>2017-10-15T14:30:42Z</time>
      </trkpt>
      <trkpt lat="59.799214978386" lon="17.671753224252">
        <ele>2.4</ele>
        <time>2017-10-15T14:30:43Z</time>
      </trkpt>
      <trkpt lat="59.799260659741" lon="17.671741908687">
        <ele>2.6</ele>
        <time>2017-10-15T14:30:44Z</time>
      </trkpt>
      <trkpt lat="59.79931187315" lon="17.671727827095">
        <ele>3</ele>
        <time>2017-10-15T14:30:45Z</time>
      </trkpt>
      <trkpt lat="59.799358225057" lon="17.671708548725">
        <ele>3</ele>
        <time>2017-10-15T14:30:46Z</time>
      </trkpt>
      <trkpt lat="59.799398961091" lon="17.671686169052">
        <ele>3.2</ele>
        <time>2017-10-15T14:30:47Z</time>
      </trkpt>
      <trkpt lat="59.799451599423" lon="17.671662196818">
        <ele>3.4</ele>
        <time>2017-10-15T14:30:48Z</time>
      </trkpt>
      <trkpt lat="59.799497364597" lon="17.671647360855">
        <ele>3.6</ele>
        <time>2017-10-15T14:30:49Z</time>
      </trkpt>
      <trkpt lat="59.799543884142" lon="17.671631686702">
        <ele>4</ele>
        <time>2017-10-15T14:30:50Z</time>
      </trkpt>
      <trkpt lat="59.799589816954" lon="17.671619868223">
        <ele>4.2</ele>
        <time>2017-10-15T14:30:51Z</time>
      </trkpt>
      <trkpt lat="59.799633486653" lon="17.671605702812">
        <ele>4.4</ele>
        <time>2017-10-15T14:30:52Z</time>
      </trkpt>
      <trkpt lat="59.799682436949" lon="17.671590112478">
        <ele>4.6</ele>
        <time>2017-10-15T14:30:53Z</time>
      </trkpt>
      <trkpt lat="59.799739769145" lon="17.671584664243">
        <ele>4.8</ele>
        <time>2017-10-15T14:30:54Z</time>
      </trkpt>
      <trkpt lat="59.799796263151" lon="17.671588519917">
        <ele>4.8</ele>
        <time>2017-10-15T14:30:55Z</time>
      </trkpt>
      <trkpt lat="59.799853511528" lon="17.671594890161">
        <ele>5</ele>
        <time>2017-10-15T14:30:56Z</time>
      </trkpt>
      <trkpt lat="59.799912101009" lon="17.671596734179">
        <ele>5</ele>
        <time>2017-10-15T14:30:57Z</time>
      </trkpt>
      <trkpt lat="59.799979742942" lon="17.671596901817">
        <ele>5</ele>
        <time>2017-10-15T14:30:58Z</time>
      </trkpt>
      <trkpt lat="59.800039254432" lon="17.671604026432">
        <ele>5</ele>
        <time>2017-10-15T14:30:59Z</time>
      </trkpt>
      <trkpt lat="59.800113853342" lon="17.671622298974">
        <ele>4.8</ele>
        <time>2017-10-15T14:31:00Z</time>
      </trkpt>
      <trkpt lat="59.800180992361" lon="17.671630848512">
        <ele>4.4</ele>
        <time>2017-10-15T14:31:01Z</time>
      </trkpt>
      <trkpt lat="59.800246706457" lon="17.671638308403">
        <ele>4.2</ele>
        <time>2017-10-15T14:31:02Z</time>
      </trkpt>
      <trkpt lat="59.800318706978" lon="17.67164694176">
        <ele>3.8</ele>
        <time>2017-10-15T14:31:03Z</time>
      </trkpt>
      <trkpt lat="59.800388360567" lon="17.671653814918">
        <ele>3.6</ele>
        <time>2017-10-15T14:31:04Z</time>
      </trkpt>
      <trkpt lat="59.800446111858" lon="17.671663621741">
        <ele>3.4</ele>
        <time>2017-10-15T14:31:05Z</time>
      </trkpt>
      <trkpt lat="59.800518447655" lon="17.671673009469">
        <ele>3.4</ele>
        <time>2017-10-15T14:31:06Z</time>
      </trkpt>
      <trkpt lat="59.800581563362" lon="17.671679295894">
        <ele>3.4</ele>
        <time>2017-10-15T14:31:07Z</time>
      </trkpt>
      <trkpt lat="59.800652474236" lon="17.671683989758">
        <ele>3.6</ele>
        <time>2017-10-15T14:31:08Z</time>
      </trkpt>
      <trkpt lat="59.800718104513" lon="17.671692958391">
        <ele>3.6</ele>
        <time>2017-10-15T14:31:09Z</time>
      </trkpt>
      <trkpt lat="59.800787590464" lon="17.671709554553">
        <ele>3.8</ele>
        <time>2017-10-15T14:31:10Z</time>
      </trkpt>
      <trkpt lat="59.800851544361" lon="17.671725899258">
        <ele>3.8</ele>
        <time>2017-10-15T14:31:11Z</time>
      </trkpt>
      <trkpt lat="59.800914240973" lon="17.671734448796">
        <ele>3.8</ele>
        <time>2017-10-15T14:31:12Z</time>
      </trkpt>
      <trkpt lat="59.800989426616" lon="17.671740232307">
        <ele>3.8</ele>
        <time>2017-10-15T14:31:13Z</time>
      </trkpt>
      <trkpt lat="59.801053715789" lon="17.671746351094">
        <ele>3.8</ele>
        <time>2017-10-15T14:31:14Z</time>
      </trkpt>
      <trkpt lat="59.801131080726" lon="17.671762947256">
        <ele>3.8</ele>
        <time>2017-10-15T14:31:15Z</time>
      </trkpt>
      <trkpt lat="59.801202745971" lon="17.671779794875">
        <ele>3.6</ele>
        <time>2017-10-15T14:31:16Z</time>
      </trkpt>
      <trkpt lat="59.801258485606" lon="17.671779962513">
        <ele>3.6</ele>
        <time>2017-10-15T14:31:17Z</time>
      </trkpt>
      <trkpt lat="59.801337024009" lon="17.671779208142">
        <ele>3.4</ele>
        <time>2017-10-15T14:31:18Z</time>
      </trkpt>
      <trkpt lat="59.80140818634" lon="17.671777447943">
        <ele>3.4</ele>
        <time>2017-10-15T14:31:19Z</time>
      </trkpt>
      <trkpt lat="59.801477420834" lon="17.671772586441">
        <ele>3.2</ele>
        <time>2017-10-15T14:31:20Z</time>
      </trkpt>
      <trkpt lat="59.801546320052" lon="17.67175423008">
        <ele>3.2</ele>
        <time>2017-10-15T14:31:21Z</time>
      </trkpt>
      <trkpt lat="59.801610609225" lon="17.671729503475">
        <ele>3.2</ele>
        <time>2017-10-15T14:31:22Z</time>
      </trkpt>
      <trkpt lat="59.801677999701" lon="17.671698741902">
        <ele>3.2</ele>
        <time>2017-10-15T14:31:23Z</time>
      </trkpt>
      <trkpt lat="59.801749832584" lon="17.671663621741">
        <ele>3.2</ele>
        <time>2017-10-15T14:31:24Z</time>
      </trkpt>
      <trkpt lat="59.801814457033" lon="17.671622466612">
        <ele>3.2</ele>
        <time>2017-10-15T14:31:25Z</time>
      </trkpt>
      <trkpt lat="59.801879081482" lon="17.671596315084">
        <ele>3.2</ele>
        <time>2017-10-15T14:31:26Z</time>
      </trkpt>
      <trkpt lat="59.801939179705" lon="17.671572845764">
        <ele>3.2</ele>
        <time>2017-10-15T14:31:27Z</time>
      </trkpt>
      <trkpt lat="59.802007659828" lon="17.671551891014">
        <ele>3.4</ele>
        <time>2017-10-15T14:31:28Z</time>
      </trkpt>
      <trkpt lat="59.802064740567" lon="17.671540994544">
        <ele>3.4</ele>
        <time>2017-10-15T14:31:29Z</time>
      </trkpt>
      <trkpt lat="59.80213573526" lon="17.671535211033">
        <ele>3.4</ele>
        <time>2017-10-15T14:31:30Z</time>
      </trkpt>
      <trkpt lat="59.802196420216" lon="17.671538982888">
        <ele>3.6</ele>
        <time>2017-10-15T14:31:31Z</time>
      </trkpt>
      <trkpt lat="59.802255344973" lon="17.671544514942">
        <ele>3.6</ele>
        <time>2017-10-15T14:31:32Z</time>
      </trkpt>
      <trkpt lat="59.802321226707" lon="17.671545939865">
        <ele>3.6</ele>
        <time>2017-10-15T14:31:33Z</time>
      </trkpt>
      <trkpt lat="59.802381408749" lon="17.671540910725">
        <ele>3.6</ele>
        <time>2017-10-15T14:31:34Z</time>
      </trkpt>
      <trkpt lat="59.80244083642" lon="17.671537641784">
        <ele>3.8</ele>
        <time>2017-10-15T14:31:35Z</time>
      </trkpt>
      <trkpt lat="59.802509735638" lon="17.671545101675">
        <ele>3.8</ele>
        <time>2017-10-15T14:31:36Z</time>
      </trkpt>
      <trkpt lat="59.802572264612" lon="17.671547867702">
        <ele>3.8</ele>
        <time>2017-10-15T14:31:37Z</time>
      </trkpt>
      <trkpt lat="59.802644013676" lon="17.671549208806">
        <ele>3.8</ele>
        <time>2017-10-15T14:31:38Z</time>
      </trkpt>
      <trkpt lat="59.802711990885" lon="17.671547700064">
        <ele>3.6</ele>
        <time>2017-10-15T14:31:39Z</time>
      </trkpt>
      <trkpt lat="59.802778375533" lon="17.671548286797">
        <ele>3.6</ele>
        <time>2017-10-15T14:31:40Z</time>
      </trkpt>
      <trkpt lat="59.802845766009" lon="17.671548454435">
        <ele>3.4</ele>
        <time>2017-10-15T14:31:41Z</time>
      </trkpt>
      <trkpt lat="59.802912988847" lon="17.671548705892">
        <ele>3.2</ele>
        <time>2017-10-15T14:31:42Z</time>
      </trkpt>
      <trkpt lat="59.802982977712" lon="17.671549627901">
        <ele>3</ele>
        <time>2017-10-15T14:31:43Z</time>
      </trkpt>
      <trkpt lat="59.803039639356" lon="17.671549963177">
        <ele>3</ele>
        <time>2017-10-15T14:31:44Z</time>
      </trkpt>
      <trkpt lat="59.803108706212" lon="17.671549124987">
        <ele>3</ele>
        <time>2017-10-15T14:31:45Z</time>
      </trkpt>
      <trkpt lat="59.803172324833" lon="17.671547616245">
        <ele>3.2</ele>
        <time>2017-10-15T14:31:46Z</time>
      </trkpt>
      <trkpt lat="59.803226807183" lon="17.671546778055">
        <ele>3.2</ele>
        <time>2017-10-15T14:31:47Z</time>
      </trkpt>
      <trkpt lat="59.803297885695" lon="17.671553818851">
        <ele>3.4</ele>
        <time>2017-10-15T14:31:48Z</time>
      </trkpt>
      <trkpt lat="59.803357229547" lon="17.671553818851">
        <ele>3.4</ele>
        <time>2017-10-15T14:31:49Z</time>
      </trkpt>
      <trkpt lat="59.803416992494" lon="17.671554824679">
        <ele>3.4</ele>
        <time>2017-10-15T14:31:50Z</time>
      </trkpt>
      <trkpt lat="59.803476587803" lon="17.671559099448">
        <ele>3.6</ele>
        <time>2017-10-15T14:31:51Z</time>
      </trkpt>
      <trkpt lat="59.803531070153" lon="17.671560272914">
        <ele>3.6</ele>
        <time>2017-10-15T14:31:52Z</time>
      </trkpt>
      <trkpt lat="59.803590749281" lon="17.671556501059">
        <ele>3.6</ele>
        <time>2017-10-15T14:31:53Z</time>
      </trkpt>
      <trkpt lat="59.803654954635" lon="17.671557339249">
        <ele>3.8</ele>
        <time>2017-10-15T14:31:54Z</time>
      </trkpt>
      <trkpt lat="59.803716226324" lon="17.671559350905">
        <ele>3.8</ele>
        <time>2017-10-15T14:31:55Z</time>
      </trkpt>
      <trkpt lat="59.803779258212" lon="17.671560943466">
        <ele>4</ele>
        <time>2017-10-15T14:31:56Z</time>
      </trkpt>
      <trkpt lat="59.803837847693" lon="17.671559350905">
        <ele>4.2</ele>
        <time>2017-10-15T14:31:57Z</time>
      </trkpt>
      <trkpt lat="59.803901382495" lon="17.671559183267">
        <ele>4.2</ele>
        <time>2017-10-15T14:31:58Z</time>
      </trkpt>
      <trkpt lat="59.803956954492" lon="17.671557506887">
        <ele>4.2</ele>
        <time>2017-10-15T14:31:59Z</time>
      </trkpt>
      <trkpt lat="59.804027613909" lon="17.67155977">
        <ele>4.4</ele>
        <time>2017-10-15T14:32:00Z</time>
      </trkpt>
      <trkpt lat="59.804088466503" lon="17.671564128588">
        <ele>4.4</ele>
        <time>2017-10-15T14:32:01Z</time>
      </trkpt>
      <trkpt lat="59.804145631061" lon="17.671560440552">
        <ele>4.6</ele>
        <time>2017-10-15T14:32:02Z</time>
      </trkpt>
      <trkpt lat="59.804213356813" lon="17.67155893181">
        <ele>4.8</ele>
        <time>2017-10-15T14:32:03Z</time>
      </trkpt>
      <trkpt lat="59.804278316538" lon="17.671561362561">
        <ele>4.8</ele>
        <time>2017-10-15T14:32:04Z</time>
      </trkpt>
      <trkpt lat="59.804342605711" lon="17.671560859647">
        <ele>5</ele>
        <time>2017-10-15T14:32:05Z</time>
      </trkpt>
      <trkpt lat="59.804419635372" lon="17.671562200751">
        <ele>5</ele>
        <time>2017-10-15T14:32:06Z</time>
      </trkpt>
      <trkpt lat="59.804486942029" lon="17.67156396095">
        <ele>5</ele>
        <time>2017-10-15T14:32:07Z</time>
      </trkpt>
      <trkpt lat="59.804564726061" lon="17.67157150466">
        <ele>5</ele>
        <time>2017-10-15T14:32:08Z</time>
      </trkpt>
      <trkpt lat="59.80463605603" lon="17.671589358107">
        <ele>4.8</ele>
        <time>2017-10-15T14:32:09Z</time>
      </trkpt>
      <trkpt lat="59.804707134542" lon="17.671608133563">
        <ele>4.6</ele>
        <time>2017-10-15T14:32:10Z</time>
      </trkpt>
      <trkpt lat="59.804774273561" lon="17.67162850158">
        <ele>4.4</ele>
        <time>2017-10-15T14:32:11Z</time>
      </trkpt>
      <trkpt lat="59.804846106444" lon="17.671652222357">
        <ele>4.2</ele>
        <time>2017-10-15T14:32:12Z</time>
      </trkpt>
      <trkpt lat="59.804923136105" lon="17.671675607858">
        <ele>4</ele>
        <time>2017-10-15T14:32:13Z</time>
      </trkpt>
      <trkpt lat="59.804990861857" lon="17.671707459078">
        <ele>3.8</ele>
        <time>2017-10-15T14:32:14Z</time>
      </trkpt>
      <trkpt lat="59.805065544586" lon="17.671749787673">
        <ele>3.4</ele>
        <time>2017-10-15T14:32:15Z</time>
      </trkpt>
      <trkpt lat="59.805132935062" lon="17.671802342186">
        <ele>3.2</ele>
        <time>2017-10-15T14:32:16Z</time>
      </trkpt>
      <trkpt lat="59.805190267258" lon="17.671850370473">
        <ele>3</ele>
        <time>2017-10-15T14:32:17Z</time>
      </trkpt>
      <trkpt lat="59.805266123453" lon="17.671915581655">
        <ele>3</ele>
        <time>2017-10-15T14:32:18Z</time>
      </trkpt>
      <trkpt lat="59.805332005187" lon="17.671965705417">
        <ele>2.8</ele>
        <time>2017-10-15T14:32:19Z</time>
      </trkpt>
      <trkpt lat="59.80539713255" lon="17.672022283242">
        <ele>3</ele>
        <time>2017-10-15T14:32:20Z</time>
      </trkpt>
      <trkpt lat="59.805461924637" lon="17.672083890207">
        <ele>3</ele>
        <time>2017-10-15T14:32:21Z</time>
      </trkpt>
      <trkpt lat="59.805523531602" lon="17.672139126928">
        <ele>3</ele>
        <time>2017-10-15T14:32:22Z</time>
      </trkpt>
      <trkpt lat="59.805590167707" lon="17.67219344164">
        <ele>3.2</ele>
        <time>2017-10-15T14:32:23Z</time>
      </trkpt>
      <trkpt lat="59.805661749133" lon="17.672251612026">
        <ele>3.2</ele>
        <time>2017-10-15T14:32:24Z</time>
      </trkpt>
      <trkpt lat="59.805731151265" lon="17.672308608946">
        <ele>3</ele>
        <time>2017-10-15T14:32:25Z</time>
      </trkpt>
      <trkpt lat="59.805799966664" lon="17.672368204255">
        <ele>3</ele>
        <time>2017-10-15T14:32:26Z</time>
      </trkpt>
      <trkpt lat="59.805864088199" lon="17.672423273338">
        <ele>3</ele>
        <time>2017-10-15T14:32:27Z</time>
      </trkpt>
      <trkpt lat="59.805934747616" lon="17.672486556683">
        <ele>2.8</ele>
        <time>2017-10-15T14:32:28Z</time>
      </trkpt>
      <trkpt lat="59.805989816699" lon="17.672547660734">
        <ele>2.8</ele>
        <time>2017-10-15T14:32:29Z</time>
      </trkpt>
      <trkpt lat="59.806057961546" lon="17.672631395915">
        <ele>2.6</ele>
        <time>2017-10-15T14:32:30Z</time>
      </trkpt>
      <trkpt lat="59.806115209923" lon="17.672704988997">
        <ele>2.8</ele>
        <time>2017-10-15T14:32:31Z</time>
      </trkpt>
      <trkpt lat="59.806169273178" lon="17.672770367817">
        <ele>2.8</ele>
        <time>2017-10-15T14:32:32Z</time>
      </trkpt>
      <trkpt lat="59.806227946478" lon="17.672839602311">
        <ele>2.6</ele>
        <time>2017-10-15T14:32:33Z</time>
      </trkpt>
      <trkpt lat="59.806284691941" lon="17.672912943936">
        <ele>2.8</ele>
        <time>2017-10-15T14:32:34Z</time>
      </trkpt>
      <trkpt lat="59.80633590535" lon="17.672980082955">
        <ele>2.8</ele>
        <time>2017-10-15T14:32:35Z</time>
      </trkpt>
      <trkpt lat="59.80639709322" lon="17.673053592218">
        <ele>3</ele>
        <time>2017-10-15T14:32:36Z</time>
      </trkpt>
      <trkpt lat="59.806451240294" lon="17.673114360993">
        <ele>3</ele>
        <time>2017-10-15T14:32:37Z</time>
      </trkpt>
      <trkpt lat="59.806516032381" lon="17.673173621026">
        <ele>3.2</ele>
        <time>2017-10-15T14:32:38Z</time>
      </trkpt>
      <trkpt lat="59.806578226079" lon="17.673227349005">
        <ele>3.4</ele>
        <time>2017-10-15T14:32:39Z</time>
      </trkpt>
      <trkpt lat="59.806638659578" lon="17.673282837183">
        <ele>3.4</ele>
        <time>2017-10-15T14:32:40Z</time>
      </trkpt>
      <trkpt lat="59.806697249059" lon="17.673328769995">
        <ele>3.6</ele>
        <time>2017-10-15T14:32:41Z</time>
      </trkpt>
      <trkpt lat="59.806760448585" lon="17.673373361703">
        <ele>3.6</ele>
        <time>2017-10-15T14:32:42Z</time>
      </trkpt>
      <trkpt lat="59.80682876107" lon="17.67342725732">
        <ele>3.6</ele>
        <time>2017-10-15T14:32:43Z</time>
      </trkpt>
      <trkpt lat="59.806890032759" lon="17.673469837372">
        <ele>3.6</ele>
        <time>2017-10-15T14:32:44Z</time>
      </trkpt>
      <trkpt lat="59.806958596701" lon="17.673521218419">
        <ele>3.6</ele>
        <time>2017-10-15T14:32:45Z</time>
      </trkpt>
      <trkpt lat="59.807024394616" lon="17.673572431828">
        <ele>3.6</ele>
        <time>2017-10-15T14:32:46Z</time>
      </trkpt>
      <trkpt lat="59.807081307717" lon="17.673613586957">
        <ele>3.6</ele>
        <time>2017-10-15T14:32:47Z</time>
      </trkpt>
      <trkpt lat="59.807158002102" lon="17.673671254429">
        <ele>3.6</ele>
        <time>2017-10-15T14:32:48Z</time>
      </trkpt>
      <trkpt lat="59.807225057302" lon="17.673727161702">
        <ele>3.6</ele>
        <time>2017-10-15T14:32:49Z</time>
      </trkpt>
      <trkpt lat="59.807291022855" lon="17.673790612685">
        <ele>3.4</ele>
        <time>2017-10-15T14:32:50Z</time>
      </trkpt>
      <trkpt lat="59.807356150218" lon="17.6738564106">
        <ele>3.4</ele>
        <time>2017-10-15T14:32:51Z</time>
      </trkpt>
      <trkpt lat="59.807422031952" lon="17.673926567103">
        <ele>3.2</ele>
        <time>2017-10-15T14:32:52Z</time>
      </trkpt>
      <trkpt lat="59.807481459623" lon="17.674008039171">
        <ele>3</ele>
        <time>2017-10-15T14:32:53Z</time>
      </trkpt>
      <trkpt lat="59.807541390208" lon="17.674105939763">
        <ele>3</ele>
        <time>2017-10-15T14:32:54Z</time>
      </trkpt>
      <trkpt lat="59.807590759599" lon="17.674212138436">
        <ele>3</ele>
        <time>2017-10-15T14:32:55Z</time>
      </trkpt>
      <trkpt lat="59.807635183669" lon="17.674321522231">
        <ele>3</ele>
        <time>2017-10-15T14:32:56Z</time>
      </trkpt>
      <trkpt lat="59.8076728184" lon="17.674423697592">
        <ele>3.2</ele>
        <time>2017-10-15T14:32:57Z</time>
      </trkpt>
      <trkpt lat="59.807710872226" lon="17.674541044192">
        <ele>3.2</ele>
        <time>2017-10-15T14:32:58Z</time>
      </trkpt>
      <trkpt lat="59.80773065351" lon="17.674610111048">
        <ele>3.2</ele>
        <time>2017-10-15T14:32:59Z</time>
      </trkpt>
      <trkpt lat="59.807778346521" lon="17.674769953881">
        <ele>3.6</ele>
        <time>2017-10-15T14:33:00Z</time>
      </trkpt>
      <trkpt lat="59.807813969596" lon="17.674876068735">
        <ele>3.6</ele>
        <time>2017-10-15T14:33:01Z</time>
      </trkpt>
      <trkpt lat="59.807844898807" lon="17.674978160277">
        <ele>3.8</ele>
        <time>2017-10-15T14:33:02Z</time>
      </trkpt>
      <trkpt lat="59.807881862986" lon="17.675099865465">
        <ele>3.8</ele>
        <time>2017-10-15T14:33:03Z</time>
      </trkpt>
      <trkpt lat="59.807919749174" lon="17.675211177097">
        <ele>4</ele>
        <time>2017-10-15T14:33:04Z</time>
      </trkpt>
      <trkpt lat="59.807957383905" lon="17.675314442105">
        <ele>4</ele>
        <time>2017-10-15T14:33:05Z</time>
      </trkpt>
      <trkpt lat="59.807998455215" lon="17.675431704886">
        <ele>4</ele>
        <time>2017-10-15T14:33:06Z</time>
      </trkpt>
      <trkpt lat="59.808036844317" lon="17.675531784772">
        <ele>3.8</ele>
        <time>2017-10-15T14:33:07Z</time>
      </trkpt>
      <trkpt lat="59.808083028586" lon="17.675639408368">
        <ele>3.8</ele>
        <time>2017-10-15T14:33:08Z</time>
      </trkpt>
      <trkpt lat="59.808127452656" lon="17.675737895693">
        <ele>3.8</ele>
        <time>2017-10-15T14:33:09Z</time>
      </trkpt>
      <trkpt lat="59.808175061848" lon="17.675835796285">
        <ele>3.8</ele>
        <time>2017-10-15T14:33:10Z</time>
      </trkpt>
      <trkpt lat="59.808222838678" lon="17.675923722416">
        <ele>3.8</ele>
        <time>2017-10-15T14:33:11Z</time>
      </trkpt>
      <trkpt lat="59.808275728467" lon="17.67600804433">
        <ele>3.6</ele>
        <time>2017-10-15T14:33:12Z</time>
      </trkpt>
      <trkpt lat="59.808335742871" lon="17.676094629357">
        <ele>3.6</ele>
        <time>2017-10-15T14:33:13Z</time>
      </trkpt>
      <trkpt lat="59.80838947085" lon="17.676177107253">
        <ele>3.6</ele>
        <time>2017-10-15T14:33:14Z</time>
      </trkpt>
      <trkpt lat="59.808449149978" lon="17.676266542126">
        <ele>3.8</ele>
        <time>2017-10-15T14:33:15Z</time>
      </trkpt>
      <trkpt lat="59.808506398355" lon="17.676345583443">
        <ele>3.8</ele>
        <time>2017-10-15T14:33:16Z</time>
      </trkpt>
      <trkpt lat="59.808553001719" lon="17.676417583964">
        <ele>3.8</ele>
        <time>2017-10-15T14:33:17Z</time>
      </trkpt>
      <trkpt lat="59.808613183761" lon="17.676515568375">
        <ele>4</ele>
        <time>2017-10-15T14:33:18Z</time>
      </trkpt>
      <trkpt lat="59.808663139885" lon="17.676601147574">
        <ele>4</ele>
        <time>2017-10-15T14:33:19Z</time>
      </trkpt>
      <trkpt lat="59.808717873692" lon="17.676686559135">
        <ele>4.2</ele>
        <time>2017-10-15T14:33:20Z</time>
      </trkpt>
      <trkpt lat="59.808773780965" lon="17.676763337339">
        <ele>4.2</ele>
        <time>2017-10-15T14:33:21Z</time>
      </trkpt>
      <trkpt lat="59.808827173668" lon="17.676837265697">
        <ele>4.2</ele>
        <time>2017-10-15T14:33:22Z</time>
      </trkpt>
      <trkpt lat="59.808879057629" lon="17.67691831867">
        <ele>4.2</ele>
        <time>2017-10-15T14:33:23Z</time>
      </trkpt>
      <trkpt lat="59.80893177978" lon="17.677006915353">
        <ele>4.2</ele>
        <time>2017-10-15T14:33:24Z</time>
      </trkpt>
      <trkpt lat="59.808978634601" lon="17.677080592254">
        <ele>4.2</ele>
        <time>2017-10-15T14:33:25Z</time>
      </trkpt>
      <trkpt lat="59.809026327612" lon="17.677161980503">
        <ele>4.2</ele>
        <time>2017-10-15T14:33:26Z</time>
      </trkpt>
      <trkpt lat="59.809077792478" lon="17.677235908861">
        <ele>4.2</ele>
        <time>2017-10-15T14:33:27Z</time>
      </trkpt>
      <trkpt lat="59.809132191009" lon="17.677318722033">
        <ele>4.4</ele>
        <time>2017-10-15T14:33:28Z</time>
      </trkpt>
      <trkpt lat="59.809173513776" lon="17.677377730609">
        <ele>4.6</ele>
        <time>2017-10-15T14:33:29Z</time>
      </trkpt>
      <trkpt lat="59.809228247583" lon="17.677461884885">
        <ele>4.6</ele>
        <time>2017-10-15T14:33:30Z</time>
      </trkpt>
      <trkpt lat="59.809270073264" lon="17.677527598981">
        <ele>4.8</ele>
        <time>2017-10-15T14:33:31Z</time>
      </trkpt>
      <trkpt lat="59.809314497334" lon="17.677588116299">
        <ele>5</ele>
        <time>2017-10-15T14:33:32Z</time>
      </trkpt>
      <trkpt lat="59.8093659622" lon="17.677641425183">
        <ele>5.2</ele>
        <time>2017-10-15T14:33:33Z</time>
      </trkpt>
      <trkpt lat="59.809416002143" lon="17.677685933072">
        <ele>5.4</ele>
        <time>2017-10-15T14:33:34Z</time>
      </trkpt>
      <trkpt lat="59.809465539172" lon="17.677722310518">
        <ele>5.6</ele>
        <time>2017-10-15T14:33:35Z</time>
      </trkpt>
      <trkpt lat="59.809521362626" lon="17.677768494787">
        <ele>6</ele>
        <time>2017-10-15T14:33:36Z</time>
      </trkpt>
      <trkpt lat="59.809574755329" lon="17.677813002676">
        <ele>6.2</ele>
        <time>2017-10-15T14:33:37Z</time>
      </trkpt>
      <trkpt lat="59.809636278475" lon="17.677853906348">
        <ele>6.4</ele>
        <time>2017-10-15T14:33:38Z</time>
      </trkpt>
      <trkpt lat="59.80969704725" lon="17.677891541079">
        <ele>6.4</ele>
        <time>2017-10-15T14:33:39Z</time>
      </trkpt>
      <trkpt lat="59.809756642559" lon="17.677937306253">
        <ele>6.2</ele>
        <time>2017-10-15T14:33:40Z</time>
      </trkpt>
      <trkpt lat="59.809813807117" lon="17.677985083083">
        <ele>6.2</ele>
        <time>2017-10-15T14:33:41Z</time>
      </trkpt>
      <trkpt lat="59.809875162625" lon="17.678038391967">
        <ele>6</ele>
        <time>2017-10-15T14:33:42Z</time>
      </trkpt>
      <trkpt lat="59.809936601952" lon="17.678107542642">
        <ele>5.8</ele>
        <time>2017-10-15T14:33:43Z</time>
      </trkpt>
      <trkpt lat="59.809989491741" lon="17.678173675833">
        <ele>5.8</ele>
        <time>2017-10-15T14:33:44Z</time>
      </trkpt>
      <trkpt lat="59.810041459521" lon="17.678257327195">
        <ele>5.6</ele>
        <time>2017-10-15T14:33:45Z</time>
      </trkpt>
      <trkpt lat="59.810087224695" lon="17.678344750412">
        <ele>5.4</ele>
        <time>2017-10-15T14:33:46Z</time>
      </trkpt>
      <trkpt lat="59.810123853598" lon="17.678427228308">
        <ele>5.4</ele>
        <time>2017-10-15T14:33:47Z</time>
      </trkpt>
      <trkpt lat="59.810167020383" lon="17.678529403669">
        <ele>5.4</ele>
        <time>2017-10-15T14:33:48Z</time>
      </trkpt>
      <trkpt lat="59.810206918227" lon="17.678626214614">
        <ele>5.6</ele>
        <time>2017-10-15T14:33:49Z</time>
      </trkpt>
      <trkpt lat="59.810246313157" lon="17.678719505161">
        <ele>5.6</ele>
        <time>2017-10-15T14:33:50Z</time>
      </trkpt>
      <trkpt lat="59.810282606784" lon="17.678813885355">
        <ele>5.6</ele>
        <time>2017-10-15T14:33:51Z</time>
      </trkpt>
      <trkpt lat="59.810315715289" lon="17.678904661332">
        <ele>5.8</ele>
        <time>2017-10-15T14:33:52Z</time>
      </trkpt>
      <trkpt lat="59.810345219577" lon="17.678997281327">
        <ele>6</ele>
        <time>2017-10-15T14:33:53Z</time>
      </trkpt>
      <trkpt lat="59.81037681934" lon="17.679098115584">
        <ele>6.2</ele>
        <time>2017-10-15T14:33:54Z</time>
      </trkpt>
      <trkpt lat="59.810403222325" lon="17.679188556285">
        <ele>6.4</ele>
        <time>2017-10-15T14:33:55Z</time>
      </trkpt>
      <trkpt lat="59.8104220816" lon="17.679283271755">
        <ele>6.8</ele>
        <time>2017-10-15T14:33:56Z</time>
      </trkpt>
      <trkpt lat="59.810451585888" lon="17.679355272276">
        <ele>6.8</ele>
        <time>2017-10-15T14:33:57Z</time>
      </trkpt>
      <trkpt lat="59.810480000529" lon="17.679437833991">
        <ele>7</ele>
        <time>2017-10-15T14:33:58Z</time>
      </trkpt>
      <trkpt lat="59.810504056582" lon="17.679504721553">
        <ele>7.2</ele>
        <time>2017-10-15T14:33:59Z</time>
      </trkpt>
      <trkpt lat="59.810538170915" lon="17.679588708191">
        <ele>7.4</ele>
        <time>2017-10-15T14:34:00Z</time>
      </trkpt>
      <trkpt lat="59.810570189773" lon="17.679665570214">
        <ele>7.6</ele>
        <time>2017-10-15T14:34:01Z</time>
      </trkpt>
      <trkpt lat="59.810602543907" lon="17.679735894355">
        <ele>7.8</ele>
        <time>2017-10-15T14:34:02Z</time>
      </trkpt>
      <trkpt lat="59.810644621045" lon="17.679812337283">
        <ele>8</ele>
        <time>2017-10-15T14:34:03Z</time>
      </trkpt>
      <trkpt lat="59.810687201097" lon="17.679878219017">
        <ele>8</ele>
        <time>2017-10-15T14:34:04Z</time>
      </trkpt>
      <trkpt lat="59.810719303774" lon="17.679914177368">
        <ele>8</ele>
        <time>2017-10-15T14:34:05Z</time>
      </trkpt>
      <trkpt lat="59.810788202992" lon="17.679991793762">
        <ele>8</ele>
        <time>2017-10-15T14:34:06Z</time>
      </trkpt>
      <trkpt lat="59.810839164944" lon="17.680048203949">
        <ele>8</ele>
        <time>2017-10-15T14:34:07Z</time>
      </trkpt>
      <trkpt lat="59.810898508796" lon="17.680103273032">
        <ele>8.2</ele>
        <time>2017-10-15T14:34:08Z</time>
      </trkpt>
      <trkpt lat="59.810958271743" lon="17.680146942731">
        <ele>8</ele>
        <time>2017-10-15T14:34:09Z</time>
      </trkpt>
      <trkpt lat="59.811019124337" lon="17.680184996557">
        <ele>7.8</ele>
        <time>2017-10-15T14:34:10Z</time>
      </trkpt>
      <trkpt lat="59.811078300551" lon="17.680220451994">
        <ele>7.6</ele>
        <time>2017-10-15T14:34:11Z</time>
      </trkpt>
      <trkpt lat="59.81114208681" lon="17.680259846924">
        <ele>7.6</ele>
        <time>2017-10-15T14:34:12Z</time>
      </trkpt>
      <trkpt lat="59.811212410951" lon="17.68029203342">
        <ele>7.2</ele>
        <time>2017-10-15T14:34:13Z</time>
      </trkpt>
      <trkpt lat="59.811276951581" lon="17.680318436405">
        <ele>7</ele>
        <time>2017-10-15T14:34:14Z</time>
      </trkpt>
      <trkpt lat="59.811351550491" lon="17.680343079191">
        <ele>6.8</ele>
        <time>2017-10-15T14:34:15Z</time>
      </trkpt>
      <trkpt lat="59.811422377546" lon="17.680366799968">
        <ele>6.6</ele>
        <time>2017-10-15T14:34:16Z</time>
      </trkpt>
      <trkpt lat="59.811485828529" lon="17.680383899044">
        <ele>6.4</ele>
        <time>2017-10-15T14:34:17Z</time>
      </trkpt>
      <trkpt lat="59.811569312253" lon="17.680401752491">
        <ele>6.4</ele>
        <time>2017-10-15T14:34:18Z</time>
      </trkpt>
      <trkpt lat="59.811646258095" lon="17.680418767748">
        <ele>6.2</ele>
        <time>2017-10-15T14:34:19Z</time>
      </trkpt>
      <trkpt lat="59.811720270272" lon="17.680430753865">
        <ele>6.2</ele>
        <time>2017-10-15T14:34:20Z</time>
      </trkpt>
      <trkpt lat="59.811796042648" lon="17.680436872652">
        <ele>6</ele>
        <time>2017-10-15T14:34:21Z</time>
      </trkpt>
      <trkpt lat="59.811869887187" lon="17.680443494353">
        <ele>6</ele>
        <time>2017-10-15T14:34:22Z</time>
      </trkpt>
      <trkpt lat="59.811946497753" lon="17.680449194045">
        <ele>5.8</ele>
        <time>2017-10-15T14:34:23Z</time>
      </trkpt>
      <trkpt lat="59.812030903486" lon="17.680450535149">
        <ele>5.8</ele>
        <time>2017-10-15T14:34:24Z</time>
      </trkpt>
      <trkpt lat="59.81211103445" lon="17.680446344199">
        <ele>5.6</ele>
        <time>2017-10-15T14:34:25Z</time>
      </trkpt>
      <trkpt lat="59.812191416871" lon="17.680436621195">
        <ele>5.4</ele>
        <time>2017-10-15T14:34:26Z</time>
      </trkpt>
      <trkpt lat="59.812266686333" lon="17.680428071657">
        <ele>5</ele>
        <time>2017-10-15T14:34:27Z</time>
      </trkpt>
      <trkpt lat="59.812350840609" lon="17.680420025033">
        <ele>4.6</ele>
        <time>2017-10-15T14:34:28Z</time>
      </trkpt>
      <trkpt lat="59.812398701258" lon="17.680415163531">
        <ele>4.4</ele>
        <time>2017-10-15T14:34:29Z</time>
      </trkpt>
      <trkpt lat="59.812512862736" lon="17.680407452183">
        <ele>4</ele>
        <time>2017-10-15T14:34:30Z</time>
      </trkpt>
      <trkpt lat="59.812594586261" lon="17.680398399731">
        <ele>3.6</ele>
        <time>2017-10-15T14:34:31Z</time>
      </trkpt>
      <trkpt lat="59.812671113008" lon="17.680394795514">
        <ele>3.4</ele>
        <time>2017-10-15T14:34:32Z</time>
      </trkpt>
      <trkpt lat="59.81275476437" lon="17.680396890989">
        <ele>3.2</ele>
        <time>2017-10-15T14:34:33Z</time>
      </trkpt>
      <trkpt lat="59.812828944185" lon="17.680399070283">
        <ele>3.2</ele>
        <time>2017-10-15T14:34:34Z</time>
      </trkpt>
      <trkpt lat="59.812896753756" lon="17.680418432472">
        <ele>3.2</ele>
        <time>2017-10-15T14:34:35Z</time>
      </trkpt>
      <trkpt lat="59.812971520304" lon="17.680452882081">
        <ele>3.2</ele>
        <time>2017-10-15T14:34:36Z</time>
      </trkpt>
      <trkpt lat="59.813034133097" lon="17.680497222332">
        <ele>3.2</ele>
        <time>2017-10-15T14:34:37Z</time>
      </trkpt>
      <trkpt lat="59.813096410614" lon="17.680549609207">
        <ele>3.2</ele>
        <time>2017-10-15T14:34:38Z</time>
      </trkpt>
      <trkpt lat="59.813146450557" lon="17.680614401294">
        <ele>3.2</ele>
        <time>2017-10-15T14:34:39Z</time>
      </trkpt>
      <trkpt lat="59.813192215731" lon="17.68068346815">
        <ele>3.2</ele>
        <time>2017-10-15T14:34:40Z</time>
      </trkpt>
      <trkpt lat="59.813230269557" lon="17.680749182246">
        <ele>3.4</ele>
        <time>2017-10-15T14:34:41Z</time>
      </trkpt>
      <trkpt lat="59.813270837953" lon="17.680817913826">
        <ele>3.8</ele>
        <time>2017-10-15T14:34:42Z</time>
      </trkpt>
      <trkpt lat="59.81331216072" lon="17.680883544103">
        <ele>4.2</ele>
        <time>2017-10-15T14:34:43Z</time>
      </trkpt>
      <trkpt lat="59.813347448519" lon="17.680941965946">
        <ele>4.4</ele>
        <time>2017-10-15T14:34:44Z</time>
      </trkpt>
      <trkpt lat="59.813386675811" lon="17.68100784768">
        <ele>4.8</ele>
        <time>2017-10-15T14:34:45Z</time>
      </trkpt>
      <trkpt lat="59.813421376877" lon="17.681068532636">
        <ele>5.6</ele>
        <time>2017-10-15T14:34:46Z</time>
      </trkpt>
      <trkpt lat="59.813454485382" lon="17.681124607547">
        <ele>6.2</ele>
        <time>2017-10-15T14:34:47Z</time>
      </trkpt>
      <trkpt lat="59.813492958303" lon="17.681201804846">
        <ele>6.6</ele>
        <time>2017-10-15T14:34:48Z</time>
      </trkpt>
      <trkpt lat="59.813525815351" lon="17.681271206978">
        <ele>7</ele>
        <time>2017-10-15T14:34:49Z</time>
      </trkpt>
      <trkpt lat="59.813560935512" lon="17.681334406504">
        <ele>7.2</ele>
        <time>2017-10-15T14:34:50Z</time>
      </trkpt>
      <trkpt lat="59.813596642406" lon="17.681394588546">
        <ele>7.4</ele>
        <time>2017-10-15T14:34:51Z</time>
      </trkpt>
      <trkpt lat="59.81362983473" lon="17.681456111692">
        <ele>7.6</ele>
        <time>2017-10-15T14:34:52Z</time>
      </trkpt>
      <trkpt lat="59.81366252414" lon="17.681521909607">
        <ele>7.8</ele>
        <time>2017-10-15T14:34:53Z</time>
      </trkpt>
      <trkpt lat="59.813697476663" lon="17.681592569024">
        <ele>8</ele>
        <time>2017-10-15T14:34:54Z</time>
      </trkpt>
      <trkpt lat="59.813729495521" lon="17.68166079769">
        <ele>8</ele>
        <time>2017-10-15T14:34:55Z</time>
      </trkpt>
      <trkpt lat="59.813760927646" lon="17.681728020528">
        <ele>8.2</ele>
        <time>2017-10-15T14:34:56Z</time>
      </trkpt>
      <trkpt lat="59.813790934848" lon="17.681787280561">
        <ele>8.2</ele>
        <time>2017-10-15T14:34:57Z</time>
      </trkpt>
      <trkpt lat="59.813825635914" lon="17.681853665209">
        <ele>8.4</ele>
        <time>2017-10-15T14:34:58Z</time>
      </trkpt>
      <trkpt lat="59.813852206537" lon="17.681910243034">
        <ele>8.6</ele>
        <time>2017-10-15T14:34:59Z</time>
      </trkpt>
      <trkpt lat="59.813886069413" lon="17.681987356514">
        <ele>8.6</ele>
        <time>2017-10-15T14:35:00Z</time>
      </trkpt>
      <trkpt lat="59.81390979019" lon="17.682048795841">
        <ele>8.8</ele>
        <time>2017-10-15T14:35:01Z</time>
      </trkpt>
      <trkpt lat="59.813944742713" lon="17.682125657864">
        <ele>9</ele>
        <time>2017-10-15T14:35:02Z</time>
      </trkpt>
      <trkpt lat="59.813978940865" lon="17.682193970349">
        <ele>9</ele>
        <time>2017-10-15T14:35:03Z</time>
      </trkpt>
      <trkpt lat="59.814011797913" lon="17.682261696101">
        <ele>9.2</ele>
        <time>2017-10-15T14:35:04Z</time>
      </trkpt>
      <trkpt lat="59.814039206726" lon="17.682330679138">
        <ele>9.4</ele>
        <time>2017-10-15T14:35:05Z</time>
      </trkpt>
      <trkpt lat="59.81407072267" lon="17.682408379351">
        <ele>9.4</ele>
        <time>2017-10-15T14:35:06Z</time>
      </trkpt>
      <trkpt lat="59.814098969673" lon="17.682479122587">
        <ele>9.6</ele>
        <time>2017-10-15T14:35:07Z</time>
      </trkpt>
      <trkpt lat="59.814130988531" lon="17.68255766099">
        <ele>9.6</ele>
        <time>2017-10-15T14:35:08Z</time>
      </trkpt>
      <trkpt lat="59.814161917742" lon="17.682632176081">
        <ele>9.8</ele>
        <time>2017-10-15T14:35:09Z</time>
      </trkpt>
      <trkpt lat="59.814193014591" lon="17.682707277905">
        <ele>9.8</ele>
        <time>2017-10-15T14:35:10Z</time>
      </trkpt>
      <trkpt lat="59.814221764508" lon="17.682778524055">
        <ele>10</ele>
        <time>2017-10-15T14:35:11Z</time>
      </trkpt>
      <trkpt lat="59.814251184977" lon="17.682857062458">
        <ele>10</ele>
        <time>2017-10-15T14:35:12Z</time>
      </trkpt>
      <trkpt lat="59.814282533283" lon="17.682939540354">
        <ele>10.2</ele>
        <time>2017-10-15T14:35:13Z</time>
      </trkpt>
      <trkpt lat="59.814310361191" lon="17.683011540875">
        <ele>10.2</ele>
        <time>2017-10-15T14:35:14Z</time>
      </trkpt>
      <trkpt lat="59.814340703669" lon="17.683093515857">
        <ele>10.4</ele>
        <time>2017-10-15T14:35:15Z</time>
      </trkpt>
      <trkpt lat="59.814369034491" lon="17.68317624521">
        <ele>10.4</ele>
        <time>2017-10-15T14:35:16Z</time>
      </trkpt>
      <trkpt lat="59.814393677277" lon="17.683248916283">
        <ele>10.6</ele>
        <time>2017-10-15T14:35:17Z</time>
      </trkpt>
      <trkpt lat="59.814427372515" lon="17.68333885407">
        <ele>10.6</ele>
        <time>2017-10-15T14:35:18Z</time>
      </trkpt>
      <trkpt lat="59.814455870975" lon="17.68341093841">
        <ele>10.6</ele>
        <time>2017-10-15T14:35:19Z</time>
      </trkpt>
      <trkpt lat="59.814486548729" lon="17.683488470985">
        <ele>10.8</ele>
        <time>2017-10-15T14:35:20Z</time>
      </trkpt>
      <trkpt lat="59.814514544275" lon="17.683569523958">
        <ele>10.8</ele>
        <time>2017-10-15T14:35:21Z</time>
      </trkpt>
      <trkpt lat="59.814536253396" lon="17.683653594415">
        <ele>11</ele>
        <time>2017-10-15T14:35:22Z</time>
      </trkpt>
      <trkpt lat="59.81455687287" lon="17.683744621849">
        <ele>11.2</ele>
        <time>2017-10-15T14:35:23Z</time>
      </trkpt>
      <trkpt lat="59.814573888127" lon="17.683845204649">
        <ele>11.4</ele>
        <time>2017-10-15T14:35:24Z</time>
      </trkpt>
      <trkpt lat="59.814587802081" lon="17.683939501024">
        <ele>11.6</ele>
        <time>2017-10-15T14:35:25Z</time>
      </trkpt>
      <trkpt lat="59.814602218949" lon="17.684033043028">
        <ele>11.8</ele>
        <time>2017-10-15T14:35:26Z</time>
      </trkpt>
      <trkpt lat="59.814611606677" lon="17.684122310263">
        <ele>11.8</ele>
        <time>2017-10-15T14:35:27Z</time>
      </trkpt>
      <trkpt lat="59.814617976921" lon="17.684223731253">
        <ele>12</ele>
        <time>2017-10-15T14:35:28Z</time>
      </trkpt>
      <trkpt lat="59.814620407672" lon="17.684307634072">
        <ele>12</ele>
        <time>2017-10-15T14:35:29Z</time>
      </trkpt>
      <trkpt lat="59.814622000233" lon="17.684416347315">
        <ele>12.2</ele>
        <time>2017-10-15T14:35:30Z</time>
      </trkpt>
      <trkpt lat="59.814620659129" lon="17.684510978966">
        <ele>12.2</ele>
        <time>2017-10-15T14:35:31Z</time>
      </trkpt>
      <trkpt lat="59.814613618333" lon="17.684597396355">
        <ele>12.4</ele>
        <time>2017-10-15T14:35:32Z</time>
      </trkpt>
      <trkpt lat="59.81460548789" lon="17.684695213128">
        <ele>12.4</ele>
        <time>2017-10-15T14:35:33Z</time>
      </trkpt>
      <trkpt lat="59.814593920868" lon="17.684783223078">
        <ele>12.4</ele>
        <time>2017-10-15T14:35:34Z</time>
      </trkpt>
      <trkpt lat="59.814580006914" lon="17.684864611327">
        <ele>12.6</ele>
        <time>2017-10-15T14:35:35Z</time>
      </trkpt>
      <trkpt lat="59.814561399096" lon="17.684953627105">
        <ele>12.6</ele>
        <time>2017-10-15T14:35:36Z</time>
      </trkpt>
      <trkpt lat="59.814546730771" lon="17.685036440277">
        <ele>12.8</ele>
        <time>2017-10-15T14:35:37Z</time>
      </trkpt>
      <trkpt lat="59.814535163749" lon="17.685129060272">
        <ele>13</ele>
        <time>2017-10-15T14:35:38Z</time>
      </trkpt>
      <trkpt lat="59.814523093813" lon="17.685209777969">
        <ele>13.2</ele>
        <time>2017-10-15T14:35:39Z</time>
      </trkpt>
      <trkpt lat="59.814511107696" lon="17.68529854229">
        <ele>13.4</ele>
        <time>2017-10-15T14:35:40Z</time>
      </trkpt>
      <trkpt lat="59.814502558158" lon="17.685378757073">
        <ele>13.6</ele>
        <time>2017-10-15T14:35:41Z</time>
      </trkpt>
      <trkpt lat="59.814490907317" lon="17.685457127838">
        <ele>13.6</ele>
        <time>2017-10-15T14:35:42Z</time>
      </trkpt>
      <trkpt lat="59.814472886232" lon="17.685539689553">
        <ele>13.8</ele>
        <time>2017-10-15T14:35:43Z</time>
      </trkpt>
      <trkpt lat="59.814456625346" lon="17.685613785549">
        <ele>13.8</ele>
        <time>2017-10-15T14:35:44Z</time>
      </trkpt>
      <trkpt lat="59.814443046668" lon="17.685696933997">
        <ele>14</ele>
        <time>2017-10-15T14:35:45Z</time>
      </trkpt>
      <trkpt lat="59.814431395827" lon="17.685785027766">
        <ele>14</ele>
        <time>2017-10-15T14:35:46Z</time>
      </trkpt>
      <trkpt lat="59.814420583176" lon="17.685854513717">
        <ele>14.2</ele>
        <time>2017-10-15T14:35:47Z</time>
      </trkpt>
      <trkpt lat="59.814403316462" lon="17.685950318834">
        <ele>14.4</ele>
        <time>2017-10-15T14:35:48Z</time>
      </trkpt>
      <trkpt lat="59.814387977585" lon="17.686021648803">
        <ele>14.8</ele>
        <time>2017-10-15T14:35:49Z</time>
      </trkpt>
      <trkpt lat="59.814372051975" lon="17.686104545794">
        <ele>15</ele>
        <time>2017-10-15T14:35:50Z</time>
      </trkpt>
      <trkpt lat="59.814359646763" lon="17.68618450912">
        <ele>15</ele>
        <time>2017-10-15T14:35:51Z</time>
      </trkpt>
      <trkpt lat="59.814347660646" lon="17.686263718075">
        <ele>15</ele>
        <time>2017-10-15T14:35:52Z</time>
      </trkpt>
      <trkpt lat="59.814335255434" lon="17.686342005021">
        <ele>15</ele>
        <time>2017-10-15T14:35:53Z</time>
      </trkpt>
      <trkpt lat="59.814320419471" lon="17.686423896184">
        <ele>15.2</ele>
        <time>2017-10-15T14:35:54Z</time>
      </trkpt>
      <trkpt lat="59.814305080594" lon="17.6865046977">
        <ele>15.2</ele>
        <time>2017-10-15T14:35:55Z</time>
      </trkpt>
      <trkpt lat="59.814291418097" lon="17.686582565551">
        <ele>15.2</ele>
        <time>2017-10-15T14:35:56Z</time>
      </trkpt>
      <trkpt lat="59.814278929066" lon="17.686652386778">
        <ele>15.4</ele>
        <time>2017-10-15T14:35:57Z</time>
      </trkpt>
      <trkpt lat="59.814254956832" lon="17.686725728403">
        <ele>15.4</ele>
        <time>2017-10-15T14:35:58Z</time>
      </trkpt>
      <trkpt lat="59.814245233828" lon="17.686796723096">
        <ele>15.6</ele>
        <time>2017-10-15T14:35:59Z</time>
      </trkpt>
      <trkpt lat="59.814230900779" lon="17.686886325607">
        <ele>15.8</ele>
        <time>2017-10-15T14:36:00Z</time>
      </trkpt>
      <trkpt lat="59.814217657377" lon="17.686964947829">
        <ele>15.8</ele>
        <time>2017-10-15T14:36:01Z</time>
      </trkpt>
      <trkpt lat="59.814204246337" lon="17.687038708549">
        <ele>16</ele>
        <time>2017-10-15T14:36:02Z</time>
      </trkpt>
      <trkpt lat="59.814194271876" lon="17.687108529776">
        <ele>16</ele>
        <time>2017-10-15T14:36:03Z</time>
      </trkpt>
      <trkpt lat="59.814184465053" lon="17.68718279341">
        <ele>16</ele>
        <time>2017-10-15T14:36:04Z</time>
      </trkpt>
      <trkpt lat="59.814170886375" lon="17.687256386492">
        <ele>15.8</ele>
        <time>2017-10-15T14:36:05Z</time>
      </trkpt>
      <trkpt lat="59.814153954937" lon="17.687343893528">
        <ele>16</ele>
        <time>2017-10-15T14:36:06Z</time>
      </trkpt>
      <trkpt lat="59.81413945425" lon="17.687424778863">
        <ele>16</ele>
        <time>2017-10-15T14:36:07Z</time>
      </trkpt>
      <trkpt lat="59.814124869744" lon="17.687519578152">
        <ele>16.2</ele>
        <time>2017-10-15T14:36:08Z</time>
      </trkpt>
      <trkpt lat="59.814112296894" lon="17.687612701061">
        <ele>16.4</ele>
        <time>2017-10-15T14:36:09Z</time>
      </trkpt>
      <trkpt lat="59.814099807863" lon="17.687708841454">
        <ele>16.6</ele>
        <time>2017-10-15T14:36:10Z</time>
      </trkpt>
      <trkpt lat="59.814085642452" lon="17.687796683766">
        <ele>16.6</ele>
        <time>2017-10-15T14:36:11Z</time>
      </trkpt>
      <trkpt lat="59.814067621367" lon="17.687892991797">
        <ele>16.6</ele>
        <time>2017-10-15T14:36:12Z</time>
      </trkpt>
      <trkpt lat="59.814045325513" lon="17.687995083339">
        <ele>16.6</ele>
        <time>2017-10-15T14:36:13Z</time>
      </trkpt>
      <trkpt lat="59.814025292772" lon="17.688086697506">
        <ele>16.6</ele>
        <time>2017-10-15T14:36:14Z</time>
      </trkpt>
      <trkpt lat="59.814005762945" lon="17.688193734369">
        <ele>16.6</ele>
        <time>2017-10-15T14:36:15Z</time>
      </trkpt>
      <trkpt lat="59.813989753516" lon="17.688299765404">
        <ele>16.6</ele>
        <time>2017-10-15T14:36:16Z</time>
      </trkpt>
      <trkpt lat="59.813973827906" lon="17.688394313236">
        <ele>16.8</ele>
        <time>2017-10-15T14:36:17Z</time>
      </trkpt>
      <trkpt lat="59.813952705518" lon="17.688517359528">
        <ele>16.8</ele>
        <time>2017-10-15T14:36:18Z</time>
      </trkpt>
      <trkpt lat="59.813936779908" lon="17.68863202392">
        <ele>17</ele>
        <time>2017-10-15T14:36:19Z</time>
      </trkpt>
      <trkpt lat="59.813925296705" lon="17.688749035244">
        <ele>17</ele>
        <time>2017-10-15T14:36:20Z</time>
      </trkpt>
      <trkpt lat="59.813916411891" lon="17.688867974405">
        <ele>17</ele>
        <time>2017-10-15T14:36:21Z</time>
      </trkpt>
      <trkpt lat="59.813906521249" lon="17.688979788951">
        <ele>16.8</ele>
        <time>2017-10-15T14:36:22Z</time>
      </trkpt>
      <trkpt lat="59.813895205684" lon="17.689103841071">
        <ele>16.8</ele>
        <time>2017-10-15T14:36:23Z</time>
      </trkpt>
      <trkpt lat="59.813885566499" lon="17.689235017806">
        <ele>16.6</ele>
        <time>2017-10-15T14:36:24Z</time>
      </trkpt>
      <trkpt lat="59.813877519875" lon="17.689361416858">
        <ele>16.4</ele>
        <time>2017-10-15T14:36:25Z</time>
      </trkpt>
      <trkpt lat="59.813873245106" lon="17.689488570281">
        <ele>16.2</ele>
        <time>2017-10-15T14:36:26Z</time>
      </trkpt>
      <trkpt lat="59.81387290983" lon="17.689610610745">
        <ele>16.2</ele>
        <time>2017-10-15T14:36:27Z</time>
      </trkpt>
      <trkpt lat="59.813875172943" lon="17.689749247371">
        <ele>15.8</ele>
        <time>2017-10-15T14:36:28Z</time>
      </trkpt>
      <trkpt lat="59.813876011133" lon="17.689862989754">
        <ele>15.8</ele>
        <time>2017-10-15T14:36:29Z</time>
      </trkpt>
      <trkpt lat="59.813878525703" lon="17.690010259737">
        <ele>15.6</ele>
        <time>2017-10-15T14:36:30Z</time>
      </trkpt>
      <trkpt lat="59.813886656146" lon="17.690141855567">
        <ele>15.6</ele>
        <time>2017-10-15T14:36:31Z</time>
      </trkpt>
      <trkpt lat="59.81389302639" lon="17.690262890203">
        <ele>15.6</ele>
        <time>2017-10-15T14:36:32Z</time>
      </trkpt>
      <trkpt lat="59.813905263964" lon="17.690401191553">
        <ele>15.6</ele>
        <time>2017-10-15T14:36:33Z</time>
      </trkpt>
      <trkpt lat="59.813917166262" lon="17.690530021356">
        <ele>15.8</ele>
        <time>2017-10-15T14:36:34Z</time>
      </trkpt>
      <trkpt lat="59.813930074388" lon="17.690645440119">
        <ele>15.8</ele>
        <time>2017-10-15T14:36:35Z</time>
      </trkpt>
      <trkpt lat="59.813949604215" lon="17.690781310718">
        <ele>15.8</ele>
        <time>2017-10-15T14:36:36Z</time>
      </trkpt>
      <trkpt lat="59.813969636956" lon="17.69089513692">
        <ele>15.8</ele>
        <time>2017-10-15T14:36:37Z</time>
      </trkpt>
      <trkpt lat="59.813989250602" lon="17.691024888732">
        <ele>15.8</ele>
        <time>2017-10-15T14:36:38Z</time>
      </trkpt>
      <trkpt lat="59.8140095348" lon="17.691145420454">
        <ele>15.8</ele>
        <time>2017-10-15T14:36:39Z</time>
      </trkpt>
      <trkpt lat="59.814036608337" lon="17.691261593588">
        <ele>15.8</ele>
        <time>2017-10-15T14:36:40Z</time>
      </trkpt>
      <trkpt lat="59.814061670218" lon="17.691368881908">
        <ele>16</ele>
        <time>2017-10-15T14:36:41Z</time>
      </trkpt>
      <trkpt lat="59.814089498126" lon="17.691482205196">
        <ele>16</ele>
        <time>2017-10-15T14:36:42Z</time>
      </trkpt>
      <trkpt lat="59.81412185226" lon="17.691599803253">
        <ele>16.2</ele>
        <time>2017-10-15T14:36:43Z</time>
      </trkpt>
      <trkpt lat="59.814150266901" lon="17.691702565347">
        <ele>16.2</ele>
        <time>2017-10-15T14:36:44Z</time>
      </trkpt>
      <trkpt lat="59.814182956311" lon="17.691812284418">
        <ele>16.4</ele>
        <time>2017-10-15T14:36:45Z</time>
      </trkpt>
      <trkpt lat="59.814216986825" lon="17.69191605234">
        <ele>16.4</ele>
        <time>2017-10-15T14:36:46Z</time>
      </trkpt>
      <trkpt lat="59.81424925714" lon="17.692004732842">
        <ele>16.4</ele>
        <time>2017-10-15T14:36:47Z</time>
      </trkpt>
      <trkpt lat="59.814289154984" lon="17.692118223768">
        <ele>16.4</ele>
        <time>2017-10-15T14:36:48Z</time>
      </trkpt>
      <trkpt lat="59.814325364792" lon="17.692215705265">
        <ele>16.4</ele>
        <time>2017-10-15T14:36:49Z</time>
      </trkpt>
      <trkpt lat="59.814363837713" lon="17.692309247269">
        <ele>16.4</ele>
        <time>2017-10-15T14:36:50Z</time>
      </trkpt>
      <trkpt lat="59.814403651738" lon="17.692399436513">
        <ele>16.6</ele>
        <time>2017-10-15T14:36:51Z</time>
      </trkpt>
      <trkpt lat="59.81444371722" lon="17.692481411495">
        <ele>16.6</ele>
        <time>2017-10-15T14:36:52Z</time>
      </trkpt>
      <trkpt lat="59.814488057471" lon="17.69256229683">
        <ele>16.6</ele>
        <time>2017-10-15T14:36:53Z</time>
      </trkpt>
      <trkpt lat="59.814534157921" lon="17.692652486074">
        <ele>16.6</ele>
        <time>2017-10-15T14:36:54Z</time>
      </trkpt>
      <trkpt lat="59.814577995258" lon="17.692734041961">
        <ele>16.6</ele>
        <time>2017-10-15T14:36:55Z</time>
      </trkpt>
      <trkpt lat="59.814626023545" lon="17.692809479061">
        <ele>16.6</ele>
        <time>2017-10-15T14:36:56Z</time>
      </trkpt>
      <trkpt lat="59.814672459271" lon="17.69287829446">
        <ele>16.8</ele>
        <time>2017-10-15T14:36:57Z</time>
      </trkpt>
      <trkpt lat="59.814725432879" lon="17.692948450963">
        <ele>16.8</ele>
        <time>2017-10-15T14:36:58Z</time>
      </trkpt>
      <trkpt lat="59.814771952424" lon="17.693005447883">
        <ele>16.8</ele>
        <time>2017-10-15T14:36:59Z</time>
      </trkpt>
      <trkpt lat="59.81481922634" lon="17.693060936061">
        <ele>16.8</ele>
        <time>2017-10-15T14:37:00Z</time>
      </trkpt>
      <trkpt lat="59.814866584075" lon="17.693124135587">
        <ele>16.8</ele>
        <time>2017-10-15T14:37:01Z</time>
      </trkpt>
      <trkpt lat="59.814901955693" lon="17.693193034805">
        <ele>17</ele>
        <time>2017-10-15T14:37:02Z</time>
      </trkpt>
      <trkpt lat="59.814926011746" lon="17.693290348664">
        <ele>17</ele>
        <time>2017-10-15T14:37:03Z</time>
      </trkpt>
      <trkpt lat="59.814959036432" lon="17.693354889294">
        <ele>17</ele>
        <time>2017-10-15T14:37:04Z</time>
      </trkpt>
      <trkpt lat="59.815005220701" lon="17.693387159609">
        <ele>17.2</ele>
        <time>2017-10-15T14:37:05Z</time>
      </trkpt>
      <trkpt lat="59.815048555124" lon="17.693410712748">
        <ele>17.2</ele>
        <time>2017-10-15T14:37:06Z</time>
      </trkpt>
      <trkpt lat="59.815093230651" lon="17.693448598936">
        <ele>17.2</ele>
        <time>2017-10-15T14:37:07Z</time>
      </trkpt>
      <trkpt lat="59.815144024965" lon="17.693492100997">
        <ele>17.4</ele>
        <time>2017-10-15T14:37:08Z</time>
      </trkpt>
      <trkpt lat="59.815193729632" lon="17.693525209502">
        <ele>17.6</ele>
        <time>2017-10-15T14:37:09Z</time>
      </trkpt>
      <trkpt lat="59.815244356308" lon="17.693558653283">
        <ele>17.6</ele>
        <time>2017-10-15T14:37:10Z</time>
      </trkpt>
      <trkpt lat="59.815293893337" lon="17.693599305498">
        <ele>17.8</ele>
        <time>2017-10-15T14:37:11Z</time>
      </trkpt>
      <trkpt lat="59.815337982131" lon="17.693639873894">
        <ele>18</ele>
        <time>2017-10-15T14:37:12Z</time>
      </trkpt>
      <trkpt lat="59.815395398146" lon="17.693686225801">
        <ele>18</ele>
        <time>2017-10-15T14:37:13Z</time>
      </trkpt>
      <trkpt lat="59.815443091157" lon="17.693723022342">
        <ele>18</ele>
        <time>2017-10-15T14:37:14Z</time>
      </trkpt>
      <trkpt lat="59.815499249887" lon="17.693765602394">
        <ele>18</ele>
        <time>2017-10-15T14:37:15Z</time>
      </trkpt>
      <trkpt lat="59.815550295658" lon="17.693810445559">
        <ele>18</ele>
        <time>2017-10-15T14:37:16Z</time>
      </trkpt>
      <trkpt lat="59.81559790485" lon="17.693854199077">
        <ele>18.2</ele>
        <time>2017-10-15T14:37:17Z</time>
      </trkpt>
      <trkpt lat="59.815649956449" lon="17.693897449681">
        <ele>18.2</ele>
        <time>2017-10-15T14:37:18Z</time>
      </trkpt>
      <trkpt lat="59.81570854593" lon="17.693933491851">
        <ele>18.2</ele>
        <time>2017-10-15T14:37:19Z</time>
      </trkpt>
      <trkpt lat="59.815763950289" lon="17.693966432718">
        <ele>18.4</ele>
        <time>2017-10-15T14:37:20Z</time>
      </trkpt>
      <trkpt lat="59.815821031028" lon="17.694003313078">
        <ele>18.6</ele>
        <time>2017-10-15T14:37:21Z</time>
      </trkpt>
      <trkpt lat="59.815874759007" lon="17.69403667304">
        <ele>18.6</ele>
        <time>2017-10-15T14:37:22Z</time>
      </trkpt>
      <trkpt lat="59.815937455619" lon="17.694078079626">
        <ele>18.8</ele>
        <time>2017-10-15T14:37:23Z</time>
      </trkpt>
      <trkpt lat="59.815994201082" lon="17.694104650249">
        <ele>19</ele>
        <time>2017-10-15T14:37:24Z</time>
      </trkpt>
      <trkpt lat="59.816059998997" lon="17.694131304691">
        <ele>19</ele>
        <time>2017-10-15T14:37:25Z</time>
      </trkpt>
      <trkpt lat="59.816118923754" lon="17.694157707676">
        <ele>19</ele>
        <time>2017-10-15T14:37:26Z</time>
      </trkpt>
      <trkpt lat="59.816175836855" lon="17.69417665077">
        <ele>19.2</ele>
        <time>2017-10-15T14:37:27Z</time>
      </trkpt>
      <trkpt lat="59.816237527639" lon="17.694201209737">
        <ele>19.2</ele>
        <time>2017-10-15T14:37:28Z</time>
      </trkpt>
      <trkpt lat="59.816292261446" lon="17.694224176143">
        <ele>19.4</ele>
        <time>2017-10-15T14:37:29Z</time>
      </trkpt>
      <trkpt lat="59.816336853154" lon="17.694248232196">
        <ele>19.4</ele>
        <time>2017-10-15T14:37:30Z</time>
      </trkpt>
      <trkpt lat="59.816413715177" lon="17.694296595759">
        <ele>19.6</ele>
        <time>2017-10-15T14:37:31Z</time>
      </trkpt>
      <trkpt lat="59.816470879735" lon="17.694331632101">
        <ele>19.8</ele>
        <time>2017-10-15T14:37:32Z</time>
      </trkpt>
      <trkpt lat="59.816536090917" lon="17.694374798886">
        <ele>19.8</ele>
        <time>2017-10-15T14:37:33Z</time>
      </trkpt>
      <trkpt lat="59.816599877176" lon="17.694421569888">
        <ele>19.8</ele>
        <time>2017-10-15T14:37:34Z</time>
      </trkpt>
      <trkpt lat="59.816665004539" lon="17.694470939279">
        <ele>19.8</ele>
        <time>2017-10-15T14:37:35Z</time>
      </trkpt>
      <trkpt lat="59.816726360047" lon="17.694524918715">
        <ele>19.6</ele>
        <time>2017-10-15T14:37:36Z</time>
      </trkpt>
      <trkpt lat="59.816792241781" lon="17.694583005282">
        <ele>19.6</ele>
        <time>2017-10-15T14:37:37Z</time>
      </trkpt>
      <trkpt lat="59.816866337777" lon="17.694642600591">
        <ele>19.6</ele>
        <time>2017-10-15T14:37:38Z</time>
      </trkpt>
      <trkpt lat="59.816937081013" lon="17.694697753493">
        <ele>19.4</ele>
        <time>2017-10-15T14:37:39Z</time>
      </trkpt>
      <trkpt lat="59.817008913896" lon="17.694750475644">
        <ele>19.2</ele>
        <time>2017-10-15T14:37:40Z</time>
      </trkpt>
      <trkpt lat="59.817080076227" lon="17.694804203623">
        <ele>18.8</ele>
        <time>2017-10-15T14:37:41Z</time>
      </trkpt>
      <trkpt lat="59.817141934649" lon="17.694855752308">
        <ele>18.6</ele>
        <time>2017-10-15T14:37:42Z</time>
      </trkpt>
      <trkpt lat="59.817218712853" lon="17.694923561879">
        <ele>18.4</ele>
        <time>2017-10-15T14:37:43Z</time>
      </trkpt>
      <trkpt lat="59.817281158008" lon="17.694978211867">
        <ele>17.8</ele>
        <time>2017-10-15T14:37:44Z</time>
      </trkpt>
      <trkpt lat="59.817348716122" lon="17.695048871284">
        <ele>17.4</ele>
        <time>2017-10-15T14:37:45Z</time>
      </trkpt>
      <trkpt lat="59.817401102997" lon="17.695139144347">
        <ele>17</ele>
        <time>2017-10-15T14:37:46Z</time>
      </trkpt>
      <trkpt lat="59.817435887882" lon="17.695234530369">
        <ele>16.8</ele>
        <time>2017-10-15T14:37:47Z</time>
      </trkpt>
      <trkpt lat="59.817474696079" lon="17.695315918618">
        <ele>16.8</ele>
        <time>2017-10-15T14:37:48Z</time>
      </trkpt>
      <trkpt lat="59.817518030502" lon="17.695370987701">
        <ele>16.8</ele>
        <time>2017-10-15T14:37:49Z</time>
      </trkpt>
      <trkpt lat="59.817565723513" lon="17.69540543731">
        <ele>17</ele>
        <time>2017-10-15T14:37:50Z</time>
      </trkpt>
      <trkpt lat="59.817615344361" lon="17.695438545815">
        <ele>17.2</ele>
        <time>2017-10-15T14:37:51Z</time>
      </trkpt>
      <trkpt lat="59.817661444811" lon="17.695485819731">
        <ele>17.2</ele>
        <time>2017-10-15T14:37:52Z</time>
      </trkpt>
      <trkpt lat="59.817713664048" lon="17.695548264886">
        <ele>17.6</ele>
        <time>2017-10-15T14:37:53Z</time>
      </trkpt>
      <trkpt lat="59.817761608516" lon="17.695594113879">
        <ele>17.6</ele>
        <time>2017-10-15T14:37:54Z</time>
      </trkpt>
      <trkpt lat="59.817818940712" lon="17.695646668392">
        <ele>17.6</ele>
        <time>2017-10-15T14:37:55Z</time>
      </trkpt>
      <trkpt lat="59.817871830501" lon="17.69570634752">
        <ele>17.8</ele>
        <time>2017-10-15T14:37:56Z</time>
      </trkpt>
      <trkpt lat="59.817915667838" lon="17.695778264222">
        <ele>17.8</ele>
        <time>2017-10-15T14:37:57Z</time>
      </trkpt>
      <trkpt lat="59.817966545971" lon="17.695863340507">
        <ele>18</ele>
        <time>2017-10-15T14:37:58Z</time>
      </trkpt>
      <trkpt lat="59.818014155163" lon="17.695927462042">
        <ele>18</ele>
        <time>2017-10-15T14:37:59Z</time>
      </trkpt>
      <trkpt lat="59.81807224173" lon="17.695985800066">
        <ele>18</ele>
        <time>2017-10-15T14:38:00Z</time>
      </trkpt>
      <trkpt lat="59.818134435428" lon="17.696054447827">
        <ele>18</ele>
        <time>2017-10-15T14:38:01Z</time>
      </trkpt>
      <trkpt lat="59.818196964402" lon="17.696114126955">
        <ele>17.8</ele>
        <time>2017-10-15T14:38:02Z</time>
      </trkpt>
      <trkpt lat="59.818265947439" lon="17.696164334536">
        <ele>17.8</ele>
        <time>2017-10-15T14:38:03Z</time>
      </trkpt>
      <trkpt lat="59.818334930476" lon="17.696186211295">
        <ele>17.6</ele>
        <time>2017-10-15T14:38:04Z</time>
      </trkpt>
      <trkpt lat="59.818405673712" lon="17.696198448869">
        <ele>17.4</ele>
        <time>2017-10-15T14:38:05Z</time>
      </trkpt>
      <trkpt lat="59.818470633437" lon="17.696198867964">
        <ele>17</ele>
        <time>2017-10-15T14:38:06Z</time>
      </trkpt>
      <trkpt lat="59.818539784112" lon="17.696198951783">
        <ele>16.8</ele>
        <time>2017-10-15T14:38:07Z</time>
      </trkpt>
      <trkpt lat="59.818614634479" lon="17.696205657303">
        <ele>16.6</ele>
        <time>2017-10-15T14:38:08Z</time>
      </trkpt>
      <trkpt lat="59.818685210077" lon="17.696215799402">
        <ele>16.6</ele>
        <time>2017-10-15T14:38:09Z</time>
      </trkpt>
      <trkpt lat="59.818755953313" lon="17.696243040577">
        <ele>16.6</ele>
        <time>2017-10-15T14:38:10Z</time>
      </trkpt>
      <trkpt lat="59.818822170323" lon="17.696296600918">
        <ele>16.6</ele>
        <time>2017-10-15T14:38:11Z</time>
      </trkpt>
      <trkpt lat="59.818875143931" lon="17.696365667774">
        <ele>16.6</ele>
        <time>2017-10-15T14:38:12Z</time>
      </trkpt>
      <trkpt lat="59.818935242154" lon="17.696463819823">
        <ele>16.6</ele>
        <time>2017-10-15T14:38:13Z</time>
      </trkpt>
      <trkpt lat="59.818980672052" lon="17.696552751782">
        <ele>16.4</ele>
        <time>2017-10-15T14:38:14Z</time>
      </trkpt>
      <trkpt lat="59.819030125262" lon="17.696659704826">
        <ele>16.4</ele>
        <time>2017-10-15T14:38:15Z</time>
      </trkpt>
      <trkpt lat="59.819072621495" lon="17.69676079054">
        <ele>16.4</ele>
        <time>2017-10-15T14:38:16Z</time>
      </trkpt>
      <trkpt lat="59.819115453004" lon="17.696847291748">
        <ele>16.2</ele>
        <time>2017-10-15T14:38:17Z</time>
      </trkpt>
      <trkpt lat="59.81916524149" lon="17.696931110748">
        <ele>16.2</ele>
        <time>2017-10-15T14:38:18Z</time>
      </trkpt>
      <trkpt lat="59.819221484039" lon="17.697014175377">
        <ele>16.2</ele>
        <time>2017-10-15T14:38:19Z</time>
      </trkpt>
      <trkpt lat="59.81927923533" lon="17.697073770686">
        <ele>16.2</ele>
        <time>2017-10-15T14:38:20Z</time>
      </trkpt>
      <trkpt lat="59.819340171743" lon="17.697111740693">
        <ele>16.4</ele>
        <time>2017-10-15T14:38:21Z</time>
      </trkpt>
      <trkpt lat="59.819399264138" lon="17.69712205043">
        <ele>16.4</ele>
        <time>2017-10-15T14:38:22Z</time>
      </trkpt>
      <trkpt lat="59.819467492804" lon="17.697105705725">
        <ele>16.4</ele>
        <time>2017-10-15T14:38:23Z</time>
      </trkpt>
      <trkpt lat="59.819523232439" lon="17.697063880044">
        <ele>16.6</ele>
        <time>2017-10-15T14:38:24Z</time>
      </trkpt>
      <trkpt lat="59.819581319006" lon="17.696994058817">
        <ele>16.6</ele>
        <time>2017-10-15T14:38:25Z</time>
      </trkpt>
      <trkpt lat="59.819627838551" lon="17.696911748559">
        <ele>16.4</ele>
        <time>2017-10-15T14:38:26Z</time>
      </trkpt>
      <trkpt lat="59.819672681716" lon="17.696825917903">
        <ele>16.4</ele>
        <time>2017-10-15T14:38:27Z</time>
      </trkpt>
      <trkpt lat="59.819714507397" lon="17.696729945148">
        <ele>16.2</ele>
        <time>2017-10-15T14:38:28Z</time>
      </trkpt>
      <trkpt lat="59.819745185151" lon="17.696648640718">
        <ele>16.2</ele>
        <time>2017-10-15T14:38:29Z</time>
      </trkpt>
      <trkpt lat="59.819789357764" lon="17.69656800684">
        <ele>16.2</ele>
        <time>2017-10-15T14:38:30Z</time>
      </trkpt>
      <trkpt lat="59.819826405762" lon="17.696510004092">
        <ele>16.2</ele>
        <time>2017-10-15T14:38:31Z</time>
      </trkpt>
      <trkpt lat="59.819858005525" lon="17.696482008546">
        <ele>16.2</ele>
        <time>2017-10-15T14:38:32Z</time>
      </trkpt>
      <trkpt lat="59.819896310808" lon="17.696453258629">
        <ele>16.4</ele>
        <time>2017-10-15T14:38:33Z</time>
      </trkpt>
      <trkpt lat="59.819938387946" lon="17.696429873128">
        <ele>16.4</ele>
        <time>2017-10-15T14:38:34Z</time>
      </trkpt>
      <trkpt lat="59.819975268306" lon="17.696409505111">
        <ele>16.6</ele>
        <time>2017-10-15T14:38:35Z</time>
      </trkpt>
      <trkpt lat="59.820008125354" lon="17.696390897293">
        <ele>16.8</ele>
        <time>2017-10-15T14:38:36Z</time>
      </trkpt>
      <trkpt lat="59.820044418981" lon="17.696376145149">
        <ele>16.8</ele>
        <time>2017-10-15T14:38:37Z</time>
      </trkpt>
      <trkpt lat="59.820087334309" lon="17.696365667774">
        <ele>17</ele>
        <time>2017-10-15T14:38:38Z</time>
      </trkpt>
      <trkpt lat="59.820132931845" lon="17.69635426839">
        <ele>17</ele>
        <time>2017-10-15T14:38:39Z</time>
      </trkpt>
      <trkpt lat="59.820181546865" lon="17.696333648916">
        <ele>17.2</ele>
        <time>2017-10-15T14:38:40Z</time>
      </trkpt>
      <trkpt lat="59.820231838265" lon="17.696316633659">
        <ele>17.2</ele>
        <time>2017-10-15T14:38:41Z</time>
      </trkpt>
      <trkpt lat="59.820278776905" lon="17.6963031388">
        <ele>17.2</ele>
        <time>2017-10-15T14:38:42Z</time>
      </trkpt>
      <trkpt lat="59.820341724974" lon="17.696291487959">
        <ele>17</ele>
        <time>2017-10-15T14:38:43Z</time>
      </trkpt>
      <trkpt lat="59.820396626419" lon="17.696286458819">
        <ele>16.8</ele>
        <time>2017-10-15T14:38:44Z</time>
      </trkpt>
      <trkpt lat="59.820460999411" lon="17.696281178222">
        <ele>16.6</ele>
        <time>2017-10-15T14:38:45Z</time>
      </trkpt>
      <trkpt lat="59.820520091806" lon="17.696288638113">
        <ele>16.4</ele>
        <time>2017-10-15T14:38:46Z</time>
      </trkpt>
      <trkpt lat="59.820574825613" lon="17.696301546239">
        <ele>16.4</ele>
        <time>2017-10-15T14:38:47Z</time>
      </trkpt>
      <trkpt lat="59.820637270768" lon="17.696308251759">
        <ele>16.2</ele>
        <time>2017-10-15T14:38:48Z</time>
      </trkpt>
      <trkpt lat="59.820703823054" lon="17.69630984432">
        <ele>16.4</ele>
        <time>2017-10-15T14:38:49Z</time>
      </trkpt>
      <trkpt lat="59.820765178562" lon="17.696323674455">
        <ele>16.2</ele>
        <time>2017-10-15T14:38:50Z</time>
      </trkpt>
      <trkpt lat="59.820816559609" lon="17.696369858724">
        <ele>16</ele>
        <time>2017-10-15T14:38:51Z</time>
      </trkpt>
      <trkpt lat="59.820845225707" lon="17.69643808739">
        <ele>15.8</ele>
        <time>2017-10-15T14:38:52Z</time>
      </trkpt>
      <trkpt lat="59.820857128005" lon="17.69653447924">
        <ele>15.6</ele>
        <time>2017-10-15T14:38:53Z</time>
      </trkpt>
      <trkpt lat="59.820850506304" lon="17.696627769787">
        <ele>15.4</ele>
        <time>2017-10-15T14:38:54Z</time>
      </trkpt>
      <trkpt lat="59.82085084158" lon="17.696737405039">
        <ele>15.2</ele>
        <time>2017-10-15T14:38:55Z</time>
      </trkpt>
      <trkpt lat="59.820853607607" lon="17.696845615368">
        <ele>15</ele>
        <time>2017-10-15T14:38:56Z</time>
      </trkpt>
      <trkpt lat="59.820857630919" lon="17.696944940883">
        <ele>15</ele>
        <time>2017-10-15T14:38:57Z</time>
      </trkpt>
      <trkpt lat="59.820860564584" lon="17.697066310795">
        <ele>14.8</ele>
        <time>2017-10-15T14:38:58Z</time>
      </trkpt>
      <trkpt lat="59.820861235136" lon="17.697172258011">
        <ele>14.8</ele>
        <time>2017-10-15T14:38:59Z</time>
      </trkpt>
      <trkpt lat="59.820863665887" lon="17.697289856068">
        <ele>14.8</ele>
        <time>2017-10-15T14:39:00Z</time>
      </trkpt>
      <trkpt lat="59.82086676719" lon="17.697410303971">
        <ele>15</ele>
        <time>2017-10-15T14:39:01Z</time>
      </trkpt>
      <trkpt lat="59.82086760538" lon="17.697514742445">
        <ele>15</ele>
        <time>2017-10-15T14:39:02Z</time>
      </trkpt>
      <trkpt lat="59.820866012819" lon="17.697629406837">
        <ele>15.2</ele>
        <time>2017-10-15T14:39:03Z</time>
      </trkpt>
      <trkpt lat="59.820873137434" lon="17.697729402904">
        <ele>15.2</ele>
        <time>2017-10-15T14:39:04Z</time>
      </trkpt>
      <trkpt lat="59.820906329758" lon="17.697810120601">
        <ele>15.2</ele>
        <time>2017-10-15T14:39:05Z</time>
      </trkpt>
      <trkpt lat="59.820951172923" lon="17.697849012617">
        <ele>15.2</ele>
        <time>2017-10-15T14:39:06Z</time>
      </trkpt>
      <trkpt lat="59.820997860106" lon="17.697904416976">
        <ele>15.2</ele>
        <time>2017-10-15T14:39:07Z</time>
      </trkpt>
      <trkpt lat="59.821046810402" lon="17.697975579307">
        <ele>15</ele>
        <time>2017-10-15T14:39:08Z</time>
      </trkpt>
      <trkpt lat="59.821091737386" lon="17.698047496009">
        <ele>15</ele>
        <time>2017-10-15T14:39:09Z</time>
      </trkpt>
      <trkpt lat="59.821133646886" lon="17.69810692368">
        <ele>15</ele>
        <time>2017-10-15T14:39:10Z</time>
      </trkpt>
      <trkpt lat="59.821181172259" lon="17.698166351351">
        <ele>15</ele>
        <time>2017-10-15T14:39:11Z</time>
      </trkpt>
      <trkpt lat="59.821220064275" lon="17.698227371583">
        <ele>15</ele>
        <time>2017-10-15T14:39:12Z</time>
      </trkpt>
      <trkpt lat="59.821261219404" lon="17.698332983523">
        <ele>15</ele>
        <time>2017-10-15T14:39:13Z</time>
      </trkpt>
      <trkpt lat="59.821273205521" lon="17.698444462793">
        <ele>15.2</ele>
        <time>2017-10-15T14:39:14Z</time>
      </trkpt>
      <trkpt lat="59.821285359276" lon="17.698563318135">
        <ele>15.2</ele>
        <time>2017-10-15T14:39:15Z</time>
      </trkpt>
      <trkpt lat="59.821312935727" lon="17.698663984754">
        <ele>15</ele>
        <time>2017-10-15T14:39:16Z</time>
      </trkpt>
      <trkpt lat="59.821348474983" lon="17.698736572008">
        <ele>15</ele>
        <time>2017-10-15T14:39:17Z</time>
      </trkpt>
      <trkpt lat="59.821394491614" lon="17.698791473453">
        <ele>15</ele>
        <time>2017-10-15T14:39:18Z</time>
      </trkpt>
      <trkpt lat="59.821451153258" lon="17.698820139551">
        <ele>15</ele>
        <time>2017-10-15T14:39:19Z</time>
      </trkpt>
      <trkpt lat="59.821504545961" lon="17.698819468999">
        <ele>15</ele>
        <time>2017-10-15T14:39:20Z</time>
      </trkpt>
      <trkpt lat="59.821560956148" lon="17.698814104583">
        <ele>15.2</ele>
        <time>2017-10-15T14:39:21Z</time>
      </trkpt>
      <trkpt lat="59.821613678299" lon="17.69881100328">
        <ele>15.2</ele>
        <time>2017-10-15T14:39:22Z</time>
      </trkpt>
      <trkpt lat="59.821676710187" lon="17.698806225597">
        <ele>15.4</ele>
        <time>2017-10-15T14:39:23Z</time>
      </trkpt>
      <trkpt lat="59.821733958564" lon="17.69880178319">
        <ele>15.4</ele>
        <time>2017-10-15T14:39:24Z</time>
      </trkpt>
      <trkpt lat="59.821798247737" lon="17.698794826213">
        <ele>15.4</ele>
        <time>2017-10-15T14:39:25Z</time>
      </trkpt>
      <trkpt lat="59.821861279625" lon="17.69878669577">
        <ele>15.4</ele>
        <time>2017-10-15T14:39:26Z</time>
      </trkpt>
      <trkpt lat="59.821923305685" lon="17.698783594467">
        <ele>15.2</ele>
        <time>2017-10-15T14:39:27Z</time>
      </trkpt>
      <trkpt lat="59.821990947618" lon="17.698789126521">
        <ele>15</ele>
        <time>2017-10-15T14:39:28Z</time>
      </trkpt>
      <trkpt lat="59.822053225135" lon="17.69879843043">
        <ele>15</ele>
        <time>2017-10-15T14:39:29Z</time>
      </trkpt>
      <trkpt lat="59.822121705258" lon="17.698788707426">
        <ele>14.8</ele>
        <time>2017-10-15T14:39:30Z</time>
      </trkpt>
      <trkpt lat="59.822193873417" lon="17.698767668857">
        <ele>14.8</ele>
        <time>2017-10-15T14:39:31Z</time>
      </trkpt>
      <trkpt lat="59.822273417648" lon="17.698745456822">
        <ele>14.6</ele>
        <time>2017-10-15T14:39:32Z</time>
      </trkpt>
      <trkpt lat="59.822338712649" lon="17.698731291411">
        <ele>14.6</ele>
        <time>2017-10-15T14:39:33Z</time>
      </trkpt>
      <trkpt lat="59.82240903679" lon="17.698716874543">
        <ele>14.4</ele>
        <time>2017-10-15T14:39:34Z</time>
      </trkpt>
      <trkpt lat="59.82247944475" lon="17.698702792951">
        <ele>14.4</ele>
        <time>2017-10-15T14:39:35Z</time>
      </trkpt>
      <trkpt lat="59.822545829398" lon="17.698686867341">
        <ele>14.2</ele>
        <time>2017-10-15T14:39:36Z</time>
      </trkpt>
      <trkpt lat="59.822626630914" lon="17.698654345569">
        <ele>14</ele>
        <time>2017-10-15T14:39:37Z</time>
      </trkpt>
      <trkpt lat="59.8226931832" lon="17.698629618964">
        <ele>14</ele>
        <time>2017-10-15T14:39:38Z</time>
      </trkpt>
      <trkpt lat="59.822769290852" lon="17.69860145578">
        <ele>13.8</ele>
        <time>2017-10-15T14:39:39Z</time>
      </trkpt>
      <trkpt lat="59.822836765147" lon="17.698578070279">
        <ele>13.6</ele>
        <time>2017-10-15T14:39:40Z</time>
      </trkpt>
      <trkpt lat="59.822908178935" lon="17.698555522968">
        <ele>13.4</ele>
        <time>2017-10-15T14:39:41Z</time>
      </trkpt>
      <trkpt lat="59.822967690425" lon="17.698536160779">
        <ele>13.4</ele>
        <time>2017-10-15T14:39:42Z</time>
      </trkpt>
      <trkpt lat="59.823047402294" lon="17.698506153577">
        <ele>13.2</ele>
        <time>2017-10-15T14:39:43Z</time>
      </trkpt>
      <trkpt lat="59.823114625132" lon="17.698472625977">
        <ele>13</ele>
        <time>2017-10-15T14:39:44Z</time>
      </trkpt>
      <trkpt lat="59.823188218214" lon="17.6984321414">
        <ele>12.8</ele>
        <time>2017-10-15T14:39:45Z</time>
      </trkpt>
      <trkpt lat="59.823255021957" lon="17.698398027067">
        <ele>12.8</ele>
        <time>2017-10-15T14:39:46Z</time>
      </trkpt>
      <trkpt lat="59.823321406605" lon="17.698364164191">
        <ele>12.6</ele>
        <time>2017-10-15T14:39:47Z</time>
      </trkpt>
      <trkpt lat="59.823394664411" lon="17.698327786745">
        <ele>12.4</ele>
        <time>2017-10-15T14:39:48Z</time>
      </trkpt>
      <trkpt lat="59.823472616081" lon="17.698290068195">
        <ele>12.4</ele>
        <time>2017-10-15T14:39:49Z</time>
      </trkpt>
      <trkpt lat="59.823549394285" lon="17.698254277482">
        <ele>12.2</ele>
        <time>2017-10-15T14:39:50Z</time>
      </trkpt>
      <trkpt lat="59.823623490281" lon="17.698209518136">
        <ele>12.4</ele>
        <time>2017-10-15T14:39:51Z</time>
      </trkpt>
      <trkpt lat="59.823693395327" lon="17.698168865921">
        <ele>12.4</ele>
        <time>2017-10-15T14:39:52Z</time>
      </trkpt>
      <trkpt lat="59.823775370309" lon="17.698122933109">
        <ele>12.4</ele>
        <time>2017-10-15T14:39:53Z</time>
      </trkpt>
      <trkpt lat="59.823847538468" lon="17.698086052749">
        <ele>12.2</ele>
        <time>2017-10-15T14:39:54Z</time>
      </trkpt>
      <trkpt lat="59.823930603097" lon="17.698041796317">
        <ele>12</ele>
        <time>2017-10-15T14:39:55Z</time>
      </trkpt>
      <trkpt lat="59.824007381301" lon="17.697994857677">
        <ele>11.8</ele>
        <time>2017-10-15T14:39:56Z</time>
      </trkpt>
      <trkpt lat="59.824080471469" lon="17.697947332304">
        <ele>11.4</ele>
        <time>2017-10-15T14:39:57Z</time>
      </trkpt>
      <trkpt lat="59.824163536098" lon="17.69788815609">
        <ele>10.6</ele>
        <time>2017-10-15T14:39:58Z</time>
      </trkpt>
      <trkpt lat="59.824236961542" lon="17.697833003188">
        <ele>10</ele>
        <time>2017-10-15T14:39:59Z</time>
      </trkpt>
      <trkpt lat="59.824331174098" lon="17.697759996839">
        <ele>9.4</ele>
        <time>2017-10-15T14:40:00Z</time>
      </trkpt>
      <trkpt lat="59.824409209587" lon="17.697700652987">
        <ele>9.2</ele>
        <time>2017-10-15T14:40:01Z</time>
      </trkpt>
      <trkpt lat="59.824471403285" lon="17.697651115958">
        <ele>9</ele>
        <time>2017-10-15T14:40:02Z</time>
      </trkpt>
      <trkpt lat="59.824553797362" lon="17.697576768505">
        <ele>8.8</ele>
        <time>2017-10-15T14:40:03Z</time>
      </trkpt>
      <trkpt lat="59.824635688525" lon="17.697500325577">
        <ele>8.4</ele>
        <time>2017-10-15T14:40:04Z</time>
      </trkpt>
      <trkpt lat="59.824711041806" lon="17.697432516006">
        <ele>8.2</ele>
        <time>2017-10-15T14:40:05Z</time>
      </trkpt>
      <trkpt lat="59.824782455594" lon="17.697369651756">
        <ele>8</ele>
        <time>2017-10-15T14:40:06Z</time>
      </trkpt>
      <trkpt lat="59.824859569074" lon="17.697300249624">
        <ele>7.8</ele>
        <time>2017-10-15T14:40:07Z</time>
      </trkpt>
      <trkpt lat="59.824944226264" lon="17.697214335149">
        <ele>7.4</ele>
        <time>2017-10-15T14:40:08Z</time>
      </trkpt>
      <trkpt lat="59.825019831002" lon="17.697140825886">
        <ele>7.4</ele>
        <time>2017-10-15T14:40:09Z</time>
      </trkpt>
      <trkpt lat="59.825090574238" lon="17.69708097912">
        <ele>7.2</ele>
        <time>2017-10-15T14:40:10Z</time>
      </trkpt>
      <trkpt lat="59.825169699374" lon="17.697005793477">
        <ele>7</ele>
        <time>2017-10-15T14:40:11Z</time>
      </trkpt>
      <trkpt lat="59.825252344908" lon="17.696912670568">
        <ele>6.8</ele>
        <time>2017-10-15T14:40:12Z</time>
      </trkpt>
      <trkpt lat="59.825328787836" lon="17.696832371966">
        <ele>6.8</ele>
        <time>2017-10-15T14:40:13Z</time>
      </trkpt>
      <trkpt lat="59.825407912972" lon="17.696759365617">
        <ele>6.4</ele>
        <time>2017-10-15T14:40:14Z</time>
      </trkpt>
      <trkpt lat="59.825486367556" lon="17.696688622381">
        <ele>6.4</ele>
        <time>2017-10-15T14:40:15Z</time>
      </trkpt>
      <trkpt lat="59.825552416928" lon="17.696631876918">
        <ele>6</ele>
        <time>2017-10-15T14:40:16Z</time>
      </trkpt>
      <trkpt lat="59.825628776037" lon="17.696563732071">
        <ele>5.8</ele>
        <time>2017-10-15T14:40:17Z</time>
      </trkpt>
      <trkpt lat="59.825702788214" lon="17.696488462609">
        <ele>5.4</ele>
        <time>2017-10-15T14:40:18Z</time>
      </trkpt>
      <trkpt lat="59.82577939878" lon="17.69641461807">
        <ele>5.2</ele>
        <time>2017-10-15T14:40:19Z</time>
      </trkpt>
      <trkpt lat="59.825853410957" lon="17.696350664173">
        <ele>5</ele>
        <time>2017-10-15T14:40:20Z</time>
      </trkpt>
      <trkpt lat="59.825927255496" lon="17.696284279525">
        <ele>5</ele>
        <time>2017-10-15T14:40:21Z</time>
      </trkpt>
      <trkpt lat="59.825993472506" lon="17.696220912361">
        <ele>4.6</ele>
        <time>2017-10-15T14:40:22Z</time>
      </trkpt>
      <trkpt lat="59.826066981769" lon="17.696149330935">
        <ele>4.4</ele>
        <time>2017-10-15T14:40:23Z</time>
      </trkpt>
      <trkpt lat="59.826129259286" lon="17.696086550504">
        <ele>4.4</ele>
        <time>2017-10-15T14:40:24Z</time>
      </trkpt>
      <trkpt lat="59.826203020006" lon="17.69601899239">
        <ele>4.4</ele>
        <time>2017-10-15T14:40:25Z</time>
      </trkpt>
      <trkpt lat="59.826272170681" lon="17.695956295778">
        <ele>4.4</ele>
        <time>2017-10-15T14:40:26Z</time>
      </trkpt>
      <trkpt lat="59.826333777646" lon="17.695897371021">
        <ele>4.4</ele>
        <time>2017-10-15T14:40:27Z</time>
      </trkpt>
      <trkpt lat="59.826403766511" lon="17.695825035224">
        <ele>4.4</ele>
        <time>2017-10-15T14:40:28Z</time>
      </trkpt>
      <trkpt lat="59.826466966037" lon="17.695765272277">
        <ele>4.4</ele>
        <time>2017-10-15T14:40:29Z</time>
      </trkpt>
      <trkpt lat="59.826514910505" lon="17.695715735248">
        <ele>4.4</ele>
        <time>2017-10-15T14:40:30Z</time>
      </trkpt>
      <trkpt lat="59.826595376745" lon="17.695632670619">
        <ele>4.4</ele>
        <time>2017-10-15T14:40:31Z</time>
      </trkpt>
      <trkpt lat="59.826657486624" lon="17.695572991491">
        <ele>4.4</ele>
        <time>2017-10-15T14:40:32Z</time>
      </trkpt>
      <trkpt lat="59.82672571529" lon="17.695509708146">
        <ele>4.4</ele>
        <time>2017-10-15T14:40:33Z</time>
      </trkpt>
      <trkpt lat="59.826796290888" lon="17.695449190828">
        <ele>4.4</ele>
        <time>2017-10-15T14:40:34Z</time>
      </trkpt>
      <trkpt lat="59.826859406595" lon="17.69540459912">
        <ele>4.4</ele>
        <time>2017-10-15T14:40:35Z</time>
      </trkpt>
      <trkpt lat="59.82692352813" lon="17.695357492842">
        <ele>4.4</ele>
        <time>2017-10-15T14:40:36Z</time>
      </trkpt>
      <trkpt lat="59.826988404036" lon="17.69529814899">
        <ele>4.4</ele>
        <time>2017-10-15T14:40:37Z</time>
      </trkpt>
      <trkpt lat="59.827056129788" lon="17.695229836505">
        <ele>4.2</ele>
        <time>2017-10-15T14:40:38Z</time>
      </trkpt>
      <trkpt lat="59.827121424789" lon="17.695173174861">
        <ele>4.2</ele>
        <time>2017-10-15T14:40:39Z</time>
      </trkpt>
      <trkpt lat="59.827187055066" lon="17.695112322267">
        <ele>4.2</ele>
        <time>2017-10-15T14:40:40Z</time>
      </trkpt>
      <trkpt lat="59.827250338411" lon="17.695043003954">
        <ele>4.2</ele>
        <time>2017-10-15T14:40:41Z</time>
      </trkpt>
      <trkpt lat="59.827301887096" lon="17.694987767233">
        <ele>4</ele>
        <time>2017-10-15T14:40:42Z</time>
      </trkpt>
      <trkpt lat="59.827371708323" lon="17.694919957662">
        <ele>4</ele>
        <time>2017-10-15T14:40:43Z</time>
      </trkpt>
      <trkpt lat="59.827426693587" lon="17.694875952687">
        <ele>4</ele>
        <time>2017-10-15T14:40:44Z</time>
      </trkpt>
      <trkpt lat="59.827492994416" lon="17.694816525016">
        <ele>4</ele>
        <time>2017-10-15T14:40:45Z</time>
      </trkpt>
      <trkpt lat="59.82754714149" lon="17.694763048494">
        <ele>4</ele>
        <time>2017-10-15T14:40:46Z</time>
      </trkpt>
      <trkpt lat="59.827597684347" lon="17.694714517293">
        <ele>4</ele>
        <time>2017-10-15T14:40:47Z</time>
      </trkpt>
      <trkpt lat="59.82764185696" lon="17.694664393531">
        <ele>4</ele>
        <time>2017-10-15T14:40:48Z</time>
      </trkpt>
      <trkpt lat="59.827680665157" lon="17.694619466547">
        <ele>3.8</ele>
        <time>2017-10-15T14:40:49Z</time>
      </trkpt>
      <trkpt lat="59.827716372051" lon="17.694579484884">
        <ele>3.8</ele>
        <time>2017-10-15T14:40:50Z</time>
      </trkpt>
      <trkpt lat="59.827743948502" lon="17.694541933972">
        <ele>3.8</ele>
        <time>2017-10-15T14:40:51Z</time>
      </trkpt>
      <trkpt lat="59.827760377026" lon="17.694514944254">
        <ele>4</ele>
        <time>2017-10-15T14:40:52Z</time>
      </trkpt>
      <trkpt lat="59.827768507469" lon="17.694498767187">
        <ele>4</ele>
        <time>2017-10-15T14:40:53Z</time>
      </trkpt>
      <trkpt lat="59.827767250184" lon="17.694498348092">
        <ele>4.2</ele>
        <time>2017-10-15T14:40:54Z</time>
      </trkpt>
      <trkpt lat="59.827762807777" lon="17.694506227078">
        <ele>4.4</ele>
        <time>2017-10-15T14:40:55Z</time>
      </trkpt>
      <trkpt lat="59.827764735614" lon="17.694503963965">
        <ele>4.6</ele>
        <time>2017-10-15T14:40:56Z</time>
      </trkpt>
      <trkpt lat="59.827944275912" lon="17.694272036792">
        <ele>4.8</ele>
        <time>2017-10-15T14:41:12Z</time>
      </trkpt>
      <trkpt lat="59.827990376362" lon="17.694251668775">
        <ele>5</ele>
        <time>2017-10-15T14:41:13Z</time>
      </trkpt>
      <trkpt lat="59.828043517608" lon="17.694223002677">
        <ele>5</ele>
        <time>2017-10-15T14:41:14Z</time>
      </trkpt>
      <trkpt lat="59.828097329406" lon="17.694177991874">
        <ele>4.8</ele>
        <time>2017-10-15T14:41:15Z</time>
      </trkpt>
      <trkpt lat="59.828144687141" lon="17.69412887394">
        <ele>4.8</ele>
        <time>2017-10-15T14:41:16Z</time>
      </trkpt>
      <trkpt lat="59.828198247482" lon="17.694067602251">
        <ele>4.6</ele>
        <time>2017-10-15T14:41:17Z</time>
      </trkpt>
      <trkpt lat="59.828248957977" lon="17.694005743829">
        <ele>4.6</ele>
        <time>2017-10-15T14:41:18Z</time>
      </trkpt>
      <trkpt lat="59.828300758119" lon="17.693946316158">
        <ele>4.4</ele>
        <time>2017-10-15T14:41:19Z</time>
      </trkpt>
      <trkpt lat="59.828355491926" lon="17.693904322839">
        <ele>4.4</ele>
        <time>2017-10-15T14:41:20Z</time>
      </trkpt>
      <trkpt lat="59.828417015072" lon="17.69387071142">
        <ele>4.4</ele>
        <time>2017-10-15T14:41:21Z</time>
      </trkpt>
      <trkpt lat="59.828474263449" lon="17.693836010354">
        <ele>4.4</ele>
        <time>2017-10-15T14:41:22Z</time>
      </trkpt>
      <trkpt lat="59.828536289509" lon="17.693786138049">
        <ele>4.2</ele>
        <time>2017-10-15T14:41:23Z</time>
      </trkpt>
      <trkpt lat="59.828589263117" lon="17.693727716206">
        <ele>4.2</ele>
        <time>2017-10-15T14:41:24Z</time>
      </trkpt>
      <trkpt lat="59.828653300833" lon="17.693674407322">
        <ele>4</ele>
        <time>2017-10-15T14:41:25Z</time>
      </trkpt>
      <trkpt lat="59.828712979961" lon="17.693629145062">
        <ele>4.2</ele>
        <time>2017-10-15T14:41:26Z</time>
      </trkpt>
      <trkpt lat="59.828770815071" lon="17.693584804811">
        <ele>4.2</ele>
        <time>2017-10-15T14:41:27Z</time>
      </trkpt>
      <trkpt lat="59.828835523339" lon="17.693517749611">
        <ele>4</ele>
        <time>2017-10-15T14:41:28Z</time>
      </trkpt>
      <trkpt lat="59.828892017345" lon="17.693469386048">
        <ele>4.2</ele>
        <time>2017-10-15T14:41:29Z</time>
      </trkpt>
      <trkpt lat="59.828955468328" lon="17.693410796567">
        <ele>4.2</ele>
        <time>2017-10-15T14:41:30Z</time>
      </trkpt>
      <trkpt lat="59.829021852976" lon="17.693343238453">
        <ele>4</ele>
        <time>2017-10-15T14:41:31Z</time>
      </trkpt>
      <trkpt lat="59.829082789389" lon="17.693286576809">
        <ele>4</ele>
        <time>2017-10-15T14:41:32Z</time>
      </trkpt>
      <trkpt lat="59.829153281168" lon="17.693225891853">
        <ele>3.8</ele>
        <time>2017-10-15T14:41:33Z</time>
      </trkpt>
      <trkpt lat="59.829219581997" lon="17.693167050915">
        <ele>3.8</ele>
        <time>2017-10-15T14:41:34Z</time>
      </trkpt>
      <trkpt lat="59.829283368256" lon="17.693099157525">
        <ele>3.8</ele>
        <time>2017-10-15T14:41:35Z</time>
      </trkpt>
      <trkpt lat="59.829343885574" lon="17.693036544732">
        <ele>3.6</ele>
        <time>2017-10-15T14:41:36Z</time>
      </trkpt>
      <trkpt lat="59.829407336557" lon="17.692975608319">
        <ele>3.6</ele>
        <time>2017-10-15T14:41:37Z</time>
      </trkpt>
      <trkpt lat="59.829474727033" lon="17.692911738241">
        <ele>3.4</ele>
        <time>2017-10-15T14:41:38Z</time>
      </trkpt>
      <trkpt lat="59.829538094197" lon="17.692849544543">
        <ele>3.4</ele>
        <time>2017-10-15T14:41:39Z</time>
      </trkpt>
      <trkpt lat="59.82960154518" lon="17.692791038881">
        <ele>3.2</ele>
        <time>2017-10-15T14:41:40Z</time>
      </trkpt>
      <trkpt lat="59.829665415258" lon="17.692734712513">
        <ele>3.4</ele>
        <time>2017-10-15T14:41:41Z</time>
      </trkpt>
      <trkpt lat="59.829721238712" lon="17.692691042814">
        <ele>3.4</ele>
        <time>2017-10-15T14:41:42Z</time>
      </trkpt>
      <trkpt lat="59.829790473206" lon="17.692628932935">
        <ele>3.4</ele>
        <time>2017-10-15T14:41:43Z</time>
      </trkpt>
      <trkpt lat="59.82984629666" lon="17.692574282947">
        <ele>3.4</ele>
        <time>2017-10-15T14:41:44Z</time>
      </trkpt>
      <trkpt lat="59.829912681308" lon="17.692515274371">
        <ele>3.2</ele>
        <time>2017-10-15T14:41:45Z</time>
      </trkpt>
      <trkpt lat="59.829973366264" lon="17.692457774537">
        <ele>3.2</ele>
        <time>2017-10-15T14:41:46Z</time>
      </trkpt>
      <trkpt lat="59.830030363184" lon="17.692398430685">
        <ele>3.2</ele>
        <time>2017-10-15T14:41:47Z</time>
      </trkpt>
      <trkpt lat="59.830090629045" lon="17.692339589747">
        <ele>3.2</ele>
        <time>2017-10-15T14:41:48Z</time>
      </trkpt>
      <trkpt lat="59.830155756408" lon="17.692282425189">
        <ele>3.2</ele>
        <time>2017-10-15T14:41:49Z</time>
      </trkpt>
      <trkpt lat="59.830217195735" lon="17.692228948667">
        <ele>3</ele>
        <time>2017-10-15T14:41:50Z</time>
      </trkpt>
      <trkpt lat="59.830279137976" lon="17.692173460489">
        <ele>3</ele>
        <time>2017-10-15T14:41:51Z</time>
      </trkpt>
      <trkpt lat="59.83033831419" lon="17.692119900148">
        <ele>3.2</ele>
        <time>2017-10-15T14:41:52Z</time>
      </trkpt>
      <trkpt lat="59.830403609191" lon="17.692058796097">
        <ele>3.2</ele>
        <time>2017-10-15T14:41:53Z</time>
      </trkpt>
      <trkpt lat="59.830461947215" lon="17.692001463901">
        <ele>3</ele>
        <time>2017-10-15T14:41:54Z</time>
      </trkpt>
      <trkpt lat="59.830528331863" lon="17.691935498348">
        <ele>3</ele>
        <time>2017-10-15T14:41:55Z</time>
      </trkpt>
      <trkpt lat="59.830590693199" lon="17.691872298822">
        <ele>2.8</ele>
        <time>2017-10-15T14:41:56Z</time>
      </trkpt>
      <trkpt lat="59.830646851929" lon="17.691802980509">
        <ele>2.8</ele>
        <time>2017-10-15T14:41:57Z</time>
      </trkpt>
      <trkpt lat="59.830710219093" lon="17.69171740131">
        <ele>2.6</ele>
        <time>2017-10-15T14:41:58Z</time>
      </trkpt>
      <trkpt lat="59.830765707271" lon="17.691647244807">
        <ele>2.4</ele>
        <time>2017-10-15T14:41:59Z</time>
      </trkpt>
      <trkpt lat="59.830826643684" lon="17.691579016141">
        <ele>2</ele>
        <time>2017-10-15T14:42:00Z</time>
      </trkpt>
      <trkpt lat="59.830895123807" lon="17.691516487167">
        <ele>1.8</ele>
        <time>2017-10-15T14:42:01Z</time>
      </trkpt>
      <trkpt lat="59.830955808763" lon="17.691465189939">
        <ele>1.6</ele>
        <time>2017-10-15T14:42:02Z</time>
      </trkpt>
      <trkpt lat="59.83102395361" lon="17.691407522467">
        <ele>1.6</ele>
        <time>2017-10-15T14:42:03Z</time>
      </trkpt>
      <trkpt lat="59.831085309118" lon="17.691353291574">
        <ele>1.4</ele>
        <time>2017-10-15T14:42:04Z</time>
      </trkpt>
      <trkpt lat="59.831143144228" lon="17.69128573346">
        <ele>1.6</ele>
        <time>2017-10-15T14:42:05Z</time>
      </trkpt>
      <trkpt lat="59.831184466995" lon="17.691192945827">
        <ele>1.6</ele>
        <time>2017-10-15T14:42:06Z</time>
      </trkpt>
      <trkpt lat="59.831218581328" lon="17.691084651679">
        <ele>1.6</ele>
        <time>2017-10-15T14:42:07Z</time>
      </trkpt>
      <trkpt lat="59.831252611842" lon="17.690969400554">
        <ele>1.8</ele>
        <time>2017-10-15T14:42:08Z</time>
      </trkpt>
      <trkpt lat="59.831284463062" lon="17.690863201881">
        <ele>1.8</ele>
        <time>2017-10-15T14:42:09Z</time>
      </trkpt>
      <trkpt lat="59.831317403929" lon="17.690761780891">
        <ele>1.8</ele>
        <time>2017-10-15T14:42:10Z</time>
      </trkpt>
      <trkpt lat="59.831354368108" lon="17.690669747629">
        <ele>1.8</ele>
        <time>2017-10-15T14:42:11Z</time>
      </trkpt>
      <trkpt lat="59.831396696703" lon="17.690610739053">
        <ele>1.6</ele>
        <time>2017-10-15T14:42:12Z</time>
      </trkpt>
      <trkpt lat="59.831462746075" lon="17.690567488449">
        <ele>1.6</ele>
        <time>2017-10-15T14:42:13Z</time>
      </trkpt>
      <trkpt lat="59.8315193239" lon="17.69055566997">
        <ele>1.6</ele>
        <time>2017-10-15T14:42:14Z</time>
      </trkpt>
      <trkpt lat="59.831583529254" lon="17.690517197049">
        <ele>1.6</ele>
        <time>2017-10-15T14:42:15Z</time>
      </trkpt>
      <trkpt lat="59.831642118735" lon="17.690476544834">
        <ele>1.6</ele>
        <time>2017-10-15T14:42:16Z</time>
      </trkpt>
      <trkpt lat="59.831696768723" lon="17.690440335026">
        <ele>1.4</ele>
        <time>2017-10-15T14:42:17Z</time>
      </trkpt>
      <trkpt lat="59.831757118403" lon="17.69040731034">
        <ele>1.4</ele>
        <time>2017-10-15T14:42:18Z</time>
      </trkpt>
      <trkpt lat="59.831822581042" lon="17.69036707722">
        <ele>1.4</ele>
        <time>2017-10-15T14:42:19Z</time>
      </trkpt>
      <trkpt lat="59.831889468604" lon="17.690331454145">
        <ele>1.6</ele>
        <time>2017-10-15T14:42:20Z</time>
      </trkpt>
      <trkpt lat="59.831958367822" lon="17.690290634292">
        <ele>1.6</ele>
        <time>2017-10-15T14:42:21Z</time>
      </trkpt>
      <trkpt lat="59.83202391428" lon="17.690252077552">
        <ele>1.6</ele>
        <time>2017-10-15T14:42:22Z</time>
      </trkpt>
      <trkpt lat="59.832095914801" lon="17.690214023726">
        <ele>1.4</ele>
        <time>2017-10-15T14:42:23Z</time>
      </trkpt>
      <trkpt lat="59.832158108499" lon="17.690197259926">
        <ele>1.2</ele>
        <time>2017-10-15T14:42:24Z</time>
      </trkpt>
      <trkpt lat="59.832229019373" lon="17.690201283238">
        <ele>1</ele>
        <time>2017-10-15T14:42:25Z</time>
      </trkpt>
      <trkpt lat="59.832292051261" lon="17.690212934079">
        <ele>0.8</ele>
        <time>2017-10-15T14:42:26Z</time>
      </trkpt>
      <trkpt lat="59.832350305466" lon="17.690200445048">
        <ele>0.8</ele>
        <time>2017-10-15T14:42:27Z</time>
      </trkpt>
      <trkpt lat="59.832419707598" lon="17.690186279637">
        <ele>0.6</ele>
        <time>2017-10-15T14:42:28Z</time>
      </trkpt>
      <trkpt lat="59.832480895468" lon="17.690209162224">
        <ele>0.8</ele>
        <time>2017-10-15T14:42:29Z</time>
      </trkpt>
      <trkpt lat="59.832543089166" lon="17.690208491672">
        <ele>0.8</ele>
        <time>2017-10-15T14:42:30Z</time>
      </trkpt>
      <trkpt lat="59.832606372511" lon="17.690171611312">
        <ele>1</ele>
        <time>2017-10-15T14:42:31Z</time>
      </trkpt>
      <trkpt lat="59.832658172653" lon="17.690112686555">
        <ele>1</ele>
        <time>2017-10-15T14:42:32Z</time>
      </trkpt>
      <trkpt lat="59.832716845953" lon="17.690061389327">
        <ele>1.2</ele>
        <time>2017-10-15T14:42:33Z</time>
      </trkpt>
      <trkpt lat="59.83275900691" lon="17.690033561419">
        <ele>1</ele>
        <time>2017-10-15T14:42:34Z</time>
      </trkpt>
      <trkpt lat="59.832794965261" lon="17.690028364641">
        <ele>0.8</ele>
        <time>2017-10-15T14:42:35Z</time>
      </trkpt>
      <trkpt lat="59.832822793169" lon="17.69006868158">
        <ele>0.4</ele>
        <time>2017-10-15T14:42:36Z</time>
      </trkpt>
      <trkpt lat="59.832839808426" lon="17.690145543603">
        <ele>0.2</ele>
        <time>2017-10-15T14:42:37Z</time>
      </trkpt>
      <trkpt lat="59.832847435955" lon="17.690239420883">
        <ele>0</ele>
        <time>2017-10-15T14:42:38Z</time>
      </trkpt>
      <trkpt lat="59.832849196154" lon="17.690315444716">
        <ele>0</ele>
        <time>2017-10-15T14:42:39Z</time>
      </trkpt>
      <trkpt lat="59.832841233349" lon="17.690379147156">
        <ele>0</ele>
        <time>2017-10-15T14:42:40Z</time>
      </trkpt>
      <trkpt lat="59.832833186725" lon="17.690437736637">
        <ele>0</ele>
        <time>2017-10-15T14:42:41Z</time>
      </trkpt>
      <trkpt lat="59.832844669928" lon="17.6904525726">
        <ele>0</ele>
        <time>2017-10-15T14:42:42Z</time>
      </trkpt>
      <trkpt lat="59.832873755121" lon="17.690540414912">
        <ele>0</ele>
        <time>2017-10-15T14:42:43Z</time>
      </trkpt>
      <trkpt lat="59.832911138395" lon="17.69056824282">
        <ele>0</ele>
        <time>2017-10-15T14:42:44Z</time>
      </trkpt>
      <trkpt lat="59.832953550809" lon="17.690573691055">
        <ele>0</ele>
        <time>2017-10-15T14:42:45Z</time>
      </trkpt>
      <trkpt lat="59.832994957395" lon="17.690559106549">
        <ele>0</ele>
        <time>2017-10-15T14:42:46Z</time>
      </trkpt>
      <trkpt lat="59.8330364478" lon="17.690550808468">
        <ele>0</ele>
        <time>2017-10-15T14:42:47Z</time>
      </trkpt>
      <trkpt lat="59.833083051164" lon="17.690550473192">
        <ele>0</ele>
        <time>2017-10-15T14:42:48Z</time>
      </trkpt>
      <trkpt lat="59.833130157442" lon="17.690553742133">
        <ele>0</ele>
        <time>2017-10-15T14:42:49Z</time>
      </trkpt>
      <trkpt lat="59.833173240408" lon="17.690552820124">
        <ele>0</ele>
        <time>2017-10-15T14:42:50Z</time>
      </trkpt>
      <trkpt lat="59.833214646994" lon="17.690548796812">
        <ele>0</ele>
        <time>2017-10-15T14:42:51Z</time>
      </trkpt>
      <trkpt lat="59.833253958105" lon="17.690547539527">
        <ele>0</ele>
        <time>2017-10-15T14:42:52Z</time>
      </trkpt>
      <trkpt lat="59.833297543985" lon="17.69054812626">
        <ele>0</ele>
        <time>2017-10-15T14:42:53Z</time>
      </trkpt>
      <trkpt lat="59.833337274191" lon="17.690554161228">
        <ele>0</ele>
        <time>2017-10-15T14:42:54Z</time>
      </trkpt>
      <trkpt lat="59.833383374641" lon="17.690562543128">
        <ele>0.4</ele>
        <time>2017-10-15T14:42:55Z</time>
      </trkpt>
      <trkpt lat="59.833431570566" lon="17.690579893661">
        <ele>0.6</ele>
        <time>2017-10-15T14:42:56Z</time>
      </trkpt>
      <trkpt lat="59.833478257749" lon="17.690604033533">
        <ele>1</ele>
        <time>2017-10-15T14:42:57Z</time>
      </trkpt>
      <trkpt lat="59.833531901909" lon="17.690626580844">
        <ele>1.4</ele>
        <time>2017-10-15T14:42:58Z</time>
      </trkpt>
      <trkpt lat="59.833583869689" lon="17.690643093187">
        <ele>1.6</ele>
        <time>2017-10-15T14:42:59Z</time>
      </trkpt>
      <trkpt lat="59.833637010935" lon="17.690659521711">
        <ele>1.6</ele>
        <time>2017-10-15T14:43:00Z</time>
      </trkpt>
      <trkpt lat="59.833698701719" lon="17.690678213348">
        <ele>1.6</ele>
        <time>2017-10-15T14:43:01Z</time>
      </trkpt>
      <trkpt lat="59.833755279544" lon="17.690693468406">
        <ele>1.4</ele>
        <time>2017-10-15T14:43:02Z</time>
      </trkpt>
      <trkpt lat="59.833819652536" lon="17.690720374305">
        <ele>1.4</ele>
        <time>2017-10-15T14:43:03Z</time>
      </trkpt>
      <trkpt lat="59.833878493474" lon="17.690760272149">
        <ele>1.4</ele>
        <time>2017-10-15T14:43:04Z</time>
      </trkpt>
      <trkpt lat="59.833941776819" lon="17.69080293602">
        <ele>1.2</ele>
        <time>2017-10-15T14:43:05Z</time>
      </trkpt>
      <trkpt lat="59.833999025196" lon="17.690845935167">
        <ele>1.2</ele>
        <time>2017-10-15T14:43:06Z</time>
      </trkpt>
      <trkpt lat="59.834066834767" lon="17.690886587382">
        <ele>1</ele>
        <time>2017-10-15T14:43:07Z</time>
      </trkpt>
      <trkpt lat="59.834138332374" lon="17.690933274565">
        <ele>1</ele>
        <time>2017-10-15T14:43:08Z</time>
      </trkpt>
      <trkpt lat="59.834203292099" lon="17.690981135214">
        <ele>0.8</ele>
        <time>2017-10-15T14:43:09Z</time>
      </trkpt>
      <trkpt lat="59.83426942529" lon="17.691024637275">
        <ele>0.4</ele>
        <time>2017-10-15T14:43:10Z</time>
      </trkpt>
      <trkpt lat="59.834336312852" lon="17.691066043861">
        <ele>0</ele>
        <time>2017-10-15T14:43:11Z</time>
      </trkpt>
      <trkpt lat="59.834394567057" lon="17.69110049347">
        <ele>0</ele>
        <time>2017-10-15T14:43:12Z</time>
      </trkpt>
      <trkpt lat="59.834472099632" lon="17.691128237559">
        <ele>0</ele>
        <time>2017-10-15T14:43:13Z</time>
      </trkpt>
      <trkpt lat="59.834538316642" lon="17.691134943079">
        <ele>0</ele>
        <time>2017-10-15T14:43:14Z</time>
      </trkpt>
      <trkpt lat="59.834615262484" lon="17.69114491754">
        <ele>0</ele>
        <time>2017-10-15T14:43:15Z</time>
      </trkpt>
      <trkpt lat="59.834690029032" lon="17.691149443766">
        <ele>0</ele>
        <time>2017-10-15T14:43:16Z</time>
      </trkpt>
      <trkpt lat="59.834759431164" lon="17.691158747675">
        <ele>0</ele>
        <time>2017-10-15T14:43:17Z</time>
      </trkpt>
      <trkpt lat="59.834834784445" lon="17.691182384633">
        <ele>0</ele>
        <time>2017-10-15T14:43:18Z</time>
      </trkpt>
      <trkpt lat="59.834928577906" lon="17.691241979942">
        <ele>0</ele>
        <time>2017-10-15T14:43:19Z</time>
      </trkpt>
      <trkpt lat="59.835012396906" lon="17.691306185296">
        <ele>0</ele>
        <time>2017-10-15T14:43:20Z</time>
      </trkpt>
      <trkpt lat="59.835085906169" lon="17.691366115881">
        <ele>0</ele>
        <time>2017-10-15T14:43:21Z</time>
      </trkpt>
      <trkpt lat="59.835143489822" lon="17.691393357056">
        <ele>0</ele>
        <time>2017-10-15T14:43:22Z</time>
      </trkpt>
      <trkpt lat="59.835218172551" lon="17.691453203822">
        <ele>0</ele>
        <time>2017-10-15T14:43:23Z</time>
      </trkpt>
      <trkpt lat="59.835280701525" lon="17.691514475511">
        <ele>0</ele>
        <time>2017-10-15T14:43:24Z</time>
      </trkpt>
      <trkpt lat="59.835353288779" lon="17.69157658539">
        <ele>0</ele>
        <time>2017-10-15T14:43:25Z</time>
      </trkpt>
      <trkpt lat="59.835415566296" lon="17.691634085224">
        <ele>0</ele>
        <time>2017-10-15T14:43:26Z</time>
      </trkpt>
      <trkpt lat="59.835466528248" lon="17.691682364968">
        <ele>0</ele>
        <time>2017-10-15T14:43:27Z</time>
      </trkpt>
      <trkpt lat="59.835530230688" lon="17.691731147626">
        <ele>0</ele>
        <time>2017-10-15T14:43:28Z</time>
      </trkpt>
      <trkpt lat="59.835584629219" lon="17.69176517814">
        <ele>0</ele>
        <time>2017-10-15T14:43:29Z</time>
      </trkpt>
      <trkpt lat="59.835642631967" lon="17.691796107351">
        <ele>0</ele>
        <time>2017-10-15T14:43:30Z</time>
      </trkpt>
      <trkpt lat="59.835689822064" lon="17.691816223911">
        <ele>0</ele>
        <time>2017-10-15T14:43:31Z</time>
      </trkpt>
      <trkpt lat="59.835754865608" lon="17.691836759566">
        <ele>0</ele>
        <time>2017-10-15T14:43:32Z</time>
      </trkpt>
      <trkpt lat="59.835814125641" lon="17.691837597756">
        <ele>0</ele>
        <time>2017-10-15T14:43:33Z</time>
      </trkpt>
      <trkpt lat="59.835866093421" lon="17.691840112326">
        <ele>0</ele>
        <time>2017-10-15T14:43:34Z</time>
      </trkpt>
      <trkpt lat="59.835922755065" lon="17.691831311331">
        <ele>0</ele>
        <time>2017-10-15T14:43:35Z</time>
      </trkpt>
      <trkpt lat="59.835969777524" lon="17.691825695458">
        <ele>0</ele>
        <time>2017-10-15T14:43:36Z</time>
      </trkpt>
      <trkpt lat="59.8360204042" lon="17.691811781504">
        <ele>0</ele>
        <time>2017-10-15T14:43:37Z</time>
      </trkpt>
      <trkpt lat="59.836073796903" lon="17.6917936766">
        <ele>0</ele>
        <time>2017-10-15T14:43:38Z</time>
      </trkpt>
      <trkpt lat="59.836123333932" lon="17.691782444854">
        <ele>0</ele>
        <time>2017-10-15T14:43:39Z</time>
      </trkpt>
      <trkpt lat="59.836173206237" lon="17.691773140945">
        <ele>0.2</ele>
        <time>2017-10-15T14:43:40Z</time>
      </trkpt>
      <trkpt lat="59.836223749094" lon="17.69176098719">
        <ele>0.4</ele>
        <time>2017-10-15T14:43:41Z</time>
      </trkpt>
      <trkpt lat="59.836269430449" lon="17.691752689109">
        <ele>0.6</ele>
        <time>2017-10-15T14:43:42Z</time>
      </trkpt>
      <trkpt lat="59.83632634355" lon="17.691740283897">
        <ele>0.8</ele>
        <time>2017-10-15T14:43:43Z</time>
      </trkpt>
      <trkpt lat="59.836374790932" lon="17.691751096548">
        <ele>1</ele>
        <time>2017-10-15T14:43:44Z</time>
      </trkpt>
      <trkpt lat="59.836431452576" lon="17.691759729905">
        <ele>1</ele>
        <time>2017-10-15T14:43:45Z</time>
      </trkpt>
      <trkpt lat="59.836485683469" lon="17.691750342177">
        <ele>1.2</ele>
        <time>2017-10-15T14:43:46Z</time>
      </trkpt>
      <trkpt lat="59.836537986525" lon="17.691744558666">
        <ele>1.2</ele>
        <time>2017-10-15T14:43:47Z</time>
      </trkpt>
      <trkpt lat="59.836592468875" lon="17.691747911426">
        <ele>1.2</ele>
        <time>2017-10-15T14:43:48Z</time>
      </trkpt>
      <trkpt lat="59.836652734736" lon="17.691756963878">
        <ele>1.4</ele>
        <time>2017-10-15T14:43:49Z</time>
      </trkpt>
      <trkpt lat="59.836708893466" lon="17.691760568095">
        <ele>1.4</ele>
        <time>2017-10-15T14:43:50Z</time>
      </trkpt>
      <trkpt lat="59.836764381644" lon="17.69174422339">
        <ele>1.6</ele>
        <time>2017-10-15T14:43:51Z</time>
      </trkpt>
      <trkpt lat="59.836817439071" lon="17.691716730758">
        <ele>1.6</ele>
        <time>2017-10-15T14:43:52Z</time>
      </trkpt>
      <trkpt lat="59.836877621113" lon="17.691690663049">
        <ele>1.8</ele>
        <time>2017-10-15T14:43:53Z</time>
      </trkpt>
      <trkpt lat="59.836931935825" lon="17.691670797946">
        <ele>1.8</ele>
        <time>2017-10-15T14:43:54Z</time>
      </trkpt>
      <trkpt lat="59.836992034048" lon="17.691642131848">
        <ele>2</ele>
        <time>2017-10-15T14:43:55Z</time>
      </trkpt>
      <trkpt lat="59.837049198606" lon="17.691608352791">
        <ele>2</ele>
        <time>2017-10-15T14:43:56Z</time>
      </trkpt>
      <trkpt lat="59.837101501662" lon="17.691576669209">
        <ele>2</ele>
        <time>2017-10-15T14:43:57Z</time>
      </trkpt>
      <trkpt lat="59.837160845514" lon="17.691539621211">
        <ele>2</ele>
        <time>2017-10-15T14:43:58Z</time>
      </trkpt>
      <trkpt lat="59.837210717819" lon="17.6915003101">
        <ele>2</ele>
        <time>2017-10-15T14:43:59Z</time>
      </trkpt>
      <trkpt lat="59.837266038359" lon="17.691460496075">
        <ele>2</ele>
        <time>2017-10-15T14:44:00Z</time>
      </trkpt>
      <trkpt lat="59.837324544021" lon="17.691419257127">
        <ele>2</ele>
        <time>2017-10-15T14:44:01Z</time>
      </trkpt>
      <trkpt lat="59.837376679439" lon="17.691382376767">
        <ele>2</ele>
        <time>2017-10-15T14:44:02Z</time>
      </trkpt>
      <trkpt lat="59.837435017463" lon="17.691338371792">
        <ele>2</ele>
        <time>2017-10-15T14:44:03Z</time>
      </trkpt>
      <trkpt lat="59.837488577804" lon="17.691291265514">
        <ele>2</ele>
        <time>2017-10-15T14:44:04Z</time>
      </trkpt>
      <trkpt lat="59.837541216136" lon="17.691236699345">
        <ele>2</ele>
        <time>2017-10-15T14:44:05Z</time>
      </trkpt>
      <trkpt lat="59.837591004622" lon="17.691191353266">
        <ele>1.8</ele>
        <time>2017-10-15T14:44:06Z</time>
      </trkpt>
      <trkpt lat="59.837643642954" lon="17.691142319151">
        <ele>1.8</ele>
        <time>2017-10-15T14:44:07Z</time>
      </trkpt>
      <trkpt lat="59.837698712037" lon="17.69108372967">
        <ele>1.8</ele>
        <time>2017-10-15T14:44:08Z</time>
      </trkpt>
      <trkpt lat="59.837749841627" lon="17.691026481293">
        <ele>1.8</ele>
        <time>2017-10-15T14:44:09Z</time>
      </trkpt>
      <trkpt lat="59.83780155795" lon="17.690969987287">
        <ele>1.6</ele>
        <time>2017-10-15T14:44:10Z</time>
      </trkpt>
      <trkpt lat="59.837851597893" lon="17.690907793589">
        <ele>1.8</ele>
        <time>2017-10-15T14:44:11Z</time>
      </trkpt>
      <trkpt lat="59.8378979498" lon="17.690858088922">
        <ele>1.8</ele>
        <time>2017-10-15T14:44:12Z</time>
      </trkpt>
      <trkpt lat="59.837957712747" lon="17.690798828889">
        <ele>1.8</ele>
        <time>2017-10-15T14:44:13Z</time>
      </trkpt>
      <trkpt lat="59.838008339423" lon="17.690741245236">
        <ele>1.8</ele>
        <time>2017-10-15T14:44:14Z</time>
      </trkpt>
      <trkpt lat="59.838065001067" lon="17.690673687122">
        <ele>1.8</ele>
        <time>2017-10-15T14:44:15Z</time>
      </trkpt>
      <trkpt lat="59.83811839377" lon="17.690609984682">
        <ele>1.8</ele>
        <time>2017-10-15T14:44:16Z</time>
      </trkpt>
      <trkpt lat="59.838166254419" lon="17.690555083237">
        <ele>1.8</ele>
        <time>2017-10-15T14:44:17Z</time>
      </trkpt>
      <trkpt lat="59.838219479484" lon="17.690495990842">
        <ele>1.8</ele>
        <time>2017-10-15T14:44:18Z</time>
      </trkpt>
      <trkpt lat="59.838276224947" lon="17.6904358088">
        <ele>1.8</ele>
        <time>2017-10-15T14:44:19Z</time>
      </trkpt>
      <trkpt lat="59.838329114736" lon="17.690380823536">
        <ele>1.6</ele>
        <time>2017-10-15T14:44:20Z</time>
      </trkpt>
      <trkpt lat="59.838383513267" lon="17.69032432953">
        <ele>1.6</ele>
        <time>2017-10-15T14:44:21Z</time>
      </trkpt>
      <trkpt lat="59.838434307581" lon="17.690275295415">
        <ele>1.6</ele>
        <time>2017-10-15T14:44:22Z</time>
      </trkpt>
      <trkpt lat="59.838493986709" lon="17.690219723418">
        <ele>1.6</ele>
        <time>2017-10-15T14:44:23Z</time>
      </trkpt>
      <trkpt lat="59.838545954489" lon="17.690172449502">
        <ele>1.8</ele>
        <time>2017-10-15T14:44:24Z</time>
      </trkpt>
      <trkpt lat="59.838604124875" lon="17.690119056799">
        <ele>1.8</ele>
        <time>2017-10-15T14:44:25Z</time>
      </trkpt>
      <trkpt lat="59.838662043804" lon="17.690080583878">
        <ele>1.8</ele>
        <time>2017-10-15T14:44:26Z</time>
      </trkpt>
      <trkpt lat="59.838714430679" lon="17.690031214487">
        <ele>1.8</ele>
        <time>2017-10-15T14:44:27Z</time>
      </trkpt>
      <trkpt lat="59.83877721111" lon="17.689990226996">
        <ele>2</ele>
        <time>2017-10-15T14:44:28Z</time>
      </trkpt>
      <trkpt lat="59.838834124211" lon="17.689959884518">
        <ele>2.2</ele>
        <time>2017-10-15T14:44:29Z</time>
      </trkpt>
      <trkpt lat="59.83889371952" lon="17.689924764357">
        <ele>2.2</ele>
        <time>2017-10-15T14:44:30Z</time>
      </trkpt>
      <trkpt lat="59.838958930702" lon="17.689888638368">
        <ele>2.4</ele>
        <time>2017-10-15T14:44:31Z</time>
      </trkpt>
      <trkpt lat="59.839016346717" lon="17.689858631166">
        <ele>2.4</ele>
        <time>2017-10-15T14:44:32Z</time>
      </trkpt>
      <trkpt lat="59.839080887347" lon="17.689823343367">
        <ele>2.2</ele>
        <time>2017-10-15T14:44:33Z</time>
      </trkpt>
      <trkpt lat="59.839142913407" lon="17.689798030029">
        <ele>2.2</ele>
        <time>2017-10-15T14:44:34Z</time>
      </trkpt>
      <trkpt lat="59.839206867304" lon="17.68977615327">
        <ele>2.2</ele>
        <time>2017-10-15T14:44:35Z</time>
      </trkpt>
      <trkpt lat="59.839264534776" lon="17.68975184576">
        <ele>2.2</ele>
        <time>2017-10-15T14:44:36Z</time>
      </trkpt>
      <trkpt lat="59.839328069578" lon="17.689733154123">
        <ele>2.2</ele>
        <time>2017-10-15T14:44:37Z</time>
      </trkpt>
      <trkpt lat="59.83939663352" lon="17.689717815246">
        <ele>2.2</ele>
        <time>2017-10-15T14:44:38Z</time>
      </trkpt>
      <trkpt lat="59.839461509426" lon="17.68970490712">
        <ele>2.2</ele>
        <time>2017-10-15T14:44:39Z</time>
      </trkpt>
      <trkpt lat="59.839526720608" lon="17.68969652522">
        <ele>2.2</ele>
        <time>2017-10-15T14:44:40Z</time>
      </trkpt>
      <trkpt lat="59.839592853799" lon="17.689689735881">
        <ele>2.2</ele>
        <time>2017-10-15T14:44:41Z</time>
      </trkpt>
      <trkpt lat="59.839651694737" lon="17.689686802216">
        <ele>2.2</ele>
        <time>2017-10-15T14:44:42Z</time>
      </trkpt>
      <trkpt lat="59.839727299475" lon="17.689681773076">
        <ele>2.2</ele>
        <time>2017-10-15T14:44:43Z</time>
      </trkpt>
      <trkpt lat="59.839790331363" lon="17.689684622922">
        <ele>2.2</ele>
        <time>2017-10-15T14:44:44Z</time>
      </trkpt>
      <trkpt lat="59.839864259721" lon="17.689687556587">
        <ele>2.2</ele>
        <time>2017-10-15T14:44:45Z</time>
      </trkpt>
      <trkpt lat="59.839933661853" lon="17.689691998994">
        <ele>2.2</ele>
        <time>2017-10-15T14:44:46Z</time>
      </trkpt>
      <trkpt lat="59.839998537759" lon="17.689694765021">
        <ele>2.2</ele>
        <time>2017-10-15T14:44:47Z</time>
      </trkpt>
      <trkpt lat="59.84006802371" lon="17.689701973455">
        <ele>2.4</ele>
        <time>2017-10-15T14:44:48Z</time>
      </trkpt>
      <trkpt lat="59.840142287344" lon="17.689713121382">
        <ele>2.4</ele>
        <time>2017-10-15T14:44:49Z</time>
      </trkpt>
      <trkpt lat="59.840211521838" lon="17.689724353128">
        <ele>2.4</ele>
        <time>2017-10-15T14:44:50Z</time>
      </trkpt>
      <trkpt lat="59.840281259246" lon="17.689738099444">
        <ele>2.4</ele>
        <time>2017-10-15T14:44:51Z</time>
      </trkpt>
      <trkpt lat="59.840348398265" lon="17.689755114701">
        <ele>2.4</ele>
        <time>2017-10-15T14:44:52Z</time>
      </trkpt>
      <trkpt lat="59.840423835365" lon="17.689783864618">
        <ele>2.4</ele>
        <time>2017-10-15T14:44:53Z</time>
      </trkpt>
      <trkpt lat="59.840490052375" lon="17.689807082481">
        <ele>2.4</ele>
        <time>2017-10-15T14:44:54Z</time>
      </trkpt>
      <trkpt lat="59.840565154199" lon="17.68982644467">
        <ele>2.4</ele>
        <time>2017-10-15T14:44:55Z</time>
      </trkpt>
      <trkpt lat="59.840638412005" lon="17.689834575113">
        <ele>2.4</ele>
        <time>2017-10-15T14:44:56Z</time>
      </trkpt>
      <trkpt lat="59.840706808309" lon="17.689844214298">
        <ele>2.6</ele>
        <time>2017-10-15T14:44:57Z</time>
      </trkpt>
      <trkpt lat="59.840782664504" lon="17.689856535691">
        <ele>2.6</ele>
        <time>2017-10-15T14:44:58Z</time>
      </trkpt>
      <trkpt lat="59.840850725532" lon="17.689868773265">
        <ele>2.6</ele>
        <time>2017-10-15T14:44:59Z</time>
      </trkpt>
      <trkpt lat="59.840924318614" lon="17.6898826034">
        <ele>2.6</ele>
        <time>2017-10-15T14:45:00Z</time>
      </trkpt>
      <trkpt lat="59.841001851189" lon="17.689896684992">
        <ele>2.6</ele>
        <time>2017-10-15T14:45:01Z</time>
      </trkpt>
      <trkpt lat="59.841068487294" lon="17.68990858729">
        <ele>2.8</ele>
        <time>2017-10-15T14:45:02Z</time>
      </trkpt>
      <trkpt lat="59.841145768412" lon="17.689918980846">
        <ele>2.8</ele>
        <time>2017-10-15T14:45:03Z</time>
      </trkpt>
      <trkpt lat="59.841217433657" lon="17.689931805153">
        <ele>2.8</ele>
        <time>2017-10-15T14:45:04Z</time>
      </trkpt>
      <trkpt lat="59.841289853273" lon="17.689942198709">
        <ele>2.8</ele>
        <time>2017-10-15T14:45:05Z</time>
      </trkpt>
      <trkpt lat="59.841356154102" lon="17.689956196482">
        <ele>2.8</ele>
        <time>2017-10-15T14:45:06Z</time>
      </trkpt>
      <trkpt lat="59.841428489899" lon="17.689970361893">
        <ele>2.6</ele>
        <time>2017-10-15T14:45:07Z</time>
      </trkpt>
      <trkpt lat="59.841506190112" lon="17.689986958055">
        <ele>2.6</ele>
        <time>2017-10-15T14:45:08Z</time>
      </trkpt>
      <trkpt lat="59.841578106814" lon="17.689998776534">
        <ele>2.6</ele>
        <time>2017-10-15T14:45:09Z</time>
      </trkpt>
      <trkpt lat="59.841649855878" lon="17.690011936117">
        <ele>2.8</ele>
        <time>2017-10-15T14:45:10Z</time>
      </trkpt>
      <trkpt lat="59.841722359313" lon="17.690026352985">
        <ele>2.8</ele>
        <time>2017-10-15T14:45:11Z</time>
      </trkpt>
      <trkpt lat="59.841786983762" lon="17.690040350758">
        <ele>3</ele>
        <time>2017-10-15T14:45:12Z</time>
      </trkpt>
      <trkpt lat="59.841866947088" lon="17.690054599988">
        <ele>3</ele>
        <time>2017-10-15T14:45:13Z</time>
      </trkpt>
      <trkpt lat="59.84193467284" lon="17.690063987716">
        <ele>3</ele>
        <time>2017-10-15T14:45:14Z</time>
      </trkpt>
      <trkpt lat="59.842009523207" lon="17.690074381272">
        <ele>3</ele>
        <time>2017-10-15T14:45:15Z</time>
      </trkpt>
      <trkpt lat="59.842079512072" lon="17.690086535027">
        <ele>3</ele>
        <time>2017-10-15T14:45:16Z</time>
      </trkpt>
      <trkpt lat="59.842143046874" lon="17.690106232492">
        <ele>3</ele>
        <time>2017-10-15T14:45:17Z</time>
      </trkpt>
      <trkpt lat="59.842210521169" lon="17.690125594681">
        <ele>3</ele>
        <time>2017-10-15T14:45:18Z</time>
      </trkpt>
      <trkpt lat="59.842282018776" lon="17.690145040689">
        <ele>3</ele>
        <time>2017-10-15T14:45:19Z</time>
      </trkpt>
      <trkpt lat="59.842349073976" lon="17.690165408706">
        <ele>3</ele>
        <time>2017-10-15T14:45:20Z</time>
      </trkpt>
      <trkpt lat="59.842414704253" lon="17.690189716216">
        <ele>3</ele>
        <time>2017-10-15T14:45:21Z</time>
      </trkpt>
      <trkpt lat="59.842476730313" lon="17.690214359002">
        <ele>3.2</ele>
        <time>2017-10-15T14:45:22Z</time>
      </trkpt>
      <trkpt lat="59.842546467721" lon="17.690249311525">
        <ele>3.4</ele>
        <time>2017-10-15T14:45:23Z</time>
      </trkpt>
      <trkpt lat="59.842607823229" lon="17.690274541044">
        <ele>3.4</ele>
        <time>2017-10-15T14:45:24Z</time>
      </trkpt>
      <trkpt lat="59.842678231189" lon="17.690297004536">
        <ele>3.4</ele>
        <time>2017-10-15T14:45:25Z</time>
      </trkpt>
      <trkpt lat="59.842745034932" lon="17.690319635666">
        <ele>3.6</ele>
        <time>2017-10-15T14:45:26Z</time>
      </trkpt>
      <trkpt lat="59.842808737372" lon="17.69033271143">
        <ele>3.6</ele>
        <time>2017-10-15T14:45:27Z</time>
      </trkpt>
      <trkpt lat="59.84288182754" lon="17.690347547393">
        <ele>3.8</ele>
        <time>2017-10-15T14:45:28Z</time>
      </trkpt>
      <trkpt lat="59.842946954903" lon="17.690360539338">
        <ele>3.8</ele>
        <time>2017-10-15T14:45:29Z</time>
      </trkpt>
      <trkpt lat="59.843013339551" lon="17.690371938722">
        <ele>3.8</ele>
        <time>2017-10-15T14:45:30Z</time>
      </trkpt>
      <trkpt lat="59.843082909321" lon="17.690383338106">
        <ele>3.8</ele>
        <time>2017-10-15T14:45:31Z</time>
      </trkpt>
      <trkpt lat="59.84314250463" lon="17.690394486033">
        <ele>3.8</ele>
        <time>2017-10-15T14:45:32Z</time>
      </trkpt>
      <trkpt lat="59.843208554002" lon="17.69042323595">
        <ele>3.8</ele>
        <time>2017-10-15T14:45:33Z</time>
      </trkpt>
      <trkpt lat="59.84326404218" lon="17.690484926734">
        <ele>3.8</ele>
        <time>2017-10-15T14:45:34Z</time>
      </trkpt>
      <trkpt lat="59.843309220621" lon="17.690570673571">
        <ele>3.8</ele>
        <time>2017-10-15T14:45:35Z</time>
      </trkpt>
      <trkpt lat="59.843341910031" lon="17.690675195864">
        <ele>4</ele>
        <time>2017-10-15T14:45:36Z</time>
      </trkpt>
      <trkpt lat="59.84336127222" lon="17.69080628878">
        <ele>4</ele>
        <time>2017-10-15T14:45:37Z</time>
      </trkpt>
      <trkpt lat="59.843364960256" lon="17.690958671722">
        <ele>4.2</ele>
        <time>2017-10-15T14:45:38Z</time>
      </trkpt>
      <trkpt lat="59.843362780962" lon="17.691101750755">
        <ele>4.2</ele>
        <time>2017-10-15T14:45:39Z</time>
      </trkpt>
      <trkpt lat="59.843359931116" lon="17.691245584159">
        <ele>4.2</ele>
        <time>2017-10-15T14:45:40Z</time>
      </trkpt>
      <trkpt lat="59.843356829813" lon="17.691381790034">
        <ele>4</ele>
        <time>2017-10-15T14:45:41Z</time>
      </trkpt>
      <trkpt lat="59.84335289032" lon="17.691500729195">
        <ele>4</ele>
        <time>2017-10-15T14:45:42Z</time>
      </trkpt>
      <trkpt lat="59.843349621379" lon="17.691648837368">
        <ele>3.8</ele>
        <time>2017-10-15T14:45:43Z</time>
      </trkpt>
      <trkpt lat="59.843347693542" lon="17.691770877832">
        <ele>3.6</ele>
        <time>2017-10-15T14:45:44Z</time>
      </trkpt>
      <trkpt lat="59.84334702299" lon="17.691909179182">
        <ele>3.6</ele>
        <time>2017-10-15T14:45:45Z</time>
      </trkpt>
      <trkpt lat="59.843344676058" lon="17.692038847175">
        <ele>4</ele>
        <time>2017-10-15T14:45:46Z</time>
      </trkpt>
      <trkpt lat="59.843345430429" lon="17.692162228743">
        <ele>4</ele>
        <time>2017-10-15T14:45:47Z</time>
      </trkpt>
      <trkpt lat="59.843348867008" lon="17.692289130709">
        <ele>4</ele>
        <time>2017-10-15T14:45:48Z</time>
      </trkpt>
      <trkpt lat="59.843352638863" lon="17.692424246937">
        <ele>4.2</ele>
        <time>2017-10-15T14:45:49Z</time>
      </trkpt>
      <trkpt lat="59.843353896148" lon="17.692553747292">
        <ele>4.2</ele>
        <time>2017-10-15T14:45:50Z</time>
      </trkpt>
      <trkpt lat="59.843357500365" lon="17.692678302326">
        <ele>4.2</ele>
        <time>2017-10-15T14:45:51Z</time>
      </trkpt>
      <trkpt lat="59.843359512021" lon="17.692799420781">
        <ele>4.2</ele>
        <time>2017-10-15T14:45:52Z</time>
      </trkpt>
      <trkpt lat="59.843363451514" lon="17.692930932792">
        <ele>4.2</ele>
        <time>2017-10-15T14:45:53Z</time>
      </trkpt>
      <trkpt lat="59.843370073215" lon="17.693049788134">
        <ele>4</ele>
        <time>2017-10-15T14:45:54Z</time>
      </trkpt>
      <trkpt lat="59.843378706572" lon="17.69318255743">
        <ele>4</ele>
        <time>2017-10-15T14:45:55Z</time>
      </trkpt>
      <trkpt lat="59.843385998825" lon="17.693307950654">
        <ele>4</ele>
        <time>2017-10-15T14:45:56Z</time>
      </trkpt>
      <trkpt lat="59.843391782336" lon="17.693423788512">
        <ele>4</ele>
        <time>2017-10-15T14:45:57Z</time>
      </trkpt>
      <trkpt lat="59.84339815258" lon="17.693557982731">
        <ele>4</ele>
        <time>2017-10-15T14:45:58Z</time>
      </trkpt>
      <trkpt lat="59.84340234353" lon="17.693676502797">
        <ele>4</ele>
        <time>2017-10-15T14:45:59Z</time>
      </trkpt>
      <trkpt lat="59.843413156181" lon="17.69380197984">
        <ele>4.2</ele>
        <time>2017-10-15T14:46:00Z</time>
      </trkpt>
      <trkpt lat="59.843425645212" lon="17.693933156575">
        <ele>4.6</ele>
        <time>2017-10-15T14:46:01Z</time>
      </trkpt>
      <trkpt lat="59.843434613845" lon="17.694053939754">
        <ele>4.8</ele>
        <time>2017-10-15T14:46:02Z</time>
      </trkpt>
      <trkpt lat="59.843444420668" lon="17.694190564724">
        <ele>5</ele>
        <time>2017-10-15T14:46:03Z</time>
      </trkpt>
      <trkpt lat="59.843452718749" lon="17.694321154726">
        <ele>5</ele>
        <time>2017-10-15T14:46:04Z</time>
      </trkpt>
      <trkpt lat="59.84346520778" lon="17.69444990071">
        <ele>5</ele>
        <time>2017-10-15T14:46:05Z</time>
      </trkpt>
      <trkpt lat="59.843478115906" lon="17.694569929518">
        <ele>4.8</ele>
        <time>2017-10-15T14:46:06Z</time>
      </trkpt>
      <trkpt lat="59.843491526946" lon="17.694699597511">
        <ele>4.8</ele>
        <time>2017-10-15T14:46:07Z</time>
      </trkpt>
      <trkpt lat="59.843506027633" lon="17.694837060671">
        <ele>4.8</ele>
        <time>2017-10-15T14:46:08Z</time>
      </trkpt>
      <trkpt lat="59.843519187216" lon="17.694963124447">
        <ele>4.8</ele>
        <time>2017-10-15T14:46:09Z</time>
      </trkpt>
      <trkpt lat="59.843532598256" lon="17.695092038069">
        <ele>4.8</ele>
        <time>2017-10-15T14:46:10Z</time>
      </trkpt>
      <trkpt lat="59.843545254925" lon="17.695220281139">
        <ele>4.8</ele>
        <time>2017-10-15T14:46:11Z</time>
      </trkpt>
      <trkpt lat="59.84355908506" lon="17.69532916202">
        <ele>4.8</ele>
        <time>2017-10-15T14:46:12Z</time>
      </trkpt>
      <trkpt lat="59.84357584886" lon="17.69546662518">
        <ele>4.6</ele>
        <time>2017-10-15T14:46:13Z</time>
      </trkpt>
      <trkpt lat="59.843591103918" lon="17.695581624848">
        <ele>4.8</ele>
        <time>2017-10-15T14:46:14Z</time>
      </trkpt>
      <trkpt lat="59.84360686189" lon="17.695694277584">
        <ele>4.8</ele>
        <time>2017-10-15T14:46:15Z</time>
      </trkpt>
      <trkpt lat="59.84362530207" lon="17.695829393812">
        <ele>5</ele>
        <time>2017-10-15T14:46:16Z</time>
      </trkpt>
      <trkpt lat="59.84364038949" lon="17.695936263037">
        <ele>5.2</ele>
        <time>2017-10-15T14:46:17Z</time>
      </trkpt>
      <trkpt lat="59.843656650376" lon="17.696050927429">
        <ele>5.2</ele>
        <time>2017-10-15T14:46:18Z</time>
      </trkpt>
      <trkpt lat="59.843675342013" lon="17.696171291513">
        <ele>5.4</ele>
        <time>2017-10-15T14:46:19Z</time>
      </trkpt>
      <trkpt lat="59.84369319546" lon="17.696284866258">
        <ele>5.6</ele>
        <time>2017-10-15T14:46:20Z</time>
      </trkpt>
      <trkpt lat="59.843710881269" lon="17.696399949745">
        <ele>5.6</ele>
        <time>2017-10-15T14:46:21Z</time>
      </trkpt>
      <trkpt lat="59.843726974517" lon="17.696511680472">
        <ele>5.6</ele>
        <time>2017-10-15T14:46:22Z</time>
      </trkpt>
      <trkpt lat="59.84374683962" lon="17.696638079524">
        <ele>5.6</ele>
        <time>2017-10-15T14:46:23Z</time>
      </trkpt>
      <trkpt lat="59.84376611799" lon="17.696747966233">
        <ele>5.6</ele>
        <time>2017-10-15T14:46:24Z</time>
      </trkpt>
      <trkpt lat="59.843788665301" lon="17.696876544579">
        <ele>5.6</ele>
        <time>2017-10-15T14:46:25Z</time>
      </trkpt>
      <trkpt lat="59.843810039146" lon="17.696994813188">
        <ele>5.6</ele>
        <time>2017-10-15T14:46:26Z</time>
      </trkpt>
      <trkpt lat="59.843833759923" lon="17.697106795372">
        <ele>5.4</ele>
        <time>2017-10-15T14:46:27Z</time>
      </trkpt>
      <trkpt lat="59.84386167165" lon="17.697229590207">
        <ele>5.6</ele>
        <time>2017-10-15T14:46:28Z</time>
      </trkpt>
      <trkpt lat="59.843887152626" lon="17.697343416409">
        <ele>5.4</ele>
        <time>2017-10-15T14:46:29Z</time>
      </trkpt>
      <trkpt lat="59.843908358833" lon="17.697465037778">
        <ele>5.4</ele>
        <time>2017-10-15T14:46:30Z</time>
      </trkpt>
      <trkpt lat="59.843928559212" lon="17.697600573101">
        <ele>5.4</ele>
        <time>2017-10-15T14:46:31Z</time>
      </trkpt>
      <trkpt lat="59.843944820098" lon="17.697704424842">
        <ele>5.4</ele>
        <time>2017-10-15T14:46:32Z</time>
      </trkpt>
      <trkpt lat="59.843970301074" lon="17.697857897431">
        <ele>5.2</ele>
        <time>2017-10-15T14:46:33Z</time>
      </trkpt>
      <trkpt lat="59.84398907653" lon="17.697990918184">
        <ele>5.2</ele>
        <time>2017-10-15T14:46:34Z</time>
      </trkpt>
      <trkpt lat="59.844008941633" lon="17.698121005272">
        <ele>5.2</ele>
        <time>2017-10-15T14:46:35Z</time>
      </trkpt>
      <trkpt lat="59.844023861415" lon="17.698233993284">
        <ele>5.2</ele>
        <time>2017-10-15T14:46:36Z</time>
      </trkpt>
      <trkpt lat="59.844039619387" lon="17.698374725385">
        <ele>5.2</ele>
        <time>2017-10-15T14:46:37Z</time>
      </trkpt>
      <trkpt lat="59.844056215549" lon="17.698511937088">
        <ele>5.2</ele>
        <time>2017-10-15T14:46:38Z</time>
      </trkpt>
      <trkpt lat="59.844070800055" lon="17.698644790203">
        <ele>5</ele>
        <time>2017-10-15T14:46:39Z</time>
      </trkpt>
      <trkpt lat="59.844083875819" lon="17.698777978594">
        <ele>5</ele>
        <time>2017-10-15T14:46:40Z</time>
      </trkpt>
      <trkpt lat="59.844097370678" lon="17.6989099097">
        <ele>5</ele>
        <time>2017-10-15T14:46:41Z</time>
      </trkpt>
      <trkpt lat="59.844109105338" lon="17.699025160825">
        <ele>5.2</ele>
        <time>2017-10-15T14:46:42Z</time>
      </trkpt>
      <trkpt lat="59.844123103111" lon="17.699173352817">
        <ele>5.2</ele>
        <time>2017-10-15T14:46:43Z</time>
      </trkpt>
      <trkpt lat="59.8441340834" lon="17.699301931163">
        <ele>5.4</ele>
        <time>2017-10-15T14:46:44Z</time>
      </trkpt>
      <trkpt lat="59.844144728413" lon="17.699439981056">
        <ele>5.4</ele>
        <time>2017-10-15T14:46:45Z</time>
      </trkpt>
      <trkpt lat="59.84415336177" lon="17.69957375618">
        <ele>5.4</ele>
        <time>2017-10-15T14:46:46Z</time>
      </trkpt>
      <trkpt lat="59.844162246584" lon="17.699699149404">
        <ele>5.2</ele>
        <time>2017-10-15T14:46:47Z</time>
      </trkpt>
      <trkpt lat="59.844171634312" lon="17.699831248148">
        <ele>5.4</ele>
        <time>2017-10-15T14:46:48Z</time>
      </trkpt>
      <trkpt lat="59.844178339832" lon="17.699973405172">
        <ele>5.4</ele>
        <time>2017-10-15T14:46:49Z</time>
      </trkpt>
      <trkpt lat="59.844181944049" lon="17.700103743717">
        <ele>5.2</ele>
        <time>2017-10-15T14:46:50Z</time>
      </trkpt>
      <trkpt lat="59.844189571578" lon="17.700228466389">
        <ele>5.2</ele>
        <time>2017-10-15T14:46:51Z</time>
      </trkpt>
      <trkpt lat="59.844194097804" lon="17.700358721115">
        <ele>5.2</ele>
        <time>2017-10-15T14:46:52Z</time>
      </trkpt>
      <trkpt lat="59.844198372573" lon="17.70050079432">
        <ele>5.2</ele>
        <time>2017-10-15T14:46:53Z</time>
      </trkpt>
      <trkpt lat="59.8442011386" lon="17.700625265535">
        <ele>5.2</ele>
        <time>2017-10-15T14:46:54Z</time>
      </trkpt>
      <trkpt lat="59.844204994274" lon="17.700766332912">
        <ele>5</ele>
        <time>2017-10-15T14:46:55Z</time>
      </trkpt>
      <trkpt lat="59.844206083921" lon="17.700896755276">
        <ele>5</ele>
        <time>2017-10-15T14:46:56Z</time>
      </trkpt>
      <trkpt lat="59.84420784412" lon="17.701020136844">
        <ele>5</ele>
        <time>2017-10-15T14:46:57Z</time>
      </trkpt>
      <trkpt lat="59.844209017586" lon="17.701160282212">
        <ele>4.8</ele>
        <time>2017-10-15T14:46:58Z</time>
      </trkpt>
      <trkpt lat="59.844209688138" lon="17.701284921065">
        <ele>4.8</ele>
        <time>2017-10-15T14:46:59Z</time>
      </trkpt>
      <trkpt lat="59.844208849948" lon="17.701418528551">
        <ele>4.6</ele>
        <time>2017-10-15T14:47:00Z</time>
      </trkpt>
      <trkpt lat="59.844207257387" lon="17.701563535421">
        <ele>4.6</ele>
        <time>2017-10-15T14:47:01Z</time>
      </trkpt>
      <trkpt lat="59.844206251559" lon="17.701693287233">
        <ele>4.6</ele>
        <time>2017-10-15T14:47:02Z</time>
      </trkpt>
      <trkpt lat="59.8442011386" lon="17.701836450085">
        <ele>4.6</ele>
        <time>2017-10-15T14:47:03Z</time>
      </trkpt>
      <trkpt lat="59.844195858003" lon="17.701971985408">
        <ele>4.4</ele>
        <time>2017-10-15T14:47:04Z</time>
      </trkpt>
      <trkpt lat="59.844183452791" lon="17.702103832695">
        <ele>4.4</ele>
        <time>2017-10-15T14:47:05Z</time>
      </trkpt>
      <trkpt lat="59.844168952104" lon="17.702214809051">
        <ele>4.4</ele>
        <time>2017-10-15T14:47:06Z</time>
      </trkpt>
      <trkpt lat="59.844158139453" lon="17.70234984146">
        <ele>4.4</ele>
        <time>2017-10-15T14:47:07Z</time>
      </trkpt>
      <trkpt lat="59.844148248811" lon="17.702481018195">
        <ele>4.6</ele>
        <time>2017-10-15T14:47:08Z</time>
      </trkpt>
      <trkpt lat="59.844132909934" lon="17.702602891021">
        <ele>4.8</ele>
        <time>2017-10-15T14:47:09Z</time>
      </trkpt>
      <trkpt lat="59.8441173196" lon="17.702721914001">
        <ele>4.8</ele>
        <time>2017-10-15T14:47:10Z</time>
      </trkpt>
      <trkpt lat="59.844098963239" lon="17.702838422411">
        <ele>5.2</ele>
        <time>2017-10-15T14:47:11Z</time>
      </trkpt>
      <trkpt lat="59.844081109792" lon="17.702939424306">
        <ele>5.2</ele>
        <time>2017-10-15T14:47:12Z</time>
      </trkpt>
      <trkpt lat="59.844059652128" lon="17.703068505566">
        <ele>5.4</ele>
        <time>2017-10-15T14:47:13Z</time>
      </trkpt>
      <trkpt lat="59.844041211948" lon="17.703178979008">
        <ele>5.4</ele>
        <time>2017-10-15T14:47:14Z</time>
      </trkpt>
      <trkpt lat="59.844018664637" lon="17.703299929825">
        <ele>5.2</ele>
        <time>2017-10-15T14:47:15Z</time>
      </trkpt>
      <trkpt lat="59.843996452602" lon="17.70341685733">
        <ele>5.2</ele>
        <time>2017-10-15T14:47:16Z</time>
      </trkpt>
      <trkpt lat="59.843977844784" lon="17.703531605541">
        <ele>5.2</ele>
        <time>2017-10-15T14:47:17Z</time>
      </trkpt>
      <trkpt lat="59.8439580635" lon="17.70365238872">
        <ele>5.2</ele>
        <time>2017-10-15T14:47:18Z</time>
      </trkpt>
      <trkpt lat="59.843944401003" lon="17.703782811084">
        <ele>5</ele>
        <time>2017-10-15T14:47:19Z</time>
      </trkpt>
      <trkpt lat="59.84393459418" lon="17.703907030842">
        <ele>5</ele>
        <time>2017-10-15T14:47:20Z</time>
      </trkpt>
      <trkpt lat="59.843923362434" lon="17.704027981659">
        <ele>4.8</ele>
        <time>2017-10-15T14:47:21Z</time>
      </trkpt>
      <trkpt lat="59.843912885059" lon="17.704141807861">
        <ele>4.6</ele>
        <time>2017-10-15T14:47:22Z</time>
      </trkpt>
      <trkpt lat="59.843900479847" lon="17.704268374551">
        <ele>4.6</ele>
        <time>2017-10-15T14:47:23Z</time>
      </trkpt>
      <trkpt lat="59.84388597916" lon="17.704381530201">
        <ele>4.4</ele>
        <time>2017-10-15T14:47:24Z</time>
      </trkpt>
      <trkpt lat="59.843868712446" lon="17.70450985709">
        <ele>4.6</ele>
        <time>2017-10-15T14:47:25Z</time>
      </trkpt>
      <trkpt lat="59.843848092972" lon="17.704629969717">
        <ele>4.6</ele>
        <time>2017-10-15T14:47:26Z</time>
      </trkpt>
      <trkpt lat="59.843824036919" lon="17.70473700658">
        <ele>4.6</ele>
        <time>2017-10-15T14:47:27Z</time>
      </trkpt>
      <trkpt lat="59.843794448812" lon="17.704856364836">
        <ele>4.4</ele>
        <time>2017-10-15T14:47:28Z</time>
      </trkpt>
      <trkpt lat="59.843773410243" lon="17.704968263201">
        <ele>4.2</ele>
        <time>2017-10-15T14:47:29Z</time>
      </trkpt>
      <trkpt lat="59.843750862932" lon="17.705085358344">
        <ele>4.4</ele>
        <time>2017-10-15T14:47:30Z</time>
      </trkpt>
      <trkpt lat="59.843724040852" lon="17.705208739912">
        <ele>4.4</ele>
        <time>2017-10-15T14:47:31Z</time>
      </trkpt>
      <trkpt lat="59.843701912636" lon="17.705320470639">
        <ele>4.2</ele>
        <time>2017-10-15T14:47:32Z</time>
      </trkpt>
      <trkpt lat="59.843676180203" lon="17.70544276256">
        <ele>4.2</ele>
        <time>2017-10-15T14:47:33Z</time>
      </trkpt>
      <trkpt lat="59.843653632892" lon="17.705562288454">
        <ele>4.2</ele>
        <time>2017-10-15T14:47:34Z</time>
      </trkpt>
      <trkpt lat="59.843628990106" lon="17.705678880683">
        <ele>4.6</ele>
        <time>2017-10-15T14:47:35Z</time>
      </trkpt>
      <trkpt lat="59.843609125003" lon="17.705780720768">
        <ele>4.8</ele>
        <time>2017-10-15T14:47:36Z</time>
      </trkpt>
      <trkpt lat="59.843584817493" lon="17.70590711982">
        <ele>5</ele>
        <time>2017-10-15T14:47:37Z</time>
      </trkpt>
      <trkpt lat="59.843562354001" lon="17.70603620108">
        <ele>5.2</ele>
        <time>2017-10-15T14:47:38Z</time>
      </trkpt>
      <trkpt lat="59.843538717043" lon="17.706156648983">
        <ele>5.4</ele>
        <time>2017-10-15T14:47:39Z</time>
      </trkpt>
      <trkpt lat="59.843512733153" lon="17.706277515981">
        <ele>5.2</ele>
        <time>2017-10-15T14:47:40Z</time>
      </trkpt>
      <trkpt lat="59.84348783891" lon="17.706398466798">
        <ele>5.2</ele>
        <time>2017-10-15T14:47:41Z</time>
      </trkpt>
      <trkpt lat="59.843465543056" lon="17.706505503661">
        <ele>5</ele>
        <time>2017-10-15T14:47:42Z</time>
      </trkpt>
      <trkpt lat="59.843437212234" lon="17.706644475563">
        <ele>5</ele>
        <time>2017-10-15T14:47:43Z</time>
      </trkpt>
      <trkpt lat="59.843415251656" lon="17.706764504371">
        <ele>5</ele>
        <time>2017-10-15T14:47:44Z</time>
      </trkpt>
      <trkpt lat="59.843389435404" lon="17.706896100201">
        <ele>4.8</ele>
        <time>2017-10-15T14:47:45Z</time>
      </trkpt>
      <trkpt lat="59.843366049903" lon="17.707025097642">
        <ele>5</ele>
        <time>2017-10-15T14:47:46Z</time>
      </trkpt>
      <trkpt lat="59.843343754049" lon="17.707146970468">
        <ele>5</ele>
        <time>2017-10-15T14:47:47Z</time>
      </trkpt>
      <trkpt lat="59.843320787643" lon="17.707276554642">
        <ele>5</ele>
        <time>2017-10-15T14:47:48Z</time>
      </trkpt>
      <trkpt lat="59.843299413798" lon="17.70741586182">
        <ele>5</ele>
        <time>2017-10-15T14:47:49Z</time>
      </trkpt>
      <trkpt lat="59.843272926994" lon="17.70754410489">
        <ele>4.8</ele>
        <time>2017-10-15T14:47:50Z</time>
      </trkpt>
      <trkpt lat="59.843247194561" lon="17.707659858929">
        <ele>4.8</ele>
        <time>2017-10-15T14:47:51Z</time>
      </trkpt>
      <trkpt lat="59.843224898707" lon="17.707791119483">
        <ele>4.8</ele>
        <time>2017-10-15T14:47:52Z</time>
      </trkpt>
      <trkpt lat="59.843200591197" lon="17.707924559331">
        <ele>4.8</ele>
        <time>2017-10-15T14:47:53Z</time>
      </trkpt>
      <trkpt lat="59.843176618963" lon="17.708040145732">
        <ele>4.8</ele>
        <time>2017-10-15T14:47:54Z</time>
      </trkpt>
      <trkpt lat="59.843153484919" lon="17.708170065182">
        <ele>4.8</ele>
        <time>2017-10-15T14:47:55Z</time>
      </trkpt>
      <trkpt lat="59.843131440522" lon="17.70829344675">
        <ele>5</ele>
        <time>2017-10-15T14:47:56Z</time>
      </trkpt>
      <trkpt lat="59.843109479944" lon="17.708403584916">
        <ele>5</ele>
        <time>2017-10-15T14:47:57Z</time>
      </trkpt>
      <trkpt lat="59.843085926805" lon="17.70853316909">
        <ele>5.2</ele>
        <time>2017-10-15T14:47:58Z</time>
      </trkpt>
      <trkpt lat="59.843065558788" lon="17.708644815998">
        <ele>5.2</ele>
        <time>2017-10-15T14:47:59Z</time>
      </trkpt>
      <trkpt lat="59.843043095296" lon="17.708767527014">
        <ele>5.4</ele>
        <time>2017-10-15T14:48:00Z</time>
      </trkpt>
      <trkpt lat="59.843023565469" lon="17.708865343787">
        <ele>5.4</ele>
        <time>2017-10-15T14:48:01Z</time>
      </trkpt>
      <trkpt lat="59.842993558267" lon="17.709026611543">
        <ele>5.2</ele>
        <time>2017-10-15T14:48:02Z</time>
      </trkpt>
      <trkpt lat="59.84296983749" lon="17.709148568188">
        <ele>5.2</ele>
        <time>2017-10-15T14:48:03Z</time>
      </trkpt>
      <trkpt lat="59.842945362342" lon="17.709268932272">
        <ele>5.2</ele>
        <time>2017-10-15T14:48:04Z</time>
      </trkpt>
      <trkpt lat="59.842920887194" lon="17.709388039071">
        <ele>5</ele>
        <time>2017-10-15T14:48:05Z</time>
      </trkpt>
      <trkpt lat="59.842893897476" lon="17.709477473944">
        <ele>5</ele>
        <time>2017-10-15T14:48:06Z</time>
      </trkpt>
      <trkpt lat="59.842853748175" lon="17.709575542174">
        <ele>4.8</ele>
        <time>2017-10-15T14:48:07Z</time>
      </trkpt>
      <trkpt lat="59.842815694349" lon="17.709651985102">
        <ele>4.8</ele>
        <time>2017-10-15T14:48:08Z</time>
      </trkpt>
      <trkpt lat="59.842776718514" lon="17.709719459397">
        <ele>4.8</ele>
        <time>2017-10-15T14:48:09Z</time>
      </trkpt>
      <trkpt lat="59.842738748507" lon="17.709784838217">
        <ele>5</ele>
        <time>2017-10-15T14:48:10Z</time>
      </trkpt>
      <trkpt lat="59.842702538699" lon="17.709850300856">
        <ele>5.2</ele>
        <time>2017-10-15T14:48:11Z</time>
      </trkpt>
      <trkpt lat="59.842665490701" lon="17.709913500382">
        <ele>5.4</ele>
        <time>2017-10-15T14:48:12Z</time>
      </trkpt>
      <trkpt lat="59.842630454359" lon="17.709978879202">
        <ele>6</ele>
        <time>2017-10-15T14:48:13Z</time>
      </trkpt>
      <trkpt lat="59.842599106053" lon="17.710041156719">
        <ele>6.4</ele>
        <time>2017-10-15T14:48:14Z</time>
      </trkpt>
      <trkpt lat="59.842576139647" lon="17.710112570507">
        <ele>6.8</ele>
        <time>2017-10-15T14:48:15Z</time>
      </trkpt>
      <trkpt lat="59.842558453838" lon="17.710187253236">
        <ele>6.8</ele>
        <time>2017-10-15T14:48:16Z</time>
      </trkpt>
      <trkpt lat="59.842560297856" lon="17.710261013956">
        <ele>7</ele>
        <time>2017-10-15T14:48:17Z</time>
      </trkpt>
      <trkpt lat="59.842580498235" lon="17.710331170459">
        <ele>7.2</ele>
        <time>2017-10-15T14:48:18Z</time>
      </trkpt>
      <trkpt lat="59.84259851932" lon="17.710392023053">
        <ele>7.4</ele>
        <time>2017-10-15T14:48:19Z</time>
      </trkpt>
      <trkpt lat="59.842618719699" lon="17.710452791828">
        <ele>7.6</ele>
        <time>2017-10-15T14:48:20Z</time>
      </trkpt>
      <trkpt lat="59.842639339173" lon="17.710514398793">
        <ele>7.6</ele>
        <time>2017-10-15T14:48:21Z</time>
      </trkpt>
      <trkpt lat="59.84265970719" lon="17.710593523929">
        <ele>7.6</ele>
        <time>2017-10-15T14:48:22Z</time>
      </trkpt>
      <trkpt lat="59.842680075207" lon="17.710672732884">
        <ele>7.6</ele>
        <time>2017-10-15T14:48:23Z</time>
      </trkpt>
      <trkpt lat="59.842699521215" lon="17.710762670671">
        <ele>7.8</ele>
        <time>2017-10-15T14:48:24Z</time>
      </trkpt>
      <trkpt lat="59.842719637775" lon="17.710853111372">
        <ele>7.8</ele>
        <time>2017-10-15T14:48:25Z</time>
      </trkpt>
      <trkpt lat="59.842741179258" lon="17.710944138806">
        <ele>7.8</ele>
        <time>2017-10-15T14:48:26Z</time>
      </trkpt>
      <trkpt lat="59.842781831473" lon="17.71101588787">
        <ele>8.2</ele>
        <time>2017-10-15T14:48:27Z</time>
      </trkpt>
      <trkpt lat="59.842821729317" lon="17.711084451812">
        <ele>8.2</ele>
        <time>2017-10-15T14:48:28Z</time>
      </trkpt>
      <trkpt lat="59.84287596021" lon="17.711114207557">
        <ele>8.2</ele>
        <time>2017-10-15T14:48:29Z</time>
      </trkpt>
      <trkpt lat="59.842939495012" lon="17.711107082942">
        <ele>8.2</ele>
        <time>2017-10-15T14:48:30Z</time>
      </trkpt>
      <trkpt lat="59.843000096149" lon="17.711105658019">
        <ele>8.2</ele>
        <time>2017-10-15T14:48:31Z</time>
      </trkpt>
      <trkpt lat="59.843066564616" lon="17.711076405188">
        <ele>8.4</ele>
        <time>2017-10-15T14:48:32Z</time>
      </trkpt>
      <trkpt lat="59.843133200721" lon="17.711050840393">
        <ele>8.4</ele>
        <time>2017-10-15T14:48:33Z</time>
      </trkpt>
      <trkpt lat="59.843202099939" lon="17.711024688865">
        <ele>8.2</ele>
        <time>2017-10-15T14:48:34Z</time>
      </trkpt>
      <trkpt lat="59.843271250614" lon="17.710999878441">
        <ele>8</ele>
        <time>2017-10-15T14:48:35Z</time>
      </trkpt>
      <trkpt lat="59.843332606122" lon="17.710998369699">
        <ele>8</ele>
        <time>2017-10-15T14:48:36Z</time>
      </trkpt>
      <trkpt lat="59.843410473973" lon="17.711020581734">
        <ele>7.8</ele>
        <time>2017-10-15T14:48:37Z</time>
      </trkpt>
      <trkpt lat="59.843475349879" lon="17.711050421298">
        <ele>7.6</ele>
        <time>2017-10-15T14:48:38Z</time>
      </trkpt>
      <trkpt lat="59.843537375939" lon="17.711089229495">
        <ele>7.6</ele>
        <time>2017-10-15T14:48:39Z</time>
      </trkpt>
      <trkpt lat="59.843595713963" lon="17.711138766524">
        <ele>7.8</ele>
        <time>2017-10-15T14:48:40Z</time>
      </trkpt>
      <trkpt lat="59.843651705055" lon="17.711195176711">
        <ele>7.8</ele>
        <time>2017-10-15T14:48:41Z</time>
      </trkpt>
      <trkpt lat="59.843689758881" lon="17.711288131982">
        <ele>8</ele>
        <time>2017-10-15T14:48:42Z</time>
      </trkpt>
      <trkpt lat="59.843726471603" lon="17.711379410873">
        <ele>8.2</ele>
        <time>2017-10-15T14:48:43Z</time>
      </trkpt>
      <trkpt lat="59.843756562624" lon="17.711467001728">
        <ele>8.4</ele>
        <time>2017-10-15T14:48:44Z</time>
      </trkpt>
      <trkpt lat="59.843798220667" lon="17.711526848494">
        <ele>8.6</ele>
        <time>2017-10-15T14:48:45Z</time>
      </trkpt>
      <trkpt lat="59.843843482927" lon="17.711570350555">
        <ele>8.6</ele>
        <time>2017-10-15T14:48:46Z</time>
      </trkpt>
      <trkpt lat="59.843893187594" lon="17.711578816274">
        <ele>8.8</ele>
        <time>2017-10-15T14:48:47Z</time>
      </trkpt>
      <trkpt lat="59.843946245021" lon="17.711573200401">
        <ele>8.8</ele>
        <time>2017-10-15T14:48:48Z</time>
      </trkpt>
      <trkpt lat="59.843992764566" lon="17.711554089669">
        <ele>8.8</ele>
        <time>2017-10-15T14:48:49Z</time>
      </trkpt>
      <trkpt lat="59.844038362102" lon="17.711529865978">
        <ele>8.8</ele>
        <time>2017-10-15T14:48:50Z</time>
      </trkpt>
      <trkpt lat="59.844083792" lon="17.7115079054">
        <ele>9</ele>
        <time>2017-10-15T14:48:51Z</time>
      </trkpt>
      <trkpt lat="59.844133748124" lon="17.711508995047">
        <ele>9</ele>
        <time>2017-10-15T14:48:52Z</time>
      </trkpt>
      <trkpt lat="59.844182111687" lon="17.71151461092">
        <ele>9.2</ele>
        <time>2017-10-15T14:48:53Z</time>
      </trkpt>
      <trkpt lat="59.844230642888" lon="17.711557861524">
        <ele>9.2</ele>
        <time>2017-10-15T14:48:54Z</time>
      </trkpt>
      <trkpt lat="59.844279593184" lon="17.711593484599">
        <ele>9.4</ele>
        <time>2017-10-15T14:48:55Z</time>
      </trkpt>
      <trkpt lat="59.844329465489" lon="17.711629526769">
        <ele>9.4</ele>
        <time>2017-10-15T14:48:56Z</time>
      </trkpt>
      <trkpt lat="59.844383109649" lon="17.711662216179">
        <ele>9.2</ele>
        <time>2017-10-15T14:48:57Z</time>
      </trkpt>
      <trkpt lat="59.844436250895" lon="17.71169565996">
        <ele>9.2</ele>
        <time>2017-10-15T14:48:58Z</time>
      </trkpt>
      <trkpt lat="59.844486877571" lon="17.711732791777">
        <ele>9.2</ele>
        <time>2017-10-15T14:48:59Z</time>
      </trkpt>
      <trkpt lat="59.844546137604" lon="17.711776377657">
        <ele>9.2</ele>
        <time>2017-10-15T14:49:00Z</time>
      </trkpt>
      <trkpt lat="59.844600536135" lon="17.711818370976">
        <ele>9.2</ele>
        <time>2017-10-15T14:49:01Z</time>
      </trkpt>
      <trkpt lat="59.844635656296" lon="17.711915098102">
        <ele>9.2</ele>
        <time>2017-10-15T14:49:02Z</time>
      </trkpt>
      <trkpt lat="59.844656359589" lon="17.712015680902">
        <ele>9.2</ele>
        <time>2017-10-15T14:49:03Z</time>
      </trkpt>
      <trkpt lat="59.844670022086" lon="17.712115174055">
        <ele>9</ele>
        <time>2017-10-15T14:49:04Z</time>
      </trkpt>
      <trkpt lat="59.844683349307" lon="17.712209302792">
        <ele>9</ele>
        <time>2017-10-15T14:49:05Z</time>
      </trkpt>
      <trkpt lat="59.844721403133" lon="17.712250793197">
        <ele>9</ele>
        <time>2017-10-15T14:49:06Z</time>
      </trkpt>
      <trkpt lat="59.84477529875" lon="17.71226898192">
        <ele>8.8</ele>
        <time>2017-10-15T14:49:07Z</time>
      </trkpt>
      <trkpt lat="59.844820309553" lon="17.712269149558">
        <ele>9</ele>
        <time>2017-10-15T14:49:08Z</time>
      </trkpt>
      <trkpt lat="59.8448633087" lon="17.712234280854">
        <ele>8.8</ele>
        <time>2017-10-15T14:49:09Z</time>
      </trkpt>
      <trkpt lat="59.844904296191" lon="17.712181223427">
        <ele>8.8</ele>
        <time>2017-10-15T14:49:10Z</time>
      </trkpt>
      <trkpt lat="59.844945116044" lon="17.71212732781">
        <ele>8.8</ele>
        <time>2017-10-15T14:49:11Z</time>
      </trkpt>
      <trkpt lat="59.844995155987" lon="17.712107295069">
        <ele>8.6</ele>
        <time>2017-10-15T14:49:12Z</time>
      </trkpt>
      <trkpt lat="59.845044860654" lon="17.712087346147">
        <ele>8.6</ele>
        <time>2017-10-15T14:49:13Z</time>
      </trkpt>
      <trkpt lat="59.84510051647" lon="17.712102098291">
        <ele>8.8</ele>
        <time>2017-10-15T14:49:14Z</time>
      </trkpt>
      <trkpt lat="59.845155334096" lon="17.712112910942">
        <ele>9</ele>
        <time>2017-10-15T14:49:15Z</time>
      </trkpt>
      <trkpt lat="59.845210570817" lon="17.712123388317">
        <ele>9</ele>
        <time>2017-10-15T14:49:16Z</time>
      </trkpt>
      <trkpt lat="59.845264131158" lon="17.712126070525">
        <ele>9</ele>
        <time>2017-10-15T14:49:17Z</time>
      </trkpt>
      <trkpt lat="59.845324145562" lon="17.712125819068">
        <ele>8.8</ele>
        <time>2017-10-15T14:49:18Z</time>
      </trkpt>
      <trkpt lat="59.845379549921" lon="17.712123388317">
        <ele>8.6</ele>
        <time>2017-10-15T14:49:19Z</time>
      </trkpt>
      <trkpt lat="59.845434199909" lon="17.712119197367">
        <ele>8.6</ele>
        <time>2017-10-15T14:49:20Z</time>
      </trkpt>
      <trkpt lat="59.845488011707" lon="17.712115257874">
        <ele>8.6</ele>
        <time>2017-10-15T14:49:21Z</time>
      </trkpt>
      <trkpt lat="59.845537967831" lon="17.712125483792">
        <ele>8.6</ele>
        <time>2017-10-15T14:49:22Z</time>
      </trkpt>
      <trkpt lat="59.845586750489" lon="17.71215247351">
        <ele>8.4</ele>
        <time>2017-10-15T14:49:23Z</time>
      </trkpt>
      <trkpt lat="59.845621954469" lon="17.712238052709">
        <ele>8.4</ele>
        <time>2017-10-15T14:49:24Z</time>
      </trkpt>
      <trkpt lat="59.845669396023" lon="17.712295301086">
        <ele>8.6</ele>
        <time>2017-10-15T14:49:25Z</time>
      </trkpt>
      <trkpt lat="59.845722621088" lon="17.712343748468">
        <ele>8.6</ele>
        <time>2017-10-15T14:49:26Z</time>
      </trkpt>
      <trkpt lat="59.84579202322" lon="17.712321704071">
        <ele>8.6</ele>
        <time>2017-10-15T14:49:27Z</time>
      </trkpt>
      <trkpt lat="59.845859246058" lon="17.712307873936">
        <ele>8.4</ele>
        <time>2017-10-15T14:49:28Z</time>
      </trkpt>
      <trkpt lat="59.845929067285" lon="17.712302677158">
        <ele>8.4</ele>
        <time>2017-10-15T14:49:29Z</time>
      </trkpt>
      <trkpt lat="59.846003582376" lon="17.712301168416">
        <ele>8</ele>
        <time>2017-10-15T14:49:30Z</time>
      </trkpt>
      <trkpt lat="59.846095448" lon="17.712272502318">
        <ele>7.2</ele>
        <time>2017-10-15T14:49:31Z</time>
      </trkpt>
      <trkpt lat="59.846168454349" lon="17.71225221812">
        <ele>6.8</ele>
        <time>2017-10-15T14:49:32Z</time>
      </trkpt>
      <trkpt lat="59.846462239944" lon="17.712160268677">
        <ele>6.2</ele>
        <time>2017-10-15T14:49:36Z</time>
      </trkpt>
      <trkpt lat="59.846558799432" lon="17.712133446597">
        <ele>6</ele>
        <time>2017-10-15T14:49:37Z</time>
      </trkpt>
      <trkpt lat="59.846629207392" lon="17.712120706109">
        <ele>6.2</ele>
        <time>2017-10-15T14:49:38Z</time>
      </trkpt>
      <trkpt lat="59.846695759678" lon="17.712111569838">
        <ele>6.2</ele>
        <time>2017-10-15T14:49:39Z</time>
      </trkpt>
      <trkpt lat="59.846755271168" lon="17.712113497675">
        <ele>6.2</ele>
        <time>2017-10-15T14:49:40Z</time>
      </trkpt>
      <trkpt lat="59.846813273916" lon="17.712115341693">
        <ele>6.6</ele>
        <time>2017-10-15T14:49:41Z</time>
      </trkpt>
      <trkpt lat="59.846858284719" lon="17.712107127431">
        <ele>7</ele>
        <time>2017-10-15T14:49:42Z</time>
      </trkpt>
      <trkpt lat="59.846901367685" lon="17.712085502129">
        <ele>7.2</ele>
        <time>2017-10-15T14:49:43Z</time>
      </trkpt>
      <trkpt lat="59.84692274153" lon="17.71204853795">
        <ele>7.6</ele>
        <time>2017-10-15T14:49:44Z</time>
      </trkpt>
      <trkpt lat="59.846951742904" lon="17.712045604285">
        <ele>7.8</ele>
        <time>2017-10-15T14:49:45Z</time>
      </trkpt>
      <trkpt lat="59.846981498649" lon="17.712055578746">
        <ele>8</ele>
        <time>2017-10-15T14:49:46Z</time>
      </trkpt>
      <trkpt lat="59.847002956313" lon="17.712079467161">
        <ele>8.4</ele>
        <time>2017-10-15T14:49:47Z</time>
      </trkpt>
      <trkpt lat="59.847026090357" lon="17.712074689478">
        <ele>8.8</ele>
        <time>2017-10-15T14:49:48Z</time>
      </trkpt>
      <trkpt lat="59.84703924994" lon="17.712050381968">
        <ele>8.8</ele>
        <time>2017-10-15T14:49:49Z</time>
      </trkpt>
      <trkpt lat="59.847037322103" lon="17.712015680902">
        <ele>9</ele>
        <time>2017-10-15T14:49:50Z</time>
      </trkpt>
      <trkpt lat="59.847029778393" lon="17.711979387275">
        <ele>9</ele>
        <time>2017-10-15T14:49:51Z</time>
      </trkpt>
      <trkpt lat="59.847012763136" lon="17.711939321793">
        <ele>8.8</ele>
        <time>2017-10-15T14:49:52Z</time>
      </trkpt>
      <trkpt lat="59.846999435915" lon="17.711900765053">
        <ele>8.6</ele>
        <time>2017-10-15T14:49:53Z</time>
      </trkpt>
      <trkpt lat="59.84698141483" lon="17.711859023191">
        <ele>8.4</ele>
        <time>2017-10-15T14:49:54Z</time>
      </trkpt>
      <trkpt lat="59.846959873347" lon="17.71182474122">
        <ele>8.4</ele>
        <time>2017-10-15T14:49:55Z</time>
      </trkpt>
      <trkpt lat="59.846936739303" lon="17.711793812009">
        <ele>8.6</ele>
        <time>2017-10-15T14:49:56Z</time>
      </trkpt>
      <trkpt lat="59.84689759583" lon="17.711767828119">
        <ele>8.6</ele>
        <time>2017-10-15T14:49:57Z</time>
      </trkpt>
      <trkpt lat="59.846863313859" lon="17.711737653279">
        <ele>8.8</ele>
        <time>2017-10-15T14:49:58Z</time>
      </trkpt>
      <trkpt lat="59.846824589481" lon="17.711699180358">
        <ele>8.8</ele>
        <time>2017-10-15T14:49:59Z</time>
      </trkpt>
      <trkpt lat="59.846776812651" lon="17.711663557283">
        <ele>8.8</ele>
        <time>2017-10-15T14:50:00Z</time>
      </trkpt>
      <trkpt lat="59.846734232599" lon="17.711635813194">
        <ele>8.8</ele>
        <time>2017-10-15T14:50:01Z</time>
      </trkpt>
      <trkpt lat="59.846686874864" lon="17.711610751313">
        <ele>8.6</ele>
        <time>2017-10-15T14:50:02Z</time>
      </trkpt>
      <trkpt lat="59.846640103862" lon="17.711587198174">
        <ele>8.4</ele>
        <time>2017-10-15T14:50:03Z</time>
      </trkpt>
      <trkpt lat="59.846592829946" lon="17.71156825508">
        <ele>8.4</ele>
        <time>2017-10-15T14:50:04Z</time>
      </trkpt>
      <trkpt lat="59.846545807487" lon="17.711553251479">
        <ele>8.2</ele>
        <time>2017-10-15T14:50:05Z</time>
      </trkpt>
      <trkpt lat="59.846503981806" lon="17.711548306158">
        <ele>8.2</ele>
        <time>2017-10-15T14:50:06Z</time>
      </trkpt>
      <trkpt lat="59.846449331818" lon="17.711534140747">
        <ele>8</ele>
        <time>2017-10-15T14:50:07Z</time>
      </trkpt>
      <trkpt lat="59.84640474011" lon="17.711512850721">
        <ele>8</ele>
        <time>2017-10-15T14:50:08Z</time>
      </trkpt>
      <trkpt lat="59.846364171714" lon="17.711475886542">
        <ele>8.2</ele>
        <time>2017-10-15T14:50:09Z</time>
      </trkpt>
      <trkpt lat="59.846330476476" lon="17.711420398364">
        <ele>8.2</ele>
        <time>2017-10-15T14:50:10Z</time>
      </trkpt>
      <trkpt lat="59.846301391283" lon="17.711357450295">
        <ele>8.4</ele>
        <time>2017-10-15T14:50:11Z</time>
      </trkpt>
      <trkpt lat="59.846282867284" lon="17.711277151693">
        <ele>8.6</ele>
        <time>2017-10-15T14:50:12Z</time>
      </trkpt>
      <trkpt lat="59.846264846199" lon="17.711196853091">
        <ele>8.8</ele>
        <time>2017-10-15T14:50:13Z</time>
      </trkpt>
      <trkpt lat="59.846261828715" lon="17.711095767377">
        <ele>9</ele>
        <time>2017-10-15T14:50:14Z</time>
      </trkpt>
      <trkpt lat="59.846258559774" lon="17.710996693319">
        <ele>9.4</ele>
        <time>2017-10-15T14:50:15Z</time>
      </trkpt>
      <trkpt lat="59.846255458471" lon="17.710896781071">
        <ele>9.6</ele>
        <time>2017-10-15T14:50:16Z</time>
      </trkpt>
      <trkpt lat="59.846252440987" lon="17.710802317058">
        <ele>9.6</ele>
        <time>2017-10-15T14:50:17Z</time>
      </trkpt>
      <trkpt lat="59.846244981096" lon="17.710689999598">
        <ele>9.6</ele>
        <time>2017-10-15T14:50:18Z</time>
      </trkpt>
      <trkpt lat="59.846239784318" lon="17.71058505821">
        <ele>9.6</ele>
        <time>2017-10-15T14:50:19Z</time>
      </trkpt>
      <trkpt lat="59.846234922816" lon="17.710479865365">
        <ele>9.6</ele>
        <time>2017-10-15T14:50:20Z</time>
      </trkpt>
      <trkpt lat="59.846230815685" lon="17.710371906493">
        <ele>9.6</ele>
        <time>2017-10-15T14:50:21Z</time>
      </trkpt>
      <trkpt lat="59.846225451269" lon="17.710255565721">
        <ele>9.4</ele>
        <time>2017-10-15T14:50:22Z</time>
      </trkpt>
      <trkpt lat="59.846220422129" lon="17.710144421727">
        <ele>9.4</ele>
        <time>2017-10-15T14:50:23Z</time>
      </trkpt>
      <trkpt lat="59.846209860935" lon="17.710030763163">
        <ele>9.2</ele>
        <time>2017-10-15T14:50:24Z</time>
      </trkpt>
      <trkpt lat="59.846198293913" lon="17.709915176762">
        <ele>9.2</ele>
        <time>2017-10-15T14:50:25Z</time>
      </trkpt>
      <trkpt lat="59.846185469606" lon="17.70980218875">
        <ele>9</ele>
        <time>2017-10-15T14:50:26Z</time>
      </trkpt>
      <trkpt lat="59.846173818765" lon="17.709687440539">
        <ele>8.8</ele>
        <time>2017-10-15T14:50:27Z</time>
      </trkpt>
      <trkpt lat="59.846162670838" lon="17.709574452527">
        <ele>8.8</ele>
        <time>2017-10-15T14:50:28Z</time>
      </trkpt>
      <trkpt lat="59.846152947834" lon="17.709467331845">
        <ele>8.6</ele>
        <time>2017-10-15T14:50:29Z</time>
      </trkpt>
      <trkpt lat="59.84614657759" lon="17.709346129571">
        <ele>8.4</ele>
        <time>2017-10-15T14:50:30Z</time>
      </trkpt>
      <trkpt lat="59.846140877898" lon="17.709234817939">
        <ele>8.4</ele>
        <time>2017-10-15T14:50:31Z</time>
      </trkpt>
      <trkpt lat="59.846135262025" lon="17.709125182687">
        <ele>8.4</ele>
        <time>2017-10-15T14:50:32Z</time>
      </trkpt>
      <trkpt lat="59.846129227057" lon="17.709014709245">
        <ele>8.4</ele>
        <time>2017-10-15T14:50:33Z</time>
      </trkpt>
      <trkpt lat="59.846123778822" lon="17.708903732889">
        <ele>8.6</ele>
        <time>2017-10-15T14:50:34Z</time>
      </trkpt>
      <trkpt lat="59.84611891732" lon="17.708792002162">
        <ele>8.6</ele>
        <time>2017-10-15T14:50:35Z</time>
      </trkpt>
      <trkpt lat="59.846114055818" lon="17.708693514837">
        <ele>8.6</ele>
        <time>2017-10-15T14:50:36Z</time>
      </trkpt>
      <trkpt lat="59.846105422461" lon="17.708558566247">
        <ele>8.6</ele>
        <time>2017-10-15T14:50:37Z</time>
      </trkpt>
      <trkpt lat="59.84609963895" lon="17.708441303466">
        <ele>8.6</ele>
        <time>2017-10-15T14:50:38Z</time>
      </trkpt>
      <trkpt lat="59.846095615638" lon="17.708322448124">
        <ele>8.6</ele>
        <time>2017-10-15T14:50:39Z</time>
      </trkpt>
      <trkpt lat="59.846091927602" lon="17.708201497307">
        <ele>8.4</ele>
        <time>2017-10-15T14:50:40Z</time>
      </trkpt>
      <trkpt lat="59.846088071928" lon="17.708081552318">
        <ele>8.2</ele>
        <time>2017-10-15T14:50:41Z</time>
      </trkpt>
      <trkpt lat="59.846086479367" lon="17.707957164922">
        <ele>8</ele>
        <time>2017-10-15T14:50:42Z</time>
      </trkpt>
      <trkpt lat="59.846081785503" lon="17.707834202449">
        <ele>8</ele>
        <time>2017-10-15T14:50:43Z</time>
      </trkpt>
      <trkpt lat="59.846073990336" lon="17.707706797569">
        <ele>8</ele>
        <time>2017-10-15T14:50:44Z</time>
      </trkpt>
      <trkpt lat="59.846065859893" lon="17.70757763249">
        <ele>7.8</ele>
        <time>2017-10-15T14:50:45Z</time>
      </trkpt>
      <trkpt lat="59.84605772945" lon="17.707448970325">
        <ele>7.8</ele>
        <time>2017-10-15T14:50:46Z</time>
      </trkpt>
      <trkpt lat="59.846050940111" lon="17.707325253481">
        <ele>7.8</ele>
        <time>2017-10-15T14:50:47Z</time>
      </trkpt>
      <trkpt lat="59.846044905143" lon="17.707182928819">
        <ele>7.4</ele>
        <time>2017-10-15T14:50:48Z</time>
      </trkpt>
      <trkpt lat="59.846038786356" lon="17.707049656609">
        <ele>7.2</ele>
        <time>2017-10-15T14:50:49Z</time>
      </trkpt>
      <trkpt lat="59.846032416112" lon="17.706916635856">
        <ele>7</ele>
        <time>2017-10-15T14:50:50Z</time>
      </trkpt>
      <trkpt lat="59.846026548782" lon="17.706784034198">
        <ele>6.8</ele>
        <time>2017-10-15T14:50:51Z</time>
      </trkpt>
      <trkpt lat="59.846019340348" lon="17.706655372033">
        <ele>6.6</ele>
        <time>2017-10-15T14:50:52Z</time>
      </trkpt>
      <trkpt lat="59.846012886285" lon="17.706528721524">
        <ele>6.4</ele>
        <time>2017-10-15T14:50:53Z</time>
      </trkpt>
      <trkpt lat="59.846006851317" lon="17.706406261965">
        <ele>6.2</ele>
        <time>2017-10-15T14:50:54Z</time>
      </trkpt>
      <trkpt lat="59.846000648711" lon="17.706286233157">
        <ele>6</ele>
        <time>2017-10-15T14:50:55Z</time>
      </trkpt>
      <trkpt lat="59.845994613743" lon="17.706169138014">
        <ele>6</ele>
        <time>2017-10-15T14:50:56Z</time>
      </trkpt>
      <trkpt lat="59.845985896567" lon="17.706058413115">
        <ele>6</ele>
        <time>2017-10-15T14:50:57Z</time>
      </trkpt>
      <trkpt lat="59.845978520495" lon="17.705947855854">
        <ele>6</ele>
        <time>2017-10-15T14:50:58Z</time>
      </trkpt>
      <trkpt lat="59.845976005925" lon="17.7058501229">
        <ele>6</ele>
        <time>2017-10-15T14:50:59Z</time>
      </trkpt>
      <trkpt lat="59.845989584603" lon="17.705750713566">
        <ele>5.8</ele>
        <time>2017-10-15T14:51:00Z</time>
      </trkpt>
      <trkpt lat="59.846009282068" lon="17.705664631453">
        <ele>5.8</ele>
        <time>2017-10-15T14:51:01Z</time>
      </trkpt>
      <trkpt lat="59.846059992563" lon="17.705647364739">
        <ele>5.8</ele>
        <time>2017-10-15T14:51:02Z</time>
      </trkpt>
      <trkpt lat="59.846096872923" lon="17.705616854623">
        <ele>5.8</ele>
        <time>2017-10-15T14:51:03Z</time>
      </trkpt>
      <trkpt lat="59.846114391094" lon="17.705564803024">
        <ele>5.6</ele>
        <time>2017-10-15T14:51:04Z</time>
      </trkpt>
      <trkpt lat="59.846120174605" lon="17.705502693145">
        <ele>5.6</ele>
        <time>2017-10-15T14:51:05Z</time>
      </trkpt>
      <trkpt lat="59.846096453828" lon="17.705467572984">
        <ele>5.4</ele>
        <time>2017-10-15T14:51:06Z</time>
      </trkpt>
      <trkpt lat="59.846053706138" lon="17.705463130577">
        <ele>5.4</ele>
        <time>2017-10-15T14:51:07Z</time>
      </trkpt>
      <trkpt lat="59.846019507986" lon="17.705448881347">
        <ele>5.2</ele>
        <time>2017-10-15T14:51:08Z</time>
      </trkpt>
      <trkpt lat="59.845988327318" lon="17.705413090634">
        <ele>5</ele>
        <time>2017-10-15T14:51:09Z</time>
      </trkpt>
      <trkpt lat="59.845966282921" lon="17.705350645479">
        <ele>4.8</ele>
        <time>2017-10-15T14:51:10Z</time>
      </trkpt>
      <trkpt lat="59.845951698415" lon="17.705277555311">
        <ele>5</ele>
        <time>2017-10-15T14:51:11Z</time>
      </trkpt>
      <trkpt lat="59.845954548261" lon="17.705190215913">
        <ele>5</ele>
        <time>2017-10-15T14:51:12Z</time>
      </trkpt>
      <trkpt lat="59.845953374795" lon="17.705105307266">
        <ele>5.2</ele>
        <time>2017-10-15T14:51:13Z</time>
      </trkpt>
      <trkpt lat="59.845951446958" lon="17.705011849081">
        <ele>5.4</ele>
        <time>2017-10-15T14:51:14Z</time>
      </trkpt>
      <trkpt lat="59.84595379389" lon="17.704916127783">
        <ele>5.4</ele>
        <time>2017-10-15T14:51:15Z</time>
      </trkpt>
      <trkpt lat="59.84595798484" lon="17.704821244675">
        <ele>5.4</ele>
        <time>2017-10-15T14:51:16Z</time>
      </trkpt>
      <trkpt lat="59.845959745039" lon="17.704732228897">
        <ele>5.4</ele>
        <time>2017-10-15T14:51:17Z</time>
      </trkpt>
      <trkpt lat="59.845950105854" lon="17.704625275853">
        <ele>5.4</ele>
        <time>2017-10-15T14:51:18Z</time>
      </trkpt>
      <trkpt lat="59.845939209384" lon="17.704523603406">
        <ele>5.4</ele>
        <time>2017-10-15T14:51:19Z</time>
      </trkpt>
      <trkpt lat="59.845927139448" lon="17.704423104425">
        <ele>5.4</ele>
        <time>2017-10-15T14:51:20Z</time>
      </trkpt>
      <trkpt lat="59.845915572426" lon="17.704319839417">
        <ele>5.2</ele>
        <time>2017-10-15T14:51:21Z</time>
      </trkpt>
      <trkpt lat="59.845908699268" lon="17.704206264672">
        <ele>5.2</ele>
        <time>2017-10-15T14:51:22Z</time>
      </trkpt>
      <trkpt lat="59.845902915757" lon="17.704096545601">
        <ele>5</ele>
        <time>2017-10-15T14:51:23Z</time>
      </trkpt>
      <trkpt lat="59.845897970436" lon="17.703981043019">
        <ele>5</ele>
        <time>2017-10-15T14:51:24Z</time>
      </trkpt>
      <trkpt lat="59.845893276572" lon="17.703864199333">
        <ele>5</ele>
        <time>2017-10-15T14:51:25Z</time>
      </trkpt>
      <trkpt lat="59.845888917984" lon="17.703747188009">
        <ele>5</ele>
        <time>2017-10-15T14:51:26Z</time>
      </trkpt>
      <trkpt lat="59.845884559396" lon="17.703626488649">
        <ele>4.8</ele>
        <time>2017-10-15T14:51:27Z</time>
      </trkpt>
      <trkpt lat="59.845881961007" lon="17.703506124565">
        <ele>4.8</ele>
        <time>2017-10-15T14:51:28Z</time>
      </trkpt>
      <trkpt lat="59.845884978491" lon="17.703395483485">
        <ele>4.6</ele>
        <time>2017-10-15T14:51:29Z</time>
      </trkpt>
      <trkpt lat="59.845883972663" lon="17.703269168252">
        <ele>4.4</ele>
        <time>2017-10-15T14:51:30Z</time>
      </trkpt>
      <trkpt lat="59.845882966835" lon="17.703154671498">
        <ele>4.2</ele>
        <time>2017-10-15T14:51:31Z</time>
      </trkpt>
      <trkpt lat="59.845878692066" lon="17.703046628807">
        <ele>4</ele>
        <time>2017-10-15T14:51:32Z</time>
      </trkpt>
      <trkpt lat="59.845871315994" lon="17.702938418478">
        <ele>4</ele>
        <time>2017-10-15T14:51:33Z</time>
      </trkpt>
      <trkpt lat="59.845860587162" lon="17.702831884529">
        <ele>3.8</ele>
        <time>2017-10-15T14:51:34Z</time>
      </trkpt>
      <trkpt lat="59.845848852502" lon="17.702727948969">
        <ele>3.8</ele>
        <time>2017-10-15T14:51:35Z</time>
      </trkpt>
      <trkpt lat="59.845839129498" lon="17.702640441933">
        <ele>3.8</ele>
        <time>2017-10-15T14:51:36Z</time>
      </trkpt>
      <trkpt lat="59.845815995454" lon="17.702528040654">
        <ele>4</ele>
        <time>2017-10-15T14:51:37Z</time>
      </trkpt>
      <trkpt lat="59.845793783419" lon="17.702433576641">
        <ele>4</ele>
        <time>2017-10-15T14:51:38Z</time>
      </trkpt>
      <trkpt lat="59.845770733194" lon="17.702341208103">
        <ele>4</ele>
        <time>2017-10-15T14:51:39Z</time>
      </trkpt>
      <trkpt lat="59.845746341865" lon="17.702252779058">
        <ele>4.2</ele>
        <time>2017-10-15T14:51:40Z</time>
      </trkpt>
      <trkpt lat="59.845721196165" lon="17.702166194031">
        <ele>4.2</ele>
        <time>2017-10-15T14:51:41Z</time>
      </trkpt>
      <trkpt lat="59.845688255298" lon="17.70208329704">
        <ele>4</ele>
        <time>2017-10-15T14:51:42Z</time>
      </trkpt>
      <trkpt lat="59.845656571716" lon="17.702001322058">
        <ele>4.2</ele>
        <time>2017-10-15T14:51:43Z</time>
      </trkpt>
      <trkpt lat="59.845619188442" lon="17.701922280741">
        <ele>4</ele>
        <time>2017-10-15T14:51:44Z</time>
      </trkpt>
      <trkpt lat="59.845583397729" lon="17.701842149777">
        <ele>4</ele>
        <time>2017-10-15T14:51:45Z</time>
      </trkpt>
      <trkpt lat="59.845548529025" lon="17.701761767356">
        <ele>4</ele>
        <time>2017-10-15T14:51:46Z</time>
      </trkpt>
      <trkpt lat="59.845515252882" lon="17.701685575885">
        <ele>4</ele>
        <time>2017-10-15T14:51:47Z</time>
      </trkpt>
      <trkpt lat="59.845478204884" lon="17.701601002514">
        <ele>4</ele>
        <time>2017-10-15T14:51:48Z</time>
      </trkpt>
      <trkpt lat="59.845452472451" lon="17.701502682827">
        <ele>4</ele>
        <time>2017-10-15T14:51:49Z</time>
      </trkpt>
      <trkpt lat="59.845433780814" lon="17.701402770579">
        <ele>4</ele>
        <time>2017-10-15T14:51:50Z</time>
      </trkpt>
      <trkpt lat="59.84541902867" lon="17.701300846675">
        <ele>4</ele>
        <time>2017-10-15T14:51:51Z</time>
      </trkpt>
      <trkpt lat="59.845422465249" lon="17.701189618862">
        <ele>3.8</ele>
        <time>2017-10-15T14:51:52Z</time>
      </trkpt>
      <trkpt lat="59.845425063638" lon="17.701081240895">
        <ele>3.8</ele>
        <time>2017-10-15T14:51:53Z</time>
      </trkpt>
      <trkpt lat="59.845446521302" lon="17.700978814077">
        <ele>3.8</ele>
        <time>2017-10-15T14:51:54Z</time>
      </trkpt>
      <trkpt lat="59.84546932007" lon="17.700877812182">
        <ele>4</ele>
        <time>2017-10-15T14:51:55Z</time>
      </trkpt>
      <trkpt lat="59.84549362758" lon="17.700779995409">
        <ele>4.2</ele>
        <time>2017-10-15T14:51:56Z</time>
      </trkpt>
      <trkpt lat="59.845522545135" lon="17.700686537224">
        <ele>4.4</ele>
        <time>2017-10-15T14:51:57Z</time>
      </trkpt>
      <trkpt lat="59.845551881785" lon="17.700595928885">
        <ele>4.4</ele>
        <time>2017-10-15T14:51:58Z</time>
      </trkpt>
      <trkpt lat="59.845581888987" lon="17.700512948075">
        <ele>4.6</ele>
        <time>2017-10-15T14:51:59Z</time>
      </trkpt>
      <trkpt lat="59.845622122107" lon="17.700429212894">
        <ele>4.6</ele>
        <time>2017-10-15T14:52:00Z</time>
      </trkpt>
      <trkpt lat="59.845660259752" lon="17.700351093586">
        <ele>4.6</ele>
        <time>2017-10-15T14:52:01Z</time>
      </trkpt>
      <trkpt lat="59.845707617487" lon="17.700288648431">
        <ele>4.8</ele>
        <time>2017-10-15T14:52:02Z</time>
      </trkpt>
      <trkpt lat="59.845753717937" lon="17.70022754438">
        <ele>5</ele>
        <time>2017-10-15T14:52:03Z</time>
      </trkpt>
      <trkpt lat="59.845801327129" lon="17.700170212184">
        <ele>5</ele>
        <time>2017-10-15T14:52:04Z</time>
      </trkpt>
      <trkpt lat="59.845848684864" lon="17.700114891644">
        <ele>5</ele>
        <time>2017-10-15T14:52:05Z</time>
      </trkpt>
      <trkpt lat="59.845888666527" lon="17.700061666579">
        <ele>5</ele>
        <time>2017-10-15T14:52:06Z</time>
      </trkpt>
      <trkpt lat="59.845943651791" lon="17.699997293587">
        <ele>5.2</ele>
        <time>2017-10-15T14:52:07Z</time>
      </trkpt>
      <trkpt lat="59.84599151244" lon="17.699942978875">
        <ele>5.2</ele>
        <time>2017-10-15T14:52:08Z</time>
      </trkpt>
      <trkpt lat="59.846039708365" lon="17.699886065774">
        <ele>5.2</ele>
        <time>2017-10-15T14:52:09Z</time>
      </trkpt>
      <trkpt lat="59.846085557358" lon="17.699826302827">
        <ele>5.2</ele>
        <time>2017-10-15T14:52:10Z</time>
      </trkpt>
      <trkpt lat="59.846130065247" lon="17.699765114957">
        <ele>5.2</ele>
        <time>2017-10-15T14:52:11Z</time>
      </trkpt>
      <trkpt lat="59.84616920872" lon="17.699712225168">
        <ele>5.2</ele>
        <time>2017-10-15T14:52:12Z</time>
      </trkpt>
      <trkpt lat="59.846220757405" lon="17.699653132773">
        <ele>5.2</ele>
        <time>2017-10-15T14:52:13Z</time>
      </trkpt>
      <trkpt lat="59.84626643876" lon="17.699598315147">
        <ele>5.2</ele>
        <time>2017-10-15T14:52:14Z</time>
      </trkpt>
      <trkpt lat="59.846311114287" lon="17.69954190496">
        <ele>5.2</ele>
        <time>2017-10-15T14:52:15Z</time>
      </trkpt>
      <trkpt lat="59.846354783986" lon="17.699485075678">
        <ele>5.2</ele>
        <time>2017-10-15T14:52:16Z</time>
      </trkpt>
      <trkpt lat="59.846396442029" lon="17.699435622468">
        <ele>5.4</ele>
        <time>2017-10-15T14:52:17Z</time>
      </trkpt>
      <trkpt lat="59.846443464488" lon="17.699372674399">
        <ele>5.4</ele>
        <time>2017-10-15T14:52:18Z</time>
      </trkpt>
      <trkpt lat="59.846487134187" lon="17.699314839289">
        <ele>5.6</ele>
        <time>2017-10-15T14:52:19Z</time>
      </trkpt>
      <trkpt lat="59.846534911017" lon="17.699256249808">
        <ele>5.6</ele>
        <time>2017-10-15T14:52:20Z</time>
      </trkpt>
      <trkpt lat="59.846581682019" lon="17.699198163241">
        <ele>5.8</ele>
        <time>2017-10-15T14:52:21Z</time>
      </trkpt>
      <trkpt lat="59.846629039754" lon="17.699135634267">
        <ele>5.6</ele>
        <time>2017-10-15T14:52:22Z</time>
      </trkpt>
      <trkpt lat="59.846676229851" lon="17.699075619863">
        <ele>5.6</ele>
        <time>2017-10-15T14:52:23Z</time>
      </trkpt>
      <trkpt lat="59.846725096328" lon="17.699014515812">
        <ele>5.6</ele>
        <time>2017-10-15T14:52:24Z</time>
      </trkpt>
      <trkpt lat="59.846773459891" lon="17.698954249951">
        <ele>5.4</ele>
        <time>2017-10-15T14:52:25Z</time>
      </trkpt>
      <trkpt lat="59.846821488178" lon="17.698894235547">
        <ele>5.4</ele>
        <time>2017-10-15T14:52:26Z</time>
      </trkpt>
      <trkpt lat="59.846872031035" lon="17.698842435405">
        <ele>5.4</ele>
        <time>2017-10-15T14:52:27Z</time>
      </trkpt>
      <trkpt lat="59.846921819521" lon="17.698790216168">
        <ele>5.4</ele>
        <time>2017-10-15T14:52:28Z</time>
      </trkpt>
      <trkpt lat="59.846965824496" lon="17.698732716334">
        <ele>5.4</ele>
        <time>2017-10-15T14:52:29Z</time>
      </trkpt>
      <trkpt lat="59.84701578062" lon="17.698665828772">
        <ele>5.4</ele>
        <time>2017-10-15T14:52:30Z</time>
      </trkpt>
      <trkpt lat="59.847062383984" lon="17.698602713065">
        <ele>5.4</ele>
        <time>2017-10-15T14:52:31Z</time>
      </trkpt>
      <trkpt lat="59.84710714333" lon="17.698543117756">
        <ele>5.6</ele>
        <time>2017-10-15T14:52:32Z</time>
      </trkpt>
      <trkpt lat="59.847159194929" lon="17.698476481651">
        <ele>5.6</ele>
        <time>2017-10-15T14:52:33Z</time>
      </trkpt>
      <trkpt lat="59.84720688794" lon="17.698414623229">
        <ele>5.8</ele>
        <time>2017-10-15T14:52:34Z</time>
      </trkpt>
      <trkpt lat="59.847254580951" lon="17.698351339884">
        <ele>5.8</ele>
        <time>2017-10-15T14:52:35Z</time>
      </trkpt>
      <trkpt lat="59.847299005021" lon="17.698294510602">
        <ele>5.8</ele>
        <time>2017-10-15T14:52:36Z</time>
      </trkpt>
      <trkpt lat="59.847350637525" lon="17.698229550877">
        <ele>5.8</ele>
        <time>2017-10-15T14:52:37Z</time>
      </trkpt>
      <trkpt lat="59.847400677468" lon="17.698169117378">
        <ele>5.8</ele>
        <time>2017-10-15T14:52:38Z</time>
      </trkpt>
      <trkpt lat="59.847451052687" lon="17.698110108802">
        <ele>5.8</ele>
        <time>2017-10-15T14:52:39Z</time>
      </trkpt>
      <trkpt lat="59.847502266096" lon="17.698051100226">
        <ele>6</ele>
        <time>2017-10-15T14:52:40Z</time>
      </trkpt>
      <trkpt lat="59.847553479505" lon="17.697993600392">
        <ele>6</ele>
        <time>2017-10-15T14:52:41Z</time>
      </trkpt>
      <trkpt lat="59.847605531104" lon="17.697932077246">
        <ele>6.2</ele>
        <time>2017-10-15T14:52:42Z</time>
      </trkpt>
      <trkpt lat="59.847656576875" lon="17.697872062842">
        <ele>6.2</ele>
        <time>2017-10-15T14:52:43Z</time>
      </trkpt>
      <trkpt lat="59.847706868275" lon="17.697810036782">
        <ele>6.2</ele>
        <time>2017-10-15T14:52:44Z</time>
      </trkpt>
      <trkpt lat="59.847757159675" lon="17.697747088713">
        <ele>6.2</ele>
        <time>2017-10-15T14:52:45Z</time>
      </trkpt>
      <trkpt lat="59.847806948161" lon="17.69768363773">
        <ele>6.2</ele>
        <time>2017-10-15T14:52:46Z</time>
      </trkpt>
      <trkpt lat="59.847855227905" lon="17.697623120412">
        <ele>6.2</ele>
        <time>2017-10-15T14:52:47Z</time>
      </trkpt>
      <trkpt lat="59.84790929116" lon="17.697556903402">
        <ele>6</ele>
        <time>2017-10-15T14:52:48Z</time>
      </trkpt>
      <trkpt lat="59.847959834017" lon="17.697496218446">
        <ele>6</ele>
        <time>2017-10-15T14:52:49Z</time>
      </trkpt>
      <trkpt lat="59.848010209236" lon="17.697435198214">
        <ele>5.8</ele>
        <time>2017-10-15T14:52:50Z</time>
      </trkpt>
      <trkpt lat="59.84806016536" lon="17.697373423611">
        <ele>5.8</ele>
        <time>2017-10-15T14:52:51Z</time>
      </trkpt>
      <trkpt lat="59.848111462588" lon="17.697305446402">
        <ele>5.8</ele>
        <time>2017-10-15T14:52:52Z</time>
      </trkpt>
      <trkpt lat="59.848162843635" lon="17.697243168885">
        <ele>5.8</ele>
        <time>2017-10-15T14:52:53Z</time>
      </trkpt>
      <trkpt lat="59.848217493623" lon="17.697174437305">
        <ele>5.8</ele>
        <time>2017-10-15T14:52:54Z</time>
      </trkpt>
      <trkpt lat="59.848267533566" lon="17.697114339082">
        <ele>5.8</ele>
        <time>2017-10-15T14:52:55Z</time>
      </trkpt>
      <trkpt lat="59.848319585165" lon="17.697054492316">
        <ele>5.8</ele>
        <time>2017-10-15T14:52:56Z</time>
      </trkpt>
      <trkpt lat="59.84837364842" lon="17.697010487341">
        <ele>6</ele>
        <time>2017-10-15T14:52:57Z</time>
      </trkpt>
      <trkpt lat="59.848429639512" lon="17.696966482366">
        <ele>6</ele>
        <time>2017-10-15T14:52:58Z</time>
      </trkpt>
      <trkpt lat="59.848479092722" lon="17.696920968649">
        <ele>6</ele>
        <time>2017-10-15T14:52:59Z</time>
      </trkpt>
      <trkpt lat="59.848531060502" lon="17.696856428019">
        <ele>6</ele>
        <time>2017-10-15T14:53:00Z</time>
      </trkpt>
      <trkpt lat="59.848580262255" lon="17.696799850194">
        <ele>5.8</ele>
        <time>2017-10-15T14:53:01Z</time>
      </trkpt>
      <trkpt lat="59.848627117076" lon="17.696741595989">
        <ele>6</ele>
        <time>2017-10-15T14:53:02Z</time>
      </trkpt>
      <trkpt lat="59.848671708784" lon="17.696685018164">
        <ele>6</ele>
        <time>2017-10-15T14:53:03Z</time>
      </trkpt>
      <trkpt lat="59.848712863913" lon="17.696626344864">
        <ele>6.2</ele>
        <time>2017-10-15T14:53:04Z</time>
      </trkpt>
      <trkpt lat="59.8487525103" lon="17.696568593573">
        <ele>6.2</ele>
        <time>2017-10-15T14:53:05Z</time>
      </trkpt>
      <trkpt lat="59.848782601321" lon="17.696518721268">
        <ele>6.6</ele>
        <time>2017-10-15T14:53:06Z</time>
      </trkpt>
      <trkpt lat="59.848817637663" lon="17.696450911697">
        <ele>6.8</ele>
        <time>2017-10-15T14:53:07Z</time>
      </trkpt>
      <trkpt lat="59.84884722577" lon="17.69638863418">
        <ele>7.2</ele>
        <time>2017-10-15T14:53:08Z</time>
      </trkpt>
      <trkpt lat="59.848875975687" lon="17.69632576993">
        <ele>7.4</ele>
        <time>2017-10-15T14:53:09Z</time>
      </trkpt>
      <trkpt lat="59.848905731432" lon="17.696262654223">
        <ele>7.8</ele>
        <time>2017-10-15T14:53:10Z</time>
      </trkpt>
      <trkpt lat="59.848936241548" lon="17.696200544344">
        <ele>7.8</ele>
        <time>2017-10-15T14:53:11Z</time>
      </trkpt>
      <trkpt lat="59.848968176587" lon="17.696140613759">
        <ele>8.2</ele>
        <time>2017-10-15T14:53:12Z</time>
      </trkpt>
      <trkpt lat="59.849000446902" lon="17.696079593527">
        <ele>8.2</ele>
        <time>2017-10-15T14:53:13Z</time>
      </trkpt>
      <trkpt lat="59.849034225959" lon="17.696020501132">
        <ele>8.2</ele>
        <time>2017-10-15T14:53:14Z</time>
      </trkpt>
      <trkpt lat="59.849071273957" lon="17.695964845316">
        <ele>8.4</ele>
        <time>2017-10-15T14:53:15Z</time>
      </trkpt>
      <trkpt lat="59.849109914516" lon="17.695912458441">
        <ele>8.4</ele>
        <time>2017-10-15T14:53:16Z</time>
      </trkpt>
      <trkpt lat="59.849147884523" lon="17.695866525629">
        <ele>8.4</ele>
        <time>2017-10-15T14:53:17Z</time>
      </trkpt>
      <trkpt lat="59.849192308593" lon="17.695807852329">
        <ele>8.6</ele>
        <time>2017-10-15T14:53:18Z</time>
      </trkpt>
      <trkpt lat="59.849233882817" lon="17.695755381635">
        <ele>8.6</ele>
        <time>2017-10-15T14:53:19Z</time>
      </trkpt>
      <trkpt lat="59.849277133421" lon="17.695702743303">
        <ele>8.8</ele>
        <time>2017-10-15T14:53:20Z</time>
      </trkpt>
      <trkpt lat="59.849321138396" lon="17.69565018879">
        <ele>8.8</ele>
        <time>2017-10-15T14:53:21Z</time>
      </trkpt>
      <trkpt lat="59.849371010701" lon="17.695608195471">
        <ele>9</ele>
        <time>2017-10-15T14:53:22Z</time>
      </trkpt>
      <trkpt lat="59.849420380092" lon="17.695569303455">
        <ele>9</ele>
        <time>2017-10-15T14:53:23Z</time>
      </trkpt>
      <trkpt lat="59.849474443347" lon="17.695551533827">
        <ele>9</ele>
        <time>2017-10-15T14:53:24Z</time>
      </trkpt>
      <trkpt lat="59.849528758059" lon="17.695532758371">
        <ele>9</ele>
        <time>2017-10-15T14:53:25Z</time>
      </trkpt>
      <trkpt lat="59.849582988952" lon="17.695515743114">
        <ele>9.2</ele>
        <time>2017-10-15T14:53:26Z</time>
      </trkpt>
      <trkpt lat="59.849638644768" lon="17.695510965431">
        <ele>9.2</ele>
        <time>2017-10-15T14:53:27Z</time>
      </trkpt>
      <trkpt lat="59.849693546213" lon="17.6955068583">
        <ele>9</ele>
        <time>2017-10-15T14:53:28Z</time>
      </trkpt>
      <trkpt lat="59.849744424346" lon="17.695524292652">
        <ele>9</ele>
        <time>2017-10-15T14:53:29Z</time>
      </trkpt>
      <trkpt lat="59.849802846189" lon="17.695552874931">
        <ele>9</ele>
        <time>2017-10-15T14:53:30Z</time>
      </trkpt>
      <trkpt lat="59.849857747634" lon="17.69557810445">
        <ele>9.2</ele>
        <time>2017-10-15T14:53:31Z</time>
      </trkpt>
      <trkpt lat="59.849911475613" lon="17.695615152448">
        <ele>9.2</ele>
        <time>2017-10-15T14:53:32Z</time>
      </trkpt>
      <trkpt lat="59.849966125601" lon="17.695649099143">
        <ele>9.2</ele>
        <time>2017-10-15T14:53:33Z</time>
      </trkpt>
      <trkpt lat="59.850019685942" lon="17.695680866544">
        <ele>9.2</ele>
        <time>2017-10-15T14:53:34Z</time>
      </trkpt>
      <trkpt lat="59.850073246283" lon="17.695710203194">
        <ele>9.2</ele>
        <time>2017-10-15T14:53:35Z</time>
      </trkpt>
      <trkpt lat="59.850122783312" lon="17.69572646408">
        <ele>9.2</ele>
        <time>2017-10-15T14:53:36Z</time>
      </trkpt>
      <trkpt lat="59.850182546259" lon="17.695734762161">
        <ele>9.4</ele>
        <time>2017-10-15T14:53:37Z</time>
      </trkpt>
      <trkpt lat="59.850237531523" lon="17.695741719138">
        <ele>9.4</ele>
        <time>2017-10-15T14:53:38Z</time>
      </trkpt>
      <trkpt lat="59.850292349149" lon="17.695743144061">
        <ele>9.6</ele>
        <time>2017-10-15T14:53:39Z</time>
      </trkpt>
      <trkpt lat="59.850346915318" lon="17.695736606179">
        <ele>9.8</ele>
        <time>2017-10-15T14:53:40Z</time>
      </trkpt>
      <trkpt lat="59.85040123003" lon="17.695725709709">
        <ele>9.8</ele>
        <time>2017-10-15T14:53:41Z</time>
      </trkpt>
      <trkpt lat="59.85045571238" lon="17.695711292841">
        <ele>10</ele>
        <time>2017-10-15T14:53:42Z</time>
      </trkpt>
      <trkpt lat="59.850509691816" lon="17.695699306724">
        <ele>10</ele>
        <time>2017-10-15T14:53:43Z</time>
      </trkpt>
      <trkpt lat="59.850562330148" lon="17.695679357802">
        <ele>10</ele>
        <time>2017-10-15T14:53:44Z</time>
      </trkpt>
      <trkpt lat="59.850615722851" lon="17.69566192345">
        <ele>10.2</ele>
        <time>2017-10-15T14:53:45Z</time>
      </trkpt>
      <trkpt lat="59.85066861264" lon="17.695646165478">
        <ele>10.2</ele>
        <time>2017-10-15T14:53:46Z</time>
      </trkpt>
      <trkpt lat="59.850715299823" lon="17.695628312031">
        <ele>10.2</ele>
        <time>2017-10-15T14:53:47Z</time>
      </trkpt>
      <trkpt lat="59.850767686698" lon="17.695610542403">
        <ele>10.2</ele>
        <time>2017-10-15T14:53:48Z</time>
      </trkpt>
      <trkpt lat="59.850817139908" lon="17.695592688956">
        <ele>10.4</ele>
        <time>2017-10-15T14:53:49Z</time>
      </trkpt>
      <trkpt lat="59.850865000557" lon="17.695576847165">
        <ele>10.6</ele>
        <time>2017-10-15T14:53:50Z</time>
      </trkpt>
      <trkpt lat="59.850911520102" lon="17.695560334822">
        <ele>10.6</ele>
        <time>2017-10-15T14:53:51Z</time>
      </trkpt>
      <trkpt lat="59.850955105982" lon="17.695570476921">
        <ele>10.6</ele>
        <time>2017-10-15T14:53:52Z</time>
      </trkpt>
      <trkpt lat="59.850998272767" lon="17.695582546857">
        <ele>10.8</ele>
        <time>2017-10-15T14:53:53Z</time>
      </trkpt>
      <trkpt lat="59.851031129815" lon="17.695638957044">
        <ele>11</ele>
        <time>2017-10-15T14:53:54Z</time>
      </trkpt>
      <trkpt lat="59.851062981035" lon="17.69568790734">
        <ele>11</ele>
        <time>2017-10-15T14:53:55Z</time>
      </trkpt>
      <trkpt lat="59.85109441316" lon="17.695736773817">
        <ele>11</ele>
        <time>2017-10-15T14:53:56Z</time>
      </trkpt>
      <trkpt lat="59.851130371511" lon="17.695750855409">
        <ele>11</ele>
        <time>2017-10-15T14:53:57Z</time>
      </trkpt>
      <trkpt lat="59.851166329862" lon="17.695756722739">
        <ele>11</ele>
        <time>2017-10-15T14:53:58Z</time>
      </trkpt>
      <trkpt lat="59.851185189137" lon="17.695708107719">
        <ele>11.2</ele>
        <time>2017-10-15T14:53:59Z</time>
      </trkpt>
      <trkpt lat="59.85121092157" lon="17.69565940888">
        <ele>11.2</ele>
        <time>2017-10-15T14:54:00Z</time>
      </trkpt>
      <trkpt lat="59.851237659831" lon="17.695618672846">
        <ele>11.4</ele>
        <time>2017-10-15T14:54:01Z</time>
      </trkpt>
      <trkpt lat="59.851274121096" lon="17.69558313359">
        <ele>11.6</ele>
        <time>2017-10-15T14:54:02Z</time>
      </trkpt>
      <trkpt lat="59.851309744171" lon="17.695540804995">
        <ele>11.6</ele>
        <time>2017-10-15T14:54:03Z</time>
      </trkpt>
      <trkpt lat="59.851348217092" lon="17.695490010681">
        <ele>11.8</ele>
        <time>2017-10-15T14:54:04Z</time>
      </trkpt>
      <trkpt lat="59.851388450212" lon="17.695436115064">
        <ele>12</ele>
        <time>2017-10-15T14:54:05Z</time>
      </trkpt>
      <trkpt lat="59.85142717459" lon="17.695378699049">
        <ele>12</ele>
        <time>2017-10-15T14:54:06Z</time>
      </trkpt>
      <trkpt lat="59.851476543981" lon="17.695324635794">
        <ele>12</ele>
        <time>2017-10-15T14:54:07Z</time>
      </trkpt>
      <trkpt lat="59.851522225336" lon="17.695270740177">
        <ele>11.8</ele>
        <time>2017-10-15T14:54:08Z</time>
      </trkpt>
      <trkpt lat="59.851565308302" lon="17.695211061049">
        <ele>11.6</ele>
        <time>2017-10-15T14:54:09Z</time>
      </trkpt>
      <trkpt lat="59.851609145639" lon="17.695147190971">
        <ele>11.4</ele>
        <time>2017-10-15T14:54:10Z</time>
      </trkpt>
      <trkpt lat="59.85165348589" lon="17.695086170739">
        <ele>11.2</ele>
        <time>2017-10-15T14:54:11Z</time>
      </trkpt>
      <trkpt lat="59.851692964639" lon="17.695042668678">
        <ele>11</ele>
        <time>2017-10-15T14:54:12Z</time>
      </trkpt>
      <trkpt lat="59.851741747297" lon="17.694973015089">
        <ele>11</ele>
        <time>2017-10-15T14:54:13Z</time>
      </trkpt>
      <trkpt lat="59.851785500815" lon="17.69491341978">
        <ele>10.8</ele>
        <time>2017-10-15T14:54:14Z</time>
      </trkpt>
      <trkpt lat="59.851829170514" lon="17.694853237738">
        <ele>10.8</ele>
        <time>2017-10-15T14:54:15Z</time>
      </trkpt>
      <trkpt lat="59.851873007851" lon="17.694793474791">
        <ele>10.6</ele>
        <time>2017-10-15T14:54:16Z</time>
      </trkpt>
      <trkpt lat="59.85191583936" lon="17.694737651337">
        <ele>10.8</ele>
        <time>2017-10-15T14:54:17Z</time>
      </trkpt>
      <trkpt lat="59.851963700009" lon="17.694668416843">
        <ele>11</ele>
        <time>2017-10-15T14:54:18Z</time>
      </trkpt>
      <trkpt lat="59.852010135735" lon="17.694602870385">
        <ele>11</ele>
        <time>2017-10-15T14:54:19Z</time>
      </trkpt>
      <trkpt lat="59.852055565633" lon="17.694536904832">
        <ele>11.2</ele>
        <time>2017-10-15T14:54:20Z</time>
      </trkpt>
      <trkpt lat="59.852101582264" lon="17.694469095261">
        <ele>11.2</ele>
        <time>2017-10-15T14:54:21Z</time>
      </trkpt>
      <trkpt lat="59.85214215066" lon="17.694384773347">
        <ele>11.2</ele>
        <time>2017-10-15T14:54:22Z</time>
      </trkpt>
      <trkpt lat="59.852183305789" lon="17.694307324591">
        <ele>11</ele>
        <time>2017-10-15T14:54:23Z</time>
      </trkpt>
      <trkpt lat="59.852219683235" lon="17.694238090097">
        <ele>11.2</ele>
        <time>2017-10-15T14:54:24Z</time>
      </trkpt>
      <trkpt lat="59.852255473948" lon="17.694162904454">
        <ele>11.2</ele>
        <time>2017-10-15T14:54:25Z</time>
      </trkpt>
      <trkpt lat="59.852290342652" lon="17.694087215897">
        <ele>11.2</ele>
        <time>2017-10-15T14:54:26Z</time>
      </trkpt>
      <trkpt lat="59.852324289347" lon="17.69401990924">
        <ele>11.2</ele>
        <time>2017-10-15T14:54:27Z</time>
      </trkpt>
      <trkpt lat="59.85236091825" lon="17.693960565388">
        <ele>11.2</ele>
        <time>2017-10-15T14:54:28Z</time>
      </trkpt>
      <trkpt lat="59.852400061723" lon="17.693921086639">
        <ele>11.4</ele>
        <time>2017-10-15T14:54:29Z</time>
      </trkpt>
      <trkpt lat="59.852447670915" lon="17.69387825513">
        <ele>11.2</ele>
        <time>2017-10-15T14:54:30Z</time>
      </trkpt>
      <trkpt lat="59.852491256795" lon="17.693839782209">
        <ele>11.2</ele>
        <time>2017-10-15T14:54:31Z</time>
      </trkpt>
      <trkpt lat="59.852533920666" lon="17.693780605995">
        <ele>11.4</ele>
        <time>2017-10-15T14:54:32Z</time>
      </trkpt>
      <trkpt lat="59.852578177098" lon="17.693730146957">
        <ele>11.6</ele>
        <time>2017-10-15T14:54:33Z</time>
      </trkpt>
      <trkpt lat="59.852623020263" lon="17.693683878869">
        <ele>11.8</ele>
        <time>2017-10-15T14:54:34Z</time>
      </trkpt>
      <trkpt lat="59.852668617799" lon="17.693638616609">
        <ele>11.8</ele>
        <time>2017-10-15T14:54:35Z</time>
      </trkpt>
      <trkpt lat="59.852707509815" lon="17.693586732648">
        <ele>11.8</ele>
        <time>2017-10-15T14:54:36Z</time>
      </trkpt>
      <trkpt lat="59.852762746536" lon="17.693537614714">
        <ele>11.8</ele>
        <time>2017-10-15T14:54:37Z</time>
      </trkpt>
      <trkpt lat="59.852810020452" lon="17.693488580599">
        <ele>12</ele>
        <time>2017-10-15T14:54:38Z</time>
      </trkpt>
      <trkpt lat="59.852857378187" lon="17.693440552312">
        <ele>12</ele>
        <time>2017-10-15T14:54:39Z</time>
      </trkpt>
      <trkpt lat="59.852906496121" lon="17.693393110758">
        <ele>12</ele>
        <time>2017-10-15T14:54:40Z</time>
      </trkpt>
      <trkpt lat="59.852955530236" lon="17.693347513222">
        <ele>12</ele>
        <time>2017-10-15T14:54:41Z</time>
      </trkpt>
      <trkpt lat="59.853005151084" lon="17.693301412772">
        <ele>12</ele>
        <time>2017-10-15T14:54:42Z</time>
      </trkpt>
      <trkpt lat="59.853053849923" lon="17.693258916539">
        <ele>12</ele>
        <time>2017-10-15T14:54:43Z</time>
      </trkpt>
      <trkpt lat="59.853102213486" lon="17.693217426134">
        <ele>12</ele>
        <time>2017-10-15T14:54:44Z</time>
      </trkpt>
      <trkpt lat="59.853154432723" lon="17.693170487494">
        <ele>11.8</ele>
        <time>2017-10-15T14:54:45Z</time>
      </trkpt>
      <trkpt lat="59.8532032992" lon="17.693125225234">
        <ele>11.8</ele>
        <time>2017-10-15T14:54:46Z</time>
      </trkpt>
      <trkpt lat="59.853243616139" lon="17.693080801164">
        <ele>11.8</ele>
        <time>2017-10-15T14:54:47Z</time>
      </trkpt>
      <trkpt lat="59.853299607231" lon="17.693039729854">
        <ele>12</ele>
        <time>2017-10-15T14:54:48Z</time>
      </trkpt>
      <trkpt lat="59.853348557527" lon="17.69299815563">
        <ele>12</ele>
        <time>2017-10-15T14:54:49Z</time>
      </trkpt>
      <trkpt lat="59.853398010737" lon="17.692954318293">
        <ele>12</ele>
        <time>2017-10-15T14:54:50Z</time>
      </trkpt>
      <trkpt lat="59.853445619929" lon="17.692917102657">
        <ele>12.2</ele>
        <time>2017-10-15T14:54:51Z</time>
      </trkpt>
      <trkpt lat="59.853500772831" lon="17.692871924216">
        <ele>12.2</ele>
        <time>2017-10-15T14:54:52Z</time>
      </trkpt>
      <trkpt lat="59.853551902421" lon="17.69283135582">
        <ele>12.2</ele>
        <time>2017-10-15T14:54:53Z</time>
      </trkpt>
      <trkpt lat="59.85360227764" lon="17.692791206519">
        <ele>12.2</ele>
        <time>2017-10-15T14:54:54Z</time>
      </trkpt>
      <trkpt lat="59.853652904316" lon="17.6927492132">
        <ele>12.2</ele>
        <time>2017-10-15T14:54:55Z</time>
      </trkpt>
      <trkpt lat="59.853703363354" lon="17.69270478913">
        <ele>12.2</ele>
        <time>2017-10-15T14:54:56Z</time>
      </trkpt>
      <trkpt lat="59.853750888727" lon="17.692669417512">
        <ele>12.2</ele>
        <time>2017-10-15T14:54:57Z</time>
      </trkpt>
      <trkpt lat="59.853792295313" lon="17.692636225188">
        <ele>12.2</ele>
        <time>2017-10-15T14:54:58Z</time>
      </trkpt>
      <trkpt lat="59.853830432958" lon="17.692604122511">
        <ele>12.4</ele>
        <time>2017-10-15T14:54:59Z</time>
      </trkpt>
      <trkpt lat="59.853866223671" lon="17.69256900235">
        <ele>12.6</ele>
        <time>2017-10-15T14:55:00Z</time>
      </trkpt>
      <trkpt lat="59.853904696592" lon="17.692536815854">
        <ele>12.6</ele>
        <time>2017-10-15T14:55:01Z</time>
      </trkpt>
      <trkpt lat="59.853941912228" lon="17.69250194715">
        <ele>12.8</ele>
        <time>2017-10-15T14:55:02Z</time>
      </trkpt>
      <trkpt lat="59.85398197771" lon="17.692470515025">
        <ele>12.8</ele>
        <time>2017-10-15T14:55:03Z</time>
      </trkpt>
      <trkpt lat="59.854023719572" lon="17.692443190031">
        <ele>12.6</ele>
        <time>2017-10-15T14:55:04Z</time>
      </trkpt>
      <trkpt lat="59.854066886357" lon="17.692415865037">
        <ele>12.8</ele>
        <time>2017-10-15T14:55:05Z</time>
      </trkpt>
      <trkpt lat="59.854107035658" lon="17.692393988278">
        <ele>12.8</ele>
        <time>2017-10-15T14:55:06Z</time>
      </trkpt>
      <trkpt lat="59.85416470313" lon="17.692369848406">
        <ele>12.8</ele>
        <time>2017-10-15T14:55:07Z</time>
      </trkpt>
      <trkpt lat="59.854212228503" lon="17.692344199792">
        <ele>12.8</ele>
        <time>2017-10-15T14:55:08Z</time>
      </trkpt>
      <trkpt lat="59.854260340609" lon="17.692316120427">
        <ele>12.8</ele>
        <time>2017-10-15T14:55:09Z</time>
      </trkpt>
      <trkpt lat="59.854308620353" lon="17.692287621967">
        <ele>12.8</ele>
        <time>2017-10-15T14:55:10Z</time>
      </trkpt>
      <trkpt lat="59.854357067735" lon="17.692258620593">
        <ele>12.6</ele>
        <time>2017-10-15T14:55:11Z</time>
      </trkpt>
      <trkpt lat="59.854405012203" lon="17.692218052197">
        <ele>12.6</ele>
        <time>2017-10-15T14:55:12Z</time>
      </trkpt>
      <trkpt lat="59.854452453757" lon="17.692184440778">
        <ele>12.6</ele>
        <time>2017-10-15T14:55:13Z</time>
      </trkpt>
      <trkpt lat="59.854500649682" lon="17.692153176291">
        <ele>12.4</ele>
        <time>2017-10-15T14:55:14Z</time>
      </trkpt>
      <trkpt lat="59.85454356501" lon="17.692125013107">
        <ele>12.2</ele>
        <time>2017-10-15T14:55:15Z</time>
      </trkpt>
      <trkpt lat="59.854591593297" lon="17.69208871948">
        <ele>12.2</ele>
        <time>2017-10-15T14:55:16Z</time>
      </trkpt>
      <trkpt lat="59.854630401494" lon="17.692058879916">
        <ele>12</ele>
        <time>2017-10-15T14:55:17Z</time>
      </trkpt>
      <trkpt lat="59.854687482233" lon="17.692023675936">
        <ele>12</ele>
        <time>2017-10-15T14:55:18Z</time>
      </trkpt>
      <trkpt lat="59.854736683986" lon="17.691989310146">
        <ele>12</ele>
        <time>2017-10-15T14:55:19Z</time>
      </trkpt>
      <trkpt lat="59.854785466644" lon="17.691953184157">
        <ele>12</ele>
        <time>2017-10-15T14:55:20Z</time>
      </trkpt>
      <trkpt lat="59.854827124687" lon="17.691922087308">
        <ele>12</ele>
        <time>2017-10-15T14:55:21Z</time>
      </trkpt>
      <trkpt lat="59.854881690856" lon="17.691877579419">
        <ele>12</ele>
        <time>2017-10-15T14:55:22Z</time>
      </trkpt>
      <trkpt lat="59.85492410327" lon="17.691846398751">
        <ele>12</ele>
        <time>2017-10-15T14:55:23Z</time>
      </trkpt>
      <trkpt lat="59.854978501801" lon="17.691801387948">
        <ele>12</ele>
        <time>2017-10-15T14:55:24Z</time>
      </trkpt>
      <trkpt lat="59.855026530088" lon="17.691762412113">
        <ele>11.8</ele>
        <time>2017-10-15T14:55:25Z</time>
      </trkpt>
      <trkpt lat="59.855074474556" lon="17.691728213961">
        <ele>11.6</ele>
        <time>2017-10-15T14:55:26Z</time>
      </trkpt>
      <trkpt lat="59.85511772516" lon="17.691702146252">
        <ele>11.4</ele>
        <time>2017-10-15T14:55:27Z</time>
      </trkpt>
      <trkpt lat="59.855172291329" lon="17.691662667503">
        <ele>11.2</ele>
        <time>2017-10-15T14:55:28Z</time>
      </trkpt>
      <trkpt lat="59.855215206657" lon="17.691628636989">
        <ele>11.4</ele>
        <time>2017-10-15T14:55:29Z</time>
      </trkpt>
      <trkpt lat="59.85527111393" lon="17.691587565679">
        <ele>11.2</ele>
        <time>2017-10-15T14:55:30Z</time>
      </trkpt>
      <trkpt lat="59.855321237692" lon="17.691549595672">
        <ele>11.4</ele>
        <time>2017-10-15T14:55:31Z</time>
      </trkpt>
      <trkpt lat="59.855363147192" lon="17.691516906262">
        <ele>11.6</ele>
        <time>2017-10-15T14:55:32Z</time>
      </trkpt>
      <trkpt lat="59.855419054465" lon="17.69147013526">
        <ele>11.6</ele>
        <time>2017-10-15T14:55:33Z</time>
      </trkpt>
      <trkpt lat="59.855451995332" lon="17.691437697307">
        <ele>11.6</ele>
        <time>2017-10-15T14:55:34Z</time>
      </trkpt>
      <trkpt lat="59.855504549845" lon="17.691392686504">
        <ele>11.6</ele>
        <time>2017-10-15T14:55:35Z</time>
      </trkpt>
      <trkpt lat="59.855549141553" lon="17.691361841112">
        <ele>11.8</ele>
        <time>2017-10-15T14:55:36Z</time>
      </trkpt>
      <trkpt lat="59.855594319994" lon="17.691330408987">
        <ele>11.8</ele>
        <time>2017-10-15T14:55:37Z</time>
      </trkpt>
      <trkpt lat="59.855643354109" lon="17.691297216663">
        <ele>11.8</ele>
        <time>2017-10-15T14:55:38Z</time>
      </trkpt>
      <trkpt lat="59.85568853255" lon="17.691275339904">
        <ele>12</ele>
        <time>2017-10-15T14:55:39Z</time>
      </trkpt>
      <trkpt lat="59.855732621344" lon="17.691255055706">
        <ele>12.2</ele>
        <time>2017-10-15T14:55:40Z</time>
      </trkpt>
      <trkpt lat="59.855770423713" lon="17.691242650494">
        <ele>12.2</ele>
        <time>2017-10-15T14:55:41Z</time>
      </trkpt>
      <trkpt lat="59.855814512507" lon="17.691257402638">
        <ele>12.2</ele>
        <time>2017-10-15T14:55:42Z</time>
      </trkpt>
      <trkpt lat="59.855850219401" lon="17.691307610219">
        <ele>12.4</ele>
        <time>2017-10-15T14:55:43Z</time>
      </trkpt>
      <trkpt lat="59.855877041481" lon="17.691387908821">
        <ele>12.6</ele>
        <time>2017-10-15T14:55:44Z</time>
      </trkpt>
      <trkpt lat="59.855895816937" lon="17.691455634573">
        <ele>12.8</ele>
        <time>2017-10-15T14:55:45Z</time>
      </trkpt>
      <trkpt lat="59.855915430583" lon="17.691472314554">
        <ele>12.8</ele>
        <time>2017-10-15T14:55:46Z</time>
      </trkpt>
      <trkpt lat="59.855947281803" lon="17.691465692853">
        <ele>13</ele>
        <time>2017-10-15T14:55:47Z</time>
      </trkpt>
      <trkpt lat="59.855992208787" lon="17.691443061723">
        <ele>13</ele>
        <time>2017-10-15T14:55:48Z</time>
      </trkpt>
      <trkpt lat="59.856026826034" lon="17.691402996241">
        <ele>13</ele>
        <time>2017-10-15T14:55:49Z</time>
      </trkpt>
      <trkpt lat="59.856058258159" lon="17.691342562742">
        <ele>12.8</ele>
        <time>2017-10-15T14:55:50Z</time>
      </trkpt>
      <trkpt lat="59.856072004475" lon="17.691275004628">
        <ele>12.8</ele>
        <time>2017-10-15T14:55:51Z</time>
      </trkpt>
      <trkpt lat="59.856074854321" lon="17.691192862008">
        <ele>12.8</ele>
        <time>2017-10-15T14:55:52Z</time>
      </trkpt>
      <trkpt lat="59.856088097723" lon="17.691106109343">
        <ele>12.8</ele>
        <time>2017-10-15T14:55:53Z</time>
      </trkpt>
      <trkpt lat="59.856124642807" lon="17.691031426614">
        <ele>12.6</ele>
        <time>2017-10-15T14:55:54Z</time>
      </trkpt>
      <trkpt lat="59.856158673321" lon="17.690966718346">
        <ele>12.8</ele>
        <time>2017-10-15T14:55:55Z</time>
      </trkpt>
      <trkpt lat="59.856197062423" lon="17.690901255707">
        <ele>12.8</ele>
        <time>2017-10-15T14:55:56Z</time>
      </trkpt>
      <trkpt lat="59.856232014946" lon="17.690853562696">
        <ele>13</ele>
        <time>2017-10-15T14:55:57Z</time>
      </trkpt>
      <trkpt lat="59.856279372681" lon="17.690795224672">
        <ele>13</ele>
        <time>2017-10-15T14:55:58Z</time>
      </trkpt>
      <trkpt lat="59.856313654652" lon="17.690741915788">
        <ele>13</ele>
        <time>2017-10-15T14:55:59Z</time>
      </trkpt>
      <trkpt lat="59.856360090378" lon="17.690670334362">
        <ele>13</ele>
        <time>2017-10-15T14:56:00Z</time>
      </trkpt>
      <trkpt lat="59.856403424801" lon="17.690615265279">
        <ele>13</ele>
        <time>2017-10-15T14:56:01Z</time>
      </trkpt>
      <trkpt lat="59.856445082844" lon="17.690572601408">
        <ele>13</ele>
        <time>2017-10-15T14:56:02Z</time>
      </trkpt>
      <trkpt lat="59.856495877158" lon="17.690518873429">
        <ele>13</ele>
        <time>2017-10-15T14:56:03Z</time>
      </trkpt>
      <trkpt lat="59.856543821626" lon="17.690477383024">
        <ele>12.8</ele>
        <time>2017-10-15T14:56:04Z</time>
      </trkpt>
      <trkpt lat="59.856584390022" lon="17.690436730809">
        <ele>12.8</ele>
        <time>2017-10-15T14:56:05Z</time>
      </trkpt>
      <trkpt lat="59.856630574291" lon="17.690391049454">
        <ele>12.8</ele>
        <time>2017-10-15T14:56:06Z</time>
      </trkpt>
      <trkpt lat="59.856677764388" lon="17.690342099158">
        <ele>13</ele>
        <time>2017-10-15T14:56:07Z</time>
      </trkpt>
      <trkpt lat="59.856728391064" lon="17.690288622636">
        <ele>13</ele>
        <time>2017-10-15T14:56:08Z</time>
      </trkpt>
      <trkpt lat="59.856776084075" lon="17.690245874946">
        <ele>13</ele>
        <time>2017-10-15T14:56:09Z</time>
      </trkpt>
      <trkpt lat="59.856824196181" lon="17.690203546351">
        <ele>13.2</ele>
        <time>2017-10-15T14:56:10Z</time>
      </trkpt>
      <trkpt lat="59.856866608595" lon="17.690159373738">
        <ele>13.2</ele>
        <time>2017-10-15T14:56:11Z</time>
      </trkpt>
      <trkpt lat="59.856915977986" lon="17.690105897216">
        <ele>13.2</ele>
        <time>2017-10-15T14:56:12Z</time>
      </trkpt>
      <trkpt lat="59.856971633802" lon="17.690045798993">
        <ele>13.2</ele>
        <time>2017-10-15T14:56:13Z</time>
      </trkpt>
      <trkpt lat="59.857020081184" lon="17.689995507593">
        <ele>13.2</ele>
        <time>2017-10-15T14:56:14Z</time>
      </trkpt>
      <trkpt lat="59.857068947661" lon="17.689941779614">
        <ele>13.4</ele>
        <time>2017-10-15T14:56:15Z</time>
      </trkpt>
      <trkpt lat="59.857116724491" lon="17.689891739671">
        <ele>13.2</ele>
        <time>2017-10-15T14:56:16Z</time>
      </trkpt>
      <trkpt lat="59.857155532688" lon="17.689848489067">
        <ele>13.2</ele>
        <time>2017-10-15T14:56:17Z</time>
      </trkpt>
      <trkpt lat="59.857210098857" lon="17.689787468835">
        <ele>13.2</ele>
        <time>2017-10-15T14:56:18Z</time>
      </trkpt>
      <trkpt lat="59.857255444936" lon="17.689731393924">
        <ele>13.2</ele>
        <time>2017-10-15T14:56:19Z</time>
      </trkpt>
      <trkpt lat="59.857301461567" lon="17.689687221311">
        <ele>13</ele>
        <time>2017-10-15T14:56:20Z</time>
      </trkpt>
      <trkpt lat="59.85734144323" lon="17.689648329295">
        <ele>13</ele>
        <time>2017-10-15T14:56:21Z</time>
      </trkpt>
      <trkpt lat="59.857389136241" lon="17.689605246329">
        <ele>13</ele>
        <time>2017-10-15T14:56:22Z</time>
      </trkpt>
      <trkpt lat="59.857435739605" lon="17.689564510295">
        <ele>13.2</ele>
        <time>2017-10-15T14:56:23Z</time>
      </trkpt>
      <trkpt lat="59.857490305774" lon="17.689514805628">
        <ele>13.2</ele>
        <time>2017-10-15T14:56:24Z</time>
      </trkpt>
      <trkpt lat="59.85753925607" lon="17.689471387386">
        <ele>13.4</ele>
        <time>2017-10-15T14:56:25Z</time>
      </trkpt>
      <trkpt lat="59.8575870329" lon="17.689421179805">
        <ele>13.6</ele>
        <time>2017-10-15T14:56:26Z</time>
      </trkpt>
      <trkpt lat="59.857628690943" lon="17.689377845382">
        <ele>13.6</ele>
        <time>2017-10-15T14:56:27Z</time>
      </trkpt>
      <trkpt lat="59.857681916008" lon="17.689320680824">
        <ele>13.8</ele>
        <time>2017-10-15T14:56:28Z</time>
      </trkpt>
      <trkpt lat="59.857725501888" lon="17.689281453532">
        <ele>13.8</ele>
        <time>2017-10-15T14:56:29Z</time>
      </trkpt>
      <trkpt lat="59.857781409161" lon="17.689229485752">
        <ele>13.6</ele>
        <time>2017-10-15T14:56:30Z</time>
      </trkpt>
      <trkpt lat="59.857830359457" lon="17.689175506316">
        <ele>13.8</ele>
        <time>2017-10-15T14:56:31Z</time>
      </trkpt>
      <trkpt lat="59.857885763816" lon="17.689116665378">
        <ele>13.8</ele>
        <time>2017-10-15T14:56:32Z</time>
      </trkpt>
      <trkpt lat="59.85793571994" lon="17.689068637091">
        <ele>13.8</ele>
        <time>2017-10-15T14:56:33Z</time>
      </trkpt>
      <trkpt lat="59.857986598073" lon="17.689023626288">
        <ele>13.6</ele>
        <time>2017-10-15T14:56:34Z</time>
      </trkpt>
      <trkpt lat="59.858037476206" lon="17.688980040408">
        <ele>13.6</ele>
        <time>2017-10-15T14:56:35Z</time>
      </trkpt>
      <trkpt lat="59.858079385706" lon="17.688941651306">
        <ele>13.4</ele>
        <time>2017-10-15T14:56:36Z</time>
      </trkpt>
      <trkpt lat="59.858137807549" lon="17.688918936357">
        <ele>13.4</ele>
        <time>2017-10-15T14:56:37Z</time>
      </trkpt>
      <trkpt lat="59.85818298599" lon="17.688941064573">
        <ele>13.2</ele>
        <time>2017-10-15T14:56:38Z</time>
      </trkpt>
      <trkpt lat="59.858216848866" lon="17.688994038181">
        <ele>13.4</ele>
        <time>2017-10-15T14:56:39Z</time>
      </trkpt>
      <trkpt lat="59.858247023706" lon="17.689040557726">
        <ele>13.4</ele>
        <time>2017-10-15T14:56:40Z</time>
      </trkpt>
      <trkpt lat="59.858278623469" lon="17.689074085326">
        <ele>13.6</ele>
        <time>2017-10-15T14:56:41Z</time>
      </trkpt>
      <trkpt lat="59.858317347847" lon="17.689035444767">
        <ele>13.6</ele>
        <time>2017-10-15T14:56:42Z</time>
      </trkpt>
      <trkpt lat="59.858352384189" lon="17.689010550524">
        <ele>13.6</ele>
        <time>2017-10-15T14:56:43Z</time>
      </trkpt>
      <trkpt lat="59.858381888477" lon="17.688981297693">
        <ele>13.6</ele>
        <time>2017-10-15T14:56:44Z</time>
      </trkpt>
      <trkpt lat="59.858398568458" lon="17.688937795632">
        <ele>13.6</ele>
        <time>2017-10-15T14:56:45Z</time>
      </trkpt>
      <trkpt lat="59.858406950358" lon="17.688886079309">
        <ele>13.6</ele>
        <time>2017-10-15T14:56:46Z</time>
      </trkpt>
      <trkpt lat="59.858408878195" lon="17.688820532851">
        <ele>13.6</ele>
        <time>2017-10-15T14:56:47Z</time>
      </trkpt>
      <trkpt lat="59.858419607027" lon="17.688739647516">
        <ele>13.4</ele>
        <time>2017-10-15T14:56:48Z</time>
      </trkpt>
      <trkpt lat="59.8584336048" lon="17.688662534036">
        <ele>13.4</ele>
        <time>2017-10-15T14:56:49Z</time>
      </trkpt>
      <trkpt lat="59.858450033324" lon="17.688584330909">
        <ele>13.6</ele>
        <time>2017-10-15T14:56:50Z</time>
      </trkpt>
      <trkpt lat="59.858479537612" lon="17.688517862442">
        <ele>13.4</ele>
        <time>2017-10-15T14:56:51Z</time>
      </trkpt>
      <trkpt lat="59.858516837067" lon="17.688438485849">
        <ele>13.4</ele>
        <time>2017-10-15T14:56:52Z</time>
      </trkpt>
      <trkpt lat="59.858549777934" lon="17.688367072061">
        <ele>13.4</ele>
        <time>2017-10-15T14:56:53Z</time>
      </trkpt>
      <trkpt lat="59.858585903923" lon="17.6882984243">
        <ele>13.4</ele>
        <time>2017-10-15T14:56:54Z</time>
      </trkpt>
      <trkpt lat="59.858622113731" lon="17.688232542566">
        <ele>13.2</ele>
        <time>2017-10-15T14:56:55Z</time>
      </trkpt>
      <trkpt lat="59.858659413186" lon="17.688169510678">
        <ele>13.2</ele>
        <time>2017-10-15T14:56:56Z</time>
      </trkpt>
      <trkpt lat="59.858699394849" lon="17.688115363604">
        <ele>13.2</ele>
        <time>2017-10-15T14:56:57Z</time>
      </trkpt>
      <trkpt lat="59.858743483643" lon="17.688068592602">
        <ele>13.4</ele>
        <time>2017-10-15T14:56:58Z</time>
      </trkpt>
      <trkpt lat="59.858789919369" lon="17.688028108025">
        <ele>13.4</ele>
        <time>2017-10-15T14:56:59Z</time>
      </trkpt>
      <trkpt lat="59.858841551873" lon="17.688016205727">
        <ele>13.4</ele>
        <time>2017-10-15T14:57:00Z</time>
      </trkpt>
      <trkpt lat="59.858891591816" lon="17.68800589599">
        <ele>13.4</ele>
        <time>2017-10-15T14:57:01Z</time>
      </trkpt>
      <trkpt lat="59.85893903337" lon="17.688030371138">
        <ele>13.6</ele>
        <time>2017-10-15T14:57:02Z</time>
      </trkpt>
      <trkpt lat="59.85898764839" lon="17.688041016151">
        <ele>13.4</ele>
        <time>2017-10-15T14:57:03Z</time>
      </trkpt>
      <trkpt lat="59.859035509039" lon="17.688046883481">
        <ele>13.4</ele>
        <time>2017-10-15T14:57:04Z</time>
      </trkpt>
      <trkpt lat="59.859082196222" lon="17.688050152422">
        <ele>13.4</ele>
        <time>2017-10-15T14:57:05Z</time>
      </trkpt>
      <trkpt lat="59.859119830953" lon="17.688059456331">
        <ele>13.6</ele>
        <time>2017-10-15T14:57:06Z</time>
      </trkpt>
      <trkpt lat="59.859167272507" lon="17.688075801036">
        <ele>13.6</ele>
        <time>2017-10-15T14:57:07Z</time>
      </trkpt>
      <trkpt lat="59.859209433464" lon="17.688077812692">
        <ele>13.8</ele>
        <time>2017-10-15T14:57:08Z</time>
      </trkpt>
      <trkpt lat="59.859250588593" lon="17.688067670593">
        <ele>13.8</ele>
        <time>2017-10-15T14:57:09Z</time>
      </trkpt>
      <trkpt lat="59.859289648247" lon="17.688044285092">
        <ele>13.8</ele>
        <time>2017-10-15T14:57:10Z</time>
      </trkpt>
      <trkpt lat="59.859327450616" lon="17.6880134397">
        <ele>13.8</ele>
        <time>2017-10-15T14:57:11Z</time>
      </trkpt>
      <trkpt lat="59.859361062035" lon="17.687967590707">
        <ele>13.8</ele>
        <time>2017-10-15T14:57:12Z</time>
      </trkpt>
      <trkpt lat="59.859390063409" lon="17.687924340103">
        <ele>13.6</ele>
        <time>2017-10-15T14:57:13Z</time>
      </trkpt>
      <trkpt lat="59.859415292928" lon="17.687877904377">
        <ele>13.6</ele>
        <time>2017-10-15T14:57:14Z</time>
      </trkpt>
      <trkpt lat="59.859438678429" lon="17.687829373176">
        <ele>13.8</ele>
        <time>2017-10-15T14:57:15Z</time>
      </trkpt>
      <trkpt lat="59.859462147749" lon="17.687780758156">
        <ele>14</ele>
        <time>2017-10-15T14:57:16Z</time>
      </trkpt>
      <trkpt lat="59.859484108327" lon="17.687720743752">
        <ele>14</ele>
        <time>2017-10-15T14:57:17Z</time>
      </trkpt>
      <trkpt lat="59.859510427493" lon="17.687636421838">
        <ele>14.2</ele>
        <time>2017-10-15T14:57:18Z</time>
      </trkpt>
      <trkpt lat="59.85953750103" lon="17.687563080213">
        <ele>14.4</ele>
        <time>2017-10-15T14:57:19Z</time>
      </trkpt>
      <trkpt lat="59.859565580395" lon="17.687492756072">
        <ele>14.4</ele>
        <time>2017-10-15T14:57:20Z</time>
      </trkpt>
      <trkpt lat="59.859594330312" lon="17.687440201559">
        <ele>14.4</ele>
        <time>2017-10-15T14:57:21Z</time>
      </trkpt>
      <trkpt lat="59.859612267578" lon="17.6873764153">
        <ele>14.4</ele>
        <time>2017-10-15T14:57:22Z</time>
      </trkpt>
      <trkpt lat="59.859628779921" lon="17.687323190235">
        <ele>14.4</ele>
        <time>2017-10-15T14:57:23Z</time>
      </trkpt>
      <trkpt lat="59.859645040807" lon="17.687289494997">
        <ele>14.2</ele>
        <time>2017-10-15T14:57:24Z</time>
      </trkpt>
      <trkpt lat="59.859661217874" lon="17.687254207198">
        <ele>14.2</ele>
        <time>2017-10-15T14:57:25Z</time>
      </trkpt>
      <trkpt lat="59.859676389113" lon="17.687221182512">
        <ele>14</ele>
        <time>2017-10-15T14:57:26Z</time>
      </trkpt>
      <trkpt lat="59.859672030525" lon="17.687227133661">
        <ele>14</ele>
        <time>2017-10-15T14:57:27Z</time>
      </trkpt>
      <trkpt lat="59.85967244962" lon="17.687228307127">
        <ele>14</ele>
        <time>2017-10-15T14:57:28Z</time>
      </trkpt>
      <trkpt lat="59.85967244962" lon="17.687228307127">
        <ele>14</ele>
        <time>2017-10-15T14:57:29Z</time>
      </trkpt>
      <trkpt lat="59.859771272221" lon="17.686898647">
        <ele>14.2</ele>
        <time>2017-10-15T14:57:43Z</time>
      </trkpt>
      <trkpt lat="59.859783342157" lon="17.68683075361">
        <ele>14.2</ele>
        <time>2017-10-15T14:57:44Z</time>
      </trkpt>
      <trkpt lat="59.859807230572" lon="17.686769230464">
        <ele>14</ele>
        <time>2017-10-15T14:57:45Z</time>
      </trkpt>
      <trkpt lat="59.85983589667" lon="17.68671256882">
        <ele>14</ele>
        <time>2017-10-15T14:57:46Z</time>
      </trkpt>
      <trkpt lat="59.859863976035" lon="17.686686417292">
        <ele>14</ele>
        <time>2017-10-15T14:57:47Z</time>
      </trkpt>
      <trkpt lat="59.859906975182" lon="17.686638640462">
        <ele>14</ele>
        <time>2017-10-15T14:57:48Z</time>
      </trkpt>
      <trkpt lat="59.859942598257" lon="17.686594300211">
        <ele>14</ele>
        <time>2017-10-15T14:57:49Z</time>
      </trkpt>
      <trkpt lat="59.85998006535" lon="17.686547277752">
        <ele>14</ele>
        <time>2017-10-15T14:57:50Z</time>
      </trkpt>
      <trkpt lat="59.860018454452" lon="17.686506625537">
        <ele>14.2</ele>
        <time>2017-10-15T14:57:51Z</time>
      </trkpt>
      <trkpt lat="59.86005801702" lon="17.686460776544">
        <ele>14.2</ele>
        <time>2017-10-15T14:57:52Z</time>
      </trkpt>
      <trkpt lat="59.860091125525" lon="17.68641417318">
        <ele>14.2</ele>
        <time>2017-10-15T14:57:53Z</time>
      </trkpt>
      <trkpt lat="59.860135633414" lon="17.686370084386">
        <ele>14.2</ele>
        <time>2017-10-15T14:57:54Z</time>
      </trkpt>
      <trkpt lat="59.860173435783" lon="17.686314763846">
        <ele>14.4</ele>
        <time>2017-10-15T14:57:55Z</time>
      </trkpt>
      <trkpt lat="59.860206209012" lon="17.686262963704">
        <ele>14.4</ele>
        <time>2017-10-15T14:57:56Z</time>
      </trkpt>
      <trkpt lat="59.860240826259" lon="17.68622390405">
        <ele>14</ele>
        <time>2017-10-15T14:57:57Z</time>
      </trkpt>
      <trkpt lat="59.860285082691" lon="17.686177887419">
        <ele>14</ele>
        <time>2017-10-15T14:57:58Z</time>
      </trkpt>
      <trkpt lat="59.860317688282" lon="17.686134888272">
        <ele>14.2</ele>
        <time>2017-10-15T14:57:59Z</time>
      </trkpt>
      <trkpt lat="59.860357502307" lon="17.686072275479">
        <ele>14.4</ele>
        <time>2017-10-15T14:58:00Z</time>
      </trkpt>
      <trkpt lat="59.860393795934" lon="17.68601435655">
        <ele>14.6</ele>
        <time>2017-10-15T14:58:01Z</time>
      </trkpt>
      <trkpt lat="59.860429670466" lon="17.685971105946">
        <ele>15.2</ele>
        <time>2017-10-15T14:58:02Z</time>
      </trkpt>
      <trkpt lat="59.860474094536" lon="17.685921820374">
        <ele>15</ele>
        <time>2017-10-15T14:58:03Z</time>
      </trkpt>
      <trkpt lat="59.860509633792" lon="17.68586851149">
        <ele>14.8</ele>
        <time>2017-10-15T14:58:04Z</time>
      </trkpt>
      <trkpt lat="59.860547603799" lon="17.685828446008">
        <ele>14.4</ele>
        <time>2017-10-15T14:58:05Z</time>
      </trkpt>
      <trkpt lat="59.860590602946" lon="17.685786955603">
        <ele>14.2</ele>
        <time>2017-10-15T14:58:06Z</time>
      </trkpt>
      <trkpt lat="59.860638379776" lon="17.685746722483">
        <ele>14</ele>
        <time>2017-10-15T14:58:07Z</time>
      </trkpt>
      <trkpt lat="59.860687078615" lon="17.685684612604">
        <ele>13.6</ele>
        <time>2017-10-15T14:58:08Z</time>
      </trkpt>
      <trkpt lat="59.860732173237" lon="17.685625352571">
        <ele>13.6</ele>
        <time>2017-10-15T14:58:09Z</time>
      </trkpt>
      <trkpt lat="59.860777686954" lon="17.685570786402">
        <ele>13.6</ele>
        <time>2017-10-15T14:58:10Z</time>
      </trkpt>
      <trkpt lat="59.860821189015" lon="17.685526027056">
        <ele>13.8</ele>
        <time>2017-10-15T14:58:11Z</time>
      </trkpt>
      <trkpt lat="59.860872570062" lon="17.685479507511">
        <ele>14</ele>
        <time>2017-10-15T14:58:12Z</time>
      </trkpt>
      <trkpt lat="59.860928309697" lon="17.685425779532">
        <ele>14.2</ele>
        <time>2017-10-15T14:58:13Z</time>
      </trkpt>
      <trkpt lat="59.860977259993" lon="17.685375488132">
        <ele>14.2</ele>
        <time>2017-10-15T14:58:14Z</time>
      </trkpt>
      <trkpt lat="59.861025707375" lon="17.685322933619">
        <ele>14.4</ele>
        <time>2017-10-15T14:58:15Z</time>
      </trkpt>
      <trkpt lat="59.861074070938" lon="17.6852725584">
        <ele>14.4</ele>
        <time>2017-10-15T14:58:16Z</time>
      </trkpt>
      <trkpt lat="59.861114723153" lon="17.685229056339">
        <ele>14.4</ele>
        <time>2017-10-15T14:58:17Z</time>
      </trkpt>
      <trkpt lat="59.861174737557" lon="17.685178178206">
        <ele>14.4</ele>
        <time>2017-10-15T14:58:18Z</time>
      </trkpt>
      <trkpt lat="59.861224861319" lon="17.685132496851">
        <ele>14.4</ele>
        <time>2017-10-15T14:58:19Z</time>
      </trkpt>
      <trkpt lat="59.861275739452" lon="17.685091006446">
        <ele>14.4</ele>
        <time>2017-10-15T14:58:20Z</time>
      </trkpt>
      <trkpt lat="59.861318738599" lon="17.685049348403">
        <ele>14.6</ele>
        <time>2017-10-15T14:58:21Z</time>
      </trkpt>
      <trkpt lat="59.861371628388" lon="17.685004086143">
        <ele>14.6</ele>
        <time>2017-10-15T14:58:22Z</time>
      </trkpt>
      <trkpt lat="59.861422087426" lon="17.684956728408">
        <ele>14.6</ele>
        <time>2017-10-15T14:58:23Z</time>
      </trkpt>
      <trkpt lat="59.861481431278" lon="17.684903922438">
        <ele>14.8</ele>
        <time>2017-10-15T14:58:24Z</time>
      </trkpt>
      <trkpt lat="59.86153742237" lon="17.684866958259">
        <ele>14.8</ele>
        <time>2017-10-15T14:58:25Z</time>
      </trkpt>
      <trkpt lat="59.861590815073" lon="17.684823623836">
        <ele>15</ele>
        <time>2017-10-15T14:58:26Z</time>
      </trkpt>
      <trkpt lat="59.861638759541" lon="17.684786575838">
        <ele>14.8</ele>
        <time>2017-10-15T14:58:27Z</time>
      </trkpt>
      <trkpt lat="59.861701288515" lon="17.684742487044">
        <ele>14.8</ele>
        <time>2017-10-15T14:58:28Z</time>
      </trkpt>
      <trkpt lat="59.861750993182" lon="17.684708121254">
        <ele>14.8</ele>
        <time>2017-10-15T14:58:29Z</time>
      </trkpt>
      <trkpt lat="59.861815198536" lon="17.684667469039">
        <ele>14.8</ele>
        <time>2017-10-15T14:58:30Z</time>
      </trkpt>
      <trkpt lat="59.86187102199" lon="17.684627822652">
        <ele>14.8</ele>
        <time>2017-10-15T14:58:31Z</time>
      </trkpt>
      <trkpt lat="59.861919385553" lon="17.684586751342">
        <ele>14.6</ele>
        <time>2017-10-15T14:58:32Z</time>
      </trkpt>
      <trkpt lat="59.861982249803" lon="17.684540315616">
        <ele>14.6</ele>
        <time>2017-10-15T14:58:33Z</time>
      </trkpt>
      <trkpt lat="59.862022315285" lon="17.684511649518">
        <ele>14.6</ele>
        <time>2017-10-15T14:58:34Z</time>
      </trkpt>
      <trkpt lat="59.862088280838" lon="17.684459597919">
        <ele>14.6</ele>
        <time>2017-10-15T14:58:35Z</time>
      </trkpt>
      <trkpt lat="59.862145277758" lon="17.684416095858">
        <ele>14.4</ele>
        <time>2017-10-15T14:58:36Z</time>
      </trkpt>
      <trkpt lat="59.862204118696" lon="17.68438156243">
        <ele>14.4</ele>
        <time>2017-10-15T14:58:37Z</time>
      </trkpt>
      <trkpt lat="59.862269581335" lon="17.684341245491">
        <ele>14.4</ele>
        <time>2017-10-15T14:58:38Z</time>
      </trkpt>
      <trkpt lat="59.862328086997" lon="17.684302353475">
        <ele>14.2</ele>
        <time>2017-10-15T14:58:39Z</time>
      </trkpt>
      <trkpt lat="59.862385922107" lon="17.684267065676">
        <ele>14.2</ele>
        <time>2017-10-15T14:58:40Z</time>
      </trkpt>
      <trkpt lat="59.862434704765" lon="17.684224653262">
        <ele>14.2</ele>
        <time>2017-10-15T14:58:41Z</time>
      </trkpt>
      <trkpt lat="59.862504106897" lon="17.684170422369">
        <ele>14</ele>
        <time>2017-10-15T14:58:42Z</time>
      </trkpt>
      <trkpt lat="59.862559846532" lon="17.684125746842">
        <ele>14</ele>
        <time>2017-10-15T14:58:43Z</time>
      </trkpt>
      <trkpt lat="59.862608461552" lon="17.684083669704">
        <ele>14</ele>
        <time>2017-10-15T14:58:44Z</time>
      </trkpt>
      <trkpt lat="59.862663698273" lon="17.684039161815">
        <ele>14</ele>
        <time>2017-10-15T14:58:45Z</time>
      </trkpt>
      <trkpt lat="59.862724634686" lon="17.68399683322">
        <ele>14</ele>
        <time>2017-10-15T14:58:46Z</time>
      </trkpt>
      <trkpt lat="59.862783224167" lon="17.68396246743">
        <ele>14</ele>
        <time>2017-10-15T14:58:47Z</time>
      </trkpt>
      <trkpt lat="59.862838125612" lon="17.683923407776">
        <ele>13.8</ele>
        <time>2017-10-15T14:58:48Z</time>
      </trkpt>
      <trkpt lat="59.862901408957" lon="17.683879402801">
        <ele>13.8</ele>
        <time>2017-10-15T14:58:49Z</time>
      </trkpt>
      <trkpt lat="59.862954885479" lon="17.683842773898">
        <ele>13.8</ele>
        <time>2017-10-15T14:58:50Z</time>
      </trkpt>
      <trkpt lat="59.863006853259" lon="17.683804971529">
        <ele>13.8</ele>
        <time>2017-10-15T14:58:51Z</time>
      </trkpt>
      <trkpt lat="59.863074998106" lon="17.683758954898">
        <ele>13.8</ele>
        <time>2017-10-15T14:58:52Z</time>
      </trkpt>
      <trkpt lat="59.863124032221" lon="17.683722074538">
        <ele>13.8</ele>
        <time>2017-10-15T14:58:53Z</time>
      </trkpt>
      <trkpt lat="59.863190668326" lon="17.683674046251">
        <ele>13.8</ele>
        <time>2017-10-15T14:58:54Z</time>
      </trkpt>
      <trkpt lat="59.863250347454" lon="17.683631047104">
        <ele>13.8</ele>
        <time>2017-10-15T14:58:55Z</time>
      </trkpt>
      <trkpt lat="59.863308936935" lon="17.68358695831">
        <ele>13.8</ele>
        <time>2017-10-15T14:58:56Z</time>
      </trkpt>
      <trkpt lat="59.863361575267" lon="17.68355091614">
        <ele>13.6</ele>
        <time>2017-10-15T14:58:57Z</time>
      </trkpt>
      <trkpt lat="59.8634292172" lon="17.683506575889">
        <ele>13.6</ele>
        <time>2017-10-15T14:58:58Z</time>
      </trkpt>
      <trkpt lat="59.863481855532" lon="17.683473215927">
        <ele>13.6</ele>
        <time>2017-10-15T14:58:59Z</time>
      </trkpt>
      <trkpt lat="59.863547066714" lon="17.683429546228">
        <ele>13.6</ele>
        <time>2017-10-15T14:59:00Z</time>
      </trkpt>
      <trkpt lat="59.863603979815" lon="17.683384619244">
        <ele>13.6</ele>
        <time>2017-10-15T14:59:01Z</time>
      </trkpt>
      <trkpt lat="59.863670448282" lon="17.683336507138">
        <ele>13.4</ele>
        <time>2017-10-15T14:59:02Z</time>
      </trkpt>
      <trkpt lat="59.863729875953" lon="17.683293340353">
        <ele>13.4</ele>
        <time>2017-10-15T14:59:03Z</time>
      </trkpt>
      <trkpt lat="59.863788884529" lon="17.683249419197">
        <ele>13.4</ele>
        <time>2017-10-15T14:59:04Z</time>
      </trkpt>
      <trkpt lat="59.863833476237" lon="17.683214718131">
        <ele>13.4</ele>
        <time>2017-10-15T14:59:05Z</time>
      </trkpt>
      <trkpt lat="59.863891814261" lon="17.683171970441">
        <ele>13.2</ele>
        <time>2017-10-15T14:59:06Z</time>
      </trkpt>
      <trkpt lat="59.863953840321" lon="17.683127127276">
        <ele>13.2</ele>
        <time>2017-10-15T14:59:07Z</time>
      </trkpt>
      <trkpt lat="59.864020727883" lon="17.683077171152">
        <ele>13.2</ele>
        <time>2017-10-15T14:59:08Z</time>
      </trkpt>
      <trkpt lat="59.864082418667" lon="17.683034088186">
        <ele>13.2</ele>
        <time>2017-10-15T14:59:09Z</time>
      </trkpt>
      <trkpt lat="59.864144444727" lon="17.682992430143">
        <ele>13.4</ele>
        <time>2017-10-15T14:59:10Z</time>
      </trkpt>
      <trkpt lat="59.864198591801" lon="17.682955046869">
        <ele>13.2</ele>
        <time>2017-10-15T14:59:11Z</time>
      </trkpt>
      <trkpt lat="59.864259528214" lon="17.682909449333">
        <ele>13.2</ele>
        <time>2017-10-15T14:59:12Z</time>
      </trkpt>
      <trkpt lat="59.864333708029" lon="17.682852787689">
        <ele>13.2</ele>
        <time>2017-10-15T14:59:13Z</time>
      </trkpt>
      <trkpt lat="59.864394225347" lon="17.682807776886">
        <ele>13.2</ele>
        <time>2017-10-15T14:59:14Z</time>
      </trkpt>
      <trkpt lat="59.864448120964" lon="17.682769052508">
        <ele>13</ele>
        <time>2017-10-15T14:59:15Z</time>
      </trkpt>
      <trkpt lat="59.864509895567" lon="17.682733010338">
        <ele>13</ele>
        <time>2017-10-15T14:59:16Z</time>
      </trkpt>
      <trkpt lat="59.86455742094" lon="17.682697890177">
        <ele>13</ele>
        <time>2017-10-15T14:59:17Z</time>
      </trkpt>
      <trkpt lat="59.864626487796" lon="17.682641982904">
        <ele>12.8</ele>
        <time>2017-10-15T14:59:18Z</time>
      </trkpt>
      <trkpt lat="59.864685999286" lon="17.682595295721">
        <ele>12.8</ele>
        <time>2017-10-15T14:59:19Z</time>
      </trkpt>
      <trkpt lat="59.864746768061" lon="17.682549027633">
        <ele>13</ele>
        <time>2017-10-15T14:59:20Z</time>
      </trkpt>
      <trkpt lat="59.864810135225" lon="17.682507788685">
        <ele>13</ele>
        <time>2017-10-15T14:59:21Z</time>
      </trkpt>
      <trkpt lat="59.86486084572" lon="17.682474261085">
        <ele>13</ele>
        <time>2017-10-15T14:59:22Z</time>
      </trkpt>
      <trkpt lat="59.864919854296" lon="17.682427992997">
        <ele>13</ele>
        <time>2017-10-15T14:59:23Z</time>
      </trkpt>
      <trkpt lat="59.864987915324" lon="17.682386502592">
        <ele>13.2</ele>
        <time>2017-10-15T14:59:24Z</time>
      </trkpt>
      <trkpt lat="59.865046169529" lon="17.682348281128">
        <ele>13</ele>
        <time>2017-10-15T14:59:25Z</time>
      </trkpt>
      <trkpt lat="59.865102914992" lon="17.682302096859">
        <ele>13</ele>
        <time>2017-10-15T14:59:26Z</time>
      </trkpt>
      <trkpt lat="59.865164689595" lon="17.682249123251">
        <ele>13</ele>
        <time>2017-10-15T14:59:27Z</time>
      </trkpt>
      <trkpt lat="59.865219674859" lon="17.682203693353">
        <ele>13</ele>
        <time>2017-10-15T14:59:28Z</time>
      </trkpt>
      <trkpt lat="59.865260829988" lon="17.682176955092">
        <ele>13</ele>
        <time>2017-10-15T14:59:29Z</time>
      </trkpt>
      <trkpt lat="59.865320509116" lon="17.682138985085">
        <ele>13</ele>
        <time>2017-10-15T14:59:30Z</time>
      </trkpt>
      <trkpt lat="59.865371471068" lon="17.68210336201">
        <ele>13</ele>
        <time>2017-10-15T14:59:31Z</time>
      </trkpt>
      <trkpt lat="59.865424612314" lon="17.6820622907">
        <ele>12.8</ele>
        <time>2017-10-15T14:59:32Z</time>
      </trkpt>
      <trkpt lat="59.865473646429" lon="17.682027589634">
        <ele>12.8</ele>
        <time>2017-10-15T14:59:33Z</time>
      </trkpt>
      <trkpt lat="59.865522009992" lon="17.68199607369">
        <ele>13</ele>
        <time>2017-10-15T14:59:34Z</time>
      </trkpt>
      <trkpt lat="59.865561740198" lon="17.681970592714">
        <ele>13</ele>
        <time>2017-10-15T14:59:35Z</time>
      </trkpt>
      <trkpt lat="59.865616557824" lon="17.681961204986">
        <ele>13</ele>
        <time>2017-10-15T14:59:36Z</time>
      </trkpt>
      <trkpt lat="59.865660646618" lon="17.681991296007">
        <ele>13.2</ele>
        <time>2017-10-15T14:59:37Z</time>
      </trkpt>
      <trkpt lat="59.865704483955" lon="17.681995654595">
        <ele>13.2</ele>
        <time>2017-10-15T14:59:38Z</time>
      </trkpt>
      <trkpt lat="59.865749746215" lon="17.681988613799">
        <ele>13.2</ele>
        <time>2017-10-15T14:59:39Z</time>
      </trkpt>
      <trkpt lat="59.865788386774" lon="17.681953577457">
        <ele>13.2</ele>
        <time>2017-10-15T14:59:40Z</time>
      </trkpt>
      <trkpt lat="59.865825770048" lon="17.681935221096">
        <ele>13.2</ele>
        <time>2017-10-15T14:59:41Z</time>
      </trkpt>
      <trkpt lat="59.86586583553" lon="17.681907309369">
        <ele>13.4</ele>
        <time>2017-10-15T14:59:42Z</time>
      </trkpt>
      <trkpt lat="59.865897351474" lon="17.681881157841">
        <ele>13.2</ele>
        <time>2017-10-15T14:59:43Z</time>
      </trkpt>
      <trkpt lat="59.865908834677" lon="17.681827513681">
        <ele>13.4</ele>
        <time>2017-10-15T14:59:44Z</time>
      </trkpt>
      <trkpt lat="59.86592534702" lon="17.681768756562">
        <ele>13.4</ele>
        <time>2017-10-15T14:59:45Z</time>
      </trkpt>
      <trkpt lat="59.865942027001" lon="17.681723410483">
        <ele>13.6</ele>
        <time>2017-10-15T14:59:46Z</time>
      </trkpt>
      <trkpt lat="59.865968346167" lon="17.681694744385">
        <ele>13.6</ele>
        <time>2017-10-15T14:59:47Z</time>
      </trkpt>
      <trkpt lat="59.86602006249" lon="17.681657109654">
        <ele>13.6</ele>
        <time>2017-10-15T14:59:48Z</time>
      </trkpt>
      <trkpt lat="59.866069096605" lon="17.681639675302">
        <ele>13.8</ele>
        <time>2017-10-15T14:59:49Z</time>
      </trkpt>
      <trkpt lat="59.866113185399" lon="17.681619055828">
        <ele>13.6</ele>
        <time>2017-10-15T14:59:50Z</time>
      </trkpt>
      <trkpt lat="59.866146796818" lon="17.681590976463">
        <ele>13.6</ele>
        <time>2017-10-15T14:59:51Z</time>
      </trkpt>
      <trkpt lat="59.8661952442" lon="17.681568261514">
        <ele>13.6</ele>
        <time>2017-10-15T14:59:52Z</time>
      </trkpt>
      <trkpt lat="59.866244362134" lon="17.681545043651">
        <ele>13.6</ele>
        <time>2017-10-15T14:59:53Z</time>
      </trkpt>
      <trkpt lat="59.86630001795" lon="17.681513946802">
        <ele>13.8</ele>
        <time>2017-10-15T14:59:54Z</time>
      </trkpt>
      <trkpt lat="59.866350141712" lon="17.6814839396">
        <ele>13.8</ele>
        <time>2017-10-15T14:59:55Z</time>
      </trkpt>
      <trkpt lat="59.866402025673" lon="17.681454016217">
        <ele>13.8</ele>
        <time>2017-10-15T14:59:56Z</time>
      </trkpt>
      <trkpt lat="59.866459441688" lon="17.681426523585">
        <ele>13.8</ele>
        <time>2017-10-15T14:59:57Z</time>
      </trkpt>
      <trkpt lat="59.866511577106" lon="17.681402299894">
        <ele>13.6</ele>
        <time>2017-10-15T14:59:58Z</time>
      </trkpt>
      <trkpt lat="59.866551055855" lon="17.681378914393">
        <ele>13.8</ele>
        <time>2017-10-15T14:59:59Z</time>
      </trkpt>
      <trkpt lat="59.866613165734" lon="17.681351589399">
        <ele>13.8</ele>
        <time>2017-10-15T15:00:00Z</time>
      </trkpt>
      <trkpt lat="59.866668486274" lon="17.681333149219">
        <ele>14</ele>
        <time>2017-10-15T15:00:01Z</time>
      </trkpt>
      <trkpt lat="59.866726740479" lon="17.681310350451">
        <ele>14</ele>
        <time>2017-10-15T15:00:02Z</time>
      </trkpt>
      <trkpt lat="59.866779714087" lon="17.681288138416">
        <ele>14.2</ele>
        <time>2017-10-15T15:00:03Z</time>
      </trkpt>
      <trkpt lat="59.866833525885" lon="17.681258969404">
        <ele>14.2</ele>
        <time>2017-10-15T15:00:04Z</time>
      </trkpt>
      <trkpt lat="59.866882811457" lon="17.68123667355">
        <ele>14.2</ele>
        <time>2017-10-15T15:00:05Z</time>
      </trkpt>
      <trkpt lat="59.8669496152" lon="17.681203648864">
        <ele>14.4</ele>
        <time>2017-10-15T15:00:06Z</time>
      </trkpt>
      <trkpt lat="59.866996637659" lon="17.681178670802">
        <ele>14.4</ele>
        <time>2017-10-15T15:00:07Z</time>
      </trkpt>
      <trkpt lat="59.867059501909" lon="17.681145562297">
        <ele>14.4</ele>
        <time>2017-10-15T15:00:08Z</time>
      </trkpt>
      <trkpt lat="59.867116666467" lon="17.681116058009">
        <ele>14.4</ele>
        <time>2017-10-15T15:00:09Z</time>
      </trkpt>
      <trkpt lat="59.86717425012" lon="17.681096025268">
        <ele>14.6</ele>
        <time>2017-10-15T15:00:10Z</time>
      </trkpt>
      <trkpt lat="59.867220182932" lon="17.681075154337">
        <ele>14.6</ele>
        <time>2017-10-15T15:00:11Z</time>
      </trkpt>
      <trkpt lat="59.867273072721" lon="17.681053445216">
        <ele>14.6</ele>
        <time>2017-10-15T15:00:12Z</time>
      </trkpt>
      <trkpt lat="59.867331662202" lon="17.681027880421">
        <ele>14.8</ele>
        <time>2017-10-15T15:00:13Z</time>
      </trkpt>
      <trkpt lat="59.867385976914" lon="17.681004411101">
        <ele>14.8</ele>
        <time>2017-10-15T15:00:14Z</time>
      </trkpt>
      <trkpt lat="59.867440123988" lon="17.680988234034">
        <ele>14.8</ele>
        <time>2017-10-15T15:00:15Z</time>
      </trkpt>
      <trkpt lat="59.86749611508" lon="17.680965686723">
        <ele>15</ele>
        <time>2017-10-15T15:00:16Z</time>
      </trkpt>
      <trkpt lat="59.867541712616" lon="17.680941043937">
        <ele>15</ele>
        <time>2017-10-15T15:00:17Z</time>
      </trkpt>
      <trkpt lat="59.867607929626" lon="17.680900307903">
        <ele>15.2</ele>
        <time>2017-10-15T15:00:18Z</time>
      </trkpt>
      <trkpt lat="59.867666183831" lon="17.680864098095">
        <ele>15.2</ele>
        <time>2017-10-15T15:00:19Z</time>
      </trkpt>
      <trkpt lat="59.86772494095" lon="17.680831073409">
        <ele>15.4</ele>
        <time>2017-10-15T15:00:20Z</time>
      </trkpt>
      <trkpt lat="59.867775651445" lon="17.680804754243">
        <ele>15.4</ele>
        <time>2017-10-15T15:00:21Z</time>
      </trkpt>
      <trkpt lat="59.867835917306" lon="17.680775082317">
        <ele>15.4</ele>
        <time>2017-10-15T15:00:22Z</time>
      </trkpt>
      <trkpt lat="59.867896602262" lon="17.680749182246">
        <ele>15.6</ele>
        <time>2017-10-15T15:00:23Z</time>
      </trkpt>
      <trkpt lat="59.867964160376" lon="17.680719426501">
        <ele>15.6</ele>
        <time>2017-10-15T15:00:24Z</time>
      </trkpt>
      <trkpt lat="59.868026270255" lon="17.680689084023">
        <ele>15.6</ele>
        <time>2017-10-15T15:00:25Z</time>
      </trkpt>
      <trkpt lat="59.868084859736" lon="17.68065245512">
        <ele>15.6</ele>
        <time>2017-10-15T15:00:26Z</time>
      </trkpt>
      <trkpt lat="59.868140599371" lon="17.680625381583">
        <ele>15.6</ele>
        <time>2017-10-15T15:00:27Z</time>
      </trkpt>
      <trkpt lat="59.868200781413" lon="17.680594200915">
        <ele>15.6</ele>
        <time>2017-10-15T15:00:28Z</time>
      </trkpt>
      <trkpt lat="59.868249061157" lon="17.680570899233">
        <ele>15.6</ele>
        <time>2017-10-15T15:00:29Z</time>
      </trkpt>
      <trkpt lat="59.868316283995" lon="17.680543238963">
        <ele>15.6</ele>
        <time>2017-10-15T15:00:30Z</time>
      </trkpt>
      <trkpt lat="59.868374119105" lon="17.680520943109">
        <ele>15.6</ele>
        <time>2017-10-15T15:00:31Z</time>
      </trkpt>
      <trkpt lat="59.868425583971" lon="17.680506274784">
        <ele>15.4</ele>
        <time>2017-10-15T15:00:32Z</time>
      </trkpt>
      <trkpt lat="59.868488867316" lon="17.680493785753">
        <ele>15.6</ele>
        <time>2017-10-15T15:00:33Z</time>
      </trkpt>
      <trkpt lat="59.86854636715" lon="17.680483308378">
        <ele>15.8</ele>
        <time>2017-10-15T15:00:34Z</time>
      </trkpt>
      <trkpt lat="59.868596323274" lon="17.68046470056">
        <ele>15.6</ele>
        <time>2017-10-15T15:00:35Z</time>
      </trkpt>
      <trkpt lat="59.868651643814" lon="17.680435866824">
        <ele>15.8</ele>
        <time>2017-10-15T15:00:36Z</time>
      </trkpt>
      <trkpt lat="59.868708221639" lon="17.680407619821">
        <ele>15.8</ele>
        <time>2017-10-15T15:00:37Z</time>
      </trkpt>
      <trkpt lat="59.868771421165" lon="17.680381133017">
        <ele>15.8</ele>
        <time>2017-10-15T15:00:38Z</time>
      </trkpt>
      <trkpt lat="59.868827076981" lon="17.680356825507">
        <ele>15.8</ele>
        <time>2017-10-15T15:00:39Z</time>
      </trkpt>
      <trkpt lat="59.868883990082" lon="17.680332937092">
        <ele>16</ele>
        <time>2017-10-15T15:00:40Z</time>
      </trkpt>
      <trkpt lat="59.86893109636" lon="17.680308294306">
        <ele>16</ele>
        <time>2017-10-15T15:00:41Z</time>
      </trkpt>
      <trkpt lat="59.868989685841" lon="17.680274766706">
        <ele>16</ele>
        <time>2017-10-15T15:00:42Z</time>
      </trkpt>
      <trkpt lat="59.86905095753" lon="17.680247274074">
        <ele>16.2</ele>
        <time>2017-10-15T15:00:43Z</time>
      </trkpt>
      <trkpt lat="59.869104936966" lon="17.680219362347">
        <ele>16.2</ele>
        <time>2017-10-15T15:00:44Z</time>
      </trkpt>
      <trkpt lat="59.869160006049" lon="17.680187427308">
        <ele>16.2</ele>
        <time>2017-10-15T15:00:45Z</time>
      </trkpt>
      <trkpt lat="59.869213063476" lon="17.680149457301">
        <ele>16.2</ele>
        <time>2017-10-15T15:00:46Z</time>
      </trkpt>
      <trkpt lat="59.86925966684" lon="17.680131687673">
        <ele>16.2</ele>
        <time>2017-10-15T15:00:47Z</time>
      </trkpt>
      <trkpt lat="59.869324878022" lon="17.680106458154">
        <ele>16.2</ele>
        <time>2017-10-15T15:00:48Z</time>
      </trkpt>
      <trkpt lat="59.869381539666" lon="17.680077289142">
        <ele>16.4</ele>
        <time>2017-10-15T15:00:49Z</time>
      </trkpt>
      <trkpt lat="59.869438285129" lon="17.680043342447">
        <ele>16.6</ele>
        <time>2017-10-15T15:00:50Z</time>
      </trkpt>
      <trkpt lat="59.869485726683" lon="17.680020878955">
        <ele>16.8</ele>
        <time>2017-10-15T15:00:51Z</time>
      </trkpt>
      <trkpt lat="59.869543142698" lon="17.679995733255">
        <ele>16.8</ele>
        <time>2017-10-15T15:00:52Z</time>
      </trkpt>
      <trkpt lat="59.86959997198" lon="17.679970755193">
        <ele>17</ele>
        <time>2017-10-15T15:00:53Z</time>
      </trkpt>
      <trkpt lat="59.869661914221" lon="17.679940915629">
        <ele>17</ele>
        <time>2017-10-15T15:00:54Z</time>
      </trkpt>
      <trkpt lat="59.869717234761" lon="17.679918619775">
        <ele>17</ele>
        <time>2017-10-15T15:00:55Z</time>
      </trkpt>
      <trkpt lat="59.869775321328" lon="17.679892049152">
        <ele>17</ele>
        <time>2017-10-15T15:00:56Z</time>
      </trkpt>
      <trkpt lat="59.869824858357" lon="17.679863885968">
        <ele>17</ele>
        <time>2017-10-15T15:00:57Z</time>
      </trkpt>
      <trkpt lat="59.869887722607" lon="17.679833040576">
        <ele>17</ele>
        <time>2017-10-15T15:00:58Z</time>
      </trkpt>
      <trkpt lat="59.869939355111" lon="17.679812840197">
        <ele>17</ele>
        <time>2017-10-15T15:00:59Z</time>
      </trkpt>
      <trkpt lat="59.870003728103" lon="17.67979163399">
        <ele>17</ele>
        <time>2017-10-15T15:01:00Z</time>
      </trkpt>
      <trkpt lat="59.870060473566" lon="17.679773529086">
        <ele>17</ele>
        <time>2017-10-15T15:01:01Z</time>
      </trkpt>
      <trkpt lat="59.870113698631" lon="17.679757603476">
        <ele>17.2</ele>
        <time>2017-10-15T15:01:02Z</time>
      </trkpt>
      <trkpt lat="59.870172958664" lon="17.679735223803">
        <ele>17.2</ele>
        <time>2017-10-15T15:01:03Z</time>
      </trkpt>
      <trkpt lat="59.870229033575" lon="17.679712257397">
        <ele>17.2</ele>
        <time>2017-10-15T15:01:04Z</time>
      </trkpt>
      <trkpt lat="59.870281085174" lon="17.679686105869">
        <ele>17.2</ele>
        <time>2017-10-15T15:01:05Z</time>
      </trkpt>
      <trkpt lat="59.870330706022" lon="17.679666576042">
        <ele>17.4</ele>
        <time>2017-10-15T15:01:06Z</time>
      </trkpt>
      <trkpt lat="59.870387702942" lon="17.679643022903">
        <ele>17.4</ele>
        <time>2017-10-15T15:01:07Z</time>
      </trkpt>
      <trkpt lat="59.870450483373" lon="17.679617793384">
        <ele>17.4</ele>
        <time>2017-10-15T15:01:08Z</time>
      </trkpt>
      <trkpt lat="59.870504295171" lon="17.679597676824">
        <ele>17.4</ele>
        <time>2017-10-15T15:01:09Z</time>
      </trkpt>
      <trkpt lat="59.870559196616" lon="17.679579739558">
        <ele>17.4</ele>
        <time>2017-10-15T15:01:10Z</time>
      </trkpt>
      <trkpt lat="59.870607560179" lon="17.679562053749">
        <ele>17.6</ele>
        <time>2017-10-15T15:01:11Z</time>
      </trkpt>
      <trkpt lat="59.87066195871" lon="17.679544284121">
        <ele>17.6</ele>
        <time>2017-10-15T15:01:12Z</time>
      </trkpt>
      <trkpt lat="59.87072482296" lon="17.679518132593">
        <ele>17.6</ele>
        <time>2017-10-15T15:01:13Z</time>
      </trkpt>
      <trkpt lat="59.870779724405" lon="17.679501368793">
        <ele>17.6</ele>
        <time>2017-10-15T15:01:14Z</time>
      </trkpt>
      <trkpt lat="59.870835799316" lon="17.679497010205">
        <ele>17.8</ele>
        <time>2017-10-15T15:01:15Z</time>
      </trkpt>
      <trkpt lat="59.870891455132" lon="17.679491142875">
        <ele>17.8</ele>
        <time>2017-10-15T15:01:16Z</time>
      </trkpt>
      <trkpt lat="59.870938812867" lon="17.679482509518">
        <ele>17.8</ele>
        <time>2017-10-15T15:01:17Z</time>
      </trkpt>
      <trkpt lat="59.871005281334" lon="17.679461554768">
        <ele>17.6</ele>
        <time>2017-10-15T15:01:18Z</time>
      </trkpt>
      <trkpt lat="59.871059176951" lon="17.679435235602">
        <ele>17.8</ele>
        <time>2017-10-15T15:01:19Z</time>
      </trkpt>
      <trkpt lat="59.871110055084" lon="17.679410508997">
        <ele>17.8</ele>
        <time>2017-10-15T15:01:20Z</time>
      </trkpt>
      <trkpt lat="59.871158670104" lon="17.679395086301">
        <ele>17.8</ele>
        <time>2017-10-15T15:01:21Z</time>
      </trkpt>
      <trkpt lat="59.871214158282" lon="17.679378825415">
        <ele>18</ele>
        <time>2017-10-15T15:01:22Z</time>
      </trkpt>
      <trkpt lat="59.871267886261" lon="17.679366084927">
        <ele>17.8</ele>
        <time>2017-10-15T15:01:23Z</time>
      </trkpt>
      <trkpt lat="59.871329409407" lon="17.679352757706">
        <ele>18</ele>
        <time>2017-10-15T15:01:24Z</time>
      </trkpt>
      <trkpt lat="59.871385400499" lon="17.679337418829">
        <ele>18</ele>
        <time>2017-10-15T15:01:25Z</time>
      </trkpt>
      <trkpt lat="59.871441978324" lon="17.679318224278">
        <ele>18.2</ele>
        <time>2017-10-15T15:01:26Z</time>
      </trkpt>
      <trkpt lat="59.871493778466" lon="17.679306405799">
        <ele>18.4</ele>
        <time>2017-10-15T15:01:27Z</time>
      </trkpt>
      <trkpt lat="59.871557397087" lon="17.679289977275">
        <ele>18.4</ele>
        <time>2017-10-15T15:01:28Z</time>
      </trkpt>
      <trkpt lat="59.871606347383" lon="17.679279248443">
        <ele>18.6</ele>
        <time>2017-10-15T15:01:29Z</time>
      </trkpt>
      <trkpt lat="59.871668960176" lon="17.679262819919">
        <ele>18.8</ele>
        <time>2017-10-15T15:01:30Z</time>
      </trkpt>
      <trkpt lat="59.871723610164" lon="17.67924513411">
        <ele>18.8</ele>
        <time>2017-10-15T15:01:31Z</time>
      </trkpt>
      <trkpt lat="59.871771806089" lon="17.679231974527">
        <ele>18.8</ele>
        <time>2017-10-15T15:01:32Z</time>
      </trkpt>
      <trkpt lat="59.871834167425" lon="17.679217222383">
        <ele>19</ele>
        <time>2017-10-15T15:01:33Z</time>
      </trkpt>
      <trkpt lat="59.871871383061" lon="17.679211774148">
        <ele>19</ele>
        <time>2017-10-15T15:01:34Z</time>
      </trkpt>
      <trkpt lat="59.871934582587" lon="17.679194423615">
        <ele>19</ele>
        <time>2017-10-15T15:01:35Z</time>
      </trkpt>
      <trkpt lat="59.871986550367" lon="17.67917640253">
        <ele>19.2</ele>
        <time>2017-10-15T15:01:36Z</time>
      </trkpt>
      <trkpt lat="59.872039607794" lon="17.679161734205">
        <ele>19</ele>
        <time>2017-10-15T15:01:37Z</time>
      </trkpt>
      <trkpt lat="59.872096269438" lon="17.679151089192">
        <ele>19.2</ele>
        <time>2017-10-15T15:01:38Z</time>
      </trkpt>
      <trkpt lat="59.872142621345" lon="17.679146311509">
        <ele>19.2</ele>
        <time>2017-10-15T15:01:39Z</time>
      </trkpt>
      <trkpt lat="59.872184614664" lon="17.679146646785">
        <ele>19.2</ele>
        <time>2017-10-15T15:01:40Z</time>
      </trkpt>
      <trkpt lat="59.872216046789" lon="17.679154944866">
        <ele>19.2</ele>
        <time>2017-10-15T15:01:41Z</time>
      </trkpt>
      <trkpt lat="59.872248400923" lon="17.679156537427">
        <ele>19.2</ele>
        <time>2017-10-15T15:01:42Z</time>
      </trkpt>
      <trkpt lat="59.872275306822" lon="17.679157543255">
        <ele>19.4</ele>
        <time>2017-10-15T15:01:43Z</time>
      </trkpt>
      <trkpt lat="59.872282682894" lon="17.679153519943">
        <ele>19.4</ele>
        <time>2017-10-15T15:01:44Z</time>
      </trkpt>
      <trkpt lat="59.872274468632" lon="17.679151508287">
        <ele>19.6</ele>
        <time>2017-10-15T15:01:45Z</time>
      </trkpt>
      <trkpt lat="59.872273127528" lon="17.679157207979">
        <ele>19.6</ele>
        <time>2017-10-15T15:01:46Z</time>
      </trkpt>
      <trkpt lat="59.872317886874" lon="17.679144132215">
        <ele>19.8</ele>
        <time>2017-10-15T15:01:48Z</time>
      </trkpt>
      <trkpt lat="59.872342948755" lon="17.679129296252">
        <ele>19.8</ele>
        <time>2017-10-15T15:01:49Z</time>
      </trkpt>
      <trkpt lat="59.872382511323" lon="17.679109514968">
        <ele>20</ele>
        <time>2017-10-15T15:01:50Z</time>
      </trkpt>
      <trkpt lat="59.872411177421" lon="17.679095684833">
        <ele>20</ele>
        <time>2017-10-15T15:01:51Z</time>
      </trkpt>
      <trkpt lat="59.87244059789" lon="17.679080429775">
        <ele>20</ele>
        <time>2017-10-15T15:01:52Z</time>
      </trkpt>
      <trkpt lat="59.87246155264" lon="17.679068611296">
        <ele>20</ele>
        <time>2017-10-15T15:01:53Z</time>
      </trkpt>
      <trkpt lat="59.872469012531" lon="17.679048243279">
        <ele>20.2</ele>
        <time>2017-10-15T15:01:54Z</time>
      </trkpt>
      <trkpt lat="59.872460295355" lon="17.679048746193">
        <ele>20.2</ele>
        <time>2017-10-15T15:01:55Z</time>
      </trkpt>
      <trkpt lat="59.87246071445" lon="17.679065845269">
        <ele>20</ele>
        <time>2017-10-15T15:01:56Z</time>
      </trkpt>
      <trkpt lat="59.872430958705" lon="17.678679942593">
        <ele>20</ele>
        <time>2017-10-15T15:02:21Z</time>
      </trkpt>
      <trkpt lat="59.872424588461" lon="17.678608528805">
        <ele>20</ele>
        <time>2017-10-15T15:02:22Z</time>
      </trkpt>
      <trkpt lat="59.872424588461" lon="17.678517249914">
        <ele>20.2</ele>
        <time>2017-10-15T15:02:23Z</time>
      </trkpt>
      <trkpt lat="59.872455433853" lon="17.678443573013">
        <ele>20.2</ele>
        <time>2017-10-15T15:02:24Z</time>
      </trkpt>
      <trkpt lat="59.872494577326" lon="17.678434017647">
        <ele>20.2</ele>
        <time>2017-10-15T15:02:25Z</time>
      </trkpt>
      <trkpt lat="59.872541767423" lon="17.678435945484">
        <ele>20.2</ele>
        <time>2017-10-15T15:02:26Z</time>
      </trkpt>
      <trkpt lat="59.872576049394" lon="17.678427563584">
        <ele>20</ele>
        <time>2017-10-15T15:02:27Z</time>
      </trkpt>
      <trkpt lat="59.872624832052" lon="17.678409542499">
        <ele>20</ele>
        <time>2017-10-15T15:02:28Z</time>
      </trkpt>
      <trkpt lat="59.872667160647" lon="17.678400657685">
        <ele>20</ele>
        <time>2017-10-15T15:02:29Z</time>
      </trkpt>
      <trkpt lat="59.872723654653" lon="17.678390347948">
        <ele>20.2</ele>
        <time>2017-10-15T15:02:30Z</time>
      </trkpt>
      <trkpt lat="59.872777131175" lon="17.678384396799">
        <ele>20.2</ele>
        <time>2017-10-15T15:02:31Z</time>
      </trkpt>
      <trkpt lat="59.872824321272" lon="17.678366124257">
        <ele>20.2</ele>
        <time>2017-10-15T15:02:32Z</time>
      </trkpt>
      <trkpt lat="59.872885425323" lon="17.678349109">
        <ele>20.2</ele>
        <time>2017-10-15T15:02:33Z</time>
      </trkpt>
      <trkpt lat="59.872940075311" lon="17.678336452331">
        <ele>20.2</ele>
        <time>2017-10-15T15:02:34Z</time>
      </trkpt>
      <trkpt lat="59.872988857969" lon="17.678322203101">
        <ele>20.2</ele>
        <time>2017-10-15T15:02:35Z</time>
      </trkpt>
      <trkpt lat="59.873044346147" lon="17.678310300803">
        <ele>20.2</ele>
        <time>2017-10-15T15:02:36Z</time>
      </trkpt>
      <trkpt lat="59.873100085782" lon="17.678302673274">
        <ele>20.2</ele>
        <time>2017-10-15T15:02:37Z</time>
      </trkpt>
      <trkpt lat="59.873161776566" lon="17.678286412388">
        <ele>20.2</ele>
        <time>2017-10-15T15:02:38Z</time>
      </trkpt>
      <trkpt lat="59.873214582536" lon="17.678266882561">
        <ele>20.2</ele>
        <time>2017-10-15T15:02:39Z</time>
      </trkpt>
      <trkpt lat="59.873268981067" lon="17.678249448209">
        <ele>20.2</ele>
        <time>2017-10-15T15:02:40Z</time>
      </trkpt>
      <trkpt lat="59.873317260811" lon="17.678245508716">
        <ele>20.4</ele>
        <time>2017-10-15T15:02:41Z</time>
      </trkpt>
      <trkpt lat="59.873372413713" lon="17.67822757145">
        <ele>20.4</ele>
        <time>2017-10-15T15:02:42Z</time>
      </trkpt>
      <trkpt lat="59.873435361782" lon="17.678211813478">
        <ele>20.6</ele>
        <time>2017-10-15T15:02:43Z</time>
      </trkpt>
      <trkpt lat="59.873492107245" lon="17.678196726058">
        <ele>20.6</ele>
        <time>2017-10-15T15:02:44Z</time>
      </trkpt>
      <trkpt lat="59.873546505776" lon="17.678174011109">
        <ele>20.8</ele>
        <time>2017-10-15T15:02:45Z</time>
      </trkpt>
      <trkpt lat="59.873600317574" lon="17.678156660576">
        <ele>21</ele>
        <time>2017-10-15T15:02:46Z</time>
      </trkpt>
      <trkpt lat="59.873642813807" lon="17.678142159889">
        <ele>21</ele>
        <time>2017-10-15T15:02:47Z</time>
      </trkpt>
      <trkpt lat="59.87370207384" lon="17.678101926769">
        <ele>21.2</ele>
        <time>2017-10-15T15:02:48Z</time>
      </trkpt>
      <trkpt lat="59.873740379123" lon="17.678033614284">
        <ele>21.2</ele>
        <time>2017-10-15T15:02:49Z</time>
      </trkpt>
      <trkpt lat="59.873761752968" lon="17.677936132787">
        <ele>21.2</ele>
        <time>2017-10-15T15:02:50Z</time>
      </trkpt>
      <trkpt lat="59.873778265311" lon="17.67784787138">
        <ele>21.2</ele>
        <time>2017-10-15T15:02:51Z</time>
      </trkpt>
      <trkpt lat="59.873812128187" lon="17.677764303837">
        <ele>21</ele>
        <time>2017-10-15T15:02:52Z</time>
      </trkpt>
      <trkpt lat="59.873853199497" lon="17.67769615899">
        <ele>21</ele>
        <time>2017-10-15T15:02:53Z</time>
      </trkpt>
      <trkpt lat="59.873894941359" lon="17.677609741601">
        <ele>21.2</ele>
        <time>2017-10-15T15:02:54Z</time>
      </trkpt>
      <trkpt lat="59.873933246642" lon="17.677540339469">
        <ele>21.2</ele>
        <time>2017-10-15T15:02:55Z</time>
      </trkpt>
      <trkpt lat="59.873967444794" lon="17.677467249301">
        <ele>21.2</ele>
        <time>2017-10-15T15:02:56Z</time>
      </trkpt>
      <trkpt lat="59.873997368177" lon="17.677409749467">
        <ele>21.4</ele>
        <time>2017-10-15T15:02:57Z</time>
      </trkpt>
      <trkpt lat="59.874035841098" lon="17.677341017887">
        <ele>21.4</ele>
        <time>2017-10-15T15:02:58Z</time>
      </trkpt>
      <trkpt lat="59.8740658483" lon="17.677290139754">
        <ele>21.8</ele>
        <time>2017-10-15T15:02:59Z</time>
      </trkpt>
      <trkpt lat="59.874100800823" lon="17.677233645748">
        <ele>21.8</ele>
        <time>2017-10-15T15:03:00Z</time>
      </trkpt>
      <trkpt lat="59.87413457988" lon="17.677183019072">
        <ele>22</ele>
        <time>2017-10-15T15:03:01Z</time>
      </trkpt>
      <trkpt lat="59.874168191299" lon="17.677150748757">
        <ele>21.8</ele>
        <time>2017-10-15T15:03:02Z</time>
      </trkpt>
      <trkpt lat="59.874212615369" lon="17.677096517864">
        <ele>21.8</ele>
        <time>2017-10-15T15:03:03Z</time>
      </trkpt>
      <trkpt lat="59.874253770498" lon="17.677044633903">
        <ele>21.8</ele>
        <time>2017-10-15T15:03:04Z</time>
      </trkpt>
      <trkpt lat="59.874283190967" lon="17.677007082991">
        <ele>21.8</ele>
        <time>2017-10-15T15:03:05Z</time>
      </trkpt>
      <trkpt lat="59.874333063272" lon="17.676943715827">
        <ele>21.6</ele>
        <time>2017-10-15T15:03:06Z</time>
      </trkpt>
      <trkpt lat="59.874376230057" lon="17.676886635088">
        <ele>21.8</ele>
        <time>2017-10-15T15:03:07Z</time>
      </trkpt>
      <trkpt lat="59.874428616932" lon="17.676830392539">
        <ele>21.8</ele>
        <time>2017-10-15T15:03:08Z</time>
      </trkpt>
      <trkpt lat="59.874474130649" lon="17.67678253189">
        <ele>21.8</ele>
        <time>2017-10-15T15:03:09Z</time>
      </trkpt>
      <trkpt lat="59.874517045977" lon="17.676719248545">
        <ele>21.8</ele>
        <time>2017-10-15T15:03:10Z</time>
      </trkpt>
      <trkpt lat="59.874550908853" lon="17.676653702087">
        <ele>21.8</ele>
        <time>2017-10-15T15:03:11Z</time>
      </trkpt>
      <trkpt lat="59.87458887886" lon="17.676579941367">
        <ele>22</ele>
        <time>2017-10-15T15:03:12Z</time>
      </trkpt>
      <trkpt lat="59.874633470568" lon="17.67649503272">
        <ele>21.8</ele>
        <time>2017-10-15T15:03:13Z</time>
      </trkpt>
      <trkpt lat="59.874678900466" lon="17.676431917013">
        <ele>22</ele>
        <time>2017-10-15T15:03:14Z</time>
      </trkpt>
      <trkpt lat="59.874729275685" lon="17.676387073848">
        <ele>22.2</ele>
        <time>2017-10-15T15:03:15Z</time>
      </trkpt>
      <trkpt lat="59.874783171302" lon="17.67635002585">
        <ele>22.2</ele>
        <time>2017-10-15T15:03:16Z</time>
      </trkpt>
      <trkpt lat="59.874827260096" lon="17.676331082756">
        <ele>22.2</ele>
        <time>2017-10-15T15:03:17Z</time>
      </trkpt>
      <trkpt lat="59.874895237305" lon="17.676309373635">
        <ele>22.2</ele>
        <time>2017-10-15T15:03:18Z</time>
      </trkpt>
      <trkpt lat="59.874951563673" lon="17.676304428314">
        <ele>22.2</ele>
        <time>2017-10-15T15:03:19Z</time>
      </trkpt>
      <trkpt lat="59.875006632756" lon="17.676298225708">
        <ele>22.4</ele>
        <time>2017-10-15T15:03:20Z</time>
      </trkpt>
      <trkpt lat="59.875053822853" lon="17.676294956767">
        <ele>22.4</ele>
        <time>2017-10-15T15:03:21Z</time>
      </trkpt>
      <trkpt lat="59.875107802289" lon="17.676287664514">
        <ele>22.6</ele>
        <time>2017-10-15T15:03:22Z</time>
      </trkpt>
      <trkpt lat="59.875160105345" lon="17.676277690053">
        <ele>22.6</ele>
        <time>2017-10-15T15:03:23Z</time>
      </trkpt>
      <trkpt lat="59.875218862464" lon="17.676265871574">
        <ele>22.6</ele>
        <time>2017-10-15T15:03:24Z</time>
      </trkpt>
      <trkpt lat="59.875268818588" lon="17.676262770271">
        <ele>22.6</ele>
        <time>2017-10-15T15:03:25Z</time>
      </trkpt>
      <trkpt lat="59.875317014513" lon="17.676274002017">
        <ele>22.4</ele>
        <time>2017-10-15T15:03:26Z</time>
      </trkpt>
      <trkpt lat="59.87535414633" lon="17.676300740278">
        <ele>22.4</ele>
        <time>2017-10-15T15:03:27Z</time>
      </trkpt>
      <trkpt lat="59.875399576228" lon="17.676341979226">
        <ele>22.4</ele>
        <time>2017-10-15T15:03:28Z</time>
      </trkpt>
      <trkpt lat="59.875433858199" lon="17.676366119098">
        <ele>22.4</ele>
        <time>2017-10-15T15:03:29Z</time>
      </trkpt>
      <trkpt lat="59.875478701364" lon="17.676408615331">
        <ele>22.6</ele>
        <time>2017-10-15T15:03:30Z</time>
      </trkpt>
      <trkpt lat="59.875519437398" lon="17.676455553971">
        <ele>22.6</ele>
        <time>2017-10-15T15:03:31Z</time>
      </trkpt>
      <trkpt lat="59.87555112098" lon="17.676511545063">
        <ele>22.8</ele>
        <time>2017-10-15T15:03:32Z</time>
      </trkpt>
      <trkpt lat="59.875586827874" lon="17.676592514217">
        <ele>23</ele>
        <time>2017-10-15T15:03:33Z</time>
      </trkpt>
      <trkpt lat="59.875616751257" lon="17.676674656837">
        <ele>23</ele>
        <time>2017-10-15T15:03:34Z</time>
      </trkpt>
      <trkpt lat="59.875641394043" lon="17.676751435041">
        <ele>23</ele>
        <time>2017-10-15T15:03:35Z</time>
      </trkpt>
      <trkpt lat="59.875673329082" lon="17.67683869062">
        <ele>23</ele>
        <time>2017-10-15T15:03:36Z</time>
      </trkpt>
      <trkpt lat="59.875708868338" lon="17.676922593439">
        <ele>23</ele>
        <time>2017-10-15T15:03:37Z</time>
      </trkpt>
      <trkpt lat="59.875749436734" lon="17.6770247688">
        <ele>23</ele>
        <time>2017-10-15T15:03:38Z</time>
      </trkpt>
      <trkpt lat="59.87578162323" lon="17.677123004668">
        <ele>23</ele>
        <time>2017-10-15T15:03:39Z</time>
      </trkpt>
      <trkpt lat="59.8758092835" lon="17.677232220825">
        <ele>22.8</ele>
        <time>2017-10-15T15:03:40Z</time>
      </trkpt>
      <trkpt lat="59.875831998449" lon="17.677334480005">
        <ele>22.8</ele>
        <time>2017-10-15T15:03:41Z</time>
      </trkpt>
      <trkpt lat="59.875856305959" lon="17.677458029211">
        <ele>22.8</ele>
        <time>2017-10-15T15:03:42Z</time>
      </trkpt>
      <trkpt lat="59.875884301505" lon="17.677601862615">
        <ele>22.8</ele>
        <time>2017-10-15T15:03:43Z</time>
      </trkpt>
      <trkpt lat="59.875910620671" lon="17.677730273323">
        <ele>22.6</ele>
        <time>2017-10-15T15:03:44Z</time>
      </trkpt>
      <trkpt lat="59.875944818823" lon="17.677864299904">
        <ele>22.2</ele>
        <time>2017-10-15T15:03:45Z</time>
      </trkpt>
      <trkpt lat="59.875969293971" lon="17.678005283462">
        <ele>21.6</ele>
        <time>2017-10-15T15:03:46Z</time>
      </trkpt>
      <trkpt lat="59.875990667816" lon="17.678152553445">
        <ele>21.2</ele>
        <time>2017-10-15T15:03:47Z</time>
      </trkpt>
      <trkpt lat="59.876011957842" lon="17.678284736008">
        <ele>20.8</ele>
        <time>2017-10-15T15:03:48Z</time>
      </trkpt>
      <trkpt lat="59.8760439767" lon="17.678409039585">
        <ele>20.6</ele>
        <time>2017-10-15T15:03:49Z</time>
      </trkpt>
      <trkpt lat="59.876087981675" lon="17.678515992629">
        <ele>20.4</ele>
        <time>2017-10-15T15:03:50Z</time>
      </trkpt>
      <trkpt lat="59.876132238107" lon="17.678575085024">
        <ele>20.6</ele>
        <time>2017-10-15T15:03:51Z</time>
      </trkpt>
      <trkpt lat="59.876188899751" lon="17.678621436931">
        <ele>20.6</ele>
        <time>2017-10-15T15:03:52Z</time>
      </trkpt>
      <trkpt lat="59.876246651042" lon="17.678652198504">
        <ele>20.8</ele>
        <time>2017-10-15T15:03:53Z</time>
      </trkpt>
      <trkpt lat="59.876308760921" lon="17.678695365289">
        <ele>20.8</ele>
        <time>2017-10-15T15:03:54Z</time>
      </trkpt>
      <trkpt lat="59.87636081252" lon="17.678723277016">
        <ele>21</ele>
        <time>2017-10-15T15:03:55Z</time>
      </trkpt>
      <trkpt lat="59.876412361205" lon="17.678737358608">
        <ele>21.2</ele>
        <time>2017-10-15T15:03:56Z</time>
      </trkpt>
      <trkpt lat="59.876456617637" lon="17.678754457684">
        <ele>21.4</ele>
        <time>2017-10-15T15:03:57Z</time>
      </trkpt>
      <trkpt lat="59.876509507426" lon="17.678782956144">
        <ele>21.6</ele>
        <time>2017-10-15T15:03:58Z</time>
      </trkpt>
      <trkpt lat="59.876549572908" lon="17.678801647781">
        <ele>22</ele>
        <time>2017-10-15T15:03:59Z</time>
      </trkpt>
      <trkpt lat="59.876600115765" lon="17.678834504829">
        <ele>22.4</ele>
        <time>2017-10-15T15:04:00Z</time>
      </trkpt>
      <trkpt lat="59.876640516523" lon="17.678871636646">
        <ele>22.8</ele>
        <time>2017-10-15T15:04:01Z</time>
      </trkpt>
      <trkpt lat="59.876676307236" lon="17.67890566716">
        <ele>23.2</ele>
        <time>2017-10-15T15:04:02Z</time>
      </trkpt>
      <trkpt lat="59.876716875632" lon="17.678963418451">
        <ele>23.6</ele>
        <time>2017-10-15T15:04:03Z</time>
      </trkpt>
      <trkpt lat="59.87675140906" lon="17.679018487534">
        <ele>24</ele>
        <time>2017-10-15T15:04:04Z</time>
      </trkpt>
      <trkpt lat="59.876777728226" lon="17.679067856925">
        <ele>24.2</ele>
        <time>2017-10-15T15:04:05Z</time>
      </trkpt>
      <trkpt lat="59.876808154523" lon="17.679131391727">
        <ele>24.4</ele>
        <time>2017-10-15T15:04:06Z</time>
      </trkpt>
      <trkpt lat="59.876834641327" lon="17.679198698384">
        <ele>24.6</ele>
        <time>2017-10-15T15:04:07Z</time>
      </trkpt>
      <trkpt lat="59.876866157271" lon="17.679268016697">
        <ele>24.8</ele>
        <time>2017-10-15T15:04:08Z</time>
      </trkpt>
      <trkpt lat="59.876895745378" lon="17.67933146768">
        <ele>25.2</ele>
        <time>2017-10-15T15:04:09Z</time>
      </trkpt>
      <trkpt lat="59.876922567458" lon="17.679393912835">
        <ele>25.4</ele>
        <time>2017-10-15T15:04:10Z</time>
      </trkpt>
      <trkpt lat="59.876945366226" lon="17.67945049066">
        <ele>25.6</ele>
        <time>2017-10-15T15:04:11Z</time>
      </trkpt>
      <trkpt lat="59.876977049808" lon="17.679517042946">
        <ele>25.8</ele>
        <time>2017-10-15T15:04:12Z</time>
      </trkpt>
      <trkpt lat="59.877015187453" lon="17.679591893313">
        <ele>26</ele>
        <time>2017-10-15T15:04:13Z</time>
      </trkpt>
      <trkpt lat="59.877044272646" lon="17.67965919997">
        <ele>26</ele>
        <time>2017-10-15T15:04:14Z</time>
      </trkpt>
      <trkpt lat="59.877072603468" lon="17.679725333161">
        <ele>26.2</ele>
        <time>2017-10-15T15:04:15Z</time>
      </trkpt>
      <trkpt lat="59.877104622326" lon="17.679784677013">
        <ele>26.2</ele>
        <time>2017-10-15T15:04:16Z</time>
      </trkpt>
      <trkpt lat="59.87712775637" lon="17.679829017264">
        <ele>26.4</ele>
        <time>2017-10-15T15:04:17Z</time>
      </trkpt>
      <trkpt lat="59.877160697237" lon="17.679900431052">
        <ele>26.4</ele>
        <time>2017-10-15T15:04:18Z</time>
      </trkpt>
      <trkpt lat="59.877189866249" lon="17.679919457965">
        <ele>26.6</ele>
        <time>2017-10-15T15:04:19Z</time>
      </trkpt>
      <trkpt lat="59.877223477668" lon="17.67991149516">
        <ele>26.6</ele>
        <time>2017-10-15T15:04:20Z</time>
      </trkpt>
      <trkpt lat="59.877250718843" lon="17.679868915108">
        <ele>26.6</ele>
        <time>2017-10-15T15:04:21Z</time>
      </trkpt>
      <trkpt lat="59.877277960018" lon="17.679810828541">
        <ele>26.6</ele>
        <time>2017-10-15T15:04:22Z</time>
      </trkpt>
      <trkpt lat="59.877308470134" lon="17.679751065594">
        <ele>26.6</ele>
        <time>2017-10-15T15:04:23Z</time>
      </trkpt>
      <trkpt lat="59.877347697426" lon="17.679680070901">
        <ele>26.6</ele>
        <time>2017-10-15T15:04:24Z</time>
      </trkpt>
      <trkpt lat="59.877387343813" lon="17.679610082036">
        <ele>26.6</ele>
        <time>2017-10-15T15:04:25Z</time>
      </trkpt>
      <trkpt lat="59.877433947177" lon="17.679558198075">
        <ele>26.4</ele>
        <time>2017-10-15T15:04:26Z</time>
      </trkpt>
      <trkpt lat="59.877469570252" lon="17.679505140648">
        <ele>26.2</ele>
        <time>2017-10-15T15:04:27Z</time>
      </trkpt>
      <trkpt lat="59.87750997101" lon="17.679423584761">
        <ele>26.2</ele>
        <time>2017-10-15T15:04:28Z</time>
      </trkpt>
      <trkpt lat="59.877536541633" lon="17.679360469054">
        <ele>26.2</ele>
        <time>2017-10-15T15:04:29Z</time>
      </trkpt>
      <trkpt lat="59.877572583803" lon="17.679289306723">
        <ele>26</ele>
        <time>2017-10-15T15:04:30Z</time>
      </trkpt>
      <trkpt lat="59.877616924054" lon="17.679250749983">
        <ele>25.8</ele>
        <time>2017-10-15T15:04:31Z</time>
      </trkpt>
      <trkpt lat="59.877645003419" lon="17.679287546524">
        <ele>25.6</ele>
        <time>2017-10-15T15:04:32Z</time>
      </trkpt>
      <trkpt lat="59.877654642604" lon="17.679356026647">
        <ele>25.6</ele>
        <time>2017-10-15T15:04:33Z</time>
      </trkpt>
      <trkpt lat="59.877641650659" lon="17.679397265595">
        <ele>25.6</ele>
        <time>2017-10-15T15:04:34Z</time>
      </trkpt>
      <trkpt lat="59.87761223019" lon="17.679453675782">
        <ele>25.6</ele>
        <time>2017-10-15T15:04:35Z</time>
      </trkpt>
      <trkpt lat="59.877580630427" lon="17.679498016033">
        <ele>25.6</ele>
        <time>2017-10-15T15:04:36Z</time>
      </trkpt>
      <trkpt lat="59.877547521922" lon="17.679547636881">
        <ele>25.8</ele>
        <time>2017-10-15T15:04:37Z</time>
      </trkpt>
      <trkpt lat="59.87751248558" lon="17.679606058724">
        <ele>26</ele>
        <time>2017-10-15T15:04:38Z</time>
      </trkpt>
      <trkpt lat="59.877480466722" lon="17.679654925201">
        <ele>26.2</ele>
        <time>2017-10-15T15:04:39Z</time>
      </trkpt>
      <trkpt lat="59.87744543038" lon="17.679687279335">
        <ele>26.4</ele>
        <time>2017-10-15T15:04:40Z</time>
      </trkpt>
      <trkpt lat="59.877411148409" lon="17.679685519136">
        <ele>26.4</ele>
        <time>2017-10-15T15:04:41Z</time>
      </trkpt>
      <trkpt lat="59.877375525334" lon="17.679664732024">
        <ele>26.4</ele>
        <time>2017-10-15T15:04:42Z</time>
      </trkpt>
      <trkpt lat="59.87733562749" lon="17.679663558558">
        <ele>26.4</ele>
        <time>2017-10-15T15:04:43Z</time>
      </trkpt>
      <trkpt lat="59.877298244216" lon="17.679681914919">
        <ele>26.4</ele>
        <time>2017-10-15T15:04:44Z</time>
      </trkpt>
      <trkpt lat="59.877260441847" lon="17.67964578893">
        <ele>26.4</ele>
        <time>2017-10-15T15:04:45Z</time>
      </trkpt>
      <trkpt lat="59.877232111025" lon="17.679576051522">
        <ele>26.4</ele>
        <time>2017-10-15T15:04:46Z</time>
      </trkpt>
      <trkpt lat="59.877205037488" lon="17.679526095398">
        <ele>26.4</ele>
        <time>2017-10-15T15:04:47Z</time>
      </trkpt>
      <trkpt lat="59.877165894015" lon="17.679447556995">
        <ele>26.4</ele>
        <time>2017-10-15T15:04:48Z</time>
      </trkpt>
      <trkpt lat="59.87713278551" lon="17.679372287533">
        <ele>26.4</ele>
        <time>2017-10-15T15:04:49Z</time>
      </trkpt>
      <trkpt lat="59.877097413892" lon="17.679294838777">
        <ele>26.2</ele>
        <time>2017-10-15T15:04:50Z</time>
      </trkpt>
      <trkpt lat="59.87706573031" lon="17.679227029206">
        <ele>26.2</ele>
        <time>2017-10-15T15:04:51Z</time>
      </trkpt>
      <trkpt lat="59.877029269045" lon="17.67914706588">
        <ele>26</ele>
        <time>2017-10-15T15:04:52Z</time>
      </trkpt>
      <trkpt lat="59.876993562151" lon="17.679065258536">
        <ele>25.8</ele>
        <time>2017-10-15T15:04:53Z</time>
      </trkpt>
      <trkpt lat="59.876955340687" lon="17.678965933021">
        <ele>25.8</ele>
        <time>2017-10-15T15:04:54Z</time>
      </trkpt>
      <trkpt lat="59.876926004037" lon="17.678881527288">
        <ele>25.8</ele>
        <time>2017-10-15T15:04:55Z</time>
      </trkpt>
      <trkpt lat="59.876890213324" lon="17.678791338044">
        <ele>25.6</ele>
        <time>2017-10-15T15:04:56Z</time>
      </trkpt>
      <trkpt lat="59.87685869738" lon="17.678715062754">
        <ele>25.6</ele>
        <time>2017-10-15T15:04:57Z</time>
      </trkpt>
      <trkpt lat="59.876814608586" lon="17.678618503266">
        <ele>25.6</ele>
        <time>2017-10-15T15:04:58Z</time>
      </trkpt>
      <trkpt lat="59.876780326615" lon="17.678545664555">
        <ele>25.6</ele>
        <time>2017-10-15T15:04:59Z</time>
      </trkpt>
      <trkpt lat="59.87673715983" lon="17.678452290189">
        <ele>25.4</ele>
        <time>2017-10-15T15:05:00Z</time>
      </trkpt>
      <trkpt lat="59.87670279404" lon="17.678369560836">
        <ele>25.2</ele>
        <time>2017-10-15T15:05:01Z</time>
      </trkpt>
      <trkpt lat="59.876684605317" lon="17.678282724352">
        <ele>25</ele>
        <time>2017-10-15T15:05:02Z</time>
      </trkpt>
      <trkpt lat="59.876674211761" lon="17.678171664177">
        <ele>24.8</ele>
        <time>2017-10-15T15:05:03Z</time>
      </trkpt>
      <trkpt lat="59.876677815978" lon="17.678074685594">
        <ele>24.6</ele>
        <time>2017-10-15T15:05:04Z</time>
      </trkpt>
      <trkpt lat="59.876692400484" lon="17.677989693128">
        <ele>24.6</ele>
        <time>2017-10-15T15:05:05Z</time>
      </trkpt>
      <trkpt lat="59.876724000247" lon="17.677900593531">
        <ele>24.4</ele>
        <time>2017-10-15T15:05:06Z</time>
      </trkpt>
      <trkpt lat="59.876766831756" lon="17.677828341553">
        <ele>24.4</ele>
        <time>2017-10-15T15:05:07Z</time>
      </trkpt>
      <trkpt lat="59.876824163952" lon="17.67775818505">
        <ele>24.4</ele>
        <time>2017-10-15T15:05:08Z</time>
      </trkpt>
      <trkpt lat="59.876878981578" lon="17.67769867356">
        <ele>24.4</ele>
        <time>2017-10-15T15:05:09Z</time>
      </trkpt>
      <trkpt lat="59.876936984326" lon="17.677645532314">
        <ele>24.6</ele>
        <time>2017-10-15T15:05:10Z</time>
      </trkpt>
      <trkpt lat="59.876989371201" lon="17.677602197891">
        <ele>24.8</ele>
        <time>2017-10-15T15:05:11Z</time>
      </trkpt>
      <trkpt lat="59.877048631234" lon="17.677552744681">
        <ele>24.8</ele>
        <time>2017-10-15T15:05:12Z</time>
      </trkpt>
      <trkpt lat="59.877116943719" lon="17.677503459109">
        <ele>24.8</ele>
        <time>2017-10-15T15:05:13Z</time>
      </trkpt>
      <trkpt lat="59.877174359734" lon="17.677461884885">
        <ele>25</ele>
        <time>2017-10-15T15:05:14Z</time>
      </trkpt>
      <trkpt lat="59.877243007495" lon="17.677415449159">
        <ele>25</ele>
        <time>2017-10-15T15:05:15Z</time>
      </trkpt>
      <trkpt lat="59.877306374659" lon="17.67736423575">
        <ele>25</ele>
        <time>2017-10-15T15:05:16Z</time>
      </trkpt>
      <trkpt lat="59.877356749878" lon="17.677324170268">
        <ele>24.8</ele>
        <time>2017-10-15T15:05:17Z</time>
      </trkpt>
      <trkpt lat="59.8774353721" lon="17.677261725113">
        <ele>24.8</ele>
        <time>2017-10-15T15:05:18Z</time>
      </trkpt>
      <trkpt lat="59.877499158359" lon="17.677210930799">
        <ele>24.6</ele>
        <time>2017-10-15T15:05:19Z</time>
      </trkpt>
      <trkpt lat="59.877564788636" lon="17.677156783725">
        <ele>24.6</ele>
        <time>2017-10-15T15:05:20Z</time>
      </trkpt>
      <trkpt lat="59.877621869375" lon="17.677110180361">
        <ele>24.4</ele>
        <time>2017-10-15T15:05:21Z</time>
      </trkpt>
      <trkpt lat="59.877684063073" lon="17.677053770174">
        <ele>24.4</ele>
        <time>2017-10-15T15:05:22Z</time>
      </trkpt>
      <trkpt lat="59.877746759685" lon="17.677001550937">
        <ele>24.4</ele>
        <time>2017-10-15T15:05:23Z</time>
      </trkpt>
      <trkpt lat="59.877815742722" lon="17.676941452714">
        <ele>24.4</ele>
        <time>2017-10-15T15:05:24Z</time>
      </trkpt>
      <trkpt lat="59.877877265868" lon="17.676882444138">
        <ele>24.2</ele>
        <time>2017-10-15T15:05:25Z</time>
      </trkpt>
      <trkpt lat="59.87793660972" lon="17.676827291236">
        <ele>24.4</ele>
        <time>2017-10-15T15:05:26Z</time>
      </trkpt>
      <trkpt lat="59.877988912776" lon="17.676776999836">
        <ele>24.4</ele>
        <time>2017-10-15T15:05:27Z</time>
      </trkpt>
      <trkpt lat="59.878051190293" lon="17.676718075079">
        <ele>24.4</ele>
        <time>2017-10-15T15:05:28Z</time>
      </trkpt>
      <trkpt lat="59.878108773946" lon="17.676660910521">
        <ele>24.4</ele>
        <time>2017-10-15T15:05:29Z</time>
      </trkpt>
      <trkpt lat="59.87817717025" lon="17.6765972919">
        <ele>24.4</ele>
        <time>2017-10-15T15:05:30Z</time>
      </trkpt>
      <trkpt lat="59.87823668174" lon="17.676533757098">
        <ele>24.6</ele>
        <time>2017-10-15T15:05:31Z</time>
      </trkpt>
      <trkpt lat="59.878288398063" lon="17.676477095454">
        <ele>24.6</ele>
        <time>2017-10-15T15:05:32Z</time>
      </trkpt>
      <trkpt lat="59.878354531254" lon="17.676412471005">
        <ele>24.6</ele>
        <time>2017-10-15T15:05:33Z</time>
      </trkpt>
      <trkpt lat="59.878410270889" lon="17.676347259823">
        <ele>24.4</ele>
        <time>2017-10-15T15:05:34Z</time>
      </trkpt>
      <trkpt lat="59.878458718271" lon="17.676294370034">
        <ele>24.2</ele>
        <time>2017-10-15T15:05:35Z</time>
      </trkpt>
      <trkpt lat="59.878515463734" lon="17.676237205476">
        <ele>24</ele>
        <time>2017-10-15T15:05:36Z</time>
      </trkpt>
      <trkpt lat="59.878572460654" lon="17.676189512465">
        <ele>24</ele>
        <time>2017-10-15T15:05:37Z</time>
      </trkpt>
      <trkpt lat="59.878637588017" lon="17.676146178042">
        <ele>23.8</ele>
        <time>2017-10-15T15:05:38Z</time>
      </trkpt>
      <trkpt lat="59.878692321824" lon="17.676099658497">
        <ele>24</ele>
        <time>2017-10-15T15:05:39Z</time>
      </trkpt>
      <trkpt lat="59.878744121966" lon="17.676043164491">
        <ele>24</ele>
        <time>2017-10-15T15:05:40Z</time>
      </trkpt>
      <trkpt lat="59.878788378398" lon="17.675994214195">
        <ele>24</ele>
        <time>2017-10-15T15:05:41Z</time>
      </trkpt>
      <trkpt lat="59.878839172712" lon="17.675936211447">
        <ele>24.2</ele>
        <time>2017-10-15T15:05:42Z</time>
      </trkpt>
      <trkpt lat="59.878893152148" lon="17.675870832627">
        <ele>24.2</ele>
        <time>2017-10-15T15:05:43Z</time>
      </trkpt>
      <trkpt lat="59.878943611186" lon="17.675819870675">
        <ele>24.4</ele>
        <time>2017-10-15T15:05:44Z</time>
      </trkpt>
      <trkpt lat="59.878996836251" lon="17.675782068306">
        <ele>24.4</ele>
        <time>2017-10-15T15:05:45Z</time>
      </trkpt>
      <trkpt lat="59.879055509551" lon="17.675780559564">
        <ele>24.4</ele>
        <time>2017-10-15T15:05:46Z</time>
      </trkpt>
      <trkpt lat="59.879101945277" lon="17.675789360559">
        <ele>24.6</ele>
        <time>2017-10-15T15:05:47Z</time>
      </trkpt>
      <trkpt lat="59.879166905002" lon="17.675765639782">
        <ele>24.8</ele>
        <time>2017-10-15T15:05:48Z</time>
      </trkpt>
      <trkpt lat="59.879213005452" lon="17.6757004286">
        <ele>24.8</ele>
        <time>2017-10-15T15:05:49Z</time>
      </trkpt>
      <trkpt lat="59.879245108129" lon="17.675604288207">
        <ele>25</ele>
        <time>2017-10-15T15:05:50Z</time>
      </trkpt>
      <trkpt lat="59.879264470318" lon="17.675510830022">
        <ele>25</ele>
        <time>2017-10-15T15:05:51Z</time>
      </trkpt>
      <trkpt lat="59.879286514715" lon="17.675401110951">
        <ele>25</ele>
        <time>2017-10-15T15:05:52Z</time>
      </trkpt>
      <trkpt lat="59.879324484722" lon="17.675305473472">
        <ele>25</ele>
        <time>2017-10-15T15:05:53Z</time>
      </trkpt>
      <trkpt lat="59.879379637624" lon="17.675224504318">
        <ele>25</ele>
        <time>2017-10-15T15:05:54Z</time>
      </trkpt>
      <trkpt lat="59.879430012843" lon="17.675154180177">
        <ele>25</ele>
        <time>2017-10-15T15:05:55Z</time>
      </trkpt>
      <trkpt lat="59.879480974795" lon="17.675088214624">
        <ele>24.8</ele>
        <time>2017-10-15T15:05:56Z</time>
      </trkpt>
      <trkpt lat="59.879526991426" lon="17.675042868545">
        <ele>24.8</ele>
        <time>2017-10-15T15:05:57Z</time>
      </trkpt>
      <trkpt lat="59.879584407441" lon="17.674985620168">
        <ele>24.8</ele>
        <time>2017-10-15T15:05:58Z</time>
      </trkpt>
      <trkpt lat="59.879627071312" lon="17.674939938813">
        <ele>24.8</ele>
        <time>2017-10-15T15:05:59Z</time>
      </trkpt>
      <trkpt lat="59.879681972757" lon="17.67488570792">
        <ele>24.8</ele>
        <time>2017-10-15T15:06:00Z</time>
      </trkpt>
      <trkpt lat="59.879728324664" lon="17.674833656321">
        <ele>25</ele>
        <time>2017-10-15T15:06:01Z</time>
      </trkpt>
      <trkpt lat="59.879771575268" lon="17.67478931607">
        <ele>25</ele>
        <time>2017-10-15T15:06:02Z</time>
      </trkpt>
      <trkpt lat="59.879828153093" lon="17.674732235331">
        <ele>25</ele>
        <time>2017-10-15T15:06:03Z</time>
      </trkpt>
      <trkpt lat="59.879880037054" lon="17.6746778368">
        <ele>25.2</ele>
        <time>2017-10-15T15:06:04Z</time>
      </trkpt>
      <trkpt lat="59.879927813884" lon="17.674629557056">
        <ele>25.2</ele>
        <time>2017-10-15T15:06:05Z</time>
      </trkpt>
      <trkpt lat="59.879981541863" lon="17.674572057222">
        <ele>25.4</ele>
        <time>2017-10-15T15:06:06Z</time>
      </trkpt>
      <trkpt lat="59.880035856575" lon="17.674509947343">
        <ele>25.2</ele>
        <time>2017-10-15T15:06:07Z</time>
      </trkpt>
      <trkpt lat="59.880100397205" lon="17.67444481998">
        <ele>25.2</ele>
        <time>2017-10-15T15:06:08Z</time>
      </trkpt>
      <trkpt lat="59.880158232315" lon="17.674387571603">
        <ele>25.2</ele>
        <time>2017-10-15T15:06:09Z</time>
      </trkpt>
      <trkpt lat="59.880216737977" lon="17.674331245235">
        <ele>25</ele>
        <time>2017-10-15T15:06:10Z</time>
      </trkpt>
      <trkpt lat="59.880269543947" lon="17.67428137293">
        <ele>25</ele>
        <time>2017-10-15T15:06:11Z</time>
      </trkpt>
      <trkpt lat="59.880329306894" lon="17.674221526164">
        <ele>24.8</ele>
        <time>2017-10-15T15:06:12Z</time>
      </trkpt>
      <trkpt lat="59.880397284103" lon="17.674153213679">
        <ele>24.8</ele>
        <time>2017-10-15T15:06:13Z</time>
      </trkpt>
      <trkpt lat="59.880462160009" lon="17.674109292523">
        <ele>24.8</ele>
        <time>2017-10-15T15:06:14Z</time>
      </trkpt>
      <trkpt lat="59.880514965979" lon="17.674048691386">
        <ele>24.8</ele>
        <time>2017-10-15T15:06:15Z</time>
      </trkpt>
      <trkpt lat="59.880571208528" lon="17.673994795769">
        <ele>24.8</ele>
        <time>2017-10-15T15:06:16Z</time>
      </trkpt>
      <trkpt lat="59.880616386969" lon="17.673960178522">
        <ele>24.6</ele>
        <time>2017-10-15T15:06:17Z</time>
      </trkpt>
      <trkpt lat="59.880681095237" lon="17.673927824388">
        <ele>24.4</ele>
        <time>2017-10-15T15:06:18Z</time>
      </trkpt>
      <trkpt lat="59.880728704429" lon="17.67391592209">
        <ele>24.4</ele>
        <time>2017-10-15T15:06:19Z</time>
      </trkpt>
      <trkpt lat="59.880775894526" lon="17.673946599844">
        <ele>24</ele>
        <time>2017-10-15T15:06:20Z</time>
      </trkpt>
      <trkpt lat="59.880810930868" lon="17.67399638833">
        <ele>24</ele>
        <time>2017-10-15T15:06:21Z</time>
      </trkpt>
      <trkpt lat="59.880857534232" lon="17.674018516546">
        <ele>24</ele>
        <time>2017-10-15T15:06:22Z</time>
      </trkpt>
      <trkpt lat="59.880908496184" lon="17.674011559569">
        <ele>24.2</ele>
        <time>2017-10-15T15:06:23Z</time>
      </trkpt>
      <trkpt lat="59.880967001846" lon="17.673975768856">
        <ele>24.2</ele>
        <time>2017-10-15T15:06:24Z</time>
      </trkpt>
      <trkpt lat="59.881014108124" lon="17.673919610126">
        <ele>24.2</ele>
        <time>2017-10-15T15:06:25Z</time>
      </trkpt>
      <trkpt lat="59.881063645153" lon="17.67386395431">
        <ele>24.2</ele>
        <time>2017-10-15T15:06:26Z</time>
      </trkpt>
      <trkpt lat="59.881108236861" lon="17.673822799181">
        <ele>24.2</ele>
        <time>2017-10-15T15:06:27Z</time>
      </trkpt>
      <trkpt lat="59.881168418903" lon="17.673774351799">
        <ele>24.2</ele>
        <time>2017-10-15T15:06:28Z</time>
      </trkpt>
      <trkpt lat="59.881213597344" lon="17.673741075656">
        <ele>24.2</ele>
        <time>2017-10-15T15:06:29Z</time>
      </trkpt>
      <trkpt lat="59.881272941196" lon="17.67368625803">
        <ele>24</ele>
        <time>2017-10-15T15:06:30Z</time>
      </trkpt>
      <trkpt lat="59.881322562044" lon="17.673624567246">
        <ele>24</ele>
        <time>2017-10-15T15:06:31Z</time>
      </trkpt>
      <trkpt lat="59.881363298078" lon="17.673563127919">
        <ele>24</ele>
        <time>2017-10-15T15:06:32Z</time>
      </trkpt>
      <trkpt lat="59.881409817623" lon="17.67346749044">
        <ele>23.8</ele>
        <time>2017-10-15T15:06:33Z</time>
      </trkpt>
      <trkpt lat="59.881458935557" lon="17.673395909014">
        <ele>23.8</ele>
        <time>2017-10-15T15:06:34Z</time>
      </trkpt>
      <trkpt lat="59.881512412079" lon="17.673378055567">
        <ele>23.8</ele>
        <time>2017-10-15T15:06:35Z</time>
      </trkpt>
      <trkpt lat="59.88157267794" lon="17.673377301196">
        <ele>23.6</ele>
        <time>2017-10-15T15:06:36Z</time>
      </trkpt>
      <trkpt lat="59.881630932145" lon="17.673364141613">
        <ele>23.6</ele>
        <time>2017-10-15T15:06:37Z</time>
      </trkpt>
      <trkpt lat="59.881694131671" lon="17.673324662864">
        <ele>23.8</ele>
        <time>2017-10-15T15:06:38Z</time>
      </trkpt>
      <trkpt lat="59.881749200754" lon="17.673276718396">
        <ele>23.8</ele>
        <time>2017-10-15T15:06:39Z</time>
      </trkpt>
      <trkpt lat="59.881804437475" lon="17.673232210507">
        <ele>23.8</ele>
        <time>2017-10-15T15:06:40Z</time>
      </trkpt>
      <trkpt lat="59.881853052495" lon="17.67319507869">
        <ele>23.6</ele>
        <time>2017-10-15T15:06:41Z</time>
      </trkpt>
      <trkpt lat="59.881908708311" lon="17.673148642964">
        <ele>23.6</ele>
        <time>2017-10-15T15:06:42Z</time>
      </trkpt>
      <trkpt lat="59.881969225629" lon="17.673097345736">
        <ele>23.6</ele>
        <time>2017-10-15T15:06:43Z</time>
      </trkpt>
      <trkpt lat="59.882022031599" lon="17.673047138155">
        <ele>23.6</ele>
        <time>2017-10-15T15:06:44Z</time>
      </trkpt>
      <trkpt lat="59.882072071542" lon="17.672983938629">
        <ele>23.6</ele>
        <time>2017-10-15T15:06:45Z</time>
      </trkpt>
      <trkpt lat="59.882115908879" lon="17.67290506495">
        <ele>23.4</ele>
        <time>2017-10-15T15:06:46Z</time>
      </trkpt>
      <trkpt lat="59.88214516171" lon="17.67282962785">
        <ele>23.4</ele>
        <time>2017-10-15T15:06:47Z</time>
      </trkpt>
      <trkpt lat="59.882187155029" lon="17.672716975114">
        <ele>23.4</ele>
        <time>2017-10-15T15:06:48Z</time>
      </trkpt>
      <trkpt lat="59.882226969054" lon="17.672628797526">
        <ele>23.4</ele>
        <time>2017-10-15T15:06:49Z</time>
      </trkpt>
      <trkpt lat="59.88227675754" lon="17.672556797005">
        <ele>23.6</ele>
        <time>2017-10-15T15:06:50Z</time>
      </trkpt>
      <trkpt lat="59.882327384216" lon="17.672521676844">
        <ele>23.6</ele>
        <time>2017-10-15T15:06:51Z</time>
      </trkpt>
      <trkpt lat="59.882382285661" lon="17.672479180611">
        <ele>23.6</ele>
        <time>2017-10-15T15:06:52Z</time>
      </trkpt>
      <trkpt lat="59.882437522382" lon="17.672427715745">
        <ele>23.6</ele>
        <time>2017-10-15T15:06:53Z</time>
      </trkpt>
      <trkpt lat="59.882500889546" lon="17.672374825956">
        <ele>23.8</ele>
        <time>2017-10-15T15:06:54Z</time>
      </trkpt>
      <trkpt lat="59.882557635009" lon="17.672342974736">
        <ele>23.8</ele>
        <time>2017-10-15T15:06:55Z</time>
      </trkpt>
      <trkpt lat="59.88261873906" lon="17.672342304184">
        <ele>23.8</ele>
        <time>2017-10-15T15:06:56Z</time>
      </trkpt>
      <trkpt lat="59.882670203926" lon="17.672362672201">
        <ele>23.6</ele>
        <time>2017-10-15T15:06:57Z</time>
      </trkpt>
      <trkpt lat="59.882737678221" lon="17.672372479024">
        <ele>23.6</ele>
        <time>2017-10-15T15:06:58Z</time>
      </trkpt>
      <trkpt lat="59.882790903286" lon="17.67236107964">
        <ele>23.6</ele>
        <time>2017-10-15T15:06:59Z</time>
      </trkpt>
      <trkpt lat="59.882858545219" lon="17.672328474049">
        <ele>23.4</ele>
        <time>2017-10-15T15:07:00Z</time>
      </trkpt>
      <trkpt lat="59.882916212691" lon="17.672275751898">
        <ele>23.4</ele>
        <time>2017-10-15T15:07:01Z</time>
      </trkpt>
      <trkpt lat="59.882966755548" lon="17.672230070543">
        <ele>23.2</ele>
        <time>2017-10-15T15:07:02Z</time>
      </trkpt>
      <trkpt lat="59.883032721101" lon="17.672170139958">
        <ele>23.2</ele>
        <time>2017-10-15T15:07:03Z</time>
      </trkpt>
      <trkpt lat="59.883089885659" lon="17.67210878445">
        <ele>23</ele>
        <time>2017-10-15T15:07:04Z</time>
      </trkpt>
      <trkpt lat="59.883140428516" lon="17.672057235765">
        <ele>22.8</ele>
        <time>2017-10-15T15:07:05Z</time>
      </trkpt>
      <trkpt lat="59.883198347445" lon="17.671997640456">
        <ele>22.8</ele>
        <time>2017-10-15T15:07:06Z</time>
      </trkpt>
      <trkpt lat="59.883253500347" lon="17.671934189473">
        <ele>22.8</ele>
        <time>2017-10-15T15:07:07Z</time>
      </trkpt>
      <trkpt lat="59.88331276038" lon="17.671862691866">
        <ele>22.8</ele>
        <time>2017-10-15T15:07:08Z</time>
      </trkpt>
      <trkpt lat="59.883364392884" lon="17.671795049933">
        <ele>22.6</ele>
        <time>2017-10-15T15:07:09Z</time>
      </trkpt>
      <trkpt lat="59.883415522474" lon="17.671732185683">
        <ele>22.6</ele>
        <time>2017-10-15T15:07:10Z</time>
      </trkpt>
      <trkpt lat="59.883458018707" lon="17.671677032781">
        <ele>22.6</ele>
        <time>2017-10-15T15:07:11Z</time>
      </trkpt>
      <trkpt lat="59.883506885184" lon="17.671610229038">
        <ele>22.6</ele>
        <time>2017-10-15T15:07:12Z</time>
      </trkpt>
      <trkpt lat="59.883558936783" lon="17.6715346243">
        <ele>22.4</ele>
        <time>2017-10-15T15:07:13Z</time>
      </trkpt>
      <trkpt lat="59.883607384165" lon="17.671469664575">
        <ele>22.4</ele>
        <time>2017-10-15T15:07:14Z</time>
      </trkpt>
      <trkpt lat="59.883652814063" lon="17.671408560524">
        <ele>22.4</ele>
        <time>2017-10-15T15:07:15Z</time>
      </trkpt>
      <trkpt lat="59.883696232305" lon="17.671348210844">
        <ele>22.4</ele>
        <time>2017-10-15T15:07:16Z</time>
      </trkpt>
      <trkpt lat="59.88373436995" lon="17.671317616909">
        <ele>22.4</ele>
        <time>2017-10-15T15:07:17Z</time>
      </trkpt>
      <trkpt lat="59.883795474001" lon="17.67130579843">
        <ele>22.4</ele>
        <time>2017-10-15T15:07:18Z</time>
      </trkpt>
      <trkpt lat="59.883845597763" lon="17.671313677416">
        <ele>22.4</ele>
        <time>2017-10-15T15:07:19Z</time>
      </trkpt>
      <trkpt lat="59.883893961326" lon="17.671322813687">
        <ele>22.4</ele>
        <time>2017-10-15T15:07:20Z</time>
      </trkpt>
      <trkpt lat="59.883939894138" lon="17.671301272204">
        <ele>22.6</ele>
        <time>2017-10-15T15:07:21Z</time>
      </trkpt>
      <trkpt lat="59.883981049267" lon="17.671238240316">
        <ele>22.6</ele>
        <time>2017-10-15T15:07:22Z</time>
      </trkpt>
      <trkpt lat="59.884020528016" lon="17.671185769622">
        <ele>22.6</ele>
        <time>2017-10-15T15:07:23Z</time>
      </trkpt>
      <trkpt lat="59.884053636521" lon="17.671131287272">
        <ele>22.6</ele>
        <time>2017-10-15T15:07:24Z</time>
      </trkpt>
      <trkpt lat="59.884091606528" lon="17.671066746642">
        <ele>22.6</ele>
        <time>2017-10-15T15:07:25Z</time>
      </trkpt>
      <trkpt lat="59.884121529911" lon="17.670990219895">
        <ele>22.6</ele>
        <time>2017-10-15T15:07:26Z</time>
      </trkpt>
      <trkpt lat="59.884145418326" lon="17.670892235484">
        <ele>22.4</ele>
        <time>2017-10-15T15:07:27Z</time>
      </trkpt>
      <trkpt lat="59.884157069167" lon="17.670784528069">
        <ele>22.4</ele>
        <time>2017-10-15T15:07:28Z</time>
      </trkpt>
      <trkpt lat="59.884172324225" lon="17.67068889059">
        <ele>22.4</ele>
        <time>2017-10-15T15:07:29Z</time>
      </trkpt>
      <trkpt lat="59.884193949527" lon="17.670595348586">
        <ele>22.2</ele>
        <time>2017-10-15T15:07:30Z</time>
      </trkpt>
      <trkpt lat="59.884218424675" lon="17.670511445767">
        <ele>22.2</ele>
        <time>2017-10-15T15:07:31Z</time>
      </trkpt>
      <trkpt lat="59.884252539008" lon="17.670425028378">
        <ele>22.2</ele>
        <time>2017-10-15T15:07:32Z</time>
      </trkpt>
      <trkpt lat="59.884291011929" lon="17.670350429468">
        <ele>22.2</ele>
        <time>2017-10-15T15:07:33Z</time>
      </trkpt>
      <trkpt lat="59.884331496506" lon="17.670279770051">
        <ele>22</ele>
        <time>2017-10-15T15:07:34Z</time>
      </trkpt>
      <trkpt lat="59.884358486224" lon="17.670238195827">
        <ele>22.2</ele>
        <time>2017-10-15T15:07:35Z</time>
      </trkpt>
      <trkpt lat="59.884397713516" lon="17.670159405967">
        <ele>22.4</ele>
        <time>2017-10-15T15:07:36Z</time>
      </trkpt>
      <trkpt lat="59.884440461206" lon="17.670059912814">
        <ele>22.4</ele>
        <time>2017-10-15T15:07:37Z</time>
      </trkpt>
      <trkpt lat="59.884473904987" lon="17.669981877325">
        <ele>22.4</ele>
        <time>2017-10-15T15:07:38Z</time>
      </trkpt>
      <trkpt lat="59.884507264949" lon="17.669903925655">
        <ele>22.4</ele>
        <time>2017-10-15T15:07:39Z</time>
      </trkpt>
      <trkpt lat="59.88454154692" lon="17.669825219614">
        <ele>22.4</ele>
        <time>2017-10-15T15:07:40Z</time>
      </trkpt>
      <trkpt lat="59.884575996529" lon="17.669749195781">
        <ele>22.2</ele>
        <time>2017-10-15T15:07:41Z</time>
      </trkpt>
      <trkpt lat="59.884604494989" lon="17.669676608527">
        <ele>22.2</ele>
        <time>2017-10-15T15:07:42Z</time>
      </trkpt>
      <trkpt lat="59.884639363693" lon="17.669589688224">
        <ele>22.4</ele>
        <time>2017-10-15T15:07:43Z</time>
      </trkpt>
      <trkpt lat="59.884672136922" lon="17.669506372138">
        <ele>22.4</ele>
        <time>2017-10-15T15:07:44Z</time>
      </trkpt>
      <trkpt lat="59.884706335074" lon="17.669405454062">
        <ele>22.6</ele>
        <time>2017-10-15T15:07:45Z</time>
      </trkpt>
      <trkpt lat="59.884736509914" lon="17.669318785216">
        <ele>22.6</ele>
        <time>2017-10-15T15:07:46Z</time>
      </trkpt>
      <trkpt lat="59.884768109677" lon="17.669230859085">
        <ele>22.4</ele>
        <time>2017-10-15T15:07:47Z</time>
      </trkpt>
      <trkpt lat="59.884802978381" lon="17.669132707036">
        <ele>22.4</ele>
        <time>2017-10-15T15:07:48Z</time>
      </trkpt>
      <trkpt lat="59.884832650307" lon="17.669049223312">
        <ele>22.2</ele>
        <time>2017-10-15T15:07:49Z</time>
      </trkpt>
      <trkpt lat="59.884860142939" lon="17.668950316892">
        <ele>22.2</ele>
        <time>2017-10-15T15:07:50Z</time>
      </trkpt>
      <trkpt lat="59.884888809037" lon="17.668858367449">
        <ele>22.2</ele>
        <time>2017-10-15T15:07:51Z</time>
      </trkpt>
      <trkpt lat="59.884909009416" lon="17.668758455201">
        <ele>22.2</ele>
        <time>2017-10-15T15:07:52Z</time>
      </trkpt>
      <trkpt lat="59.884935412401" lon="17.668671870174">
        <ele>22.2</ele>
        <time>2017-10-15T15:07:53Z</time>
      </trkpt>
      <trkpt lat="59.884953768762" lon="17.668608083915">
        <ele>22.2</ele>
        <time>2017-10-15T15:07:54Z</time>
      </trkpt>
      <trkpt lat="59.884972795675" lon="17.668541699267">
        <ele>22.2</ele>
        <time>2017-10-15T15:07:55Z</time>
      </trkpt>
      <trkpt lat="59.884989559475" lon="17.668462490312">
        <ele>22</ele>
        <time>2017-10-15T15:07:56Z</time>
      </trkpt>
      <trkpt lat="59.88500506599" lon="17.668380850606">
        <ele>21.8</ele>
        <time>2017-10-15T15:07:57Z</time>
      </trkpt>
      <trkpt lat="59.885020740143" lon="17.668303737126">
        <ele>21.8</ele>
        <time>2017-10-15T15:07:58Z</time>
      </trkpt>
      <trkpt lat="59.88504278454" lon="17.668221929782">
        <ele>21.8</ele>
        <time>2017-10-15T15:07:59Z</time>
      </trkpt>
      <trkpt lat="59.885066840593" lon="17.668151521822">
        <ele>21.8</ele>
        <time>2017-10-15T15:08:00Z</time>
      </trkpt>
      <trkpt lat="59.885099446184" lon="17.668069463021">
        <ele>21.8</ele>
        <time>2017-10-15T15:08:01Z</time>
      </trkpt>
      <trkpt lat="59.885139008752" lon="17.668008526608">
        <ele>21.8</ele>
        <time>2017-10-15T15:08:02Z</time>
      </trkpt>
      <trkpt lat="59.885177900768" lon="17.667954882448">
        <ele>21.8</ele>
        <time>2017-10-15T15:08:03Z</time>
      </trkpt>
      <trkpt lat="59.885217211879" lon="17.667904507229">
        <ele>21.8</ele>
        <time>2017-10-15T15:08:04Z</time>
      </trkpt>
      <trkpt lat="59.88523808281" lon="17.667870644353">
        <ele>21.8</ele>
        <time>2017-10-15T15:08:05Z</time>
      </trkpt>
      <trkpt lat="59.885257947913" lon="17.667853461458">
        <ele>21.8</ele>
        <time>2017-10-15T15:08:06Z</time>
      </trkpt>
      <trkpt lat="59.885300192689" lon="17.667853461458">
        <ele>21.6</ele>
        <time>2017-10-15T15:08:07Z</time>
      </trkpt>
      <trkpt lat="59.885334726117" lon="17.667857065675">
        <ele>21.6</ele>
        <time>2017-10-15T15:08:08Z</time>
      </trkpt>
      <trkpt lat="59.885369008088" lon="17.667882714289">
        <ele>21.4</ele>
        <time>2017-10-15T15:08:09Z</time>
      </trkpt>
      <trkpt lat="59.885400440213" lon="17.667907524713">
        <ele>21.4</ele>
        <time>2017-10-15T15:08:10Z</time>
      </trkpt>
      <trkpt lat="59.885429693044" lon="17.667932167499">
        <ele>21.4</ele>
        <time>2017-10-15T15:08:11Z</time>
      </trkpt>
      <trkpt lat="59.885448133224" lon="17.667940046485">
        <ele>21.6</ele>
        <time>2017-10-15T15:08:12Z</time>
      </trkpt>
      <trkpt lat="59.885476380227" lon="17.667953708982">
        <ele>21.6</ele>
        <time>2017-10-15T15:08:13Z</time>
      </trkpt>
      <trkpt lat="59.885502615574" lon="17.667985224926">
        <ele>21.6</ele>
        <time>2017-10-15T15:08:14Z</time>
      </trkpt>
      <trkpt lat="59.88551217094" lon="17.668052028669">
        <ele>21.6</ele>
        <time>2017-10-15T15:08:15Z</time>
      </trkpt>
      <trkpt lat="59.885503705221" lon="17.668109360865">
        <ele>21.6</ele>
        <time>2017-10-15T15:08:16Z</time>
      </trkpt>
      <trkpt lat="59.885501358289" lon="17.668165603414">
        <ele>21.6</ele>
        <time>2017-10-15T15:08:17Z</time>
      </trkpt>
      <trkpt lat="59.885501442108" lon="17.668254954468">
        <ele>21.6</ele>
        <time>2017-10-15T15:08:18Z</time>
      </trkpt>
      <trkpt lat="59.885523821781" lon="17.668297366882">
        <ele>21.6</ele>
        <time>2017-10-15T15:08:19Z</time>
      </trkpt>
      <trkpt lat="59.885549805671" lon="17.668268784603">
        <ele>21.6</ele>
        <time>2017-10-15T15:08:20Z</time>
      </trkpt>
      <trkpt lat="59.885556427372" lon="17.668218325565">
        <ele>21.6</ele>
        <time>2017-10-15T15:08:21Z</time>
      </trkpt>
      <trkpt lat="59.88555491863" lon="17.668186725802">
        <ele>21.8</ele>
        <time>2017-10-15T15:08:22Z</time>
      </trkpt>
      <trkpt lat="59.885554583354" lon="17.668170884011">
        <ele>21.8</ele>
        <time>2017-10-15T15:08:23Z</time>
      </trkpt>
      <trkpt lat="59.885552823155" lon="17.6681651005">
        <ele>21.8</ele>
        <time>2017-10-15T15:08:24Z</time>
      </trkpt>
      <trkpt lat="59.885552068784" lon="17.668153030564">
        <ele>21.8</ele>
        <time>2017-10-15T15:08:25Z</time>
      </trkpt>
      <trkpt lat="59.885549470395" lon="17.668129561244">
        <ele>21.8</ele>
        <time>2017-10-15T15:08:26Z</time>
      </trkpt>
      <trkpt lat="59.8855490513" lon="17.668100643689">
        <ele>21.8</ele>
        <time>2017-10-15T15:08:27Z</time>
      </trkpt>
      <trkpt lat="59.885554834811" lon="17.668059740017">
        <ele>21.8</ele>
        <time>2017-10-15T15:08:28Z</time>
      </trkpt>
      <trkpt lat="59.885564641634" lon="17.668041299837">
        <ele>21.6</ele>
        <time>2017-10-15T15:08:29Z</time>
      </trkpt>
      <trkpt lat="59.885572101525" lon="17.668021602372">
        <ele>21.6</ele>
        <time>2017-10-15T15:08:30Z</time>
      </trkpt>
      <trkpt lat="59.885571263335" lon="17.668008107513">
        <ele>21.4</ele>
        <time>2017-10-15T15:08:31Z</time>
      </trkpt>
      <trkpt lat="59.885570928059" lon="17.66801757906">
        <ele>21.4</ele>
        <time>2017-10-15T15:08:32Z</time>
      </trkpt>
      <trkpt lat="59.885568162032" lon="17.667852287992">
        <ele>21.4</ele>
        <time>2017-10-15T15:08:36Z</time>
      </trkpt>
      <trkpt lat="59.885550224766" lon="17.667800152574">
        <ele>21.4</ele>
        <time>2017-10-15T15:08:37Z</time>
      </trkpt>
      <trkpt lat="59.885522396858" lon="17.667739886713">
        <ele>21.4</ele>
        <time>2017-10-15T15:08:38Z</time>
      </trkpt>
      <trkpt lat="59.885494988045" lon="17.667720775981">
        <ele>21.4</ele>
        <time>2017-10-15T15:08:39Z</time>
      </trkpt>
      <trkpt lat="59.885464897024" lon="17.667701329973">
        <ele>21.4</ele>
        <time>2017-10-15T15:08:40Z</time>
      </trkpt>
      <trkpt lat="59.8854317047" lon="17.667676519549">
        <ele>21.2</ele>
        <time>2017-10-15T15:08:41Z</time>
      </trkpt>
      <trkpt lat="59.885397590367" lon="17.667652044401">
        <ele>21.2</ele>
        <time>2017-10-15T15:08:42Z</time>
      </trkpt>
      <trkpt lat="59.885357357247" lon="17.667625222321">
        <ele>21.2</ele>
        <time>2017-10-15T15:08:43Z</time>
      </trkpt>
      <trkpt lat="59.885326008941" lon="17.667593538739">
        <ele>21.2</ele>
        <time>2017-10-15T15:08:44Z</time>
      </trkpt>
      <trkpt lat="59.885295666463" lon="17.667559592044">
        <ele>21.2</ele>
        <time>2017-10-15T15:08:45Z</time>
      </trkpt>
      <trkpt lat="59.885278064473" lon="17.667511982852">
        <ele>21.2</ele>
        <time>2017-10-15T15:08:46Z</time>
      </trkpt>
      <trkpt lat="59.885287703658" lon="17.667471665913">
        <ele>21.2</ele>
        <time>2017-10-15T15:08:47Z</time>
      </trkpt>
      <trkpt lat="59.885319890154" lon="17.667444843833">
        <ele>21.2</ele>
        <time>2017-10-15T15:08:48Z</time>
      </trkpt>
      <trkpt lat="59.885350651727" lon="17.667479377261">
        <ele>21.4</ele>
        <time>2017-10-15T15:08:49Z</time>
      </trkpt>
      <trkpt lat="59.885380658929" lon="17.667517011992">
        <ele>21.4</ele>
        <time>2017-10-15T15:08:50Z</time>
      </trkpt>
      <trkpt lat="59.885410330855" lon="17.667542073873">
        <ele>21.6</ele>
        <time>2017-10-15T15:08:51Z</time>
      </trkpt>
      <trkpt lat="59.885439332229" lon="17.667558418578">
        <ele>21.6</ele>
        <time>2017-10-15T15:08:52Z</time>
      </trkpt>
      <trkpt lat="59.885457018038" lon="17.667559592044">
        <ele>21.8</ele>
        <time>2017-10-15T15:08:53Z</time>
      </trkpt>
      <trkpt lat="59.885471770182" lon="17.66754735447">
        <ele>21.8</ele>
        <time>2017-10-15T15:08:54Z</time>
      </trkpt>
      <trkpt lat="59.885479397711" lon="17.667522544046">
        <ele>21.8</ele>
        <time>2017-10-15T15:08:55Z</time>
      </trkpt>
      <trkpt lat="59.885484426851" lon="17.667494129405">
        <ele>21.8</ele>
        <time>2017-10-15T15:08:56Z</time>
      </trkpt>
      <trkpt lat="59.885484929765" lon="17.667473007017">
        <ele>21.6</ele>
        <time>2017-10-15T15:08:57Z</time>
      </trkpt>
      <trkpt lat="59.885481828462" lon="17.667463786927">
        <ele>21.6</ele>
        <time>2017-10-15T15:08:58Z</time>
      </trkpt>
      <trkpt lat="59.885481912281" lon="17.66747527013">
        <ele>21.4</ele>
        <time>2017-10-15T15:08:59Z</time>
      </trkpt>
      <trkpt lat="59.885491635285" lon="17.667442999815">
        <ele>21.4</ele>
        <time>2017-10-15T15:09:01Z</time>
      </trkpt>
      <trkpt lat="59.88550378904" lon="17.667424643454">
        <ele>21.4</ele>
        <time>2017-10-15T15:09:02Z</time>
      </trkpt>
      <trkpt lat="59.885522313039" lon="17.667390277664">
        <ele>21.4</ele>
        <time>2017-10-15T15:09:03Z</time>
      </trkpt>
      <trkpt lat="59.885536981364" lon="17.667341075911">
        <ele>21.6</ele>
        <time>2017-10-15T15:09:04Z</time>
      </trkpt>
      <trkpt lat="59.885546620549" lon="17.667292460891">
        <ele>21.6</ele>
        <time>2017-10-15T15:09:05Z</time>
      </trkpt>
      <trkpt lat="59.885570928059" lon="17.667209396262">
        <ele>21.8</ele>
        <time>2017-10-15T15:09:06Z</time>
      </trkpt>
      <trkpt lat="59.885599175062" lon="17.667126834547">
        <ele>21.8</ele>
        <time>2017-10-15T15:09:07Z</time>
      </trkpt>
      <trkpt lat="59.885618201975" lon="17.667058857338">
        <ele>22</ele>
        <time>2017-10-15T15:09:08Z</time>
      </trkpt>
      <trkpt lat="59.885631361558" lon="17.666983420238">
        <ele>22</ele>
        <time>2017-10-15T15:09:09Z</time>
      </trkpt>
      <trkpt lat="59.885642006571" lon="17.666911419717">
        <ele>22.2</ele>
        <time>2017-10-15T15:09:10Z</time>
      </trkpt>
      <trkpt lat="59.885653489774" lon="17.666830450563">
        <ele>22</ele>
        <time>2017-10-15T15:09:11Z</time>
      </trkpt>
      <trkpt lat="59.885663212778" lon="17.666744452269">
        <ele>22</ele>
        <time>2017-10-15T15:09:12Z</time>
      </trkpt>
      <trkpt lat="59.885672349049" lon="17.666660968545">
        <ele>22</ele>
        <time>2017-10-15T15:09:13Z</time>
      </trkpt>
      <trkpt lat="59.885681066225" lon="17.666575137889">
        <ele>21.8</ele>
        <time>2017-10-15T15:09:14Z</time>
      </trkpt>
      <trkpt lat="59.885690286315" lon="17.666490564518">
        <ele>21.8</ele>
        <time>2017-10-15T15:09:15Z</time>
      </trkpt>
      <trkpt lat="59.885699171129" lon="17.666421330024">
        <ele>21.6</ele>
        <time>2017-10-15T15:09:16Z</time>
      </trkpt>
      <trkpt lat="59.885713168902" lon="17.666324183803">
        <ele>21.6</ele>
        <time>2017-10-15T15:09:17Z</time>
      </trkpt>
      <trkpt lat="59.88572423301" lon="17.666251093635">
        <ele>21.8</ele>
        <time>2017-10-15T15:09:18Z</time>
      </trkpt>
      <trkpt lat="59.88573512948" lon="17.666164676246">
        <ele>22</ele>
        <time>2017-10-15T15:09:19Z</time>
      </trkpt>
      <trkpt lat="59.885739990982" lon="17.666085299653">
        <ele>22.2</ele>
        <time>2017-10-15T15:09:20Z</time>
      </trkpt>
      <trkpt lat="59.885735297118" lon="17.666002318843">
        <ele>22.4</ele>
        <time>2017-10-15T15:09:21Z</time>
      </trkpt>
      <trkpt lat="59.885723562458" lon="17.66592210406">
        <ele>22.4</ele>
        <time>2017-10-15T15:09:22Z</time>
      </trkpt>
      <trkpt lat="59.885708391219" lon="17.665843733295">
        <ele>22.4</ele>
        <time>2017-10-15T15:09:23Z</time>
      </trkpt>
      <trkpt lat="59.885688526116" lon="17.665784305624">
        <ele>22.2</ele>
        <time>2017-10-15T15:09:24Z</time>
      </trkpt>
      <trkpt lat="59.885663548054" lon="17.665740635925">
        <ele>22.2</ele>
        <time>2017-10-15T15:09:25Z</time>
      </trkpt>
      <trkpt lat="59.885634127585" lon="17.665719764994">
        <ele>22.2</ele>
        <time>2017-10-15T15:09:26Z</time>
      </trkpt>
      <trkpt lat="59.885603449831" lon="17.665721944288">
        <ele>22.2</ele>
        <time>2017-10-15T15:09:27Z</time>
      </trkpt>
      <trkpt lat="59.885580231968" lon="17.665757315906">
        <ele>22.2</ele>
        <time>2017-10-15T15:09:28Z</time>
      </trkpt>
      <trkpt lat="59.885553828983" lon="17.665802159071">
        <ele>22.4</ele>
        <time>2017-10-15T15:09:29Z</time>
      </trkpt>
      <trkpt lat="59.885534885889" lon="17.665849013892">
        <ele>22.4</ele>
        <time>2017-10-15T15:09:30Z</time>
      </trkpt>
      <trkpt lat="59.885518457365" lon="17.665896539265">
        <ele>22.4</ele>
        <time>2017-10-15T15:09:31Z</time>
      </trkpt>
      <trkpt lat="59.885503202307" lon="17.6659522789">
        <ele>22.6</ele>
        <time>2017-10-15T15:09:32Z</time>
      </trkpt>
      <trkpt lat="59.885490545638" lon="17.66601346677">
        <ele>22.6</ele>
        <time>2017-10-15T15:09:33Z</time>
      </trkpt>
      <trkpt lat="59.885477386055" lon="17.666076247201">
        <ele>22.6</ele>
        <time>2017-10-15T15:09:34Z</time>
      </trkpt>
      <trkpt lat="59.885460706074" lon="17.666143553858">
        <ele>22.6</ele>
        <time>2017-10-15T15:09:35Z</time>
      </trkpt>
      <trkpt lat="59.885441343885" lon="17.666209938506">
        <ele>22.6</ele>
        <time>2017-10-15T15:09:36Z</time>
      </trkpt>
      <trkpt lat="59.88542248461" lon="17.666277915715">
        <ele>22.6</ele>
        <time>2017-10-15T15:09:37Z</time>
      </trkpt>
      <trkpt lat="59.885406726638" lon="17.666346563476">
        <ele>22.4</ele>
        <time>2017-10-15T15:09:38Z</time>
      </trkpt>
      <trkpt lat="59.885393818512" lon="17.666421246205">
        <ele>22.4</ele>
        <time>2017-10-15T15:09:39Z</time>
      </trkpt>
      <trkpt lat="59.885381329481" lon="17.66649374964">
        <ele>22.4</ele>
        <time>2017-10-15T15:09:40Z</time>
      </trkpt>
      <trkpt lat="59.885366996432" lon="17.666573629147">
        <ele>22.4</ele>
        <time>2017-10-15T15:09:41Z</time>
      </trkpt>
      <trkpt lat="59.885348640071" lon="17.666657029052">
        <ele>22.4</ele>
        <time>2017-10-15T15:09:42Z</time>
      </trkpt>
      <trkpt lat="59.885330451348" lon="17.666734226351">
        <ele>22.4</ele>
        <time>2017-10-15T15:09:43Z</time>
      </trkpt>
      <trkpt lat="59.885313016996" lon="17.666810250184">
        <ele>22.4</ele>
        <time>2017-10-15T15:09:44Z</time>
      </trkpt>
      <trkpt lat="59.885308658408" lon="17.666865906">
        <ele>22.4</ele>
        <time>2017-10-15T15:09:45Z</time>
      </trkpt>
      <trkpt lat="59.885301701431" lon="17.666954251226">
        <ele>22.4</ele>
        <time>2017-10-15T15:09:46Z</time>
      </trkpt>
      <trkpt lat="59.885301449974" lon="17.667049218153">
        <ele>22.6</ele>
        <time>2017-10-15T15:09:47Z</time>
      </trkpt>
      <trkpt lat="59.885315531566" lon="17.667116440991">
        <ele>22.6</ele>
        <time>2017-10-15T15:09:48Z</time>
      </trkpt>
      <trkpt lat="59.885342521284" lon="17.667172264445">
        <ele>22.4</ele>
        <time>2017-10-15T15:09:49Z</time>
      </trkpt>
      <trkpt lat="59.8853730314" lon="17.667218364895">
        <ele>22.6</ele>
        <time>2017-10-15T15:09:50Z</time>
      </trkpt>
      <trkpt lat="59.885405217896" lon="17.667266979915">
        <ele>22.4</ele>
        <time>2017-10-15T15:09:51Z</time>
      </trkpt>
      <trkpt lat="59.885444780464" lon="17.667322468093">
        <ele>22.4</ele>
        <time>2017-10-15T15:09:52Z</time>
      </trkpt>
      <trkpt lat="59.885471351087" lon="17.66737301095">
        <ele>22.2</ele>
        <time>2017-10-15T15:09:53Z</time>
      </trkpt>
      <trkpt lat="59.88549205438" lon="17.66743252244">
        <ele>22.2</ele>
        <time>2017-10-15T15:09:54Z</time>
      </trkpt>
      <trkpt lat="59.885493646941" lon="17.66748868117">
        <ele>22</ele>
        <time>2017-10-15T15:09:55Z</time>
      </trkpt>
      <trkpt lat="59.88548534886" lon="17.667529668661">
        <ele>22</ele>
        <time>2017-10-15T15:09:56Z</time>
      </trkpt>
      <trkpt lat="59.885464813205" lon="17.667581552622">
        <ele>22</ele>
        <time>2017-10-15T15:09:57Z</time>
      </trkpt>
      <trkpt lat="59.885439164591" lon="17.667584486287">
        <ele>21.8</ele>
        <time>2017-10-15T15:09:58Z</time>
      </trkpt>
      <trkpt lat="59.885415276176" lon="17.667577194034">
        <ele>21.6</ele>
        <time>2017-10-15T15:09:59Z</time>
      </trkpt>
      <trkpt lat="59.885387364449" lon="17.667562860985">
        <ele>21.6</ele>
        <time>2017-10-15T15:10:00Z</time>
      </trkpt>
      <trkpt lat="59.88535710579" lon="17.667553473257">
        <ele>21.6</ele>
        <time>2017-10-15T15:10:01Z</time>
      </trkpt>
      <trkpt lat="59.885320057792" lon="17.667544672262">
        <ele>21.6</ele>
        <time>2017-10-15T15:10:02Z</time>
      </trkpt>
      <trkpt lat="59.885282087785" lon="17.667527908462">
        <ele>21.6</ele>
        <time>2017-10-15T15:10:03Z</time>
      </trkpt>
      <trkpt lat="59.885247554357" lon="17.667502511305">
        <ele>21.6</ele>
        <time>2017-10-15T15:10:04Z</time>
      </trkpt>
      <trkpt lat="59.885210841635" lon="17.667440652883">
        <ele>21.8</ele>
        <time>2017-10-15T15:10:05Z</time>
      </trkpt>
      <trkpt lat="59.885178068406" lon="17.667374184416">
        <ele>21.8</ele>
        <time>2017-10-15T15:10:06Z</time>
      </trkpt>
      <trkpt lat="59.885143115883" lon="17.667303105904">
        <ele>21.8</ele>
        <time>2017-10-15T15:10:07Z</time>
      </trkpt>
      <trkpt lat="59.885110091197" lon="17.667236721256">
        <ele>21.8</ele>
        <time>2017-10-15T15:10:08Z</time>
      </trkpt>
      <trkpt lat="59.885068684611" lon="17.667186681313">
        <ele>21.6</ele>
        <time>2017-10-15T15:10:09Z</time>
      </trkpt>
      <trkpt lat="59.885020740143" lon="17.667159943052">
        <ele>21.6</ele>
        <time>2017-10-15T15:10:10Z</time>
      </trkpt>
      <trkpt lat="59.884976399892" lon="17.667153572808">
        <ele>21.2</ele>
        <time>2017-10-15T15:10:11Z</time>
      </trkpt>
      <trkpt lat="59.884915295841" lon="17.667171510074">
        <ele>21</ele>
        <time>2017-10-15T15:10:12Z</time>
      </trkpt>
      <trkpt lat="59.884861316405" lon="17.667212329927">
        <ele>21</ele>
        <time>2017-10-15T15:10:13Z</time>
      </trkpt>
      <trkpt lat="59.884807839883" lon="17.667260190576">
        <ele>21</ele>
        <time>2017-10-15T15:10:14Z</time>
      </trkpt>
      <trkpt lat="59.884751764972" lon="17.667298831135">
        <ele>21.2</ele>
        <time>2017-10-15T15:10:15Z</time>
      </trkpt>
      <trkpt lat="59.884692588758" lon="17.667322216636">
        <ele>21.2</ele>
        <time>2017-10-15T15:10:16Z</time>
      </trkpt>
      <trkpt lat="59.884630478879" lon="17.667314924383">
        <ele>21.2</ele>
        <time>2017-10-15T15:10:17Z</time>
      </trkpt>
      <trkpt lat="59.884566524982" lon="17.667282234973">
        <ele>21.2</ele>
        <time>2017-10-15T15:10:18Z</time>
      </trkpt>
      <trkpt lat="59.884509192786" lon="17.667243342957">
        <ele>21.2</ele>
        <time>2017-10-15T15:10:19Z</time>
      </trkpt>
      <trkpt lat="59.884457811739" lon="17.667202606923">
        <ele>21</ele>
        <time>2017-10-15T15:10:20Z</time>
      </trkpt>
      <trkpt lat="59.88440408376" lon="17.667152650799">
        <ele>20.8</ele>
        <time>2017-10-15T15:10:21Z</time>
      </trkpt>
      <trkpt lat="59.884351613066" lon="17.667092384938">
        <ele>20.6</ele>
        <time>2017-10-15T15:10:22Z</time>
      </trkpt>
      <trkpt lat="59.884308446281" lon="17.667031448525">
        <ele>20.4</ele>
        <time>2017-10-15T15:10:23Z</time>
      </trkpt>
      <trkpt lat="59.884262764926" lon="17.666952155751">
        <ele>20.4</ele>
        <time>2017-10-15T15:10:24Z</time>
      </trkpt>
      <trkpt lat="59.88422387291" lon="17.666868923484">
        <ele>20.6</ele>
        <time>2017-10-15T15:10:25Z</time>
      </trkpt>
      <trkpt lat="59.884190848224" lon="17.666784014837">
        <ele>20.6</ele>
        <time>2017-10-15T15:10:26Z</time>
      </trkpt>
      <trkpt lat="59.884155476606" lon="17.666683851132">
        <ele>20.8</ele>
        <time>2017-10-15T15:10:27Z</time>
      </trkpt>
      <trkpt lat="59.884124379757" lon="17.666585028531">
        <ele>20.8</ele>
        <time>2017-10-15T15:10:28Z</time>
      </trkpt>
      <trkpt lat="59.884101580989" lon="17.666487798491">
        <ele>20.8</ele>
        <time>2017-10-15T15:10:29Z</time>
      </trkpt>
      <trkpt lat="59.884080039506" lon="17.666368356416">
        <ele>20.8</ele>
        <time>2017-10-15T15:10:30Z</time>
      </trkpt>
      <trkpt lat="59.884066963742" lon="17.666257799155">
        <ele>21</ele>
        <time>2017-10-15T15:10:31Z</time>
      </trkpt>
      <trkpt lat="59.884057743652" lon="17.666129723723">
        <ele>21</ele>
        <time>2017-10-15T15:10:32Z</time>
      </trkpt>
      <trkpt lat="59.88405288215" lon="17.666007431802">
        <ele>21</ele>
        <time>2017-10-15T15:10:33Z</time>
      </trkpt>
      <trkpt lat="59.884046428087" lon="17.665881954759">
        <ele>20.8</ele>
        <time>2017-10-15T15:10:34Z</time>
      </trkpt>
      <trkpt lat="59.884040393119" lon="17.665773660611">
        <ele>20.8</ele>
        <time>2017-10-15T15:10:35Z</time>
      </trkpt>
      <trkpt lat="59.884033352323" lon="17.665634185795">
        <ele>20.8</ele>
        <time>2017-10-15T15:10:36Z</time>
      </trkpt>
      <trkpt lat="59.884026227708" lon="17.665496890273">
        <ele>20.6</ele>
        <time>2017-10-15T15:10:37Z</time>
      </trkpt>
      <trkpt lat="59.884018348722" lon="17.665371497049">
        <ele>20.4</ele>
        <time>2017-10-15T15:10:38Z</time>
      </trkpt>
      <trkpt lat="59.884007955166" lon="17.665248283119">
        <ele>20</ele>
        <time>2017-10-15T15:10:39Z</time>
      </trkpt>
      <trkpt lat="59.883991442823" lon="17.66512917632">
        <ele>19.8</ele>
        <time>2017-10-15T15:10:40Z</time>
      </trkpt>
      <trkpt lat="59.883966213304" lon="17.665035550497">
        <ele>19.6</ele>
        <time>2017-10-15T15:10:41Z</time>
      </trkpt>
      <trkpt lat="59.883930674048" lon="17.664920634648">
        <ele>19.6</ele>
        <time>2017-10-15T15:10:42Z</time>
      </trkpt>
      <trkpt lat="59.88389949338" lon="17.664819465115">
        <ele>19.8</ele>
        <time>2017-10-15T15:10:43Z</time>
      </trkpt>
      <trkpt lat="59.883866301056" lon="17.664721564523">
        <ele>19.8</ele>
        <time>2017-10-15T15:10:44Z</time>
      </trkpt>
      <trkpt lat="59.883832521999" lon="17.664623580112">
        <ele>20</ele>
        <time>2017-10-15T15:10:45Z</time>
      </trkpt>
      <trkpt lat="59.883801257512" lon="17.664531965945">
        <ele>20.2</ele>
        <time>2017-10-15T15:10:46Z</time>
      </trkpt>
      <trkpt lat="59.883769071016" lon="17.664434232991">
        <ele>20.4</ele>
        <time>2017-10-15T15:10:47Z</time>
      </trkpt>
      <trkpt lat="59.883733196484" lon="17.664331806173">
        <ele>20.4</ele>
        <time>2017-10-15T15:10:48Z</time>
      </trkpt>
      <trkpt lat="59.883702686368" lon="17.664227870613">
        <ele>20.4</ele>
        <time>2017-10-15T15:10:49Z</time>
      </trkpt>
      <trkpt lat="59.883686174025" lon="17.664119827922">
        <ele>20.6</ele>
        <time>2017-10-15T15:10:50Z</time>
      </trkpt>
      <trkpt lat="59.883682150713" lon="17.663998206553">
        <ele>20.6</ele>
        <time>2017-10-15T15:10:51Z</time>
      </trkpt>
      <trkpt lat="59.883699668884" lon="17.663867784189">
        <ele>20.6</ele>
        <time>2017-10-15T15:10:52Z</time>
      </trkpt>
      <trkpt lat="59.883726490964" lon="17.663760831145">
        <ele>20.6</ele>
        <time>2017-10-15T15:10:53Z</time>
      </trkpt>
      <trkpt lat="59.883759264193" lon="17.66363300717">
        <ele>20.4</ele>
        <time>2017-10-15T15:10:54Z</time>
      </trkpt>
      <trkpt lat="59.883794049078" lon="17.663516750217">
        <ele>20.6</ele>
        <time>2017-10-15T15:10:55Z</time>
      </trkpt>
      <trkpt lat="59.883824726832" lon="17.663404265119">
        <ele>20.4</ele>
        <time>2017-10-15T15:10:56Z</time>
      </trkpt>
      <trkpt lat="59.88385674569" lon="17.663273758936">
        <ele>20.4</ele>
        <time>2017-10-15T15:10:57Z</time>
      </trkpt>
      <trkpt lat="59.883889938014" lon="17.663157166707">
        <ele>20.2</ele>
        <time>2017-10-15T15:10:58Z</time>
      </trkpt>
      <trkpt lat="59.883917179189" lon="17.663047782912">
        <ele>19.6</ele>
        <time>2017-10-15T15:10:59Z</time>
      </trkpt>
      <trkpt lat="59.883932937161" lon="17.662915432711">
        <ele>19.4</ele>
        <time>2017-10-15T15:11:00Z</time>
      </trkpt>
      <trkpt lat="59.883930254953" lon="17.66279649355">
        <ele>19</ele>
        <time>2017-10-15T15:11:01Z</time>
      </trkpt>
      <trkpt lat="59.883924555261" lon="17.662671267964">
        <ele>18.6</ele>
        <time>2017-10-15T15:11:02Z</time>
      </trkpt>
      <trkpt lat="59.883912820601" lon="17.662532044605">
        <ele>18.4</ele>
        <time>2017-10-15T15:11:03Z</time>
      </trkpt>
      <trkpt lat="59.883906701814" lon="17.662415033281">
        <ele>18.6</ele>
        <time>2017-10-15T15:11:04Z</time>
      </trkpt>
      <trkpt lat="59.883900666846" lon="17.662305649486">
        <ele>18.4</ele>
        <time>2017-10-15T15:11:05Z</time>
      </trkpt>
      <trkpt lat="59.883892536403" lon="17.662179082796">
        <ele>18.4</ele>
        <time>2017-10-15T15:11:06Z</time>
      </trkpt>
      <trkpt lat="59.883883148675" lon="17.662053102839">
        <ele>18.6</ele>
        <time>2017-10-15T15:11:07Z</time>
      </trkpt>
      <trkpt lat="59.883874263861" lon="17.661940617741">
        <ele>18.6</ele>
        <time>2017-10-15T15:11:08Z</time>
      </trkpt>
      <trkpt lat="59.883865462866" lon="17.661846991918">
        <ele>18.6</ele>
        <time>2017-10-15T15:11:09Z</time>
      </trkpt>
      <trkpt lat="59.883867223065" lon="17.661782199831">
        <ele>18.8</ele>
        <time>2017-10-15T15:11:10Z</time>
      </trkpt>
      <trkpt lat="59.883859930812" lon="17.661737524304">
        <ele>18.6</ele>
        <time>2017-10-15T15:11:11Z</time>
      </trkpt>
      <trkpt lat="59.883842999374" lon="17.661686646171">
        <ele>18.6</ele>
        <time>2017-10-15T15:11:12Z</time>
      </trkpt>
      <trkpt lat="59.883818775683" lon="17.66168756818">
        <ele>18.8</ele>
        <time>2017-10-15T15:11:13Z</time>
      </trkpt>
      <trkpt lat="59.883803352987" lon="17.661723526531">
        <ele>18.8</ele>
        <time>2017-10-15T15:11:14Z</time>
      </trkpt>
      <trkpt lat="59.883801928064" lon="17.661771051904">
        <ele>18.8</ele>
        <time>2017-10-15T15:11:15Z</time>
      </trkpt>
      <trkpt lat="59.883818440407" lon="17.661802651667">
        <ele>19</ele>
        <time>2017-10-15T15:11:16Z</time>
      </trkpt>
      <trkpt lat="59.883843669926" lon="17.661797119613">
        <ele>19</ele>
        <time>2017-10-15T15:11:17Z</time>
      </trkpt>
      <trkpt lat="59.883874599137" lon="17.661756383579">
        <ele>19.2</ele>
        <time>2017-10-15T15:11:18Z</time>
      </trkpt>
      <trkpt lat="59.88390536071" lon="17.661703074695">
        <ele>19.2</ele>
        <time>2017-10-15T15:11:19Z</time>
      </trkpt>
      <trkpt lat="59.883936541378" lon="17.661640461902">
        <ele>19.4</ele>
        <time>2017-10-15T15:11:20Z</time>
      </trkpt>
      <trkpt lat="59.883970488073" lon="17.661565024802">
        <ele>19.6</ele>
        <time>2017-10-15T15:11:21Z</time>
      </trkpt>
      <trkpt lat="59.884007200795" lon="17.661475254653">
        <ele>19.4</ele>
        <time>2017-10-15T15:11:22Z</time>
      </trkpt>
      <trkpt lat="59.88404198568" lon="17.661395375146">
        <ele>19.4</ele>
        <time>2017-10-15T15:11:23Z</time>
      </trkpt>
      <trkpt lat="59.884088002311" lon="17.661303928617">
        <ele>19.2</ele>
        <time>2017-10-15T15:11:24Z</time>
      </trkpt>
      <trkpt lat="59.884136114417" lon="17.66122237273">
        <ele>19.2</ele>
        <time>2017-10-15T15:11:25Z</time>
      </trkpt>
      <trkpt lat="59.884187327826" lon="17.661152383865">
        <ele>19</ele>
        <time>2017-10-15T15:11:26Z</time>
      </trkpt>
      <trkpt lat="59.884249940619" lon="17.661078623145">
        <ele>19</ele>
        <time>2017-10-15T15:11:27Z</time>
      </trkpt>
      <trkpt lat="59.884312218136" lon="17.66100779609">
        <ele>18.8</ele>
        <time>2017-10-15T15:11:28Z</time>
      </trkpt>
      <trkpt lat="59.884370723798" lon="17.660951804998">
        <ele>18.6</ele>
        <time>2017-10-15T15:11:29Z</time>
      </trkpt>
      <trkpt lat="59.884440461206" lon="17.66089380225">
        <ele>18.4</ele>
        <time>2017-10-15T15:11:30Z</time>
      </trkpt>
      <trkpt lat="59.88450215199" lon="17.660843762307">
        <ele>18.2</ele>
        <time>2017-10-15T15:11:31Z</time>
      </trkpt>
      <trkpt lat="59.884570632113" lon="17.660782155342">
        <ele>18</ele>
        <time>2017-10-15T15:11:32Z</time>
      </trkpt>
      <trkpt lat="59.884633077268" lon="17.660725074603">
        <ele>17.6</ele>
        <time>2017-10-15T15:11:33Z</time>
      </trkpt>
      <trkpt lat="59.884694516595" lon="17.660666317484">
        <ele>17</ele>
        <time>2017-10-15T15:11:34Z</time>
      </trkpt>
      <trkpt lat="59.884751513515" lon="17.660622312509">
        <ele>16.6</ele>
        <time>2017-10-15T15:11:35Z</time>
      </trkpt>
      <trkpt lat="59.884824268407" lon="17.660576714973">
        <ele>16</ele>
        <time>2017-10-15T15:11:36Z</time>
      </trkpt>
      <trkpt lat="59.884909177054" lon="17.660513180171">
        <ele>15.6</ele>
        <time>2017-10-15T15:11:37Z</time>
      </trkpt>
      <trkpt lat="59.88497321477" lon="17.660465822436">
        <ele>15.2</ele>
        <time>2017-10-15T15:11:38Z</time>
      </trkpt>
      <trkpt lat="59.885151413964" lon="17.660295418409">
        <ele>14.6</ele>
        <time>2017-10-15T15:11:41Z</time>
      </trkpt>
      <trkpt lat="59.885217798612" lon="17.660210509762">
        <ele>14.6</ele>
        <time>2017-10-15T15:11:42Z</time>
      </trkpt>
      <trkpt lat="59.885269766392" lon="17.660127528952">
        <ele>14.4</ele>
        <time>2017-10-15T15:11:43Z</time>
      </trkpt>
      <trkpt lat="59.885313352272" lon="17.660043458495">
        <ele>14.4</ele>
        <time>2017-10-15T15:11:44Z</time>
      </trkpt>
      <trkpt lat="59.88534872389" lon="17.659950503224">
        <ele>14.4</ele>
        <time>2017-10-15T15:11:45Z</time>
      </trkpt>
      <trkpt lat="59.88537135502" lon="17.659856039211">
        <ele>14.6</ele>
        <time>2017-10-15T15:11:46Z</time>
      </trkpt>
      <trkpt lat="59.885388537915" lon="17.65975637842">
        <ele>14.8</ele>
        <time>2017-10-15T15:11:47Z</time>
      </trkpt>
      <trkpt lat="59.885408486837" lon="17.659651939946">
        <ele>14.8</ele>
        <time>2017-10-15T15:11:48Z</time>
      </trkpt>
      <trkpt lat="59.885423238981" lon="17.659559152313">
        <ele>15</ele>
        <time>2017-10-15T15:11:49Z</time>
      </trkpt>
      <trkpt lat="59.885429693044" lon="17.659468292517">
        <ele>15.2</ele>
        <time>2017-10-15T15:11:50Z</time>
      </trkpt>
      <trkpt lat="59.885434470727" lon="17.659372655038">
        <ele>15.4</ele>
        <time>2017-10-15T15:11:51Z</time>
      </trkpt>
      <trkpt lat="59.885437655849" lon="17.659271234048">
        <ele>15.8</ele>
        <time>2017-10-15T15:11:52Z</time>
      </trkpt>
      <trkpt lat="59.885438158763" lon="17.65918473284">
        <ele>16</ele>
        <time>2017-10-15T15:11:53Z</time>
      </trkpt>
      <trkpt lat="59.885436901478" lon="17.659083228031">
        <ele>16.6</ele>
        <time>2017-10-15T15:11:54Z</time>
      </trkpt>
      <trkpt lat="59.885436063288" lon="17.65899027276">
        <ele>16.8</ele>
        <time>2017-10-15T15:11:55Z</time>
      </trkpt>
      <trkpt lat="59.885431956157" lon="17.658902765724">
        <ele>17.2</ele>
        <time>2017-10-15T15:11:56Z</time>
      </trkpt>
      <trkpt lat="59.885431285605" lon="17.658797069965">
        <ele>17.4</ele>
        <time>2017-10-15T15:11:57Z</time>
      </trkpt>
      <trkpt lat="59.885428771035" lon="17.658696403346">
        <ele>17.4</ele>
        <time>2017-10-15T15:11:58Z</time>
      </trkpt>
      <trkpt lat="59.885425585913" lon="17.658626079205">
        <ele>17.4</ele>
        <time>2017-10-15T15:11:59Z</time>
      </trkpt>
      <trkpt lat="59.885425921189" lon="17.658481323792">
        <ele>17.6</ele>
        <time>2017-10-15T15:12:00Z</time>
      </trkpt>
      <trkpt lat="59.885431537062" lon="17.658377220594">
        <ele>17.6</ele>
        <time>2017-10-15T15:12:01Z</time>
      </trkpt>
      <trkpt lat="59.885442852627" lon="17.658253755207">
        <ele>17.6</ele>
        <time>2017-10-15T15:12:02Z</time>
      </trkpt>
      <trkpt lat="59.885458107685" lon="17.658137246797">
        <ele>17.4</ele>
        <time>2017-10-15T15:12:03Z</time>
      </trkpt>
      <trkpt lat="59.885480571177" lon="17.658022079491">
        <ele>17.4</ele>
        <time>2017-10-15T15:12:04Z</time>
      </trkpt>
      <trkpt lat="59.885506135972" lon="17.657927950754">
        <ele>17.2</ele>
        <time>2017-10-15T15:12:05Z</time>
      </trkpt>
      <trkpt lat="59.885550560042" lon="17.65781177762">
        <ele>16.8</ele>
        <time>2017-10-15T15:12:06Z</time>
      </trkpt>
      <trkpt lat="59.885602444003" lon="17.657713541752">
        <ele>16.8</ele>
        <time>2017-10-15T15:12:07Z</time>
      </trkpt>
      <trkpt lat="59.885654327964" lon="17.657633410788">
        <ele>16.4</ele>
        <time>2017-10-15T15:12:08Z</time>
      </trkpt>
      <trkpt lat="59.885714845282" lon="17.657519919862">
        <ele>16.2</ele>
        <time>2017-10-15T15:12:09Z</time>
      </trkpt>
      <trkpt lat="59.885754324031" lon="17.657463258218">
        <ele>16</ele>
        <time>2017-10-15T15:12:10Z</time>
      </trkpt>
      <trkpt lat="59.885787013441" lon="17.657400645425">
        <ele>15.8</ele>
        <time>2017-10-15T15:12:11Z</time>
      </trkpt>
      <trkpt lat="59.885834287357" lon="17.657302828652">
        <ele>15.8</ele>
        <time>2017-10-15T15:12:12Z</time>
      </trkpt>
      <trkpt lat="59.885861779989" lon="17.657210879209">
        <ele>15.6</ele>
        <time>2017-10-15T15:12:13Z</time>
      </trkpt>
      <trkpt lat="59.885881225997" lon="17.657118929766">
        <ele>15.8</ele>
        <time>2017-10-15T15:12:14Z</time>
      </trkpt>
      <trkpt lat="59.885896229598" lon="17.657030752178">
        <ele>15.8</ele>
        <time>2017-10-15T15:12:15Z</time>
      </trkpt>
      <trkpt lat="59.885905784964" lon="17.656950537395">
        <ele>16.2</ele>
        <time>2017-10-15T15:12:16Z</time>
      </trkpt>
      <trkpt lat="59.885914753597" lon="17.656873172458">
        <ele>16.4</ele>
        <time>2017-10-15T15:12:17Z</time>
      </trkpt>
      <trkpt lat="59.885918273995" lon="17.656790778381">
        <ele>16.8</ele>
        <time>2017-10-15T15:12:18Z</time>
      </trkpt>
      <trkpt lat="59.885920118013" lon="17.656716011833">
        <ele>17.2</ele>
        <time>2017-10-15T15:12:19Z</time>
      </trkpt>
      <trkpt lat="59.885929841017" lon="17.65665088447">
        <ele>17.4</ele>
        <time>2017-10-15T15:12:20Z</time>
      </trkpt>
      <trkpt lat="59.885943335876" lon="17.656587014392">
        <ele>17.6</ele>
        <time>2017-10-15T15:12:21Z</time>
      </trkpt>
      <trkpt lat="59.885960434952" lon="17.656523898685">
        <ele>18</ele>
        <time>2017-10-15T15:12:22Z</time>
      </trkpt>
      <trkpt lat="59.885965380273" lon="17.656485174307">
        <ele>18.2</ele>
        <time>2017-10-15T15:12:23Z</time>
      </trkpt>
      <trkpt lat="59.885952304509" lon="17.656445192644">
        <ele>18.4</ele>
        <time>2017-10-15T15:12:24Z</time>
      </trkpt>
      <trkpt lat="59.885926488257" lon="17.65644301335">
        <ele>18.4</ele>
        <time>2017-10-15T15:12:25Z</time>
      </trkpt>
      <trkpt lat="59.885900085272" lon="17.656467739955">
        <ele>18.6</ele>
        <time>2017-10-15T15:12:26Z</time>
      </trkpt>
      <trkpt lat="59.885870497165" lon="17.656514427138">
        <ele>18.6</ele>
        <time>2017-10-15T15:12:27Z</time>
      </trkpt>
      <trkpt lat="59.885846441112" lon="17.656571004963">
        <ele>18.8</ele>
        <time>2017-10-15T15:12:28Z</time>
      </trkpt>
      <trkpt lat="59.88582481581" lon="17.656619703802">
        <ele>18.8</ele>
        <time>2017-10-15T15:12:29Z</time>
      </trkpt>
      <trkpt lat="59.885791204391" lon="17.6566483699">
        <ele>18.8</ele>
        <time>2017-10-15T15:12:30Z</time>
      </trkpt>
      <trkpt lat="59.885758682619" lon="17.656625487313">
        <ele>18.6</ele>
        <time>2017-10-15T15:12:31Z</time>
      </trkpt>
      <trkpt lat="59.885729345969" lon="17.656570166773">
        <ele>18.6</ele>
        <time>2017-10-15T15:12:32Z</time>
      </trkpt>
      <trkpt lat="59.885701434242" lon="17.656520210649">
        <ele>18.8</ele>
        <time>2017-10-15T15:12:33Z</time>
      </trkpt>
      <trkpt lat="59.885665224434" lon="17.656481905366">
        <ele>18.8</ele>
        <time>2017-10-15T15:12:34Z</time>
      </trkpt>
      <trkpt lat="59.885630942463" lon="17.65645139525">
        <ele>18.8</ele>
        <time>2017-10-15T15:12:35Z</time>
      </trkpt>
      <trkpt lat="59.885587524221" lon="17.656396745262">
        <ele>18.8</ele>
        <time>2017-10-15T15:12:36Z</time>
      </trkpt>
      <trkpt lat="59.885545949997" lon="17.656334216288">
        <ele>18.8</ele>
        <time>2017-10-15T15:12:37Z</time>
      </trkpt>
      <trkpt lat="59.885509237275" lon="17.65626531707">
        <ele>18.6</ele>
        <time>2017-10-15T15:12:38Z</time>
      </trkpt>
      <trkpt lat="59.885473278924" lon="17.656192645997">
        <ele>18.4</ele>
        <time>2017-10-15T15:12:39Z</time>
      </trkpt>
      <trkpt lat="59.885439416048" lon="17.656117041259">
        <ele>18.2</ele>
        <time>2017-10-15T15:12:40Z</time>
      </trkpt>
      <trkpt lat="59.885408570656" lon="17.656050321335">
        <ele>18.2</ele>
        <time>2017-10-15T15:12:41Z</time>
      </trkpt>
      <trkpt lat="59.885370349192" lon="17.655963149575">
        <ele>18</ele>
        <time>2017-10-15T15:12:42Z</time>
      </trkpt>
      <trkpt lat="59.885338330334" lon="17.65588058786">
        <ele>18</ele>
        <time>2017-10-15T15:12:43Z</time>
      </trkpt>
      <trkpt lat="59.885306479114" lon="17.655793919014">
        <ele>18</ele>
        <time>2017-10-15T15:12:44Z</time>
      </trkpt>
      <trkpt lat="59.885275885179" lon="17.655705825245">
        <ele>18</ele>
        <time>2017-10-15T15:12:45Z</time>
      </trkpt>
      <trkpt lat="59.885247638176" lon="17.655621335693">
        <ele>18</ele>
        <time>2017-10-15T15:12:46Z</time>
      </trkpt>
      <trkpt lat="59.885216373689" lon="17.65553022444">
        <ele>18</ele>
        <time>2017-10-15T15:12:47Z</time>
      </trkpt>
      <trkpt lat="59.885180750614" lon="17.655434586961">
        <ele>17.8</ele>
        <time>2017-10-15T15:12:48Z</time>
      </trkpt>
      <trkpt lat="59.885146133367" lon="17.655342553699">
        <ele>17.8</ele>
        <time>2017-10-15T15:12:49Z</time>
      </trkpt>
      <trkpt lat="59.885115036518" lon="17.655256220129">
        <ele>18</ele>
        <time>2017-10-15T15:12:50Z</time>
      </trkpt>
      <trkpt lat="59.885081089823" lon="17.655162175211">
        <ele>18</ele>
        <time>2017-10-15T15:12:51Z</time>
      </trkpt>
      <trkpt lat="59.885044628558" lon="17.655061173316">
        <ele>18</ele>
        <time>2017-10-15T15:12:52Z</time>
      </trkpt>
      <trkpt lat="59.885011855329" lon="17.654974923565">
        <ele>17.8</ele>
        <time>2017-10-15T15:12:53Z</time>
      </trkpt>
      <trkpt lat="59.884974472055" lon="17.654875346593">
        <ele>17.8</ele>
        <time>2017-10-15T15:12:54Z</time>
      </trkpt>
      <trkpt lat="59.884941531188" lon="17.654779038562">
        <ele>17.6</ele>
        <time>2017-10-15T15:12:55Z</time>
      </trkpt>
      <trkpt lat="59.884909763787" lon="17.654689100775">
        <ele>17.6</ele>
        <time>2017-10-15T15:12:56Z</time>
      </trkpt>
      <trkpt lat="59.884875397997" lon="17.654583991749">
        <ele>17.4</ele>
        <time>2017-10-15T15:12:57Z</time>
      </trkpt>
      <trkpt lat="59.884843043863" lon="17.654484917691">
        <ele>17.4</ele>
        <time>2017-10-15T15:12:58Z</time>
      </trkpt>
      <trkpt lat="59.884812617566" lon="17.654391543325">
        <ele>17.2</ele>
        <time>2017-10-15T15:12:59Z</time>
      </trkpt>
      <trkpt lat="59.884780598708" lon="17.65428635048">
        <ele>17</ele>
        <time>2017-10-15T15:13:00Z</time>
      </trkpt>
      <trkpt lat="59.884750926782" lon="17.654193143752">
        <ele>17</ele>
        <time>2017-10-15T15:13:01Z</time>
      </trkpt>
      <trkpt lat="59.884712872956" lon="17.654090549296">
        <ele>16.8</ele>
        <time>2017-10-15T15:13:02Z</time>
      </trkpt>
      <trkpt lat="59.884675824958" lon="17.653997091111">
        <ele>16.8</ele>
        <time>2017-10-15T15:13:03Z</time>
      </trkpt>
      <trkpt lat="59.884645566299" lon="17.653907572419">
        <ele>16.8</ele>
        <time>2017-10-15T15:13:04Z</time>
      </trkpt>
      <trkpt lat="59.884616900201" lon="17.653830961853">
        <ele>16.8</ele>
        <time>2017-10-15T15:13:05Z</time>
      </trkpt>
      <trkpt lat="59.884579014013" lon="17.653735743469">
        <ele>16.8</ele>
        <time>2017-10-15T15:13:06Z</time>
      </trkpt>
      <trkpt lat="59.884544648223" lon="17.653635998859">
        <ele>16.8</ele>
        <time>2017-10-15T15:13:07Z</time>
      </trkpt>
      <trkpt lat="59.884512880822" lon="17.653543378864">
        <ele>16.8</ele>
        <time>2017-10-15T15:13:08Z</time>
      </trkpt>
      <trkpt lat="59.884481448697" lon="17.653447070833">
        <ele>16.8</ele>
        <time>2017-10-15T15:13:09Z</time>
      </trkpt>
      <trkpt lat="59.884453704608" lon="17.653346068938">
        <ele>17</ele>
        <time>2017-10-15T15:13:10Z</time>
      </trkpt>
      <trkpt lat="59.884426211976" lon="17.653263842499">
        <ele>17</ele>
        <time>2017-10-15T15:13:11Z</time>
      </trkpt>
      <trkpt lat="59.884389163978" lon="17.653149345745">
        <ele>17</ele>
        <time>2017-10-15T15:13:12Z</time>
      </trkpt>
      <trkpt lat="59.884359911147" lon="17.653046918927">
        <ele>17</ele>
        <time>2017-10-15T15:13:13Z</time>
      </trkpt>
      <trkpt lat="59.88433032304" lon="17.652943402462">
        <ele>17</ele>
        <time>2017-10-15T15:13:14Z</time>
      </trkpt>
      <trkpt lat="59.884303081865" lon="17.652837622884">
        <ele>16.8</ele>
        <time>2017-10-15T15:13:15Z</time>
      </trkpt>
      <trkpt lat="59.884279025812" lon="17.652733938781">
        <ele>16.8</ele>
        <time>2017-10-15T15:13:16Z</time>
      </trkpt>
      <trkpt lat="59.884253461017" lon="17.65262757247">
        <ele>16.6</ele>
        <time>2017-10-15T15:13:17Z</time>
      </trkpt>
      <trkpt lat="59.884230075516" lon="17.652514752096">
        <ele>16.6</ele>
        <time>2017-10-15T15:13:18Z</time>
      </trkpt>
      <trkpt lat="59.884207528205" lon="17.652404027197">
        <ele>16.6</ele>
        <time>2017-10-15T15:13:19Z</time>
      </trkpt>
      <trkpt lat="59.884185567627" lon="17.652307300071">
        <ele>16.4</ele>
        <time>2017-10-15T15:13:20Z</time>
      </trkpt>
      <trkpt lat="59.884161343936" lon="17.652200430846">
        <ele>16.4</ele>
        <time>2017-10-15T15:13:21Z</time>
      </trkpt>
      <trkpt lat="59.884138964263" lon="17.652083503341">
        <ele>16.4</ele>
        <time>2017-10-15T15:13:22Z</time>
      </trkpt>
      <trkpt lat="59.884120440264" lon="17.651980238333">
        <ele>16.4</ele>
        <time>2017-10-15T15:13:23Z</time>
      </trkpt>
      <trkpt lat="59.884099317876" lon="17.651861550629">
        <ele>16.2</ele>
        <time>2017-10-15T15:13:24Z</time>
      </trkpt>
      <trkpt lat="59.884081967343" lon="17.651748394979">
        <ele>16.2</ele>
        <time>2017-10-15T15:13:25Z</time>
      </trkpt>
      <trkpt lat="59.884072495796" lon="17.651642447763">
        <ele>16.2</ele>
        <time>2017-10-15T15:13:26Z</time>
      </trkpt>
      <trkpt lat="59.884070400321" lon="17.651522670412">
        <ele>16.2</ele>
        <time>2017-10-15T15:13:27Z</time>
      </trkpt>
      <trkpt lat="59.884082386438" lon="17.651416136463">
        <ele>16.2</ele>
        <time>2017-10-15T15:13:28Z</time>
      </trkpt>
      <trkpt lat="59.884103005912" lon="17.651319493156">
        <ele>16.2</ele>
        <time>2017-10-15T15:13:29Z</time>
      </trkpt>
      <trkpt lat="59.884131923467" lon="17.651214970863">
        <ele>16.2</ele>
        <time>2017-10-15T15:13:30Z</time>
      </trkpt>
      <trkpt lat="59.884160924841" lon="17.651125452171">
        <ele>16.2</ele>
        <time>2017-10-15T15:13:31Z</time>
      </trkpt>
      <trkpt lat="59.884193865708" lon="17.651026545751">
        <ele>16</ele>
        <time>2017-10-15T15:13:32Z</time>
      </trkpt>
      <trkpt lat="59.884224124367" lon="17.650934596308">
        <ele>16</ele>
        <time>2017-10-15T15:13:33Z</time>
      </trkpt>
      <trkpt lat="59.884253796293" lon="17.650840467571">
        <ele>15.8</ele>
        <time>2017-10-15T15:13:34Z</time>
      </trkpt>
      <trkpt lat="59.884278522898" lon="17.650764359919">
        <ele>15.8</ele>
        <time>2017-10-15T15:13:35Z</time>
      </trkpt>
      <trkpt lat="59.884307943367" lon="17.650664782947">
        <ele>15.8</ele>
        <time>2017-10-15T15:13:36Z</time>
      </trkpt>
      <trkpt lat="59.884325210081" lon="17.650564032509">
        <ele>15.8</ele>
        <time>2017-10-15T15:13:37Z</time>
      </trkpt>
      <trkpt lat="59.884323701339" lon="17.650463282071">
        <ele>15.6</ele>
        <time>2017-10-15T15:13:38Z</time>
      </trkpt>
      <trkpt lat="59.88431355924" lon="17.650365213841">
        <ele>15.8</ele>
        <time>2017-10-15T15:13:39Z</time>
      </trkpt>
      <trkpt lat="59.884301237847" lon="17.650264882498">
        <ele>15.8</ele>
        <time>2017-10-15T15:13:40Z</time>
      </trkpt>
      <trkpt lat="59.884292269214" lon="17.650178800385">
        <ele>15.8</ele>
        <time>2017-10-15T15:13:41Z</time>
      </trkpt>
      <trkpt lat="59.884272907025" lon="17.65006354926">
        <ele>16</ele>
        <time>2017-10-15T15:13:42Z</time>
      </trkpt>
      <trkpt lat="59.884241391081" lon="17.649978975889">
        <ele>16</ele>
        <time>2017-10-15T15:13:43Z</time>
      </trkpt>
      <trkpt lat="59.88419788902" lon="17.649912591241">
        <ele>16</ele>
        <time>2017-10-15T15:13:44Z</time>
      </trkpt>
      <trkpt lat="59.884154051683" lon="17.649856097235">
        <ele>16.2</ele>
        <time>2017-10-15T15:13:45Z</time>
      </trkpt>
      <trkpt lat="59.884112728916" lon="17.649794993184">
        <ele>16.2</ele>
        <time>2017-10-15T15:13:46Z</time>
      </trkpt>
      <trkpt lat="59.884073669262" lon="17.649717879704">
        <ele>16.2</ele>
        <time>2017-10-15T15:13:47Z</time>
      </trkpt>
      <trkpt lat="59.884040057843" lon="17.649626181718">
        <ele>16</ele>
        <time>2017-10-15T15:13:48Z</time>
      </trkpt>
      <trkpt lat="59.884019689826" lon="17.649524760728">
        <ele>16</ele>
        <time>2017-10-15T15:13:49Z</time>
      </trkpt>
      <trkpt lat="59.884017342894" lon="17.649418813512">
        <ele>16</ele>
        <time>2017-10-15T15:13:50Z</time>
      </trkpt>
      <trkpt lat="59.884016588523" lon="17.649310100269">
        <ele>16</ele>
        <time>2017-10-15T15:13:51Z</time>
      </trkpt>
      <trkpt lat="59.884014828324" lon="17.649198118085">
        <ele>15.8</ele>
        <time>2017-10-15T15:13:52Z</time>
      </trkpt>
      <trkpt lat="59.884014241591" lon="17.649094098706">
        <ele>15.8</ele>
        <time>2017-10-15T15:13:53Z</time>
      </trkpt>
      <trkpt lat="59.884011559383" lon="17.648976919744">
        <ele>15.6</ele>
        <time>2017-10-15T15:13:54Z</time>
      </trkpt>
      <trkpt lat="59.884006027329" lon="17.648865608112">
        <ele>15.6</ele>
        <time>2017-10-15T15:13:55Z</time>
      </trkpt>
      <trkpt lat="59.883999489447" lon="17.648764019484">
        <ele>15.4</ele>
        <time>2017-10-15T15:13:56Z</time>
      </trkpt>
      <trkpt lat="59.883992951565" lon="17.648650109463">
        <ele>15.2</ele>
        <time>2017-10-15T15:13:57Z</time>
      </trkpt>
      <trkpt lat="59.883987922425" lon="17.64854726355">
        <ele>15.2</ele>
        <time>2017-10-15T15:13:58Z</time>
      </trkpt>
      <trkpt lat="59.883981384543" lon="17.648455565564">
        <ele>15</ele>
        <time>2017-10-15T15:13:59Z</time>
      </trkpt>
      <trkpt lat="59.883975098118" lon="17.648347271416">
        <ele>15</ele>
        <time>2017-10-15T15:14:00Z</time>
      </trkpt>
      <trkpt lat="59.883974595204" lon="17.648254902878">
        <ele>15</ele>
        <time>2017-10-15T15:14:01Z</time>
      </trkpt>
      <trkpt lat="59.883977109774" lon="17.648149626214">
        <ele>15</ele>
        <time>2017-10-15T15:14:02Z</time>
      </trkpt>
      <trkpt lat="59.883978031783" lon="17.648052312355">
        <ele>15.2</ele>
        <time>2017-10-15T15:14:03Z</time>
      </trkpt>
      <trkpt lat="59.883980294896" lon="17.647964218586">
        <ele>15</ele>
        <time>2017-10-15T15:14:04Z</time>
      </trkpt>
      <trkpt lat="59.883983144742" lon="17.647887105106">
        <ele>15</ele>
        <time>2017-10-15T15:14:05Z</time>
      </trkpt>
      <trkpt lat="59.883985659312" lon="17.647791719084">
        <ele>14.8</ele>
        <time>2017-10-15T15:14:06Z</time>
      </trkpt>
      <trkpt lat="59.883989347348" lon="17.647700524012">
        <ele>15.2</ele>
        <time>2017-10-15T15:14:07Z</time>
      </trkpt>
      <trkpt lat="59.883991778099" lon="17.647616118279">
        <ele>15.6</ele>
        <time>2017-10-15T15:14:08Z</time>
      </trkpt>
      <trkpt lat="59.883992281013" lon="17.647532969831">
        <ele>16</ele>
        <time>2017-10-15T15:14:09Z</time>
      </trkpt>
      <trkpt lat="59.883994125031" lon="17.647447222994">
        <ele>16.8</ele>
        <time>2017-10-15T15:14:10Z</time>
      </trkpt>
      <trkpt lat="59.883996052868" lon="17.647378742871">
        <ele>17</ele>
        <time>2017-10-15T15:14:11Z</time>
      </trkpt>
      <trkpt lat="59.883997393972" lon="17.647276818967">
        <ele>17</ele>
        <time>2017-10-15T15:14:12Z</time>
      </trkpt>
      <trkpt lat="59.883998064524" lon="17.647193921976">
        <ele>16.2</ele>
        <time>2017-10-15T15:14:13Z</time>
      </trkpt>
      <trkpt lat="59.884001920198" lon="17.647111863175">
        <ele>16</ele>
        <time>2017-10-15T15:14:14Z</time>
      </trkpt>
      <trkpt lat="59.884002171655" lon="17.647026703071">
        <ele>16</ele>
        <time>2017-10-15T15:14:15Z</time>
      </trkpt>
      <trkpt lat="59.884000662913" lon="17.64694548246">
        <ele>15.8</ele>
        <time>2017-10-15T15:14:16Z</time>
      </trkpt>
      <trkpt lat="59.884000579094" lon="17.646857640148">
        <ele>15.6</ele>
        <time>2017-10-15T15:14:17Z</time>
      </trkpt>
      <trkpt lat="59.88400175256" lon="17.646764517239">
        <ele>15.8</ele>
        <time>2017-10-15T15:14:18Z</time>
      </trkpt>
      <trkpt lat="59.884003177483" lon="17.646677513117">
        <ele>16</ele>
        <time>2017-10-15T15:14:19Z</time>
      </trkpt>
      <trkpt lat="59.884004183311" lon="17.646597717429">
        <ele>16.2</ele>
        <time>2017-10-15T15:14:20Z</time>
      </trkpt>
      <trkpt lat="59.884002758388" lon="17.646512892601">
        <ele>16.2</ele>
        <time>2017-10-15T15:14:21Z</time>
      </trkpt>
      <trkpt lat="59.884000495275" lon="17.646418428588">
        <ele>16.2</ele>
        <time>2017-10-15T15:14:22Z</time>
      </trkpt>
      <trkpt lat="59.883998651257" lon="17.64633444195">
        <ele>16.2</ele>
        <time>2017-10-15T15:14:23Z</time>
      </trkpt>
      <trkpt lat="59.884002171655" lon="17.646236708996">
        <ele>16.2</ele>
        <time>2017-10-15T15:14:24Z</time>
      </trkpt>
      <trkpt lat="59.88401432541" lon="17.64614752558">
        <ele>16.2</ele>
        <time>2017-10-15T15:14:25Z</time>
      </trkpt>
      <trkpt lat="59.884024048414" lon="17.6460620302">
        <ele>16.4</ele>
        <time>2017-10-15T15:14:26Z</time>
      </trkpt>
      <trkpt lat="59.884029496649" lon="17.645967817644">
        <ele>16.4</ele>
        <time>2017-10-15T15:14:27Z</time>
      </trkpt>
      <trkpt lat="59.884020947111" lon="17.645873772726">
        <ele>16.4</ele>
        <time>2017-10-15T15:14:28Z</time>
      </trkpt>
      <trkpt lat="59.884005021501" lon="17.645789534631">
        <ele>16.4</ele>
        <time>2017-10-15T15:14:29Z</time>
      </trkpt>
      <trkpt lat="59.883988760615" lon="17.645695238256">
        <ele>16.4</ele>
        <time>2017-10-15T15:14:30Z</time>
      </trkpt>
      <trkpt lat="59.883975433394" lon="17.645605803383">
        <ele>16.2</ele>
        <time>2017-10-15T15:14:31Z</time>
      </trkpt>
      <trkpt lat="59.883958250499" lon="17.645513937759">
        <ele>16.2</ele>
        <time>2017-10-15T15:14:32Z</time>
      </trkpt>
      <trkpt lat="59.883937882482" lon="17.645431376044">
        <ele>16.4</ele>
        <time>2017-10-15T15:14:33Z</time>
      </trkpt>
      <trkpt lat="59.883920783406" lon="17.645342695542">
        <ele>16.6</ele>
        <time>2017-10-15T15:14:34Z</time>
      </trkpt>
      <trkpt lat="59.883906031262" lon="17.645271449392">
        <ele>16.6</ele>
        <time>2017-10-15T15:14:35Z</time>
      </trkpt>
      <trkpt lat="59.883884070684" lon="17.64518109251">
        <ele>16.8</ele>
        <time>2017-10-15T15:14:36Z</time>
      </trkpt>
      <trkpt lat="59.883864373219" lon="17.645088807791">
        <ele>16.8</ele>
        <time>2017-10-15T15:14:37Z</time>
      </trkpt>
      <trkpt lat="59.883845681582" lon="17.645000797841">
        <ele>16.8</ele>
        <time>2017-10-15T15:14:38Z</time>
      </trkpt>
      <trkpt lat="59.883826487031" lon="17.644917481755">
        <ele>16.8</ele>
        <time>2017-10-15T15:14:39Z</time>
      </trkpt>
      <trkpt lat="59.883809304136" lon="17.644831148185">
        <ele>16.8</ele>
        <time>2017-10-15T15:14:40Z</time>
      </trkpt>
      <trkpt lat="59.883794551992" lon="17.644754789076">
        <ele>16.8</ele>
        <time>2017-10-15T15:14:41Z</time>
      </trkpt>
      <trkpt lat="59.883783404065" lon="17.644650015326">
        <ele>17</ele>
        <time>2017-10-15T15:14:42Z</time>
      </trkpt>
      <trkpt lat="59.883778877839" lon="17.644563681756">
        <ele>17</ele>
        <time>2017-10-15T15:14:43Z</time>
      </trkpt>
      <trkpt lat="59.883769825387" lon="17.644481539136">
        <ele>17</ele>
        <time>2017-10-15T15:14:44Z</time>
      </trkpt>
      <trkpt lat="59.883747529533" lon="17.644411214995">
        <ele>17.2</ele>
        <time>2017-10-15T15:14:45Z</time>
      </trkpt>
      <trkpt lat="59.883721210367" lon="17.644350362401">
        <ele>17.4</ele>
        <time>2017-10-15T15:14:46Z</time>
      </trkpt>
      <trkpt lat="59.883691538441" lon="17.644287162875">
        <ele>17.4</ele>
        <time>2017-10-15T15:14:47Z</time>
      </trkpt>
      <trkpt lat="59.88365893285" lon="17.644222286969">
        <ele>17.6</ele>
        <time>2017-10-15T15:14:48Z</time>
      </trkpt>
      <trkpt lat="59.883617274807" lon="17.644182556763">
        <ele>17.6</ele>
        <time>2017-10-15T15:14:49Z</time>
      </trkpt>
      <trkpt lat="59.883573018375" lon="17.644155399407">
        <ele>17.6</ele>
        <time>2017-10-15T15:14:50Z</time>
      </trkpt>
      <trkpt lat="59.883527839934" lon="17.644100330324">
        <ele>17.6</ele>
        <time>2017-10-15T15:14:51Z</time>
      </trkpt>
      <trkpt lat="59.883484756968" lon="17.644022378654">
        <ele>17.6</ele>
        <time>2017-10-15T15:14:52Z</time>
      </trkpt>
      <trkpt lat="59.883450642635" lon="17.643943253518">
        <ele>17.6</ele>
        <time>2017-10-15T15:14:53Z</time>
      </trkpt>
      <trkpt lat="59.883412421171" lon="17.643851136437">
        <ele>17.6</ele>
        <time>2017-10-15T15:14:54Z</time>
      </trkpt>
      <trkpt lat="59.88338149196" lon="17.643757594433">
        <ele>17.6</ele>
        <time>2017-10-15T15:14:55Z</time>
      </trkpt>
      <trkpt lat="59.883354837518" lon="17.643671763777">
        <ele>17.6</ele>
        <time>2017-10-15T15:14:56Z</time>
      </trkpt>
      <trkpt lat="59.883322148108" lon="17.643577132126">
        <ele>17.4</ele>
        <time>2017-10-15T15:14:57Z</time>
      </trkpt>
      <trkpt lat="59.883288536689" lon="17.643497001162">
        <ele>17.2</ele>
        <time>2017-10-15T15:14:58Z</time>
      </trkpt>
      <trkpt lat="59.883259451496" lon="17.64341837894">
        <ele>17.2</ele>
        <time>2017-10-15T15:14:59Z</time>
      </trkpt>
      <trkpt lat="59.883233299968" lon="17.643345288772">
        <ele>17.2</ele>
        <time>2017-10-15T15:15:00Z</time>
      </trkpt>
      <trkpt lat="59.883198263626" lon="17.643244203058">
        <ele>17</ele>
        <time>2017-10-15T15:15:01Z</time>
      </trkpt>
      <trkpt lat="59.883165909492" lon="17.643148649398">
        <ele>17.2</ele>
        <time>2017-10-15T15:15:02Z</time>
      </trkpt>
      <trkpt lat="59.883136656661" lon="17.643057286688">
        <ele>17.2</ele>
        <time>2017-10-15T15:15:03Z</time>
      </trkpt>
      <trkpt lat="59.883107571468" lon="17.642967265082">
        <ele>17.4</ele>
        <time>2017-10-15T15:15:04Z</time>
      </trkpt>
      <trkpt lat="59.88308225813" lon="17.642898784959">
        <ele>17.6</ele>
        <time>2017-10-15T15:15:05Z</time>
      </trkpt>
      <trkpt lat="59.883051496557" lon="17.642806081145">
        <ele>17.6</ele>
        <time>2017-10-15T15:15:06Z</time>
      </trkpt>
      <trkpt lat="59.883019980613" lon="17.642717316824">
        <ele>17.6</ele>
        <time>2017-10-15T15:15:07Z</time>
      </trkpt>
      <trkpt lat="59.882993326171" lon="17.64263467129">
        <ele>17.6</ele>
        <time>2017-10-15T15:15:08Z</time>
      </trkpt>
      <trkpt lat="59.882967342281" lon="17.642550600833">
        <ele>17.8</ele>
        <time>2017-10-15T15:15:09Z</time>
      </trkpt>
      <trkpt lat="59.88294144221" lon="17.642464351082">
        <ele>17.8</ele>
        <time>2017-10-15T15:15:10Z</time>
      </trkpt>
      <trkpt lat="59.882919313994" lon="17.642396122416">
        <ele>17.8</ele>
        <time>2017-10-15T15:15:11Z</time>
      </trkpt>
      <trkpt lat="59.882884864385" lon="17.642294282331">
        <ele>17.8</ele>
        <time>2017-10-15T15:15:12Z</time>
      </trkpt>
      <trkpt lat="59.88285678502" lon="17.642201913793">
        <ele>18</ele>
        <time>2017-10-15T15:15:13Z</time>
      </trkpt>
      <trkpt lat="59.882834489166" lon="17.64210493521">
        <ele>17.8</ele>
        <time>2017-10-15T15:15:14Z</time>
      </trkpt>
      <trkpt lat="59.882811187484" lon="17.642011560844">
        <ele>17.8</ele>
        <time>2017-10-15T15:15:15Z</time>
      </trkpt>
      <trkpt lat="59.88278805344" lon="17.641921203962">
        <ele>17.8</ele>
        <time>2017-10-15T15:15:16Z</time>
      </trkpt>
      <trkpt lat="59.882765757586" lon="17.641825650302">
        <ele>17.8</ele>
        <time>2017-10-15T15:15:17Z</time>
      </trkpt>
      <trkpt lat="59.882742204447" lon="17.641725905692">
        <ele>17.6</ele>
        <time>2017-10-15T15:15:18Z</time>
      </trkpt>
      <trkpt lat="59.882718567489" lon="17.64162716691">
        <ele>17.6</ele>
        <time>2017-10-15T15:15:19Z</time>
      </trkpt>
      <trkpt lat="59.882697948015" lon="17.641536223295">
        <ele>17.6</ele>
        <time>2017-10-15T15:15:20Z</time>
      </trkpt>
      <trkpt lat="59.882675568342" lon="17.641438741798">
        <ele>17.6</ele>
        <time>2017-10-15T15:15:21Z</time>
      </trkpt>
      <trkpt lat="59.882649668271" lon="17.641331872573">
        <ele>17.6</ele>
        <time>2017-10-15T15:15:22Z</time>
      </trkpt>
      <trkpt lat="59.882628964978" lon="17.641238833483">
        <ele>17.6</ele>
        <time>2017-10-15T15:15:23Z</time>
      </trkpt>
      <trkpt lat="59.882606669124" lon="17.64113514938">
        <ele>17.6</ele>
        <time>2017-10-15T15:15:24Z</time>
      </trkpt>
      <trkpt lat="59.882586804021" lon="17.641036997331">
        <ele>17.4</ele>
        <time>2017-10-15T15:15:25Z</time>
      </trkpt>
      <trkpt lat="59.882568363841" lon="17.640941108395">
        <ele>17.4</ele>
        <time>2017-10-15T15:15:26Z</time>
      </trkpt>
      <trkpt lat="59.882549756023" lon="17.640831389324">
        <ele>17.4</ele>
        <time>2017-10-15T15:15:27Z</time>
      </trkpt>
      <trkpt lat="59.882531818757" lon="17.640730471248">
        <ele>17.2</ele>
        <time>2017-10-15T15:15:28Z</time>
      </trkpt>
      <trkpt lat="59.882513210939" lon="17.640635252864">
        <ele>17.2</ele>
        <time>2017-10-15T15:15:29Z</time>
      </trkpt>
      <trkpt lat="59.88248881961" lon="17.640521342843">
        <ele>17.6</ele>
        <time>2017-10-15T15:15:30Z</time>
      </trkpt>
      <trkpt lat="59.882468870688" lon="17.640421765871">
        <ele>17.6</ele>
        <time>2017-10-15T15:15:31Z</time>
      </trkpt>
      <trkpt lat="59.882449173223" lon="17.640302659072">
        <ele>17.8</ele>
        <time>2017-10-15T15:15:32Z</time>
      </trkpt>
      <trkpt lat="59.88243349907" lon="17.640194532562">
        <ele>17.8</ele>
        <time>2017-10-15T15:15:33Z</time>
      </trkpt>
      <trkpt lat="59.882419333659" lon="17.640093111572">
        <ele>17.8</ele>
        <time>2017-10-15T15:15:34Z</time>
      </trkpt>
      <trkpt lat="59.882406760809" lon="17.639997054998">
        <ele>17.6</ele>
        <time>2017-10-15T15:15:35Z</time>
      </trkpt>
      <trkpt lat="59.882391086656" lon="17.639878618751">
        <ele>17.4</ele>
        <time>2017-10-15T15:15:36Z</time>
      </trkpt>
      <trkpt lat="59.882374490494" lon="17.639761439789">
        <ele>17.2</ele>
        <time>2017-10-15T15:15:37Z</time>
      </trkpt>
      <trkpt lat="59.882361582368" lon="17.639650211976">
        <ele>17.2</ele>
        <time>2017-10-15T15:15:38Z</time>
      </trkpt>
      <trkpt lat="59.88234968007" lon="17.639531105177">
        <ele>17</ele>
        <time>2017-10-15T15:15:39Z</time>
      </trkpt>
      <trkpt lat="59.882339873247" lon="17.639418620079">
        <ele>17</ele>
        <time>2017-10-15T15:15:40Z</time>
      </trkpt>
      <trkpt lat="59.882332245718" lon="17.639319797478">
        <ele>17</ele>
        <time>2017-10-15T15:15:41Z</time>
      </trkpt>
      <trkpt lat="59.882323193266" lon="17.639190967675">
        <ele>16.8</ele>
        <time>2017-10-15T15:15:42Z</time>
      </trkpt>
      <trkpt lat="59.882317745031" lon="17.63907487836">
        <ele>16.6</ele>
        <time>2017-10-15T15:15:43Z</time>
      </trkpt>
      <trkpt lat="59.882313302624" lon="17.638963315271">
        <ele>16.6</ele>
        <time>2017-10-15T15:15:44Z</time>
      </trkpt>
      <trkpt lat="59.88230860876" lon="17.638847561232">
        <ele>16.4</ele>
        <time>2017-10-15T15:15:45Z</time>
      </trkpt>
      <trkpt lat="59.882303495801" lon="17.638738931808">
        <ele>16.2</ele>
        <time>2017-10-15T15:15:46Z</time>
      </trkpt>
      <trkpt lat="59.882293605159" lon="17.638625692339">
        <ele>16</ele>
        <time>2017-10-15T15:15:47Z</time>
      </trkpt>
      <trkpt lat="59.882281954318" lon="17.638505076798">
        <ele>16</ele>
        <time>2017-10-15T15:15:48Z</time>
      </trkpt>
      <trkpt lat="59.882271476943" lon="17.638392507881">
        <ele>16</ele>
        <time>2017-10-15T15:15:49Z</time>
      </trkpt>
      <trkpt lat="59.882264855242" lon="17.63829117071">
        <ele>16</ele>
        <time>2017-10-15T15:15:50Z</time>
      </trkpt>
      <trkpt lat="59.882256976256" lon="17.638187067512">
        <ele>16</ele>
        <time>2017-10-15T15:15:51Z</time>
      </trkpt>
      <trkpt lat="59.882249181089" lon="17.638079024821">
        <ele>15.8</ele>
        <time>2017-10-15T15:15:52Z</time>
      </trkpt>
      <trkpt lat="59.882244151949" lon="17.637985901912">
        <ele>15.8</ele>
        <time>2017-10-15T15:15:53Z</time>
      </trkpt>
      <trkpt lat="59.882236189144" lon="17.637881547257">
        <ele>15.6</ele>
        <time>2017-10-15T15:15:54Z</time>
      </trkpt>
      <trkpt lat="59.882228896891" lon="17.637777946973">
        <ele>15.6</ele>
        <time>2017-10-15T15:15:55Z</time>
      </trkpt>
      <trkpt lat="59.882221688457" lon="17.637681136028">
        <ele>15.4</ele>
        <time>2017-10-15T15:15:56Z</time>
      </trkpt>
      <trkpt lat="59.882214563842" lon="17.637567728921">
        <ele>15.4</ele>
        <time>2017-10-15T15:15:57Z</time>
      </trkpt>
      <trkpt lat="59.882207523046" lon="17.637462116981">
        <ele>15.4</ele>
        <time>2017-10-15T15:15:58Z</time>
      </trkpt>
      <trkpt lat="59.882202661544" lon="17.637363797294">
        <ele>15.4</ele>
        <time>2017-10-15T15:15:59Z</time>
      </trkpt>
      <trkpt lat="59.882194279644" lon="17.637248294712">
        <ele>15.6</ele>
        <time>2017-10-15T15:16:00Z</time>
      </trkpt>
      <trkpt lat="59.882186819753" lon="17.637146789903">
        <ele>15.6</ele>
        <time>2017-10-15T15:16:01Z</time>
      </trkpt>
      <trkpt lat="59.88217868931" lon="17.637027431647">
        <ele>15.6</ele>
        <time>2017-10-15T15:16:02Z</time>
      </trkpt>
      <trkpt lat="59.882172402885" lon="17.636929363417">
        <ele>15.6</ele>
        <time>2017-10-15T15:16:03Z</time>
      </trkpt>
      <trkpt lat="59.882166367917" lon="17.636823835296">
        <ele>15.4</ele>
        <time>2017-10-15T15:16:04Z</time>
      </trkpt>
      <trkpt lat="59.882161003501" lon="17.636733729871">
        <ele>15.4</ele>
        <time>2017-10-15T15:16:05Z</time>
      </trkpt>
      <trkpt lat="59.882156812551" lon="17.636626022456">
        <ele>15.2</ele>
        <time>2017-10-15T15:16:06Z</time>
      </trkpt>
      <trkpt lat="59.882150526126" lon="17.636527870407">
        <ele>15.2</ele>
        <time>2017-10-15T15:16:07Z</time>
      </trkpt>
      <trkpt lat="59.882144910253" lon="17.636441704475">
        <ele>15.2</ele>
        <time>2017-10-15T15:16:08Z</time>
      </trkpt>
      <trkpt lat="59.882137031267" lon="17.636350928498">
        <ele>15.2</ele>
        <time>2017-10-15T15:16:09Z</time>
      </trkpt>
      <trkpt lat="59.882130241928" lon="17.636264846385">
        <ele>15.4</ele>
        <time>2017-10-15T15:16:10Z</time>
      </trkpt>
      <trkpt lat="59.882125715702" lon="17.636194354606">
        <ele>15.4</ele>
        <time>2017-10-15T15:16:11Z</time>
      </trkpt>
      <trkpt lat="59.882111550291" lon="17.63611187671">
        <ele>15.4</ele>
        <time>2017-10-15T15:16:12Z</time>
      </trkpt>
      <trkpt lat="59.882085734039" lon="17.636068458468">
        <ele>15.4</ele>
        <time>2017-10-15T15:16:13Z</time>
      </trkpt>
      <trkpt lat="59.882053379905" lon="17.636056388532">
        <ele>15.4</ele>
        <time>2017-10-15T15:16:14Z</time>
      </trkpt>
      <trkpt lat="59.8820202714" lon="17.636064854251">
        <ele>15.4</ele>
        <time>2017-10-15T15:16:15Z</time>
      </trkpt>
      <trkpt lat="59.881984983601" lon="17.636087653019">
        <ele>15.4</ele>
        <time>2017-10-15T15:16:16Z</time>
      </trkpt>
      <trkpt lat="59.881946007766" lon="17.636119168963">
        <ele>15.4</ele>
        <time>2017-10-15T15:16:17Z</time>
      </trkpt>
      <trkpt lat="59.881897644203" lon="17.636140207532">
        <ele>15.4</ele>
        <time>2017-10-15T15:16:18Z</time>
      </trkpt>
      <trkpt lat="59.881848526269" lon="17.636154372943">
        <ele>15.6</ele>
        <time>2017-10-15T15:16:19Z</time>
      </trkpt>
      <trkpt lat="59.881801084715" lon="17.636160827006">
        <ele>15.6</ele>
        <time>2017-10-15T15:16:20Z</time>
      </trkpt>
      <trkpt lat="59.881751715324" lon="17.636160324092">
        <ele>15.6</ele>
        <time>2017-10-15T15:16:21Z</time>
      </trkpt>
      <trkpt lat="59.881701507743" lon="17.636155211133">
        <ele>15.4</ele>
        <time>2017-10-15T15:16:22Z</time>
      </trkpt>
      <trkpt lat="59.881657418949" lon="17.636144063206">
        <ele>15.2</ele>
        <time>2017-10-15T15:16:23Z</time>
      </trkpt>
      <trkpt lat="59.881610815585" lon="17.636114475099">
        <ele>15</ele>
        <time>2017-10-15T15:16:24Z</time>
      </trkpt>
      <trkpt lat="59.881569911913" lon="17.63606493807">
        <ele>14.8</ele>
        <time>2017-10-15T15:16:25Z</time>
      </trkpt>
      <trkpt lat="59.881536551951" lon="17.63599704468">
        <ele>14.6</ele>
        <time>2017-10-15T15:16:26Z</time>
      </trkpt>
      <trkpt lat="59.881513082631" lon="17.635913058042">
        <ele>14.6</ele>
        <time>2017-10-15T15:16:27Z</time>
      </trkpt>
      <trkpt lat="59.881494223356" lon="17.635838710589">
        <ele>14.6</ele>
        <time>2017-10-15T15:16:28Z</time>
      </trkpt>
      <trkpt lat="59.881473687701" lon="17.63578162985">
        <ele>14.6</ele>
        <time>2017-10-15T15:16:29Z</time>
      </trkpt>
      <trkpt lat="59.881446614164" lon="17.635722034541">
        <ele>14.6</ele>
        <time>2017-10-15T15:16:30Z</time>
      </trkpt>
      <trkpt lat="59.881416187867" lon="17.635673251883">
        <ele>14.6</ele>
        <time>2017-10-15T15:16:31Z</time>
      </trkpt>
      <trkpt lat="59.881375619471" lon="17.635634443686">
        <ele>14.8</ele>
        <time>2017-10-15T15:16:32Z</time>
      </trkpt>
      <trkpt lat="59.88133211741" lon="17.635607202511">
        <ele>14.8</ele>
        <time>2017-10-15T15:16:33Z</time>
      </trkpt>
      <trkpt lat="59.881285346408" lon="17.635594545842">
        <ele>15</ele>
        <time>2017-10-15T15:16:34Z</time>
      </trkpt>
      <trkpt lat="59.881244861831" lon="17.635587085951">
        <ele>15</ele>
        <time>2017-10-15T15:16:35Z</time>
      </trkpt>
      <trkpt lat="59.881190044205" lon="17.635575518929">
        <ele>15.2</ele>
        <time>2017-10-15T15:16:36Z</time>
      </trkpt>
      <trkpt lat="59.881133298742" lon="17.635577614404">
        <ele>15.2</ele>
        <time>2017-10-15T15:16:37Z</time>
      </trkpt>
      <trkpt lat="59.881078564935" lon="17.635579877517">
        <ele>15.2</ele>
        <time>2017-10-15T15:16:38Z</time>
      </trkpt>
      <trkpt lat="59.88102198711" lon="17.635587253589">
        <ele>15.2</ele>
        <time>2017-10-15T15:16:39Z</time>
      </trkpt>
      <trkpt lat="59.880965912199" lon="17.635590941625">
        <ele>15</ele>
        <time>2017-10-15T15:16:40Z</time>
      </trkpt>
      <trkpt lat="59.880917632455" lon="17.635595719308">
        <ele>15</ele>
        <time>2017-10-15T15:16:41Z</time>
      </trkpt>
      <trkpt lat="59.880851583083" lon="17.635597814783">
        <ele>15</ele>
        <time>2017-10-15T15:16:42Z</time>
      </trkpt>
      <trkpt lat="59.880792742145" lon="17.635605442312">
        <ele>14.8</ele>
        <time>2017-10-15T15:16:43Z</time>
      </trkpt>
      <trkpt lat="59.880732895379" lon="17.63561315366">
        <ele>14.6</ele>
        <time>2017-10-15T15:16:44Z</time>
      </trkpt>
      <trkpt lat="59.880673551527" lon="17.635614997678">
        <ele>14.6</ele>
        <time>2017-10-15T15:16:45Z</time>
      </trkpt>
      <trkpt lat="59.880615129684" lon="17.635619356266">
        <ele>14.4</ele>
        <time>2017-10-15T15:16:46Z</time>
      </trkpt>
      <trkpt lat="59.880555618194" lon="17.635627151433">
        <ele>14.4</ele>
        <time>2017-10-15T15:16:47Z</time>
      </trkpt>
      <trkpt lat="59.880490239374" lon="17.635635281876">
        <ele>14.4</ele>
        <time>2017-10-15T15:16:48Z</time>
      </trkpt>
      <trkpt lat="59.880428800047" lon="17.635638131722">
        <ele>14.2</ele>
        <time>2017-10-15T15:16:49Z</time>
      </trkpt>
      <trkpt lat="59.880370462023" lon="17.635638634636">
        <ele>14.2</ele>
        <time>2017-10-15T15:16:50Z</time>
      </trkpt>
      <trkpt lat="59.880308771239" lon="17.635641819758">
        <ele>14.2</ele>
        <time>2017-10-15T15:16:51Z</time>
      </trkpt>
      <trkpt lat="59.880242135134" lon="17.635645759251">
        <ele>14.2</ele>
        <time>2017-10-15T15:16:52Z</time>
      </trkpt>
      <trkpt lat="59.880185222033" lon="17.635646932717">
        <ele>14.2</ele>
        <time>2017-10-15T15:16:53Z</time>
      </trkpt>
      <trkpt lat="59.880117999195" lon="17.635648441459">
        <ele>14</ele>
        <time>2017-10-15T15:16:54Z</time>
      </trkpt>
      <trkpt lat="59.880055973135" lon="17.635654644065">
        <ele>14</ele>
        <time>2017-10-15T15:16:55Z</time>
      </trkpt>
      <trkpt lat="59.879998473301" lon="17.635657661549">
        <ele>14</ele>
        <time>2017-10-15T15:16:56Z</time>
      </trkpt>
      <trkpt lat="59.87993234011" lon="17.635657996825">
        <ele>13.8</ele>
        <time>2017-10-15T15:16:57Z</time>
      </trkpt>
      <trkpt lat="59.879871403697" lon="17.635660427576">
        <ele>13.6</ele>
        <time>2017-10-15T15:16:58Z</time>
      </trkpt>
      <trkpt lat="59.879812562759" lon="17.635664953802">
        <ele>13.4</ele>
        <time>2017-10-15T15:16:59Z</time>
      </trkpt>
      <trkpt lat="59.87974542374" lon="17.635671407865">
        <ele>13.2</ele>
        <time>2017-10-15T15:17:00Z</time>
      </trkpt>
      <trkpt lat="59.879685241698" lon="17.635679873584">
        <ele>13.2</ele>
        <time>2017-10-15T15:17:01Z</time>
      </trkpt>
      <trkpt lat="59.879615755747" lon="17.635686327647">
        <ele>13.2</ele>
        <time>2017-10-15T15:17:02Z</time>
      </trkpt>
      <trkpt lat="59.879550293108" lon="17.635689931864">
        <ele>13.2</ele>
        <time>2017-10-15T15:17:03Z</time>
      </trkpt>
      <trkpt lat="59.879484579012" lon="17.635696721203">
        <ele>13.2</ele>
        <time>2017-10-15T15:17:04Z</time>
      </trkpt>
      <trkpt lat="59.879450129403" lon="17.63570032542">
        <ele>13.2</ele>
        <time>2017-10-15T15:17:05Z</time>
      </trkpt>
      <trkpt lat="59.879362035634" lon="17.63570619275">
        <ele>13</ele>
        <time>2017-10-15T15:17:06Z</time>
      </trkpt>
      <trkpt lat="59.879287520543" lon="17.635707366216">
        <ele>13</ele>
        <time>2017-10-15T15:17:07Z</time>
      </trkpt>
      <trkpt lat="59.879220800619" lon="17.635706779483">
        <ele>12.8</ele>
        <time>2017-10-15T15:17:08Z</time>
      </trkpt>
      <trkpt lat="59.879153745419" lon="17.635708372044">
        <ele>12.8</ele>
        <time>2017-10-15T15:17:09Z</time>
      </trkpt>
      <trkpt lat="59.87908744459" lon="17.635712646813">
        <ele>12.8</ele>
        <time>2017-10-15T15:17:10Z</time>
      </trkpt>
      <trkpt lat="59.879030866765" lon="17.635719939066">
        <ele>12.6</ele>
        <time>2017-10-15T15:17:11Z</time>
      </trkpt>
      <trkpt lat="59.878954340018" lon="17.635729997346">
        <ele>12.4</ele>
        <time>2017-10-15T15:17:12Z</time>
      </trkpt>
      <trkpt lat="59.878886781904" lon="17.6357355294">
        <ele>12.2</ele>
        <time>2017-10-15T15:17:13Z</time>
      </trkpt>
      <trkpt lat="59.878821403084" lon="17.635737457237">
        <ele>12.2</ele>
        <time>2017-10-15T15:17:14Z</time>
      </trkpt>
      <trkpt lat="59.878757281549" lon="17.635741648187">
        <ele>12.2</ele>
        <time>2017-10-15T15:17:15Z</time>
      </trkpt>
      <trkpt lat="59.878697350964" lon="17.635743408386">
        <ele>12</ele>
        <time>2017-10-15T15:17:16Z</time>
      </trkpt>
      <trkpt lat="59.878634151438" lon="17.635741648187">
        <ele>11.8</ele>
        <time>2017-10-15T15:17:17Z</time>
      </trkpt>
      <trkpt lat="59.878565168401" lon="17.635740307083">
        <ele>11.8</ele>
        <time>2017-10-15T15:17:18Z</time>
      </trkpt>
      <trkpt lat="59.878499202848" lon="17.635740390902">
        <ele>11.8</ele>
        <time>2017-10-15T15:17:19Z</time>
      </trkpt>
      <trkpt lat="59.878438853168" lon="17.635742402558">
        <ele>11.6</ele>
        <time>2017-10-15T15:17:20Z</time>
      </trkpt>
      <trkpt lat="59.878373893443" lon="17.635748856621">
        <ele>11.6</ele>
        <time>2017-10-15T15:17:21Z</time>
      </trkpt>
      <trkpt lat="59.878303904578" lon="17.635755394503">
        <ele>11.4</ele>
        <time>2017-10-15T15:17:22Z</time>
      </trkpt>
      <trkpt lat="59.878243303441" lon="17.635756903245">
        <ele>11.2</ele>
        <time>2017-10-15T15:17:23Z</time>
      </trkpt>
      <trkpt lat="59.878173649852" lon="17.635760758919">
        <ele>10.8</ele>
        <time>2017-10-15T15:17:24Z</time>
      </trkpt>
      <trkpt lat="59.878110282688" lon="17.635765368964">
        <ele>10.8</ele>
        <time>2017-10-15T15:17:25Z</time>
      </trkpt>
      <trkpt lat="59.878049094818" lon="17.635768386448">
        <ele>10.6</ele>
        <time>2017-10-15T15:17:26Z</time>
      </trkpt>
      <trkpt lat="59.877979860324" lon="17.635770901018">
        <ele>10.6</ele>
        <time>2017-10-15T15:17:27Z</time>
      </trkpt>
      <trkpt lat="59.877915571151" lon="17.635775008149">
        <ele>10.4</ele>
        <time>2017-10-15T15:17:28Z</time>
      </trkpt>
      <trkpt lat="59.877856897851" lon="17.635783725325">
        <ele>10.4</ele>
        <time>2017-10-15T15:17:29Z</time>
      </trkpt>
      <trkpt lat="59.87778908828" lon="17.635795795261">
        <ele>10.4</ele>
        <time>2017-10-15T15:17:30Z</time>
      </trkpt>
      <trkpt lat="59.877728487143" lon="17.635805182989">
        <ele>10.4</ele>
        <time>2017-10-15T15:17:31Z</time>
      </trkpt>
      <trkpt lat="59.877661431943" lon="17.635816414735">
        <ele>10.4</ele>
        <time>2017-10-15T15:17:32Z</time>
      </trkpt>
      <trkpt lat="59.877599238245" lon="17.635821108599">
        <ele>10.2</ele>
        <time>2017-10-15T15:17:33Z</time>
      </trkpt>
      <trkpt lat="59.87753846947" lon="17.635825048092">
        <ele>10.2</ele>
        <time>2017-10-15T15:17:34Z</time>
      </trkpt>
      <trkpt lat="59.877485244405" lon="17.635829322861">
        <ele>10.2</ele>
        <time>2017-10-15T15:17:35Z</time>
      </trkpt>
      <trkpt lat="59.877420117042" lon="17.635836028381">
        <ele>10</ele>
        <time>2017-10-15T15:17:36Z</time>
      </trkpt>
      <trkpt lat="59.877354486765" lon="17.635839800236">
        <ele>10</ele>
        <time>2017-10-15T15:17:37Z</time>
      </trkpt>
      <trkpt lat="59.8772928798" lon="17.635842398625">
        <ele>10</ele>
        <time>2017-10-15T15:17:38Z</time>
      </trkpt>
      <trkpt lat="59.877232194844" lon="17.635847679222">
        <ele>10</ele>
        <time>2017-10-15T15:17:39Z</time>
      </trkpt>
      <trkpt lat="59.877170755517" lon="17.635849187964">
        <ele>10</ele>
        <time>2017-10-15T15:17:40Z</time>
      </trkpt>
      <trkpt lat="59.877117278995" lon="17.635851451077">
        <ele>10</ele>
        <time>2017-10-15T15:17:41Z</time>
      </trkpt>
      <trkpt lat="59.877044440284" lon="17.635854049466">
        <ele>10.2</ele>
        <time>2017-10-15T15:17:42Z</time>
      </trkpt>
      <trkpt lat="59.876984174423" lon="17.6358612579">
        <ele>10.2</ele>
        <time>2017-10-15T15:17:43Z</time>
      </trkpt>
      <trkpt lat="59.876921226354" lon="17.63586712523">
        <ele>10.2</ele>
        <time>2017-10-15T15:17:44Z</time>
      </trkpt>
      <trkpt lat="59.876857691552" lon="17.635868214877">
        <ele>10</ele>
        <time>2017-10-15T15:17:45Z</time>
      </trkpt>
      <trkpt lat="59.876796084587" lon="17.635865532669">
        <ele>10.2</ele>
        <time>2017-10-15T15:17:46Z</time>
      </trkpt>
      <trkpt lat="59.876735567269" lon="17.635863353375">
        <ele>10.2</ele>
        <time>2017-10-15T15:17:47Z</time>
      </trkpt>
      <trkpt lat="59.876666835689" lon="17.635870813266">
        <ele>10</ele>
        <time>2017-10-15T15:17:48Z</time>
      </trkpt>
      <trkpt lat="59.876601792145" lon="17.635882883202">
        <ele>10</ele>
        <time>2017-10-15T15:17:49Z</time>
      </trkpt>
      <trkpt lat="59.876541358646" lon="17.635891684197">
        <ele>10</ele>
        <time>2017-10-15T15:17:50Z</time>
      </trkpt>
      <trkpt lat="59.876476398921" lon="17.635901407201">
        <ele>10</ele>
        <time>2017-10-15T15:17:51Z</time>
      </trkpt>
      <trkpt lat="59.876405404228" lon="17.635914734422">
        <ele>10</ele>
        <time>2017-10-15T15:17:52Z</time>
      </trkpt>
      <trkpt lat="59.876343797263" lon="17.635922781046">
        <ele>10</ele>
        <time>2017-10-15T15:17:53Z</time>
      </trkpt>
      <trkpt lat="59.876271293828" lon="17.635926217625">
        <ele>10</ele>
        <time>2017-10-15T15:17:54Z</time>
      </trkpt>
      <trkpt lat="59.876203484257" lon="17.635928816014">
        <ele>10</ele>
        <time>2017-10-15T15:17:55Z</time>
      </trkpt>
      <trkpt lat="59.876139362722" lon="17.635942059416">
        <ele>10</ele>
        <time>2017-10-15T15:17:56Z</time>
      </trkpt>
      <trkpt lat="59.876068787124" lon="17.635957398293">
        <ele>10</ele>
        <time>2017-10-15T15:17:57Z</time>
      </trkpt>
      <trkpt lat="59.876003575942" lon="17.635976257568">
        <ele>9.8</ele>
        <time>2017-10-15T15:17:58Z</time>
      </trkpt>
      <trkpt lat="59.875943058624" lon="17.635991344988">
        <ele>9.8</ele>
        <time>2017-10-15T15:17:59Z</time>
      </trkpt>
      <trkpt lat="59.875873656492" lon="17.636008527883">
        <ele>9.6</ele>
        <time>2017-10-15T15:18:00Z</time>
      </trkpt>
      <trkpt lat="59.875813725907" lon="17.636027554796">
        <ele>9.6</ele>
        <time>2017-10-15T15:18:01Z</time>
      </trkpt>
      <trkpt lat="59.87574725744" lon="17.636054795971">
        <ele>9.4</ele>
        <time>2017-10-15T15:18:02Z</time>
      </trkpt>
      <trkpt lat="59.87568271681" lon="17.63608505463">
        <ele>9.6</ele>
        <time>2017-10-15T15:18:03Z</time>
      </trkpt>
      <trkpt lat="59.875620187836" lon="17.636113720728">
        <ele>9.6</ele>
        <time>2017-10-15T15:18:04Z</time>
      </trkpt>
      <trkpt lat="59.875566962771" lon="17.636136351858">
        <ele>9.8</ele>
        <time>2017-10-15T15:18:05Z</time>
      </trkpt>
      <trkpt lat="59.87549999139" lon="17.636167113431">
        <ele>9.8</ele>
        <time>2017-10-15T15:18:06Z</time>
      </trkpt>
      <trkpt lat="59.875434109656" lon="17.636202652687">
        <ele>9.6</ele>
        <time>2017-10-15T15:18:07Z</time>
      </trkpt>
      <trkpt lat="59.875372837967" lon="17.636232073156">
        <ele>9.8</ele>
        <time>2017-10-15T15:18:08Z</time>
      </trkpt>
      <trkpt lat="59.875311314821" lon="17.636261409806">
        <ele>9.8</ele>
        <time>2017-10-15T15:18:09Z</time>
      </trkpt>
      <trkpt lat="59.875250881322" lon="17.636295524139">
        <ele>9.8</ele>
        <time>2017-10-15T15:18:10Z</time>
      </trkpt>
      <trkpt lat="59.87520075756" lon="17.636326620988">
        <ele>9.6</ele>
        <time>2017-10-15T15:18:11Z</time>
      </trkpt>
      <trkpt lat="59.875129930505" lon="17.636370123049">
        <ele>9.6</ele>
        <time>2017-10-15T15:18:12Z</time>
      </trkpt>
      <trkpt lat="59.875071760119" lon="17.636407254866">
        <ele>9.6</ele>
        <time>2017-10-15T15:18:13Z</time>
      </trkpt>
      <trkpt lat="59.875013254457" lon="17.63644966728">
        <ele>9.6</ele>
        <time>2017-10-15T15:18:14Z</time>
      </trkpt>
      <trkpt lat="59.87495684427" lon="17.63649073859">
        <ele>9.8</ele>
        <time>2017-10-15T15:18:15Z</time>
      </trkpt>
      <trkpt lat="59.874906720508" lon="17.636523930914">
        <ele>9.8</ele>
        <time>2017-10-15T15:18:16Z</time>
      </trkpt>
      <trkpt lat="59.874853914538" lon="17.636563744939">
        <ele>9.8</ele>
        <time>2017-10-15T15:18:17Z</time>
      </trkpt>
      <trkpt lat="59.87480094093" lon="17.636605989715">
        <ele>9.6</ele>
        <time>2017-10-15T15:18:18Z</time>
      </trkpt>
      <trkpt lat="59.874750984806" lon="17.636646474292">
        <ele>9.8</ele>
        <time>2017-10-15T15:18:19Z</time>
      </trkpt>
      <trkpt lat="59.874707818021" lon="17.636687964697">
        <ele>9.6</ele>
        <time>2017-10-15T15:18:20Z</time>
      </trkpt>
      <trkpt lat="59.874665573245" lon="17.636739597201">
        <ele>9.6</ele>
        <time>2017-10-15T15:18:21Z</time>
      </trkpt>
      <trkpt lat="59.874623077012" lon="17.636793828094">
        <ele>9.6</ele>
        <time>2017-10-15T15:18:22Z</time>
      </trkpt>
      <trkpt lat="59.874591812525" lon="17.636837833069">
        <ele>9.6</ele>
        <time>2017-10-15T15:18:23Z</time>
      </trkpt>
      <trkpt lat="59.874558117287" lon="17.636876976542">
        <ele>9.6</ele>
        <time>2017-10-15T15:18:24Z</time>
      </trkpt>
      <trkpt lat="59.874533223044" lon="17.636898182749">
        <ele>9.4</ele>
        <time>2017-10-15T15:18:25Z</time>
      </trkpt>
      <trkpt lat="59.874513190303" lon="17.636917628757">
        <ele>9.4</ele>
        <time>2017-10-15T15:18:26Z</time>
      </trkpt>
      <trkpt lat="59.874489050431" lon="17.636944869932">
        <ele>9.6</ele>
        <time>2017-10-15T15:18:27Z</time>
      </trkpt>
      <trkpt lat="59.874466335482" lon="17.636953754746">
        <ele>9.6</ele>
        <time>2017-10-15T15:18:28Z</time>
      </trkpt>
      <trkpt lat="59.874447727664" lon="17.636932632358">
        <ele>9.6</ele>
        <time>2017-10-15T15:18:29Z</time>
      </trkpt>
      <trkpt lat="59.874434148986" lon="17.636900864957">
        <ele>9.6</ele>
        <time>2017-10-15T15:18:30Z</time>
      </trkpt>
      <trkpt lat="59.874420151213" lon="17.636866834443">
        <ele>9.6</ele>
        <time>2017-10-15T15:18:31Z</time>
      </trkpt>
      <trkpt lat="59.874405818164" lon="17.636816626862">
        <ele>9.6</ele>
        <time>2017-10-15T15:18:32Z</time>
      </trkpt>
      <trkpt lat="59.874387797079" lon="17.63676063577">
        <ele>9.6</ele>
        <time>2017-10-15T15:18:33Z</time>
      </trkpt>
      <trkpt lat="59.874360974999" lon="17.636719061546">
        <ele>9.6</ele>
        <time>2017-10-15T15:18:34Z</time>
      </trkpt>
      <trkpt lat="59.874327279761" lon="17.636715960243">
        <ele>9.6</ele>
        <time>2017-10-15T15:18:35Z</time>
      </trkpt>
      <trkpt lat="59.874288471564" lon="17.636738507554">
        <ele>9.8</ele>
        <time>2017-10-15T15:18:36Z</time>
      </trkpt>
      <trkpt lat="59.874252848489" lon="17.636781506701">
        <ele>9.8</ele>
        <time>2017-10-15T15:18:37Z</time>
      </trkpt>
      <trkpt lat="59.874218985613" lon="17.636820231079">
        <ele>9.6</ele>
        <time>2017-10-15T15:18:38Z</time>
      </trkpt>
      <trkpt lat="59.874183613995" lon="17.636858620181">
        <ele>9.6</ele>
        <time>2017-10-15T15:18:39Z</time>
      </trkpt>
      <trkpt lat="59.874143548513" lon="17.636901954604">
        <ele>9.8</ele>
        <time>2017-10-15T15:18:40Z</time>
      </trkpt>
      <trkpt lat="59.874106835791" lon="17.636939421697">
        <ele>10</ele>
        <time>2017-10-15T15:18:41Z</time>
      </trkpt>
      <trkpt lat="59.874060232427" lon="17.636988791088">
        <ele>9.8</ele>
        <time>2017-10-15T15:18:42Z</time>
      </trkpt>
      <trkpt lat="59.874012874692" lon="17.637040423592">
        <ele>9.8</ele>
        <time>2017-10-15T15:18:43Z</time>
      </trkpt>
      <trkpt lat="59.873967528613" lon="17.637090966449">
        <ele>9.8</ele>
        <time>2017-10-15T15:18:44Z</time>
      </trkpt>
      <trkpt lat="59.873919081231" lon="17.637145281161">
        <ele>9.8</ele>
        <time>2017-10-15T15:18:45Z</time>
      </trkpt>
      <trkpt lat="59.873872729324" lon="17.637199176778">
        <ele>9.6</ele>
        <time>2017-10-15T15:18:46Z</time>
      </trkpt>
      <trkpt lat="59.873825455408" lon="17.637251396015">
        <ele>9.6</ele>
        <time>2017-10-15T15:18:47Z</time>
      </trkpt>
      <trkpt lat="59.873772314162" lon="17.637313589713">
        <ele>9.6</ele>
        <time>2017-10-15T15:18:48Z</time>
      </trkpt>
      <trkpt lat="59.873720011106" lon="17.637370586633">
        <ele>9.6</ele>
        <time>2017-10-15T15:18:49Z</time>
      </trkpt>
      <trkpt lat="59.873671144629" lon="17.637423560241">
        <ele>9.6</ele>
        <time>2017-10-15T15:18:50Z</time>
      </trkpt>
      <trkpt lat="59.873621691419" lon="17.637480557161">
        <ele>9.6</ele>
        <time>2017-10-15T15:18:51Z</time>
      </trkpt>
      <trkpt lat="59.873570142734" lon="17.637540487746">
        <ele>9.6</ele>
        <time>2017-10-15T15:18:52Z</time>
      </trkpt>
      <trkpt lat="59.873525551026" lon="17.637589270404">
        <ele>9.6</ele>
        <time>2017-10-15T15:18:53Z</time>
      </trkpt>
      <trkpt lat="59.873474337617" lon="17.637648446618">
        <ele>9.6</ele>
        <time>2017-10-15T15:18:54Z</time>
      </trkpt>
      <trkpt lat="59.873427734253" lon="17.637704772986">
        <ele>9.6</ele>
        <time>2017-10-15T15:18:55Z</time>
      </trkpt>
      <trkpt lat="59.873382974907" lon="17.637744167916">
        <ele>9.4</ele>
        <time>2017-10-15T15:18:56Z</time>
      </trkpt>
      <trkpt lat="59.873335617172" lon="17.637776102955">
        <ele>9.4</ele>
        <time>2017-10-15T15:18:57Z</time>
      </trkpt>
      <trkpt lat="59.873284571401" lon="17.637779790991">
        <ele>9.4</ele>
        <time>2017-10-15T15:18:58Z</time>
      </trkpt>
      <trkpt lat="59.873243835367" lon="17.637739222595">
        <ele>9.2</ele>
        <time>2017-10-15T15:18:59Z</time>
      </trkpt>
      <trkpt lat="59.873209301939" lon="17.637660432735">
        <ele>9.2</ele>
        <time>2017-10-15T15:19:00Z</time>
      </trkpt>
      <trkpt lat="59.873188011913" lon="17.637576110821">
        <ele>9.2</ele>
        <time>2017-10-15T15:19:01Z</time>
      </trkpt>
      <trkpt lat="59.87316395586" lon="17.637475360383">
        <ele>9.2</ele>
        <time>2017-10-15T15:19:02Z</time>
      </trkpt>
      <trkpt lat="59.873144593671" lon="17.637373101203">
        <ele>9.2</ele>
        <time>2017-10-15T15:19:03Z</time>
      </trkpt>
      <trkpt lat="59.873124477111" lon="17.637269165643">
        <ele>9.2</ele>
        <time>2017-10-15T15:19:04Z</time>
      </trkpt>
      <trkpt lat="59.873099331411" lon="17.637184340815">
        <ele>9.2</ele>
        <time>2017-10-15T15:19:05Z</time>
      </trkpt>
      <trkpt lat="59.8730600203" lon="17.637095995589">
        <ele>9.2</ele>
        <time>2017-10-15T15:19:06Z</time>
      </trkpt>
      <trkpt lat="59.873013333117" lon="17.637002369766">
        <ele>9.2</ele>
        <time>2017-10-15T15:19:07Z</time>
      </trkpt>
      <trkpt lat="59.872970753065" lon="17.636901619328">
        <ele>9.2</ele>
        <time>2017-10-15T15:19:08Z</time>
      </trkpt>
      <trkpt lat="59.872936974008" lon="17.636783518357">
        <ele>9</ele>
        <time>2017-10-15T15:19:09Z</time>
      </trkpt>
      <trkpt lat="59.872908559367" lon="17.636653850364">
        <ele>9</ele>
        <time>2017-10-15T15:19:10Z</time>
      </trkpt>
      <trkpt lat="59.872883246029" lon="17.636542119637">
        <ele>8.8</ele>
        <time>2017-10-15T15:19:11Z</time>
      </trkpt>
      <trkpt lat="59.872852400637" lon="17.636397783319">
        <ele>8.6</ele>
        <time>2017-10-15T15:19:12Z</time>
      </trkpt>
      <trkpt lat="59.872822058159" lon="17.636255123381">
        <ele>8.4</ele>
        <time>2017-10-15T15:19:13Z</time>
      </trkpt>
      <trkpt lat="59.872789368749" lon="17.636121851171">
        <ele>8</ele>
        <time>2017-10-15T15:19:14Z</time>
      </trkpt>
      <trkpt lat="59.872750560552" lon="17.63598195726">
        <ele>7.6</ele>
        <time>2017-10-15T15:19:15Z</time>
      </trkpt>
      <trkpt lat="59.872714937477" lon="17.635847176308">
        <ele>7.4</ele>
        <time>2017-10-15T15:19:16Z</time>
      </trkpt>
      <trkpt lat="59.8726744529" lon="17.635703259085">
        <ele>6.8</ele>
        <time>2017-10-15T15:19:17Z</time>
      </trkpt>
      <trkpt lat="59.872631034658" lon="17.635556408197">
        <ele>6.4</ele>
        <time>2017-10-15T15:19:18Z</time>
      </trkpt>
      <trkpt lat="59.872595998316" lon="17.635435289742">
        <ele>5.8</ele>
        <time>2017-10-15T15:19:19Z</time>
      </trkpt>
      <trkpt lat="59.872563225087" lon="17.635316602038">
        <ele>5.4</ele>
        <time>2017-10-15T15:19:20Z</time>
      </trkpt>
      <trkpt lat="59.872528188745" lon="17.635198584886">
        <ele>5.2</ele>
        <time>2017-10-15T15:19:21Z</time>
      </trkpt>
      <trkpt lat="59.872492817127" lon="17.635089033453">
        <ele>5</ele>
        <time>2017-10-15T15:19:22Z</time>
      </trkpt>
      <trkpt lat="59.87246322902" lon="17.634996581096">
        <ele>5</ele>
        <time>2017-10-15T15:19:23Z</time>
      </trkpt>
      <trkpt lat="59.872431210162" lon="17.634899267237">
        <ele>5.4</ele>
        <time>2017-10-15T15:19:24Z</time>
      </trkpt>
      <trkpt lat="59.872406735014" lon="17.634818381902">
        <ele>5.6</ele>
        <time>2017-10-15T15:19:25Z</time>
      </trkpt>
      <trkpt lat="59.872383014237" lon="17.634736071644">
        <ele>5.6</ele>
        <time>2017-10-15T15:19:26Z</time>
      </trkpt>
      <trkpt lat="59.872358874365" lon="17.634655186309">
        <ele>6</ele>
        <time>2017-10-15T15:19:27Z</time>
      </trkpt>
      <trkpt lat="59.872334734493" lon="17.634572037861">
        <ele>6.2</ele>
        <time>2017-10-15T15:19:28Z</time>
      </trkpt>
      <trkpt lat="59.872318557426" lon="17.634495175838">
        <ele>6.4</ele>
        <time>2017-10-15T15:19:29Z</time>
      </trkpt>
      <trkpt lat="59.872303637644" lon="17.634399286902">
        <ele>6.6</ele>
        <time>2017-10-15T15:19:30Z</time>
      </trkpt>
      <trkpt lat="59.872284778369" lon="17.634315970816">
        <ele>6.8</ele>
        <time>2017-10-15T15:19:31Z</time>
      </trkpt>
      <trkpt lat="59.872257537194" lon="17.634243718838">
        <ele>7</ele>
        <time>2017-10-15T15:19:32Z</time>
      </trkpt>
      <trkpt lat="59.87223188858" lon="17.634172891783">
        <ele>7.2</ele>
        <time>2017-10-15T15:19:33Z</time>
      </trkpt>
      <trkpt lat="59.87221847754" lon="17.634088402231">
        <ele>7.4</ele>
        <time>2017-10-15T15:19:34Z</time>
      </trkpt>
      <trkpt lat="59.872230296019" lon="17.634017994271">
        <ele>7.6</ele>
        <time>2017-10-15T15:19:35Z</time>
      </trkpt>
      <trkpt lat="59.872265919094" lon="17.633978934617">
        <ele>7.6</ele>
        <time>2017-10-15T15:19:36Z</time>
      </trkpt>
      <trkpt lat="59.872309504974" lon="17.633966277948">
        <ele>7.8</ele>
        <time>2017-10-15T15:19:37Z</time>
      </trkpt>
      <trkpt lat="59.872351833569" lon="17.633945909931">
        <ele>8</ele>
        <time>2017-10-15T15:19:38Z</time>
      </trkpt>
      <trkpt lat="59.872398604571" lon="17.633930738692">
        <ele>8.2</ele>
        <time>2017-10-15T15:19:39Z</time>
      </trkpt>
      <trkpt lat="59.872446046125" lon="17.633918752575">
        <ele>8.4</ele>
        <time>2017-10-15T15:19:40Z</time>
      </trkpt>
      <trkpt lat="59.872485105779" lon="17.633909197209">
        <ele>8.6</ele>
        <time>2017-10-15T15:19:41Z</time>
      </trkpt>
      <trkpt lat="59.872532547333" lon="17.633874663781">
        <ele>8.6</ele>
        <time>2017-10-15T15:19:42Z</time>
      </trkpt>
      <trkpt lat="59.872572445177" lon="17.633814984653">
        <ele>8.8</ele>
        <time>2017-10-15T15:19:43Z</time>
      </trkpt>
      <trkpt lat="59.872618545627" lon="17.633786989107">
        <ele>8.8</ele>
        <time>2017-10-15T15:19:44Z</time>
      </trkpt>
      <trkpt lat="59.872665148991" lon="17.633758825923">
        <ele>8.8</ele>
        <time>2017-10-15T15:19:45Z</time>
      </trkpt>
      <trkpt lat="59.872700520609" lon="17.633704008297">
        <ele>8.8</ele>
        <time>2017-10-15T15:19:46Z</time>
      </trkpt>
      <trkpt lat="59.872724241386" lon="17.633620356935">
        <ele>8.8</ele>
        <time>2017-10-15T15:19:47Z</time>
      </trkpt>
      <trkpt lat="59.872735305494" lon="17.633523881266">
        <ele>8.8</ele>
        <time>2017-10-15T15:19:48Z</time>
      </trkpt>
      <trkpt lat="59.872734215847" lon="17.633420951534">
        <ele>8.8</ele>
        <time>2017-10-15T15:19:49Z</time>
      </trkpt>
      <trkpt lat="59.872733712933" lon="17.633331935756">
        <ele>8.6</ele>
        <time>2017-10-15T15:19:50Z</time>
      </trkpt>
      <trkpt lat="59.87273228801" lon="17.63323101768">
        <ele>8.8</ele>
        <time>2017-10-15T15:19:51Z</time>
      </trkpt>
      <trkpt lat="59.872730024897" lon="17.633116437107">
        <ele>8.8</ele>
        <time>2017-10-15T15:19:52Z</time>
      </trkpt>
      <trkpt lat="59.872731366001" lon="17.633019961438">
        <ele>8.6</ele>
        <time>2017-10-15T15:19:53Z</time>
      </trkpt>
      <trkpt lat="59.872733629114" lon="17.632909823272">
        <ele>8.6</ele>
        <time>2017-10-15T15:19:54Z</time>
      </trkpt>
      <trkpt lat="59.872734970218" lon="17.63280102621">
        <ele>8.6</ele>
        <time>2017-10-15T15:19:55Z</time>
      </trkpt>
      <trkpt lat="59.872733545295" lon="17.632699689039">
        <ele>8.6</ele>
        <time>2017-10-15T15:19:56Z</time>
      </trkpt>
      <trkpt lat="59.872737400969" lon="17.632602878094">
        <ele>8.6</ele>
        <time>2017-10-15T15:19:57Z</time>
      </trkpt>
      <trkpt lat="59.872735473132" lon="17.632479412707">
        <ele>8.6</ele>
        <time>2017-10-15T15:19:58Z</time>
      </trkpt>
      <trkpt lat="59.872731701277" lon="17.632385870703">
        <ele>8.6</ele>
        <time>2017-10-15T15:19:59Z</time>
      </trkpt>
      <trkpt lat="59.872729354345" lon="17.632252347036">
        <ele>8.6</ele>
        <time>2017-10-15T15:20:00Z</time>
      </trkpt>
      <trkpt lat="59.872732036553" lon="17.63214891439">
        <ele>8.8</ele>
        <time>2017-10-15T15:20:01Z</time>
      </trkpt>
      <trkpt lat="59.872735221675" lon="17.632033495627">
        <ele>8.8</ele>
        <time>2017-10-15T15:20:02Z</time>
      </trkpt>
      <trkpt lat="59.872736814236" lon="17.631922183995">
        <ele>8.8</ele>
        <time>2017-10-15T15:20:03Z</time>
      </trkpt>
      <trkpt lat="59.872736898055" lon="17.631812632562">
        <ele>9</ele>
        <time>2017-10-15T15:20:04Z</time>
      </trkpt>
      <trkpt lat="59.872734886399" lon="17.631746247914">
        <ele>9</ele>
        <time>2017-10-15T15:20:05Z</time>
      </trkpt>
      <trkpt lat="59.872735724589" lon="17.63161414917">
        <ele>9</ele>
        <time>2017-10-15T15:20:06Z</time>
      </trkpt>
      <trkpt lat="59.872742597747" lon="17.631511303257">
        <ele>9</ele>
        <time>2017-10-15T15:20:07Z</time>
      </trkpt>
      <trkpt lat="59.872757936624" lon="17.631419269995">
        <ele>9</ele>
        <time>2017-10-15T15:20:08Z</time>
      </trkpt>
      <trkpt lat="59.872790039301" lon="17.631341234506">
        <ele>9</ele>
        <time>2017-10-15T15:20:09Z</time>
      </trkpt>
      <trkpt lat="59.872838151407" lon="17.631303515956">
        <ele>9</ele>
        <time>2017-10-15T15:20:10Z</time>
      </trkpt>
      <trkpt lat="59.872882407839" lon="17.631286835975">
        <ele>9</ele>
        <time>2017-10-15T15:20:11Z</time>
      </trkpt>
      <trkpt lat="59.872938985664" lon="17.631266048863">
        <ele>9</ele>
        <time>2017-10-15T15:20:12Z</time>
      </trkpt>
      <trkpt lat="59.872994138566" lon="17.631243836828">
        <ele>9</ele>
        <time>2017-10-15T15:20:13Z</time>
      </trkpt>
      <trkpt lat="59.873048118002" lon="17.631220283689">
        <ele>8.8</ele>
        <time>2017-10-15T15:20:14Z</time>
      </trkpt>
      <trkpt lat="59.873099079954" lon="17.631202681699">
        <ele>8.8</ele>
        <time>2017-10-15T15:20:15Z</time>
      </trkpt>
      <trkpt lat="59.873147862612" lon="17.631182397501">
        <ele>8.8</ele>
        <time>2017-10-15T15:20:16Z</time>
      </trkpt>
      <trkpt lat="59.873200500944" lon="17.631161945665">
        <ele>8.8</ele>
        <time>2017-10-15T15:20:17Z</time>
      </trkpt>
      <trkpt lat="59.873257414045" lon="17.631141829105">
        <ele>8.8</ele>
        <time>2017-10-15T15:20:18Z</time>
      </trkpt>
      <trkpt lat="59.873309298006" lon="17.631119784708">
        <ele>8.8</ele>
        <time>2017-10-15T15:20:19Z</time>
      </trkpt>
      <trkpt lat="59.873359505587" lon="17.631096231569">
        <ele>8.6</ele>
        <time>2017-10-15T15:20:20Z</time>
      </trkpt>
      <trkpt lat="59.873411808643" lon="17.631075193">
        <ele>8.6</ele>
        <time>2017-10-15T15:20:21Z</time>
      </trkpt>
      <trkpt lat="59.873466877726" lon="17.631052478051">
        <ele>8.8</ele>
        <time>2017-10-15T15:20:22Z</time>
      </trkpt>
      <trkpt lat="59.873518258773" lon="17.631031858577">
        <ele>8.8</ele>
        <time>2017-10-15T15:20:23Z</time>
      </trkpt>
      <trkpt lat="59.873573663132" lon="17.631012831664">
        <ele>8.8</ele>
        <time>2017-10-15T15:20:24Z</time>
      </trkpt>
      <trkpt lat="59.873628145482" lon="17.630993469475">
        <ele>9</ele>
        <time>2017-10-15T15:20:25Z</time>
      </trkpt>
      <trkpt lat="59.873679694167" lon="17.630978046779">
        <ele>9</ele>
        <time>2017-10-15T15:20:26Z</time>
      </trkpt>
      <trkpt lat="59.873734260336" lon="17.630960947703">
        <ele>9</ele>
        <time>2017-10-15T15:20:27Z</time>
      </trkpt>
      <trkpt lat="59.873792179265" lon="17.630938232754">
        <ele>9</ele>
        <time>2017-10-15T15:20:28Z</time>
      </trkpt>
      <trkpt lat="59.873841883932" lon="17.630916355995">
        <ele>9</ele>
        <time>2017-10-15T15:20:29Z</time>
      </trkpt>
      <trkpt lat="59.87389904849" lon="17.630886516431">
        <ele>9</ele>
        <time>2017-10-15T15:20:30Z</time>
      </trkpt>
      <trkpt lat="59.873949088433" lon="17.6308656455">
        <ele>9</ele>
        <time>2017-10-15T15:20:31Z</time>
      </trkpt>
      <trkpt lat="59.874007761733" lon="17.630845696578">
        <ele>9.2</ele>
        <time>2017-10-15T15:20:32Z</time>
      </trkpt>
      <trkpt lat="59.874063166092" lon="17.630831363529">
        <ele>9.2</ele>
        <time>2017-10-15T15:20:33Z</time>
      </trkpt>
      <trkpt lat="59.874120246831" lon="17.630814851186">
        <ele>9.2</ele>
        <time>2017-10-15T15:20:34Z</time>
      </trkpt>
      <trkpt lat="59.874169364765" lon="17.630802110698">
        <ele>9.2</ele>
        <time>2017-10-15T15:20:35Z</time>
      </trkpt>
      <trkpt lat="59.874228038065" lon="17.630784927803">
        <ele>9.4</ele>
        <time>2017-10-15T15:20:36Z</time>
      </trkpt>
      <trkpt lat="59.874285956994" lon="17.630762129035">
        <ele>9.4</ele>
        <time>2017-10-15T15:20:37Z</time>
      </trkpt>
      <trkpt lat="59.874339265878" lon="17.630736983335">
        <ele>9.4</ele>
        <time>2017-10-15T15:20:38Z</time>
      </trkpt>
      <trkpt lat="59.874393748228" lon="17.630716028585">
        <ele>9.4</ele>
        <time>2017-10-15T15:20:39Z</time>
      </trkpt>
      <trkpt lat="59.87444638656" lon="17.630703120459">
        <ele>9.4</ele>
        <time>2017-10-15T15:20:40Z</time>
      </trkpt>
      <trkpt lat="59.874492403191" lon="17.630690212333">
        <ele>9.4</ele>
        <time>2017-10-15T15:20:41Z</time>
      </trkpt>
      <trkpt lat="59.87454780755" lon="17.630671772153">
        <ele>9.4</ele>
        <time>2017-10-15T15:20:42Z</time>
      </trkpt>
      <trkpt lat="59.87459726076" lon="17.630654756896">
        <ele>9.6</ele>
        <time>2017-10-15T15:20:43Z</time>
      </trkpt>
      <trkpt lat="59.874643696486" lon="17.630643944245">
        <ele>9.6</ele>
        <time>2017-10-15T15:20:44Z</time>
      </trkpt>
      <trkpt lat="59.874687701461" lon="17.630631874309">
        <ele>9.8</ele>
        <time>2017-10-15T15:20:45Z</time>
      </trkpt>
      <trkpt lat="59.874725420011" lon="17.630614439957">
        <ele>10</ele>
        <time>2017-10-15T15:20:46Z</time>
      </trkpt>
      <trkpt lat="59.87475567867" lon="17.630564483833">
        <ele>10</ele>
        <time>2017-10-15T15:20:47Z</time>
      </trkpt>
      <trkpt lat="59.874771101366" lon="17.630486113068">
        <ele>10</ele>
        <time>2017-10-15T15:20:48Z</time>
      </trkpt>
      <trkpt lat="59.874775040859" lon="17.630402796982">
        <ele>10</ele>
        <time>2017-10-15T15:20:49Z</time>
      </trkpt>
      <trkpt lat="59.874770849909" lon="17.630318055973">
        <ele>10.2</ele>
        <time>2017-10-15T15:20:50Z</time>
      </trkpt>
      <trkpt lat="59.874763725294" lon="17.630223424322">
        <ele>10</ele>
        <time>2017-10-15T15:20:51Z</time>
      </trkpt>
      <trkpt lat="59.874754756661" lon="17.630119907857">
        <ele>10.2</ele>
        <time>2017-10-15T15:20:52Z</time>
      </trkpt>
      <trkpt lat="59.874746877675" lon="17.630030053889">
        <ele>10.2</ele>
        <time>2017-10-15T15:20:53Z</time>
      </trkpt>
      <trkpt lat="59.874732544626" lon="17.629927962347">
        <ele>10</ele>
        <time>2017-10-15T15:20:54Z</time>
      </trkpt>
      <trkpt lat="59.874721815794" lon="17.62983131904">
        <ele>10</ele>
        <time>2017-10-15T15:20:55Z</time>
      </trkpt>
      <trkpt lat="59.8747112546" lon="17.629746494212">
        <ele>10</ele>
        <time>2017-10-15T15:20:56Z</time>
      </trkpt>
      <trkpt lat="59.874698430293" lon="17.629658903357">
        <ele>10</ele>
        <time>2017-10-15T15:20:57Z</time>
      </trkpt>
      <trkpt lat="59.874690635126" lon="17.629570055217">
        <ele>10</ele>
        <time>2017-10-15T15:20:58Z</time>
      </trkpt>
      <trkpt lat="59.874701866872" lon="17.629492019728">
        <ele>10</ele>
        <time>2017-10-15T15:20:59Z</time>
      </trkpt>
      <trkpt lat="59.874734891558" lon="17.629428233469">
        <ele>10</ele>
        <time>2017-10-15T15:21:00Z</time>
      </trkpt>
      <trkpt lat="59.874777303972" lon="17.629422449958">
        <ele>9.8</ele>
        <time>2017-10-15T15:21:01Z</time>
      </trkpt>
      <trkpt lat="59.87482189568" lon="17.629456061377">
        <ele>10</ele>
        <time>2017-10-15T15:21:02Z</time>
      </trkpt>
      <trkpt lat="59.874866655026" lon="17.629494450479">
        <ele>10</ele>
        <time>2017-10-15T15:21:03Z</time>
      </trkpt>
      <trkpt lat="59.874914767132" lon="17.629532169029">
        <ele>10.2</ele>
        <time>2017-10-15T15:21:04Z</time>
      </trkpt>
      <trkpt lat="59.874961454315" lon="17.629565780448">
        <ele>10.2</ele>
        <time>2017-10-15T15:21:05Z</time>
      </trkpt>
      <trkpt lat="59.875014847018" lon="17.629592015795">
        <ele>10.4</ele>
        <time>2017-10-15T15:21:06Z</time>
      </trkpt>
      <trkpt lat="59.875071173386" lon="17.629606432663">
        <ele>10.4</ele>
        <time>2017-10-15T15:21:07Z</time>
      </trkpt>
      <trkpt lat="59.875128421763" lon="17.629611964717">
        <ele>10.4</ele>
        <time>2017-10-15T15:21:08Z</time>
      </trkpt>
      <trkpt lat="59.875183742303" lon="17.629612299993">
        <ele>10.4</ele>
        <time>2017-10-15T15:21:09Z</time>
      </trkpt>
      <trkpt lat="59.875237302644" lon="17.629603415179">
        <ele>10.4</ele>
        <time>2017-10-15T15:21:10Z</time>
      </trkpt>
      <trkpt lat="59.875287342587" lon="17.629585226456">
        <ele>10.4</ele>
        <time>2017-10-15T15:21:11Z</time>
      </trkpt>
      <trkpt lat="59.875344171869" lon="17.629565864267">
        <ele>10.4</ele>
        <time>2017-10-15T15:21:12Z</time>
      </trkpt>
      <trkpt lat="59.875401671703" lon="17.629552620865">
        <ele>10.4</ele>
        <time>2017-10-15T15:21:13Z</time>
      </trkpt>
      <trkpt lat="59.875456154053" lon="17.629543233137">
        <ele>10.6</ele>
        <time>2017-10-15T15:21:14Z</time>
      </trkpt>
      <trkpt lat="59.875510720222" lon="17.629523619491">
        <ele>10.6</ele>
        <time>2017-10-15T15:21:15Z</time>
      </trkpt>
      <trkpt lat="59.875561514536" lon="17.629509537899">
        <ele>10.8</ele>
        <time>2017-10-15T15:21:16Z</time>
      </trkpt>
      <trkpt lat="59.875614907239" lon="17.629492606461">
        <ele>10.8</ele>
        <time>2017-10-15T15:21:17Z</time>
      </trkpt>
      <trkpt lat="59.87567265853" lon="17.629473495729">
        <ele>11</ele>
        <time>2017-10-15T15:21:18Z</time>
      </trkpt>
      <trkpt lat="59.875727224699" lon="17.629464694734">
        <ele>11</ele>
        <time>2017-10-15T15:21:19Z</time>
      </trkpt>
      <trkpt lat="59.875782042325" lon="17.629447511839">
        <ele>11.2</ele>
        <time>2017-10-15T15:21:20Z</time>
      </trkpt>
      <trkpt lat="59.875831411716" lon="17.629431753867">
        <ele>11.4</ele>
        <time>2017-10-15T15:21:21Z</time>
      </trkpt>
      <trkpt lat="59.875884385324" lon="17.629409122737">
        <ele>11.4</ele>
        <time>2017-10-15T15:21:22Z</time>
      </trkpt>
      <trkpt lat="59.875934928181" lon="17.629385318141">
        <ele>11.6</ele>
        <time>2017-10-15T15:21:23Z</time>
      </trkpt>
      <trkpt lat="59.875990919273" lon="17.629353718378">
        <ele>11.8</ele>
        <time>2017-10-15T15:21:24Z</time>
      </trkpt>
      <trkpt lat="59.876042887053" lon="17.629321112787">
        <ele>12</ele>
        <time>2017-10-15T15:21:25Z</time>
      </trkpt>
      <trkpt lat="59.876094519557" lon="17.629290518852">
        <ele>12</ele>
        <time>2017-10-15T15:21:26Z</time>
      </trkpt>
      <trkpt lat="59.876150845925" lon="17.62925799708">
        <ele>12</ele>
        <time>2017-10-15T15:21:27Z</time>
      </trkpt>
      <trkpt lat="59.876210441234" lon="17.629222709281">
        <ele>12</ele>
        <time>2017-10-15T15:21:28Z</time>
      </trkpt>
      <trkpt lat="59.876262492833" lon="17.62919261826">
        <ele>12</ele>
        <time>2017-10-15T15:21:29Z</time>
      </trkpt>
      <trkpt lat="59.876323010151" lon="17.629158587746">
        <ele>11.8</ele>
        <time>2017-10-15T15:21:30Z</time>
      </trkpt>
      <trkpt lat="59.876376989587" lon="17.629128664363">
        <ele>11.8</ele>
        <time>2017-10-15T15:21:31Z</time>
      </trkpt>
      <trkpt lat="59.876436920172" lon="17.629094801487">
        <ele>11.6</ele>
        <time>2017-10-15T15:21:32Z</time>
      </trkpt>
      <trkpt lat="59.876494755282" lon="17.62906102243">
        <ele>11.6</ele>
        <time>2017-10-15T15:21:33Z</time>
      </trkpt>
      <trkpt lat="59.876550578736" lon="17.62902833302">
        <ele>11.6</ele>
        <time>2017-10-15T15:21:34Z</time>
      </trkpt>
      <trkpt lat="59.876603384706" lon="17.629002013854">
        <ele>11.6</ele>
        <time>2017-10-15T15:21:35Z</time>
      </trkpt>
      <trkpt lat="59.876660297807" lon="17.628970330272">
        <ele>11.4</ele>
        <time>2017-10-15T15:21:36Z</time>
      </trkpt>
      <trkpt lat="59.876722156229" lon="17.628933449912">
        <ele>11.6</ele>
        <time>2017-10-15T15:21:37Z</time>
      </trkpt>
      <trkpt lat="59.876778482597" lon="17.628895899">
        <ele>11.4</ele>
        <time>2017-10-15T15:21:38Z</time>
      </trkpt>
      <trkpt lat="59.876835479517" lon="17.628857426079">
        <ele>11.4</ele>
        <time>2017-10-15T15:21:39Z</time>
      </trkpt>
      <trkpt lat="59.876892560256" lon="17.628818031149">
        <ele>11.4</ele>
        <time>2017-10-15T15:21:40Z</time>
      </trkpt>
      <trkpt lat="59.876941929647" lon="17.62878861068">
        <ele>11.4</ele>
        <time>2017-10-15T15:21:41Z</time>
      </trkpt>
      <trkpt lat="59.877004458621" lon="17.62875424489">
        <ele>11.2</ele>
        <time>2017-10-15T15:21:42Z</time>
      </trkpt>
      <trkpt lat="59.877063802473" lon="17.628714430865">
        <ele>11.2</ele>
        <time>2017-10-15T15:21:43Z</time>
      </trkpt>
      <trkpt lat="59.877119961203" lon="17.62867042589">
        <ele>11.2</ele>
        <time>2017-10-15T15:21:44Z</time>
      </trkpt>
      <trkpt lat="59.877177377218" lon="17.62863941286">
        <ele>11.2</ele>
        <time>2017-10-15T15:21:45Z</time>
      </trkpt>
      <trkpt lat="59.877231775749" lon="17.628623906345">
        <ele>11.2</ele>
        <time>2017-10-15T15:21:46Z</time>
      </trkpt>
      <trkpt lat="59.877289275583" lon="17.628603538328">
        <ele>11.2</ele>
        <time>2017-10-15T15:21:47Z</time>
      </trkpt>
      <trkpt lat="59.877349206168" lon="17.628572106203">
        <ele>11.2</ele>
        <time>2017-10-15T15:21:48Z</time>
      </trkpt>
      <trkpt lat="59.877404610527" lon="17.628535728757">
        <ele>11.2</ele>
        <time>2017-10-15T15:21:49Z</time>
      </trkpt>
      <trkpt lat="59.877458757601" lon="17.628501530605">
        <ele>11.2</ele>
        <time>2017-10-15T15:21:50Z</time>
      </trkpt>
      <trkpt lat="59.877510725381" lon="17.628466578082">
        <ele>11.2</ele>
        <time>2017-10-15T15:21:51Z</time>
      </trkpt>
      <trkpt lat="59.877568057577" lon="17.628430535912">
        <ele>11.2</ele>
        <time>2017-10-15T15:21:52Z</time>
      </trkpt>
      <trkpt lat="59.8776197739" lon="17.628399606701">
        <ele>11.2</ele>
        <time>2017-10-15T15:21:53Z</time>
      </trkpt>
      <trkpt lat="59.877678195743" lon="17.628362139608">
        <ele>11.2</ele>
        <time>2017-10-15T15:21:54Z</time>
      </trkpt>
      <trkpt lat="59.877732342817" lon="17.62832844437">
        <ele>11.4</ele>
        <time>2017-10-15T15:21:55Z</time>
      </trkpt>
      <trkpt lat="59.877782969493" lon="17.628299610634">
        <ele>11.4</ele>
        <time>2017-10-15T15:21:56Z</time>
      </trkpt>
      <trkpt lat="59.877837284205" lon="17.628268429966">
        <ele>11.4</ele>
        <time>2017-10-15T15:21:57Z</time>
      </trkpt>
      <trkpt lat="59.877895286953" lon="17.628230543778">
        <ele>11.4</ele>
        <time>2017-10-15T15:21:58Z</time>
      </trkpt>
      <trkpt lat="59.877944069611" lon="17.628193328142">
        <ele>11.4</ele>
        <time>2017-10-15T15:21:59Z</time>
      </trkpt>
      <trkpt lat="59.878003245825" lon="17.628156363963">
        <ele>11.4</ele>
        <time>2017-10-15T15:22:00Z</time>
      </trkpt>
      <trkpt lat="59.878053872501" lon="17.628127362589">
        <ele>11.4</ele>
        <time>2017-10-15T15:22:01Z</time>
      </trkpt>
      <trkpt lat="59.878112545801" lon="17.628093583532">
        <ele>11.4</ele>
        <time>2017-10-15T15:22:02Z</time>
      </trkpt>
      <trkpt lat="59.878164178305" lon="17.628059217742">
        <ele>11.4</ele>
        <time>2017-10-15T15:22:03Z</time>
      </trkpt>
      <trkpt lat="59.87821572699" lon="17.628021331554">
        <ele>11.6</ele>
        <time>2017-10-15T15:22:04Z</time>
      </trkpt>
      <trkpt lat="59.87826434201" lon="17.62799233018">
        <ele>11.6</ele>
        <time>2017-10-15T15:22:05Z</time>
      </trkpt>
      <trkpt lat="59.878316561247" lon="17.627961987702">
        <ele>11.8</ele>
        <time>2017-10-15T15:22:06Z</time>
      </trkpt>
      <trkpt lat="59.878372719977" lon="17.627926448446">
        <ele>11.8</ele>
        <time>2017-10-15T15:22:07Z</time>
      </trkpt>
      <trkpt lat="59.878424268662" lon="17.627893172303">
        <ele>11.8</ele>
        <time>2017-10-15T15:22:08Z</time>
      </trkpt>
      <trkpt lat="59.87847556589" lon="17.627854783201">
        <ele>12</ele>
        <time>2017-10-15T15:22:09Z</time>
      </trkpt>
      <trkpt lat="59.878527785127" lon="17.627820333592">
        <ele>12</ele>
        <time>2017-10-15T15:22:10Z</time>
      </trkpt>
      <trkpt lat="59.878573382663" lon="17.627794014426">
        <ele>12.2</ele>
        <time>2017-10-15T15:22:11Z</time>
      </trkpt>
      <trkpt lat="59.878631301592" lon="17.627756463514">
        <ele>12.4</ele>
        <time>2017-10-15T15:22:12Z</time>
      </trkpt>
      <trkpt lat="59.87867924606" lon="17.627730060529">
        <ele>12.4</ele>
        <time>2017-10-15T15:22:13Z</time>
      </trkpt>
      <trkpt lat="59.878733309315" lon="17.627707010304">
        <ele>12.6</ele>
        <time>2017-10-15T15:22:14Z</time>
      </trkpt>
      <trkpt lat="59.878783433077" lon="17.627672812152">
        <ele>12.6</ele>
        <time>2017-10-15T15:22:15Z</time>
      </trkpt>
      <trkpt lat="59.878833221563" lon="17.627640374199">
        <ele>12.6</ele>
        <time>2017-10-15T15:22:16Z</time>
      </trkpt>
      <trkpt lat="59.878883429144" lon="17.627595531034">
        <ele>12.6</ele>
        <time>2017-10-15T15:22:17Z</time>
      </trkpt>
      <trkpt lat="59.87893489401" lon="17.627553537715">
        <ele>12.8</ele>
        <time>2017-10-15T15:22:18Z</time>
      </trkpt>
      <trkpt lat="59.878984682496" lon="17.627518501373">
        <ele>12.8</ele>
        <time>2017-10-15T15:22:19Z</time>
      </trkpt>
      <trkpt lat="59.879029441842" lon="17.627487991257">
        <ele>12.8</ele>
        <time>2017-10-15T15:22:20Z</time>
      </trkpt>
      <trkpt lat="59.879072776265" lon="17.627460247168">
        <ele>12.8</ele>
        <time>2017-10-15T15:22:21Z</time>
      </trkpt>
      <trkpt lat="59.879119547267" lon="17.627426300473">
        <ele>12.8</ele>
        <time>2017-10-15T15:22:22Z</time>
      </trkpt>
      <trkpt lat="59.87915869074" lon="17.627394952167">
        <ele>12.8</ele>
        <time>2017-10-15T15:22:23Z</time>
      </trkpt>
      <trkpt lat="59.879200013507" lon="17.627362765671">
        <ele>13</ele>
        <time>2017-10-15T15:22:24Z</time>
      </trkpt>
      <trkpt lat="59.879242342102" lon="17.627320772352">
        <ele>13</ele>
        <time>2017-10-15T15:22:25Z</time>
      </trkpt>
      <trkpt lat="59.879285425068" lon="17.627294788462">
        <ele>13.2</ele>
        <time>2017-10-15T15:22:26Z</time>
      </trkpt>
      <trkpt lat="59.879334207726" lon="17.627266206183">
        <ele>13.4</ele>
        <time>2017-10-15T15:22:27Z</time>
      </trkpt>
      <trkpt lat="59.8793883548" lon="17.627231588936">
        <ele>13.6</ele>
        <time>2017-10-15T15:22:28Z</time>
      </trkpt>
      <trkpt lat="59.879435544897" lon="17.627194708576">
        <ele>13.6</ele>
        <time>2017-10-15T15:22:29Z</time>
      </trkpt>
      <trkpt lat="59.879490027247" lon="17.627157325302">
        <ele>13.6</ele>
        <time>2017-10-15T15:22:30Z</time>
      </trkpt>
      <trkpt lat="59.879537468801" lon="17.627125390263">
        <ele>13.6</ele>
        <time>2017-10-15T15:22:31Z</time>
      </trkpt>
      <trkpt lat="59.879590526228" lon="17.627083899858">
        <ele>13.6</ele>
        <time>2017-10-15T15:22:32Z</time>
      </trkpt>
      <trkpt lat="59.879641571999" lon="17.627046097489">
        <ele>13.8</ele>
        <time>2017-10-15T15:22:33Z</time>
      </trkpt>
      <trkpt lat="59.879693288322" lon="17.627010558233">
        <ele>13.8</ele>
        <time>2017-10-15T15:22:34Z</time>
      </trkpt>
      <trkpt lat="59.879738215306" lon="17.626972336769">
        <ele>13.8</ele>
        <time>2017-10-15T15:22:35Z</time>
      </trkpt>
      <trkpt lat="59.879786578869" lon="17.626932690382">
        <ele>13.8</ele>
        <time>2017-10-15T15:22:36Z</time>
      </trkpt>
      <trkpt lat="59.879839217201" lon="17.626895558565">
        <ele>13.8</ele>
        <time>2017-10-15T15:22:37Z</time>
      </trkpt>
      <trkpt lat="59.879888921868" lon="17.626851888866">
        <ele>13.8</ele>
        <time>2017-10-15T15:22:38Z</time>
      </trkpt>
      <trkpt lat="59.879940554372" lon="17.626806375149">
        <ele>13.6</ele>
        <time>2017-10-15T15:22:39Z</time>
      </trkpt>
      <trkpt lat="59.879992270695" lon="17.626769578608">
        <ele>13.6</ele>
        <time>2017-10-15T15:22:40Z</time>
      </trkpt>
      <trkpt lat="59.88003711386" lon="17.626743091804">
        <ele>13.8</ele>
        <time>2017-10-15T15:22:41Z</time>
      </trkpt>
      <trkpt lat="59.880092266762" lon="17.626701769037">
        <ele>13.8</ele>
        <time>2017-10-15T15:22:42Z</time>
      </trkpt>
      <trkpt lat="59.880145827103" lon="17.626659524261">
        <ele>13.8</ele>
        <time>2017-10-15T15:22:43Z</time>
      </trkpt>
      <trkpt lat="59.880196453779" lon="17.626618201494">
        <ele>13.8</ele>
        <time>2017-10-15T15:22:44Z</time>
      </trkpt>
      <trkpt lat="59.88024498498" lon="17.626560031108">
        <ele>13.8</ele>
        <time>2017-10-15T15:22:45Z</time>
      </trkpt>
      <trkpt lat="59.880292510353" lon="17.626497166858">
        <ele>14</ele>
        <time>2017-10-15T15:22:46Z</time>
      </trkpt>
      <trkpt lat="59.880345400142" lon="17.626429022011">
        <ele>14</ele>
        <time>2017-10-15T15:22:47Z</time>
      </trkpt>
      <trkpt lat="59.880407845297" lon="17.626371857453">
        <ele>13.8</ele>
        <time>2017-10-15T15:22:48Z</time>
      </trkpt>
      <trkpt lat="59.880475990144" lon="17.626337575482">
        <ele>13.6</ele>
        <time>2017-10-15T15:22:49Z</time>
      </trkpt>
      <trkpt lat="59.88054757157" lon="17.626296755629">
        <ele>13.2</ele>
        <time>2017-10-15T15:22:50Z</time>
      </trkpt>
      <trkpt lat="59.880932468418" lon="17.626228694601">
        <ele>13.2</ele>
        <time>2017-10-15T15:22:57Z</time>
      </trkpt>
      <trkpt lat="59.88099181227" lon="17.626249900808">
        <ele>13.2</ele>
        <time>2017-10-15T15:22:58Z</time>
      </trkpt>
      <trkpt lat="59.881034224684" lon="17.626243279107">
        <ele>13.2</ele>
        <time>2017-10-15T15:22:59Z</time>
      </trkpt>
      <trkpt lat="59.881079738401" lon="17.626205476738">
        <ele>13.4</ele>
        <time>2017-10-15T15:23:00Z</time>
      </trkpt>
      <trkpt lat="59.881103375359" lon="17.626128949991">
        <ele>13.6</ele>
        <time>2017-10-15T15:23:01Z</time>
      </trkpt>
      <trkpt lat="59.881126509403" lon="17.626046388276">
        <ele>13.6</ele>
        <time>2017-10-15T15:23:02Z</time>
      </trkpt>
      <trkpt lat="59.881142267375" lon="17.625980255085">
        <ele>14</ele>
        <time>2017-10-15T15:23:03Z</time>
      </trkpt>
      <trkpt lat="59.881154085854" lon="17.625912194057">
        <ele>14.2</ele>
        <time>2017-10-15T15:23:04Z</time>
      </trkpt>
      <trkpt lat="59.881158863537" lon="17.625865925969">
        <ele>14.2</ele>
        <time>2017-10-15T15:23:05Z</time>
      </trkpt>
      <trkpt lat="59.881171017292" lon="17.625759140563">
        <ele>14.6</ele>
        <time>2017-10-15T15:23:06Z</time>
      </trkpt>
      <trkpt lat="59.881175878794" lon="17.625669118957">
        <ele>15</ele>
        <time>2017-10-15T15:23:07Z</time>
      </trkpt>
      <trkpt lat="59.881179818287" lon="17.625574319668">
        <ele>15.2</ele>
        <time>2017-10-15T15:23:08Z</time>
      </trkpt>
      <trkpt lat="59.881196498268" lon="17.625493769609">
        <ele>15.6</ele>
        <time>2017-10-15T15:23:09Z</time>
      </trkpt>
      <trkpt lat="59.881210496041" lon="17.625410956437">
        <ele>15.8</ele>
        <time>2017-10-15T15:23:10Z</time>
      </trkpt>
      <trkpt lat="59.881216614828" lon="17.625326383066">
        <ele>16</ele>
        <time>2017-10-15T15:23:11Z</time>
      </trkpt>
      <trkpt lat="59.881229942049" lon="17.625225967904">
        <ele>16</ele>
        <time>2017-10-15T15:23:12Z</time>
      </trkpt>
      <trkpt lat="59.88124159289" lon="17.625124966009">
        <ele>16</ele>
        <time>2017-10-15T15:23:13Z</time>
      </trkpt>
      <trkpt lat="59.881254501016" lon="17.625028825616">
        <ele>16</ele>
        <time>2017-10-15T15:23:14Z</time>
      </trkpt>
      <trkpt lat="59.881273947024" lon="17.62494634772">
        <ele>16</ele>
        <time>2017-10-15T15:23:15Z</time>
      </trkpt>
      <trkpt lat="59.881287274245" lon="17.624865797661">
        <ele>16</ele>
        <time>2017-10-15T15:23:16Z</time>
      </trkpt>
      <trkpt lat="59.881299008905" lon="17.624761275368">
        <ele>16.2</ele>
        <time>2017-10-15T15:23:17Z</time>
      </trkpt>
      <trkpt lat="59.881314347782" lon="17.624657675084">
        <ele>16.2</ele>
        <time>2017-10-15T15:23:18Z</time>
      </trkpt>
      <trkpt lat="59.881329351383" lon="17.624555918818">
        <ele>16.2</ele>
        <time>2017-10-15T15:23:19Z</time>
      </trkpt>
      <trkpt lat="59.881348545934" lon="17.624461706262">
        <ele>16.4</ele>
        <time>2017-10-15T15:23:20Z</time>
      </trkpt>
      <trkpt lat="59.881365477372" lon="17.624372941941">
        <ele>16.4</ele>
        <time>2017-10-15T15:23:21Z</time>
      </trkpt>
      <trkpt lat="59.881386013027" lon="17.624276130996">
        <ele>16.4</ele>
        <time>2017-10-15T15:23:22Z</time>
      </trkpt>
      <trkpt lat="59.881403782655" lon="17.624185103562">
        <ele>16.4</ele>
        <time>2017-10-15T15:23:23Z</time>
      </trkpt>
      <trkpt lat="59.881422725749" lon="17.624112600127">
        <ele>16.4</ele>
        <time>2017-10-15T15:23:24Z</time>
      </trkpt>
      <trkpt lat="59.881444853965" lon="17.624010005671">
        <ele>16.4</ele>
        <time>2017-10-15T15:23:25Z</time>
      </trkpt>
      <trkpt lat="59.881463126507" lon="17.623929120336">
        <ele>16.6</ele>
        <time>2017-10-15T15:23:26Z</time>
      </trkpt>
      <trkpt lat="59.881482069601" lon="17.623843624956">
        <ele>16.6</ele>
        <time>2017-10-15T15:23:27Z</time>
      </trkpt>
      <trkpt lat="59.881501180333" lon="17.623752262246">
        <ele>16.6</ele>
        <time>2017-10-15T15:23:28Z</time>
      </trkpt>
      <trkpt lat="59.881516854486" lon="17.623673053291">
        <ele>16.8</ele>
        <time>2017-10-15T15:23:29Z</time>
      </trkpt>
      <trkpt lat="59.881532612458" lon="17.62358093621">
        <ele>17</ele>
        <time>2017-10-15T15:23:30Z</time>
      </trkpt>
      <trkpt lat="59.881545520584" lon="17.623500805246">
        <ele>17</ele>
        <time>2017-10-15T15:23:31Z</time>
      </trkpt>
      <trkpt lat="59.881558177253" lon="17.623409777812">
        <ele>17.2</ele>
        <time>2017-10-15T15:23:32Z</time>
      </trkpt>
      <trkpt lat="59.881565218049" lon="17.623310619935">
        <ele>17.4</ele>
        <time>2017-10-15T15:23:33Z</time>
      </trkpt>
      <trkpt lat="59.881570750103" lon="17.623210791506">
        <ele>17.4</ele>
        <time>2017-10-15T15:23:34Z</time>
      </trkpt>
      <trkpt lat="59.881569241361" lon="17.623118925882">
        <ele>17.6</ele>
        <time>2017-10-15T15:23:35Z</time>
      </trkpt>
      <trkpt lat="59.881565553325" lon="17.623017756349">
        <ele>17.6</ele>
        <time>2017-10-15T15:23:36Z</time>
      </trkpt>
      <trkpt lat="59.881560188909" lon="17.622904768337">
        <ele>17.6</ele>
        <time>2017-10-15T15:23:37Z</time>
      </trkpt>
      <trkpt lat="59.881551052638" lon="17.622799491673">
        <ele>17.6</ele>
        <time>2017-10-15T15:23:38Z</time>
      </trkpt>
      <trkpt lat="59.881536300494" lon="17.622696981036">
        <ele>17.6</ele>
        <time>2017-10-15T15:23:39Z</time>
      </trkpt>
      <trkpt lat="59.881518279409" lon="17.622593213114">
        <ele>17.6</ele>
        <time>2017-10-15T15:23:40Z</time>
      </trkpt>
      <trkpt lat="59.881495983555" lon="17.622503275327">
        <ele>17.4</ele>
        <time>2017-10-15T15:23:41Z</time>
      </trkpt>
      <trkpt lat="59.881465976353" lon="17.622387437469">
        <ele>17.2</ele>
        <time>2017-10-15T15:23:42Z</time>
      </trkpt>
      <trkpt lat="59.881435047142" lon="17.622275120009">
        <ele>17</ele>
        <time>2017-10-15T15:23:43Z</time>
      </trkpt>
      <trkpt lat="59.881406464863" lon="17.622161796721">
        <ele>16.8</ele>
        <time>2017-10-15T15:23:44Z</time>
      </trkpt>
      <trkpt lat="59.881371931435" lon="17.62203699023">
        <ele>16.4</ele>
        <time>2017-10-15T15:23:45Z</time>
      </trkpt>
      <trkpt lat="59.881344606441" lon="17.621936658887">
        <ele>16</ele>
        <time>2017-10-15T15:23:46Z</time>
      </trkpt>
      <trkpt lat="59.881286771331" lon="17.621727530482">
        <ele>15.4</ele>
        <time>2017-10-15T15:23:48Z</time>
      </trkpt>
      <trkpt lat="59.881246957306" lon="17.621647399518">
        <ele>15.4</ele>
        <time>2017-10-15T15:23:49Z</time>
      </trkpt>
      <trkpt lat="59.881217117742" lon="17.621562909966">
        <ele>15.2</ele>
        <time>2017-10-15T15:23:50Z</time>
      </trkpt>
      <trkpt lat="59.881185685617" lon="17.621477666043">
        <ele>15.2</ele>
        <time>2017-10-15T15:23:51Z</time>
      </trkpt>
      <trkpt lat="59.881146625963" lon="17.621394182319">
        <ele>15.2</ele>
        <time>2017-10-15T15:23:52Z</time>
      </trkpt>
      <trkpt lat="59.881110248517" lon="17.621342046901">
        <ele>15.2</ele>
        <time>2017-10-15T15:23:53Z</time>
      </trkpt>
      <trkpt lat="59.881065237714" lon="17.621285217619">
        <ele>15.2</ele>
        <time>2017-10-15T15:23:54Z</time>
      </trkpt>
      <trkpt lat="59.881019807816" lon="17.62123903335">
        <ele>15.4</ele>
        <time>2017-10-15T15:23:55Z</time>
      </trkpt>
      <trkpt lat="59.88097672485" lon="17.621185975923">
        <ele>15.4</ele>
        <time>2017-10-15T15:23:56Z</time>
      </trkpt>
      <trkpt lat="59.8809306244" lon="17.621136103618">
        <ele>15.6</ele>
        <time>2017-10-15T15:23:57Z</time>
      </trkpt>
      <trkpt lat="59.880881255009" lon="17.621090506082">
        <ele>15.6</ele>
        <time>2017-10-15T15:23:58Z</time>
      </trkpt>
      <trkpt lat="59.880839345509" lon="17.621051781704">
        <ele>15.8</ele>
        <time>2017-10-15T15:23:59Z</time>
      </trkpt>
      <trkpt lat="59.880794921439" lon="17.621000316838">
        <ele>16.2</ele>
        <time>2017-10-15T15:24:00Z</time>
      </trkpt>
      <trkpt lat="59.880754520681" lon="17.620949522524">
        <ele>16.4</ele>
        <time>2017-10-15T15:24:01Z</time>
      </trkpt>
      <trkpt lat="59.880711689172" lon="17.620881210039">
        <ele>16.6</ele>
        <time>2017-10-15T15:24:02Z</time>
      </trkpt>
      <trkpt lat="59.880669276758" lon="17.620822536739">
        <ele>17</ele>
        <time>2017-10-15T15:24:03Z</time>
      </trkpt>
      <trkpt lat="59.880627618715" lon="17.620769814588">
        <ele>17.2</ele>
        <time>2017-10-15T15:24:04Z</time>
      </trkpt>
      <trkpt lat="59.880592582373" lon="17.620718936455">
        <ele>17.2</ele>
        <time>2017-10-15T15:24:05Z</time>
      </trkpt>
      <trkpt lat="59.880564083913" lon="17.62064224207">
        <ele>17.2</ele>
        <time>2017-10-15T15:24:06Z</time>
      </trkpt>
      <trkpt lat="59.880535166358" lon="17.620552052826">
        <ele>16.8</ele>
        <time>2017-10-15T15:24:07Z</time>
      </trkpt>
      <trkpt lat="59.880512116133" lon="17.620466892722">
        <ele>16.6</ele>
        <time>2017-10-15T15:24:08Z</time>
      </trkpt>
      <trkpt lat="59.880492502487" lon="17.620370165596">
        <ele>16.6</ele>
        <time>2017-10-15T15:24:09Z</time>
      </trkpt>
      <trkpt lat="59.880471044823" lon="17.620274779574">
        <ele>16.2</ele>
        <time>2017-10-15T15:24:10Z</time>
      </trkpt>
      <trkpt lat="59.880453275195" lon="17.6202038687">
        <ele>16.2</ele>
        <time>2017-10-15T15:24:11Z</time>
      </trkpt>
      <trkpt lat="59.880432488083" lon="17.620102615348">
        <ele>16.2</ele>
        <time>2017-10-15T15:24:12Z</time>
      </trkpt>
      <trkpt lat="59.880411700971" lon="17.620000942901">
        <ele>16.6</ele>
        <time>2017-10-15T15:24:13Z</time>
      </trkpt>
      <trkpt lat="59.880393009334" lon="17.619908909639">
        <ele>16.6</ele>
        <time>2017-10-15T15:24:14Z</time>
      </trkpt>
      <trkpt lat="59.88037406624" lon="17.61981159578">
        <ele>16.6</ele>
        <time>2017-10-15T15:24:15Z</time>
      </trkpt>
      <trkpt lat="59.880352189481" lon="17.61972023307">
        <ele>16.8</ele>
        <time>2017-10-15T15:24:16Z</time>
      </trkpt>
      <trkpt lat="59.880328217247" lon="17.619619482632">
        <ele>16.8</ele>
        <time>2017-10-15T15:24:17Z</time>
      </trkpt>
      <trkpt lat="59.880303742099" lon="17.619511356122">
        <ele>16.8</ele>
        <time>2017-10-15T15:24:18Z</time>
      </trkpt>
      <trkpt lat="59.880282452073" lon="17.619406414734">
        <ele>16.8</ele>
        <time>2017-10-15T15:24:19Z</time>
      </trkpt>
      <trkpt lat="59.880262670789" lon="17.619302227717">
        <ele>16.8</ele>
        <time>2017-10-15T15:24:20Z</time>
      </trkpt>
      <trkpt lat="59.880240710211" lon="17.619206338781">
        <ele>16.8</ele>
        <time>2017-10-15T15:24:21Z</time>
      </trkpt>
      <trkpt lat="59.880215899787" lon="17.619103744325">
        <ele>16.8</ele>
        <time>2017-10-15T15:24:22Z</time>
      </trkpt>
      <trkpt lat="59.880194777399" lon="17.619011291968">
        <ele>16.8</ele>
        <time>2017-10-15T15:24:23Z</time>
      </trkpt>
      <trkpt lat="59.880173822649" lon="17.618898136318">
        <ele>16.8</ele>
        <time>2017-10-15T15:24:24Z</time>
      </trkpt>
      <trkpt lat="59.88014943132" lon="17.61879403312">
        <ele>16.8</ele>
        <time>2017-10-15T15:24:25Z</time>
      </trkpt>
      <trkpt lat="59.880125794362" lon="17.618696886899">
        <ele>16.8</ele>
        <time>2017-10-15T15:24:26Z</time>
      </trkpt>
      <trkpt lat="59.880102744137" lon="17.618590604407">
        <ele>16.8</ele>
        <time>2017-10-15T15:24:27Z</time>
      </trkpt>
      <trkpt lat="59.880077766075" lon="17.618475688558">
        <ele>16.8</ele>
        <time>2017-10-15T15:24:28Z</time>
      </trkpt>
      <trkpt lat="59.880062091922" lon="17.61840762753">
        <ele>16.8</ele>
        <time>2017-10-15T15:24:29Z</time>
      </trkpt>
      <trkpt lat="59.88002957015" lon="17.618258848805">
        <ele>16.8</ele>
        <time>2017-10-15T15:24:30Z</time>
      </trkpt>
      <trkpt lat="59.880007441934" lon="17.618156002892">
        <ele>16.6</ele>
        <time>2017-10-15T15:24:31Z</time>
      </trkpt>
      <trkpt lat="59.8799834697" lon="17.618037566645">
        <ele>16.6</ele>
        <time>2017-10-15T15:24:32Z</time>
      </trkpt>
      <trkpt lat="59.879961928217" lon="17.617926674108">
        <ele>16.4</ele>
        <time>2017-10-15T15:24:33Z</time>
      </trkpt>
      <trkpt lat="59.879939380906" lon="17.617811925897">
        <ele>16.2</ele>
        <time>2017-10-15T15:24:34Z</time>
      </trkpt>
      <trkpt lat="59.879917587966" lon="17.617710085812">
        <ele>16</ele>
        <time>2017-10-15T15:24:35Z</time>
      </trkpt>
      <trkpt lat="59.879894370103" lon="17.617598941818">
        <ele>16</ele>
        <time>2017-10-15T15:24:36Z</time>
      </trkpt>
      <trkpt lat="59.879871822792" lon="17.617476063164">
        <ele>15.8</ele>
        <time>2017-10-15T15:24:37Z</time>
      </trkpt>
      <trkpt lat="59.879855310449" lon="17.617364500075">
        <ele>15.8</ele>
        <time>2017-10-15T15:24:38Z</time>
      </trkpt>
      <trkpt lat="59.879836618812" lon="17.617250170959">
        <ele>15.8</ele>
        <time>2017-10-15T15:24:39Z</time>
      </trkpt>
      <trkpt lat="59.87981247894" lon="17.617147660322">
        <ele>15.6</ele>
        <time>2017-10-15T15:24:40Z</time>
      </trkpt>
      <trkpt lat="59.879790602181" lon="17.617065769159">
        <ele>15.4</ele>
        <time>2017-10-15T15:24:41Z</time>
      </trkpt>
      <trkpt lat="59.879761181712" lon="17.616959067572">
        <ele>15.4</ele>
        <time>2017-10-15T15:24:42Z</time>
      </trkpt>
      <trkpt lat="59.879734024356" lon="17.616860161152">
        <ele>15.4</ele>
        <time>2017-10-15T15:24:43Z</time>
      </trkpt>
      <trkpt lat="59.879709130113" lon="17.616758740162">
        <ele>15.4</ele>
        <time>2017-10-15T15:24:44Z</time>
      </trkpt>
      <trkpt lat="59.879683565318" lon="17.616662935045">
        <ele>15.4</ele>
        <time>2017-10-15T15:24:45Z</time>
      </trkpt>
      <trkpt lat="59.879665208957" lon="17.616578026398">
        <ele>15.4</ele>
        <time>2017-10-15T15:24:46Z</time>
      </trkpt>
      <trkpt lat="59.879650540632" lon="17.616506780248">
        <ele>15.4</ele>
        <time>2017-10-15T15:24:47Z</time>
      </trkpt>
      <trkpt lat="59.879635034117" lon="17.616440730876">
        <ele>15.4</ele>
        <time>2017-10-15T15:24:48Z</time>
      </trkpt>
      <trkpt lat="59.87961969524" lon="17.616386499983">
        <ele>15.2</ele>
        <time>2017-10-15T15:24:49Z</time>
      </trkpt>
      <trkpt lat="59.879605529829" lon="17.616341740637">
        <ele>15.2</ele>
        <time>2017-10-15T15:24:50Z</time>
      </trkpt>
      <trkpt lat="59.879592621703" lon="17.616291113961">
        <ele>15</ele>
        <time>2017-10-15T15:24:51Z</time>
      </trkpt>
      <trkpt lat="59.87957610936" lon="17.616229087901">
        <ele>15</ele>
        <time>2017-10-15T15:24:52Z</time>
      </trkpt>
      <trkpt lat="59.879558675008" lon="17.616163457624">
        <ele>15</ele>
        <time>2017-10-15T15:24:53Z</time>
      </trkpt>
      <trkpt lat="59.879540737742" lon="17.616075950588">
        <ele>15.2</ele>
        <time>2017-10-15T15:24:54Z</time>
      </trkpt>
      <trkpt lat="59.879520202087" lon="17.615985342249">
        <ele>15.4</ele>
        <time>2017-10-15T15:24:55Z</time>
      </trkpt>
      <trkpt lat="59.87949983407" lon="17.615893979539">
        <ele>15.6</ele>
        <time>2017-10-15T15:24:56Z</time>
      </trkpt>
      <trkpt lat="59.879475861836" lon="17.615797336232">
        <ele>15.6</ele>
        <time>2017-10-15T15:24:57Z</time>
      </trkpt>
      <trkpt lat="59.879453146887" lon="17.615688790627">
        <ele>15.6</ele>
        <time>2017-10-15T15:24:58Z</time>
      </trkpt>
      <trkpt lat="59.879433868517" lon="17.615597595555">
        <ele>15.6</ele>
        <time>2017-10-15T15:24:59Z</time>
      </trkpt>
      <trkpt lat="59.879408136084" lon="17.615483685534">
        <ele>15.4</ele>
        <time>2017-10-15T15:25:00Z</time>
      </trkpt>
      <trkpt lat="59.879385924049" lon="17.615387126046">
        <ele>15.2</ele>
        <time>2017-10-15T15:25:01Z</time>
      </trkpt>
      <trkpt lat="59.879357593227" lon="17.615267851609">
        <ele>15.2</ele>
        <time>2017-10-15T15:25:02Z</time>
      </trkpt>
      <trkpt lat="59.879334040088" lon="17.615157797262">
        <ele>15</ele>
        <time>2017-10-15T15:25:03Z</time>
      </trkpt>
      <trkpt lat="59.879311660415" lon="17.61503810373">
        <ele>15</ele>
        <time>2017-10-15T15:25:04Z</time>
      </trkpt>
      <trkpt lat="59.879290621846" lon="17.614940538414">
        <ele>14.8</ele>
        <time>2017-10-15T15:25:05Z</time>
      </trkpt>
      <trkpt lat="59.87925927354" lon="17.614819084683">
        <ele>14.6</ele>
        <time>2017-10-15T15:25:06Z</time>
      </trkpt>
      <trkpt lat="59.879234044021" lon="17.614704755567">
        <ele>14.6</ele>
        <time>2017-10-15T15:25:07Z</time>
      </trkpt>
      <trkpt lat="59.879206132294" lon="17.614585984044">
        <ele>14.4</ele>
        <time>2017-10-15T15:25:08Z</time>
      </trkpt>
      <trkpt lat="59.879177047101" lon="17.614471152014">
        <ele>14.2</ele>
        <time>2017-10-15T15:25:09Z</time>
      </trkpt>
      <trkpt lat="59.879148464822" lon="17.614359086011">
        <ele>14</ele>
        <time>2017-10-15T15:25:10Z</time>
      </trkpt>
      <trkpt lat="59.879125414597" lon="17.614256240098">
        <ele>14</ele>
        <time>2017-10-15T15:25:11Z</time>
      </trkpt>
      <trkpt lat="59.879094820662" lon="17.614129924865">
        <ele>13.8</ele>
        <time>2017-10-15T15:25:12Z</time>
      </trkpt>
      <trkpt lat="59.879064478184" lon="17.614007046211">
        <ele>13.8</ele>
        <time>2017-10-15T15:25:13Z</time>
      </trkpt>
      <trkpt lat="59.879038745751" lon="17.613897913873">
        <ele>13.6</ele>
        <time>2017-10-15T15:25:14Z</time>
      </trkpt>
      <trkpt lat="59.879015863164" lon="17.613780483454">
        <ele>13.6</ele>
        <time>2017-10-15T15:25:15Z</time>
      </trkpt>
      <trkpt lat="59.878988873446" lon="17.613677386084">
        <ele>13.4</ele>
        <time>2017-10-15T15:25:16Z</time>
      </trkpt>
      <trkpt lat="59.878960542624" lon="17.613571019773">
        <ele>13.4</ele>
        <time>2017-10-15T15:25:17Z</time>
      </trkpt>
      <trkpt lat="59.878930200146" lon="17.613451577698">
        <ele>13.4</ele>
        <time>2017-10-15T15:25:18Z</time>
      </trkpt>
      <trkpt lat="59.878899187116" lon="17.613348396509">
        <ele>13.6</ele>
        <time>2017-10-15T15:25:19Z</time>
      </trkpt>
      <trkpt lat="59.878867252077" lon="17.613246304967">
        <ele>13.6</ele>
        <time>2017-10-15T15:25:20Z</time>
      </trkpt>
      <trkpt lat="59.878837161056" lon="17.613150164574">
        <ele>13.8</ele>
        <time>2017-10-15T15:25:21Z</time>
      </trkpt>
      <trkpt lat="59.878802124714" lon="17.613041870426">
        <ele>13.8</ele>
        <time>2017-10-15T15:25:22Z</time>
      </trkpt>
      <trkpt lat="59.878772704245" lon="17.612944808024">
        <ele>13.8</ele>
        <time>2017-10-15T15:25:23Z</time>
      </trkpt>
      <trkpt lat="59.878738841369" lon="17.612835256591">
        <ele>13.8</ele>
        <time>2017-10-15T15:25:24Z</time>
      </trkpt>
      <trkpt lat="59.878707493063" lon="17.6127355958">
        <ele>13.6</ele>
        <time>2017-10-15T15:25:25Z</time>
      </trkpt>
      <trkpt lat="59.878677234404" lon="17.612635599733">
        <ele>13.6</ele>
        <time>2017-10-15T15:25:26Z</time>
      </trkpt>
      <trkpt lat="59.878646221374" lon="17.612529820155">
        <ele>13.6</ele>
        <time>2017-10-15T15:25:27Z</time>
      </trkpt>
      <trkpt lat="59.878613112869" lon="17.61241792179">
        <ele>13.6</ele>
        <time>2017-10-15T15:25:28Z</time>
      </trkpt>
      <trkpt lat="59.878581932201" lon="17.612317925723">
        <ele>13.6</ele>
        <time>2017-10-15T15:25:29Z</time>
      </trkpt>
      <trkpt lat="59.878550416257" lon="17.61220250696">
        <ele>13.6</ele>
        <time>2017-10-15T15:25:30Z</time>
      </trkpt>
      <trkpt lat="59.878522001616" lon="17.612108126766">
        <ele>13.8</ele>
        <time>2017-10-15T15:25:31Z</time>
      </trkpt>
      <trkpt lat="59.878488390197" lon="17.612001425179">
        <ele>14</ele>
        <time>2017-10-15T15:25:32Z</time>
      </trkpt>
      <trkpt lat="59.87845628752" lon="17.611899249818">
        <ele>14</ele>
        <time>2017-10-15T15:25:33Z</time>
      </trkpt>
      <trkpt lat="59.87842611268" lon="17.611794978982">
        <ele>14</ele>
        <time>2017-10-15T15:25:34Z</time>
      </trkpt>
      <trkpt lat="59.878399458238" lon="17.611707807222">
        <ele>14.2</ele>
        <time>2017-10-15T15:25:35Z</time>
      </trkpt>
      <trkpt lat="59.878365427724" lon="17.611611834467">
        <ele>14.2</ele>
        <time>2017-10-15T15:25:36Z</time>
      </trkpt>
      <trkpt lat="59.878328798821" lon="17.611516616083">
        <ele>14.2</ele>
        <time>2017-10-15T15:25:37Z</time>
      </trkpt>
      <trkpt lat="59.878290661176" lon="17.611433467635">
        <ele>14.2</ele>
        <time>2017-10-15T15:25:38Z</time>
      </trkpt>
      <trkpt lat="59.878246907658" lon="17.611368172634">
        <ele>14.2</ele>
        <time>2017-10-15T15:25:39Z</time>
      </trkpt>
      <trkpt lat="59.878199214647" lon="17.611311846266">
        <ele>14.2</ele>
        <time>2017-10-15T15:25:40Z</time>
      </trkpt>
      <trkpt lat="59.878156886052" lon="17.611270607318">
        <ele>14.4</ele>
        <time>2017-10-15T15:25:41Z</time>
      </trkpt>
      <trkpt lat="59.878102319883" lon="17.611212353113">
        <ele>14.4</ele>
        <time>2017-10-15T15:25:42Z</time>
      </trkpt>
      <trkpt lat="59.878057644356" lon="17.611145800827">
        <ele>14.4</ele>
        <time>2017-10-15T15:25:43Z</time>
      </trkpt>
      <trkpt lat="59.878022691833" lon="17.611069776994">
        <ele>14.4</ele>
        <time>2017-10-15T15:25:44Z</time>
      </trkpt>
      <trkpt lat="59.877992684631" lon="17.610996016274">
        <ele>14.4</ele>
        <time>2017-10-15T15:25:45Z</time>
      </trkpt>
      <trkpt lat="59.877966700741" lon="17.610932984386">
        <ele>14.4</ele>
        <time>2017-10-15T15:25:46Z</time>
      </trkpt>
      <trkpt lat="59.877942560869" lon="17.610864923358">
        <ele>14.2</ele>
        <time>2017-10-15T15:25:47Z</time>
      </trkpt>
      <trkpt lat="59.877914565323" lon="17.610782696919">
        <ele>14.2</ele>
        <time>2017-10-15T15:25:48Z</time>
      </trkpt>
      <trkpt lat="59.877886150682" lon="17.610701392489">
        <ele>14.2</ele>
        <time>2017-10-15T15:25:49Z</time>
      </trkpt>
      <trkpt lat="59.877855472928" lon="17.610606844657">
        <ele>14.4</ele>
        <time>2017-10-15T15:25:50Z</time>
      </trkpt>
      <trkpt lat="59.877824208441" lon="17.610511710092">
        <ele>14.4</ele>
        <time>2017-10-15T15:25:51Z</time>
      </trkpt>
      <trkpt lat="59.877787830995" lon="17.610398554442">
        <ele>14.4</ele>
        <time>2017-10-15T15:25:52Z</time>
      </trkpt>
      <trkpt lat="59.877754554852" lon="17.610296295262">
        <ele>14.4</ele>
        <time>2017-10-15T15:25:53Z</time>
      </trkpt>
      <trkpt lat="59.877717506854" lon="17.610169728572">
        <ele>14.2</ele>
        <time>2017-10-15T15:25:54Z</time>
      </trkpt>
      <trkpt lat="59.87768599091" lon="17.610044335348">
        <ele>14.2</ele>
        <time>2017-10-15T15:25:55Z</time>
      </trkpt>
      <trkpt lat="59.877650367835" lon="17.609930425327">
        <ele>13.8</ele>
        <time>2017-10-15T15:25:56Z</time>
      </trkpt>
      <trkpt lat="59.877608793611" lon="17.609802685171">
        <ele>13.2</ele>
        <time>2017-10-15T15:25:57Z</time>
      </trkpt>
      <trkpt lat="59.877567554663" lon="17.60966279126">
        <ele>12.4</ele>
        <time>2017-10-15T15:25:58Z</time>
      </trkpt>
      <trkpt lat="59.877529836113" lon="17.609541002253">
        <ele>12</ele>
        <time>2017-10-15T15:25:59Z</time>
      </trkpt>
      <trkpt lat="59.877485831138" lon="17.609396330659">
        <ele>11.2</ele>
        <time>2017-10-15T15:26:00Z</time>
      </trkpt>
      <trkpt lat="59.877445681837" lon="17.609269177236">
        <ele>10.6</ele>
        <time>2017-10-15T15:26:01Z</time>
      </trkpt>
      <trkpt lat="59.877403856156" lon="17.609133558094">
        <ele>10</ele>
        <time>2017-10-15T15:26:02Z</time>
      </trkpt>
      <trkpt lat="59.877363790674" lon="17.608995508201">
        <ele>9.6</ele>
        <time>2017-10-15T15:26:03Z</time>
      </trkpt>
      <trkpt lat="59.877324228106" lon="17.608867181312">
        <ele>9.4</ele>
        <time>2017-10-15T15:26:04Z</time>
      </trkpt>
      <trkpt lat="59.87728785066" lon="17.608750169988">
        <ele>9.2</ele>
        <time>2017-10-15T15:26:05Z</time>
      </trkpt>
      <trkpt lat="59.877248707187" lon="17.608624692945">
        <ele>9.2</ele>
        <time>2017-10-15T15:26:06Z</time>
      </trkpt>
      <trkpt lat="59.877208474067" lon="17.608493767667">
        <ele>9</ele>
        <time>2017-10-15T15:26:07Z</time>
      </trkpt>
      <trkpt lat="59.877173773001" lon="17.608370889013">
        <ele>9</ele>
        <time>2017-10-15T15:26:08Z</time>
      </trkpt>
      <trkpt lat="59.87713865284" lon="17.608247004531">
        <ele>8.8</ele>
        <time>2017-10-15T15:26:09Z</time>
      </trkpt>
      <trkpt lat="59.877100682833" lon="17.608139716211">
        <ele>8.8</ele>
        <time>2017-10-15T15:26:10Z</time>
      </trkpt>
      <trkpt lat="59.877063886292" lon="17.608031422063">
        <ele>8.6</ele>
        <time>2017-10-15T15:26:11Z</time>
      </trkpt>
      <trkpt lat="59.877027341208" lon="17.607910555065">
        <ele>8.6</ele>
        <time>2017-10-15T15:26:12Z</time>
      </trkpt>
      <trkpt lat="59.876988784468" lon="17.607777366674">
        <ele>8.6</ele>
        <time>2017-10-15T15:26:13Z</time>
      </trkpt>
      <trkpt lat="59.87695341285" lon="17.607659852436">
        <ele>8.6</ele>
        <time>2017-10-15T15:26:14Z</time>
      </trkpt>
      <trkpt lat="59.876916029576" lon="17.607538985438">
        <ele>8.6</ele>
        <time>2017-10-15T15:26:15Z</time>
      </trkpt>
      <trkpt lat="59.876879735949" lon="17.607426584159">
        <ele>8.6</ele>
        <time>2017-10-15T15:26:16Z</time>
      </trkpt>
      <trkpt lat="59.87684109539" lon="17.607309572835">
        <ele>8.6</ele>
        <time>2017-10-15T15:26:17Z</time>
      </trkpt>
      <trkpt lat="59.876802371012" lon="17.607189795484">
        <ele>8.4</ele>
        <time>2017-10-15T15:26:18Z</time>
      </trkpt>
      <trkpt lat="59.876765071557" lon="17.607067922658">
        <ele>8.4</ele>
        <time>2017-10-15T15:26:19Z</time>
      </trkpt>
      <trkpt lat="59.876731627776" lon="17.606951833343">
        <ele>8.2</ele>
        <time>2017-10-15T15:26:20Z</time>
      </trkpt>
      <trkpt lat="59.876701620574" lon="17.606844712661">
        <ele>8</ele>
        <time>2017-10-15T15:26:21Z</time>
      </trkpt>
      <trkpt lat="59.876669350259" lon="17.606728790984">
        <ele>8</ele>
        <time>2017-10-15T15:26:22Z</time>
      </trkpt>
      <trkpt lat="59.87663657703" lon="17.606620664474">
        <ele>7.8</ele>
        <time>2017-10-15T15:26:23Z</time>
      </trkpt>
      <trkpt lat="59.876602630335" lon="17.606501473856">
        <ele>7.8</ele>
        <time>2017-10-15T15:26:24Z</time>
      </trkpt>
      <trkpt lat="59.876570024744" lon="17.606389072577">
        <ele>7.8</ele>
        <time>2017-10-15T15:26:25Z</time>
      </trkpt>
      <trkpt lat="59.876539011714" lon="17.606287567768">
        <ele>7.8</ele>
        <time>2017-10-15T15:26:26Z</time>
      </trkpt>
      <trkpt lat="59.876506070847" lon="17.606184051303">
        <ele>7.8</ele>
        <time>2017-10-15T15:26:27Z</time>
      </trkpt>
      <trkpt lat="59.876469609582" lon="17.606082462675">
        <ele>7.8</ele>
        <time>2017-10-15T15:26:28Z</time>
      </trkpt>
      <trkpt lat="59.876436333439" lon="17.60599738639">
        <ele>7.8</ele>
        <time>2017-10-15T15:26:29Z</time>
      </trkpt>
      <trkpt lat="59.876398028156" lon="17.605902168006">
        <ele>7.8</ele>
        <time>2017-10-15T15:26:30Z</time>
      </trkpt>
      <trkpt lat="59.87636667985" lon="17.60583058658">
        <ele>7.8</ele>
        <time>2017-10-15T15:26:31Z</time>
      </trkpt>
      <trkpt lat="59.876331978784" lon="17.60575598767">
        <ele>7.8</ele>
        <time>2017-10-15T15:26:32Z</time>
      </trkpt>
      <trkpt lat="59.876298367365" lon="17.605690357393">
        <ele>8</ele>
        <time>2017-10-15T15:26:33Z</time>
      </trkpt>
      <trkpt lat="59.876265929412" lon="17.605623469831">
        <ele>8</ele>
        <time>2017-10-15T15:26:34Z</time>
      </trkpt>
      <trkpt lat="59.876235838391" lon="17.605567478739">
        <ele>8.2</ele>
        <time>2017-10-15T15:26:35Z</time>
      </trkpt>
      <trkpt lat="59.876205998827" lon="17.605502435195">
        <ele>8.4</ele>
        <time>2017-10-15T15:26:36Z</time>
      </trkpt>
      <trkpt lat="59.876186552819" lon="17.605433787434">
        <ele>8.4</ele>
        <time>2017-10-15T15:26:37Z</time>
      </trkpt>
      <trkpt lat="59.87617557253" lon="17.605379137446">
        <ele>8.6</ele>
        <time>2017-10-15T15:26:38Z</time>
      </trkpt>
      <trkpt lat="59.876163083499" lon="17.605311327875">
        <ele>8.8</ele>
        <time>2017-10-15T15:26:39Z</time>
      </trkpt>
      <trkpt lat="59.876150510649" lon="17.605233962938">
        <ele>8.8</ele>
        <time>2017-10-15T15:26:40Z</time>
      </trkpt>
      <trkpt lat="59.87614036855" lon="17.605163638797">
        <ele>8.8</ele>
        <time>2017-10-15T15:26:41Z</time>
      </trkpt>
      <trkpt lat="59.876133579211" lon="17.605064816196">
        <ele>8.8</ele>
        <time>2017-10-15T15:26:42Z</time>
      </trkpt>
      <trkpt lat="59.876127711881" lon="17.604967921432">
        <ele>8.6</ele>
        <time>2017-10-15T15:26:43Z</time>
      </trkpt>
      <trkpt lat="59.876117569782" lon="17.604873457419">
        <ele>8.4</ele>
        <time>2017-10-15T15:26:44Z</time>
      </trkpt>
      <trkpt lat="59.876104577837" lon="17.604777065569">
        <ele>8.4</ele>
        <time>2017-10-15T15:26:45Z</time>
      </trkpt>
      <trkpt lat="59.876093178453" lon="17.60468729542">
        <ele>8.4</ele>
        <time>2017-10-15T15:26:46Z</time>
      </trkpt>
      <trkpt lat="59.876085215648" lon="17.604584533326">
        <ele>8.4</ele>
        <time>2017-10-15T15:26:47Z</time>
      </trkpt>
      <trkpt lat="59.876073648626" lon="17.60447690973">
        <ele>8.6</ele>
        <time>2017-10-15T15:26:48Z</time>
      </trkpt>
      <trkpt lat="59.876056298093" lon="17.604377500396">
        <ele>8.6</ele>
        <time>2017-10-15T15:26:49Z</time>
      </trkpt>
      <trkpt lat="59.876030481841" lon="17.604286305324">
        <ele>8.6</ele>
        <time>2017-10-15T15:26:50Z</time>
      </trkpt>
      <trkpt lat="59.876006006693" lon="17.604196032261">
        <ele>8.4</ele>
        <time>2017-10-15T15:26:51Z</time>
      </trkpt>
      <trkpt lat="59.875978011147" lon="17.604099053678">
        <ele>8.4</ele>
        <time>2017-10-15T15:26:52Z</time>
      </trkpt>
      <trkpt lat="59.875951189067" lon="17.604013809755">
        <ele>8.4</ele>
        <time>2017-10-15T15:26:53Z</time>
      </trkpt>
      <trkpt lat="59.875921517141" lon="17.603916914991">
        <ele>8.4</ele>
        <time>2017-10-15T15:26:54Z</time>
      </trkpt>
      <trkpt lat="59.875893018681" lon="17.603825803738">
        <ele>8.2</ele>
        <time>2017-10-15T15:26:55Z</time>
      </trkpt>
      <trkpt lat="59.875866615696" lon="17.603741649462">
        <ele>8.2</ele>
        <time>2017-10-15T15:26:56Z</time>
      </trkpt>
      <trkpt lat="59.875839206883" lon="17.603652466046">
        <ele>8.2</ele>
        <time>2017-10-15T15:26:57Z</time>
      </trkpt>
      <trkpt lat="59.875810037871" lon="17.603556158015">
        <ele>8.2</ele>
        <time>2017-10-15T15:26:58Z</time>
      </trkpt>
      <trkpt lat="59.875792100605" lon="17.603497652353">
        <ele>8.2</ele>
        <time>2017-10-15T15:26:59Z</time>
      </trkpt>
      <trkpt lat="59.875753040951" lon="17.603369325464">
        <ele>8.2</ele>
        <time>2017-10-15T15:27:00Z</time>
      </trkpt>
      <trkpt lat="59.875728146708" lon="17.603277795116">
        <ele>8.2</ele>
        <time>2017-10-15T15:27:01Z</time>
      </trkpt>
      <trkpt lat="59.87569864242" lon="17.603181654723">
        <ele>8.2</ele>
        <time>2017-10-15T15:27:02Z</time>
      </trkpt>
      <trkpt lat="59.875668132304" lon="17.603084927597">
        <ele>8.2</ele>
        <time>2017-10-15T15:27:03Z</time>
      </trkpt>
      <trkpt lat="59.875639298568" lon="17.602990966498">
        <ele>8.2</ele>
        <time>2017-10-15T15:27:04Z</time>
      </trkpt>
      <trkpt lat="59.875614236687" lon="17.602903291824">
        <ele>8.2</ele>
        <time>2017-10-15T15:27:05Z</time>
      </trkpt>
      <trkpt lat="59.875586492598" lon="17.602809163087">
        <ele>8.2</ele>
        <time>2017-10-15T15:27:06Z</time>
      </trkpt>
      <trkpt lat="59.875556569215" lon="17.60271000521">
        <ele>8.2</ele>
        <time>2017-10-15T15:27:07Z</time>
      </trkpt>
      <trkpt lat="59.875528573669" lon="17.602620989432">
        <ele>8</ele>
        <time>2017-10-15T15:27:08Z</time>
      </trkpt>
      <trkpt lat="59.875501500132" lon="17.602530464912">
        <ele>8.2</ele>
        <time>2017-10-15T15:27:09Z</time>
      </trkpt>
      <trkpt lat="59.87547652207" lon="17.602443209333">
        <ele>8.2</ele>
        <time>2017-10-15T15:27:10Z</time>
      </trkpt>
      <trkpt lat="59.875456489329" lon="17.602379255436">
        <ele>8.2</ele>
        <time>2017-10-15T15:27:11Z</time>
      </trkpt>
      <trkpt lat="59.87542874524" lon="17.602296861359">
        <ele>8.2</ele>
        <time>2017-10-15T15:27:12Z</time>
      </trkpt>
      <trkpt lat="59.875402509893" lon="17.602225196114">
        <ele>8.2</ele>
        <time>2017-10-15T15:27:13Z</time>
      </trkpt>
      <trkpt lat="59.875365545714" lon="17.602177084008">
        <ele>8.2</ele>
        <time>2017-10-15T15:27:14Z</time>
      </trkpt>
      <trkpt lat="59.875321792196" lon="17.602146406254">
        <ele>8.2</ele>
        <time>2017-10-15T15:27:15Z</time>
      </trkpt>
      <trkpt lat="59.875290946804" lon="17.602080189244">
        <ele>8.2</ele>
        <time>2017-10-15T15:27:16Z</time>
      </trkpt>
      <trkpt lat="59.875281391438" lon="17.601988072163">
        <ele>8.2</ele>
        <time>2017-10-15T15:27:17Z</time>
      </trkpt>
      <trkpt lat="59.875277200488" lon="17.601884890974">
        <ele>8.2</ele>
        <time>2017-10-15T15:27:18Z</time>
      </trkpt>
      <trkpt lat="59.875264543819" lon="17.601784056717">
        <ele>8.2</ele>
        <time>2017-10-15T15:27:19Z</time>
      </trkpt>
      <trkpt lat="59.875240403947" lon="17.601690682351">
        <ele>8.4</ele>
        <time>2017-10-15T15:27:20Z</time>
      </trkpt>
      <trkpt lat="59.875213498048" lon="17.601607030989">
        <ele>8.2</ele>
        <time>2017-10-15T15:27:21Z</time>
      </trkpt>
      <trkpt lat="59.875183323208" lon="17.601513656623">
        <ele>8.2</ele>
        <time>2017-10-15T15:27:22Z</time>
      </trkpt>
      <trkpt lat="59.875157087861" lon="17.601431933098">
        <ele>8</ele>
        <time>2017-10-15T15:27:23Z</time>
      </trkpt>
      <trkpt lat="59.875125655736" lon="17.601341324759">
        <ele>8</ele>
        <time>2017-10-15T15:27:24Z</time>
      </trkpt>
      <trkpt lat="59.875099755665" lon="17.60125993651">
        <ele>7.8</ele>
        <time>2017-10-15T15:27:25Z</time>
      </trkpt>
      <trkpt lat="59.875075280517" lon="17.601175866053">
        <ele>8</ele>
        <time>2017-10-15T15:27:26Z</time>
      </trkpt>
      <trkpt lat="59.875048374618" lon="17.601092382329">
        <ele>8.2</ele>
        <time>2017-10-15T15:27:27Z</time>
      </trkpt>
      <trkpt lat="59.875020211434" lon="17.600999007963">
        <ele>8.2</ele>
        <time>2017-10-15T15:27:28Z</time>
      </trkpt>
      <trkpt lat="59.874997161209" lon="17.600917284438">
        <ele>8.4</ele>
        <time>2017-10-15T15:27:29Z</time>
      </trkpt>
      <trkpt lat="59.874970842043" lon="17.600818545656">
        <ele>8.4</ele>
        <time>2017-10-15T15:27:30Z</time>
      </trkpt>
      <trkpt lat="59.874945528705" lon="17.60073522957">
        <ele>8.4</ele>
        <time>2017-10-15T15:27:31Z</time>
      </trkpt>
      <trkpt lat="59.874917365521" lon="17.600644034498">
        <ele>8.6</ele>
        <time>2017-10-15T15:27:32Z</time>
      </trkpt>
      <trkpt lat="59.874891046355" lon="17.600553509978">
        <ele>8.6</ele>
        <time>2017-10-15T15:27:33Z</time>
      </trkpt>
      <trkpt lat="59.874865900655" lon="17.600464075105">
        <ele>8.6</ele>
        <time>2017-10-15T15:27:34Z</time>
      </trkpt>
      <trkpt lat="59.874842682792" lon="17.60037648425">
        <ele>8.6</ele>
        <time>2017-10-15T15:27:35Z</time>
      </trkpt>
      <trkpt lat="59.87481602835" lon="17.600282104056">
        <ele>8.6</ele>
        <time>2017-10-15T15:27:36Z</time>
      </trkpt>
      <trkpt lat="59.874790295917" lon="17.600186969491">
        <ele>8.6</ele>
        <time>2017-10-15T15:27:37Z</time>
      </trkpt>
      <trkpt lat="59.874764982579" lon="17.600094098039">
        <ele>8.6</ele>
        <time>2017-10-15T15:27:38Z</time>
      </trkpt>
      <trkpt lat="59.874739669241" lon="17.600003908795">
        <ele>8.6</ele>
        <time>2017-10-15T15:27:39Z</time>
      </trkpt>
      <trkpt lat="59.874713350075" lon="17.599913384275">
        <ele>8.6</ele>
        <time>2017-10-15T15:27:40Z</time>
      </trkpt>
      <trkpt lat="59.874691724773" lon="17.599836019338">
        <ele>8.8</ele>
        <time>2017-10-15T15:27:41Z</time>
      </trkpt>
      <trkpt lat="59.87466180139" lon="17.599734598348">
        <ele>8.6</ele>
        <time>2017-10-15T15:27:42Z</time>
      </trkpt>
      <trkpt lat="59.874631291274" lon="17.599642145991">
        <ele>8.8</ele>
        <time>2017-10-15T15:27:43Z</time>
      </trkpt>
      <trkpt lat="59.874604385375" lon="17.599550950919">
        <ele>8.8</ele>
        <time>2017-10-15T15:27:44Z</time>
      </trkpt>
      <trkpt lat="59.874578652942" lon="17.599459336752">
        <ele>8.8</ele>
        <time>2017-10-15T15:27:45Z</time>
      </trkpt>
      <trkpt lat="59.874554177794" lon="17.599375433933">
        <ele>9</ele>
        <time>2017-10-15T15:27:46Z</time>
      </trkpt>
      <trkpt lat="59.874524673506" lon="17.59927845535">
        <ele>9</ele>
        <time>2017-10-15T15:27:47Z</time>
      </trkpt>
      <trkpt lat="59.874496594141" lon="17.599180806215">
        <ele>9</ele>
        <time>2017-10-15T15:27:48Z</time>
      </trkpt>
      <trkpt lat="59.874471448441" lon="17.599100004699">
        <ele>9.2</ele>
        <time>2017-10-15T15:27:49Z</time>
      </trkpt>
      <trkpt lat="59.874442447067" lon="17.599008809627">
        <ele>9.2</ele>
        <time>2017-10-15T15:27:50Z</time>
      </trkpt>
      <trkpt lat="59.874416463177" lon="17.598919961487">
        <ele>9.2</ele>
        <time>2017-10-15T15:27:51Z</time>
      </trkpt>
      <trkpt lat="59.87439022783" lon="17.598824491646">
        <ele>9.2</ele>
        <time>2017-10-15T15:27:52Z</time>
      </trkpt>
      <trkpt lat="59.874364579216" lon="17.598734302402">
        <ele>9.4</ele>
        <time>2017-10-15T15:27:53Z</time>
      </trkpt>
      <trkpt lat="59.87433658367" lon="17.598638581104">
        <ele>9.4</ele>
        <time>2017-10-15T15:27:54Z</time>
      </trkpt>
      <trkpt lat="59.874306911744" lon="17.598540429055">
        <ele>9.4</ele>
        <time>2017-10-15T15:27:55Z</time>
      </trkpt>
      <trkpt lat="59.874283190967" lon="17.598459124625">
        <ele>9.4</ele>
        <time>2017-10-15T15:27:56Z</time>
      </trkpt>
      <trkpt lat="59.874256201249" lon="17.598365582621">
        <ele>9.4</ele>
        <time>2017-10-15T15:27:57Z</time>
      </trkpt>
      <trkpt lat="59.874229965902" lon="17.598263910174">
        <ele>9.6</ele>
        <time>2017-10-15T15:27:58Z</time>
      </trkpt>
      <trkpt lat="59.874207753867" lon="17.598179085346">
        <ele>9.6</ele>
        <time>2017-10-15T15:27:59Z</time>
      </trkpt>
      <trkpt lat="59.874179925959" lon="17.598079340736">
        <ele>9.6</ele>
        <time>2017-10-15T15:28:00Z</time>
      </trkpt>
      <trkpt lat="59.874155702268" lon="17.597994851184">
        <ele>9.6</ele>
        <time>2017-10-15T15:28:01Z</time>
      </trkpt>
      <trkpt lat="59.874130975663" lon="17.597891502357">
        <ele>9.6</ele>
        <time>2017-10-15T15:28:02Z</time>
      </trkpt>
      <trkpt lat="59.874107673981" lon="17.59779737362">
        <ele>9.8</ele>
        <time>2017-10-15T15:28:03Z</time>
      </trkpt>
      <trkpt lat="59.874084456118" lon="17.597703915435">
        <ele>9.8</ele>
        <time>2017-10-15T15:28:04Z</time>
      </trkpt>
      <trkpt lat="59.874061070617" lon="17.597623449195">
        <ele>9.8</ele>
        <time>2017-10-15T15:28:05Z</time>
      </trkpt>
      <trkpt lat="59.874034667632" lon="17.597533176132">
        <ele>9.8</ele>
        <time>2017-10-15T15:28:06Z</time>
      </trkpt>
      <trkpt lat="59.874006504448" lon="17.597441813422">
        <ele>10</ele>
        <time>2017-10-15T15:28:07Z</time>
      </trkpt>
      <trkpt lat="59.873982699852" lon="17.597353719653">
        <ele>10</ele>
        <time>2017-10-15T15:28:08Z</time>
      </trkpt>
      <trkpt lat="59.873959314351" lon="17.597268978644">
        <ele>10.2</ele>
        <time>2017-10-15T15:28:09Z</time>
      </trkpt>
      <trkpt lat="59.873934755384" lon="17.597188093309">
        <ele>10.2</ele>
        <time>2017-10-15T15:28:10Z</time>
      </trkpt>
      <trkpt lat="59.873914806462" lon="17.597124977602">
        <ele>10.2</ele>
        <time>2017-10-15T15:28:11Z</time>
      </trkpt>
      <trkpt lat="59.873885218355" lon="17.597036883833">
        <ele>10.4</ele>
        <time>2017-10-15T15:28:12Z</time>
      </trkpt>
      <trkpt lat="59.87385713899" lon="17.596953903023">
        <ele>10.4</ele>
        <time>2017-10-15T15:28:13Z</time>
      </trkpt>
      <trkpt lat="59.873830400729" lon="17.596877460095">
        <ele>10.4</ele>
        <time>2017-10-15T15:28:14Z</time>
      </trkpt>
      <trkpt lat="59.873803913925" lon="17.596805291936">
        <ele>10.4</ele>
        <time>2017-10-15T15:28:15Z</time>
      </trkpt>
      <trkpt lat="59.873776421293" lon="17.596743936428">
        <ele>10.6</ele>
        <time>2017-10-15T15:28:16Z</time>
      </trkpt>
      <trkpt lat="59.873749263937" lon="17.596681155997">
        <ele>10.8</ele>
        <time>2017-10-15T15:28:17Z</time>
      </trkpt>
      <trkpt lat="59.873724369694" lon="17.596614016978">
        <ele>10.8</ele>
        <time>2017-10-15T15:28:18Z</time>
      </trkpt>
      <trkpt lat="59.873701738564" lon="17.596553751117">
        <ele>10.8</ele>
        <time>2017-10-15T15:28:19Z</time>
      </trkpt>
      <trkpt lat="59.87367776633" lon="17.596498262939">
        <ele>10.8</ele>
        <time>2017-10-15T15:28:20Z</time>
      </trkpt>
      <trkpt lat="59.873658990874" lon="17.596441852752">
        <ele>11</ele>
        <time>2017-10-15T15:28:21Z</time>
      </trkpt>
      <trkpt lat="59.873641221246" lon="17.596381754529">
        <ele>11.2</ele>
        <time>2017-10-15T15:28:22Z</time>
      </trkpt>
      <trkpt lat="59.873625127998" lon="17.596336324631">
        <ele>11.2</ele>
        <time>2017-10-15T15:28:23Z</time>
      </trkpt>
      <trkpt lat="59.873602832144" lon="17.596276394046">
        <ele>11.2</ele>
        <time>2017-10-15T15:28:24Z</time>
      </trkpt>
      <trkpt lat="59.873577351168" lon="17.596215541452">
        <ele>11.4</ele>
        <time>2017-10-15T15:28:25Z</time>
      </trkpt>
      <trkpt lat="59.873549104165" lon="17.596161310559">
        <ele>11.6</ele>
        <time>2017-10-15T15:28:26Z</time>
      </trkpt>
      <trkpt lat="59.873509625416" lon="17.596116886489">
        <ele>11.6</ele>
        <time>2017-10-15T15:28:27Z</time>
      </trkpt>
      <trkpt lat="59.873465285165" lon="17.596099116861">
        <ele>11.8</ele>
        <time>2017-10-15T15:28:28Z</time>
      </trkpt>
      <trkpt lat="59.873422034561" lon="17.596110600064">
        <ele>11.8</ele>
        <time>2017-10-15T15:28:29Z</time>
      </trkpt>
      <trkpt lat="59.87337266517" lon="17.596154688858">
        <ele>11.8</ele>
        <time>2017-10-15T15:28:30Z</time>
      </trkpt>
      <trkpt lat="59.873337880285" lon="17.596219564764">
        <ele>12</ele>
        <time>2017-10-15T15:28:31Z</time>
      </trkpt>
      <trkpt lat="59.873297395708" lon="17.59629449895">
        <ele>12.2</ele>
        <time>2017-10-15T15:28:32Z</time>
      </trkpt>
      <trkpt lat="59.873257497864" lon="17.59636909786">
        <ele>12.2</ele>
        <time>2017-10-15T15:28:33Z</time>
      </trkpt>
      <trkpt lat="59.873219611676" lon="17.596446798073">
        <ele>12.2</ele>
        <time>2017-10-15T15:28:34Z</time>
      </trkpt>
      <trkpt lat="59.873183737144" lon="17.59651997206">
        <ele>12.4</ele>
        <time>2017-10-15T15:28:35Z</time>
      </trkpt>
      <trkpt lat="59.873146605327" lon="17.596596917902">
        <ele>12.6</ele>
        <time>2017-10-15T15:28:36Z</time>
      </trkpt>
      <trkpt lat="59.873104612008" lon="17.596681826549">
        <ele>12.6</ele>
        <time>2017-10-15T15:28:37Z</time>
      </trkpt>
      <trkpt lat="59.873065468535" lon="17.596759359124">
        <ele>12.6</ele>
        <time>2017-10-15T15:28:38Z</time>
      </trkpt>
      <trkpt lat="59.873028001442" lon="17.596838819536">
        <ele>12.6</ele>
        <time>2017-10-15T15:28:39Z</time>
      </trkpt>
      <trkpt lat="59.872990785806" lon="17.596921045975">
        <ele>12.6</ele>
        <time>2017-10-15T15:28:40Z</time>
      </trkpt>
      <trkpt lat="59.872962035889" lon="17.5969860057">
        <ele>12.6</ele>
        <time>2017-10-15T15:28:41Z</time>
      </trkpt>
      <trkpt lat="59.872919791113" lon="17.597078625695">
        <ele>12.6</ele>
        <time>2017-10-15T15:28:42Z</time>
      </trkpt>
      <trkpt lat="59.872881066735" lon="17.597167557654">
        <ele>12.6</ele>
        <time>2017-10-15T15:28:43Z</time>
      </trkpt>
      <trkpt lat="59.872846365669" lon="17.597252298663">
        <ele>12.6</ele>
        <time>2017-10-15T15:28:44Z</time>
      </trkpt>
      <trkpt lat="59.872813927716" lon="17.597336536758">
        <ele>12.6</ele>
        <time>2017-10-15T15:28:45Z</time>
      </trkpt>
      <trkpt lat="59.872785596894" lon="17.597412895867">
        <ele>12.6</ele>
        <time>2017-10-15T15:28:46Z</time>
      </trkpt>
      <trkpt lat="59.872757014615" lon="17.597497469238">
        <ele>12.6</ele>
        <time>2017-10-15T15:28:47Z</time>
      </trkpt>
      <trkpt lat="59.872727007413" lon="17.597584808636">
        <ele>12.8</ele>
        <time>2017-10-15T15:28:48Z</time>
      </trkpt>
      <trkpt lat="59.872698844229" lon="17.597665526333">
        <ele>13</ele>
        <time>2017-10-15T15:28:49Z</time>
      </trkpt>
      <trkpt lat="59.872672357425" lon="17.597741969261">
        <ele>13</ele>
        <time>2017-10-15T15:28:50Z</time>
      </trkpt>
      <trkpt lat="59.872643272232" lon="17.597799720552">
        <ele>13.2</ele>
        <time>2017-10-15T15:28:51Z</time>
      </trkpt>
      <trkpt lat="59.872607062424" lon="17.597847497382">
        <ele>13.4</ele>
        <time>2017-10-15T15:28:52Z</time>
      </trkpt>
      <trkpt lat="59.872571271711" lon="17.597874151824">
        <ele>13.4</ele>
        <time>2017-10-15T15:28:53Z</time>
      </trkpt>
      <trkpt lat="59.872526009451" lon="17.597882869">
        <ele>13.6</ele>
        <time>2017-10-15T15:28:54Z</time>
      </trkpt>
      <trkpt lat="59.872484602865" lon="17.597864345001">
        <ele>13.6</ele>
        <time>2017-10-15T15:28:55Z</time>
      </trkpt>
      <trkpt lat="59.872451410541" lon="17.597817657818">
        <ele>13.8</ele>
        <time>2017-10-15T15:28:56Z</time>
      </trkpt>
      <trkpt lat="59.872425678108" lon="17.597758230147">
        <ele>14</ele>
        <time>2017-10-15T15:28:57Z</time>
      </trkpt>
      <trkpt lat="59.872398436933" lon="17.597702825788">
        <ele>14</ele>
        <time>2017-10-15T15:28:58Z</time>
      </trkpt>
      <trkpt lat="59.872374632337" lon="17.597651277103">
        <ele>14.2</ele>
        <time>2017-10-15T15:28:59Z</time>
      </trkpt>
      <trkpt lat="59.872347642619" lon="17.597593944907">
        <ele>14.2</ele>
        <time>2017-10-15T15:29:00Z</time>
      </trkpt>
      <trkpt lat="59.872324843851" lon="17.597545329887">
        <ele>14.4</ele>
        <time>2017-10-15T15:29:01Z</time>
      </trkpt>
      <trkpt lat="59.872300955436" lon="17.597491350451">
        <ele>14.4</ele>
        <time>2017-10-15T15:29:02Z</time>
      </trkpt>
      <trkpt lat="59.872278575763" lon="17.597440723775">
        <ele>14.4</ele>
        <time>2017-10-15T15:29:03Z</time>
      </trkpt>
      <trkpt lat="59.872258878298" lon="17.597390683832">
        <ele>14.6</ele>
        <time>2017-10-15T15:29:04Z</time>
      </trkpt>
      <trkpt lat="59.872239767566" lon="17.597346762676">
        <ele>14.8</ele>
        <time>2017-10-15T15:29:05Z</time>
      </trkpt>
      <trkpt lat="59.87221847754" lon="17.597297058009">
        <ele>15</ele>
        <time>2017-10-15T15:29:06Z</time>
      </trkpt>
      <trkpt lat="59.87219836098" lon="17.597244335858">
        <ele>15.4</ele>
        <time>2017-10-15T15:29:07Z</time>
      </trkpt>
      <trkpt lat="59.872180591352" lon="17.597195720838">
        <ele>15.8</ele>
        <time>2017-10-15T15:29:08Z</time>
      </trkpt>
      <trkpt lat="59.872162151172" lon="17.597146183809">
        <ele>16.2</ele>
        <time>2017-10-15T15:29:09Z</time>
      </trkpt>
      <trkpt lat="59.872141783155" lon="17.597095305676">
        <ele>16.6</ele>
        <time>2017-10-15T15:29:10Z</time>
      </trkpt>
      <trkpt lat="59.872123175337" lon="17.597051552158">
        <ele>17</ele>
        <time>2017-10-15T15:29:11Z</time>
      </trkpt>
      <trkpt lat="59.872099706017" lon="17.596991202478">
        <ele>17.2</ele>
        <time>2017-10-15T15:29:12Z</time>
      </trkpt>
      <trkpt lat="59.872076655792" lon="17.59692817059">
        <ele>17.4</ele>
        <time>2017-10-15T15:29:13Z</time>
      </trkpt>
      <trkpt lat="59.872055533404" lon="17.59686698272">
        <ele>17.8</ele>
        <time>2017-10-15T15:29:14Z</time>
      </trkpt>
      <trkpt lat="59.872037009405" lon="17.596802945004">
        <ele>18</ele>
        <time>2017-10-15T15:29:15Z</time>
      </trkpt>
      <trkpt lat="59.872022173442" lon="17.59674125422">
        <ele>18</ele>
        <time>2017-10-15T15:29:16Z</time>
      </trkpt>
      <trkpt lat="59.87200641547" lon="17.596672103545">
        <ele>18</ele>
        <time>2017-10-15T15:29:17Z</time>
      </trkpt>
      <trkpt lat="59.871993255887" lon="17.596590463839">
        <ele>18.2</ele>
        <time>2017-10-15T15:29:18Z</time>
      </trkpt>
      <trkpt lat="59.871983197607" lon="17.596512260712">
        <ele>18.2</ele>
        <time>2017-10-15T15:29:19Z</time>
      </trkpt>
      <trkpt lat="59.871975821535" lon="17.596433135576">
        <ele>18.2</ele>
        <time>2017-10-15T15:29:20Z</time>
      </trkpt>
      <trkpt lat="59.871971882042" lon="17.59635652501">
        <ele>18.2</ele>
        <time>2017-10-15T15:29:21Z</time>
      </trkpt>
      <trkpt lat="59.871963835418" lon="17.596271784001">
        <ele>18.2</ele>
        <time>2017-10-15T15:29:22Z</time>
      </trkpt>
      <trkpt lat="59.87196031502" lon="17.596197185091">
        <ele>18.2</ele>
        <time>2017-10-15T15:29:23Z</time>
      </trkpt>
      <trkpt lat="59.871953860957" lon="17.596113366091">
        <ele>18.2</ele>
        <time>2017-10-15T15:29:24Z</time>
      </trkpt>
      <trkpt lat="59.871946820161" lon="17.596033738041">
        <ele>18.2</ele>
        <time>2017-10-15T15:29:25Z</time>
      </trkpt>
      <trkpt lat="59.871941204288" lon="17.595962072796">
        <ele>18.4</ele>
        <time>2017-10-15T15:29:26Z</time>
      </trkpt>
      <trkpt lat="59.871934163492" lon="17.595885126954">
        <ele>18.4</ele>
        <time>2017-10-15T15:29:27Z</time>
      </trkpt>
      <trkpt lat="59.871930223999" lon="17.595803487248">
        <ele>18.4</ele>
        <time>2017-10-15T15:29:28Z</time>
      </trkpt>
      <trkpt lat="59.871928128524" lon="17.59573626441">
        <ele>18.6</ele>
        <time>2017-10-15T15:29:29Z</time>
      </trkpt>
      <trkpt lat="59.871924189031" lon="17.595657893645">
        <ele>18.6</ele>
        <time>2017-10-15T15:29:30Z</time>
      </trkpt>
      <trkpt lat="59.871918573158" lon="17.595591508997">
        <ele>19</ele>
        <time>2017-10-15T15:29:31Z</time>
      </trkpt>
      <trkpt lat="59.871912873466" lon="17.595514311698">
        <ele>19</ele>
        <time>2017-10-15T15:29:32Z</time>
      </trkpt>
      <trkpt lat="59.871906754679" lon="17.595445496299">
        <ele>19.2</ele>
        <time>2017-10-15T15:29:33Z</time>
      </trkpt>
      <trkpt lat="59.871900132978" lon="17.595373998692">
        <ele>19.4</ele>
        <time>2017-10-15T15:29:34Z</time>
      </trkpt>
      <trkpt lat="59.871896109666" lon="17.59531381665">
        <ele>19.4</ele>
        <time>2017-10-15T15:29:35Z</time>
      </trkpt>
      <trkpt lat="59.871891415802" lon="17.595246342355">
        <ele>19.6</ele>
        <time>2017-10-15T15:29:36Z</time>
      </trkpt>
      <trkpt lat="59.871886051386" lon="17.5951755153">
        <ele>19.6</ele>
        <time>2017-10-15T15:29:37Z</time>
      </trkpt>
      <trkpt lat="59.871882950083" lon="17.595109549747">
        <ele>19.6</ele>
        <time>2017-10-15T15:29:38Z</time>
      </trkpt>
      <trkpt lat="59.87187984878" lon="17.595041069624">
        <ele>19.8</ele>
        <time>2017-10-15T15:29:39Z</time>
      </trkpt>
      <trkpt lat="59.871874484364" lon="17.594976780451">
        <ele>20</ele>
        <time>2017-10-15T15:29:40Z</time>
      </trkpt>
      <trkpt lat="59.871872556527" lon="17.59492154373">
        <ele>20</ele>
        <time>2017-10-15T15:29:41Z</time>
      </trkpt>
      <trkpt lat="59.871869622862" lon="17.594841999499">
        <ele>20.2</ele>
        <time>2017-10-15T15:29:42Z</time>
      </trkpt>
      <trkpt lat="59.871865934826" lon="17.594770501892">
        <ele>20.4</ele>
        <time>2017-10-15T15:29:43Z</time>
      </trkpt>
      <trkpt lat="59.871861157143" lon="17.594705039253">
        <ele>20.4</ele>
        <time>2017-10-15T15:29:44Z</time>
      </trkpt>
      <trkpt lat="59.871859061668" lon="17.594637062044">
        <ele>20.6</ele>
        <time>2017-10-15T15:29:45Z</time>
      </trkpt>
      <trkpt lat="59.871856798555" lon="17.594577299097">
        <ele>20.8</ele>
        <time>2017-10-15T15:29:46Z</time>
      </trkpt>
      <trkpt lat="59.871852691424" lon="17.594512255553">
        <ele>21</ele>
        <time>2017-10-15T15:29:47Z</time>
      </trkpt>
      <trkpt lat="59.871844225705" lon="17.594440255032">
        <ele>21.2</ele>
        <time>2017-10-15T15:29:48Z</time>
      </trkpt>
      <trkpt lat="59.871837436366" lon="17.594371439633">
        <ele>21.4</ele>
        <time>2017-10-15T15:29:49Z</time>
      </trkpt>
      <trkpt lat="59.871831485217" lon="17.594303043329">
        <ele>21.6</ele>
        <time>2017-10-15T15:29:50Z</time>
      </trkpt>
      <trkpt lat="59.871824276783" lon="17.594241352545">
        <ele>21.8</ele>
        <time>2017-10-15T15:29:51Z</time>
      </trkpt>
      <trkpt lat="59.871817068349" lon="17.594164322884">
        <ele>22</ele>
        <time>2017-10-15T15:29:52Z</time>
      </trkpt>
      <trkpt lat="59.871810614286" lon="17.594097100046">
        <ele>22</ele>
        <time>2017-10-15T15:29:53Z</time>
      </trkpt>
      <trkpt lat="59.871801478015" lon="17.594017052901">
        <ele>22.2</ele>
        <time>2017-10-15T15:29:54Z</time>
      </trkpt>
      <trkpt lat="59.871789408079" lon="17.593942453991">
        <ele>22.2</ele>
        <time>2017-10-15T15:29:55Z</time>
      </trkpt>
      <trkpt lat="59.871778763066" lon="17.593871207841">
        <ele>22.4</ele>
        <time>2017-10-15T15:29:56Z</time>
      </trkpt>
      <trkpt lat="59.871766274035" lon="17.593790993058">
        <ele>22.4</ele>
        <time>2017-10-15T15:29:57Z</time>
      </trkpt>
      <trkpt lat="59.87175076752" lon="17.593705665316">
        <ele>22.4</ele>
        <time>2017-10-15T15:29:58Z</time>
      </trkpt>
      <trkpt lat="59.871735093367" lon="17.593628719474">
        <ele>22.4</ele>
        <time>2017-10-15T15:29:59Z</time>
      </trkpt>
      <trkpt lat="59.871720257404" lon="17.593556551315">
        <ele>22.4</ele>
        <time>2017-10-15T15:30:00Z</time>
      </trkpt>
      <trkpt lat="59.871696536627" lon="17.593457058162">
        <ele>22.4</ele>
        <time>2017-10-15T15:30:01Z</time>
      </trkpt>
      <trkpt lat="59.871676252429" lon="17.593366785099">
        <ele>22.4</ele>
        <time>2017-10-15T15:30:02Z</time>
      </trkpt>
      <trkpt lat="59.871657560792" lon="17.593273243095">
        <ele>22.4</ele>
        <time>2017-10-15T15:30:03Z</time>
      </trkpt>
      <trkpt lat="59.871638952974" lon="17.593183556765">
        <ele>22.2</ele>
        <time>2017-10-15T15:30:04Z</time>
      </trkpt>
      <trkpt lat="59.871620177518" lon="17.593094457168">
        <ele>22.2</ele>
        <time>2017-10-15T15:30:05Z</time>
      </trkpt>
      <trkpt lat="59.871601821157" lon="17.592992784721">
        <ele>22</ele>
        <time>2017-10-15T15:30:06Z</time>
      </trkpt>
      <trkpt lat="59.871582207511" lon="17.592878371786">
        <ele>21.8</ele>
        <time>2017-10-15T15:30:07Z</time>
      </trkpt>
      <trkpt lat="59.871565276073" lon="17.592767311611">
        <ele>21.6</ele>
        <time>2017-10-15T15:30:08Z</time>
      </trkpt>
      <trkpt lat="59.871545578608" lon="17.592652814857">
        <ele>21.4</ele>
        <time>2017-10-15T15:30:09Z</time>
      </trkpt>
      <trkpt lat="59.871524707677" lon="17.592532786049">
        <ele>21</ele>
        <time>2017-10-15T15:30:10Z</time>
      </trkpt>
      <trkpt lat="59.871501489814" lon="17.592427677023">
        <ele>20.8</ele>
        <time>2017-10-15T15:30:11Z</time>
      </trkpt>
      <trkpt lat="59.871467962214" lon="17.592312844993">
        <ele>20.6</ele>
        <time>2017-10-15T15:30:12Z</time>
      </trkpt>
      <trkpt lat="59.871425298343" lon="17.592192983823">
        <ele>20.2</ele>
        <time>2017-10-15T15:30:13Z</time>
      </trkpt>
      <trkpt lat="59.871377856789" lon="17.592088210073">
        <ele>19.8</ele>
        <time>2017-10-15T15:30:14Z</time>
      </trkpt>
      <trkpt lat="59.871326391923" lon="17.591990728576">
        <ele>19.4</ele>
        <time>2017-10-15T15:30:15Z</time>
      </trkpt>
      <trkpt lat="59.871274927057" lon="17.591905149377">
        <ele>19.2</ele>
        <time>2017-10-15T15:30:16Z</time>
      </trkpt>
      <trkpt lat="59.871219103603" lon="17.591816217418">
        <ele>19</ele>
        <time>2017-10-15T15:30:17Z</time>
      </trkpt>
      <trkpt lat="59.871157412819" lon="17.591727872192">
        <ele>18.6</ele>
        <time>2017-10-15T15:30:18Z</time>
      </trkpt>
      <trkpt lat="59.871098320424" lon="17.59165008816">
        <ele>18.4</ele>
        <time>2017-10-15T15:30:19Z</time>
      </trkpt>
      <trkpt lat="59.871041407323" lon="17.591571717395">
        <ele>18.2</ele>
        <time>2017-10-15T15:30:20Z</time>
      </trkpt>
      <trkpt lat="59.870986757335" lon="17.591501393254">
        <ele>18.2</ele>
        <time>2017-10-15T15:30:21Z</time>
      </trkpt>
      <trkpt lat="59.870925569465" lon="17.591419418272">
        <ele>18.2</ele>
        <time>2017-10-15T15:30:22Z</time>
      </trkpt>
      <trkpt lat="59.870872009124" lon="17.59134833976">
        <ele>18</ele>
        <time>2017-10-15T15:30:23Z</time>
      </trkpt>
      <trkpt lat="59.870812078539" lon="17.591264772217">
        <ele>18</ele>
        <time>2017-10-15T15:30:24Z</time>
      </trkpt>
      <trkpt lat="59.870757093275" lon="17.591188916022">
        <ele>18</ele>
        <time>2017-10-15T15:30:25Z</time>
      </trkpt>
      <trkpt lat="59.870706131323" lon="17.591124040116">
        <ele>18</ele>
        <time>2017-10-15T15:30:26Z</time>
      </trkpt>
      <trkpt lat="59.870652319525" lon="17.591049692663">
        <ele>18</ele>
        <time>2017-10-15T15:30:27Z</time>
      </trkpt>
      <trkpt lat="59.870596915166" lon="17.590968388233">
        <ele>17.8</ele>
        <time>2017-10-15T15:30:28Z</time>
      </trkpt>
      <trkpt lat="59.870569254896" lon="17.590927484561">
        <ele>17.8</ele>
        <time>2017-10-15T15:30:29Z</time>
      </trkpt>
      <trkpt lat="59.87049767347" lon="17.590827572313">
        <ele>18</ele>
        <time>2017-10-15T15:30:30Z</time>
      </trkpt>
      <trkpt lat="59.870450399554" lon="17.590754817421">
        <ele>17.8</ele>
        <time>2017-10-15T15:30:31Z</time>
      </trkpt>
      <trkpt lat="59.87039960524" lon="17.590671333697">
        <ele>18</ele>
        <time>2017-10-15T15:30:32Z</time>
      </trkpt>
      <trkpt lat="59.870355348808" lon="17.590589023439">
        <ele>17.8</ele>
        <time>2017-10-15T15:30:33Z</time>
      </trkpt>
      <trkpt lat="59.870311511471" lon="17.590505707353">
        <ele>18</ele>
        <time>2017-10-15T15:30:34Z</time>
      </trkpt>
      <trkpt lat="59.87027387674" lon="17.590428510054">
        <ele>18</ele>
        <time>2017-10-15T15:30:35Z</time>
      </trkpt>
      <trkpt lat="59.870233978896" lon="17.590338572267">
        <ele>18</ele>
        <time>2017-10-15T15:30:36Z</time>
      </trkpt>
      <trkpt lat="59.870195254518" lon="17.590240336399">
        <ele>18</ele>
        <time>2017-10-15T15:30:37Z</time>
      </trkpt>
      <trkpt lat="59.870162481289" lon="17.590148135499">
        <ele>18.2</ele>
        <time>2017-10-15T15:30:38Z</time>
      </trkpt>
      <trkpt lat="59.870131300621" lon="17.590057024246">
        <ele>18.2</ele>
        <time>2017-10-15T15:30:39Z</time>
      </trkpt>
      <trkpt lat="59.870102131609" lon="17.589965074803">
        <ele>18.2</ele>
        <time>2017-10-15T15:30:40Z</time>
      </trkpt>
      <trkpt lat="59.87007941666" lon="17.589890978807">
        <ele>18.4</ele>
        <time>2017-10-15T15:30:41Z</time>
      </trkpt>
      <trkpt lat="59.870046978707" lon="17.58979098274">
        <ele>18.4</ele>
        <time>2017-10-15T15:30:42Z</time>
      </trkpt>
      <trkpt lat="59.870014540754" lon="17.589699200935">
        <ele>18.6</ele>
        <time>2017-10-15T15:30:43Z</time>
      </trkpt>
      <trkpt lat="59.869985707018" lon="17.589626948957">
        <ele>18.6</ele>
        <time>2017-10-15T15:30:44Z</time>
      </trkpt>
      <trkpt lat="59.869947150278" lon="17.589536005342">
        <ele>18.6</ele>
        <time>2017-10-15T15:30:45Z</time>
      </trkpt>
      <trkpt lat="59.86991345504" lon="17.589458640405">
        <ele>18.8</ele>
        <time>2017-10-15T15:30:46Z</time>
      </trkpt>
      <trkpt lat="59.869873892472" lon="17.58937859326">
        <ele>18.8</ele>
        <time>2017-10-15T15:30:47Z</time>
      </trkpt>
      <trkpt lat="59.869835000456" lon="17.589281949953">
        <ele>19.2</ele>
        <time>2017-10-15T15:30:48Z</time>
      </trkpt>
      <trkpt lat="59.86980113758" lon="17.589196370754">
        <ele>19.4</ele>
        <time>2017-10-15T15:30:49Z</time>
      </trkpt>
      <trkpt lat="59.869767358523" lon="17.589116910342">
        <ele>19.6</ele>
        <time>2017-10-15T15:30:50Z</time>
      </trkpt>
      <trkpt lat="59.869739698253" lon="17.589045580373">
        <ele>19.8</ele>
        <time>2017-10-15T15:30:51Z</time>
      </trkpt>
      <trkpt lat="59.86971312763" lon="17.588985985064">
        <ele>19.8</ele>
        <time>2017-10-15T15:30:52Z</time>
      </trkpt>
      <trkpt lat="59.869695609459" lon="17.588938962605">
        <ele>19.8</ele>
        <time>2017-10-15T15:30:53Z</time>
      </trkpt>
      <trkpt lat="59.869679683849" lon="17.588893532707">
        <ele>19.6</ele>
        <time>2017-10-15T15:30:54Z</time>
      </trkpt>
      <trkpt lat="59.869668033008" lon="17.588849360094">
        <ele>19.2</ele>
        <time>2017-10-15T15:30:55Z</time>
      </trkpt>
      <trkpt lat="59.869661578945" lon="17.588826142231">
        <ele>19.2</ele>
        <time>2017-10-15T15:30:56Z</time>
      </trkpt>
      <trkpt lat="59.869660908393" lon="17.588838379805">
        <ele>19</ele>
        <time>2017-10-15T15:30:57Z</time>
      </trkpt>
      <trkpt lat="59.869665518438" lon="17.588843157488">
        <ele>19.2</ele>
        <time>2017-10-15T15:30:58Z</time>
      </trkpt>
      <trkpt lat="59.869658477642" lon="17.58883712252">
        <ele>19.2</ele>
        <time>2017-10-15T15:30:59Z</time>
      </trkpt>
      <trkpt lat="59.869641965299" lon="17.588808456422">
        <ele>19.2</ele>
        <time>2017-10-15T15:31:00Z</time>
      </trkpt>
      <trkpt lat="59.869627213155" lon="17.588810635716">
        <ele>19.4</ele>
        <time>2017-10-15T15:31:01Z</time>
      </trkpt>
      <trkpt lat="59.869600893989" lon="17.588835027045">
        <ele>19.4</ele>
        <time>2017-10-15T15:31:02Z</time>
      </trkpt>
      <trkpt lat="59.869572144072" lon="17.588866794446">
        <ele>19.4</ele>
        <time>2017-10-15T15:31:03Z</time>
      </trkpt>
      <trkpt lat="59.869539706119" lon="17.588898980942">
        <ele>19.4</ele>
        <time>2017-10-15T15:31:04Z</time>
      </trkpt>
      <trkpt lat="59.869496539334" lon="17.588931670352">
        <ele>19.4</ele>
        <time>2017-10-15T15:31:05Z</time>
      </trkpt>
      <trkpt lat="59.869452031445" lon="17.588954385301">
        <ele>19.4</ele>
        <time>2017-10-15T15:31:06Z</time>
      </trkpt>
      <trkpt lat="59.869404757529" lon="17.588974920956">
        <ele>19.4</ele>
        <time>2017-10-15T15:31:07Z</time>
      </trkpt>
      <trkpt lat="59.869356393966" lon="17.589003587054">
        <ele>19.4</ele>
        <time>2017-10-15T15:31:08Z</time>
      </trkpt>
      <trkpt lat="59.869308784774" lon="17.589033091342">
        <ele>19.2</ele>
        <time>2017-10-15T15:31:09Z</time>
      </trkpt>
      <trkpt lat="59.869258493374" lon="17.589059997241">
        <ele>19</ele>
        <time>2017-10-15T15:31:10Z</time>
      </trkpt>
      <trkpt lat="59.86921608096" lon="17.589076677222">
        <ele>19</ele>
        <time>2017-10-15T15:31:11Z</time>
      </trkpt>
      <trkpt lat="59.869157994393" lon="17.589099643628">
        <ele>18.8</ele>
        <time>2017-10-15T15:31:12Z</time>
      </trkpt>
      <trkpt lat="59.869104434052" lon="17.589134596151">
        <ele>18.8</ele>
        <time>2017-10-15T15:31:13Z</time>
      </trkpt>
      <trkpt lat="59.869053136824" lon="17.589162088783">
        <ele>18.6</ele>
        <time>2017-10-15T15:31:14Z</time>
      </trkpt>
      <trkpt lat="59.869001420501" lon="17.589188072673">
        <ele>18.6</ele>
        <time>2017-10-15T15:31:15Z</time>
      </trkpt>
      <trkpt lat="59.86895540387" lon="17.589206931948">
        <ele>18.6</ele>
        <time>2017-10-15T15:31:16Z</time>
      </trkpt>
      <trkpt lat="59.868916679492" lon="17.589242890299">
        <ele>18.6</ele>
        <time>2017-10-15T15:31:17Z</time>
      </trkpt>
      <trkpt lat="59.868887175204" lon="17.589311370422">
        <ele>18.6</ele>
        <time>2017-10-15T15:31:18Z</time>
      </trkpt>
      <trkpt lat="59.868866974825" lon="17.589380688735">
        <ele>18.6</ele>
        <time>2017-10-15T15:31:19Z</time>
      </trkpt>
      <trkpt lat="59.868836297071" lon="17.589439697311">
        <ele>18.6</ele>
        <time>2017-10-15T15:31:20Z</time>
      </trkpt>
      <trkpt lat="59.868800590177" lon="17.589481522992">
        <ele>18.6</ele>
        <time>2017-10-15T15:31:21Z</time>
      </trkpt>
      <trkpt lat="59.868754405908" lon="17.589520079732">
        <ele>18.6</ele>
        <time>2017-10-15T15:31:22Z</time>
      </trkpt>
      <trkpt lat="59.868714172788" lon="17.589542207948">
        <ele>18.6</ele>
        <time>2017-10-15T15:31:23Z</time>
      </trkpt>
      <trkpt lat="59.868663881388" lon="17.589565425811">
        <ele>18.8</ele>
        <time>2017-10-15T15:31:24Z</time>
      </trkpt>
      <trkpt lat="59.868621049879" lon="17.589590152416">
        <ele>18.8</ele>
        <time>2017-10-15T15:31:25Z</time>
      </trkpt>
      <trkpt lat="59.868576961085" lon="17.589618902333">
        <ele>18.8</ele>
        <time>2017-10-15T15:31:26Z</time>
      </trkpt>
      <trkpt lat="59.868529687169" lon="17.589647316974">
        <ele>18.8</ele>
        <time>2017-10-15T15:31:27Z</time>
      </trkpt>
      <trkpt lat="59.868486185108" lon="17.589678749099">
        <ele>18.8</ele>
        <time>2017-10-15T15:31:28Z</time>
      </trkpt>
      <trkpt lat="59.868439581744" lon="17.589718730762">
        <ele>18.8</ele>
        <time>2017-10-15T15:31:29Z</time>
      </trkpt>
      <trkpt lat="59.868399767719" lon="17.589763071013">
        <ele>18.8</ele>
        <time>2017-10-15T15:31:30Z</time>
      </trkpt>
      <trkpt lat="59.868355762744" lon="17.589807662721">
        <ele>18.6</ele>
        <time>2017-10-15T15:31:31Z</time>
      </trkpt>
      <trkpt lat="59.868307985914" lon="17.589851500058">
        <ele>18.6</ele>
        <time>2017-10-15T15:31:32Z</time>
      </trkpt>
      <trkpt lat="59.868260376722" lon="17.589884440925">
        <ele>18.4</ele>
        <time>2017-10-15T15:31:33Z</time>
      </trkpt>
      <trkpt lat="59.868213354263" lon="17.589902881105">
        <ele>18.2</ele>
        <time>2017-10-15T15:31:34Z</time>
      </trkpt>
      <trkpt lat="59.868150154737" lon="17.589911263005">
        <ele>18</ele>
        <time>2017-10-15T15:31:35Z</time>
      </trkpt>
      <trkpt lat="59.868090559428" lon="17.589904808942">
        <ele>17.8</ele>
        <time>2017-10-15T15:31:36Z</time>
      </trkpt>
      <trkpt lat="59.868027611359" lon="17.589907323512">
        <ele>17.6</ele>
        <time>2017-10-15T15:31:37Z</time>
      </trkpt>
      <trkpt lat="59.867972123181" lon="17.589923332941">
        <ele>17.2</ele>
        <time>2017-10-15T15:31:38Z</time>
      </trkpt>
      <trkpt lat="59.867931638604" lon="17.589911430643">
        <ele>16.4</ele>
        <time>2017-10-15T15:31:39Z</time>
      </trkpt>
      <trkpt lat="59.867882353032" lon="17.589905730951">
        <ele>16.2</ele>
        <time>2017-10-15T15:31:40Z</time>
      </trkpt>
      <trkpt lat="59.867828289777" lon="17.589903970752">
        <ele>15.8</ele>
        <time>2017-10-15T15:31:41Z</time>
      </trkpt>
      <trkpt lat="59.867781434956" lon="17.589898857793">
        <ele>15.4</ele>
        <time>2017-10-15T15:31:42Z</time>
      </trkpt>
      <trkpt lat="59.867740447465" lon="17.589890475893">
        <ele>15.2</ele>
        <time>2017-10-15T15:31:43Z</time>
      </trkpt>
      <trkpt lat="59.867710775539" lon="17.589890140617">
        <ele>15.2</ele>
        <time>2017-10-15T15:31:44Z</time>
      </trkpt>
      <trkpt lat="59.867683199088" lon="17.58989743287">
        <ele>15.4</ele>
        <time>2017-10-15T15:31:45Z</time>
      </trkpt>
      <trkpt lat="59.867660819415" lon="17.589903635476">
        <ele>15.6</ele>
        <time>2017-10-15T15:31:46Z</time>
      </trkpt>
      <trkpt lat="59.867634332611" lon="17.589917381792">
        <ele>16</ele>
        <time>2017-10-15T15:31:47Z</time>
      </trkpt>
      <trkpt lat="59.867613796956" lon="17.589923668217">
        <ele>16.4</ele>
        <time>2017-10-15T15:31:48Z</time>
      </trkpt>
      <trkpt lat="59.867595440595" lon="17.589927020977">
        <ele>16.8</ele>
        <time>2017-10-15T15:31:49Z</time>
      </trkpt>
      <trkpt lat="59.867578341519" lon="17.589925512235">
        <ele>17.2</ele>
        <time>2017-10-15T15:31:50Z</time>
      </trkpt>
      <trkpt lat="59.867568702334" lon="17.589928864995">
        <ele>17.4</ele>
        <time>2017-10-15T15:31:51Z</time>
      </trkpt>
      <trkpt lat="59.867572893284" lon="17.589928194443">
        <ele>17.6</ele>
        <time>2017-10-15T15:31:52Z</time>
      </trkpt>
      <trkpt lat="59.867572222732" lon="17.589924003493">
        <ele>17.6</ele>
        <time>2017-10-15T15:31:53Z</time>
      </trkpt>
      <trkpt lat="59.867383713801" lon="17.590041433912">
        <ele>17.2</ele>
        <time>2017-10-15T15:32:20Z</time>
      </trkpt>
      <trkpt lat="59.867365692716" lon="17.590054006762">
        <ele>17.2</ele>
        <time>2017-10-15T15:32:21Z</time>
      </trkpt>
      <trkpt lat="59.867342223396" lon="17.590070770562">
        <ele>17.2</ele>
        <time>2017-10-15T15:32:22Z</time>
      </trkpt>
      <trkpt lat="59.867275503472" lon="17.590110836044">
        <ele>17</ele>
        <time>2017-10-15T15:32:24Z</time>
      </trkpt>
      <trkpt lat="59.867244490442" lon="17.590129779138">
        <ele>17</ele>
        <time>2017-10-15T15:32:25Z</time>
      </trkpt>
      <trkpt lat="59.867217584543" lon="17.590147800223">
        <ele>16.8</ele>
        <time>2017-10-15T15:32:26Z</time>
      </trkpt>
      <trkpt lat="59.867188666988" lon="17.590167749145">
        <ele>16.4</ele>
        <time>2017-10-15T15:32:27Z</time>
      </trkpt>
      <trkpt lat="59.867162683098" lon="17.590188620076">
        <ele>16.2</ele>
        <time>2017-10-15T15:32:28Z</time>
      </trkpt>
      <trkpt lat="59.867134687552" lon="17.590213765776">
        <ele>15.8</ele>
        <time>2017-10-15T15:32:29Z</time>
      </trkpt>
      <trkpt lat="59.867108536024" lon="17.590240504037">
        <ele>15.2</ele>
        <time>2017-10-15T15:32:30Z</time>
      </trkpt>
      <trkpt lat="59.867084228514" lon="17.590271349429">
        <ele>14.8</ele>
        <time>2017-10-15T15:32:31Z</time>
      </trkpt>
      <trkpt lat="59.867055730054" lon="17.590310828178">
        <ele>14.2</ele>
        <time>2017-10-15T15:32:32Z</time>
      </trkpt>
      <trkpt lat="59.867024549386" lon="17.590348211452">
        <ele>13.6</ele>
        <time>2017-10-15T15:32:33Z</time>
      </trkpt>
      <trkpt lat="59.86699655384" lon="17.590374698256">
        <ele>13.4</ele>
        <time>2017-10-15T15:32:34Z</time>
      </trkpt>
      <trkpt lat="59.866957661824" lon="17.590409315503">
        <ele>12.8</ele>
        <time>2017-10-15T15:32:35Z</time>
      </trkpt>
      <trkpt lat="59.866926564975" lon="17.590431527538">
        <ele>12.6</ele>
        <time>2017-10-15T15:32:36Z</time>
      </trkpt>
      <trkpt lat="59.866889014063" lon="17.590458684894">
        <ele>12.2</ele>
        <time>2017-10-15T15:32:37Z</time>
      </trkpt>
      <trkpt lat="59.866855570282" lon="17.59046069655">
        <ele>11.8</ele>
        <time>2017-10-15T15:32:38Z</time>
      </trkpt>
      <trkpt lat="59.866827155641" lon="17.590445106216">
        <ele>11.4</ele>
        <time>2017-10-15T15:32:39Z</time>
      </trkpt>
      <trkpt lat="59.866801674665" lon="17.590432533366">
        <ele>11.4</ele>
        <time>2017-10-15T15:32:40Z</time>
      </trkpt>
      <trkpt lat="59.86676940435" lon="17.590425073475">
        <ele>11.4</ele>
        <time>2017-10-15T15:32:41Z</time>
      </trkpt>
      <trkpt lat="59.866741911718" lon="17.590430689348">
        <ele>11.4</ele>
        <time>2017-10-15T15:32:42Z</time>
      </trkpt>
      <trkpt lat="59.866714251448" lon="17.590437813963">
        <ele>11.6</ele>
        <time>2017-10-15T15:32:43Z</time>
      </trkpt>
      <trkpt lat="59.866689189567" lon="17.590445357673">
        <ele>11.8</ele>
        <time>2017-10-15T15:32:44Z</time>
      </trkpt>
      <trkpt lat="59.866665971704" lon="17.590459355446">
        <ele>12</ele>
        <time>2017-10-15T15:32:45Z</time>
      </trkpt>
      <trkpt lat="59.866643340574" lon="17.590467821165">
        <ele>12.4</ele>
        <time>2017-10-15T15:32:46Z</time>
      </trkpt>
      <trkpt lat="59.866622553462" lon="17.590475616332">
        <ele>12.6</ele>
        <time>2017-10-15T15:32:47Z</time>
      </trkpt>
      <trkpt lat="59.866598916504" lon="17.590480729291">
        <ele>13.4</ele>
        <time>2017-10-15T15:32:48Z</time>
      </trkpt>
      <trkpt lat="59.86657410608" lon="17.590488273001">
        <ele>13.8</ele>
        <time>2017-10-15T15:32:49Z</time>
      </trkpt>
      <trkpt lat="59.866548373647" lon="17.590490703752">
        <ele>14.4</ele>
        <time>2017-10-15T15:32:50Z</time>
      </trkpt>
      <trkpt lat="59.866524317594" lon="17.590497325453">
        <ele>14.8</ele>
        <time>2017-10-15T15:32:51Z</time>
      </trkpt>
      <trkpt lat="59.866498920437" lon="17.590508054285">
        <ele>15.2</ele>
        <time>2017-10-15T15:32:52Z</time>
      </trkpt>
      <trkpt lat="59.866474612927" lon="17.590512245235">
        <ele>15.6</ele>
        <time>2017-10-15T15:32:53Z</time>
      </trkpt>
      <trkpt lat="59.866443683716" lon="17.590514508348">
        <ele>16</ele>
        <time>2017-10-15T15:32:54Z</time>
      </trkpt>
      <trkpt lat="59.866414598523" lon="17.590516687642">
        <ele>16.2</ele>
        <time>2017-10-15T15:32:55Z</time>
      </trkpt>
      <trkpt lat="59.866384591321" lon="17.590519453669">
        <ele>16.6</ele>
        <time>2017-10-15T15:32:56Z</time>
      </trkpt>
      <trkpt lat="59.86635282392" lon="17.590529511949">
        <ele>16.8</ele>
        <time>2017-10-15T15:32:57Z</time>
      </trkpt>
      <trkpt lat="59.866316446474" lon="17.59054116279">
        <ele>17</ele>
        <time>2017-10-15T15:32:58Z</time>
      </trkpt>
      <trkpt lat="59.866284595254" lon="17.590548203586">
        <ele>17.2</ele>
        <time>2017-10-15T15:32:59Z</time>
      </trkpt>
      <trkpt lat="59.866246960523" lon="17.590559183875">
        <ele>17.4</ele>
        <time>2017-10-15T15:33:00Z</time>
      </trkpt>
      <trkpt lat="59.866214354932" lon="17.590563291006">
        <ele>17.6</ele>
        <time>2017-10-15T15:33:01Z</time>
      </trkpt>
      <trkpt lat="59.866175630554" lon="17.590574438933">
        <ele>17.8</ele>
        <time>2017-10-15T15:33:02Z</time>
      </trkpt>
      <trkpt lat="59.866138666375" lon="17.590584916308">
        <ele>17.8</ele>
        <time>2017-10-15T15:33:03Z</time>
      </trkpt>
      <trkpt lat="59.866101618377" lon="17.590588185249">
        <ele>17.8</ele>
        <time>2017-10-15T15:33:04Z</time>
      </trkpt>
      <trkpt lat="59.866068090777" lon="17.590591035095">
        <ele>17.8</ele>
        <time>2017-10-15T15:33:05Z</time>
      </trkpt>
      <trkpt lat="59.866031545693" lon="17.590600255185">
        <ele>17.8</ele>
        <time>2017-10-15T15:33:06Z</time>
      </trkpt>
      <trkpt lat="59.865993575686" lon="17.590611654569">
        <ele>17.8</ele>
        <time>2017-10-15T15:33:07Z</time>
      </trkpt>
      <trkpt lat="59.865960718638" lon="17.590617605718">
        <ele>17.8</ele>
        <time>2017-10-15T15:33:08Z</time>
      </trkpt>
      <trkpt lat="59.865928867418" lon="17.590634956251">
        <ele>18</ele>
        <time>2017-10-15T15:33:09Z</time>
      </trkpt>
      <trkpt lat="59.865899279311" lon="17.590655827182">
        <ele>18.2</ele>
        <time>2017-10-15T15:33:10Z</time>
      </trkpt>
      <trkpt lat="59.865875809991" lon="17.590680050873">
        <ele>18.2</ele>
        <time>2017-10-15T15:33:11Z</time>
      </trkpt>
      <trkpt lat="59.865846976255" lon="17.590712405007">
        <ele>18.4</ele>
        <time>2017-10-15T15:33:12Z</time>
      </trkpt>
      <trkpt lat="59.865817471967" lon="17.59074735753">
        <ele>18.6</ele>
        <time>2017-10-15T15:33:13Z</time>
      </trkpt>
      <trkpt lat="59.865789476421" lon="17.59078088513">
        <ele>18.6</ele>
        <time>2017-10-15T15:33:14Z</time>
      </trkpt>
      <trkpt lat="59.865763995445" lon="17.590824638648">
        <ele>18.8</ele>
        <time>2017-10-15T15:33:15Z</time>
      </trkpt>
      <trkpt lat="59.865741531953" lon="17.590868559804">
        <ele>19</ele>
        <time>2017-10-15T15:33:16Z</time>
      </trkpt>
      <trkpt lat="59.865717559719" lon="17.590919773213">
        <ele>19</ele>
        <time>2017-10-15T15:33:17Z</time>
      </trkpt>
      <trkpt lat="59.865692665476" lon="17.5909761834">
        <ele>19</ele>
        <time>2017-10-15T15:33:18Z</time>
      </trkpt>
      <trkpt lat="59.865668190328" lon="17.591025301334">
        <ele>19.2</ele>
        <time>2017-10-15T15:33:19Z</time>
      </trkpt>
      <trkpt lat="59.865640194782" lon="17.591068468119">
        <ele>19.2</ele>
        <time>2017-10-15T15:33:20Z</time>
      </trkpt>
      <trkpt lat="59.865614797625" lon="17.591110964352">
        <ele>19.2</ele>
        <time>2017-10-15T15:33:21Z</time>
      </trkpt>
      <trkpt lat="59.865585377156" lon="17.591160333743">
        <ele>19.4</ele>
        <time>2017-10-15T15:33:22Z</time>
      </trkpt>
      <trkpt lat="59.865559644723" lon="17.591201069777">
        <ele>19.6</ele>
        <time>2017-10-15T15:33:23Z</time>
      </trkpt>
      <trkpt lat="59.865529302245" lon="17.591250187711">
        <ele>19.6</ele>
        <time>2017-10-15T15:33:24Z</time>
      </trkpt>
      <trkpt lat="59.865502312527" lon="17.591296623437">
        <ele>19.8</ele>
        <time>2017-10-15T15:33:25Z</time>
      </trkpt>
      <trkpt lat="59.865477083008" lon="17.591341466602">
        <ele>19.8</ele>
        <time>2017-10-15T15:33:26Z</time>
      </trkpt>
      <trkpt lat="59.865448500729" lon="17.591386645043">
        <ele>19.8</ele>
        <time>2017-10-15T15:33:27Z</time>
      </trkpt>
      <trkpt lat="59.865418074432" lon="17.591436517348">
        <ele>19.8</ele>
        <time>2017-10-15T15:33:28Z</time>
      </trkpt>
      <trkpt lat="59.865400472442" lon="17.59146317179">
        <ele>20</ele>
        <time>2017-10-15T15:33:29Z</time>
      </trkpt>
      <trkpt lat="59.86535286325" lon="17.5915210069">
        <ele>20</ele>
        <time>2017-10-15T15:33:30Z</time>
      </trkpt>
      <trkpt lat="59.865317910727" lon="17.59153944708">
        <ele>20</ele>
        <time>2017-10-15T15:33:31Z</time>
      </trkpt>
      <trkpt lat="59.865276085046" lon="17.591548750989">
        <ele>20.2</ele>
        <time>2017-10-15T15:33:32Z</time>
      </trkpt>
      <trkpt lat="59.865238198858" lon="17.591531232818">
        <ele>20.2</ele>
        <time>2017-10-15T15:33:33Z</time>
      </trkpt>
      <trkpt lat="59.865199558299" lon="17.591515391027">
        <ele>20.4</ele>
        <time>2017-10-15T15:33:34Z</time>
      </trkpt>
      <trkpt lat="59.865162761758" lon="17.591506254756">
        <ele>20.4</ele>
        <time>2017-10-15T15:33:35Z</time>
      </trkpt>
      <trkpt lat="59.86512152281" lon="17.591508098774">
        <ele>20.6</ele>
        <time>2017-10-15T15:33:36Z</time>
      </trkpt>
      <trkpt lat="59.86507877512" lon="17.591521425995">
        <ele>20.6</ele>
        <time>2017-10-15T15:33:37Z</time>
      </trkpt>
      <trkpt lat="59.865036697982" lon="17.591529640257">
        <ele>20.8</ele>
        <time>2017-10-15T15:33:38Z</time>
      </trkpt>
      <trkpt lat="59.864993615016" lon="17.591529891714">
        <ele>20.8</ele>
        <time>2017-10-15T15:33:39Z</time>
      </trkpt>
      <trkpt lat="59.864948939489" lon="17.591532406284">
        <ele>21</ele>
        <time>2017-10-15T15:33:40Z</time>
      </trkpt>
      <trkpt lat="59.864912310586" lon="17.591536261958">
        <ele>21</ele>
        <time>2017-10-15T15:33:41Z</time>
      </trkpt>
      <trkpt lat="59.864867467421" lon="17.591531987189">
        <ele>21</ele>
        <time>2017-10-15T15:33:42Z</time>
      </trkpt>
      <trkpt lat="59.864822624256" lon="17.591529640257">
        <ele>21</ele>
        <time>2017-10-15T15:33:43Z</time>
      </trkpt>
      <trkpt lat="59.864778870738" lon="17.591535088492">
        <ele>21</ele>
        <time>2017-10-15T15:33:44Z</time>
      </trkpt>
      <trkpt lat="59.864738889075" lon="17.59154950536">
        <ele>21</ele>
        <time>2017-10-15T15:33:45Z</time>
      </trkpt>
      <trkpt lat="59.864702763086" lon="17.591556629975">
        <ele>21</ele>
        <time>2017-10-15T15:33:46Z</time>
      </trkpt>
      <trkpt lat="59.864667307649" lon="17.59156543097">
        <ele>21</ele>
        <time>2017-10-15T15:33:47Z</time>
      </trkpt>
      <trkpt lat="59.86463118166" lon="17.591580099295">
        <ele>21</ele>
        <time>2017-10-15T15:33:48Z</time>
      </trkpt>
      <trkpt lat="59.864598408431" lon="17.591596444">
        <ele>21</ele>
        <time>2017-10-15T15:33:49Z</time>
      </trkpt>
      <trkpt lat="59.864565635202" lon="17.591606921375">
        <ele>21.2</ele>
        <time>2017-10-15T15:33:50Z</time>
      </trkpt>
      <trkpt lat="59.864540992416" lon="17.591617063474">
        <ele>21.2</ele>
        <time>2017-10-15T15:33:51Z</time>
      </trkpt>
      <trkpt lat="59.86451383506" lon="17.591645226658">
        <ele>21.2</ele>
        <time>2017-10-15T15:33:52Z</time>
      </trkpt>
      <trkpt lat="59.864484833686" lon="17.591693841678">
        <ele>21.4</ele>
        <time>2017-10-15T15:33:53Z</time>
      </trkpt>
      <trkpt lat="59.864459855624" lon="17.591743211069">
        <ele>21.4</ele>
        <time>2017-10-15T15:33:54Z</time>
      </trkpt>
      <trkpt lat="59.864436470123" lon="17.591787718958">
        <ele>21.2</ele>
        <time>2017-10-15T15:33:55Z</time>
      </trkpt>
      <trkpt lat="59.864420712151" lon="17.591812277925">
        <ele>21</ele>
        <time>2017-10-15T15:33:56Z</time>
      </trkpt>
      <trkpt lat="59.864409564224" lon="17.591827700621">
        <ele>20.8</ele>
        <time>2017-10-15T15:33:57Z</time>
      </trkpt>
      <trkpt lat="59.86441409045" lon="17.591827868259">
        <ele>20.8</ele>
        <time>2017-10-15T15:33:58Z</time>
      </trkpt>
      <trkpt lat="59.864413168441" lon="17.591821414196">
        <ele>20.6</ele>
        <time>2017-10-15T15:33:59Z</time>
      </trkpt>
      <trkpt lat="59.864415683011" lon="17.591819318721">
        <ele>20.6</ele>
        <time>2017-10-15T15:34:00Z</time>
      </trkpt>
      <trkpt lat="59.864601090639" lon="17.591826610974">
        <ele>20.8</ele>
        <time>2017-10-15T15:38:05Z</time>
      </trkpt>
      <trkpt lat="59.864602515562" lon="17.591803141654">
        <ele>20.8</ele>
        <time>2017-10-15T15:38:06Z</time>
      </trkpt>
      <trkpt lat="59.864600252449" lon="17.591769781692">
        <ele>20.8</ele>
        <time>2017-10-15T15:38:07Z</time>
      </trkpt>
      <trkpt lat="59.864589775074" lon="17.591738768662">
        <ele>20.8</ele>
        <time>2017-10-15T15:38:08Z</time>
      </trkpt>
      <trkpt lat="59.864572424541" lon="17.591717897731">
        <ele>20.8</ele>
        <time>2017-10-15T15:38:09Z</time>
      </trkpt>
      <trkpt lat="59.864547865574" lon="17.591686633244">
        <ele>20.8</ele>
        <time>2017-10-15T15:38:10Z</time>
      </trkpt>
      <trkpt lat="59.86452473153" lon="17.591660481716">
        <ele>20.8</ele>
        <time>2017-10-15T15:38:11Z</time>
      </trkpt>
      <trkpt lat="59.864494640509" lon="17.591636760939">
        <ele>21</ele>
        <time>2017-10-15T15:38:12Z</time>
      </trkpt>
      <trkpt lat="59.864466393506" lon="17.591633575817">
        <ele>21.2</ele>
        <time>2017-10-15T15:38:13Z</time>
      </trkpt>
      <trkpt lat="59.864434626105" lon="17.591626032107">
        <ele>21.4</ele>
        <time>2017-10-15T15:38:14Z</time>
      </trkpt>
      <trkpt lat="59.864408390758" lon="17.591618739854">
        <ele>21.4</ele>
        <time>2017-10-15T15:38:15Z</time>
      </trkpt>
      <trkpt lat="59.864381820135" lon="17.591617231112">
        <ele>21.6</ele>
        <time>2017-10-15T15:38:16Z</time>
      </trkpt>
      <trkpt lat="59.864352734942" lon="17.591617817845">
        <ele>21.6</ele>
        <time>2017-10-15T15:38:17Z</time>
      </trkpt>
      <trkpt lat="59.864317363324" lon="17.591608262479">
        <ele>21.6</ele>
        <time>2017-10-15T15:38:18Z</time>
      </trkpt>
      <trkpt lat="59.86428500919" lon="17.591606334642">
        <ele>21.8</ele>
        <time>2017-10-15T15:38:19Z</time>
      </trkpt>
      <trkpt lat="59.864247039183" lon="17.591599461484">
        <ele>21.8</ele>
        <time>2017-10-15T15:38:20Z</time>
      </trkpt>
      <trkpt lat="59.86421124847" lon="17.591592755964">
        <ele>21.8</ele>
        <time>2017-10-15T15:38:21Z</time>
      </trkpt>
      <trkpt lat="59.864170260979" lon="17.59159057667">
        <ele>21.8</ele>
        <time>2017-10-15T15:38:22Z</time>
      </trkpt>
      <trkpt lat="59.864130279316" lon="17.591586050444">
        <ele>21.8</ele>
        <time>2017-10-15T15:38:23Z</time>
      </trkpt>
      <trkpt lat="59.864088705092" lon="17.591582781503">
        <ele>21.6</ele>
        <time>2017-10-15T15:38:24Z</time>
      </trkpt>
      <trkpt lat="59.864052411465" lon="17.591569789558">
        <ele>21.6</ele>
        <time>2017-10-15T15:38:25Z</time>
      </trkpt>
      <trkpt lat="59.864012932716" lon="17.591555456509">
        <ele>21.6</ele>
        <time>2017-10-15T15:38:26Z</time>
      </trkpt>
      <trkpt lat="59.863962725135" lon="17.59153860889">
        <ele>21.6</ele>
        <time>2017-10-15T15:38:27Z</time>
      </trkpt>
      <trkpt lat="59.863914026296" lon="17.591517821778">
        <ele>21.6</ele>
        <time>2017-10-15T15:38:28Z</time>
      </trkpt>
      <trkpt lat="59.863866417104" lon="17.591496531752">
        <ele>21.6</ele>
        <time>2017-10-15T15:38:29Z</time>
      </trkpt>
      <trkpt lat="59.863810509831" lon="17.591464093799">
        <ele>21.6</ele>
        <time>2017-10-15T15:38:30Z</time>
      </trkpt>
      <trkpt lat="59.863761056621" lon="17.591433416045">
        <ele>21.6</ele>
        <time>2017-10-15T15:38:31Z</time>
      </trkpt>
      <trkpt lat="59.86370414352" lon="17.591393099106">
        <ele>21.4</ele>
        <time>2017-10-15T15:38:32Z</time>
      </trkpt>
      <trkpt lat="59.863650750817" lon="17.591352782167">
        <ele>21.4</ele>
        <time>2017-10-15T15:38:33Z</time>
      </trkpt>
      <trkpt lat="59.863597525752" lon="17.591312968142">
        <ele>21.2</ele>
        <time>2017-10-15T15:38:34Z</time>
      </trkpt>
      <trkpt lat="59.863550000379" lon="17.591282038931">
        <ele>21.2</ele>
        <time>2017-10-15T15:38:35Z</time>
      </trkpt>
      <trkpt lat="59.863496440038" lon="17.591243398372">
        <ele>21</ele>
        <time>2017-10-15T15:38:36Z</time>
      </trkpt>
      <trkpt lat="59.863443131154" lon="17.591202410881">
        <ele>20.8</ele>
        <time>2017-10-15T15:38:37Z</time>
      </trkpt>
      <trkpt lat="59.863386720967" lon="17.591153963499">
        <ele>20.8</ele>
        <time>2017-10-15T15:38:38Z</time>
      </trkpt>
      <trkpt lat="59.863337183938" lon="17.591105767574">
        <ele>20.8</ele>
        <time>2017-10-15T15:38:39Z</time>
      </trkpt>
      <trkpt lat="59.863285299977" lon="17.591063187522">
        <ele>20.6</ele>
        <time>2017-10-15T15:38:40Z</time>
      </trkpt>
      <trkpt lat="59.863241127364" lon="17.591034605243">
        <ele>20.6</ele>
        <time>2017-10-15T15:38:41Z</time>
      </trkpt>
      <trkpt lat="59.863180107132" lon="17.590993031019">
        <ele>20.6</ele>
        <time>2017-10-15T15:38:42Z</time>
      </trkpt>
      <trkpt lat="59.863126127696" lon="17.590955647745">
        <ele>20.8</ele>
        <time>2017-10-15T15:38:43Z</time>
      </trkpt>
      <trkpt lat="59.863070555699" lon="17.590917342462">
        <ele>20.4</ele>
        <time>2017-10-15T15:38:44Z</time>
      </trkpt>
      <trkpt lat="59.863016911539" lon="17.590876690247">
        <ele>20.4</ele>
        <time>2017-10-15T15:38:45Z</time>
      </trkpt>
      <trkpt lat="59.86296318356" lon="17.59084123481">
        <ele>20</ele>
        <time>2017-10-15T15:38:46Z</time>
      </trkpt>
      <trkpt lat="59.862908198296" lon="17.590803683898">
        <ele>19.8</ele>
        <time>2017-10-15T15:38:47Z</time>
      </trkpt>
      <trkpt lat="59.862846591331" lon="17.59075573943">
        <ele>19.4</ele>
        <time>2017-10-15T15:38:48Z</time>
      </trkpt>
      <trkpt lat="59.862790181144" lon="17.590716763595">
        <ele>19.2</ele>
        <time>2017-10-15T15:38:49Z</time>
      </trkpt>
      <trkpt lat="59.862734525328" lon="17.590676865751">
        <ele>19.2</ele>
        <time>2017-10-15T15:38:50Z</time>
      </trkpt>
      <trkpt lat="59.862682809005" lon="17.590639901572">
        <ele>19.2</ele>
        <time>2017-10-15T15:38:51Z</time>
      </trkpt>
      <trkpt lat="59.862625644447" lon="17.590602853574">
        <ele>19.2</ele>
        <time>2017-10-15T15:38:52Z</time>
      </trkpt>
      <trkpt lat="59.862571162097" lon="17.590565721757">
        <ele>19</ele>
        <time>2017-10-15T15:38:53Z</time>
      </trkpt>
      <trkpt lat="59.862509555132" lon="17.590524231352">
        <ele>19.2</ele>
        <time>2017-10-15T15:38:54Z</time>
      </trkpt>
      <trkpt lat="59.86245272585" lon="17.590485087879">
        <ele>19.2</ele>
        <time>2017-10-15T15:38:55Z</time>
      </trkpt>
      <trkpt lat="59.862403943192" lon="17.590439490343">
        <ele>19</ele>
        <time>2017-10-15T15:38:56Z</time>
      </trkpt>
      <trkpt lat="59.862348035919" lon="17.590389198943">
        <ele>19</ele>
        <time>2017-10-15T15:38:57Z</time>
      </trkpt>
      <trkpt lat="59.862295649044" lon="17.590342176484">
        <ele>18.8</ele>
        <time>2017-10-15T15:38:58Z</time>
      </trkpt>
      <trkpt lat="59.86227335319" lon="17.590325161227">
        <ele>18.8</ele>
        <time>2017-10-15T15:38:59Z</time>
      </trkpt>
      <trkpt lat="59.86219372514" lon="17.590271936162">
        <ele>18.6</ele>
        <time>2017-10-15T15:39:00Z</time>
      </trkpt>
      <trkpt lat="59.862137063496" lon="17.590239330571">
        <ele>18.6</ele>
        <time>2017-10-15T15:39:01Z</time>
      </trkpt>
      <trkpt lat="59.862081156223" lon="17.59020337222">
        <ele>18.4</ele>
        <time>2017-10-15T15:39:02Z</time>
      </trkpt>
      <trkpt lat="59.862027260606" lon="17.590171269543">
        <ele>18.4</ele>
        <time>2017-10-15T15:39:03Z</time>
      </trkpt>
      <trkpt lat="59.861972023885" lon="17.590143441635">
        <ele>18.6</ele>
        <time>2017-10-15T15:39:04Z</time>
      </trkpt>
      <trkpt lat="59.8619456209" lon="17.590124414722">
        <ele>18.6</ele>
        <time>2017-10-15T15:39:05Z</time>
      </trkpt>
      <trkpt lat="59.861874290931" lon="17.590071273476">
        <ele>18.6</ele>
        <time>2017-10-15T15:39:06Z</time>
      </trkpt>
      <trkpt lat="59.861823077522" lon="17.590023329008">
        <ele>18.6</ele>
        <time>2017-10-15T15:39:07Z</time>
      </trkpt>
      <trkpt lat="59.861773372855" lon="17.589975971273">
        <ele>18.6</ele>
        <time>2017-10-15T15:39:08Z</time>
      </trkpt>
      <trkpt lat="59.861725344568" lon="17.589938420361">
        <ele>18.8</ele>
        <time>2017-10-15T15:39:09Z</time>
      </trkpt>
      <trkpt lat="59.861679998489" lon="17.589906820598">
        <ele>18.8</ele>
        <time>2017-10-15T15:39:10Z</time>
      </trkpt>
      <trkpt lat="59.861641022654" lon="17.589879076509">
        <ele>18.8</ele>
        <time>2017-10-15T15:39:11Z</time>
      </trkpt>
      <trkpt lat="59.861590898892" lon="17.589843621072">
        <ele>19</ele>
        <time>2017-10-15T15:39:12Z</time>
      </trkpt>
      <trkpt lat="59.861546223365" lon="17.589812105128">
        <ele>19</ele>
        <time>2017-10-15T15:39:13Z</time>
      </trkpt>
      <trkpt lat="59.861504146227" lon="17.589778996623">
        <ele>19.2</ele>
        <time>2017-10-15T15:39:14Z</time>
      </trkpt>
      <trkpt lat="59.861461230899" lon="17.58974069134">
        <ele>19.4</ele>
        <time>2017-10-15T15:39:15Z</time>
      </trkpt>
      <trkpt lat="59.861420243408" lon="17.589706074093">
        <ele>19.4</ele>
        <time>2017-10-15T15:39:16Z</time>
      </trkpt>
      <trkpt lat="59.861375819338" lon="17.589671456846">
        <ele>19.6</ele>
        <time>2017-10-15T15:39:17Z</time>
      </trkpt>
      <trkpt lat="59.861327623413" lon="17.589644718585">
        <ele>19.6</ele>
        <time>2017-10-15T15:39:18Z</time>
      </trkpt>
      <trkpt lat="59.861282025877" lon="17.589615381935">
        <ele>19.8</ele>
        <time>2017-10-15T15:39:19Z</time>
      </trkpt>
      <trkpt lat="59.86123399759" lon="17.589592666986">
        <ele>20</ele>
        <time>2017-10-15T15:39:20Z</time>
      </trkpt>
      <trkpt lat="59.861188567692" lon="17.58957305334">
        <ele>20</ele>
        <time>2017-10-15T15:39:21Z</time>
      </trkpt>
      <trkpt lat="59.861139030663" lon="17.589552266228">
        <ele>20</ele>
        <time>2017-10-15T15:39:22Z</time>
      </trkpt>
      <trkpt lat="59.861090918557" lon="17.589533826048">
        <ele>20.2</ele>
        <time>2017-10-15T15:39:23Z</time>
      </trkpt>
      <trkpt lat="59.861036520026" lon="17.589509853814">
        <ele>20.4</ele>
        <time>2017-10-15T15:39:24Z</time>
      </trkpt>
      <trkpt lat="59.860988659377" lon="17.589489150521">
        <ele>20.4</ele>
        <time>2017-10-15T15:39:25Z</time>
      </trkpt>
      <trkpt lat="59.860944402945" lon="17.589472219083">
        <ele>20.4</ele>
        <time>2017-10-15T15:39:26Z</time>
      </trkpt>
      <trkpt lat="59.86089369245" lon="17.589462244622">
        <ele>20.4</ele>
        <time>2017-10-15T15:39:27Z</time>
      </trkpt>
      <trkpt lat="59.860849184561" lon="17.589450090867">
        <ele>20.6</ele>
        <time>2017-10-15T15:39:28Z</time>
      </trkpt>
      <trkpt lat="59.860808783803" lon="17.589443888261">
        <ele>20.6</ele>
        <time>2017-10-15T15:39:29Z</time>
      </trkpt>
      <trkpt lat="59.860761006973" lon="17.589428717022">
        <ele>20.8</ele>
        <time>2017-10-15T15:39:30Z</time>
      </trkpt>
      <trkpt lat="59.860722617871" lon="17.589403236046">
        <ele>20.8</ele>
        <time>2017-10-15T15:39:31Z</time>
      </trkpt>
      <trkpt lat="59.860682300932" lon="17.589364008754">
        <ele>21</ele>
        <time>2017-10-15T15:39:32Z</time>
      </trkpt>
      <trkpt lat="59.860646007305" lon="17.58931824358">
        <ele>21.2</ele>
        <time>2017-10-15T15:39:33Z</time>
      </trkpt>
      <trkpt lat="59.86060786966" lon="17.589271891673">
        <ele>21.4</ele>
        <time>2017-10-15T15:39:34Z</time>
      </trkpt>
      <trkpt lat="59.860587836919" lon="17.58925286476">
        <ele>21.4</ele>
        <time>2017-10-15T15:39:35Z</time>
      </trkpt>
      <trkpt lat="59.860530169447" lon="17.589199807333">
        <ele>21.6</ele>
        <time>2017-10-15T15:39:36Z</time>
      </trkpt>
      <trkpt lat="59.86048633211" lon="17.589152533417">
        <ele>21.6</ele>
        <time>2017-10-15T15:39:37Z</time>
      </trkpt>
      <trkpt lat="59.860440818393" lon="17.589104086035">
        <ele>21.8</ele>
        <time>2017-10-15T15:39:38Z</time>
      </trkpt>
      <trkpt lat="59.860395137038" lon="17.589057482671">
        <ele>21.8</ele>
        <time>2017-10-15T15:39:39Z</time>
      </trkpt>
      <trkpt lat="59.860348114579" lon="17.58901565699">
        <ele>21.8</ele>
        <time>2017-10-15T15:39:40Z</time>
      </trkpt>
      <trkpt lat="59.860301511215" lon="17.588972993119">
        <ele>21.8</ele>
        <time>2017-10-15T15:39:41Z</time>
      </trkpt>
      <trkpt lat="59.860268067434" lon="17.588953547111">
        <ele>21.8</ele>
        <time>2017-10-15T15:39:42Z</time>
      </trkpt>
      <trkpt lat="59.860196821284" lon="17.58890250134">
        <ele>21.6</ele>
        <time>2017-10-15T15:39:43Z</time>
      </trkpt>
      <trkpt lat="59.860146194608" lon="17.588872242681">
        <ele>21.4</ele>
        <time>2017-10-15T15:39:44Z</time>
      </trkpt>
      <trkpt lat="59.860096154665" lon="17.588847767533">
        <ele>21.2</ele>
        <time>2017-10-15T15:39:45Z</time>
      </trkpt>
      <trkpt lat="59.860049467482" lon="17.588819185254">
        <ele>21.2</ele>
        <time>2017-10-15T15:39:46Z</time>
      </trkpt>
      <trkpt lat="59.86000353467" lon="17.588785741473">
        <ele>21.2</ele>
        <time>2017-10-15T15:39:47Z</time>
      </trkpt>
      <trkpt lat="59.85995240508" lon="17.588743329059">
        <ele>21.2</ele>
        <time>2017-10-15T15:39:48Z</time>
      </trkpt>
      <trkpt lat="59.859913177788" lon="17.588698402075">
        <ele>21.2</ele>
        <time>2017-10-15T15:39:49Z</time>
      </trkpt>
      <trkpt lat="59.859880488378" lon="17.588633358531">
        <ele>21.4</ele>
        <time>2017-10-15T15:39:50Z</time>
      </trkpt>
      <trkpt lat="59.859857186696" lon="17.588559933087">
        <ele>21.4</ele>
        <time>2017-10-15T15:39:51Z</time>
      </trkpt>
      <trkpt lat="59.859830113159" lon="17.588488686937">
        <ele>21.4</ele>
        <time>2017-10-15T15:39:52Z</time>
      </trkpt>
      <trkpt lat="59.859801782337" lon="17.58841467476">
        <ele>21.6</ele>
        <time>2017-10-15T15:39:53Z</time>
      </trkpt>
      <trkpt lat="59.859768338556" lon="17.588334627615">
        <ele>21.8</ele>
        <time>2017-10-15T15:39:54Z</time>
      </trkpt>
      <trkpt lat="59.859736068241" lon="17.588264303474">
        <ele>22</ele>
        <time>2017-10-15T15:39:55Z</time>
      </trkpt>
      <trkpt lat="59.859703965564" lon="17.58819842174">
        <ele>22.2</ele>
        <time>2017-10-15T15:39:56Z</time>
      </trkpt>
      <trkpt lat="59.859667252842" lon="17.58813220473">
        <ele>22.2</ele>
        <time>2017-10-15T15:39:57Z</time>
      </trkpt>
      <trkpt lat="59.859629869568" lon="17.58807436962">
        <ele>22.4</ele>
        <time>2017-10-15T15:39:58Z</time>
      </trkpt>
      <trkpt lat="59.85959198338" lon="17.588022150383">
        <ele>22.4</ele>
        <time>2017-10-15T15:39:59Z</time>
      </trkpt>
      <trkpt lat="59.859546804939" lon="17.58797043406">
        <ele>22.4</ele>
        <time>2017-10-15T15:40:00Z</time>
      </trkpt>
      <trkpt lat="59.859506823276" lon="17.587929865664">
        <ele>22.6</ele>
        <time>2017-10-15T15:40:01Z</time>
      </trkpt>
      <trkpt lat="59.859464075586" lon="17.587877059694">
        <ele>22.6</ele>
        <time>2017-10-15T15:40:02Z</time>
      </trkpt>
      <trkpt lat="59.859425267389" lon="17.58781955986">
        <ele>22.8</ele>
        <time>2017-10-15T15:40:03Z</time>
      </trkpt>
      <trkpt lat="59.859386375373" lon="17.587763065854">
        <ele>23</ele>
        <time>2017-10-15T15:40:04Z</time>
      </trkpt>
      <trkpt lat="59.859357206361" lon="17.587710259884">
        <ele>23</ele>
        <time>2017-10-15T15:40:05Z</time>
      </trkpt>
      <trkpt lat="59.859318984897" lon="17.587633984594">
        <ele>23.2</ele>
        <time>2017-10-15T15:40:06Z</time>
      </trkpt>
      <trkpt lat="59.859286966039" lon="17.587561145883">
        <ele>23.2</ele>
        <time>2017-10-15T15:40:07Z</time>
      </trkpt>
      <trkpt lat="59.859257880846" lon="17.587481853109">
        <ele>23.4</ele>
        <time>2017-10-15T15:40:08Z</time>
      </trkpt>
      <trkpt lat="59.859232232232" lon="17.587397866471">
        <ele>23.6</ele>
        <time>2017-10-15T15:40:09Z</time>
      </trkpt>
      <trkpt lat="59.85920557779" lon="17.587323854294">
        <ele>23.6</ele>
        <time>2017-10-15T15:40:10Z</time>
      </trkpt>
      <trkpt lat="59.859176073502" lon="17.587266605917">
        <ele>23.6</ele>
        <time>2017-10-15T15:40:11Z</time>
      </trkpt>
      <trkpt lat="59.859139612237" lon="17.587201730011">
        <ele>23.8</ele>
        <time>2017-10-15T15:40:12Z</time>
      </trkpt>
      <trkpt lat="59.8591041568" lon="17.587144062539">
        <ele>24</ele>
        <time>2017-10-15T15:40:13Z</time>
      </trkpt>
      <trkpt lat="59.859071551209" lon="17.587085892153">
        <ele>24</ele>
        <time>2017-10-15T15:40:14Z</time>
      </trkpt>
      <trkpt lat="59.859038945618" lon="17.587032247993">
        <ele>24.2</ele>
        <time>2017-10-15T15:40:15Z</time>
      </trkpt>
      <trkpt lat="59.859009776606" lon="17.586986231362">
        <ele>24.4</ele>
        <time>2017-10-15T15:40:16Z</time>
      </trkpt>
      <trkpt lat="59.858978260662" lon="17.58694029855">
        <ele>24.6</ele>
        <time>2017-10-15T15:40:17Z</time>
      </trkpt>
      <trkpt lat="59.858949594564" lon="17.586894952471">
        <ele>24.8</ele>
        <time>2017-10-15T15:40:18Z</time>
      </trkpt>
      <trkpt lat="59.858919000629" lon="17.586847762374">
        <ele>25</ele>
        <time>2017-10-15T15:40:19Z</time>
      </trkpt>
      <trkpt lat="59.858888406694" lon="17.586803757399">
        <ele>25.4</ele>
        <time>2017-10-15T15:40:20Z</time>
      </trkpt>
      <trkpt lat="59.858860662605" lon="17.586759584786">
        <ele>25.4</ele>
        <time>2017-10-15T15:40:21Z</time>
      </trkpt>
      <trkpt lat="59.858829733394" lon="17.586721279503">
        <ele>25.6</ele>
        <time>2017-10-15T15:40:22Z</time>
      </trkpt>
      <trkpt lat="59.858790254645" lon="17.586669227904">
        <ele>25.8</ele>
        <time>2017-10-15T15:40:23Z</time>
      </trkpt>
      <trkpt lat="59.858756224131" lon="17.586623798006">
        <ele>25.8</ele>
        <time>2017-10-15T15:40:24Z</time>
      </trkpt>
      <trkpt lat="59.858719930504" lon="17.586578368108">
        <ele>26</ele>
        <time>2017-10-15T15:40:25Z</time>
      </trkpt>
      <trkpt lat="59.858683804515" lon="17.58653545278">
        <ele>26</ele>
        <time>2017-10-15T15:40:26Z</time>
      </trkpt>
      <trkpt lat="59.858642146472" lon="17.586483149724">
        <ele>26</ele>
        <time>2017-10-15T15:40:27Z</time>
      </trkpt>
      <trkpt lat="59.858607780682" lon="17.586431936315">
        <ele>26</ele>
        <time>2017-10-15T15:40:28Z</time>
      </trkpt>
      <trkpt lat="59.858563943345" lon="17.586375693766">
        <ele>26.2</ele>
        <time>2017-10-15T15:40:29Z</time>
      </trkpt>
      <trkpt lat="59.858520106008" lon="17.586333951904">
        <ele>26</ele>
        <time>2017-10-15T15:40:30Z</time>
      </trkpt>
      <trkpt lat="59.858476939223" lon="17.586301430132">
        <ele>26</ele>
        <time>2017-10-15T15:40:31Z</time>
      </trkpt>
      <trkpt lat="59.858425390538" lon="17.58627309931">
        <ele>26</ele>
        <time>2017-10-15T15:40:32Z</time>
      </trkpt>
      <trkpt lat="59.858375434414" lon="17.586251809284">
        <ele>25.8</ele>
        <time>2017-10-15T15:40:33Z</time>
      </trkpt>
      <trkpt lat="59.858329585421" lon="17.586238984977">
        <ele>25.8</ele>
        <time>2017-10-15T15:40:34Z</time>
      </trkpt>
      <trkpt lat="59.858275522166" lon="17.586226663584">
        <ele>25.8</ele>
        <time>2017-10-15T15:40:35Z</time>
      </trkpt>
      <trkpt lat="59.858229673173" lon="17.58622113153">
        <ele>25.8</ele>
        <time>2017-10-15T15:40:36Z</time>
      </trkpt>
      <trkpt lat="59.858180806696" lon="17.586208139585">
        <ele>25.8</ele>
        <time>2017-10-15T15:40:37Z</time>
      </trkpt>
      <trkpt lat="59.858129006554" lon="17.586188861215">
        <ele>26</ele>
        <time>2017-10-15T15:40:38Z</time>
      </trkpt>
      <trkpt lat="59.85808072681" lon="17.586179808763">
        <ele>25.8</ele>
        <time>2017-10-15T15:40:39Z</time>
      </trkpt>
      <trkpt lat="59.858037392387" lon="17.586167906465">
        <ele>26</ele>
        <time>2017-10-15T15:40:40Z</time>
      </trkpt>
      <trkpt lat="59.857990872842" lon="17.586148711914">
        <ele>26</ele>
        <time>2017-10-15T15:40:41Z</time>
      </trkpt>
      <trkpt lat="59.857944185659" lon="17.586128762992">
        <ele>26.2</ele>
        <time>2017-10-15T15:40:42Z</time>
      </trkpt>
      <trkpt lat="59.857901857064" lon="17.586116944513">
        <ele>26.2</ele>
        <time>2017-10-15T15:40:43Z</time>
      </trkpt>
      <trkpt lat="59.857861791582" lon="17.586106886233">
        <ele>26.4</ele>
        <time>2017-10-15T15:40:44Z</time>
      </trkpt>
      <trkpt lat="59.857822229014" lon="17.586095235392">
        <ele>26.4</ele>
        <time>2017-10-15T15:40:45Z</time>
      </trkpt>
      <trkpt lat="59.857787527948" lon="17.5860811538">
        <ele>26.6</ele>
        <time>2017-10-15T15:40:46Z</time>
      </trkpt>
      <trkpt lat="59.857739415842" lon="17.586068916226">
        <ele>26.8</ele>
        <time>2017-10-15T15:40:47Z</time>
      </trkpt>
      <trkpt lat="59.857695578505" lon="17.586059193222">
        <ele>27</ele>
        <time>2017-10-15T15:40:48Z</time>
      </trkpt>
      <trkpt lat="59.857650232426" lon="17.58604427344">
        <ele>27.2</ele>
        <time>2017-10-15T15:40:49Z</time>
      </trkpt>
      <trkpt lat="59.85760295851" lon="17.586027677278">
        <ele>27.4</ele>
        <time>2017-10-15T15:40:50Z</time>
      </trkpt>
      <trkpt lat="59.857560713734" lon="17.585994652592">
        <ele>27.6</ele>
        <time>2017-10-15T15:40:51Z</time>
      </trkpt>
      <trkpt lat="59.85752919779" lon="17.585937068939">
        <ele>27.8</ele>
        <time>2017-10-15T15:40:52Z</time>
      </trkpt>
      <trkpt lat="59.857492568887" lon="17.58584981336">
        <ele>27.8</ele>
        <time>2017-10-15T15:40:53Z</time>
      </trkpt>
      <trkpt lat="59.857452838681" lon="17.585785859463">
        <ele>27.8</ele>
        <time>2017-10-15T15:40:54Z</time>
      </trkpt>
      <trkpt lat="59.857409085163" lon="17.585733388769">
        <ele>27.6</ele>
        <time>2017-10-15T15:40:55Z</time>
      </trkpt>
      <trkpt lat="59.857364661093" lon="17.585697346599">
        <ele>27.4</ele>
        <time>2017-10-15T15:40:56Z</time>
      </trkpt>
      <trkpt lat="59.857315543159" lon="17.585654766547">
        <ele>27.2</ele>
        <time>2017-10-15T15:40:57Z</time>
      </trkpt>
      <trkpt lat="59.857271957279" lon="17.58563104577">
        <ele>27</ele>
        <time>2017-10-15T15:40:58Z</time>
      </trkpt>
      <trkpt lat="59.857221246784" lon="17.585609085192">
        <ele>27</ele>
        <time>2017-10-15T15:40:59Z</time>
      </trkpt>
      <trkpt lat="59.857178079999" lon="17.585587124614">
        <ele>27</ele>
        <time>2017-10-15T15:41:00Z</time>
      </trkpt>
      <trkpt lat="59.857138936526" lon="17.585566002226">
        <ele>27.2</ele>
        <time>2017-10-15T15:41:01Z</time>
      </trkpt>
      <trkpt lat="59.857094093361" lon="17.58554219763">
        <ele>27.4</ele>
        <time>2017-10-15T15:41:02Z</time>
      </trkpt>
      <trkpt lat="59.857051680947" lon="17.585516046102">
        <ele>27.6</ele>
        <time>2017-10-15T15:41:03Z</time>
      </trkpt>
      <trkpt lat="59.857011699284" lon="17.585497186827">
        <ele>27.6</ele>
        <time>2017-10-15T15:41:04Z</time>
      </trkpt>
      <trkpt lat="59.85696258135" lon="17.585473885145">
        <ele>27.8</ele>
        <time>2017-10-15T15:41:05Z</time>
      </trkpt>
      <trkpt lat="59.856917486728" lon="17.585449493816">
        <ele>28</ele>
        <time>2017-10-15T15:41:06Z</time>
      </trkpt>
      <trkpt lat="59.856867698242" lon="17.585426443591">
        <ele>28.2</ele>
        <time>2017-10-15T15:41:07Z</time>
      </trkpt>
      <trkpt lat="59.856810449865" lon="17.58540054352">
        <ele>28.2</ele>
        <time>2017-10-15T15:41:08Z</time>
      </trkpt>
      <trkpt lat="59.856752447117" lon="17.585373134707">
        <ele>28.2</ele>
        <time>2017-10-15T15:41:09Z</time>
      </trkpt>
      <trkpt lat="59.856699305871" lon="17.585342205496">
        <ele>28</ele>
        <time>2017-10-15T15:41:10Z</time>
      </trkpt>
      <trkpt lat="59.856636190164" lon="17.585304654584">
        <ele>27.8</ele>
        <time>2017-10-15T15:41:11Z</time>
      </trkpt>
      <trkpt lat="59.856567374765" lon="17.585268193319">
        <ele>27.4</ele>
        <time>2017-10-15T15:41:12Z</time>
      </trkpt>
      <trkpt lat="59.856499146099" lon="17.585233827529">
        <ele>26.8</ele>
        <time>2017-10-15T15:41:13Z</time>
      </trkpt>
      <trkpt lat="59.856430246881" lon="17.585199210282">
        <ele>26.4</ele>
        <time>2017-10-15T15:41:14Z</time>
      </trkpt>
      <trkpt lat="59.856361515301" lon="17.585163503388">
        <ele>25.8</ele>
        <time>2017-10-15T15:41:15Z</time>
      </trkpt>
      <trkpt lat="59.856301081802" lon="17.585133915281">
        <ele>25.6</ele>
        <time>2017-10-15T15:41:16Z</time>
      </trkpt>
      <trkpt lat="59.856220867019" lon="17.585094436532">
        <ele>25.2</ele>
        <time>2017-10-15T15:41:17Z</time>
      </trkpt>
      <trkpt lat="59.85614953705" lon="17.585061411846">
        <ele>24.8</ele>
        <time>2017-10-15T15:41:18Z</time>
      </trkpt>
      <trkpt lat="59.856083487678" lon="17.585021933097">
        <ele>24.4</ele>
        <time>2017-10-15T15:41:19Z</time>
      </trkpt>
      <trkpt lat="59.856017689763" lon="17.584967115471">
        <ele>24.4</ele>
        <time>2017-10-15T15:41:20Z</time>
      </trkpt>
      <trkpt lat="59.855958513549" lon="17.584901066099">
        <ele>24.2</ele>
        <time>2017-10-15T15:41:21Z</time>
      </trkpt>
      <trkpt lat="59.855906042855" lon="17.584828395026">
        <ele>24.4</ele>
        <time>2017-10-15T15:41:22Z</time>
      </trkpt>
      <trkpt lat="59.8558435977" lon="17.584737283773">
        <ele>24.4</ele>
        <time>2017-10-15T15:41:23Z</time>
      </trkpt>
      <trkpt lat="59.855786516961" lon="17.584654889696">
        <ele>24.2</ele>
        <time>2017-10-15T15:41:24Z</time>
      </trkpt>
      <trkpt lat="59.855729939136" lon="17.584573920542">
        <ele>24.2</ele>
        <time>2017-10-15T15:41:25Z</time>
      </trkpt>
      <trkpt lat="59.855677216985" lon="17.584495885053">
        <ele>24.2</ele>
        <time>2017-10-15T15:41:26Z</time>
      </trkpt>
      <trkpt lat="59.855614268916" lon="17.584405528171">
        <ele>24.2</ele>
        <time>2017-10-15T15:41:27Z</time>
      </trkpt>
      <trkpt lat="59.855563809878" lon="17.584335874582">
        <ele>24</ele>
        <time>2017-10-15T15:41:28Z</time>
      </trkpt>
      <trkpt lat="59.85549742523" lon="17.584259180197">
        <ele>24</ele>
        <time>2017-10-15T15:41:29Z</time>
      </trkpt>
      <trkpt lat="59.85543539917" lon="17.584194555748">
        <ele>24</ele>
        <time>2017-10-15T15:41:30Z</time>
      </trkpt>
      <trkpt lat="59.855376390594" lon="17.584141246864">
        <ele>23.8</ele>
        <time>2017-10-15T15:41:31Z</time>
      </trkpt>
      <trkpt lat="59.855313777801" lon="17.584068408153">
        <ele>23.8</ele>
        <time>2017-10-15T15:41:32Z</time>
      </trkpt>
      <trkpt lat="59.855253763397" lon="17.583999257478">
        <ele>23.8</ele>
        <time>2017-10-15T15:41:33Z</time>
      </trkpt>
      <trkpt lat="59.855201041246" lon="17.58393790197">
        <ele>23.8</ele>
        <time>2017-10-15T15:41:34Z</time>
      </trkpt>
      <trkpt lat="59.855141529756" lon="17.583874702444">
        <ele>23.8</ele>
        <time>2017-10-15T15:41:35Z</time>
      </trkpt>
      <trkpt lat="59.855088472329" lon="17.583816699696">
        <ele>23.8</ele>
        <time>2017-10-15T15:41:36Z</time>
      </trkpt>
      <trkpt lat="59.855033989979" lon="17.583751907609">
        <ele>23.8</ele>
        <time>2017-10-15T15:41:37Z</time>
      </trkpt>
      <trkpt lat="59.854977328335" lon="17.583688791902">
        <ele>23.8</ele>
        <time>2017-10-15T15:41:38Z</time>
      </trkpt>
      <trkpt lat="59.854927120754" lon="17.583625760014">
        <ele>24</ele>
        <time>2017-10-15T15:41:39Z</time>
      </trkpt>
      <trkpt lat="59.854881104123" lon="17.583570439474">
        <ele>24</ele>
        <time>2017-10-15T15:41:40Z</time>
      </trkpt>
      <trkpt lat="59.85483190237" lon="17.583506401758">
        <ele>24.2</ele>
        <time>2017-10-15T15:41:41Z</time>
      </trkpt>
      <trkpt lat="59.854779347857" lon="17.583438927463">
        <ele>24.4</ele>
        <time>2017-10-15T15:41:42Z</time>
      </trkpt>
      <trkpt lat="59.85473383414" lon="17.583386205312">
        <ele>24.4</ele>
        <time>2017-10-15T15:41:43Z</time>
      </trkpt>
      <trkpt lat="59.854683375102" lon="17.583335075722">
        <ele>24.6</ele>
        <time>2017-10-15T15:41:44Z</time>
      </trkpt>
      <trkpt lat="59.8546366041" lon="17.583282018295">
        <ele>24.6</ele>
        <time>2017-10-15T15:41:45Z</time>
      </trkpt>
      <trkpt lat="59.854597963541" lon="17.583237510406">
        <ele>24.6</ele>
        <time>2017-10-15T15:41:46Z</time>
      </trkpt>
      <trkpt lat="59.854548007417" lon="17.583175400527">
        <ele>24.8</ele>
        <time>2017-10-15T15:41:47Z</time>
      </trkpt>
      <trkpt lat="59.854504002442" lon="17.583123935661">
        <ele>24.8</ele>
        <time>2017-10-15T15:41:48Z</time>
      </trkpt>
      <trkpt lat="59.854459662191" lon="17.583073225166">
        <ele>24.8</ele>
        <time>2017-10-15T15:41:49Z</time>
      </trkpt>
      <trkpt lat="59.854415741035" lon="17.583022011757">
        <ele>25</ele>
        <time>2017-10-15T15:41:50Z</time>
      </trkpt>
      <trkpt lat="59.854375843191" lon="17.582972893823">
        <ele>25</ele>
        <time>2017-10-15T15:41:51Z</time>
      </trkpt>
      <trkpt lat="59.854336783537" lon="17.582924362622">
        <ele>25.2</ele>
        <time>2017-10-15T15:41:52Z</time>
      </trkpt>
      <trkpt lat="59.854285234852" lon="17.582864934951">
        <ele>25.4</ele>
        <time>2017-10-15T15:41:53Z</time>
      </trkpt>
      <trkpt lat="59.854239385859" lon="17.58281305099">
        <ele>25.4</ele>
        <time>2017-10-15T15:41:54Z</time>
      </trkpt>
      <trkpt lat="59.854198482187" lon="17.582762843409">
        <ele>25.6</ele>
        <time>2017-10-15T15:41:55Z</time>
      </trkpt>
      <trkpt lat="59.854159422533" lon="17.582726465963">
        <ele>25.8</ele>
        <time>2017-10-15T15:41:56Z</time>
      </trkpt>
      <trkpt lat="59.854113489721" lon="17.582726046868">
        <ele>25.8</ele>
        <time>2017-10-15T15:41:57Z</time>
      </trkpt>
      <trkpt lat="59.854077196094" lon="17.582764687427">
        <ele>26</ele>
        <time>2017-10-15T15:41:58Z</time>
      </trkpt>
      <trkpt lat="59.854038723173" lon="17.582844147839">
        <ele>26</ele>
        <time>2017-10-15T15:41:59Z</time>
      </trkpt>
      <trkpt lat="59.85400712341" lon="17.582927380106">
        <ele>26</ele>
        <time>2017-10-15T15:42:00Z</time>
      </trkpt>
      <trkpt lat="59.853974266362" lon="17.583014635685">
        <ele>26</ele>
        <time>2017-10-15T15:42:01Z</time>
      </trkpt>
      <trkpt lat="59.853934284699" lon="17.583113290648">
        <ele>26</ele>
        <time>2017-10-15T15:42:02Z</time>
      </trkpt>
      <trkpt lat="59.853896147054" lon="17.583208173756">
        <ele>25.8</ele>
        <time>2017-10-15T15:42:03Z</time>
      </trkpt>
      <trkpt lat="59.853857674133" lon="17.583296183706">
        <ele>25.6</ele>
        <time>2017-10-15T15:42:04Z</time>
      </trkpt>
      <trkpt lat="59.853805622534" lon="17.583399867809">
        <ele>25.4</ele>
        <time>2017-10-15T15:42:05Z</time>
      </trkpt>
      <trkpt lat="59.853761282283" lon="17.583493577451">
        <ele>25.2</ele>
        <time>2017-10-15T15:42:06Z</time>
      </trkpt>
      <trkpt lat="59.85370956596" lon="17.583598351201">
        <ele>25</ele>
        <time>2017-10-15T15:42:07Z</time>
      </trkpt>
      <trkpt lat="59.853654748334" lon="17.583712345041">
        <ele>24.6</ele>
        <time>2017-10-15T15:42:08Z</time>
      </trkpt>
      <trkpt lat="59.853604624572" lon="17.583825835967">
        <ele>24.2</ele>
        <time>2017-10-15T15:42:09Z</time>
      </trkpt>
      <trkpt lat="59.853560200502" lon="17.583933543382">
        <ele>23.8</ele>
        <time>2017-10-15T15:42:10Z</time>
      </trkpt>
      <trkpt lat="59.85351175312" lon="17.584051644353">
        <ele>23.2</ele>
        <time>2017-10-15T15:42:11Z</time>
      </trkpt>
      <trkpt lat="59.853460288254" lon="17.584176115568">
        <ele>22.8</ele>
        <time>2017-10-15T15:42:12Z</time>
      </trkpt>
      <trkpt lat="59.853408320474" lon="17.584286337553">
        <ele>22.2</ele>
        <time>2017-10-15T15:42:13Z</time>
      </trkpt>
      <trkpt lat="59.853355598323" lon="17.584386752715">
        <ele>21.6</ele>
        <time>2017-10-15T15:42:14Z</time>
      </trkpt>
      <trkpt lat="59.853308659683" lon="17.584478869796">
        <ele>20.8</ele>
        <time>2017-10-15T15:42:15Z</time>
      </trkpt>
      <trkpt lat="59.853273539522" lon="17.584551205593">
        <ele>20.2</ele>
        <time>2017-10-15T15:42:16Z</time>
      </trkpt>
      <trkpt lat="59.853234982782" lon="17.584642316846">
        <ele>19.8</ele>
        <time>2017-10-15T15:42:17Z</time>
      </trkpt>
      <trkpt lat="59.853206484322" lon="17.584714736462">
        <ele>19.4</ele>
        <time>2017-10-15T15:42:18Z</time>
      </trkpt>
      <trkpt lat="59.85317312436" lon="17.584788161906">
        <ele>19.4</ele>
        <time>2017-10-15T15:42:19Z</time>
      </trkpt>
      <trkpt lat="59.853135070534" lon="17.584868628146">
        <ele>19.2</ele>
        <time>2017-10-15T15:42:20Z</time>
      </trkpt>
      <trkpt lat="59.853099112183" lon="17.584950184033">
        <ele>19</ele>
        <time>2017-10-15T15:42:21Z</time>
      </trkpt>
      <trkpt lat="59.853063992022" lon="17.585042552571">
        <ele>19</ele>
        <time>2017-10-15T15:42:22Z</time>
      </trkpt>
      <trkpt lat="59.853019232676" lon="17.585154450936">
        <ele>18.8</ele>
        <time>2017-10-15T15:42:23Z</time>
      </trkpt>
      <trkpt lat="59.852973383683" lon="17.585257296849">
        <ele>18.6</ele>
        <time>2017-10-15T15:42:24Z</time>
      </trkpt>
      <trkpt lat="59.852930384536" lon="17.585346144989">
        <ele>18.2</ele>
        <time>2017-10-15T15:42:25Z</time>
      </trkpt>
      <trkpt lat="59.852885876647" lon="17.585431975645">
        <ele>18</ele>
        <time>2017-10-15T15:42:26Z</time>
      </trkpt>
      <trkpt lat="59.852839357102" lon="17.585529373323">
        <ele>17.8</ele>
        <time>2017-10-15T15:42:27Z</time>
      </trkpt>
      <trkpt lat="59.852809517538" lon="17.585619730205">
        <ele>17.6</ele>
        <time>2017-10-15T15:42:28Z</time>
      </trkpt>
      <trkpt lat="59.852770374065" lon="17.585715870598">
        <ele>17.4</ele>
        <time>2017-10-15T15:42:29Z</time>
      </trkpt>
      <trkpt lat="59.852733158429" lon="17.585773202794">
        <ele>17.2</ele>
        <time>2017-10-15T15:42:30Z</time>
      </trkpt>
      <trkpt lat="59.852707593634" lon="17.585818381235">
        <ele>17.2</ele>
        <time>2017-10-15T15:42:31Z</time>
      </trkpt>
      <trkpt lat="59.852671216188" lon="17.585845706229">
        <ele>17.2</ele>
        <time>2017-10-15T15:42:32Z</time>
      </trkpt>
      <trkpt lat="59.852636766579" lon="17.585821985452">
        <ele>17</ele>
        <time>2017-10-15T15:42:33Z</time>
      </trkpt>
      <trkpt lat="59.852610195956" lon="17.585772783699">
        <ele>17</ele>
        <time>2017-10-15T15:42:34Z</time>
      </trkpt>
      <trkpt lat="59.852595443812" lon="17.585722827575">
        <ele>17</ele>
        <time>2017-10-15T15:42:35Z</time>
      </trkpt>
      <trkpt lat="59.852558144357" lon="17.585662477895">
        <ele>17</ele>
        <time>2017-10-15T15:42:36Z</time>
      </trkpt>
      <trkpt lat="59.852510367527" lon="17.585639679127">
        <ele>17</ele>
        <time>2017-10-15T15:42:37Z</time>
      </trkpt>
      <trkpt lat="59.852449514933" lon="17.585633392702">
        <ele>17</ele>
        <time>2017-10-15T15:42:38Z</time>
      </trkpt>
      <trkpt lat="59.852384555208" lon="17.58565870604">
        <ele>16.8</ele>
        <time>2017-10-15T15:42:39Z</time>
      </trkpt>
      <trkpt lat="59.852321690958" lon="17.585695921676">
        <ele>16.4</ele>
        <time>2017-10-15T15:42:40Z</time>
      </trkpt>
      <trkpt lat="59.85224524803" lon="17.585758785926">
        <ele>16</ele>
        <time>2017-10-15T15:42:41Z</time>
      </trkpt>
      <trkpt lat="59.85215639989" lon="17.585830032076">
        <ele>15.2</ele>
        <time>2017-10-15T15:42:42Z</time>
      </trkpt>
      <trkpt lat="59.852083058265" lon="17.585898009285">
        <ele>14.6</ele>
        <time>2017-10-15T15:42:43Z</time>
      </trkpt>
      <trkpt lat="59.852027653906" lon="17.585960370621">
        <ele>14.2</ele>
        <time>2017-10-15T15:42:44Z</time>
      </trkpt>
      <trkpt lat="59.851968812968" lon="17.585999765551">
        <ele>13.8</ele>
        <time>2017-10-15T15:42:45Z</time>
      </trkpt>
      <trkpt lat="59.851917767197" lon="17.58604930258">
        <ele>13.6</ele>
        <time>2017-10-15T15:42:46Z</time>
      </trkpt>
      <trkpt lat="59.851864374494" lon="17.586109736079">
        <ele>13.6</ele>
        <time>2017-10-15T15:42:47Z</time>
      </trkpt>
      <trkpt lat="59.851797067837" lon="17.58618928031">
        <ele>13.6</ele>
        <time>2017-10-15T15:42:48Z</time>
      </trkpt>
      <trkpt lat="59.851729174447" lon="17.586276619708">
        <ele>13.6</ele>
        <time>2017-10-15T15:42:49Z</time>
      </trkpt>
      <trkpt lat="59.851667902758" lon="17.5863409927">
        <ele>13.6</ele>
        <time>2017-10-15T15:42:50Z</time>
      </trkpt>
      <trkpt lat="59.851614174779" lon="17.586375190852">
        <ele>13.4</ele>
        <time>2017-10-15T15:42:51Z</time>
      </trkpt>
      <trkpt lat="59.851566397949" lon="17.586402012932">
        <ele>13.2</ele>
        <time>2017-10-15T15:42:52Z</time>
      </trkpt>
      <trkpt lat="59.851518285843" lon="17.586429170288">
        <ele>13</ele>
        <time>2017-10-15T15:42:53Z</time>
      </trkpt>
      <trkpt lat="59.851458606715" lon="17.586474684005">
        <ele>13</ele>
        <time>2017-10-15T15:42:54Z</time>
      </trkpt>
      <trkpt lat="59.851415020835" lon="17.586508295424">
        <ele>13.2</ele>
        <time>2017-10-15T15:42:55Z</time>
      </trkpt>
      <trkpt lat="59.85137353043" lon="17.586540398101">
        <ele>13.2</ele>
        <time>2017-10-15T15:42:56Z</time>
      </trkpt>
      <trkpt lat="59.851329273998" lon="17.586577278461">
        <ele>13.6</ele>
        <time>2017-10-15T15:42:57Z</time>
      </trkpt>
      <trkpt lat="59.851291806905" lon="17.586611811889">
        <ele>13.8</ele>
        <time>2017-10-15T15:42:58Z</time>
      </trkpt>
      <trkpt lat="59.851250232681" lon="17.586645590946">
        <ele>14.4</ele>
        <time>2017-10-15T15:42:59Z</time>
      </trkpt>
      <trkpt lat="59.85121259795" lon="17.586684818238">
        <ele>14.8</ele>
        <time>2017-10-15T15:43:00Z</time>
      </trkpt>
      <trkpt lat="59.851175466133" lon="17.586714322526">
        <ele>15.2</ele>
        <time>2017-10-15T15:43:01Z</time>
      </trkpt>
      <trkpt lat="59.851132299348" lon="17.586753046904">
        <ele>15.6</ele>
        <time>2017-10-15T15:43:02Z</time>
      </trkpt>
      <trkpt lat="59.85108938402" lon="17.58679110073">
        <ele>15.8</ele>
        <time>2017-10-15T15:43:03Z</time>
      </trkpt>
      <trkpt lat="59.851047642158" lon="17.586825885615">
        <ele>16</ele>
        <time>2017-10-15T15:43:04Z</time>
      </trkpt>
      <trkpt lat="59.850997434577" lon="17.58686737602">
        <ele>16</ele>
        <time>2017-10-15T15:43:05Z</time>
      </trkpt>
      <trkpt lat="59.850952926688" lon="17.58690844733">
        <ele>16</ele>
        <time>2017-10-15T15:43:06Z</time>
      </trkpt>
      <trkpt lat="59.850904479306" lon="17.586953793409">
        <ele>16</ele>
        <time>2017-10-15T15:43:07Z</time>
      </trkpt>
      <trkpt lat="59.850845889825" lon="17.586998049841">
        <ele>16</ele>
        <time>2017-10-15T15:43:08Z</time>
      </trkpt>
      <trkpt lat="59.850792580941" lon="17.587016992935">
        <ele>16</ele>
        <time>2017-10-15T15:43:09Z</time>
      </trkpt>
      <trkpt lat="59.850738517686" lon="17.587010119777">
        <ele>15.8</ele>
        <time>2017-10-15T15:43:10Z</time>
      </trkpt>
      <trkpt lat="59.850700882955" lon="17.586983130059">
        <ele>15.8</ele>
        <time>2017-10-15T15:43:11Z</time>
      </trkpt>
      <trkpt lat="59.850640281818" lon="17.586930575546">
        <ele>15.8</ele>
        <time>2017-10-15T15:43:12Z</time>
      </trkpt>
      <trkpt lat="59.850590828608" lon="17.586883888363">
        <ele>15.8</ele>
        <time>2017-10-15T15:43:13Z</time>
      </trkpt>
      <trkpt lat="59.850541626855" lon="17.586838542284">
        <ele>15.6</ele>
        <time>2017-10-15T15:43:14Z</time>
      </trkpt>
      <trkpt lat="59.850491586912" lon="17.586790094902">
        <ele>15.8</ele>
        <time>2017-10-15T15:43:15Z</time>
      </trkpt>
      <trkpt lat="59.850443558625" lon="17.586744665004">
        <ele>15.8</ele>
        <time>2017-10-15T15:43:16Z</time>
      </trkpt>
      <trkpt lat="59.850391758483" lon="17.586701162943">
        <ele>15.8</ele>
        <time>2017-10-15T15:43:17Z</time>
      </trkpt>
      <trkpt lat="59.85033166026" lon="17.586667300067">
        <ele>15.8</ele>
        <time>2017-10-15T15:43:18Z</time>
      </trkpt>
      <trkpt lat="59.850274160426" lon="17.586645590946">
        <ele>15.8</ele>
        <time>2017-10-15T15:43:19Z</time>
      </trkpt>
      <trkpt lat="59.85021599004" lon="17.586625893481">
        <ele>15.8</ele>
        <time>2017-10-15T15:43:20Z</time>
      </trkpt>
      <trkpt lat="59.850163435527" lon="17.586611308975">
        <ele>15.6</ele>
        <time>2017-10-15T15:43:21Z</time>
      </trkpt>
      <trkpt lat="59.850102750571" lon="17.586596892107">
        <ele>15.6</ele>
        <time>2017-10-15T15:43:22Z</time>
      </trkpt>
      <trkpt lat="59.850048854954" lon="17.586598400849">
        <ele>15.4</ele>
        <time>2017-10-15T15:43:23Z</time>
      </trkpt>
      <trkpt lat="59.849992780043" lon="17.586610386966">
        <ele>15.2</ele>
        <time>2017-10-15T15:43:24Z</time>
      </trkpt>
      <trkpt lat="59.84993771096" lon="17.58664106472">
        <ele>15</ele>
        <time>2017-10-15T15:43:25Z</time>
      </trkpt>
      <trkpt lat="59.849887922474" lon="17.586674424682">
        <ele>15</ele>
        <time>2017-10-15T15:43:26Z</time>
      </trkpt>
      <trkpt lat="59.849833356305" lon="17.586713819612">
        <ele>15.2</ele>
        <time>2017-10-15T15:43:27Z</time>
      </trkpt>
      <trkpt lat="59.849784573647" lon="17.586750113239">
        <ele>15.2</ele>
        <time>2017-10-15T15:43:28Z</time>
      </trkpt>
      <trkpt lat="59.849730258935" lon="17.586798560621">
        <ele>15.4</ele>
        <time>2017-10-15T15:43:29Z</time>
      </trkpt>
      <trkpt lat="59.849680805725" lon="17.586848516745">
        <ele>15.4</ele>
        <time>2017-10-15T15:43:30Z</time>
      </trkpt>
      <trkpt lat="59.849633531809" lon="17.586895790661">
        <ele>15.6</ele>
        <time>2017-10-15T15:43:31Z</time>
      </trkpt>
      <trkpt lat="59.849580893477" lon="17.586970557209">
        <ele>15.8</ele>
        <time>2017-10-15T15:43:32Z</time>
      </trkpt>
      <trkpt lat="59.849542001461" lon="17.587044820843">
        <ele>16</ele>
        <time>2017-10-15T15:43:33Z</time>
      </trkpt>
      <trkpt lat="59.849509479689" lon="17.58712218578">
        <ele>16.2</ele>
        <time>2017-10-15T15:43:34Z</time>
      </trkpt>
      <trkpt lat="59.849478885754" lon="17.587194018663">
        <ele>16.2</ele>
        <time>2017-10-15T15:43:35Z</time>
      </trkpt>
      <trkpt lat="59.849446615439" lon="17.587264091347">
        <ele>16.4</ele>
        <time>2017-10-15T15:43:36Z</time>
      </trkpt>
      <trkpt lat="59.849416524418" lon="17.587325949769">
        <ele>16.4</ele>
        <time>2017-10-15T15:43:37Z</time>
      </trkpt>
      <trkpt lat="59.849387187768" lon="17.587383030508">
        <ele>16.6</ele>
        <time>2017-10-15T15:43:38Z</time>
      </trkpt>
      <trkpt lat="59.849364975733" lon="17.587437764315">
        <ele>16.8</ele>
        <time>2017-10-15T15:43:39Z</time>
      </trkpt>
      <trkpt lat="59.849345445906" lon="17.587489145362">
        <ele>17</ele>
        <time>2017-10-15T15:43:40Z</time>
      </trkpt>
      <trkpt lat="59.849327005726" lon="17.587527618283">
        <ele>17.2</ele>
        <time>2017-10-15T15:43:41Z</time>
      </trkpt>
      <trkpt lat="59.849301776207" lon="17.587578664054">
        <ele>17.4</ele>
        <time>2017-10-15T15:43:42Z</time>
      </trkpt>
      <trkpt lat="59.849279899448" lon="17.587615628233">
        <ele>17.8</ele>
        <time>2017-10-15T15:43:43Z</time>
      </trkpt>
      <trkpt lat="59.849257687413" lon="17.587661393407">
        <ele>18.2</ele>
        <time>2017-10-15T15:43:44Z</time>
      </trkpt>
      <trkpt lat="59.849236397387" lon="17.587702464717">
        <ele>18.6</ele>
        <time>2017-10-15T15:43:45Z</time>
      </trkpt>
      <trkpt lat="59.84921854394" lon="17.587744625674">
        <ele>19</ele>
        <time>2017-10-15T15:43:46Z</time>
      </trkpt>
      <trkpt lat="59.849196918638" lon="17.587787289545">
        <ele>19.4</ele>
        <time>2017-10-15T15:43:47Z</time>
      </trkpt>
      <trkpt lat="59.849171018567" lon="17.587831210701">
        <ele>19.8</ele>
        <time>2017-10-15T15:43:48Z</time>
      </trkpt>
      <trkpt lat="59.849148219799" lon="17.587858284238">
        <ele>20.2</ele>
        <time>2017-10-15T15:43:49Z</time>
      </trkpt>
      <trkpt lat="59.84912550485" lon="17.587890303096">
        <ele>20.4</ele>
        <time>2017-10-15T15:43:50Z</time>
      </trkpt>
      <trkpt lat="59.84910035915" lon="17.587925507076">
        <ele>20.8</ele>
        <time>2017-10-15T15:43:51Z</time>
      </trkpt>
      <trkpt lat="59.849073201794" lon="17.587962555074">
        <ele>21</ele>
        <time>2017-10-15T15:43:52Z</time>
      </trkpt>
      <trkpt lat="59.849045709162" lon="17.588006224773">
        <ele>21.2</ele>
        <time>2017-10-15T15:43:53Z</time>
      </trkpt>
      <trkpt lat="59.849012935933" lon="17.588057270544">
        <ele>21.4</ele>
        <time>2017-10-15T15:43:54Z</time>
      </trkpt>
      <trkpt lat="59.848981587627" lon="17.58810035351">
        <ele>21.6</ele>
        <time>2017-10-15T15:43:55Z</time>
      </trkpt>
      <trkpt lat="59.848949401131" lon="17.588141927734">
        <ele>21.6</ele>
        <time>2017-10-15T15:43:56Z</time>
      </trkpt>
      <trkpt lat="59.848914113332" lon="17.58819590717">
        <ele>21.6</ele>
        <time>2017-10-15T15:43:57Z</time>
      </trkpt>
      <trkpt lat="59.848887039795" lon="17.588256759764">
        <ele>21.8</ele>
        <time>2017-10-15T15:43:58Z</time>
      </trkpt>
      <trkpt lat="59.848866755597" lon="17.588324234059">
        <ele>21.6</ele>
        <time>2017-10-15T15:43:59Z</time>
      </trkpt>
      <trkpt lat="59.848847393408" lon="17.588408388335">
        <ele>21.6</ele>
        <time>2017-10-15T15:44:00Z</time>
      </trkpt>
      <trkpt lat="59.848833982368" lon="17.588489357489">
        <ele>21.8</ele>
        <time>2017-10-15T15:44:01Z</time>
      </trkpt>
      <trkpt lat="59.848821828613" lon="17.58858231276">
        <ele>21.8</ele>
        <time>2017-10-15T15:44:02Z</time>
      </trkpt>
      <trkpt lat="59.848809423401" lon="17.588667137588">
        <ele>21.8</ele>
        <time>2017-10-15T15:44:03Z</time>
      </trkpt>
      <trkpt lat="59.848798694569" lon="17.588756907737">
        <ele>21.8</ele>
        <time>2017-10-15T15:44:04Z</time>
      </trkpt>
      <trkpt lat="59.848788049556" lon="17.588835865235">
        <ele>22</ele>
        <time>2017-10-15T15:44:05Z</time>
      </trkpt>
      <trkpt lat="59.848776482534" lon="17.588920019511">
        <ele>22.2</ele>
        <time>2017-10-15T15:44:06Z</time>
      </trkpt>
      <trkpt lat="59.848764664055" lon="17.589006688357">
        <ele>22.4</ele>
        <time>2017-10-15T15:44:07Z</time>
      </trkpt>
      <trkpt lat="59.848751085377" lon="17.589086651683">
        <ele>22.4</ele>
        <time>2017-10-15T15:44:08Z</time>
      </trkpt>
      <trkpt lat="59.848739769812" lon="17.589164770991">
        <ele>22.6</ele>
        <time>2017-10-15T15:44:09Z</time>
      </trkpt>
      <trkpt lat="59.848729376256" lon="17.589241549195">
        <ele>22.8</ele>
        <time>2017-10-15T15:44:10Z</time>
      </trkpt>
      <trkpt lat="59.848718479786" lon="17.589303659074">
        <ele>23</ele>
        <time>2017-10-15T15:44:11Z</time>
      </trkpt>
      <trkpt lat="59.84869886614" lon="17.58938110783">
        <ele>23.2</ele>
        <time>2017-10-15T15:44:12Z</time>
      </trkpt>
      <trkpt lat="59.848680677417" lon="17.589446821926">
        <ele>23.4</ele>
        <time>2017-10-15T15:44:13Z</time>
      </trkpt>
      <trkpt lat="59.84866282397" lon="17.589512536022">
        <ele>23.6</ele>
        <time>2017-10-15T15:44:14Z</time>
      </trkpt>
      <trkpt lat="59.848648826197" lon="17.589551679495">
        <ele>23.6</ele>
        <time>2017-10-15T15:44:15Z</time>
      </trkpt>
      <trkpt lat="59.848617896986" lon="17.589628625337">
        <ele>23.8</ele>
        <time>2017-10-15T15:44:16Z</time>
      </trkpt>
      <trkpt lat="59.848596523141" lon="17.589688555922">
        <ele>24</ele>
        <time>2017-10-15T15:44:17Z</time>
      </trkpt>
      <trkpt lat="59.848569952518" lon="17.589748654145">
        <ele>24.2</ele>
        <time>2017-10-15T15:44:18Z</time>
      </trkpt>
      <trkpt lat="59.848545393551" lon="17.58979601188">
        <ele>24.4</ele>
        <time>2017-10-15T15:44:19Z</time>
      </trkpt>
      <trkpt lat="59.848526366638" lon="17.58985803794">
        <ele>24.6</ele>
        <time>2017-10-15T15:44:20Z</time>
      </trkpt>
      <trkpt lat="59.848515637806" lon="17.589918722896">
        <ele>24.8</ele>
        <time>2017-10-15T15:44:21Z</time>
      </trkpt>
      <trkpt lat="59.848510776304" lon="17.589979910766">
        <ele>25</ele>
        <time>2017-10-15T15:44:22Z</time>
      </trkpt>
      <trkpt lat="59.84850775882" lon="17.590038164971">
        <ele>25.2</ele>
        <time>2017-10-15T15:44:23Z</time>
      </trkpt>
      <trkpt lat="59.848508177915" lon="17.590101867411">
        <ele>25.4</ele>
        <time>2017-10-15T15:44:24Z</time>
      </trkpt>
      <trkpt lat="59.848513458512" lon="17.59015391901">
        <ele>25.6</ele>
        <time>2017-10-15T15:44:25Z</time>
      </trkpt>
      <trkpt lat="59.848522343326" lon="17.590208736636">
        <ele>25.8</ele>
        <time>2017-10-15T15:44:26Z</time>
      </trkpt>
      <trkpt lat="59.848530641407" lon="17.590280737157">
        <ele>26</ele>
        <time>2017-10-15T15:44:27Z</time>
      </trkpt>
      <trkpt lat="59.848534832357" lon="17.590351899488">
        <ele>26.4</ele>
        <time>2017-10-15T15:44:28Z</time>
      </trkpt>
      <trkpt lat="59.848540699687" lon="17.590419792878">
        <ele>26.6</ele>
        <time>2017-10-15T15:44:29Z</time>
      </trkpt>
      <trkpt lat="59.848544890637" lon="17.590508138104">
        <ele>26.8</ele>
        <time>2017-10-15T15:44:30Z</time>
      </trkpt>
      <trkpt lat="59.848545309732" lon="17.590584245756">
        <ele>26.8</ele>
        <time>2017-10-15T15:44:31Z</time>
      </trkpt>
      <trkpt lat="59.848543968628" lon="17.590672088068">
        <ele>27</ele>
        <time>2017-10-15T15:44:32Z</time>
      </trkpt>
      <trkpt lat="59.8485429628" lon="17.590747189892">
        <ele>27</ele>
        <time>2017-10-15T15:44:33Z</time>
      </trkpt>
      <trkpt lat="59.848544136266" lon="17.590822375535">
        <ele>27.2</ele>
        <time>2017-10-15T15:44:34Z</time>
      </trkpt>
      <trkpt lat="59.848546567017" lon="17.59088901164">
        <ele>27.2</ele>
        <time>2017-10-15T15:44:35Z</time>
      </trkpt>
      <trkpt lat="59.848548327216" lon="17.59096193417">
        <ele>27.4</ele>
        <time>2017-10-15T15:44:36Z</time>
      </trkpt>
      <trkpt lat="59.848563246998" lon="17.59101054919">
        <ele>27.6</ele>
        <time>2017-10-15T15:44:37Z</time>
      </trkpt>
      <trkpt lat="59.848576574219" lon="17.59112286665">
        <ele>27.8</ele>
        <time>2017-10-15T15:44:38Z</time>
      </trkpt>
      <trkpt lat="59.848585626671" lon="17.591202075605">
        <ele>27.8</ele>
        <time>2017-10-15T15:44:39Z</time>
      </trkpt>
      <trkpt lat="59.848594511485" lon="17.591286229881">
        <ele>28</ele>
        <time>2017-10-15T15:44:40Z</time>
      </trkpt>
      <trkpt lat="59.848601971376" lon="17.591360493515">
        <ele>28.2</ele>
        <time>2017-10-15T15:44:41Z</time>
      </trkpt>
      <trkpt lat="59.848608090163" lon="17.591465267265">
        <ele>28.2</ele>
        <time>2017-10-15T15:44:42Z</time>
      </trkpt>
      <trkpt lat="59.84861085619" lon="17.591557971079">
        <ele>28.2</ele>
        <time>2017-10-15T15:44:43Z</time>
      </trkpt>
      <trkpt lat="59.848614292769" lon="17.591652015997">
        <ele>28.4</ele>
        <time>2017-10-15T15:44:44Z</time>
      </trkpt>
      <trkpt lat="59.848618902814" lon="17.59174899458">
        <ele>28.4</ele>
        <time>2017-10-15T15:44:45Z</time>
      </trkpt>
      <trkpt lat="59.848623345221" lon="17.591840273471">
        <ele>28.6</ele>
        <time>2017-10-15T15:44:46Z</time>
      </trkpt>
      <trkpt lat="59.848636085709" lon="17.591932390552">
        <ele>28.4</ele>
        <time>2017-10-15T15:44:47Z</time>
      </trkpt>
      <trkpt lat="59.848662404875" lon="17.592025010547">
        <ele>28.4</ele>
        <time>2017-10-15T15:44:48Z</time>
      </trkpt>
      <trkpt lat="59.848696519208" lon="17.59210690171">
        <ele>28.2</ele>
        <time>2017-10-15T15:44:49Z</time>
      </trkpt>
      <trkpt lat="59.848737087604" lon="17.592183009362">
        <ele>28</ele>
        <time>2017-10-15T15:44:50Z</time>
      </trkpt>
      <trkpt lat="59.848778913285" lon="17.592248220544">
        <ele>27.8</ele>
        <time>2017-10-15T15:44:51Z</time>
      </trkpt>
      <trkpt lat="59.848824510821" lon="17.592319634332">
        <ele>27.6</ele>
        <time>2017-10-15T15:44:52Z</time>
      </trkpt>
      <trkpt lat="59.848869437805" lon="17.592386773351">
        <ele>27.4</ele>
        <time>2017-10-15T15:44:53Z</time>
      </trkpt>
      <trkpt lat="59.848917046997" lon="17.592464222107">
        <ele>27.2</ele>
        <time>2017-10-15T15:44:54Z</time>
      </trkpt>
      <trkpt lat="59.84895535228" lon="17.592547538193">
        <ele>27</ele>
        <time>2017-10-15T15:44:55Z</time>
      </trkpt>
      <trkpt lat="59.848982761093" lon="17.592639236179">
        <ele>27</ele>
        <time>2017-10-15T15:44:56Z</time>
      </trkpt>
      <trkpt lat="59.849000279264" lon="17.592749541983">
        <ele>27.2</ele>
        <time>2017-10-15T15:44:57Z</time>
      </trkpt>
      <trkpt lat="59.849008744983" lon="17.592853645181">
        <ele>27.2</ele>
        <time>2017-10-15T15:44:58Z</time>
      </trkpt>
      <trkpt lat="59.849005727499" lon="17.592945846081">
        <ele>27.2</ele>
        <time>2017-10-15T15:44:59Z</time>
      </trkpt>
      <trkpt lat="59.849001117454" lon="17.593049697822">
        <ele>27.2</ele>
        <time>2017-10-15T15:45:00Z</time>
      </trkpt>
      <trkpt lat="59.848991897364" lon="17.593127398035">
        <ele>27.4</ele>
        <time>2017-10-15T15:45:01Z</time>
      </trkpt>
      <trkpt lat="59.848975804116" lon="17.593211719949">
        <ele>27.4</ele>
        <time>2017-10-15T15:45:02Z</time>
      </trkpt>
      <trkpt lat="59.848959627049" lon="17.593294868397">
        <ele>27.6</ele>
        <time>2017-10-15T15:45:03Z</time>
      </trkpt>
      <trkpt lat="59.848939678127" lon="17.593372987705">
        <ele>27.8</ele>
        <time>2017-10-15T15:45:04Z</time>
      </trkpt>
      <trkpt lat="59.848932804969" lon="17.593447586615">
        <ele>28</ele>
        <time>2017-10-15T15:45:05Z</time>
      </trkpt>
      <trkpt lat="59.848898606817" lon="17.593526711751">
        <ele>28.2</ele>
        <time>2017-10-15T15:45:06Z</time>
      </trkpt>
      <trkpt lat="59.848859211887" lon="17.593604663421">
        <ele>28.4</ele>
        <time>2017-10-15T15:45:07Z</time>
      </trkpt>
      <trkpt lat="59.848813614351" lon="17.593667695309">
        <ele>28.6</ele>
        <time>2017-10-15T15:45:08Z</time>
      </trkpt>
      <trkpt lat="59.848768184453" lon="17.593732906491">
        <ele>28.6</ele>
        <time>2017-10-15T15:45:09Z</time>
      </trkpt>
      <trkpt lat="59.848726274953" lon="17.593823682468">
        <ele>28.6</ele>
        <time>2017-10-15T15:45:10Z</time>
      </trkpt>
      <trkpt lat="59.848694339914" lon="17.593914123169">
        <ele>28.2</ele>
        <time>2017-10-15T15:45:11Z</time>
      </trkpt>
      <trkpt lat="59.848664332712" lon="17.594031888864">
        <ele>28</ele>
        <time>2017-10-15T15:45:12Z</time>
      </trkpt>
      <trkpt lat="59.84863851646" lon="17.594146888532">
        <ele>27.8</ele>
        <time>2017-10-15T15:45:13Z</time>
      </trkpt>
      <trkpt lat="59.848620327737" lon="17.594258032526">
        <ele>27.6</ele>
        <time>2017-10-15T15:45:14Z</time>
      </trkpt>
      <trkpt lat="59.848610688552" lon="17.594359369697">
        <ele>27.4</ele>
        <time>2017-10-15T15:45:15Z</time>
      </trkpt>
      <trkpt lat="59.848595098218" lon="17.594455929185">
        <ele>27.4</ele>
        <time>2017-10-15T15:45:16Z</time>
      </trkpt>
      <trkpt lat="59.848573892011" lon="17.594557014899">
        <ele>27.6</ele>
        <time>2017-10-15T15:45:17Z</time>
      </trkpt>
      <trkpt lat="59.848559642781" lon="17.594666063418">
        <ele>28</ele>
        <time>2017-10-15T15:45:18Z</time>
      </trkpt>
      <trkpt lat="59.848553775451" lon="17.594771172444">
        <ele>28.2</ele>
        <time>2017-10-15T15:45:19Z</time>
      </trkpt>
      <trkpt lat="59.84853961004" lon="17.594860439679">
        <ele>28.4</ele>
        <time>2017-10-15T15:45:20Z</time>
      </trkpt>
      <trkpt lat="59.848522762421" lon="17.594928584526">
        <ele>28.4</ele>
        <time>2017-10-15T15:45:21Z</time>
      </trkpt>
      <trkpt lat="59.848504657517" lon="17.595019109046">
        <ele>28.6</ele>
        <time>2017-10-15T15:45:22Z</time>
      </trkpt>
      <trkpt lat="59.8484926714" lon="17.595105526435">
        <ele>28.8</ele>
        <time>2017-10-15T15:45:23Z</time>
      </trkpt>
      <trkpt lat="59.848482194025" lon="17.595202421199">
        <ele>29</ele>
        <time>2017-10-15T15:45:24Z</time>
      </trkpt>
      <trkpt lat="59.848478925084" lon="17.595292694262">
        <ele>29.2</ele>
        <time>2017-10-15T15:45:25Z</time>
      </trkpt>
      <trkpt lat="59.848474482677" lon="17.595379782203">
        <ele>29.2</ele>
        <time>2017-10-15T15:45:26Z</time>
      </trkpt>
      <trkpt lat="59.848474398858" lon="17.595472737474">
        <ele>29.6</ele>
        <time>2017-10-15T15:45:27Z</time>
      </trkpt>
      <trkpt lat="59.848470627003" lon="17.595569799876">
        <ele>29.8</ele>
        <time>2017-10-15T15:45:28Z</time>
      </trkpt>
      <trkpt lat="59.848468782985" lon="17.59566250369">
        <ele>30</ele>
        <time>2017-10-15T15:45:29Z</time>
      </trkpt>
      <trkpt lat="59.848464927311" lon="17.595778257729">
        <ele>30.2</ele>
        <time>2017-10-15T15:45:30Z</time>
      </trkpt>
      <trkpt lat="59.848454617574" lon="17.595883702031">
        <ele>30.2</ele>
        <time>2017-10-15T15:45:31Z</time>
      </trkpt>
      <trkpt lat="59.848437518498" lon="17.596001300088">
        <ele>30.4</ele>
        <time>2017-10-15T15:45:32Z</time>
      </trkpt>
      <trkpt lat="59.848424358915" lon="17.596103475449">
        <ele>30.4</ele>
        <time>2017-10-15T15:45:33Z</time>
      </trkpt>
      <trkpt lat="59.848407846572" lon="17.596225515913">
        <ele>30.2</ele>
        <time>2017-10-15T15:45:34Z</time>
      </trkpt>
      <trkpt lat="59.84839711774" lon="17.59634562854">
        <ele>30</ele>
        <time>2017-10-15T15:45:35Z</time>
      </trkpt>
      <trkpt lat="59.848391920962" lon="17.596438835268">
        <ele>29.8</ele>
        <time>2017-10-15T15:45:36Z</time>
      </trkpt>
      <trkpt lat="59.848400889595" lon="17.596584847966">
        <ele>29.6</ele>
        <time>2017-10-15T15:45:37Z</time>
      </trkpt>
      <trkpt lat="59.84840969059" lon="17.596708397172">
        <ele>29.6</ele>
        <time>2017-10-15T15:45:38Z</time>
      </trkpt>
      <trkpt lat="59.848416731386" lon="17.59683010236">
        <ele>29.4</ele>
        <time>2017-10-15T15:45:39Z</time>
      </trkpt>
      <trkpt lat="59.848424023639" lon="17.59694493439">
        <ele>29.6</ele>
        <time>2017-10-15T15:45:40Z</time>
      </trkpt>
      <trkpt lat="59.84842729258" lon="17.597048283217">
        <ele>29.6</ele>
        <time>2017-10-15T15:45:41Z</time>
      </trkpt>
      <trkpt lat="59.848432489358" lon="17.597195804657">
        <ele>29.6</ele>
        <time>2017-10-15T15:45:42Z</time>
      </trkpt>
      <trkpt lat="59.848447325321" lon="17.597326227021">
        <ele>29.6</ele>
        <time>2017-10-15T15:45:43Z</time>
      </trkpt>
      <trkpt lat="59.84847171665" lon="17.59745203934">
        <ele>29.6</ele>
        <time>2017-10-15T15:45:44Z</time>
      </trkpt>
      <trkpt lat="59.848497951997" lon="17.597577600202">
        <ele>29.4</ele>
        <time>2017-10-15T15:45:45Z</time>
      </trkpt>
      <trkpt lat="59.848523516792" lon="17.597690672033">
        <ele>29.2</ele>
        <time>2017-10-15T15:45:46Z</time>
      </trkpt>
      <trkpt lat="59.848537263108" lon="17.597807096624">
        <ele>28.8</ele>
        <time>2017-10-15T15:45:47Z</time>
      </trkpt>
      <trkpt lat="59.848526031362" lon="17.597929891459">
        <ele>28.6</ele>
        <time>2017-10-15T15:45:48Z</time>
      </trkpt>
      <trkpt lat="59.848494180142" lon="17.59802200854">
        <ele>28.4</ele>
        <time>2017-10-15T15:45:49Z</time>
      </trkpt>
      <trkpt lat="59.848459730533" lon="17.598111946327">
        <ele>28.2</ele>
        <time>2017-10-15T15:45:50Z</time>
      </trkpt>
      <trkpt lat="59.848431232073" lon="17.598203476675">
        <ele>28</ele>
        <time>2017-10-15T15:45:51Z</time>
      </trkpt>
      <trkpt lat="59.848408517124" lon="17.598303891837">
        <ele>28</ele>
        <time>2017-10-15T15:45:52Z</time>
      </trkpt>
      <trkpt lat="59.848392423876" lon="17.598413024175">
        <ele>28</ele>
        <time>2017-10-15T15:45:53Z</time>
      </trkpt>
      <trkpt lat="59.848381527406" lon="17.598527604748">
        <ele>28</ele>
        <time>2017-10-15T15:45:54Z</time>
      </trkpt>
      <trkpt lat="59.848372558773" lon="17.598647382099">
        <ele>27.8</ele>
        <time>2017-10-15T15:45:55Z</time>
      </trkpt>
      <trkpt lat="59.848362668131" lon="17.598744612139">
        <ele>27.8</ele>
        <time>2017-10-15T15:45:56Z</time>
      </trkpt>
      <trkpt lat="59.848356297887" lon="17.598851062269">
        <ele>27.4</ele>
        <time>2017-10-15T15:45:57Z</time>
      </trkpt>
      <trkpt lat="59.848353280403" lon="17.59895239944">
        <ele>27.2</ele>
        <time>2017-10-15T15:45:58Z</time>
      </trkpt>
      <trkpt lat="59.848351771661" lon="17.599044265064">
        <ele>27</ele>
        <time>2017-10-15T15:45:59Z</time>
      </trkpt>
      <trkpt lat="59.848353112765" lon="17.59917535798">
        <ele>26.8</ele>
        <time>2017-10-15T15:46:00Z</time>
      </trkpt>
      <trkpt lat="59.848359147733" lon="17.59928180811">
        <ele>26.6</ele>
        <time>2017-10-15T15:46:01Z</time>
      </trkpt>
      <trkpt lat="59.848363422502" lon="17.599403429479">
        <ele>26.2</ele>
        <time>2017-10-15T15:46:02Z</time>
      </trkpt>
      <trkpt lat="59.848364344511" lon="17.599509209057">
        <ele>26</ele>
        <time>2017-10-15T15:46:03Z</time>
      </trkpt>
      <trkpt lat="59.848368284004" lon="17.599622029431">
        <ele>25.8</ele>
        <time>2017-10-15T15:46:04Z</time>
      </trkpt>
      <trkpt lat="59.848366020891" lon="17.599717750729">
        <ele>25.8</ele>
        <time>2017-10-15T15:46:05Z</time>
      </trkpt>
      <trkpt lat="59.848360572656" lon="17.599830403465">
        <ele>25.6</ele>
        <time>2017-10-15T15:46:06Z</time>
      </trkpt>
      <trkpt lat="59.848355794973" lon="17.59994230183">
        <ele>25.8</ele>
        <time>2017-10-15T15:46:07Z</time>
      </trkpt>
      <trkpt lat="59.848352526032" lon="17.600063085009">
        <ele>25.8</ele>
        <time>2017-10-15T15:46:08Z</time>
      </trkpt>
      <trkpt lat="59.848349257091" lon="17.600179593419">
        <ele>25.8</ele>
        <time>2017-10-15T15:46:09Z</time>
      </trkpt>
      <trkpt lat="59.848343641218" lon="17.600293587259">
        <ele>26</ele>
        <time>2017-10-15T15:46:10Z</time>
      </trkpt>
      <trkpt lat="59.848335426956" lon="17.600391404032">
        <ele>26</ele>
        <time>2017-10-15T15:46:11Z</time>
      </trkpt>
      <trkpt lat="59.848317992604" lon="17.600520569111">
        <ele>26</ele>
        <time>2017-10-15T15:46:12Z</time>
      </trkpt>
      <trkpt lat="59.848297540768" lon="17.600628611802">
        <ele>26.2</ele>
        <time>2017-10-15T15:46:13Z</time>
      </trkpt>
      <trkpt lat="59.848273484715" lon="17.600730787163">
        <ele>26.2</ele>
        <time>2017-10-15T15:46:14Z</time>
      </trkpt>
      <trkpt lat="59.848248255196" lon="17.600833549257">
        <ele>26.4</ele>
        <time>2017-10-15T15:46:15Z</time>
      </trkpt>
      <trkpt lat="59.848224282962" lon="17.600934634971">
        <ele>26.4</ele>
        <time>2017-10-15T15:46:16Z</time>
      </trkpt>
      <trkpt lat="59.848202490022" lon="17.601054412322">
        <ele>26.4</ele>
        <time>2017-10-15T15:46:17Z</time>
      </trkpt>
      <trkpt lat="59.848186648231" lon="17.601176033691">
        <ele>26.2</ele>
        <time>2017-10-15T15:46:18Z</time>
      </trkpt>
      <trkpt lat="59.848179020702" lon="17.601293715567">
        <ele>25.8</ele>
        <time>2017-10-15T15:46:19Z</time>
      </trkpt>
      <trkpt lat="59.848187151145" lon="17.601414750203">
        <ele>25.6</ele>
        <time>2017-10-15T15:46:20Z</time>
      </trkpt>
      <trkpt lat="59.848193689027" lon="17.601531342432">
        <ele>25.6</ele>
        <time>2017-10-15T15:46:21Z</time>
      </trkpt>
      <trkpt lat="59.848203831126" lon="17.601655310733">
        <ele>25.4</ele>
        <time>2017-10-15T15:46:22Z</time>
      </trkpt>
      <trkpt lat="59.848212883578" lon="17.601772741152">
        <ele>25.2</ele>
        <time>2017-10-15T15:46:23Z</time>
      </trkpt>
      <trkpt lat="59.848228893007" lon="17.601908108837">
        <ele>25.2</ele>
        <time>2017-10-15T15:46:24Z</time>
      </trkpt>
      <trkpt lat="59.848244064246" lon="17.602026545084">
        <ele>25.2</ele>
        <time>2017-10-15T15:46:25Z</time>
      </trkpt>
      <trkpt lat="59.848262588245" lon="17.602140622743">
        <ele>25.2</ele>
        <time>2017-10-15T15:46:26Z</time>
      </trkpt>
      <trkpt lat="59.848283207719" lon="17.602267357071">
        <ele>25.2</ele>
        <time>2017-10-15T15:46:27Z</time>
      </trkpt>
      <trkpt lat="59.848298462777" lon="17.602389900449">
        <ele>25</ele>
        <time>2017-10-15T15:46:28Z</time>
      </trkpt>
      <trkpt lat="59.84831162236" lon="17.602496434398">
        <ele>24.8</ele>
        <time>2017-10-15T15:46:29Z</time>
      </trkpt>
      <trkpt lat="59.848333750576" lon="17.602636328309">
        <ele>24.8</ele>
        <time>2017-10-15T15:46:30Z</time>
      </trkpt>
      <trkpt lat="59.84835520824" lon="17.602743784267">
        <ele>24.6</ele>
        <time>2017-10-15T15:46:31Z</time>
      </trkpt>
      <trkpt lat="59.848380940673" lon="17.602853251881">
        <ele>24.4</ele>
        <time>2017-10-15T15:46:32Z</time>
      </trkpt>
      <trkpt lat="59.848399213215" lon="17.602939753089">
        <ele>24.2</ele>
        <time>2017-10-15T15:46:33Z</time>
      </trkpt>
      <trkpt lat="59.848411702246" lon="17.603034300921">
        <ele>23.8</ele>
        <time>2017-10-15T15:46:34Z</time>
      </trkpt>
      <trkpt lat="59.848416563748" lon="17.603117533188">
        <ele>23.6</ele>
        <time>2017-10-15T15:46:35Z</time>
      </trkpt>
      <trkpt lat="59.848434752471" lon="17.603211159011">
        <ele>23.6</ele>
        <time>2017-10-15T15:46:36Z</time>
      </trkpt>
      <trkpt lat="59.848454701393" lon="17.603310233069">
        <ele>23.6</ele>
        <time>2017-10-15T15:46:37Z</time>
      </trkpt>
      <trkpt lat="59.848478841265" lon="17.603418611036">
        <ele>23.6</ele>
        <time>2017-10-15T15:46:38Z</time>
      </trkpt>
      <trkpt lat="59.848502142947" lon="17.603522462777">
        <ele>23.6</ele>
        <time>2017-10-15T15:46:39Z</time>
      </trkpt>
      <trkpt lat="59.848519577299" lon="17.603629667278">
        <ele>23.6</ele>
        <time>2017-10-15T15:46:40Z</time>
      </trkpt>
      <trkpt lat="59.84853206633" lon="17.603715749391">
        <ele>23.6</ele>
        <time>2017-10-15T15:46:41Z</time>
      </trkpt>
      <trkpt lat="59.848547572845" lon="17.603825217005">
        <ele>23.6</ele>
        <time>2017-10-15T15:46:42Z</time>
      </trkpt>
      <trkpt lat="59.848555451831" lon="17.603920854484">
        <ele>23.4</ele>
        <time>2017-10-15T15:46:43Z</time>
      </trkpt>
      <trkpt lat="59.848565258654" lon="17.604012468651">
        <ele>23.6</ele>
        <time>2017-10-15T15:46:44Z</time>
      </trkpt>
      <trkpt lat="59.84858235773" lon="17.604090168864">
        <ele>23.8</ele>
        <time>2017-10-15T15:46:45Z</time>
      </trkpt>
      <trkpt lat="59.848606832878" lon="17.604141801368">
        <ele>24</ele>
        <time>2017-10-15T15:46:46Z</time>
      </trkpt>
      <trkpt lat="59.848641450125" lon="17.604178262633">
        <ele>24.2</ele>
        <time>2017-10-15T15:46:47Z</time>
      </trkpt>
      <trkpt lat="59.848682772892" lon="17.604189662017">
        <ele>24.2</ele>
        <time>2017-10-15T15:46:48Z</time>
      </trkpt>
      <trkpt lat="59.84872485003" lon="17.60418438142">
        <ele>24.2</ele>
        <time>2017-10-15T15:46:49Z</time>
      </trkpt>
      <trkpt lat="59.8487692741" lon="17.604169210181">
        <ele>24.4</ele>
        <time>2017-10-15T15:46:50Z</time>
      </trkpt>
      <trkpt lat="59.848811435057" lon="17.604161163557">
        <ele>24.4</ele>
        <time>2017-10-15T15:46:51Z</time>
      </trkpt>
      <trkpt lat="59.848851332901" lon="17.604146076137">
        <ele>24.6</ele>
        <time>2017-10-15T15:46:52Z</time>
      </trkpt>
      <trkpt lat="59.848885698691" lon="17.604124953749">
        <ele>24.6</ele>
        <time>2017-10-15T15:46:53Z</time>
      </trkpt>
      <trkpt lat="59.848917549911" lon="17.60411564984">
        <ele>24.6</ele>
        <time>2017-10-15T15:46:54Z</time>
      </trkpt>
      <trkpt lat="59.848946383647" lon="17.604119170238">
        <ele>24.8</ele>
        <time>2017-10-15T15:46:55Z</time>
      </trkpt>
      <trkpt lat="59.84897211608" lon="17.604116655668">
        <ele>24.8</ele>
        <time>2017-10-15T15:46:56Z</time>
      </trkpt>
      <trkpt lat="59.849010169906" lon="17.604104921008">
        <ele>25</ele>
        <time>2017-10-15T15:46:57Z</time>
      </trkpt>
      <trkpt lat="59.849041015298" lon="17.604088241027">
        <ele>25</ele>
        <time>2017-10-15T15:46:58Z</time>
      </trkpt>
      <trkpt lat="59.849066915369" lon="17.604049935744">
        <ele>25</ele>
        <time>2017-10-15T15:46:59Z</time>
      </trkpt>
      <trkpt lat="59.849100862064" lon="17.603988747874">
        <ele>24.8</ele>
        <time>2017-10-15T15:47:00Z</time>
      </trkpt>
      <trkpt lat="59.849131539818" lon="17.603940719587">
        <ele>24.6</ele>
        <time>2017-10-15T15:47:01Z</time>
      </trkpt>
      <trkpt lat="59.849175963888" lon="17.603928230556">
        <ele>24.6</ele>
        <time>2017-10-15T15:47:02Z</time>
      </trkpt>
      <trkpt lat="59.849219046854" lon="17.603961758156">
        <ele>24.4</ele>
        <time>2017-10-15T15:47:03Z</time>
      </trkpt>
      <trkpt lat="59.849260201983" lon="17.604020012361">
        <ele>24.4</ele>
        <time>2017-10-15T15:47:04Z</time>
      </trkpt>
      <trkpt lat="59.849291969384" lon="17.604078685661">
        <ele>24.2</ele>
        <time>2017-10-15T15:47:05Z</time>
      </trkpt>
      <trkpt lat="59.849331112857" lon="17.604143729205">
        <ele>24.2</ele>
        <time>2017-10-15T15:47:06Z</time>
      </trkpt>
      <trkpt lat="59.849373692909" lon="17.60420952712">
        <ele>24</ele>
        <time>2017-10-15T15:47:07Z</time>
      </trkpt>
      <trkpt lat="59.849414428943" lon="17.604277085234">
        <ele>23.8</ele>
        <time>2017-10-15T15:47:08Z</time>
      </trkpt>
      <trkpt lat="59.849451812217" lon="17.604309187911">
        <ele>23.6</ele>
        <time>2017-10-15T15:47:09Z</time>
      </trkpt>
      <trkpt lat="59.849495062821" lon="17.604290580093">
        <ele>23.6</ele>
        <time>2017-10-15T15:47:10Z</time>
      </trkpt>
      <trkpt lat="59.849523980376" lon="17.604247161851">
        <ele>23.4</ele>
        <time>2017-10-15T15:47:11Z</time>
      </trkpt>
      <trkpt lat="59.849560693098" lon="17.604172898217">
        <ele>23.2</ele>
        <time>2017-10-15T15:47:12Z</time>
      </trkpt>
      <trkpt lat="59.849590281205" lon="17.604109950148">
        <ele>23</ele>
        <time>2017-10-15T15:47:13Z</time>
      </trkpt>
      <trkpt lat="59.849613582887" lon="17.604059826386">
        <ele>23</ele>
        <time>2017-10-15T15:47:14Z</time>
      </trkpt>
      <trkpt lat="59.849643841546" lon="17.60402596351">
        <ele>22.8</ele>
        <time>2017-10-15T15:47:15Z</time>
      </trkpt>
      <trkpt lat="59.849675944223" lon="17.604023700397">
        <ele>22.8</ele>
        <time>2017-10-15T15:47:16Z</time>
      </trkpt>
      <trkpt lat="59.84970050319" lon="17.604032501392">
        <ele>22.8</ele>
        <time>2017-10-15T15:47:17Z</time>
      </trkpt>
      <trkpt lat="59.84972313432" lon="17.604034177772">
        <ele>22.8</ele>
        <time>2017-10-15T15:47:18Z</time>
      </trkpt>
      <trkpt lat="59.849747944744" lon="17.604017078696">
        <ele>22.8</ele>
        <time>2017-10-15T15:47:19Z</time>
      </trkpt>
      <trkpt lat="59.849770659693" lon="17.603980617431">
        <ele>22.8</ele>
        <time>2017-10-15T15:47:20Z</time>
      </trkpt>
      <trkpt lat="59.84978935133" lon="17.603933930248">
        <ele>23</ele>
        <time>2017-10-15T15:47:21Z</time>
      </trkpt>
      <trkpt lat="59.849807037139" lon="17.603896295517">
        <ele>23</ele>
        <time>2017-10-15T15:47:22Z</time>
      </trkpt>
      <trkpt lat="59.84983042264" lon="17.603842902814">
        <ele>23</ele>
        <time>2017-10-15T15:47:23Z</time>
      </trkpt>
      <trkpt lat="59.849852886132" lon="17.603794036337">
        <ele>23.2</ele>
        <time>2017-10-15T15:47:24Z</time>
      </trkpt>
      <trkpt lat="59.849861016575" lon="17.60373594977">
        <ele>23.2</ele>
        <time>2017-10-15T15:47:25Z</time>
      </trkpt>
      <trkpt lat="59.849859507833" lon="17.603682640886">
        <ele>23.2</ele>
        <time>2017-10-15T15:47:26Z</time>
      </trkpt>
      <trkpt lat="59.8498421573" lon="17.603627990898">
        <ele>23.2</ele>
        <time>2017-10-15T15:47:27Z</time>
      </trkpt>
      <trkpt lat="59.8498170116" lon="17.603594128022">
        <ele>23</ele>
        <time>2017-10-15T15:47:28Z</time>
      </trkpt>
      <trkpt lat="59.849796308307" lon="17.603582309543">
        <ele>23</ele>
        <time>2017-10-15T15:47:29Z</time>
      </trkpt>
      <trkpt lat="59.849774934462" lon="17.603601420275">
        <ele>23</ele>
        <time>2017-10-15T15:47:30Z</time>
      </trkpt>
      <trkpt lat="59.849768145123" lon="17.603631092201">
        <ele>23</ele>
        <time>2017-10-15T15:47:31Z</time>
      </trkpt>
      <trkpt lat="59.849762780707" lon="17.603661853774">
        <ele>23</ele>
        <time>2017-10-15T15:47:32Z</time>
      </trkpt>
      <trkpt lat="59.849768731856" lon="17.603694375546">
        <ele>22.8</ele>
        <time>2017-10-15T15:47:33Z</time>
      </trkpt>
      <trkpt lat="59.849774096272" lon="17.603712145174">
        <ele>22.8</ele>
        <time>2017-10-15T15:47:34Z</time>
      </trkpt>
      <trkpt lat="59.849779041593" lon="17.603715581753">
        <ele>23</ele>
        <time>2017-10-15T15:47:35Z</time>
      </trkpt>
      <trkpt lat="59.849775437376" lon="17.603718431599">
        <ele>23</ele>
        <time>2017-10-15T15:47:36Z</time>
      </trkpt>
      <trkpt lat="59.849770575874" lon="17.603726310585">
        <ele>23</ele>
        <time>2017-10-15T15:47:37Z</time>
      </trkpt>
    </trkseg>
  </trk>
</gpx>